<?xml version="1.0" encoding="UTF-8" standalone="no" ?>
<gpx xmlns="http://www.topografix.com/GPX/1/1" xmlns:xsi="http://www.w3.org/2001/XMLSchema-instance" xsi:schemaLocation="http://www.topografix.com/GPX/1/1 http://www.topografix.com/GPX/1/1/gpx.xsd" version="1.1" creator="VisuGPX - https://www.visugpx.com">
  <metadata>
    <name>Montagne de Reims, part 1</name>
    <desc><![CDATA[Trace AlpineQuest 20/08/2026 08:55:55]]></desc>
  </metadata>
  <trk>
    <name><![CDATA[visugpx_8t4zMOfZVN_1]]></name>
    <extensions>
      <line xmlns="http://www.topografix.com/GPX/gpx_style/0/2">
        <color>0000FF</color>
        <opacity>1</opacity>
        <width>4</width>
      </line>
    </extensions>
    <trkseg>
      <trkpt lat="49.21471" lon="3.99485">
        <ele>86.1</ele>
        <time>2026-08-20T06:55:54Z</time>
      </trkpt>
      <trkpt lat="49.21476" lon="3.99487">
        <ele>86</ele>
        <time>2026-08-20T06:56:01Z</time>
      </trkpt>
      <trkpt lat="49.21478" lon="3.99481">
        <ele>85.9</ele>
        <time>2026-08-20T06:56:06Z</time>
      </trkpt>
      <trkpt lat="49.21479" lon="3.9948">
        <ele>85.8</ele>
        <time>2026-08-20T06:56:11Z</time>
      </trkpt>
      <trkpt lat="49.21479" lon="3.99477">
        <ele>85.8</ele>
        <time>2026-08-20T06:56:16Z</time>
      </trkpt>
      <trkpt lat="49.21482" lon="3.99473">
        <ele>85.6</ele>
        <time>2026-08-20T06:56:22Z</time>
      </trkpt>
      <trkpt lat="49.21485" lon="3.9947">
        <ele>85.5</ele>
        <time>2026-08-20T06:56:27Z</time>
      </trkpt>
      <trkpt lat="49.21486" lon="3.99468">
        <ele>85.5</ele>
        <time>2026-08-20T06:56:32Z</time>
      </trkpt>
      <trkpt lat="49.21486" lon="3.99468">
        <ele>85.5</ele>
        <time>2026-08-20T06:56:38Z</time>
      </trkpt>
      <trkpt lat="49.21486" lon="3.99468">
        <ele>85.5</ele>
        <time>2026-08-20T06:56:43Z</time>
      </trkpt>
      <trkpt lat="49.21486" lon="3.99468">
        <ele>85.5</ele>
        <time>2026-08-20T06:56:48Z</time>
      </trkpt>
      <trkpt lat="49.21486" lon="3.9947">
        <ele>85.5</ele>
        <time>2026-08-20T06:56:54Z</time>
      </trkpt>
      <trkpt lat="49.21488" lon="3.99473">
        <ele>85.5</ele>
        <time>2026-08-20T06:56:59Z</time>
      </trkpt>
      <trkpt lat="49.21493" lon="3.99478">
        <ele>85.6</ele>
        <time>2026-08-20T06:57:04Z</time>
      </trkpt>
      <trkpt lat="49.21499" lon="3.99483">
        <ele>85.6</ele>
        <time>2026-08-20T06:57:10Z</time>
      </trkpt>
      <trkpt lat="49.21499" lon="3.99483">
        <ele>85.6</ele>
        <time>2026-08-20T06:57:15Z</time>
      </trkpt>
      <trkpt lat="49.21499" lon="3.99483">
        <ele>85.6</ele>
        <time>2026-08-20T06:57:20Z</time>
      </trkpt>
      <trkpt lat="49.21497" lon="3.99487">
        <ele>85.7</ele>
        <time>2026-08-20T06:57:26Z</time>
      </trkpt>
      <trkpt lat="49.21497" lon="3.99494">
        <ele>85.9</ele>
        <time>2026-08-20T06:57:31Z</time>
      </trkpt>
      <trkpt lat="49.21497" lon="3.995">
        <ele>86</ele>
        <time>2026-08-20T06:57:36Z</time>
      </trkpt>
      <trkpt lat="49.21497" lon="3.99503">
        <ele>86.1</ele>
        <time>2026-08-20T06:57:42Z</time>
      </trkpt>
      <trkpt lat="49.21498" lon="3.99509">
        <ele>86.1</ele>
        <time>2026-08-20T06:57:47Z</time>
      </trkpt>
      <trkpt lat="49.21496" lon="3.99515">
        <ele>86.2</ele>
        <time>2026-08-20T06:57:52Z</time>
      </trkpt>
      <trkpt lat="49.21495" lon="3.99521">
        <ele>86.3</ele>
        <time>2026-08-20T06:57:58Z</time>
      </trkpt>
      <trkpt lat="49.21495" lon="3.99522">
        <ele>86.3</ele>
        <time>2026-08-20T06:58:03Z</time>
      </trkpt>
      <trkpt lat="49.21495" lon="3.99522">
        <ele>86.3</ele>
        <time>2026-08-20T06:58:08Z</time>
      </trkpt>
      <trkpt lat="49.21494" lon="3.99525">
        <ele>86.4</ele>
        <time>2026-08-20T06:58:14Z</time>
      </trkpt>
      <trkpt lat="49.21493" lon="3.99531">
        <ele>86.5</ele>
        <time>2026-08-20T06:58:19Z</time>
      </trkpt>
      <trkpt lat="49.21496" lon="3.99535">
        <ele>86.5</ele>
        <time>2026-08-20T06:58:24Z</time>
      </trkpt>
      <trkpt lat="49.215" lon="3.9954">
        <ele>86.5</ele>
        <time>2026-08-20T06:58:30Z</time>
      </trkpt>
      <trkpt lat="49.21504" lon="3.99545">
        <ele>86.4</ele>
        <time>2026-08-20T06:58:35Z</time>
      </trkpt>
      <trkpt lat="49.21508" lon="3.99547">
        <ele>86.4</ele>
        <time>2026-08-20T06:58:40Z</time>
      </trkpt>
      <trkpt lat="49.21512" lon="3.99555">
        <ele>86.4</ele>
        <time>2026-08-20T06:58:46Z</time>
      </trkpt>
      <trkpt lat="49.21512" lon="3.99557">
        <ele>86.4</ele>
        <time>2026-08-20T06:58:51Z</time>
      </trkpt>
      <trkpt lat="49.21514" lon="3.99557">
        <ele>86.3</ele>
        <time>2026-08-20T06:58:56Z</time>
      </trkpt>
      <trkpt lat="49.21516" lon="3.99556">
        <ele>86.3</ele>
        <time>2026-08-20T06:59:02Z</time>
      </trkpt>
      <trkpt lat="49.21516" lon="3.99556">
        <ele>86.3</ele>
        <time>2026-08-20T06:59:07Z</time>
      </trkpt>
      <trkpt lat="49.21516" lon="3.99556">
        <ele>86.3</ele>
        <time>2026-08-20T06:59:12Z</time>
      </trkpt>
      <trkpt lat="49.21518" lon="3.9956">
        <ele>86.3</ele>
        <time>2026-08-20T06:59:18Z</time>
      </trkpt>
      <trkpt lat="49.2152" lon="3.99562">
        <ele>86.3</ele>
        <time>2026-08-20T06:59:23Z</time>
      </trkpt>
      <trkpt lat="49.2152" lon="3.99562">
        <ele>86.3</ele>
        <time>2026-08-20T06:59:28Z</time>
      </trkpt>
      <trkpt lat="49.2152" lon="3.99562">
        <ele>86.3</ele>
        <time>2026-08-20T06:59:34Z</time>
      </trkpt>
      <trkpt lat="49.2152" lon="3.99562">
        <ele>86.3</ele>
        <time>2026-08-20T06:59:39Z</time>
      </trkpt>
      <trkpt lat="49.2152" lon="3.99562">
        <ele>86.3</ele>
        <time>2026-08-20T06:59:44Z</time>
      </trkpt>
      <trkpt lat="49.2152" lon="3.99562">
        <ele>86.3</ele>
        <time>2026-08-20T06:59:50Z</time>
      </trkpt>
      <trkpt lat="49.2152" lon="3.99562">
        <ele>86.3</ele>
        <time>2026-08-20T06:59:55Z</time>
      </trkpt>
      <trkpt lat="49.2152" lon="3.99562">
        <ele>86.3</ele>
        <time>2026-08-20T07:00:00Z</time>
      </trkpt>
      <trkpt lat="49.2152" lon="3.99562">
        <ele>86.3</ele>
        <time>2026-08-20T07:00:06Z</time>
      </trkpt>
      <trkpt lat="49.2152" lon="3.99562">
        <ele>86.3</ele>
        <time>2026-08-20T07:00:11Z</time>
      </trkpt>
      <trkpt lat="49.2152" lon="3.99562">
        <ele>86.3</ele>
        <time>2026-08-20T07:00:16Z</time>
      </trkpt>
      <trkpt lat="49.2152" lon="3.99562">
        <ele>86.3</ele>
        <time>2026-08-20T07:00:22Z</time>
      </trkpt>
      <trkpt lat="49.2152" lon="3.99562">
        <ele>86.3</ele>
        <time>2026-08-20T07:00:27Z</time>
      </trkpt>
      <trkpt lat="49.2152" lon="3.99562">
        <ele>86.3</ele>
        <time>2026-08-20T07:00:32Z</time>
      </trkpt>
      <trkpt lat="49.21528" lon="3.99576">
        <ele>86.2</ele>
        <time>2026-08-20T07:00:38Z</time>
      </trkpt>
      <trkpt lat="49.21532" lon="3.99583">
        <ele>86.2</ele>
        <time>2026-08-20T07:00:43Z</time>
      </trkpt>
      <trkpt lat="49.21537" lon="3.99589">
        <ele>86.2</ele>
        <time>2026-08-20T07:00:48Z</time>
      </trkpt>
      <trkpt lat="49.21541" lon="3.99597">
        <ele>86.2</ele>
        <time>2026-08-20T07:00:54Z</time>
      </trkpt>
      <trkpt lat="49.21545" lon="3.99602">
        <ele>86.2</ele>
        <time>2026-08-20T07:00:59Z</time>
      </trkpt>
      <trkpt lat="49.21549" lon="3.99609">
        <ele>86.2</ele>
        <time>2026-08-20T07:01:04Z</time>
      </trkpt>
      <trkpt lat="49.21554" lon="3.99616">
        <ele>86.2</ele>
        <time>2026-08-20T07:01:10Z</time>
      </trkpt>
      <trkpt lat="49.21558" lon="3.99621">
        <ele>86.2</ele>
        <time>2026-08-20T07:01:15Z</time>
      </trkpt>
      <trkpt lat="49.21561" lon="3.99629">
        <ele>86.3</ele>
        <time>2026-08-20T07:01:20Z</time>
      </trkpt>
      <trkpt lat="49.2156" lon="3.99639">
        <ele>86.5</ele>
        <time>2026-08-20T07:01:26Z</time>
      </trkpt>
      <trkpt lat="49.21562" lon="3.99647">
        <ele>86.6</ele>
        <time>2026-08-20T07:01:31Z</time>
      </trkpt>
      <trkpt lat="49.21565" lon="3.99654">
        <ele>86.8</ele>
        <time>2026-08-20T07:01:36Z</time>
      </trkpt>
      <trkpt lat="49.2157" lon="3.99661">
        <ele>86.9</ele>
        <time>2026-08-20T07:01:42Z</time>
      </trkpt>
      <trkpt lat="49.21574" lon="3.99668">
        <ele>87</ele>
        <time>2026-08-20T07:01:47Z</time>
      </trkpt>
      <trkpt lat="49.21579" lon="3.99674">
        <ele>87</ele>
        <time>2026-08-20T07:01:52Z</time>
      </trkpt>
      <trkpt lat="49.21585" lon="3.99682">
        <ele>87</ele>
        <time>2026-08-20T07:01:58Z</time>
      </trkpt>
      <trkpt lat="49.21589" lon="3.99688">
        <ele>86.9</ele>
        <time>2026-08-20T07:02:03Z</time>
      </trkpt>
      <trkpt lat="49.21593" lon="3.99695">
        <ele>86.9</ele>
        <time>2026-08-20T07:02:08Z</time>
      </trkpt>
      <trkpt lat="49.21599" lon="3.99703">
        <ele>86.8</ele>
        <time>2026-08-20T07:02:14Z</time>
      </trkpt>
      <trkpt lat="49.21604" lon="3.99709">
        <ele>86.8</ele>
        <time>2026-08-20T07:02:19Z</time>
      </trkpt>
      <trkpt lat="49.21605" lon="3.9971">
        <ele>86.7</ele>
        <time>2026-08-20T07:02:24Z</time>
      </trkpt>
      <trkpt lat="49.21605" lon="3.9971">
        <ele>86.7</ele>
        <time>2026-08-20T07:02:30Z</time>
      </trkpt>
      <trkpt lat="49.21605" lon="3.9971">
        <ele>86.7</ele>
        <time>2026-08-20T07:02:35Z</time>
      </trkpt>
      <trkpt lat="49.21604" lon="3.99707">
        <ele>86.8</ele>
        <time>2026-08-20T07:02:40Z</time>
      </trkpt>
      <trkpt lat="49.21599" lon="3.99702">
        <ele>86.8</ele>
        <time>2026-08-20T07:02:46Z</time>
      </trkpt>
      <trkpt lat="49.21595" lon="3.99697">
        <ele>86.9</ele>
        <time>2026-08-20T07:02:51Z</time>
      </trkpt>
      <trkpt lat="49.21591" lon="3.9969">
        <ele>86.9</ele>
        <time>2026-08-20T07:02:56Z</time>
      </trkpt>
      <trkpt lat="49.21586" lon="3.99682">
        <ele>87</ele>
        <time>2026-08-20T07:03:02Z</time>
      </trkpt>
      <trkpt lat="49.21581" lon="3.99676">
        <ele>87</ele>
        <time>2026-08-20T07:03:07Z</time>
      </trkpt>
      <trkpt lat="49.21575" lon="3.9967">
        <ele>87</ele>
        <time>2026-08-20T07:03:12Z</time>
      </trkpt>
      <trkpt lat="49.21572" lon="3.99663">
        <ele>86.9</ele>
        <time>2026-08-20T07:03:18Z</time>
      </trkpt>
      <trkpt lat="49.21571" lon="3.99661">
        <ele>86.9</ele>
        <time>2026-08-20T07:03:23Z</time>
      </trkpt>
      <trkpt lat="49.21571" lon="3.99661">
        <ele>86.9</ele>
        <time>2026-08-20T07:03:28Z</time>
      </trkpt>
      <trkpt lat="49.21571" lon="3.99661">
        <ele>86.9</ele>
        <time>2026-08-20T07:03:34Z</time>
      </trkpt>
      <trkpt lat="49.21571" lon="3.99661">
        <ele>86.9</ele>
        <time>2026-08-20T07:03:39Z</time>
      </trkpt>
      <trkpt lat="49.21571" lon="3.99661">
        <ele>86.9</ele>
        <time>2026-08-20T07:03:44Z</time>
      </trkpt>
      <trkpt lat="49.21567" lon="3.99657">
        <ele>86.8</ele>
        <time>2026-08-20T07:03:50Z</time>
      </trkpt>
      <trkpt lat="49.21562" lon="3.99653">
        <ele>86.8</ele>
        <time>2026-08-20T07:03:55Z</time>
      </trkpt>
      <trkpt lat="49.2156" lon="3.99657">
        <ele>86.8</ele>
        <time>2026-08-20T07:04:00Z</time>
      </trkpt>
      <trkpt lat="49.21559" lon="3.99657">
        <ele>86.8</ele>
        <time>2026-08-20T07:04:06Z</time>
      </trkpt>
      <trkpt lat="49.21559" lon="3.99662">
        <ele>86.9</ele>
        <time>2026-08-20T07:04:11Z</time>
      </trkpt>
      <trkpt lat="49.21557" lon="3.99666">
        <ele>87</ele>
        <time>2026-08-20T07:04:16Z</time>
      </trkpt>
      <trkpt lat="49.21558" lon="3.99667">
        <ele>87</ele>
        <time>2026-08-20T07:04:22Z</time>
      </trkpt>
      <trkpt lat="49.21558" lon="3.99667">
        <ele>87</ele>
        <time>2026-08-20T07:04:27Z</time>
      </trkpt>
      <trkpt lat="49.21558" lon="3.99667">
        <ele>87</ele>
        <time>2026-08-20T07:04:32Z</time>
      </trkpt>
      <trkpt lat="49.21556" lon="3.99671">
        <ele>87</ele>
        <time>2026-08-20T07:04:38Z</time>
      </trkpt>
      <trkpt lat="49.21555" lon="3.99675">
        <ele>87</ele>
        <time>2026-08-20T07:04:43Z</time>
      </trkpt>
      <trkpt lat="49.21555" lon="3.99677">
        <ele>87</ele>
        <time>2026-08-20T07:04:48Z</time>
      </trkpt>
      <trkpt lat="49.21555" lon="3.99678">
        <ele>87</ele>
        <time>2026-08-20T07:04:54Z</time>
      </trkpt>
      <trkpt lat="49.21551" lon="3.99682">
        <ele>87.1</ele>
        <time>2026-08-20T07:04:59Z</time>
      </trkpt>
      <trkpt lat="49.21549" lon="3.99688">
        <ele>87.1</ele>
        <time>2026-08-20T07:05:04Z</time>
      </trkpt>
      <trkpt lat="49.21549" lon="3.99689">
        <ele>87.1</ele>
        <time>2026-08-20T07:05:10Z</time>
      </trkpt>
      <trkpt lat="49.21548" lon="3.9969">
        <ele>87.1</ele>
        <time>2026-08-20T07:05:15Z</time>
      </trkpt>
      <trkpt lat="49.21547" lon="3.99693">
        <ele>87.1</ele>
        <time>2026-08-20T07:05:20Z</time>
      </trkpt>
      <trkpt lat="49.21544" lon="3.99695">
        <ele>87.2</ele>
        <time>2026-08-20T07:05:26Z</time>
      </trkpt>
      <trkpt lat="49.21543" lon="3.99697">
        <ele>87.2</ele>
        <time>2026-08-20T07:05:31Z</time>
      </trkpt>
      <trkpt lat="49.21543" lon="3.99697">
        <ele>87.2</ele>
        <time>2026-08-20T07:05:36Z</time>
      </trkpt>
      <trkpt lat="49.21543" lon="3.99697">
        <ele>87.2</ele>
        <time>2026-08-20T07:05:42Z</time>
      </trkpt>
      <trkpt lat="49.21543" lon="3.99697">
        <ele>87.2</ele>
        <time>2026-08-20T07:05:47Z</time>
      </trkpt>
      <trkpt lat="49.21543" lon="3.99697">
        <ele>87.2</ele>
        <time>2026-08-20T07:05:52Z</time>
      </trkpt>
      <trkpt lat="49.21543" lon="3.99697">
        <ele>87.2</ele>
        <time>2026-08-20T07:05:58Z</time>
      </trkpt>
      <trkpt lat="49.21543" lon="3.99697">
        <ele>87.2</ele>
        <time>2026-08-20T07:06:03Z</time>
      </trkpt>
      <trkpt lat="49.21543" lon="3.99697">
        <ele>87.2</ele>
        <time>2026-08-20T07:06:08Z</time>
      </trkpt>
      <trkpt lat="49.2154" lon="3.99708">
        <ele>87.3</ele>
        <time>2026-08-20T07:06:14Z</time>
      </trkpt>
      <trkpt lat="49.2154" lon="3.99708">
        <ele>87.3</ele>
        <time>2026-08-20T07:06:19Z</time>
      </trkpt>
      <trkpt lat="49.2154" lon="3.99708">
        <ele>87.3</ele>
        <time>2026-08-20T07:06:24Z</time>
      </trkpt>
      <trkpt lat="49.2154" lon="3.99708">
        <ele>87.3</ele>
        <time>2026-08-20T07:06:30Z</time>
      </trkpt>
      <trkpt lat="49.21538" lon="3.99716">
        <ele>87.3</ele>
        <time>2026-08-20T07:06:35Z</time>
      </trkpt>
      <trkpt lat="49.21537" lon="3.99719">
        <ele>87.3</ele>
        <time>2026-08-20T07:06:40Z</time>
      </trkpt>
      <trkpt lat="49.21535" lon="3.99726">
        <ele>87.4</ele>
        <time>2026-08-20T07:06:46Z</time>
      </trkpt>
      <trkpt lat="49.21534" lon="3.99728">
        <ele>87.4</ele>
        <time>2026-08-20T07:06:51Z</time>
      </trkpt>
      <trkpt lat="49.21534" lon="3.99732">
        <ele>87.5</ele>
        <time>2026-08-20T07:06:56Z</time>
      </trkpt>
      <trkpt lat="49.2153" lon="3.9974">
        <ele>87.6</ele>
        <time>2026-08-20T07:07:02Z</time>
      </trkpt>
      <trkpt lat="49.21529" lon="3.99746">
        <ele>87.6</ele>
        <time>2026-08-20T07:07:07Z</time>
      </trkpt>
      <trkpt lat="49.21529" lon="3.99747">
        <ele>87.6</ele>
        <time>2026-08-20T07:07:12Z</time>
      </trkpt>
      <trkpt lat="49.21529" lon="3.99747">
        <ele>87.6</ele>
        <time>2026-08-20T07:07:18Z</time>
      </trkpt>
      <trkpt lat="49.21527" lon="3.99751">
        <ele>87.7</ele>
        <time>2026-08-20T07:07:23Z</time>
      </trkpt>
      <trkpt lat="49.21525" lon="3.99758">
        <ele>87.8</ele>
        <time>2026-08-20T07:07:28Z</time>
      </trkpt>
      <trkpt lat="49.21521" lon="3.99764">
        <ele>88</ele>
        <time>2026-08-20T07:07:34Z</time>
      </trkpt>
      <trkpt lat="49.21519" lon="3.99768">
        <ele>88.1</ele>
        <time>2026-08-20T07:07:39Z</time>
      </trkpt>
      <trkpt lat="49.21519" lon="3.99769">
        <ele>88.1</ele>
        <time>2026-08-20T07:07:44Z</time>
      </trkpt>
      <trkpt lat="49.2152" lon="3.9977">
        <ele>88.1</ele>
        <time>2026-08-20T07:07:50Z</time>
      </trkpt>
      <trkpt lat="49.21516" lon="3.99772">
        <ele>88.2</ele>
        <time>2026-08-20T07:07:55Z</time>
      </trkpt>
      <trkpt lat="49.21511" lon="3.99772">
        <ele>88.3</ele>
        <time>2026-08-20T07:08:00Z</time>
      </trkpt>
      <trkpt lat="49.21504" lon="3.99771">
        <ele>88.4</ele>
        <time>2026-08-20T07:08:06Z</time>
      </trkpt>
      <trkpt lat="49.21499" lon="3.99773">
        <ele>88.6</ele>
        <time>2026-08-20T07:08:11Z</time>
      </trkpt>
      <trkpt lat="49.21493" lon="3.99773">
        <ele>88.8</ele>
        <time>2026-08-20T07:08:16Z</time>
      </trkpt>
      <trkpt lat="49.21488" lon="3.99776">
        <ele>89</ele>
        <time>2026-08-20T07:08:22Z</time>
      </trkpt>
      <trkpt lat="49.21484" lon="3.99778">
        <ele>89.1</ele>
        <time>2026-08-20T07:08:27Z</time>
      </trkpt>
      <trkpt lat="49.21483" lon="3.99777">
        <ele>89.1</ele>
        <time>2026-08-20T07:08:32Z</time>
      </trkpt>
      <trkpt lat="49.21483" lon="3.99777">
        <ele>89.1</ele>
        <time>2026-08-20T07:08:38Z</time>
      </trkpt>
      <trkpt lat="49.21483" lon="3.99777">
        <ele>89.1</ele>
        <time>2026-08-20T07:08:43Z</time>
      </trkpt>
      <trkpt lat="49.21483" lon="3.99777">
        <ele>89.1</ele>
        <time>2026-08-20T07:08:48Z</time>
      </trkpt>
      <trkpt lat="49.21481" lon="3.99778">
        <ele>89.2</ele>
        <time>2026-08-20T07:08:54Z</time>
      </trkpt>
      <trkpt lat="49.21479" lon="3.99781">
        <ele>89.3</ele>
        <time>2026-08-20T07:08:59Z</time>
      </trkpt>
      <trkpt lat="49.21477" lon="3.99785">
        <ele>89.4</ele>
        <time>2026-08-20T07:09:04Z</time>
      </trkpt>
      <trkpt lat="49.21474" lon="3.99789">
        <ele>89.6</ele>
        <time>2026-08-20T07:09:10Z</time>
      </trkpt>
      <trkpt lat="49.21471" lon="3.99789">
        <ele>89.7</ele>
        <time>2026-08-20T07:09:15Z</time>
      </trkpt>
      <trkpt lat="49.21471" lon="3.99788">
        <ele>89.6</ele>
        <time>2026-08-20T07:09:20Z</time>
      </trkpt>
      <trkpt lat="49.21471" lon="3.99788">
        <ele>89.6</ele>
        <time>2026-08-20T07:09:26Z</time>
      </trkpt>
      <trkpt lat="49.21471" lon="3.99788">
        <ele>89.6</ele>
        <time>2026-08-20T07:09:31Z</time>
      </trkpt>
      <trkpt lat="49.21471" lon="3.99788">
        <ele>89.6</ele>
        <time>2026-08-20T07:09:36Z</time>
      </trkpt>
      <trkpt lat="49.21471" lon="3.99788">
        <ele>89.6</ele>
        <time>2026-08-20T07:09:42Z</time>
      </trkpt>
      <trkpt lat="49.21471" lon="3.99788">
        <ele>89.6</ele>
        <time>2026-08-20T07:09:47Z</time>
      </trkpt>
      <trkpt lat="49.21471" lon="3.99788">
        <ele>89.6</ele>
        <time>2026-08-20T07:09:52Z</time>
      </trkpt>
      <trkpt lat="49.21471" lon="3.99788">
        <ele>89.6</ele>
        <time>2026-08-20T07:09:58Z</time>
      </trkpt>
      <trkpt lat="49.21471" lon="3.99788">
        <ele>89.6</ele>
        <time>2026-08-20T07:10:03Z</time>
      </trkpt>
      <trkpt lat="49.21471" lon="3.99788">
        <ele>89.6</ele>
        <time>2026-08-20T07:10:08Z</time>
      </trkpt>
      <trkpt lat="49.21471" lon="3.99788">
        <ele>89.6</ele>
        <time>2026-08-20T07:10:14Z</time>
      </trkpt>
      <trkpt lat="49.21471" lon="3.99788">
        <ele>89.6</ele>
        <time>2026-08-20T07:10:19Z</time>
      </trkpt>
      <trkpt lat="49.21471" lon="3.99788">
        <ele>89.6</ele>
        <time>2026-08-20T07:10:24Z</time>
      </trkpt>
      <trkpt lat="49.21471" lon="3.99788">
        <ele>89.6</ele>
        <time>2026-08-20T07:10:30Z</time>
      </trkpt>
      <trkpt lat="49.21471" lon="3.99788">
        <ele>89.6</ele>
        <time>2026-08-20T07:10:35Z</time>
      </trkpt>
      <trkpt lat="49.21466" lon="3.99795">
        <ele>89.9</ele>
        <time>2026-08-20T07:10:40Z</time>
      </trkpt>
      <trkpt lat="49.21462" lon="3.99803">
        <ele>90.1</ele>
        <time>2026-08-20T07:10:46Z</time>
      </trkpt>
      <trkpt lat="49.2146" lon="3.99813">
        <ele>90.2</ele>
        <time>2026-08-20T07:10:51Z</time>
      </trkpt>
      <trkpt lat="49.21458" lon="3.99822">
        <ele>90.4</ele>
        <time>2026-08-20T07:10:56Z</time>
      </trkpt>
      <trkpt lat="49.21456" lon="3.99833">
        <ele>90.5</ele>
        <time>2026-08-20T07:11:02Z</time>
      </trkpt>
      <trkpt lat="49.21456" lon="3.99841">
        <ele>90.7</ele>
        <time>2026-08-20T07:11:07Z</time>
      </trkpt>
      <trkpt lat="49.21457" lon="3.99849">
        <ele>90.9</ele>
        <time>2026-08-20T07:11:12Z</time>
      </trkpt>
      <trkpt lat="49.21459" lon="3.99858">
        <ele>91.1</ele>
        <time>2026-08-20T07:11:18Z</time>
      </trkpt>
      <trkpt lat="49.2146" lon="3.99862">
        <ele>91.2</ele>
        <time>2026-08-20T07:11:23Z</time>
      </trkpt>
      <trkpt lat="49.2146" lon="3.99864">
        <ele>91.2</ele>
        <time>2026-08-20T07:11:28Z</time>
      </trkpt>
      <trkpt lat="49.2146" lon="3.99864">
        <ele>91.2</ele>
        <time>2026-08-20T07:11:34Z</time>
      </trkpt>
      <trkpt lat="49.2146" lon="3.99864">
        <ele>91.2</ele>
        <time>2026-08-20T07:11:39Z</time>
      </trkpt>
      <trkpt lat="49.2146" lon="3.99864">
        <ele>91.2</ele>
        <time>2026-08-20T07:11:44Z</time>
      </trkpt>
      <trkpt lat="49.2146" lon="3.99864">
        <ele>91.2</ele>
        <time>2026-08-20T07:11:50Z</time>
      </trkpt>
      <trkpt lat="49.2146" lon="3.99864">
        <ele>91.2</ele>
        <time>2026-08-20T07:11:55Z</time>
      </trkpt>
      <trkpt lat="49.2146" lon="3.99864">
        <ele>91.2</ele>
        <time>2026-08-20T07:12:00Z</time>
      </trkpt>
      <trkpt lat="49.2146" lon="3.99864">
        <ele>91.2</ele>
        <time>2026-08-20T07:12:06Z</time>
      </trkpt>
      <trkpt lat="49.2146" lon="3.99864">
        <ele>91.2</ele>
        <time>2026-08-20T07:12:11Z</time>
      </trkpt>
      <trkpt lat="49.2146" lon="3.99864">
        <ele>91.2</ele>
        <time>2026-08-20T07:12:16Z</time>
      </trkpt>
      <trkpt lat="49.2146" lon="3.99864">
        <ele>91.2</ele>
        <time>2026-08-20T07:12:22Z</time>
      </trkpt>
      <trkpt lat="49.2146" lon="3.99864">
        <ele>91.2</ele>
        <time>2026-08-20T07:12:27Z</time>
      </trkpt>
      <trkpt lat="49.2146" lon="3.99864">
        <ele>91.2</ele>
        <time>2026-08-20T07:12:32Z</time>
      </trkpt>
      <trkpt lat="49.2146" lon="3.99864">
        <ele>91.2</ele>
        <time>2026-08-20T07:12:38Z</time>
      </trkpt>
      <trkpt lat="49.2146" lon="3.99864">
        <ele>91.2</ele>
        <time>2026-08-20T07:12:43Z</time>
      </trkpt>
      <trkpt lat="49.2146" lon="3.99864">
        <ele>91.2</ele>
        <time>2026-08-20T07:12:48Z</time>
      </trkpt>
      <trkpt lat="49.2146" lon="3.99864">
        <ele>91.2</ele>
        <time>2026-08-20T07:12:54Z</time>
      </trkpt>
      <trkpt lat="49.2146" lon="3.99864">
        <ele>91.2</ele>
        <time>2026-08-20T07:12:59Z</time>
      </trkpt>
      <trkpt lat="49.2146" lon="3.99864">
        <ele>91.2</ele>
        <time>2026-08-20T07:13:04Z</time>
      </trkpt>
      <trkpt lat="49.2146" lon="3.99864">
        <ele>91.2</ele>
        <time>2026-08-20T07:13:10Z</time>
      </trkpt>
      <trkpt lat="49.2146" lon="3.99864">
        <ele>91.2</ele>
        <time>2026-08-20T07:13:15Z</time>
      </trkpt>
      <trkpt lat="49.2146" lon="3.99864">
        <ele>91.2</ele>
        <time>2026-08-20T07:13:20Z</time>
      </trkpt>
      <trkpt lat="49.2146" lon="3.99864">
        <ele>91.2</ele>
        <time>2026-08-20T07:13:26Z</time>
      </trkpt>
      <trkpt lat="49.2146" lon="3.99864">
        <ele>91.2</ele>
        <time>2026-08-20T07:13:31Z</time>
      </trkpt>
      <trkpt lat="49.2146" lon="3.99864">
        <ele>91.2</ele>
        <time>2026-08-20T07:13:36Z</time>
      </trkpt>
      <trkpt lat="49.2146" lon="3.99864">
        <ele>91.2</ele>
        <time>2026-08-20T07:13:42Z</time>
      </trkpt>
      <trkpt lat="49.2146" lon="3.99864">
        <ele>91.2</ele>
        <time>2026-08-20T07:13:47Z</time>
      </trkpt>
      <trkpt lat="49.2146" lon="3.99864">
        <ele>91.2</ele>
        <time>2026-08-20T07:13:52Z</time>
      </trkpt>
      <trkpt lat="49.2146" lon="3.99864">
        <ele>91.2</ele>
        <time>2026-08-20T07:13:58Z</time>
      </trkpt>
      <trkpt lat="49.2146" lon="3.99864">
        <ele>91.2</ele>
        <time>2026-08-20T07:14:03Z</time>
      </trkpt>
      <trkpt lat="49.2146" lon="3.99864">
        <ele>91.2</ele>
        <time>2026-08-20T07:14:08Z</time>
      </trkpt>
      <trkpt lat="49.2146" lon="3.99864">
        <ele>91.2</ele>
        <time>2026-08-20T07:14:14Z</time>
      </trkpt>
      <trkpt lat="49.2146" lon="3.99864">
        <ele>91.2</ele>
        <time>2026-08-20T07:14:19Z</time>
      </trkpt>
      <trkpt lat="49.2146" lon="3.99864">
        <ele>91.2</ele>
        <time>2026-08-20T07:14:24Z</time>
      </trkpt>
      <trkpt lat="49.2146" lon="3.99864">
        <ele>91.2</ele>
        <time>2026-08-20T07:14:30Z</time>
      </trkpt>
      <trkpt lat="49.2146" lon="3.99864">
        <ele>91.2</ele>
        <time>2026-08-20T07:14:35Z</time>
      </trkpt>
      <trkpt lat="49.2146" lon="3.99864">
        <ele>91.2</ele>
        <time>2026-08-20T07:14:40Z</time>
      </trkpt>
      <trkpt lat="49.2146" lon="3.99864">
        <ele>91.2</ele>
        <time>2026-08-20T07:14:46Z</time>
      </trkpt>
      <trkpt lat="49.2146" lon="3.99864">
        <ele>91.2</ele>
        <time>2026-08-20T07:14:51Z</time>
      </trkpt>
      <trkpt lat="49.2146" lon="3.99864">
        <ele>91.2</ele>
        <time>2026-08-20T07:14:56Z</time>
      </trkpt>
      <trkpt lat="49.2146" lon="3.99864">
        <ele>91.2</ele>
        <time>2026-08-20T07:15:02Z</time>
      </trkpt>
      <trkpt lat="49.2146" lon="3.99864">
        <ele>91.2</ele>
        <time>2026-08-20T07:15:07Z</time>
      </trkpt>
      <trkpt lat="49.2146" lon="3.99864">
        <ele>91.2</ele>
        <time>2026-08-20T07:15:12Z</time>
      </trkpt>
      <trkpt lat="49.2146" lon="3.99864">
        <ele>91.2</ele>
        <time>2026-08-20T07:15:18Z</time>
      </trkpt>
      <trkpt lat="49.2146" lon="3.99864">
        <ele>91.2</ele>
        <time>2026-08-20T07:15:23Z</time>
      </trkpt>
      <trkpt lat="49.2146" lon="3.99864">
        <ele>91.2</ele>
        <time>2026-08-20T07:15:28Z</time>
      </trkpt>
      <trkpt lat="49.2146" lon="3.99864">
        <ele>91.2</ele>
        <time>2026-08-20T07:15:34Z</time>
      </trkpt>
      <trkpt lat="49.2146" lon="3.99867">
        <ele>91.3</ele>
        <time>2026-08-20T07:15:39Z</time>
      </trkpt>
      <trkpt lat="49.21461" lon="3.99872">
        <ele>91.4</ele>
        <time>2026-08-20T07:15:44Z</time>
      </trkpt>
      <trkpt lat="49.21464" lon="3.99879">
        <ele>91.5</ele>
        <time>2026-08-20T07:15:50Z</time>
      </trkpt>
      <trkpt lat="49.21469" lon="3.99884">
        <ele>91.6</ele>
        <time>2026-08-20T07:15:55Z</time>
      </trkpt>
      <trkpt lat="49.21474" lon="3.9989">
        <ele>91.7</ele>
        <time>2026-08-20T07:16:00Z</time>
      </trkpt>
      <trkpt lat="49.21481" lon="3.99895">
        <ele>91.7</ele>
        <time>2026-08-20T07:16:06Z</time>
      </trkpt>
      <trkpt lat="49.21484" lon="3.99899">
        <ele>91.8</ele>
        <time>2026-08-20T07:16:11Z</time>
      </trkpt>
      <trkpt lat="49.2149" lon="3.99903">
        <ele>91.8</ele>
        <time>2026-08-20T07:16:16Z</time>
      </trkpt>
      <trkpt lat="49.21492" lon="3.99909">
        <ele>91.9</ele>
        <time>2026-08-20T07:16:22Z</time>
      </trkpt>
      <trkpt lat="49.21492" lon="3.99909">
        <ele>91.9</ele>
        <time>2026-08-20T07:16:27Z</time>
      </trkpt>
      <trkpt lat="49.21492" lon="3.99909">
        <ele>91.9</ele>
        <time>2026-08-20T07:16:32Z</time>
      </trkpt>
      <trkpt lat="49.21492" lon="3.99909">
        <ele>91.9</ele>
        <time>2026-08-20T07:16:38Z</time>
      </trkpt>
      <trkpt lat="49.21492" lon="3.99909">
        <ele>91.9</ele>
        <time>2026-08-20T07:16:43Z</time>
      </trkpt>
      <trkpt lat="49.21492" lon="3.99909">
        <ele>91.9</ele>
        <time>2026-08-20T07:16:48Z</time>
      </trkpt>
      <trkpt lat="49.21492" lon="3.99909">
        <ele>91.9</ele>
        <time>2026-08-20T07:16:54Z</time>
      </trkpt>
      <trkpt lat="49.21492" lon="3.99909">
        <ele>91.9</ele>
        <time>2026-08-20T07:16:59Z</time>
      </trkpt>
      <trkpt lat="49.21492" lon="3.99909">
        <ele>91.9</ele>
        <time>2026-08-20T07:17:04Z</time>
      </trkpt>
      <trkpt lat="49.21492" lon="3.99909">
        <ele>91.9</ele>
        <time>2026-08-20T07:17:10Z</time>
      </trkpt>
      <trkpt lat="49.21492" lon="3.99909">
        <ele>91.9</ele>
        <time>2026-08-20T07:17:15Z</time>
      </trkpt>
      <trkpt lat="49.21492" lon="3.99909">
        <ele>91.9</ele>
        <time>2026-08-20T07:17:20Z</time>
      </trkpt>
      <trkpt lat="49.21495" lon="3.99927">
        <ele>92</ele>
        <time>2026-08-20T07:17:26Z</time>
      </trkpt>
      <trkpt lat="49.21495" lon="3.99927">
        <ele>92</ele>
        <time>2026-08-20T07:17:31Z</time>
      </trkpt>
      <trkpt lat="49.21495" lon="3.99927">
        <ele>92</ele>
        <time>2026-08-20T07:17:36Z</time>
      </trkpt>
      <trkpt lat="49.21495" lon="3.99927">
        <ele>92</ele>
        <time>2026-08-20T07:17:42Z</time>
      </trkpt>
      <trkpt lat="49.21495" lon="3.99927">
        <ele>92</ele>
        <time>2026-08-20T07:17:47Z</time>
      </trkpt>
      <trkpt lat="49.21495" lon="3.99927">
        <ele>92</ele>
        <time>2026-08-20T07:17:52Z</time>
      </trkpt>
      <trkpt lat="49.21495" lon="3.99927">
        <ele>92</ele>
        <time>2026-08-20T07:17:58Z</time>
      </trkpt>
      <trkpt lat="49.21495" lon="3.99927">
        <ele>92</ele>
        <time>2026-08-20T07:18:03Z</time>
      </trkpt>
      <trkpt lat="49.21495" lon="3.99927">
        <ele>92</ele>
        <time>2026-08-20T07:18:08Z</time>
      </trkpt>
      <trkpt lat="49.21499" lon="3.99938">
        <ele>91.8</ele>
        <time>2026-08-20T07:18:14Z</time>
      </trkpt>
      <trkpt lat="49.215" lon="3.99949">
        <ele>91.6</ele>
        <time>2026-08-20T07:18:19Z</time>
      </trkpt>
      <trkpt lat="49.215" lon="3.99959">
        <ele>91.5</ele>
        <time>2026-08-20T07:18:24Z</time>
      </trkpt>
      <trkpt lat="49.21502" lon="3.99971">
        <ele>91.3</ele>
        <time>2026-08-20T07:18:30Z</time>
      </trkpt>
      <trkpt lat="49.21502" lon="3.99981">
        <ele>91.2</ele>
        <time>2026-08-20T07:18:35Z</time>
      </trkpt>
      <trkpt lat="49.21504" lon="3.9999">
        <ele>91</ele>
        <time>2026-08-20T07:18:40Z</time>
      </trkpt>
      <trkpt lat="49.21505" lon="4.00002">
        <ele>90.9</ele>
        <time>2026-08-20T07:18:46Z</time>
      </trkpt>
      <trkpt lat="49.21506" lon="4.00013">
        <ele>91</ele>
        <time>2026-08-20T07:18:51Z</time>
      </trkpt>
      <trkpt lat="49.21507" lon="4.00021">
        <ele>91.1</ele>
        <time>2026-08-20T07:18:56Z</time>
      </trkpt>
      <trkpt lat="49.21508" lon="4.00032">
        <ele>91.2</ele>
        <time>2026-08-20T07:19:02Z</time>
      </trkpt>
      <trkpt lat="49.21509" lon="4.00042">
        <ele>91.3</ele>
        <time>2026-08-20T07:19:07Z</time>
      </trkpt>
      <trkpt lat="49.21509" lon="4.00051">
        <ele>91.4</ele>
        <time>2026-08-20T07:19:12Z</time>
      </trkpt>
      <trkpt lat="49.2151" lon="4.00061">
        <ele>91.5</ele>
        <time>2026-08-20T07:19:18Z</time>
      </trkpt>
      <trkpt lat="49.21511" lon="4.0007">
        <ele>91.6</ele>
        <time>2026-08-20T07:19:23Z</time>
      </trkpt>
      <trkpt lat="49.21512" lon="4.00079">
        <ele>91.7</ele>
        <time>2026-08-20T07:19:28Z</time>
      </trkpt>
      <trkpt lat="49.21513" lon="4.00089">
        <ele>91.8</ele>
        <time>2026-08-20T07:19:34Z</time>
      </trkpt>
      <trkpt lat="49.21514" lon="4.00099">
        <ele>92</ele>
        <time>2026-08-20T07:19:39Z</time>
      </trkpt>
      <trkpt lat="49.21515" lon="4.00108">
        <ele>92.1</ele>
        <time>2026-08-20T07:19:44Z</time>
      </trkpt>
      <trkpt lat="49.21515" lon="4.00119">
        <ele>92.3</ele>
        <time>2026-08-20T07:19:50Z</time>
      </trkpt>
      <trkpt lat="49.21513" lon="4.00128">
        <ele>92.6</ele>
        <time>2026-08-20T07:19:55Z</time>
      </trkpt>
      <trkpt lat="49.21509" lon="4.00137">
        <ele>92.9</ele>
        <time>2026-08-20T07:20:00Z</time>
      </trkpt>
      <trkpt lat="49.21506" lon="4.00148">
        <ele>93.3</ele>
        <time>2026-08-20T07:20:06Z</time>
      </trkpt>
      <trkpt lat="49.21506" lon="4.00158">
        <ele>93.5</ele>
        <time>2026-08-20T07:20:11Z</time>
      </trkpt>
      <trkpt lat="49.21509" lon="4.00167">
        <ele>93.6</ele>
        <time>2026-08-20T07:20:16Z</time>
      </trkpt>
      <trkpt lat="49.21512" lon="4.00177">
        <ele>93.4</ele>
        <time>2026-08-20T07:20:22Z</time>
      </trkpt>
      <trkpt lat="49.21515" lon="4.00186">
        <ele>93.3</ele>
        <time>2026-08-20T07:20:27Z</time>
      </trkpt>
      <trkpt lat="49.21513" lon="4.00196">
        <ele>93.4</ele>
        <time>2026-08-20T07:20:32Z</time>
      </trkpt>
      <trkpt lat="49.2151" lon="4.00205">
        <ele>93.5</ele>
        <time>2026-08-20T07:20:38Z</time>
      </trkpt>
      <trkpt lat="49.21507" lon="4.00213">
        <ele>93.7</ele>
        <time>2026-08-20T07:20:43Z</time>
      </trkpt>
      <trkpt lat="49.21505" lon="4.00222">
        <ele>93.8</ele>
        <time>2026-08-20T07:20:48Z</time>
      </trkpt>
      <trkpt lat="49.21502" lon="4.00232">
        <ele>93.9</ele>
        <time>2026-08-20T07:20:54Z</time>
      </trkpt>
      <trkpt lat="49.21499" lon="4.00239">
        <ele>94.1</ele>
        <time>2026-08-20T07:20:59Z</time>
      </trkpt>
      <trkpt lat="49.21497" lon="4.00243">
        <ele>94.2</ele>
        <time>2026-08-20T07:21:04Z</time>
      </trkpt>
      <trkpt lat="49.21497" lon="4.00245">
        <ele>94.2</ele>
        <time>2026-08-20T07:21:10Z</time>
      </trkpt>
      <trkpt lat="49.21494" lon="4.00251">
        <ele>94.4</ele>
        <time>2026-08-20T07:21:15Z</time>
      </trkpt>
      <trkpt lat="49.21491" lon="4.00259">
        <ele>94.6</ele>
        <time>2026-08-20T07:21:20Z</time>
      </trkpt>
      <trkpt lat="49.21488" lon="4.00269">
        <ele>94.9</ele>
        <time>2026-08-20T07:21:26Z</time>
      </trkpt>
      <trkpt lat="49.21485" lon="4.00276">
        <ele>95.2</ele>
        <time>2026-08-20T07:21:31Z</time>
      </trkpt>
      <trkpt lat="49.21483" lon="4.00284">
        <ele>95.4</ele>
        <time>2026-08-20T07:21:36Z</time>
      </trkpt>
      <trkpt lat="49.21479" lon="4.00295">
        <ele>95.8</ele>
        <time>2026-08-20T07:21:42Z</time>
      </trkpt>
      <trkpt lat="49.21479" lon="4.00297">
        <ele>95.8</ele>
        <time>2026-08-20T07:21:47Z</time>
      </trkpt>
      <trkpt lat="49.21479" lon="4.00298">
        <ele>95.8</ele>
        <time>2026-08-20T07:21:52Z</time>
      </trkpt>
      <trkpt lat="49.2148" lon="4.00298">
        <ele>95.8</ele>
        <time>2026-08-20T07:21:58Z</time>
      </trkpt>
      <trkpt lat="49.21478" lon="4.00304">
        <ele>96</ele>
        <time>2026-08-20T07:22:03Z</time>
      </trkpt>
      <trkpt lat="49.21475" lon="4.00311">
        <ele>96.2</ele>
        <time>2026-08-20T07:22:08Z</time>
      </trkpt>
      <trkpt lat="49.21471" lon="4.00319">
        <ele>96.6</ele>
        <time>2026-08-20T07:22:14Z</time>
      </trkpt>
      <trkpt lat="49.21467" lon="4.00327">
        <ele>96.9</ele>
        <time>2026-08-20T07:22:19Z</time>
      </trkpt>
      <trkpt lat="49.21465" lon="4.00334">
        <ele>97.1</ele>
        <time>2026-08-20T07:22:24Z</time>
      </trkpt>
      <trkpt lat="49.21462" lon="4.00344">
        <ele>97.3</ele>
        <time>2026-08-20T07:22:30Z</time>
      </trkpt>
      <trkpt lat="49.21459" lon="4.0035">
        <ele>97.6</ele>
        <time>2026-08-20T07:22:35Z</time>
      </trkpt>
      <trkpt lat="49.21455" lon="4.00357">
        <ele>97.8</ele>
        <time>2026-08-20T07:22:40Z</time>
      </trkpt>
      <trkpt lat="49.21451" lon="4.00368">
        <ele>98.1</ele>
        <time>2026-08-20T07:22:46Z</time>
      </trkpt>
      <trkpt lat="49.21449" lon="4.00377">
        <ele>98.3</ele>
        <time>2026-08-20T07:22:51Z</time>
      </trkpt>
      <trkpt lat="49.21446" lon="4.00385">
        <ele>98.5</ele>
        <time>2026-08-20T07:22:56Z</time>
      </trkpt>
      <trkpt lat="49.21444" lon="4.00392">
        <ele>98.6</ele>
        <time>2026-08-20T07:23:02Z</time>
      </trkpt>
      <trkpt lat="49.21442" lon="4.00396">
        <ele>98.7</ele>
        <time>2026-08-20T07:23:07Z</time>
      </trkpt>
      <trkpt lat="49.21439" lon="4.00405">
        <ele>98.9</ele>
        <time>2026-08-20T07:23:12Z</time>
      </trkpt>
      <trkpt lat="49.21436" lon="4.00415">
        <ele>99.1</ele>
        <time>2026-08-20T07:23:18Z</time>
      </trkpt>
      <trkpt lat="49.21433" lon="4.00423">
        <ele>99.4</ele>
        <time>2026-08-20T07:23:23Z</time>
      </trkpt>
      <trkpt lat="49.2143" lon="4.0043">
        <ele>99.7</ele>
        <time>2026-08-20T07:23:28Z</time>
      </trkpt>
      <trkpt lat="49.21427" lon="4.0044">
        <ele>100</ele>
        <time>2026-08-20T07:23:34Z</time>
      </trkpt>
      <trkpt lat="49.21424" lon="4.00447">
        <ele>100.3</ele>
        <time>2026-08-20T07:23:39Z</time>
      </trkpt>
      <trkpt lat="49.21421" lon="4.00456">
        <ele>100.7</ele>
        <time>2026-08-20T07:23:44Z</time>
      </trkpt>
      <trkpt lat="49.21417" lon="4.00466">
        <ele>101.2</ele>
        <time>2026-08-20T07:23:50Z</time>
      </trkpt>
      <trkpt lat="49.21414" lon="4.00474">
        <ele>101.5</ele>
        <time>2026-08-20T07:23:55Z</time>
      </trkpt>
      <trkpt lat="49.21411" lon="4.00481">
        <ele>101.8</ele>
        <time>2026-08-20T07:24:00Z</time>
      </trkpt>
      <trkpt lat="49.21408" lon="4.00491">
        <ele>102.2</ele>
        <time>2026-08-20T07:24:06Z</time>
      </trkpt>
      <trkpt lat="49.21405" lon="4.005">
        <ele>102.6</ele>
        <time>2026-08-20T07:24:11Z</time>
      </trkpt>
      <trkpt lat="49.21403" lon="4.00507">
        <ele>102.7</ele>
        <time>2026-08-20T07:24:16Z</time>
      </trkpt>
      <trkpt lat="49.21399" lon="4.00518">
        <ele>103.1</ele>
        <time>2026-08-20T07:24:22Z</time>
      </trkpt>
      <trkpt lat="49.21396" lon="4.00525">
        <ele>103.3</ele>
        <time>2026-08-20T07:24:27Z</time>
      </trkpt>
      <trkpt lat="49.21392" lon="4.00535">
        <ele>103.6</ele>
        <time>2026-08-20T07:24:32Z</time>
      </trkpt>
      <trkpt lat="49.21388" lon="4.00546">
        <ele>103.9</ele>
        <time>2026-08-20T07:24:38Z</time>
      </trkpt>
      <trkpt lat="49.21386" lon="4.00553">
        <ele>104.1</ele>
        <time>2026-08-20T07:24:43Z</time>
      </trkpt>
      <trkpt lat="49.21384" lon="4.00561">
        <ele>104.3</ele>
        <time>2026-08-20T07:24:48Z</time>
      </trkpt>
      <trkpt lat="49.21381" lon="4.00571">
        <ele>104.6</ele>
        <time>2026-08-20T07:24:54Z</time>
      </trkpt>
      <trkpt lat="49.21378" lon="4.00579">
        <ele>104.8</ele>
        <time>2026-08-20T07:24:59Z</time>
      </trkpt>
      <trkpt lat="49.21377" lon="4.00582">
        <ele>104.9</ele>
        <time>2026-08-20T07:25:04Z</time>
      </trkpt>
      <trkpt lat="49.21376" lon="4.00583">
        <ele>104.9</ele>
        <time>2026-08-20T07:25:10Z</time>
      </trkpt>
      <trkpt lat="49.21376" lon="4.00583">
        <ele>104.9</ele>
        <time>2026-08-20T07:25:15Z</time>
      </trkpt>
      <trkpt lat="49.21372" lon="4.0059">
        <ele>105.3</ele>
        <time>2026-08-20T07:25:20Z</time>
      </trkpt>
      <trkpt lat="49.21373" lon="4.00595">
        <ele>105.4</ele>
        <time>2026-08-20T07:25:26Z</time>
      </trkpt>
      <trkpt lat="49.21373" lon="4.00598">
        <ele>105.4</ele>
        <time>2026-08-20T07:25:31Z</time>
      </trkpt>
      <trkpt lat="49.21373" lon="4.00598">
        <ele>105.4</ele>
        <time>2026-08-20T07:25:36Z</time>
      </trkpt>
      <trkpt lat="49.21373" lon="4.00598">
        <ele>105.4</ele>
        <time>2026-08-20T07:25:42Z</time>
      </trkpt>
      <trkpt lat="49.21373" lon="4.00598">
        <ele>105.4</ele>
        <time>2026-08-20T07:25:47Z</time>
      </trkpt>
      <trkpt lat="49.21373" lon="4.00598">
        <ele>105.4</ele>
        <time>2026-08-20T07:25:52Z</time>
      </trkpt>
      <trkpt lat="49.21369" lon="4.00604">
        <ele>105.7</ele>
        <time>2026-08-20T07:25:58Z</time>
      </trkpt>
      <trkpt lat="49.21368" lon="4.00606">
        <ele>105.8</ele>
        <time>2026-08-20T07:26:03Z</time>
      </trkpt>
      <trkpt lat="49.21368" lon="4.00606">
        <ele>105.8</ele>
        <time>2026-08-20T07:26:08Z</time>
      </trkpt>
      <trkpt lat="49.21368" lon="4.00606">
        <ele>105.8</ele>
        <time>2026-08-20T07:26:14Z</time>
      </trkpt>
      <trkpt lat="49.21368" lon="4.00606">
        <ele>105.8</ele>
        <time>2026-08-20T07:26:19Z</time>
      </trkpt>
      <trkpt lat="49.21368" lon="4.00608">
        <ele>105.9</ele>
        <time>2026-08-20T07:26:24Z</time>
      </trkpt>
      <trkpt lat="49.21366" lon="4.00611">
        <ele>106</ele>
        <time>2026-08-20T07:26:30Z</time>
      </trkpt>
      <trkpt lat="49.21364" lon="4.00614">
        <ele>106.2</ele>
        <time>2026-08-20T07:26:35Z</time>
      </trkpt>
      <trkpt lat="49.21362" lon="4.00622">
        <ele>106.4</ele>
        <time>2026-08-20T07:26:40Z</time>
      </trkpt>
      <trkpt lat="49.21359" lon="4.00631">
        <ele>106.7</ele>
        <time>2026-08-20T07:26:46Z</time>
      </trkpt>
      <trkpt lat="49.21356" lon="4.00639">
        <ele>106.9</ele>
        <time>2026-08-20T07:26:51Z</time>
      </trkpt>
      <trkpt lat="49.21353" lon="4.00645">
        <ele>107.1</ele>
        <time>2026-08-20T07:26:56Z</time>
      </trkpt>
      <trkpt lat="49.2135" lon="4.00653">
        <ele>107.4</ele>
        <time>2026-08-20T07:27:02Z</time>
      </trkpt>
      <trkpt lat="49.21349" lon="4.00658">
        <ele>107.5</ele>
        <time>2026-08-20T07:27:07Z</time>
      </trkpt>
      <trkpt lat="49.21349" lon="4.00658">
        <ele>107.5</ele>
        <time>2026-08-20T07:27:12Z</time>
      </trkpt>
      <trkpt lat="49.21348" lon="4.0066">
        <ele>107.5</ele>
        <time>2026-08-20T07:27:18Z</time>
      </trkpt>
      <trkpt lat="49.21346" lon="4.00663">
        <ele>107.6</ele>
        <time>2026-08-20T07:27:23Z</time>
      </trkpt>
      <trkpt lat="49.21346" lon="4.00664">
        <ele>107.7</ele>
        <time>2026-08-20T07:27:28Z</time>
      </trkpt>
      <trkpt lat="49.21344" lon="4.00667">
        <ele>107.7</ele>
        <time>2026-08-20T07:27:34Z</time>
      </trkpt>
      <trkpt lat="49.21344" lon="4.00667">
        <ele>107.7</ele>
        <time>2026-08-20T07:27:39Z</time>
      </trkpt>
      <trkpt lat="49.21344" lon="4.00667">
        <ele>107.7</ele>
        <time>2026-08-20T07:27:44Z</time>
      </trkpt>
      <trkpt lat="49.21344" lon="4.00667">
        <ele>107.7</ele>
        <time>2026-08-20T07:27:50Z</time>
      </trkpt>
      <trkpt lat="49.21344" lon="4.00667">
        <ele>107.7</ele>
        <time>2026-08-20T07:27:55Z</time>
      </trkpt>
      <trkpt lat="49.21344" lon="4.00667">
        <ele>107.7</ele>
        <time>2026-08-20T07:28:00Z</time>
      </trkpt>
      <trkpt lat="49.21344" lon="4.00667">
        <ele>107.7</ele>
        <time>2026-08-20T07:28:06Z</time>
      </trkpt>
      <trkpt lat="49.21344" lon="4.00667">
        <ele>107.7</ele>
        <time>2026-08-20T07:28:11Z</time>
      </trkpt>
      <trkpt lat="49.21344" lon="4.00667">
        <ele>107.7</ele>
        <time>2026-08-20T07:28:16Z</time>
      </trkpt>
      <trkpt lat="49.21344" lon="4.00667">
        <ele>107.7</ele>
        <time>2026-08-20T07:28:22Z</time>
      </trkpt>
      <trkpt lat="49.21344" lon="4.00667">
        <ele>107.7</ele>
        <time>2026-08-20T07:28:27Z</time>
      </trkpt>
      <trkpt lat="49.21344" lon="4.00667">
        <ele>107.7</ele>
        <time>2026-08-20T07:28:32Z</time>
      </trkpt>
      <trkpt lat="49.21344" lon="4.00667">
        <ele>107.7</ele>
        <time>2026-08-20T07:28:38Z</time>
      </trkpt>
      <trkpt lat="49.21344" lon="4.00667">
        <ele>107.7</ele>
        <time>2026-08-20T07:28:43Z</time>
      </trkpt>
      <trkpt lat="49.21344" lon="4.00667">
        <ele>107.7</ele>
        <time>2026-08-20T07:28:48Z</time>
      </trkpt>
      <trkpt lat="49.21344" lon="4.00667">
        <ele>107.7</ele>
        <time>2026-08-20T07:28:54Z</time>
      </trkpt>
      <trkpt lat="49.21344" lon="4.00667">
        <ele>107.7</ele>
        <time>2026-08-20T07:28:59Z</time>
      </trkpt>
      <trkpt lat="49.21344" lon="4.00667">
        <ele>107.7</ele>
        <time>2026-08-20T07:29:04Z</time>
      </trkpt>
      <trkpt lat="49.21344" lon="4.00667">
        <ele>107.7</ele>
        <time>2026-08-20T07:29:10Z</time>
      </trkpt>
      <trkpt lat="49.21344" lon="4.00667">
        <ele>107.7</ele>
        <time>2026-08-20T07:29:15Z</time>
      </trkpt>
      <trkpt lat="49.21344" lon="4.00667">
        <ele>107.7</ele>
        <time>2026-08-20T07:29:20Z</time>
      </trkpt>
      <trkpt lat="49.21344" lon="4.00667">
        <ele>107.7</ele>
        <time>2026-08-20T07:29:26Z</time>
      </trkpt>
      <trkpt lat="49.21344" lon="4.00667">
        <ele>107.7</ele>
        <time>2026-08-20T07:29:31Z</time>
      </trkpt>
      <trkpt lat="49.21344" lon="4.00667">
        <ele>107.7</ele>
        <time>2026-08-20T07:29:36Z</time>
      </trkpt>
      <trkpt lat="49.21344" lon="4.00667">
        <ele>107.7</ele>
        <time>2026-08-20T07:29:42Z</time>
      </trkpt>
      <trkpt lat="49.21344" lon="4.00667">
        <ele>107.7</ele>
        <time>2026-08-20T07:29:47Z</time>
      </trkpt>
      <trkpt lat="49.21344" lon="4.00667">
        <ele>107.7</ele>
        <time>2026-08-20T07:29:52Z</time>
      </trkpt>
      <trkpt lat="49.21344" lon="4.00667">
        <ele>107.7</ele>
        <time>2026-08-20T07:29:58Z</time>
      </trkpt>
      <trkpt lat="49.21344" lon="4.00667">
        <ele>107.7</ele>
        <time>2026-08-20T07:30:03Z</time>
      </trkpt>
      <trkpt lat="49.21344" lon="4.00667">
        <ele>107.7</ele>
        <time>2026-08-20T07:30:08Z</time>
      </trkpt>
      <trkpt lat="49.21344" lon="4.00667">
        <ele>107.7</ele>
        <time>2026-08-20T07:30:14Z</time>
      </trkpt>
      <trkpt lat="49.21344" lon="4.00667">
        <ele>107.7</ele>
        <time>2026-08-20T07:30:19Z</time>
      </trkpt>
      <trkpt lat="49.21344" lon="4.00667">
        <ele>107.7</ele>
        <time>2026-08-20T07:30:24Z</time>
      </trkpt>
      <trkpt lat="49.21344" lon="4.00667">
        <ele>107.7</ele>
        <time>2026-08-20T07:30:30Z</time>
      </trkpt>
      <trkpt lat="49.21344" lon="4.00667">
        <ele>107.7</ele>
        <time>2026-08-20T07:30:35Z</time>
      </trkpt>
      <trkpt lat="49.21344" lon="4.00667">
        <ele>107.7</ele>
        <time>2026-08-20T07:30:40Z</time>
      </trkpt>
      <trkpt lat="49.21344" lon="4.00667">
        <ele>107.7</ele>
        <time>2026-08-20T07:30:46Z</time>
      </trkpt>
      <trkpt lat="49.21344" lon="4.00667">
        <ele>107.7</ele>
        <time>2026-08-20T07:30:51Z</time>
      </trkpt>
      <trkpt lat="49.21344" lon="4.00667">
        <ele>107.7</ele>
        <time>2026-08-20T07:30:56Z</time>
      </trkpt>
      <trkpt lat="49.21344" lon="4.00667">
        <ele>107.7</ele>
        <time>2026-08-20T07:31:02Z</time>
      </trkpt>
      <trkpt lat="49.21344" lon="4.00667">
        <ele>107.7</ele>
        <time>2026-08-20T07:31:07Z</time>
      </trkpt>
      <trkpt lat="49.21344" lon="4.00667">
        <ele>107.7</ele>
        <time>2026-08-20T07:31:12Z</time>
      </trkpt>
      <trkpt lat="49.21344" lon="4.00667">
        <ele>107.7</ele>
        <time>2026-08-20T07:31:18Z</time>
      </trkpt>
      <trkpt lat="49.21339" lon="4.0068">
        <ele>107.9</ele>
        <time>2026-08-20T07:31:23Z</time>
      </trkpt>
      <trkpt lat="49.21338" lon="4.00684">
        <ele>107.9</ele>
        <time>2026-08-20T07:31:28Z</time>
      </trkpt>
      <trkpt lat="49.21338" lon="4.00685">
        <ele>107.9</ele>
        <time>2026-08-20T07:31:34Z</time>
      </trkpt>
      <trkpt lat="49.21338" lon="4.00685">
        <ele>107.9</ele>
        <time>2026-08-20T07:31:39Z</time>
      </trkpt>
      <trkpt lat="49.21338" lon="4.00685">
        <ele>107.9</ele>
        <time>2026-08-20T07:31:44Z</time>
      </trkpt>
      <trkpt lat="49.21338" lon="4.00685">
        <ele>107.9</ele>
        <time>2026-08-20T07:31:50Z</time>
      </trkpt>
      <trkpt lat="49.21338" lon="4.00685">
        <ele>107.9</ele>
        <time>2026-08-20T07:31:55Z</time>
      </trkpt>
      <trkpt lat="49.21338" lon="4.00685">
        <ele>107.9</ele>
        <time>2026-08-20T07:32:00Z</time>
      </trkpt>
      <trkpt lat="49.21338" lon="4.00685">
        <ele>107.9</ele>
        <time>2026-08-20T07:32:06Z</time>
      </trkpt>
      <trkpt lat="49.21338" lon="4.00685">
        <ele>107.9</ele>
        <time>2026-08-20T07:32:11Z</time>
      </trkpt>
      <trkpt lat="49.21338" lon="4.00685">
        <ele>107.9</ele>
        <time>2026-08-20T07:32:16Z</time>
      </trkpt>
      <trkpt lat="49.21338" lon="4.00685">
        <ele>107.9</ele>
        <time>2026-08-20T07:32:22Z</time>
      </trkpt>
      <trkpt lat="49.21338" lon="4.00685">
        <ele>107.9</ele>
        <time>2026-08-20T07:32:27Z</time>
      </trkpt>
      <trkpt lat="49.21338" lon="4.00685">
        <ele>107.9</ele>
        <time>2026-08-20T07:32:32Z</time>
      </trkpt>
      <trkpt lat="49.21333" lon="4.00699">
        <ele>108</ele>
        <time>2026-08-20T07:32:38Z</time>
      </trkpt>
      <trkpt lat="49.21333" lon="4.00699">
        <ele>108</ele>
        <time>2026-08-20T07:32:43Z</time>
      </trkpt>
      <trkpt lat="49.21331" lon="4.00702">
        <ele>108</ele>
        <time>2026-08-20T07:32:48Z</time>
      </trkpt>
      <trkpt lat="49.21331" lon="4.00702">
        <ele>108</ele>
        <time>2026-08-20T07:32:54Z</time>
      </trkpt>
      <trkpt lat="49.21331" lon="4.00702">
        <ele>108</ele>
        <time>2026-08-20T07:32:59Z</time>
      </trkpt>
      <trkpt lat="49.21331" lon="4.00702">
        <ele>108</ele>
        <time>2026-08-20T07:33:04Z</time>
      </trkpt>
      <trkpt lat="49.21331" lon="4.00702">
        <ele>108</ele>
        <time>2026-08-20T07:33:10Z</time>
      </trkpt>
      <trkpt lat="49.21331" lon="4.00702">
        <ele>108</ele>
        <time>2026-08-20T07:33:15Z</time>
      </trkpt>
      <trkpt lat="49.21331" lon="4.00702">
        <ele>108</ele>
        <time>2026-08-20T07:33:20Z</time>
      </trkpt>
      <trkpt lat="49.21331" lon="4.00702">
        <ele>108</ele>
        <time>2026-08-20T07:33:26Z</time>
      </trkpt>
      <trkpt lat="49.21331" lon="4.00702">
        <ele>108</ele>
        <time>2026-08-20T07:33:31Z</time>
      </trkpt>
      <trkpt lat="49.21331" lon="4.00702">
        <ele>108</ele>
        <time>2026-08-20T07:33:36Z</time>
      </trkpt>
      <trkpt lat="49.21331" lon="4.00702">
        <ele>108</ele>
        <time>2026-08-20T07:33:42Z</time>
      </trkpt>
      <trkpt lat="49.21331" lon="4.00702">
        <ele>108</ele>
        <time>2026-08-20T07:33:47Z</time>
      </trkpt>
      <trkpt lat="49.21332" lon="4.00706">
        <ele>108</ele>
        <time>2026-08-20T07:33:52Z</time>
      </trkpt>
      <trkpt lat="49.21332" lon="4.00707">
        <ele>108</ele>
        <time>2026-08-20T07:33:58Z</time>
      </trkpt>
      <trkpt lat="49.21332" lon="4.00707">
        <ele>108</ele>
        <time>2026-08-20T07:34:03Z</time>
      </trkpt>
      <trkpt lat="49.21332" lon="4.00707">
        <ele>108</ele>
        <time>2026-08-20T07:34:08Z</time>
      </trkpt>
      <trkpt lat="49.21332" lon="4.00707">
        <ele>108</ele>
        <time>2026-08-20T07:34:14Z</time>
      </trkpt>
      <trkpt lat="49.21332" lon="4.00707">
        <ele>108</ele>
        <time>2026-08-20T07:34:19Z</time>
      </trkpt>
      <trkpt lat="49.21332" lon="4.00707">
        <ele>108</ele>
        <time>2026-08-20T07:34:24Z</time>
      </trkpt>
      <trkpt lat="49.21325" lon="4.00717">
        <ele>107.9</ele>
        <time>2026-08-20T07:34:30Z</time>
      </trkpt>
      <trkpt lat="49.21323" lon="4.00726">
        <ele>107.9</ele>
        <time>2026-08-20T07:34:35Z</time>
      </trkpt>
      <trkpt lat="49.21321" lon="4.00733">
        <ele>107.9</ele>
        <time>2026-08-20T07:34:40Z</time>
      </trkpt>
      <trkpt lat="49.21318" lon="4.00741">
        <ele>107.8</ele>
        <time>2026-08-20T07:34:46Z</time>
      </trkpt>
      <trkpt lat="49.21316" lon="4.0075">
        <ele>107.8</ele>
        <time>2026-08-20T07:34:51Z</time>
      </trkpt>
      <trkpt lat="49.21313" lon="4.00758">
        <ele>107.7</ele>
        <time>2026-08-20T07:34:56Z</time>
      </trkpt>
      <trkpt lat="49.21308" lon="4.00768">
        <ele>107.6</ele>
        <time>2026-08-20T07:35:02Z</time>
      </trkpt>
      <trkpt lat="49.21306" lon="4.00775">
        <ele>107.6</ele>
        <time>2026-08-20T07:35:07Z</time>
      </trkpt>
      <trkpt lat="49.21303" lon="4.00784">
        <ele>107.5</ele>
        <time>2026-08-20T07:35:12Z</time>
      </trkpt>
      <trkpt lat="49.21299" lon="4.00795">
        <ele>107.5</ele>
        <time>2026-08-20T07:35:18Z</time>
      </trkpt>
      <trkpt lat="49.21296" lon="4.00804">
        <ele>107.5</ele>
        <time>2026-08-20T07:35:23Z</time>
      </trkpt>
      <trkpt lat="49.21292" lon="4.00812">
        <ele>107.5</ele>
        <time>2026-08-20T07:35:28Z</time>
      </trkpt>
      <trkpt lat="49.21289" lon="4.00822">
        <ele>107.5</ele>
        <time>2026-08-20T07:35:34Z</time>
      </trkpt>
      <trkpt lat="49.21285" lon="4.00831">
        <ele>107.6</ele>
        <time>2026-08-20T07:35:39Z</time>
      </trkpt>
      <trkpt lat="49.21282" lon="4.00841">
        <ele>107.4</ele>
        <time>2026-08-20T07:35:44Z</time>
      </trkpt>
      <trkpt lat="49.2128" lon="4.00852">
        <ele>107.2</ele>
        <time>2026-08-20T07:35:50Z</time>
      </trkpt>
      <trkpt lat="49.21277" lon="4.0086">
        <ele>107</ele>
        <time>2026-08-20T07:35:55Z</time>
      </trkpt>
      <trkpt lat="49.21273" lon="4.00868">
        <ele>106.8</ele>
        <time>2026-08-20T07:36:00Z</time>
      </trkpt>
      <trkpt lat="49.2127" lon="4.00878">
        <ele>106.5</ele>
        <time>2026-08-20T07:36:06Z</time>
      </trkpt>
      <trkpt lat="49.21267" lon="4.00887">
        <ele>106.3</ele>
        <time>2026-08-20T07:36:11Z</time>
      </trkpt>
      <trkpt lat="49.21264" lon="4.00896">
        <ele>106</ele>
        <time>2026-08-20T07:36:16Z</time>
      </trkpt>
      <trkpt lat="49.21257" lon="4.00905">
        <ele>105.6</ele>
        <time>2026-08-20T07:36:22Z</time>
      </trkpt>
      <trkpt lat="49.21252" lon="4.0091">
        <ele>105.3</ele>
        <time>2026-08-20T07:36:27Z</time>
      </trkpt>
      <trkpt lat="49.21247" lon="4.00915">
        <ele>105</ele>
        <time>2026-08-20T07:36:32Z</time>
      </trkpt>
      <trkpt lat="49.21243" lon="4.00926">
        <ele>104.5</ele>
        <time>2026-08-20T07:36:38Z</time>
      </trkpt>
      <trkpt lat="49.21244" lon="4.00934">
        <ele>104.2</ele>
        <time>2026-08-20T07:36:43Z</time>
      </trkpt>
      <trkpt lat="49.21243" lon="4.00944">
        <ele>103.9</ele>
        <time>2026-08-20T07:36:48Z</time>
      </trkpt>
      <trkpt lat="49.21247" lon="4.00954">
        <ele>103.6</ele>
        <time>2026-08-20T07:36:54Z</time>
      </trkpt>
      <trkpt lat="49.2125" lon="4.00961">
        <ele>103.4</ele>
        <time>2026-08-20T07:36:59Z</time>
      </trkpt>
      <trkpt lat="49.21255" lon="4.00968">
        <ele>103.3</ele>
        <time>2026-08-20T07:37:04Z</time>
      </trkpt>
      <trkpt lat="49.2126" lon="4.00974">
        <ele>103.2</ele>
        <time>2026-08-20T07:37:10Z</time>
      </trkpt>
      <trkpt lat="49.21261" lon="4.00975">
        <ele>103.2</ele>
        <time>2026-08-20T07:37:15Z</time>
      </trkpt>
      <trkpt lat="49.21266" lon="4.00976">
        <ele>103.2</ele>
        <time>2026-08-20T07:37:20Z</time>
      </trkpt>
      <trkpt lat="49.21274" lon="4.00977">
        <ele>103.4</ele>
        <time>2026-08-20T07:37:26Z</time>
      </trkpt>
      <trkpt lat="49.21277" lon="4.00981">
        <ele>103.3</ele>
        <time>2026-08-20T07:37:31Z</time>
      </trkpt>
      <trkpt lat="49.21278" lon="4.0099">
        <ele>103</ele>
        <time>2026-08-20T07:37:36Z</time>
      </trkpt>
      <trkpt lat="49.21277" lon="4.01001">
        <ele>102.6</ele>
        <time>2026-08-20T07:37:42Z</time>
      </trkpt>
      <trkpt lat="49.21278" lon="4.01011">
        <ele>102.5</ele>
        <time>2026-08-20T07:37:47Z</time>
      </trkpt>
      <trkpt lat="49.21278" lon="4.01019">
        <ele>102.4</ele>
        <time>2026-08-20T07:37:52Z</time>
      </trkpt>
      <trkpt lat="49.21279" lon="4.0103">
        <ele>102.2</ele>
        <time>2026-08-20T07:37:58Z</time>
      </trkpt>
      <trkpt lat="49.2128" lon="4.01039">
        <ele>102.1</ele>
        <time>2026-08-20T07:38:03Z</time>
      </trkpt>
      <trkpt lat="49.2128" lon="4.01047">
        <ele>102</ele>
        <time>2026-08-20T07:38:08Z</time>
      </trkpt>
      <trkpt lat="49.21281" lon="4.0106">
        <ele>101.8</ele>
        <time>2026-08-20T07:38:14Z</time>
      </trkpt>
      <trkpt lat="49.21282" lon="4.01069">
        <ele>101.6</ele>
        <time>2026-08-20T07:38:19Z</time>
      </trkpt>
      <trkpt lat="49.21281" lon="4.01078">
        <ele>101.5</ele>
        <time>2026-08-20T07:38:24Z</time>
      </trkpt>
      <trkpt lat="49.21282" lon="4.01088">
        <ele>101.3</ele>
        <time>2026-08-20T07:38:30Z</time>
      </trkpt>
      <trkpt lat="49.21283" lon="4.01098">
        <ele>101.2</ele>
        <time>2026-08-20T07:38:35Z</time>
      </trkpt>
      <trkpt lat="49.21284" lon="4.01107">
        <ele>101.1</ele>
        <time>2026-08-20T07:38:40Z</time>
      </trkpt>
      <trkpt lat="49.21283" lon="4.01109">
        <ele>101.1</ele>
        <time>2026-08-20T07:38:46Z</time>
      </trkpt>
      <trkpt lat="49.21282" lon="4.0111">
        <ele>101.1</ele>
        <time>2026-08-20T07:38:51Z</time>
      </trkpt>
      <trkpt lat="49.21282" lon="4.0111">
        <ele>101.1</ele>
        <time>2026-08-20T07:38:56Z</time>
      </trkpt>
      <trkpt lat="49.21282" lon="4.0111">
        <ele>101.1</ele>
        <time>2026-08-20T07:39:02Z</time>
      </trkpt>
      <trkpt lat="49.21282" lon="4.0111">
        <ele>101.1</ele>
        <time>2026-08-20T07:39:07Z</time>
      </trkpt>
      <trkpt lat="49.21283" lon="4.01115">
        <ele>101</ele>
        <time>2026-08-20T07:39:12Z</time>
      </trkpt>
      <trkpt lat="49.21284" lon="4.01122">
        <ele>100.9</ele>
        <time>2026-08-20T07:39:18Z</time>
      </trkpt>
      <trkpt lat="49.21285" lon="4.01131">
        <ele>100.8</ele>
        <time>2026-08-20T07:39:23Z</time>
      </trkpt>
      <trkpt lat="49.21285" lon="4.0114">
        <ele>100.7</ele>
        <time>2026-08-20T07:39:28Z</time>
      </trkpt>
      <trkpt lat="49.21286" lon="4.0115">
        <ele>100.6</ele>
        <time>2026-08-20T07:39:34Z</time>
      </trkpt>
      <trkpt lat="49.21288" lon="4.0116">
        <ele>100.5</ele>
        <time>2026-08-20T07:39:39Z</time>
      </trkpt>
      <trkpt lat="49.21289" lon="4.01171">
        <ele>100.4</ele>
        <time>2026-08-20T07:39:44Z</time>
      </trkpt>
      <trkpt lat="49.21289" lon="4.01181">
        <ele>100.2</ele>
        <time>2026-08-20T07:39:50Z</time>
      </trkpt>
      <trkpt lat="49.2129" lon="4.01191">
        <ele>100</ele>
        <time>2026-08-20T07:39:55Z</time>
      </trkpt>
      <trkpt lat="49.2129" lon="4.01201">
        <ele>99.9</ele>
        <time>2026-08-20T07:40:00Z</time>
      </trkpt>
      <trkpt lat="49.21291" lon="4.01211">
        <ele>99.7</ele>
        <time>2026-08-20T07:40:06Z</time>
      </trkpt>
      <trkpt lat="49.21292" lon="4.01221">
        <ele>99.5</ele>
        <time>2026-08-20T07:40:11Z</time>
      </trkpt>
      <trkpt lat="49.21293" lon="4.01231">
        <ele>99.4</ele>
        <time>2026-08-20T07:40:16Z</time>
      </trkpt>
      <trkpt lat="49.21293" lon="4.01245">
        <ele>99.1</ele>
        <time>2026-08-20T07:40:22Z</time>
      </trkpt>
      <trkpt lat="49.21294" lon="4.01254">
        <ele>99</ele>
        <time>2026-08-20T07:40:27Z</time>
      </trkpt>
      <trkpt lat="49.21295" lon="4.01263">
        <ele>98.9</ele>
        <time>2026-08-20T07:40:32Z</time>
      </trkpt>
      <trkpt lat="49.21295" lon="4.01275">
        <ele>98.8</ele>
        <time>2026-08-20T07:40:38Z</time>
      </trkpt>
      <trkpt lat="49.21296" lon="4.01284">
        <ele>98.7</ele>
        <time>2026-08-20T07:40:43Z</time>
      </trkpt>
      <trkpt lat="49.21297" lon="4.01292">
        <ele>98.6</ele>
        <time>2026-08-20T07:40:48Z</time>
      </trkpt>
      <trkpt lat="49.21298" lon="4.01304">
        <ele>98.5</ele>
        <time>2026-08-20T07:40:54Z</time>
      </trkpt>
      <trkpt lat="49.213" lon="4.01314">
        <ele>98.4</ele>
        <time>2026-08-20T07:40:59Z</time>
      </trkpt>
      <trkpt lat="49.21302" lon="4.01323">
        <ele>98.4</ele>
        <time>2026-08-20T07:41:04Z</time>
      </trkpt>
      <trkpt lat="49.21302" lon="4.01335">
        <ele>98.2</ele>
        <time>2026-08-20T07:41:10Z</time>
      </trkpt>
      <trkpt lat="49.21303" lon="4.01345">
        <ele>98</ele>
        <time>2026-08-20T07:41:15Z</time>
      </trkpt>
      <trkpt lat="49.21303" lon="4.01356">
        <ele>97.8</ele>
        <time>2026-08-20T07:41:20Z</time>
      </trkpt>
      <trkpt lat="49.21304" lon="4.01371">
        <ele>97.4</ele>
        <time>2026-08-20T07:41:26Z</time>
      </trkpt>
      <trkpt lat="49.21304" lon="4.01381">
        <ele>97.2</ele>
        <time>2026-08-20T07:41:31Z</time>
      </trkpt>
      <trkpt lat="49.21305" lon="4.01391">
        <ele>96.9</ele>
        <time>2026-08-20T07:41:36Z</time>
      </trkpt>
      <trkpt lat="49.21305" lon="4.01403">
        <ele>96.7</ele>
        <time>2026-08-20T07:41:42Z</time>
      </trkpt>
      <trkpt lat="49.21306" lon="4.01412">
        <ele>96.4</ele>
        <time>2026-08-20T07:41:47Z</time>
      </trkpt>
      <trkpt lat="49.21307" lon="4.01423">
        <ele>96.1</ele>
        <time>2026-08-20T07:41:52Z</time>
      </trkpt>
      <trkpt lat="49.21311" lon="4.01434">
        <ele>95.7</ele>
        <time>2026-08-20T07:41:58Z</time>
      </trkpt>
      <trkpt lat="49.21314" lon="4.01442">
        <ele>95.4</ele>
        <time>2026-08-20T07:42:03Z</time>
      </trkpt>
      <trkpt lat="49.21317" lon="4.01448">
        <ele>95.2</ele>
        <time>2026-08-20T07:42:08Z</time>
      </trkpt>
      <trkpt lat="49.21321" lon="4.0145">
        <ele>95.2</ele>
        <time>2026-08-20T07:42:14Z</time>
      </trkpt>
      <trkpt lat="49.21322" lon="4.0145">
        <ele>95.2</ele>
        <time>2026-08-20T07:42:19Z</time>
      </trkpt>
      <trkpt lat="49.21323" lon="4.01449">
        <ele>95.2</ele>
        <time>2026-08-20T07:42:24Z</time>
      </trkpt>
      <trkpt lat="49.21323" lon="4.01449">
        <ele>95.2</ele>
        <time>2026-08-20T07:42:30Z</time>
      </trkpt>
      <trkpt lat="49.21323" lon="4.01449">
        <ele>95.2</ele>
        <time>2026-08-20T07:42:35Z</time>
      </trkpt>
      <trkpt lat="49.21323" lon="4.01449">
        <ele>95.2</ele>
        <time>2026-08-20T07:42:40Z</time>
      </trkpt>
      <trkpt lat="49.21325" lon="4.0145">
        <ele>95.2</ele>
        <time>2026-08-20T07:42:46Z</time>
      </trkpt>
      <trkpt lat="49.2133" lon="4.01453">
        <ele>95.1</ele>
        <time>2026-08-20T07:42:51Z</time>
      </trkpt>
      <trkpt lat="49.21334" lon="4.01456">
        <ele>95.1</ele>
        <time>2026-08-20T07:42:56Z</time>
      </trkpt>
      <trkpt lat="49.2134" lon="4.01464">
        <ele>94.9</ele>
        <time>2026-08-20T07:43:02Z</time>
      </trkpt>
      <trkpt lat="49.21346" lon="4.01469">
        <ele>94.9</ele>
        <time>2026-08-20T07:43:07Z</time>
      </trkpt>
      <trkpt lat="49.21351" lon="4.01473">
        <ele>94.8</ele>
        <time>2026-08-20T07:43:12Z</time>
      </trkpt>
      <trkpt lat="49.21356" lon="4.0148">
        <ele>94.6</ele>
        <time>2026-08-20T07:43:18Z</time>
      </trkpt>
      <trkpt lat="49.21358" lon="4.01488">
        <ele>94.4</ele>
        <time>2026-08-20T07:43:23Z</time>
      </trkpt>
      <trkpt lat="49.21361" lon="4.01495">
        <ele>94.2</ele>
        <time>2026-08-20T07:43:28Z</time>
      </trkpt>
      <trkpt lat="49.21363" lon="4.01508">
        <ele>93.7</ele>
        <time>2026-08-20T07:43:34Z</time>
      </trkpt>
      <trkpt lat="49.21365" lon="4.01516">
        <ele>93.4</ele>
        <time>2026-08-20T07:43:39Z</time>
      </trkpt>
      <trkpt lat="49.21367" lon="4.01526">
        <ele>92.9</ele>
        <time>2026-08-20T07:43:44Z</time>
      </trkpt>
      <trkpt lat="49.21369" lon="4.01539">
        <ele>92.4</ele>
        <time>2026-08-20T07:43:50Z</time>
      </trkpt>
      <trkpt lat="49.21371" lon="4.0155">
        <ele>91.9</ele>
        <time>2026-08-20T07:43:55Z</time>
      </trkpt>
      <trkpt lat="49.21372" lon="4.0156">
        <ele>91.5</ele>
        <time>2026-08-20T07:44:00Z</time>
      </trkpt>
      <trkpt lat="49.2137" lon="4.01566">
        <ele>91.3</ele>
        <time>2026-08-20T07:44:06Z</time>
      </trkpt>
      <trkpt lat="49.21365" lon="4.01576">
        <ele>90.9</ele>
        <time>2026-08-20T07:44:11Z</time>
      </trkpt>
      <trkpt lat="49.21363" lon="4.01586">
        <ele>90.6</ele>
        <time>2026-08-20T07:44:16Z</time>
      </trkpt>
      <trkpt lat="49.21359" lon="4.01597">
        <ele>90.4</ele>
        <time>2026-08-20T07:44:22Z</time>
      </trkpt>
      <trkpt lat="49.21356" lon="4.01607">
        <ele>90.2</ele>
        <time>2026-08-20T07:44:27Z</time>
      </trkpt>
      <trkpt lat="49.2135" lon="4.01613">
        <ele>90.2</ele>
        <time>2026-08-20T07:44:32Z</time>
      </trkpt>
      <trkpt lat="49.21342" lon="4.01617">
        <ele>90.1</ele>
        <time>2026-08-20T07:44:38Z</time>
      </trkpt>
      <trkpt lat="49.21335" lon="4.0162">
        <ele>90.1</ele>
        <time>2026-08-20T07:44:43Z</time>
      </trkpt>
      <trkpt lat="49.21328" lon="4.01623">
        <ele>90.1</ele>
        <time>2026-08-20T07:44:48Z</time>
      </trkpt>
      <trkpt lat="49.2132" lon="4.01627">
        <ele>90.1</ele>
        <time>2026-08-20T07:44:54Z</time>
      </trkpt>
      <trkpt lat="49.21313" lon="4.01629">
        <ele>90.2</ele>
        <time>2026-08-20T07:44:59Z</time>
      </trkpt>
      <trkpt lat="49.21307" lon="4.0163">
        <ele>90.2</ele>
        <time>2026-08-20T07:45:04Z</time>
      </trkpt>
      <trkpt lat="49.21298" lon="4.01633">
        <ele>90.3</ele>
        <time>2026-08-20T07:45:10Z</time>
      </trkpt>
      <trkpt lat="49.21291" lon="4.01635">
        <ele>90.4</ele>
        <time>2026-08-20T07:45:15Z</time>
      </trkpt>
      <trkpt lat="49.21284" lon="4.01634">
        <ele>90.5</ele>
        <time>2026-08-20T07:45:20Z</time>
      </trkpt>
      <trkpt lat="49.21281" lon="4.01633">
        <ele>90.6</ele>
        <time>2026-08-20T07:45:26Z</time>
      </trkpt>
      <trkpt lat="49.21281" lon="4.01632">
        <ele>90.6</ele>
        <time>2026-08-20T07:45:31Z</time>
      </trkpt>
      <trkpt lat="49.21281" lon="4.01631">
        <ele>90.6</ele>
        <time>2026-08-20T07:45:36Z</time>
      </trkpt>
      <trkpt lat="49.21281" lon="4.01631">
        <ele>90.6</ele>
        <time>2026-08-20T07:45:42Z</time>
      </trkpt>
      <trkpt lat="49.21279" lon="4.0163">
        <ele>90.6</ele>
        <time>2026-08-20T07:45:47Z</time>
      </trkpt>
      <trkpt lat="49.21273" lon="4.01626">
        <ele>90.7</ele>
        <time>2026-08-20T07:45:52Z</time>
      </trkpt>
      <trkpt lat="49.21266" lon="4.01622">
        <ele>90.8</ele>
        <time>2026-08-20T07:45:58Z</time>
      </trkpt>
      <trkpt lat="49.21262" lon="4.01616">
        <ele>90.9</ele>
        <time>2026-08-20T07:46:03Z</time>
      </trkpt>
      <trkpt lat="49.21259" lon="4.01605">
        <ele>90.9</ele>
        <time>2026-08-20T07:46:08Z</time>
      </trkpt>
      <trkpt lat="49.21254" lon="4.01596">
        <ele>91</ele>
        <time>2026-08-20T07:46:14Z</time>
      </trkpt>
      <trkpt lat="49.21251" lon="4.01586">
        <ele>91</ele>
        <time>2026-08-20T07:46:19Z</time>
      </trkpt>
      <trkpt lat="49.21249" lon="4.01577">
        <ele>91.1</ele>
        <time>2026-08-20T07:46:24Z</time>
      </trkpt>
      <trkpt lat="49.21246" lon="4.01565">
        <ele>91.2</ele>
        <time>2026-08-20T07:46:30Z</time>
      </trkpt>
      <trkpt lat="49.21244" lon="4.01555">
        <ele>91.3</ele>
        <time>2026-08-20T07:46:35Z</time>
      </trkpt>
      <trkpt lat="49.21243" lon="4.01546">
        <ele>91.4</ele>
        <time>2026-08-20T07:46:40Z</time>
      </trkpt>
      <trkpt lat="49.21241" lon="4.01534">
        <ele>91.5</ele>
        <time>2026-08-20T07:46:46Z</time>
      </trkpt>
      <trkpt lat="49.21238" lon="4.01523">
        <ele>91.6</ele>
        <time>2026-08-20T07:46:51Z</time>
      </trkpt>
      <trkpt lat="49.21233" lon="4.01517">
        <ele>91.6</ele>
        <time>2026-08-20T07:46:56Z</time>
      </trkpt>
      <trkpt lat="49.21227" lon="4.01511">
        <ele>91.6</ele>
        <time>2026-08-20T07:47:02Z</time>
      </trkpt>
      <trkpt lat="49.21222" lon="4.01506">
        <ele>91.6</ele>
        <time>2026-08-20T07:47:07Z</time>
      </trkpt>
      <trkpt lat="49.21216" lon="4.01502">
        <ele>91.6</ele>
        <time>2026-08-20T07:47:12Z</time>
      </trkpt>
      <trkpt lat="49.21207" lon="4.01497">
        <ele>91.6</ele>
        <time>2026-08-20T07:47:18Z</time>
      </trkpt>
      <trkpt lat="49.21202" lon="4.01494">
        <ele>91.7</ele>
        <time>2026-08-20T07:47:23Z</time>
      </trkpt>
      <trkpt lat="49.21195" lon="4.0149">
        <ele>91.8</ele>
        <time>2026-08-20T07:47:28Z</time>
      </trkpt>
      <trkpt lat="49.21188" lon="4.01486">
        <ele>91.8</ele>
        <time>2026-08-20T07:47:34Z</time>
      </trkpt>
      <trkpt lat="49.21182" lon="4.01483">
        <ele>91.9</ele>
        <time>2026-08-20T07:47:39Z</time>
      </trkpt>
      <trkpt lat="49.21175" lon="4.01479">
        <ele>91.9</ele>
        <time>2026-08-20T07:47:44Z</time>
      </trkpt>
      <trkpt lat="49.21169" lon="4.01475">
        <ele>91.9</ele>
        <time>2026-08-20T07:47:50Z</time>
      </trkpt>
      <trkpt lat="49.21162" lon="4.01471">
        <ele>92</ele>
        <time>2026-08-20T07:47:55Z</time>
      </trkpt>
      <trkpt lat="49.21156" lon="4.01466">
        <ele>92</ele>
        <time>2026-08-20T07:48:00Z</time>
      </trkpt>
      <trkpt lat="49.21151" lon="4.01463">
        <ele>92.1</ele>
        <time>2026-08-20T07:48:06Z</time>
      </trkpt>
      <trkpt lat="49.21145" lon="4.01458">
        <ele>92.1</ele>
        <time>2026-08-20T07:48:11Z</time>
      </trkpt>
      <trkpt lat="49.2114" lon="4.01455">
        <ele>92.1</ele>
        <time>2026-08-20T07:48:16Z</time>
      </trkpt>
      <trkpt lat="49.21132" lon="4.01449">
        <ele>92.2</ele>
        <time>2026-08-20T07:48:22Z</time>
      </trkpt>
      <trkpt lat="49.21126" lon="4.01446">
        <ele>92.1</ele>
        <time>2026-08-20T07:48:27Z</time>
      </trkpt>
      <trkpt lat="49.2112" lon="4.01441">
        <ele>92.2</ele>
        <time>2026-08-20T07:48:32Z</time>
      </trkpt>
      <trkpt lat="49.21113" lon="4.01436">
        <ele>92.2</ele>
        <time>2026-08-20T07:48:38Z</time>
      </trkpt>
      <trkpt lat="49.21107" lon="4.01432">
        <ele>92.1</ele>
        <time>2026-08-20T07:48:43Z</time>
      </trkpt>
      <trkpt lat="49.21101" lon="4.01426">
        <ele>92.2</ele>
        <time>2026-08-20T07:48:48Z</time>
      </trkpt>
      <trkpt lat="49.21094" lon="4.01421">
        <ele>92.1</ele>
        <time>2026-08-20T07:48:54Z</time>
      </trkpt>
      <trkpt lat="49.21088" lon="4.01418">
        <ele>92.1</ele>
        <time>2026-08-20T07:48:59Z</time>
      </trkpt>
      <trkpt lat="49.21082" lon="4.01413">
        <ele>92</ele>
        <time>2026-08-20T07:49:04Z</time>
      </trkpt>
      <trkpt lat="49.21074" lon="4.01408">
        <ele>91.9</ele>
        <time>2026-08-20T07:49:10Z</time>
      </trkpt>
      <trkpt lat="49.21069" lon="4.01404">
        <ele>91.8</ele>
        <time>2026-08-20T07:49:15Z</time>
      </trkpt>
      <trkpt lat="49.21062" lon="4.014">
        <ele>91.6</ele>
        <time>2026-08-20T07:49:20Z</time>
      </trkpt>
      <trkpt lat="49.21055" lon="4.01395">
        <ele>91.5</ele>
        <time>2026-08-20T07:49:26Z</time>
      </trkpt>
      <trkpt lat="49.21049" lon="4.01392">
        <ele>91.4</ele>
        <time>2026-08-20T07:49:31Z</time>
      </trkpt>
      <trkpt lat="49.21043" lon="4.01387">
        <ele>91.3</ele>
        <time>2026-08-20T07:49:36Z</time>
      </trkpt>
      <trkpt lat="49.2104" lon="4.01384">
        <ele>91.2</ele>
        <time>2026-08-20T07:49:42Z</time>
      </trkpt>
      <trkpt lat="49.21034" lon="4.01381">
        <ele>91.1</ele>
        <time>2026-08-20T07:49:47Z</time>
      </trkpt>
      <trkpt lat="49.21028" lon="4.01376">
        <ele>91</ele>
        <time>2026-08-20T07:49:52Z</time>
      </trkpt>
      <trkpt lat="49.21021" lon="4.01372">
        <ele>90.8</ele>
        <time>2026-08-20T07:49:58Z</time>
      </trkpt>
      <trkpt lat="49.21015" lon="4.01368">
        <ele>90.7</ele>
        <time>2026-08-20T07:50:03Z</time>
      </trkpt>
      <trkpt lat="49.21009" lon="4.01363">
        <ele>90.6</ele>
        <time>2026-08-20T07:50:08Z</time>
      </trkpt>
      <trkpt lat="49.21001" lon="4.01358">
        <ele>90.4</ele>
        <time>2026-08-20T07:50:14Z</time>
      </trkpt>
      <trkpt lat="49.20995" lon="4.01354">
        <ele>90.4</ele>
        <time>2026-08-20T07:50:19Z</time>
      </trkpt>
      <trkpt lat="49.20988" lon="4.0135">
        <ele>90.3</ele>
        <time>2026-08-20T07:50:24Z</time>
      </trkpt>
      <trkpt lat="49.20981" lon="4.01346">
        <ele>90.2</ele>
        <time>2026-08-20T07:50:30Z</time>
      </trkpt>
      <trkpt lat="49.20975" lon="4.01345">
        <ele>90.1</ele>
        <time>2026-08-20T07:50:35Z</time>
      </trkpt>
      <trkpt lat="49.20969" lon="4.01343">
        <ele>90</ele>
        <time>2026-08-20T07:50:40Z</time>
      </trkpt>
      <trkpt lat="49.20961" lon="4.0134">
        <ele>89.9</ele>
        <time>2026-08-20T07:50:46Z</time>
      </trkpt>
      <trkpt lat="49.20953" lon="4.0134">
        <ele>89.7</ele>
        <time>2026-08-20T07:50:51Z</time>
      </trkpt>
      <trkpt lat="49.20947" lon="4.01339">
        <ele>89.6</ele>
        <time>2026-08-20T07:50:56Z</time>
      </trkpt>
      <trkpt lat="49.2094" lon="4.0134">
        <ele>89.4</ele>
        <time>2026-08-20T07:51:02Z</time>
      </trkpt>
      <trkpt lat="49.20933" lon="4.0134">
        <ele>89.2</ele>
        <time>2026-08-20T07:51:07Z</time>
      </trkpt>
      <trkpt lat="49.20927" lon="4.01335">
        <ele>89.2</ele>
        <time>2026-08-20T07:51:12Z</time>
      </trkpt>
      <trkpt lat="49.20921" lon="4.01328">
        <ele>89</ele>
        <time>2026-08-20T07:51:18Z</time>
      </trkpt>
      <trkpt lat="49.20916" lon="4.01324">
        <ele>88.9</ele>
        <time>2026-08-20T07:51:23Z</time>
      </trkpt>
      <trkpt lat="49.20911" lon="4.01318">
        <ele>88.8</ele>
        <time>2026-08-20T07:51:28Z</time>
      </trkpt>
      <trkpt lat="49.20905" lon="4.01312">
        <ele>88.6</ele>
        <time>2026-08-20T07:51:34Z</time>
      </trkpt>
      <trkpt lat="49.209" lon="4.01308">
        <ele>88.6</ele>
        <time>2026-08-20T07:51:39Z</time>
      </trkpt>
      <trkpt lat="49.20895" lon="4.01304">
        <ele>88.5</ele>
        <time>2026-08-20T07:51:44Z</time>
      </trkpt>
      <trkpt lat="49.20888" lon="4.01299">
        <ele>88.4</ele>
        <time>2026-08-20T07:51:50Z</time>
      </trkpt>
      <trkpt lat="49.20883" lon="4.01295">
        <ele>88.3</ele>
        <time>2026-08-20T07:51:55Z</time>
      </trkpt>
      <trkpt lat="49.20878" lon="4.01289">
        <ele>88.3</ele>
        <time>2026-08-20T07:52:00Z</time>
      </trkpt>
      <trkpt lat="49.20873" lon="4.01284">
        <ele>88.2</ele>
        <time>2026-08-20T07:52:06Z</time>
      </trkpt>
      <trkpt lat="49.20868" lon="4.01279">
        <ele>88.1</ele>
        <time>2026-08-20T07:52:11Z</time>
      </trkpt>
      <trkpt lat="49.20863" lon="4.01273">
        <ele>88.1</ele>
        <time>2026-08-20T07:52:16Z</time>
      </trkpt>
      <trkpt lat="49.20862" lon="4.01271">
        <ele>88.1</ele>
        <time>2026-08-20T07:52:22Z</time>
      </trkpt>
      <trkpt lat="49.2086" lon="4.01269">
        <ele>88.1</ele>
        <time>2026-08-20T07:52:27Z</time>
      </trkpt>
      <trkpt lat="49.20856" lon="4.01265">
        <ele>88</ele>
        <time>2026-08-20T07:52:32Z</time>
      </trkpt>
      <trkpt lat="49.20854" lon="4.01264">
        <ele>88</ele>
        <time>2026-08-20T07:52:38Z</time>
      </trkpt>
      <trkpt lat="49.20854" lon="4.01263">
        <ele>88</ele>
        <time>2026-08-20T07:52:43Z</time>
      </trkpt>
      <trkpt lat="49.20849" lon="4.01257">
        <ele>88</ele>
        <time>2026-08-20T07:52:48Z</time>
      </trkpt>
      <trkpt lat="49.20843" lon="4.0125">
        <ele>88</ele>
        <time>2026-08-20T07:52:54Z</time>
      </trkpt>
      <trkpt lat="49.20838" lon="4.01247">
        <ele>88</ele>
        <time>2026-08-20T07:52:59Z</time>
      </trkpt>
      <trkpt lat="49.20832" lon="4.01243">
        <ele>88</ele>
        <time>2026-08-20T07:53:04Z</time>
      </trkpt>
      <trkpt lat="49.20825" lon="4.01238">
        <ele>88.2</ele>
        <time>2026-08-20T07:53:10Z</time>
      </trkpt>
      <trkpt lat="49.20822" lon="4.01235">
        <ele>88.2</ele>
        <time>2026-08-20T07:53:15Z</time>
      </trkpt>
      <trkpt lat="49.20821" lon="4.01235">
        <ele>88.3</ele>
        <time>2026-08-20T07:53:20Z</time>
      </trkpt>
      <trkpt lat="49.2082" lon="4.01234">
        <ele>88.3</ele>
        <time>2026-08-20T07:53:26Z</time>
      </trkpt>
      <trkpt lat="49.2082" lon="4.01234">
        <ele>88.3</ele>
        <time>2026-08-20T07:53:31Z</time>
      </trkpt>
      <trkpt lat="49.20816" lon="4.01234">
        <ele>88.4</ele>
        <time>2026-08-20T07:53:36Z</time>
      </trkpt>
      <trkpt lat="49.20813" lon="4.01234">
        <ele>88.4</ele>
        <time>2026-08-20T07:53:42Z</time>
      </trkpt>
      <trkpt lat="49.20813" lon="4.01234">
        <ele>88.4</ele>
        <time>2026-08-20T07:53:47Z</time>
      </trkpt>
      <trkpt lat="49.20813" lon="4.01234">
        <ele>88.4</ele>
        <time>2026-08-20T07:53:52Z</time>
      </trkpt>
      <trkpt lat="49.20813" lon="4.01234">
        <ele>88.4</ele>
        <time>2026-08-20T07:53:58Z</time>
      </trkpt>
      <trkpt lat="49.2081" lon="4.01233">
        <ele>88.5</ele>
        <time>2026-08-20T07:54:03Z</time>
      </trkpt>
      <trkpt lat="49.20808" lon="4.01231">
        <ele>88.5</ele>
        <time>2026-08-20T07:54:08Z</time>
      </trkpt>
      <trkpt lat="49.20804" lon="4.0123">
        <ele>88.6</ele>
        <time>2026-08-20T07:54:14Z</time>
      </trkpt>
      <trkpt lat="49.20803" lon="4.01228">
        <ele>88.6</ele>
        <time>2026-08-20T07:54:19Z</time>
      </trkpt>
      <trkpt lat="49.20802" lon="4.01228">
        <ele>88.7</ele>
        <time>2026-08-20T07:54:24Z</time>
      </trkpt>
      <trkpt lat="49.20799" lon="4.01226">
        <ele>88.7</ele>
        <time>2026-08-20T07:54:30Z</time>
      </trkpt>
      <trkpt lat="49.20798" lon="4.01226">
        <ele>88.7</ele>
        <time>2026-08-20T07:54:35Z</time>
      </trkpt>
      <trkpt lat="49.20796" lon="4.01225">
        <ele>88.8</ele>
        <time>2026-08-20T07:54:40Z</time>
      </trkpt>
      <trkpt lat="49.20795" lon="4.01225">
        <ele>88.8</ele>
        <time>2026-08-20T07:54:46Z</time>
      </trkpt>
      <trkpt lat="49.20795" lon="4.01225">
        <ele>88.8</ele>
        <time>2026-08-20T07:54:51Z</time>
      </trkpt>
      <trkpt lat="49.20795" lon="4.01225">
        <ele>88.8</ele>
        <time>2026-08-20T07:54:56Z</time>
      </trkpt>
      <trkpt lat="49.20795" lon="4.01225">
        <ele>88.8</ele>
        <time>2026-08-20T07:55:02Z</time>
      </trkpt>
      <trkpt lat="49.20795" lon="4.01225">
        <ele>88.8</ele>
        <time>2026-08-20T07:55:07Z</time>
      </trkpt>
      <trkpt lat="49.20795" lon="4.01225">
        <ele>88.8</ele>
        <time>2026-08-20T07:55:12Z</time>
      </trkpt>
      <trkpt lat="49.20785" lon="4.01222">
        <ele>89</ele>
        <time>2026-08-20T07:55:18Z</time>
      </trkpt>
      <trkpt lat="49.20785" lon="4.01222">
        <ele>89</ele>
        <time>2026-08-20T07:55:23Z</time>
      </trkpt>
      <trkpt lat="49.20781" lon="4.01221">
        <ele>89</ele>
        <time>2026-08-20T07:55:28Z</time>
      </trkpt>
      <trkpt lat="49.20781" lon="4.01221">
        <ele>89</ele>
        <time>2026-08-20T07:55:34Z</time>
      </trkpt>
      <trkpt lat="49.20781" lon="4.01221">
        <ele>89</ele>
        <time>2026-08-20T07:55:39Z</time>
      </trkpt>
      <trkpt lat="49.20781" lon="4.01221">
        <ele>89</ele>
        <time>2026-08-20T07:55:44Z</time>
      </trkpt>
      <trkpt lat="49.20781" lon="4.01221">
        <ele>89</ele>
        <time>2026-08-20T07:55:50Z</time>
      </trkpt>
      <trkpt lat="49.20781" lon="4.01221">
        <ele>89</ele>
        <time>2026-08-20T07:55:55Z</time>
      </trkpt>
      <trkpt lat="49.20781" lon="4.01221">
        <ele>89</ele>
        <time>2026-08-20T07:56:00Z</time>
      </trkpt>
      <trkpt lat="49.20781" lon="4.01221">
        <ele>89</ele>
        <time>2026-08-20T07:56:06Z</time>
      </trkpt>
      <trkpt lat="49.20781" lon="4.01221">
        <ele>89</ele>
        <time>2026-08-20T07:56:11Z</time>
      </trkpt>
      <trkpt lat="49.20781" lon="4.01221">
        <ele>89</ele>
        <time>2026-08-20T07:56:16Z</time>
      </trkpt>
      <trkpt lat="49.20781" lon="4.01221">
        <ele>89</ele>
        <time>2026-08-20T07:56:22Z</time>
      </trkpt>
      <trkpt lat="49.20771" lon="4.01221">
        <ele>89.2</ele>
        <time>2026-08-20T07:56:27Z</time>
      </trkpt>
      <trkpt lat="49.2077" lon="4.01221">
        <ele>89.3</ele>
        <time>2026-08-20T07:56:32Z</time>
      </trkpt>
      <trkpt lat="49.2077" lon="4.01221">
        <ele>89.3</ele>
        <time>2026-08-20T07:56:38Z</time>
      </trkpt>
      <trkpt lat="49.2077" lon="4.01221">
        <ele>89.3</ele>
        <time>2026-08-20T07:56:43Z</time>
      </trkpt>
      <trkpt lat="49.2077" lon="4.01221">
        <ele>89.3</ele>
        <time>2026-08-20T07:56:48Z</time>
      </trkpt>
      <trkpt lat="49.2077" lon="4.01221">
        <ele>89.3</ele>
        <time>2026-08-20T07:56:54Z</time>
      </trkpt>
      <trkpt lat="49.20763" lon="4.01217">
        <ele>89.4</ele>
        <time>2026-08-20T07:56:59Z</time>
      </trkpt>
      <trkpt lat="49.20757" lon="4.01217">
        <ele>89.5</ele>
        <time>2026-08-20T07:57:04Z</time>
      </trkpt>
      <trkpt lat="49.2075" lon="4.01213">
        <ele>89.6</ele>
        <time>2026-08-20T07:57:10Z</time>
      </trkpt>
      <trkpt lat="49.20744" lon="4.01212">
        <ele>89.7</ele>
        <time>2026-08-20T07:57:15Z</time>
      </trkpt>
      <trkpt lat="49.20739" lon="4.01209">
        <ele>89.8</ele>
        <time>2026-08-20T07:57:20Z</time>
      </trkpt>
      <trkpt lat="49.20731" lon="4.01207">
        <ele>90.1</ele>
        <time>2026-08-20T07:57:26Z</time>
      </trkpt>
      <trkpt lat="49.20725" lon="4.01206">
        <ele>90.2</ele>
        <time>2026-08-20T07:57:31Z</time>
      </trkpt>
      <trkpt lat="49.20719" lon="4.01205">
        <ele>90.4</ele>
        <time>2026-08-20T07:57:36Z</time>
      </trkpt>
      <trkpt lat="49.20712" lon="4.01204">
        <ele>90.6</ele>
        <time>2026-08-20T07:57:42Z</time>
      </trkpt>
      <trkpt lat="49.20706" lon="4.01202">
        <ele>90.7</ele>
        <time>2026-08-20T07:57:47Z</time>
      </trkpt>
      <trkpt lat="49.207" lon="4.01201">
        <ele>90.9</ele>
        <time>2026-08-20T07:57:52Z</time>
      </trkpt>
      <trkpt lat="49.20694" lon="4.01198">
        <ele>91</ele>
        <time>2026-08-20T07:57:58Z</time>
      </trkpt>
      <trkpt lat="49.20693" lon="4.01198">
        <ele>91</ele>
        <time>2026-08-20T07:58:03Z</time>
      </trkpt>
      <trkpt lat="49.20689" lon="4.01198">
        <ele>91.1</ele>
        <time>2026-08-20T07:58:08Z</time>
      </trkpt>
      <trkpt lat="49.20683" lon="4.01196">
        <ele>91.2</ele>
        <time>2026-08-20T07:58:14Z</time>
      </trkpt>
      <trkpt lat="49.20679" lon="4.01197">
        <ele>91.4</ele>
        <time>2026-08-20T07:58:19Z</time>
      </trkpt>
      <trkpt lat="49.20679" lon="4.01197">
        <ele>91.4</ele>
        <time>2026-08-20T07:58:24Z</time>
      </trkpt>
      <trkpt lat="49.20674" lon="4.01196">
        <ele>91.5</ele>
        <time>2026-08-20T07:58:30Z</time>
      </trkpt>
      <trkpt lat="49.20668" lon="4.01194">
        <ele>91.6</ele>
        <time>2026-08-20T07:58:35Z</time>
      </trkpt>
      <trkpt lat="49.20662" lon="4.01192">
        <ele>91.8</ele>
        <time>2026-08-20T07:58:40Z</time>
      </trkpt>
      <trkpt lat="49.20655" lon="4.01192">
        <ele>92.2</ele>
        <time>2026-08-20T07:58:46Z</time>
      </trkpt>
      <trkpt lat="49.20649" lon="4.01192">
        <ele>92.5</ele>
        <time>2026-08-20T07:58:51Z</time>
      </trkpt>
      <trkpt lat="49.20642" lon="4.01191">
        <ele>92.9</ele>
        <time>2026-08-20T07:58:56Z</time>
      </trkpt>
      <trkpt lat="49.20635" lon="4.01189">
        <ele>93.2</ele>
        <time>2026-08-20T07:59:02Z</time>
      </trkpt>
      <trkpt lat="49.20627" lon="4.01187">
        <ele>93.5</ele>
        <time>2026-08-20T07:59:07Z</time>
      </trkpt>
      <trkpt lat="49.20621" lon="4.01185">
        <ele>93.8</ele>
        <time>2026-08-20T07:59:12Z</time>
      </trkpt>
      <trkpt lat="49.20613" lon="4.01182">
        <ele>94.1</ele>
        <time>2026-08-20T07:59:18Z</time>
      </trkpt>
      <trkpt lat="49.20606" lon="4.01181">
        <ele>94.4</ele>
        <time>2026-08-20T07:59:23Z</time>
      </trkpt>
      <trkpt lat="49.20599" lon="4.01179">
        <ele>94.7</ele>
        <time>2026-08-20T07:59:28Z</time>
      </trkpt>
      <trkpt lat="49.20592" lon="4.01178">
        <ele>95</ele>
        <time>2026-08-20T07:59:34Z</time>
      </trkpt>
      <trkpt lat="49.20585" lon="4.01177">
        <ele>95.3</ele>
        <time>2026-08-20T07:59:39Z</time>
      </trkpt>
      <trkpt lat="49.20579" lon="4.01175">
        <ele>95.5</ele>
        <time>2026-08-20T07:59:44Z</time>
      </trkpt>
      <trkpt lat="49.20571" lon="4.01173">
        <ele>95.8</ele>
        <time>2026-08-20T07:59:50Z</time>
      </trkpt>
      <trkpt lat="49.20564" lon="4.01171">
        <ele>96.1</ele>
        <time>2026-08-20T07:59:55Z</time>
      </trkpt>
      <trkpt lat="49.20558" lon="4.01169">
        <ele>96.3</ele>
        <time>2026-08-20T08:00:00Z</time>
      </trkpt>
      <trkpt lat="49.20551" lon="4.01167">
        <ele>96.6</ele>
        <time>2026-08-20T08:00:06Z</time>
      </trkpt>
      <trkpt lat="49.20545" lon="4.01165">
        <ele>96.8</ele>
        <time>2026-08-20T08:00:11Z</time>
      </trkpt>
      <trkpt lat="49.20538" lon="4.01164">
        <ele>97.1</ele>
        <time>2026-08-20T08:00:16Z</time>
      </trkpt>
      <trkpt lat="49.2053" lon="4.01165">
        <ele>97.5</ele>
        <time>2026-08-20T08:00:22Z</time>
      </trkpt>
      <trkpt lat="49.20524" lon="4.01165">
        <ele>97.8</ele>
        <time>2026-08-20T08:00:27Z</time>
      </trkpt>
      <trkpt lat="49.20517" lon="4.01166">
        <ele>98.2</ele>
        <time>2026-08-20T08:00:32Z</time>
      </trkpt>
      <trkpt lat="49.2051" lon="4.01171">
        <ele>98.6</ele>
        <time>2026-08-20T08:00:38Z</time>
      </trkpt>
      <trkpt lat="49.20505" lon="4.01176">
        <ele>98.9</ele>
        <time>2026-08-20T08:00:43Z</time>
      </trkpt>
      <trkpt lat="49.205" lon="4.01182">
        <ele>99.2</ele>
        <time>2026-08-20T08:00:48Z</time>
      </trkpt>
      <trkpt lat="49.20494" lon="4.0119">
        <ele>99.4</ele>
        <time>2026-08-20T08:00:54Z</time>
      </trkpt>
      <trkpt lat="49.2049" lon="4.01195">
        <ele>99.6</ele>
        <time>2026-08-20T08:00:59Z</time>
      </trkpt>
      <trkpt lat="49.20485" lon="4.01201">
        <ele>99.8</ele>
        <time>2026-08-20T08:01:04Z</time>
      </trkpt>
      <trkpt lat="49.2048" lon="4.01209">
        <ele>100</ele>
        <time>2026-08-20T08:01:10Z</time>
      </trkpt>
      <trkpt lat="49.20475" lon="4.01214">
        <ele>100.2</ele>
        <time>2026-08-20T08:01:15Z</time>
      </trkpt>
      <trkpt lat="49.20474" lon="4.01214">
        <ele>100.2</ele>
        <time>2026-08-20T08:01:20Z</time>
      </trkpt>
      <trkpt lat="49.20471" lon="4.01215">
        <ele>100.3</ele>
        <time>2026-08-20T08:01:26Z</time>
      </trkpt>
      <trkpt lat="49.20466" lon="4.01216">
        <ele>100.4</ele>
        <time>2026-08-20T08:01:31Z</time>
      </trkpt>
      <trkpt lat="49.2046" lon="4.01215">
        <ele>100.5</ele>
        <time>2026-08-20T08:01:36Z</time>
      </trkpt>
      <trkpt lat="49.20453" lon="4.01213">
        <ele>100.7</ele>
        <time>2026-08-20T08:01:42Z</time>
      </trkpt>
      <trkpt lat="49.20447" lon="4.01212">
        <ele>100.8</ele>
        <time>2026-08-20T08:01:47Z</time>
      </trkpt>
      <trkpt lat="49.2044" lon="4.0121">
        <ele>101</ele>
        <time>2026-08-20T08:01:52Z</time>
      </trkpt>
      <trkpt lat="49.20432" lon="4.01208">
        <ele>101.1</ele>
        <time>2026-08-20T08:01:58Z</time>
      </trkpt>
      <trkpt lat="49.2043" lon="4.01206">
        <ele>101.2</ele>
        <time>2026-08-20T08:02:03Z</time>
      </trkpt>
      <trkpt lat="49.20427" lon="4.01205">
        <ele>101.2</ele>
        <time>2026-08-20T08:02:08Z</time>
      </trkpt>
      <trkpt lat="49.2042" lon="4.01202">
        <ele>101.3</ele>
        <time>2026-08-20T08:02:14Z</time>
      </trkpt>
      <trkpt lat="49.20414" lon="4.012">
        <ele>101.5</ele>
        <time>2026-08-20T08:02:19Z</time>
      </trkpt>
      <trkpt lat="49.20408" lon="4.01198">
        <ele>101.8</ele>
        <time>2026-08-20T08:02:24Z</time>
      </trkpt>
      <trkpt lat="49.20406" lon="4.01199">
        <ele>101.9</ele>
        <time>2026-08-20T08:02:30Z</time>
      </trkpt>
      <trkpt lat="49.20401" lon="4.01202">
        <ele>102.2</ele>
        <time>2026-08-20T08:02:35Z</time>
      </trkpt>
      <trkpt lat="49.20399" lon="4.01203">
        <ele>102.3</ele>
        <time>2026-08-20T08:02:40Z</time>
      </trkpt>
      <trkpt lat="49.20393" lon="4.01201">
        <ele>102.6</ele>
        <time>2026-08-20T08:02:46Z</time>
      </trkpt>
      <trkpt lat="49.20388" lon="4.012">
        <ele>102.8</ele>
        <time>2026-08-20T08:02:51Z</time>
      </trkpt>
      <trkpt lat="49.20385" lon="4.01199">
        <ele>103</ele>
        <time>2026-08-20T08:02:56Z</time>
      </trkpt>
      <trkpt lat="49.20381" lon="4.01198">
        <ele>103.2</ele>
        <time>2026-08-20T08:03:02Z</time>
      </trkpt>
      <trkpt lat="49.20381" lon="4.01198">
        <ele>103.2</ele>
        <time>2026-08-20T08:03:07Z</time>
      </trkpt>
      <trkpt lat="49.2038" lon="4.01197">
        <ele>103.2</ele>
        <time>2026-08-20T08:03:12Z</time>
      </trkpt>
      <trkpt lat="49.20378" lon="4.01196">
        <ele>103.3</ele>
        <time>2026-08-20T08:03:18Z</time>
      </trkpt>
      <trkpt lat="49.20376" lon="4.01196">
        <ele>103.4</ele>
        <time>2026-08-20T08:03:23Z</time>
      </trkpt>
      <trkpt lat="49.20374" lon="4.01196">
        <ele>103.6</ele>
        <time>2026-08-20T08:03:28Z</time>
      </trkpt>
      <trkpt lat="49.20372" lon="4.01196">
        <ele>103.7</ele>
        <time>2026-08-20T08:03:34Z</time>
      </trkpt>
      <trkpt lat="49.20371" lon="4.01196">
        <ele>103.7</ele>
        <time>2026-08-20T08:03:39Z</time>
      </trkpt>
      <trkpt lat="49.20371" lon="4.01196">
        <ele>103.7</ele>
        <time>2026-08-20T08:03:44Z</time>
      </trkpt>
      <trkpt lat="49.20369" lon="4.01197">
        <ele>103.8</ele>
        <time>2026-08-20T08:03:50Z</time>
      </trkpt>
      <trkpt lat="49.20368" lon="4.01197">
        <ele>103.9</ele>
        <time>2026-08-20T08:03:55Z</time>
      </trkpt>
      <trkpt lat="49.20368" lon="4.01197">
        <ele>103.9</ele>
        <time>2026-08-20T08:04:00Z</time>
      </trkpt>
      <trkpt lat="49.20367" lon="4.01195">
        <ele>103.9</ele>
        <time>2026-08-20T08:04:06Z</time>
      </trkpt>
      <trkpt lat="49.20367" lon="4.01195">
        <ele>103.9</ele>
        <time>2026-08-20T08:04:11Z</time>
      </trkpt>
      <trkpt lat="49.20367" lon="4.01195">
        <ele>103.9</ele>
        <time>2026-08-20T08:04:16Z</time>
      </trkpt>
      <trkpt lat="49.20367" lon="4.01195">
        <ele>103.9</ele>
        <time>2026-08-20T08:04:22Z</time>
      </trkpt>
      <trkpt lat="49.20367" lon="4.01195">
        <ele>103.9</ele>
        <time>2026-08-20T08:04:27Z</time>
      </trkpt>
      <trkpt lat="49.20367" lon="4.01195">
        <ele>103.9</ele>
        <time>2026-08-20T08:04:32Z</time>
      </trkpt>
      <trkpt lat="49.20365" lon="4.01195">
        <ele>104</ele>
        <time>2026-08-20T08:04:38Z</time>
      </trkpt>
      <trkpt lat="49.20363" lon="4.01196">
        <ele>104.1</ele>
        <time>2026-08-20T08:04:43Z</time>
      </trkpt>
      <trkpt lat="49.20361" lon="4.01196">
        <ele>104.2</ele>
        <time>2026-08-20T08:04:48Z</time>
      </trkpt>
      <trkpt lat="49.20354" lon="4.01196">
        <ele>104.6</ele>
        <time>2026-08-20T08:04:54Z</time>
      </trkpt>
      <trkpt lat="49.20349" lon="4.01198">
        <ele>104.8</ele>
        <time>2026-08-20T08:04:59Z</time>
      </trkpt>
      <trkpt lat="49.20343" lon="4.012">
        <ele>105.1</ele>
        <time>2026-08-20T08:05:04Z</time>
      </trkpt>
      <trkpt lat="49.20336" lon="4.01201">
        <ele>105.5</ele>
        <time>2026-08-20T08:05:10Z</time>
      </trkpt>
      <trkpt lat="49.20331" lon="4.01201">
        <ele>105.7</ele>
        <time>2026-08-20T08:05:15Z</time>
      </trkpt>
      <trkpt lat="49.20326" lon="4.01199">
        <ele>105.9</ele>
        <time>2026-08-20T08:05:20Z</time>
      </trkpt>
      <trkpt lat="49.2032" lon="4.01199">
        <ele>106.1</ele>
        <time>2026-08-20T08:05:26Z</time>
      </trkpt>
      <trkpt lat="49.20315" lon="4.01198">
        <ele>106.3</ele>
        <time>2026-08-20T08:05:31Z</time>
      </trkpt>
      <trkpt lat="49.20312" lon="4.01197">
        <ele>106.4</ele>
        <time>2026-08-20T08:05:36Z</time>
      </trkpt>
      <trkpt lat="49.20305" lon="4.01192">
        <ele>106.7</ele>
        <time>2026-08-20T08:05:42Z</time>
      </trkpt>
      <trkpt lat="49.20301" lon="4.01188">
        <ele>106.9</ele>
        <time>2026-08-20T08:05:47Z</time>
      </trkpt>
      <trkpt lat="49.20299" lon="4.01189">
        <ele>107</ele>
        <time>2026-08-20T08:05:52Z</time>
      </trkpt>
      <trkpt lat="49.20299" lon="4.01189">
        <ele>107</ele>
        <time>2026-08-20T08:05:58Z</time>
      </trkpt>
      <trkpt lat="49.20299" lon="4.01189">
        <ele>107</ele>
        <time>2026-08-20T08:06:03Z</time>
      </trkpt>
      <trkpt lat="49.20299" lon="4.01189">
        <ele>107</ele>
        <time>2026-08-20T08:06:08Z</time>
      </trkpt>
      <trkpt lat="49.20299" lon="4.01189">
        <ele>107</ele>
        <time>2026-08-20T08:06:14Z</time>
      </trkpt>
      <trkpt lat="49.20299" lon="4.01189">
        <ele>107</ele>
        <time>2026-08-20T08:06:19Z</time>
      </trkpt>
      <trkpt lat="49.20299" lon="4.01189">
        <ele>107</ele>
        <time>2026-08-20T08:06:24Z</time>
      </trkpt>
      <trkpt lat="49.20299" lon="4.01189">
        <ele>107</ele>
        <time>2026-08-20T08:06:30Z</time>
      </trkpt>
      <trkpt lat="49.20299" lon="4.01189">
        <ele>107</ele>
        <time>2026-08-20T08:06:35Z</time>
      </trkpt>
      <trkpt lat="49.20299" lon="4.01189">
        <ele>107</ele>
        <time>2026-08-20T08:06:40Z</time>
      </trkpt>
      <trkpt lat="49.20299" lon="4.01189">
        <ele>107</ele>
        <time>2026-08-20T08:06:46Z</time>
      </trkpt>
      <trkpt lat="49.20297" lon="4.01192">
        <ele>107</ele>
        <time>2026-08-20T08:06:51Z</time>
      </trkpt>
      <trkpt lat="49.20296" lon="4.01195">
        <ele>107</ele>
        <time>2026-08-20T08:06:56Z</time>
      </trkpt>
      <trkpt lat="49.20294" lon="4.01206">
        <ele>106.9</ele>
        <time>2026-08-20T08:07:02Z</time>
      </trkpt>
      <trkpt lat="49.20292" lon="4.01214">
        <ele>106.9</ele>
        <time>2026-08-20T08:07:07Z</time>
      </trkpt>
      <trkpt lat="49.20291" lon="4.01222">
        <ele>106.9</ele>
        <time>2026-08-20T08:07:12Z</time>
      </trkpt>
      <trkpt lat="49.20289" lon="4.01231">
        <ele>106.8</ele>
        <time>2026-08-20T08:07:18Z</time>
      </trkpt>
      <trkpt lat="49.20288" lon="4.01239">
        <ele>106.8</ele>
        <time>2026-08-20T08:07:23Z</time>
      </trkpt>
      <trkpt lat="49.20284" lon="4.01247">
        <ele>106.8</ele>
        <time>2026-08-20T08:07:28Z</time>
      </trkpt>
      <trkpt lat="49.20283" lon="4.01248">
        <ele>106.8</ele>
        <time>2026-08-20T08:07:34Z</time>
      </trkpt>
      <trkpt lat="49.20281" lon="4.01253">
        <ele>106.8</ele>
        <time>2026-08-20T08:07:39Z</time>
      </trkpt>
      <trkpt lat="49.20276" lon="4.01256">
        <ele>107</ele>
        <time>2026-08-20T08:07:44Z</time>
      </trkpt>
      <trkpt lat="49.2027" lon="4.01261">
        <ele>107.1</ele>
        <time>2026-08-20T08:07:50Z</time>
      </trkpt>
      <trkpt lat="49.20266" lon="4.01267">
        <ele>107.2</ele>
        <time>2026-08-20T08:07:55Z</time>
      </trkpt>
      <trkpt lat="49.20263" lon="4.01273">
        <ele>107.2</ele>
        <time>2026-08-20T08:08:00Z</time>
      </trkpt>
      <trkpt lat="49.20261" lon="4.01283">
        <ele>107.2</ele>
        <time>2026-08-20T08:08:06Z</time>
      </trkpt>
      <trkpt lat="49.20261" lon="4.01289">
        <ele>107.1</ele>
        <time>2026-08-20T08:08:11Z</time>
      </trkpt>
      <trkpt lat="49.20261" lon="4.01292">
        <ele>107</ele>
        <time>2026-08-20T08:08:16Z</time>
      </trkpt>
      <trkpt lat="49.20262" lon="4.01296">
        <ele>106.9</ele>
        <time>2026-08-20T08:08:22Z</time>
      </trkpt>
      <trkpt lat="49.20263" lon="4.01302">
        <ele>106.8</ele>
        <time>2026-08-20T08:08:27Z</time>
      </trkpt>
      <trkpt lat="49.20263" lon="4.01306">
        <ele>106.8</ele>
        <time>2026-08-20T08:08:32Z</time>
      </trkpt>
      <trkpt lat="49.20263" lon="4.01309">
        <ele>106.7</ele>
        <time>2026-08-20T08:08:38Z</time>
      </trkpt>
      <trkpt lat="49.20266" lon="4.01313">
        <ele>106.5</ele>
        <time>2026-08-20T08:08:43Z</time>
      </trkpt>
      <trkpt lat="49.20269" lon="4.01318">
        <ele>106.3</ele>
        <time>2026-08-20T08:08:48Z</time>
      </trkpt>
      <trkpt lat="49.20269" lon="4.01325">
        <ele>106.2</ele>
        <time>2026-08-20T08:08:54Z</time>
      </trkpt>
      <trkpt lat="49.20269" lon="4.01328">
        <ele>106.2</ele>
        <time>2026-08-20T08:08:59Z</time>
      </trkpt>
      <trkpt lat="49.20268" lon="4.01328">
        <ele>106.2</ele>
        <time>2026-08-20T08:09:04Z</time>
      </trkpt>
      <trkpt lat="49.20268" lon="4.01328">
        <ele>106.2</ele>
        <time>2026-08-20T08:09:10Z</time>
      </trkpt>
      <trkpt lat="49.20268" lon="4.01334">
        <ele>106.1</ele>
        <time>2026-08-20T08:09:15Z</time>
      </trkpt>
      <trkpt lat="49.20267" lon="4.01343">
        <ele>106.1</ele>
        <time>2026-08-20T08:09:20Z</time>
      </trkpt>
      <trkpt lat="49.20261" lon="4.01348">
        <ele>106.3</ele>
        <time>2026-08-20T08:09:26Z</time>
      </trkpt>
      <trkpt lat="49.20254" lon="4.01348">
        <ele>106.6</ele>
        <time>2026-08-20T08:09:31Z</time>
      </trkpt>
      <trkpt lat="49.20248" lon="4.01348">
        <ele>106.9</ele>
        <time>2026-08-20T08:09:36Z</time>
      </trkpt>
      <trkpt lat="49.2024" lon="4.01351">
        <ele>107.1</ele>
        <time>2026-08-20T08:09:42Z</time>
      </trkpt>
      <trkpt lat="49.20234" lon="4.0135">
        <ele>107.3</ele>
        <time>2026-08-20T08:09:47Z</time>
      </trkpt>
      <trkpt lat="49.20227" lon="4.01348">
        <ele>107.6</ele>
        <time>2026-08-20T08:09:52Z</time>
      </trkpt>
      <trkpt lat="49.20221" lon="4.01353">
        <ele>107.7</ele>
        <time>2026-08-20T08:09:58Z</time>
      </trkpt>
      <trkpt lat="49.20218" lon="4.01357">
        <ele>107.8</ele>
        <time>2026-08-20T08:10:03Z</time>
      </trkpt>
      <trkpt lat="49.20218" lon="4.01358">
        <ele>107.7</ele>
        <time>2026-08-20T08:10:08Z</time>
      </trkpt>
      <trkpt lat="49.20217" lon="4.01361">
        <ele>107.7</ele>
        <time>2026-08-20T08:10:14Z</time>
      </trkpt>
      <trkpt lat="49.20216" lon="4.01365">
        <ele>107.7</ele>
        <time>2026-08-20T08:10:19Z</time>
      </trkpt>
      <trkpt lat="49.20216" lon="4.01368">
        <ele>107.6</ele>
        <time>2026-08-20T08:10:24Z</time>
      </trkpt>
      <trkpt lat="49.20213" lon="4.01374">
        <ele>107.6</ele>
        <time>2026-08-20T08:10:30Z</time>
      </trkpt>
      <trkpt lat="49.20211" lon="4.01379">
        <ele>107.6</ele>
        <time>2026-08-20T08:10:35Z</time>
      </trkpt>
      <trkpt lat="49.20209" lon="4.01388">
        <ele>107.5</ele>
        <time>2026-08-20T08:10:40Z</time>
      </trkpt>
      <trkpt lat="49.20206" lon="4.01396">
        <ele>107.4</ele>
        <time>2026-08-20T08:10:46Z</time>
      </trkpt>
      <trkpt lat="49.20203" lon="4.01404">
        <ele>107.4</ele>
        <time>2026-08-20T08:10:51Z</time>
      </trkpt>
      <trkpt lat="49.20199" lon="4.01413">
        <ele>107.3</ele>
        <time>2026-08-20T08:10:56Z</time>
      </trkpt>
      <trkpt lat="49.20194" lon="4.01422">
        <ele>107.3</ele>
        <time>2026-08-20T08:11:02Z</time>
      </trkpt>
      <trkpt lat="49.20189" lon="4.01427">
        <ele>107.3</ele>
        <time>2026-08-20T08:11:07Z</time>
      </trkpt>
      <trkpt lat="49.20184" lon="4.01428">
        <ele>107.4</ele>
        <time>2026-08-20T08:11:12Z</time>
      </trkpt>
      <trkpt lat="49.20177" lon="4.01432">
        <ele>107.6</ele>
        <time>2026-08-20T08:11:18Z</time>
      </trkpt>
      <trkpt lat="49.20172" lon="4.01436">
        <ele>107.6</ele>
        <time>2026-08-20T08:11:23Z</time>
      </trkpt>
      <trkpt lat="49.20166" lon="4.01441">
        <ele>107.7</ele>
        <time>2026-08-20T08:11:28Z</time>
      </trkpt>
      <trkpt lat="49.20164" lon="4.01451">
        <ele>107.6</ele>
        <time>2026-08-20T08:11:34Z</time>
      </trkpt>
      <trkpt lat="49.20165" lon="4.01459">
        <ele>107.5</ele>
        <time>2026-08-20T08:11:39Z</time>
      </trkpt>
      <trkpt lat="49.20164" lon="4.0146">
        <ele>107.5</ele>
        <time>2026-08-20T08:11:44Z</time>
      </trkpt>
      <trkpt lat="49.20164" lon="4.0146">
        <ele>107.5</ele>
        <time>2026-08-20T08:11:50Z</time>
      </trkpt>
      <trkpt lat="49.20164" lon="4.01463">
        <ele>107.5</ele>
        <time>2026-08-20T08:11:55Z</time>
      </trkpt>
      <trkpt lat="49.20163" lon="4.01471">
        <ele>107.4</ele>
        <time>2026-08-20T08:12:00Z</time>
      </trkpt>
      <trkpt lat="49.20164" lon="4.01476">
        <ele>107.3</ele>
        <time>2026-08-20T08:12:06Z</time>
      </trkpt>
      <trkpt lat="49.20163" lon="4.01479">
        <ele>107.3</ele>
        <time>2026-08-20T08:12:11Z</time>
      </trkpt>
      <trkpt lat="49.20163" lon="4.01479">
        <ele>107.3</ele>
        <time>2026-08-20T08:12:16Z</time>
      </trkpt>
      <trkpt lat="49.20163" lon="4.01479">
        <ele>107.3</ele>
        <time>2026-08-20T08:12:22Z</time>
      </trkpt>
      <trkpt lat="49.20163" lon="4.01479">
        <ele>107.3</ele>
        <time>2026-08-20T08:12:27Z</time>
      </trkpt>
      <trkpt lat="49.20163" lon="4.01479">
        <ele>107.3</ele>
        <time>2026-08-20T08:12:32Z</time>
      </trkpt>
      <trkpt lat="49.20163" lon="4.01479">
        <ele>107.3</ele>
        <time>2026-08-20T08:12:38Z</time>
      </trkpt>
      <trkpt lat="49.20163" lon="4.01479">
        <ele>107.3</ele>
        <time>2026-08-20T08:12:43Z</time>
      </trkpt>
      <trkpt lat="49.20163" lon="4.01479">
        <ele>107.3</ele>
        <time>2026-08-20T08:12:48Z</time>
      </trkpt>
      <trkpt lat="49.20163" lon="4.01479">
        <ele>107.3</ele>
        <time>2026-08-20T08:12:54Z</time>
      </trkpt>
      <trkpt lat="49.20163" lon="4.01479">
        <ele>107.3</ele>
        <time>2026-08-20T08:12:59Z</time>
      </trkpt>
      <trkpt lat="49.20163" lon="4.01479">
        <ele>107.3</ele>
        <time>2026-08-20T08:13:04Z</time>
      </trkpt>
      <trkpt lat="49.20163" lon="4.01479">
        <ele>107.3</ele>
        <time>2026-08-20T08:13:10Z</time>
      </trkpt>
      <trkpt lat="49.20163" lon="4.01479">
        <ele>107.3</ele>
        <time>2026-08-20T08:13:15Z</time>
      </trkpt>
      <trkpt lat="49.20163" lon="4.01479">
        <ele>107.3</ele>
        <time>2026-08-20T08:13:20Z</time>
      </trkpt>
      <trkpt lat="49.20162" lon="4.01484">
        <ele>107.2</ele>
        <time>2026-08-20T08:13:26Z</time>
      </trkpt>
      <trkpt lat="49.20162" lon="4.01484">
        <ele>107.2</ele>
        <time>2026-08-20T08:13:31Z</time>
      </trkpt>
      <trkpt lat="49.20162" lon="4.01484">
        <ele>107.2</ele>
        <time>2026-08-20T08:13:36Z</time>
      </trkpt>
      <trkpt lat="49.20162" lon="4.01484">
        <ele>107.2</ele>
        <time>2026-08-20T08:13:42Z</time>
      </trkpt>
      <trkpt lat="49.20162" lon="4.01484">
        <ele>107.2</ele>
        <time>2026-08-20T08:13:47Z</time>
      </trkpt>
      <trkpt lat="49.20162" lon="4.01484">
        <ele>107.2</ele>
        <time>2026-08-20T08:13:52Z</time>
      </trkpt>
      <trkpt lat="49.20162" lon="4.01484">
        <ele>107.2</ele>
        <time>2026-08-20T08:13:58Z</time>
      </trkpt>
      <trkpt lat="49.20162" lon="4.01484">
        <ele>107.2</ele>
        <time>2026-08-20T08:14:03Z</time>
      </trkpt>
      <trkpt lat="49.20162" lon="4.01484">
        <ele>107.2</ele>
        <time>2026-08-20T08:14:08Z</time>
      </trkpt>
      <trkpt lat="49.2016" lon="4.01495">
        <ele>107.1</ele>
        <time>2026-08-20T08:14:14Z</time>
      </trkpt>
      <trkpt lat="49.20159" lon="4.01505">
        <ele>107.1</ele>
        <time>2026-08-20T08:14:19Z</time>
      </trkpt>
      <trkpt lat="49.20158" lon="4.01513">
        <ele>107.1</ele>
        <time>2026-08-20T08:14:24Z</time>
      </trkpt>
      <trkpt lat="49.20157" lon="4.01525">
        <ele>107.1</ele>
        <time>2026-08-20T08:14:30Z</time>
      </trkpt>
      <trkpt lat="49.20155" lon="4.01534">
        <ele>107.1</ele>
        <time>2026-08-20T08:14:35Z</time>
      </trkpt>
      <trkpt lat="49.20154" lon="4.01544">
        <ele>107.1</ele>
        <time>2026-08-20T08:14:40Z</time>
      </trkpt>
      <trkpt lat="49.20153" lon="4.01555">
        <ele>107.1</ele>
        <time>2026-08-20T08:14:46Z</time>
      </trkpt>
      <trkpt lat="49.20152" lon="4.01563">
        <ele>107</ele>
        <time>2026-08-20T08:14:51Z</time>
      </trkpt>
      <trkpt lat="49.20151" lon="4.01566">
        <ele>107</ele>
        <time>2026-08-20T08:14:56Z</time>
      </trkpt>
      <trkpt lat="49.20151" lon="4.01567">
        <ele>107</ele>
        <time>2026-08-20T08:15:02Z</time>
      </trkpt>
      <trkpt lat="49.2015" lon="4.01576">
        <ele>107</ele>
        <time>2026-08-20T08:15:07Z</time>
      </trkpt>
      <trkpt lat="49.2015" lon="4.01579">
        <ele>107</ele>
        <time>2026-08-20T08:15:12Z</time>
      </trkpt>
      <trkpt lat="49.20148" lon="4.01588">
        <ele>106.9</ele>
        <time>2026-08-20T08:15:18Z</time>
      </trkpt>
      <trkpt lat="49.20148" lon="4.01597">
        <ele>106.8</ele>
        <time>2026-08-20T08:15:23Z</time>
      </trkpt>
      <trkpt lat="49.20146" lon="4.01607">
        <ele>106.7</ele>
        <time>2026-08-20T08:15:28Z</time>
      </trkpt>
      <trkpt lat="49.20145" lon="4.01618">
        <ele>106.6</ele>
        <time>2026-08-20T08:15:34Z</time>
      </trkpt>
      <trkpt lat="49.20145" lon="4.01626">
        <ele>106.5</ele>
        <time>2026-08-20T08:15:39Z</time>
      </trkpt>
      <trkpt lat="49.20144" lon="4.01636">
        <ele>106.4</ele>
        <time>2026-08-20T08:15:44Z</time>
      </trkpt>
      <trkpt lat="49.20142" lon="4.01648">
        <ele>106.2</ele>
        <time>2026-08-20T08:15:50Z</time>
      </trkpt>
      <trkpt lat="49.2014" lon="4.01658">
        <ele>106.1</ele>
        <time>2026-08-20T08:15:55Z</time>
      </trkpt>
      <trkpt lat="49.20142" lon="4.01667">
        <ele>106</ele>
        <time>2026-08-20T08:16:00Z</time>
      </trkpt>
      <trkpt lat="49.20141" lon="4.0168">
        <ele>105.4</ele>
        <time>2026-08-20T08:16:06Z</time>
      </trkpt>
      <trkpt lat="49.20138" lon="4.01688">
        <ele>105.1</ele>
        <time>2026-08-20T08:16:11Z</time>
      </trkpt>
      <trkpt lat="49.20135" lon="4.01696">
        <ele>104.7</ele>
        <time>2026-08-20T08:16:16Z</time>
      </trkpt>
      <trkpt lat="49.20136" lon="4.01708">
        <ele>104.1</ele>
        <time>2026-08-20T08:16:22Z</time>
      </trkpt>
      <trkpt lat="49.20136" lon="4.01716">
        <ele>103.8</ele>
        <time>2026-08-20T08:16:27Z</time>
      </trkpt>
      <trkpt lat="49.20136" lon="4.01722">
        <ele>103.5</ele>
        <time>2026-08-20T08:16:32Z</time>
      </trkpt>
      <trkpt lat="49.20136" lon="4.01724">
        <ele>103.4</ele>
        <time>2026-08-20T08:16:38Z</time>
      </trkpt>
      <trkpt lat="49.20136" lon="4.01725">
        <ele>103.4</ele>
        <time>2026-08-20T08:16:43Z</time>
      </trkpt>
      <trkpt lat="49.20136" lon="4.01725">
        <ele>103.4</ele>
        <time>2026-08-20T08:16:48Z</time>
      </trkpt>
      <trkpt lat="49.20136" lon="4.01725">
        <ele>103.4</ele>
        <time>2026-08-20T08:16:54Z</time>
      </trkpt>
      <trkpt lat="49.20136" lon="4.01725">
        <ele>103.4</ele>
        <time>2026-08-20T08:16:59Z</time>
      </trkpt>
      <trkpt lat="49.20136" lon="4.01725">
        <ele>103.4</ele>
        <time>2026-08-20T08:17:04Z</time>
      </trkpt>
      <trkpt lat="49.20136" lon="4.01725">
        <ele>103.4</ele>
        <time>2026-08-20T08:17:10Z</time>
      </trkpt>
      <trkpt lat="49.20136" lon="4.01725">
        <ele>103.4</ele>
        <time>2026-08-20T08:17:15Z</time>
      </trkpt>
      <trkpt lat="49.20136" lon="4.01725">
        <ele>103.4</ele>
        <time>2026-08-20T08:17:20Z</time>
      </trkpt>
      <trkpt lat="49.20136" lon="4.01725">
        <ele>103.4</ele>
        <time>2026-08-20T08:17:26Z</time>
      </trkpt>
      <trkpt lat="49.20136" lon="4.01725">
        <ele>103.4</ele>
        <time>2026-08-20T08:17:31Z</time>
      </trkpt>
      <trkpt lat="49.20136" lon="4.01725">
        <ele>103.4</ele>
        <time>2026-08-20T08:17:36Z</time>
      </trkpt>
      <trkpt lat="49.20136" lon="4.01725">
        <ele>103.4</ele>
        <time>2026-08-20T08:17:42Z</time>
      </trkpt>
      <trkpt lat="49.20136" lon="4.01725">
        <ele>103.4</ele>
        <time>2026-08-20T08:17:47Z</time>
      </trkpt>
      <trkpt lat="49.20136" lon="4.01725">
        <ele>103.4</ele>
        <time>2026-08-20T08:17:52Z</time>
      </trkpt>
      <trkpt lat="49.20136" lon="4.01725">
        <ele>103.4</ele>
        <time>2026-08-20T08:17:58Z</time>
      </trkpt>
      <trkpt lat="49.20136" lon="4.01725">
        <ele>103.4</ele>
        <time>2026-08-20T08:18:03Z</time>
      </trkpt>
      <trkpt lat="49.20136" lon="4.01725">
        <ele>103.4</ele>
        <time>2026-08-20T08:18:08Z</time>
      </trkpt>
      <trkpt lat="49.20136" lon="4.01725">
        <ele>103.4</ele>
        <time>2026-08-20T08:18:14Z</time>
      </trkpt>
      <trkpt lat="49.20136" lon="4.01725">
        <ele>103.4</ele>
        <time>2026-08-20T08:18:19Z</time>
      </trkpt>
      <trkpt lat="49.20136" lon="4.01725">
        <ele>103.4</ele>
        <time>2026-08-20T08:18:24Z</time>
      </trkpt>
      <trkpt lat="49.20136" lon="4.01725">
        <ele>103.4</ele>
        <time>2026-08-20T08:18:30Z</time>
      </trkpt>
      <trkpt lat="49.20136" lon="4.01725">
        <ele>103.4</ele>
        <time>2026-08-20T08:18:35Z</time>
      </trkpt>
      <trkpt lat="49.20136" lon="4.01725">
        <ele>103.4</ele>
        <time>2026-08-20T08:18:40Z</time>
      </trkpt>
      <trkpt lat="49.20136" lon="4.01725">
        <ele>103.4</ele>
        <time>2026-08-20T08:18:46Z</time>
      </trkpt>
      <trkpt lat="49.20136" lon="4.01725">
        <ele>103.4</ele>
        <time>2026-08-20T08:18:51Z</time>
      </trkpt>
      <trkpt lat="49.20136" lon="4.01725">
        <ele>103.4</ele>
        <time>2026-08-20T08:18:56Z</time>
      </trkpt>
      <trkpt lat="49.20136" lon="4.01725">
        <ele>103.4</ele>
        <time>2026-08-20T08:19:02Z</time>
      </trkpt>
      <trkpt lat="49.20136" lon="4.01725">
        <ele>103.4</ele>
        <time>2026-08-20T08:19:07Z</time>
      </trkpt>
      <trkpt lat="49.20136" lon="4.01725">
        <ele>103.4</ele>
        <time>2026-08-20T08:19:12Z</time>
      </trkpt>
      <trkpt lat="49.20136" lon="4.01725">
        <ele>103.4</ele>
        <time>2026-08-20T08:19:18Z</time>
      </trkpt>
      <trkpt lat="49.20136" lon="4.01725">
        <ele>103.4</ele>
        <time>2026-08-20T08:19:23Z</time>
      </trkpt>
      <trkpt lat="49.20136" lon="4.01725">
        <ele>103.4</ele>
        <time>2026-08-20T08:19:28Z</time>
      </trkpt>
      <trkpt lat="49.20136" lon="4.01725">
        <ele>103.4</ele>
        <time>2026-08-20T08:19:34Z</time>
      </trkpt>
      <trkpt lat="49.20136" lon="4.01725">
        <ele>103.4</ele>
        <time>2026-08-20T08:19:39Z</time>
      </trkpt>
      <trkpt lat="49.20136" lon="4.01725">
        <ele>103.4</ele>
        <time>2026-08-20T08:19:44Z</time>
      </trkpt>
      <trkpt lat="49.20136" lon="4.01725">
        <ele>103.4</ele>
        <time>2026-08-20T08:19:50Z</time>
      </trkpt>
      <trkpt lat="49.20136" lon="4.01725">
        <ele>103.4</ele>
        <time>2026-08-20T08:19:55Z</time>
      </trkpt>
      <trkpt lat="49.20136" lon="4.01725">
        <ele>103.4</ele>
        <time>2026-08-20T08:20:00Z</time>
      </trkpt>
      <trkpt lat="49.20136" lon="4.01725">
        <ele>103.4</ele>
        <time>2026-08-20T08:20:06Z</time>
      </trkpt>
      <trkpt lat="49.20136" lon="4.01725">
        <ele>103.4</ele>
        <time>2026-08-20T08:20:11Z</time>
      </trkpt>
      <trkpt lat="49.20136" lon="4.01725">
        <ele>103.4</ele>
        <time>2026-08-20T08:20:16Z</time>
      </trkpt>
      <trkpt lat="49.20136" lon="4.01725">
        <ele>103.4</ele>
        <time>2026-08-20T08:20:22Z</time>
      </trkpt>
      <trkpt lat="49.20136" lon="4.01725">
        <ele>103.4</ele>
        <time>2026-08-20T08:20:27Z</time>
      </trkpt>
      <trkpt lat="49.20136" lon="4.01725">
        <ele>103.4</ele>
        <time>2026-08-20T08:20:32Z</time>
      </trkpt>
      <trkpt lat="49.20136" lon="4.01725">
        <ele>103.4</ele>
        <time>2026-08-20T08:20:38Z</time>
      </trkpt>
      <trkpt lat="49.20136" lon="4.01725">
        <ele>103.4</ele>
        <time>2026-08-20T08:20:43Z</time>
      </trkpt>
      <trkpt lat="49.20136" lon="4.01725">
        <ele>103.4</ele>
        <time>2026-08-20T08:20:48Z</time>
      </trkpt>
      <trkpt lat="49.20136" lon="4.01725">
        <ele>103.4</ele>
        <time>2026-08-20T08:20:54Z</time>
      </trkpt>
      <trkpt lat="49.20136" lon="4.01725">
        <ele>103.4</ele>
        <time>2026-08-20T08:20:59Z</time>
      </trkpt>
      <trkpt lat="49.20136" lon="4.01725">
        <ele>103.4</ele>
        <time>2026-08-20T08:21:04Z</time>
      </trkpt>
      <trkpt lat="49.20136" lon="4.01725">
        <ele>103.4</ele>
        <time>2026-08-20T08:21:10Z</time>
      </trkpt>
      <trkpt lat="49.20136" lon="4.01725">
        <ele>103.4</ele>
        <time>2026-08-20T08:21:15Z</time>
      </trkpt>
      <trkpt lat="49.20136" lon="4.01725">
        <ele>103.4</ele>
        <time>2026-08-20T08:21:20Z</time>
      </trkpt>
      <trkpt lat="49.20136" lon="4.01725">
        <ele>103.4</ele>
        <time>2026-08-20T08:21:26Z</time>
      </trkpt>
      <trkpt lat="49.20136" lon="4.01725">
        <ele>103.4</ele>
        <time>2026-08-20T08:21:31Z</time>
      </trkpt>
      <trkpt lat="49.20136" lon="4.01725">
        <ele>103.4</ele>
        <time>2026-08-20T08:21:36Z</time>
      </trkpt>
      <trkpt lat="49.20136" lon="4.01725">
        <ele>103.4</ele>
        <time>2026-08-20T08:21:42Z</time>
      </trkpt>
      <trkpt lat="49.20136" lon="4.01725">
        <ele>103.4</ele>
        <time>2026-08-20T08:21:47Z</time>
      </trkpt>
      <trkpt lat="49.20136" lon="4.01725">
        <ele>103.4</ele>
        <time>2026-08-20T08:21:52Z</time>
      </trkpt>
      <trkpt lat="49.20136" lon="4.01725">
        <ele>103.4</ele>
        <time>2026-08-20T08:21:58Z</time>
      </trkpt>
      <trkpt lat="49.20136" lon="4.01725">
        <ele>103.4</ele>
        <time>2026-08-20T08:22:03Z</time>
      </trkpt>
      <trkpt lat="49.20136" lon="4.01725">
        <ele>103.4</ele>
        <time>2026-08-20T08:22:08Z</time>
      </trkpt>
      <trkpt lat="49.20136" lon="4.01725">
        <ele>103.4</ele>
        <time>2026-08-20T08:22:14Z</time>
      </trkpt>
      <trkpt lat="49.20136" lon="4.01725">
        <ele>103.4</ele>
        <time>2026-08-20T08:22:19Z</time>
      </trkpt>
      <trkpt lat="49.20136" lon="4.01725">
        <ele>103.4</ele>
        <time>2026-08-20T08:22:24Z</time>
      </trkpt>
      <trkpt lat="49.20136" lon="4.01725">
        <ele>103.4</ele>
        <time>2026-08-20T08:22:30Z</time>
      </trkpt>
      <trkpt lat="49.20136" lon="4.01725">
        <ele>103.4</ele>
        <time>2026-08-20T08:22:35Z</time>
      </trkpt>
      <trkpt lat="49.20136" lon="4.01725">
        <ele>103.4</ele>
        <time>2026-08-20T08:22:40Z</time>
      </trkpt>
      <trkpt lat="49.20136" lon="4.01725">
        <ele>103.4</ele>
        <time>2026-08-20T08:22:46Z</time>
      </trkpt>
      <trkpt lat="49.20136" lon="4.01725">
        <ele>103.4</ele>
        <time>2026-08-20T08:22:51Z</time>
      </trkpt>
      <trkpt lat="49.20136" lon="4.01725">
        <ele>103.4</ele>
        <time>2026-08-20T08:22:56Z</time>
      </trkpt>
      <trkpt lat="49.20136" lon="4.01725">
        <ele>103.4</ele>
        <time>2026-08-20T08:23:02Z</time>
      </trkpt>
      <trkpt lat="49.20132" lon="4.01737">
        <ele>102.8</ele>
        <time>2026-08-20T08:23:07Z</time>
      </trkpt>
      <trkpt lat="49.20132" lon="4.01745">
        <ele>102.4</ele>
        <time>2026-08-20T08:23:12Z</time>
      </trkpt>
      <trkpt lat="49.20131" lon="4.01754">
        <ele>102</ele>
        <time>2026-08-20T08:23:18Z</time>
      </trkpt>
      <trkpt lat="49.20131" lon="4.01754">
        <ele>102</ele>
        <time>2026-08-20T08:23:23Z</time>
      </trkpt>
      <trkpt lat="49.20131" lon="4.01754">
        <ele>102</ele>
        <time>2026-08-20T08:23:28Z</time>
      </trkpt>
      <trkpt lat="49.2013" lon="4.01758">
        <ele>101.8</ele>
        <time>2026-08-20T08:23:34Z</time>
      </trkpt>
      <trkpt lat="49.2013" lon="4.01763">
        <ele>101.6</ele>
        <time>2026-08-20T08:23:39Z</time>
      </trkpt>
      <trkpt lat="49.2013" lon="4.01766">
        <ele>101.4</ele>
        <time>2026-08-20T08:23:44Z</time>
      </trkpt>
      <trkpt lat="49.2013" lon="4.01767">
        <ele>101.4</ele>
        <time>2026-08-20T08:23:50Z</time>
      </trkpt>
      <trkpt lat="49.2013" lon="4.01767">
        <ele>101.4</ele>
        <time>2026-08-20T08:23:55Z</time>
      </trkpt>
      <trkpt lat="49.2013" lon="4.01767">
        <ele>101.4</ele>
        <time>2026-08-20T08:24:00Z</time>
      </trkpt>
      <trkpt lat="49.20129" lon="4.01776">
        <ele>101</ele>
        <time>2026-08-20T08:24:06Z</time>
      </trkpt>
      <trkpt lat="49.20127" lon="4.01782">
        <ele>100.7</ele>
        <time>2026-08-20T08:24:11Z</time>
      </trkpt>
      <trkpt lat="49.20124" lon="4.01787">
        <ele>100.4</ele>
        <time>2026-08-20T08:24:16Z</time>
      </trkpt>
      <trkpt lat="49.20122" lon="4.01793">
        <ele>100.1</ele>
        <time>2026-08-20T08:24:22Z</time>
      </trkpt>
      <trkpt lat="49.20119" lon="4.01799">
        <ele>99.8</ele>
        <time>2026-08-20T08:24:27Z</time>
      </trkpt>
      <trkpt lat="49.20117" lon="4.01801">
        <ele>99.7</ele>
        <time>2026-08-20T08:24:32Z</time>
      </trkpt>
      <trkpt lat="49.20117" lon="4.01802">
        <ele>99.7</ele>
        <time>2026-08-20T08:24:38Z</time>
      </trkpt>
      <trkpt lat="49.20113" lon="4.01808">
        <ele>99.4</ele>
        <time>2026-08-20T08:24:43Z</time>
      </trkpt>
      <trkpt lat="49.2011" lon="4.01815">
        <ele>99.1</ele>
        <time>2026-08-20T08:24:48Z</time>
      </trkpt>
      <trkpt lat="49.20105" lon="4.01823">
        <ele>98.7</ele>
        <time>2026-08-20T08:24:54Z</time>
      </trkpt>
      <trkpt lat="49.201" lon="4.01827">
        <ele>98.4</ele>
        <time>2026-08-20T08:24:59Z</time>
      </trkpt>
      <trkpt lat="49.20095" lon="4.01832">
        <ele>98.2</ele>
        <time>2026-08-20T08:25:04Z</time>
      </trkpt>
      <trkpt lat="49.20089" lon="4.01839">
        <ele>97.9</ele>
        <time>2026-08-20T08:25:10Z</time>
      </trkpt>
      <trkpt lat="49.20089" lon="4.01845">
        <ele>97.8</ele>
        <time>2026-08-20T08:25:15Z</time>
      </trkpt>
      <trkpt lat="49.20089" lon="4.01846">
        <ele>97.7</ele>
        <time>2026-08-20T08:25:20Z</time>
      </trkpt>
      <trkpt lat="49.20089" lon="4.01846">
        <ele>97.7</ele>
        <time>2026-08-20T08:25:26Z</time>
      </trkpt>
      <trkpt lat="49.20089" lon="4.01846">
        <ele>97.7</ele>
        <time>2026-08-20T08:25:31Z</time>
      </trkpt>
      <trkpt lat="49.20091" lon="4.01857">
        <ele>97.4</ele>
        <time>2026-08-20T08:25:36Z</time>
      </trkpt>
      <trkpt lat="49.20087" lon="4.01863">
        <ele>97.3</ele>
        <time>2026-08-20T08:25:42Z</time>
      </trkpt>
      <trkpt lat="49.20082" lon="4.01869">
        <ele>97.1</ele>
        <time>2026-08-20T08:25:47Z</time>
      </trkpt>
      <trkpt lat="49.20077" lon="4.01876">
        <ele>97</ele>
        <time>2026-08-20T08:25:52Z</time>
      </trkpt>
      <trkpt lat="49.20073" lon="4.0188">
        <ele>96.9</ele>
        <time>2026-08-20T08:25:58Z</time>
      </trkpt>
      <trkpt lat="49.20073" lon="4.0188">
        <ele>96.9</ele>
        <time>2026-08-20T08:26:03Z</time>
      </trkpt>
      <trkpt lat="49.20069" lon="4.01885">
        <ele>96.8</ele>
        <time>2026-08-20T08:26:08Z</time>
      </trkpt>
      <trkpt lat="49.20063" lon="4.01892">
        <ele>96.6</ele>
        <time>2026-08-20T08:26:14Z</time>
      </trkpt>
      <trkpt lat="49.20058" lon="4.01897">
        <ele>96.5</ele>
        <time>2026-08-20T08:26:19Z</time>
      </trkpt>
      <trkpt lat="49.20053" lon="4.01903">
        <ele>96.3</ele>
        <time>2026-08-20T08:26:24Z</time>
      </trkpt>
      <trkpt lat="49.20045" lon="4.01908">
        <ele>96.2</ele>
        <time>2026-08-20T08:26:30Z</time>
      </trkpt>
      <trkpt lat="49.20039" lon="4.01912">
        <ele>96.1</ele>
        <time>2026-08-20T08:26:35Z</time>
      </trkpt>
      <trkpt lat="49.20033" lon="4.01916">
        <ele>96</ele>
        <time>2026-08-20T08:26:40Z</time>
      </trkpt>
      <trkpt lat="49.20026" lon="4.01917">
        <ele>96</ele>
        <time>2026-08-20T08:26:46Z</time>
      </trkpt>
      <trkpt lat="49.2002" lon="4.01917">
        <ele>96</ele>
        <time>2026-08-20T08:26:51Z</time>
      </trkpt>
      <trkpt lat="49.20014" lon="4.01917">
        <ele>96</ele>
        <time>2026-08-20T08:26:56Z</time>
      </trkpt>
      <trkpt lat="49.20006" lon="4.01917">
        <ele>96</ele>
        <time>2026-08-20T08:27:02Z</time>
      </trkpt>
      <trkpt lat="49.19999" lon="4.01917">
        <ele>96</ele>
        <time>2026-08-20T08:27:07Z</time>
      </trkpt>
      <trkpt lat="49.19992" lon="4.01917">
        <ele>96</ele>
        <time>2026-08-20T08:27:12Z</time>
      </trkpt>
      <trkpt lat="49.19985" lon="4.01917">
        <ele>96</ele>
        <time>2026-08-20T08:27:18Z</time>
      </trkpt>
      <trkpt lat="49.19978" lon="4.01918">
        <ele>96</ele>
        <time>2026-08-20T08:27:23Z</time>
      </trkpt>
      <trkpt lat="49.19971" lon="4.01916">
        <ele>96</ele>
        <time>2026-08-20T08:27:28Z</time>
      </trkpt>
      <trkpt lat="49.19962" lon="4.01917">
        <ele>96</ele>
        <time>2026-08-20T08:27:34Z</time>
      </trkpt>
      <trkpt lat="49.19955" lon="4.01917">
        <ele>96</ele>
        <time>2026-08-20T08:27:39Z</time>
      </trkpt>
      <trkpt lat="49.19948" lon="4.01916">
        <ele>96</ele>
        <time>2026-08-20T08:27:44Z</time>
      </trkpt>
      <trkpt lat="49.1994" lon="4.01915">
        <ele>96</ele>
        <time>2026-08-20T08:27:50Z</time>
      </trkpt>
      <trkpt lat="49.19933" lon="4.01914">
        <ele>96.1</ele>
        <time>2026-08-20T08:27:55Z</time>
      </trkpt>
      <trkpt lat="49.19926" lon="4.01914">
        <ele>96.1</ele>
        <time>2026-08-20T08:28:00Z</time>
      </trkpt>
      <trkpt lat="49.19917" lon="4.01913">
        <ele>96.1</ele>
        <time>2026-08-20T08:28:06Z</time>
      </trkpt>
      <trkpt lat="49.1991" lon="4.01911">
        <ele>96.1</ele>
        <time>2026-08-20T08:28:11Z</time>
      </trkpt>
      <trkpt lat="49.19904" lon="4.01916">
        <ele>95.9</ele>
        <time>2026-08-20T08:28:16Z</time>
      </trkpt>
      <trkpt lat="49.19899" lon="4.01916">
        <ele>95.8</ele>
        <time>2026-08-20T08:28:22Z</time>
      </trkpt>
      <trkpt lat="49.19895" lon="4.01913">
        <ele>95.8</ele>
        <time>2026-08-20T08:28:27Z</time>
      </trkpt>
      <trkpt lat="49.1989" lon="4.01912">
        <ele>95.8</ele>
        <time>2026-08-20T08:28:32Z</time>
      </trkpt>
      <trkpt lat="49.19882" lon="4.01911">
        <ele>95.7</ele>
        <time>2026-08-20T08:28:38Z</time>
      </trkpt>
      <trkpt lat="49.19876" lon="4.01909">
        <ele>95.7</ele>
        <time>2026-08-20T08:28:43Z</time>
      </trkpt>
      <trkpt lat="49.19869" lon="4.01906">
        <ele>95.7</ele>
        <time>2026-08-20T08:28:48Z</time>
      </trkpt>
      <trkpt lat="49.19862" lon="4.01904">
        <ele>95.6</ele>
        <time>2026-08-20T08:28:54Z</time>
      </trkpt>
      <trkpt lat="49.19855" lon="4.01901">
        <ele>95.6</ele>
        <time>2026-08-20T08:28:59Z</time>
      </trkpt>
      <trkpt lat="49.19849" lon="4.01897">
        <ele>95.7</ele>
        <time>2026-08-20T08:29:04Z</time>
      </trkpt>
      <trkpt lat="49.19841" lon="4.01893">
        <ele>95.7</ele>
        <time>2026-08-20T08:29:10Z</time>
      </trkpt>
      <trkpt lat="49.19836" lon="4.01892">
        <ele>95.6</ele>
        <time>2026-08-20T08:29:15Z</time>
      </trkpt>
      <trkpt lat="49.1983" lon="4.0189">
        <ele>95.6</ele>
        <time>2026-08-20T08:29:20Z</time>
      </trkpt>
      <trkpt lat="49.19822" lon="4.01888">
        <ele>95.5</ele>
        <time>2026-08-20T08:29:26Z</time>
      </trkpt>
      <trkpt lat="49.19815" lon="4.01886">
        <ele>95.4</ele>
        <time>2026-08-20T08:29:31Z</time>
      </trkpt>
      <trkpt lat="49.19809" lon="4.01884">
        <ele>95.4</ele>
        <time>2026-08-20T08:29:36Z</time>
      </trkpt>
      <trkpt lat="49.19802" lon="4.01881">
        <ele>95.3</ele>
        <time>2026-08-20T08:29:42Z</time>
      </trkpt>
      <trkpt lat="49.19795" lon="4.01878">
        <ele>95.3</ele>
        <time>2026-08-20T08:29:47Z</time>
      </trkpt>
      <trkpt lat="49.19789" lon="4.01876">
        <ele>95.2</ele>
        <time>2026-08-20T08:29:52Z</time>
      </trkpt>
      <trkpt lat="49.19782" lon="4.01872">
        <ele>95.1</ele>
        <time>2026-08-20T08:29:58Z</time>
      </trkpt>
      <trkpt lat="49.19775" lon="4.0187">
        <ele>95</ele>
        <time>2026-08-20T08:30:03Z</time>
      </trkpt>
      <trkpt lat="49.19767" lon="4.01867">
        <ele>94.9</ele>
        <time>2026-08-20T08:30:08Z</time>
      </trkpt>
      <trkpt lat="49.19759" lon="4.01865">
        <ele>94.8</ele>
        <time>2026-08-20T08:30:14Z</time>
      </trkpt>
      <trkpt lat="49.19753" lon="4.01864">
        <ele>94.7</ele>
        <time>2026-08-20T08:30:19Z</time>
      </trkpt>
      <trkpt lat="49.19747" lon="4.01862">
        <ele>94.7</ele>
        <time>2026-08-20T08:30:24Z</time>
      </trkpt>
      <trkpt lat="49.19739" lon="4.01859">
        <ele>94.7</ele>
        <time>2026-08-20T08:30:30Z</time>
      </trkpt>
      <trkpt lat="49.19733" lon="4.01856">
        <ele>94.8</ele>
        <time>2026-08-20T08:30:35Z</time>
      </trkpt>
      <trkpt lat="49.19726" lon="4.01853">
        <ele>94.8</ele>
        <time>2026-08-20T08:30:40Z</time>
      </trkpt>
      <trkpt lat="49.19724" lon="4.01852">
        <ele>94.8</ele>
        <time>2026-08-20T08:30:46Z</time>
      </trkpt>
      <trkpt lat="49.19724" lon="4.01852">
        <ele>94.8</ele>
        <time>2026-08-20T08:30:51Z</time>
      </trkpt>
      <trkpt lat="49.19724" lon="4.01852">
        <ele>94.8</ele>
        <time>2026-08-20T08:30:56Z</time>
      </trkpt>
      <trkpt lat="49.19724" lon="4.01852">
        <ele>94.8</ele>
        <time>2026-08-20T08:31:02Z</time>
      </trkpt>
      <trkpt lat="49.19724" lon="4.01852">
        <ele>94.8</ele>
        <time>2026-08-20T08:31:07Z</time>
      </trkpt>
      <trkpt lat="49.19724" lon="4.01852">
        <ele>94.8</ele>
        <time>2026-08-20T08:31:12Z</time>
      </trkpt>
      <trkpt lat="49.19719" lon="4.0185">
        <ele>94.9</ele>
        <time>2026-08-20T08:31:18Z</time>
      </trkpt>
      <trkpt lat="49.19715" lon="4.01853">
        <ele>94.9</ele>
        <time>2026-08-20T08:31:23Z</time>
      </trkpt>
      <trkpt lat="49.19714" lon="4.01862">
        <ele>94.8</ele>
        <time>2026-08-20T08:31:28Z</time>
      </trkpt>
      <trkpt lat="49.19712" lon="4.01873">
        <ele>94.7</ele>
        <time>2026-08-20T08:31:34Z</time>
      </trkpt>
      <trkpt lat="49.1971" lon="4.01881">
        <ele>94.7</ele>
        <time>2026-08-20T08:31:39Z</time>
      </trkpt>
      <trkpt lat="49.19708" lon="4.01883">
        <ele>94.7</ele>
        <time>2026-08-20T08:31:44Z</time>
      </trkpt>
      <trkpt lat="49.19701" lon="4.01886">
        <ele>94.7</ele>
        <time>2026-08-20T08:31:50Z</time>
      </trkpt>
      <trkpt lat="49.19698" lon="4.01894">
        <ele>94.7</ele>
        <time>2026-08-20T08:31:55Z</time>
      </trkpt>
      <trkpt lat="49.19697" lon="4.01903">
        <ele>94.7</ele>
        <time>2026-08-20T08:32:00Z</time>
      </trkpt>
      <trkpt lat="49.19694" lon="4.01913">
        <ele>94.7</ele>
        <time>2026-08-20T08:32:06Z</time>
      </trkpt>
      <trkpt lat="49.19693" lon="4.01921">
        <ele>94.7</ele>
        <time>2026-08-20T08:32:11Z</time>
      </trkpt>
      <trkpt lat="49.19693" lon="4.01926">
        <ele>94.7</ele>
        <time>2026-08-20T08:32:16Z</time>
      </trkpt>
      <trkpt lat="49.19693" lon="4.01926">
        <ele>94.7</ele>
        <time>2026-08-20T08:32:22Z</time>
      </trkpt>
      <trkpt lat="49.19692" lon="4.01927">
        <ele>94.7</ele>
        <time>2026-08-20T08:32:27Z</time>
      </trkpt>
      <trkpt lat="49.19691" lon="4.01927">
        <ele>94.7</ele>
        <time>2026-08-20T08:32:32Z</time>
      </trkpt>
      <trkpt lat="49.19691" lon="4.01927">
        <ele>94.7</ele>
        <time>2026-08-20T08:32:38Z</time>
      </trkpt>
      <trkpt lat="49.19691" lon="4.0193">
        <ele>94.7</ele>
        <time>2026-08-20T08:32:43Z</time>
      </trkpt>
      <trkpt lat="49.19689" lon="4.01939">
        <ele>94.7</ele>
        <time>2026-08-20T08:32:48Z</time>
      </trkpt>
      <trkpt lat="49.19687" lon="4.01947">
        <ele>94.8</ele>
        <time>2026-08-20T08:32:54Z</time>
      </trkpt>
      <trkpt lat="49.19685" lon="4.01955">
        <ele>94.8</ele>
        <time>2026-08-20T08:32:59Z</time>
      </trkpt>
      <trkpt lat="49.19683" lon="4.01963">
        <ele>94.8</ele>
        <time>2026-08-20T08:33:04Z</time>
      </trkpt>
      <trkpt lat="49.1968" lon="4.01973">
        <ele>94.8</ele>
        <time>2026-08-20T08:33:10Z</time>
      </trkpt>
      <trkpt lat="49.19679" lon="4.01979">
        <ele>94.9</ele>
        <time>2026-08-20T08:33:15Z</time>
      </trkpt>
      <trkpt lat="49.19678" lon="4.01983">
        <ele>94.9</ele>
        <time>2026-08-20T08:33:20Z</time>
      </trkpt>
      <trkpt lat="49.19676" lon="4.01993">
        <ele>94.9</ele>
        <time>2026-08-20T08:33:26Z</time>
      </trkpt>
      <trkpt lat="49.19674" lon="4.02001">
        <ele>94.9</ele>
        <time>2026-08-20T08:33:31Z</time>
      </trkpt>
      <trkpt lat="49.19672" lon="4.0201">
        <ele>94.9</ele>
        <time>2026-08-20T08:33:36Z</time>
      </trkpt>
      <trkpt lat="49.19669" lon="4.0202">
        <ele>95</ele>
        <time>2026-08-20T08:33:42Z</time>
      </trkpt>
      <trkpt lat="49.19668" lon="4.02029">
        <ele>95</ele>
        <time>2026-08-20T08:33:47Z</time>
      </trkpt>
      <trkpt lat="49.19667" lon="4.02034">
        <ele>95</ele>
        <time>2026-08-20T08:33:52Z</time>
      </trkpt>
      <trkpt lat="49.19666" lon="4.02035">
        <ele>95</ele>
        <time>2026-08-20T08:33:58Z</time>
      </trkpt>
      <trkpt lat="49.19664" lon="4.02042">
        <ele>95.1</ele>
        <time>2026-08-20T08:34:03Z</time>
      </trkpt>
      <trkpt lat="49.19663" lon="4.02048">
        <ele>95.1</ele>
        <time>2026-08-20T08:34:08Z</time>
      </trkpt>
      <trkpt lat="49.19661" lon="4.02057">
        <ele>95.1</ele>
        <time>2026-08-20T08:34:14Z</time>
      </trkpt>
      <trkpt lat="49.1966" lon="4.02063">
        <ele>95.2</ele>
        <time>2026-08-20T08:34:19Z</time>
      </trkpt>
      <trkpt lat="49.19661" lon="4.02069">
        <ele>95.1</ele>
        <time>2026-08-20T08:34:24Z</time>
      </trkpt>
      <trkpt lat="49.19662" lon="4.0208">
        <ele>95.1</ele>
        <time>2026-08-20T08:34:30Z</time>
      </trkpt>
      <trkpt lat="49.1966" lon="4.0209">
        <ele>95.2</ele>
        <time>2026-08-20T08:34:35Z</time>
      </trkpt>
      <trkpt lat="49.19658" lon="4.02096">
        <ele>95.3</ele>
        <time>2026-08-20T08:34:40Z</time>
      </trkpt>
      <trkpt lat="49.19657" lon="4.02105">
        <ele>95.5</ele>
        <time>2026-08-20T08:34:46Z</time>
      </trkpt>
      <trkpt lat="49.19655" lon="4.02114">
        <ele>95.6</ele>
        <time>2026-08-20T08:34:51Z</time>
      </trkpt>
      <trkpt lat="49.19654" lon="4.02122">
        <ele>95.7</ele>
        <time>2026-08-20T08:34:56Z</time>
      </trkpt>
      <trkpt lat="49.19652" lon="4.02133">
        <ele>95.8</ele>
        <time>2026-08-20T08:35:02Z</time>
      </trkpt>
      <trkpt lat="49.19651" lon="4.02142">
        <ele>95.9</ele>
        <time>2026-08-20T08:35:07Z</time>
      </trkpt>
      <trkpt lat="49.19649" lon="4.02152">
        <ele>96.1</ele>
        <time>2026-08-20T08:35:12Z</time>
      </trkpt>
      <trkpt lat="49.19646" lon="4.02163">
        <ele>96.2</ele>
        <time>2026-08-20T08:35:18Z</time>
      </trkpt>
      <trkpt lat="49.19645" lon="4.02172">
        <ele>96.4</ele>
        <time>2026-08-20T08:35:23Z</time>
      </trkpt>
      <trkpt lat="49.19643" lon="4.0218">
        <ele>96.7</ele>
        <time>2026-08-20T08:35:28Z</time>
      </trkpt>
      <trkpt lat="49.19642" lon="4.02187">
        <ele>97</ele>
        <time>2026-08-20T08:35:34Z</time>
      </trkpt>
      <trkpt lat="49.19642" lon="4.02192">
        <ele>97.1</ele>
        <time>2026-08-20T08:35:39Z</time>
      </trkpt>
      <trkpt lat="49.19641" lon="4.02196">
        <ele>97.3</ele>
        <time>2026-08-20T08:35:44Z</time>
      </trkpt>
      <trkpt lat="49.19638" lon="4.02208">
        <ele>97.7</ele>
        <time>2026-08-20T08:35:50Z</time>
      </trkpt>
      <trkpt lat="49.19637" lon="4.02216">
        <ele>97.9</ele>
        <time>2026-08-20T08:35:55Z</time>
      </trkpt>
      <trkpt lat="49.19635" lon="4.02226">
        <ele>98.2</ele>
        <time>2026-08-20T08:36:00Z</time>
      </trkpt>
      <trkpt lat="49.19633" lon="4.02236">
        <ele>98.6</ele>
        <time>2026-08-20T08:36:06Z</time>
      </trkpt>
      <trkpt lat="49.19631" lon="4.02246">
        <ele>98.9</ele>
        <time>2026-08-20T08:36:11Z</time>
      </trkpt>
      <trkpt lat="49.1963" lon="4.02255">
        <ele>99.2</ele>
        <time>2026-08-20T08:36:16Z</time>
      </trkpt>
      <trkpt lat="49.19627" lon="4.02265">
        <ele>99.6</ele>
        <time>2026-08-20T08:36:22Z</time>
      </trkpt>
      <trkpt lat="49.19626" lon="4.02275">
        <ele>100.1</ele>
        <time>2026-08-20T08:36:27Z</time>
      </trkpt>
      <trkpt lat="49.19624" lon="4.02284">
        <ele>100.4</ele>
        <time>2026-08-20T08:36:32Z</time>
      </trkpt>
      <trkpt lat="49.19622" lon="4.02295">
        <ele>100.9</ele>
        <time>2026-08-20T08:36:38Z</time>
      </trkpt>
      <trkpt lat="49.19621" lon="4.02304">
        <ele>101.2</ele>
        <time>2026-08-20T08:36:43Z</time>
      </trkpt>
      <trkpt lat="49.19619" lon="4.02313">
        <ele>101.6</ele>
        <time>2026-08-20T08:36:48Z</time>
      </trkpt>
      <trkpt lat="49.19617" lon="4.02324">
        <ele>102</ele>
        <time>2026-08-20T08:36:54Z</time>
      </trkpt>
      <trkpt lat="49.19615" lon="4.02334">
        <ele>102.4</ele>
        <time>2026-08-20T08:36:59Z</time>
      </trkpt>
      <trkpt lat="49.19614" lon="4.02343">
        <ele>102.7</ele>
        <time>2026-08-20T08:37:04Z</time>
      </trkpt>
      <trkpt lat="49.19612" lon="4.02355">
        <ele>103</ele>
        <time>2026-08-20T08:37:10Z</time>
      </trkpt>
      <trkpt lat="49.1961" lon="4.02364">
        <ele>103.3</ele>
        <time>2026-08-20T08:37:15Z</time>
      </trkpt>
      <trkpt lat="49.19608" lon="4.02373">
        <ele>103.6</ele>
        <time>2026-08-20T08:37:20Z</time>
      </trkpt>
      <trkpt lat="49.19606" lon="4.02385">
        <ele>104</ele>
        <time>2026-08-20T08:37:26Z</time>
      </trkpt>
      <trkpt lat="49.19605" lon="4.02392">
        <ele>104.2</ele>
        <time>2026-08-20T08:37:31Z</time>
      </trkpt>
      <trkpt lat="49.19603" lon="4.02401">
        <ele>104.5</ele>
        <time>2026-08-20T08:37:36Z</time>
      </trkpt>
      <trkpt lat="49.19603" lon="4.02405">
        <ele>104.6</ele>
        <time>2026-08-20T08:37:42Z</time>
      </trkpt>
      <trkpt lat="49.19603" lon="4.02405">
        <ele>104.6</ele>
        <time>2026-08-20T08:37:47Z</time>
      </trkpt>
      <trkpt lat="49.19603" lon="4.02405">
        <ele>104.6</ele>
        <time>2026-08-20T08:37:52Z</time>
      </trkpt>
      <trkpt lat="49.196" lon="4.02415">
        <ele>104.9</ele>
        <time>2026-08-20T08:37:58Z</time>
      </trkpt>
      <trkpt lat="49.19599" lon="4.02424">
        <ele>105.3</ele>
        <time>2026-08-20T08:38:03Z</time>
      </trkpt>
      <trkpt lat="49.19598" lon="4.02432">
        <ele>105.6</ele>
        <time>2026-08-20T08:38:08Z</time>
      </trkpt>
      <trkpt lat="49.19597" lon="4.02433">
        <ele>105.6</ele>
        <time>2026-08-20T08:38:14Z</time>
      </trkpt>
      <trkpt lat="49.19593" lon="4.02435">
        <ele>105.7</ele>
        <time>2026-08-20T08:38:19Z</time>
      </trkpt>
      <trkpt lat="49.19593" lon="4.02438">
        <ele>105.8</ele>
        <time>2026-08-20T08:38:24Z</time>
      </trkpt>
      <trkpt lat="49.19591" lon="4.02445">
        <ele>106</ele>
        <time>2026-08-20T08:38:30Z</time>
      </trkpt>
      <trkpt lat="49.1959" lon="4.02454">
        <ele>106.3</ele>
        <time>2026-08-20T08:38:35Z</time>
      </trkpt>
      <trkpt lat="49.19588" lon="4.02462">
        <ele>106.6</ele>
        <time>2026-08-20T08:38:40Z</time>
      </trkpt>
      <trkpt lat="49.19586" lon="4.02473">
        <ele>107</ele>
        <time>2026-08-20T08:38:46Z</time>
      </trkpt>
      <trkpt lat="49.19584" lon="4.02482">
        <ele>107.4</ele>
        <time>2026-08-20T08:38:51Z</time>
      </trkpt>
      <trkpt lat="49.19583" lon="4.02491">
        <ele>107.7</ele>
        <time>2026-08-20T08:38:56Z</time>
      </trkpt>
      <trkpt lat="49.19582" lon="4.02501">
        <ele>108.1</ele>
        <time>2026-08-20T08:39:02Z</time>
      </trkpt>
      <trkpt lat="49.1958" lon="4.02509">
        <ele>108.4</ele>
        <time>2026-08-20T08:39:07Z</time>
      </trkpt>
      <trkpt lat="49.19578" lon="4.02517">
        <ele>108.7</ele>
        <time>2026-08-20T08:39:12Z</time>
      </trkpt>
      <trkpt lat="49.19576" lon="4.02527">
        <ele>109.1</ele>
        <time>2026-08-20T08:39:18Z</time>
      </trkpt>
      <trkpt lat="49.19575" lon="4.02533">
        <ele>109.3</ele>
        <time>2026-08-20T08:39:23Z</time>
      </trkpt>
      <trkpt lat="49.19575" lon="4.02536">
        <ele>109.4</ele>
        <time>2026-08-20T08:39:28Z</time>
      </trkpt>
      <trkpt lat="49.19574" lon="4.02539">
        <ele>109.5</ele>
        <time>2026-08-20T08:39:34Z</time>
      </trkpt>
      <trkpt lat="49.19574" lon="4.02539">
        <ele>109.5</ele>
        <time>2026-08-20T08:39:39Z</time>
      </trkpt>
      <trkpt lat="49.19573" lon="4.02548">
        <ele>109.8</ele>
        <time>2026-08-20T08:39:44Z</time>
      </trkpt>
      <trkpt lat="49.19571" lon="4.02558">
        <ele>110.2</ele>
        <time>2026-08-20T08:39:50Z</time>
      </trkpt>
      <trkpt lat="49.19569" lon="4.02566">
        <ele>110.4</ele>
        <time>2026-08-20T08:39:55Z</time>
      </trkpt>
      <trkpt lat="49.19568" lon="4.02573">
        <ele>110.7</ele>
        <time>2026-08-20T08:40:00Z</time>
      </trkpt>
      <trkpt lat="49.19567" lon="4.02577">
        <ele>110.8</ele>
        <time>2026-08-20T08:40:06Z</time>
      </trkpt>
      <trkpt lat="49.19567" lon="4.02577">
        <ele>110.8</ele>
        <time>2026-08-20T08:40:11Z</time>
      </trkpt>
      <trkpt lat="49.19567" lon="4.02578">
        <ele>110.8</ele>
        <time>2026-08-20T08:40:16Z</time>
      </trkpt>
      <trkpt lat="49.19569" lon="4.02587">
        <ele>111.1</ele>
        <time>2026-08-20T08:40:22Z</time>
      </trkpt>
      <trkpt lat="49.19568" lon="4.02592">
        <ele>111.2</ele>
        <time>2026-08-20T08:40:27Z</time>
      </trkpt>
      <trkpt lat="49.19568" lon="4.02595">
        <ele>111.3</ele>
        <time>2026-08-20T08:40:32Z</time>
      </trkpt>
      <trkpt lat="49.19567" lon="4.02596">
        <ele>111.3</ele>
        <time>2026-08-20T08:40:38Z</time>
      </trkpt>
      <trkpt lat="49.19566" lon="4.02601">
        <ele>111.4</ele>
        <time>2026-08-20T08:40:43Z</time>
      </trkpt>
      <trkpt lat="49.19564" lon="4.02609">
        <ele>111.5</ele>
        <time>2026-08-20T08:40:48Z</time>
      </trkpt>
      <trkpt lat="49.19564" lon="4.02617">
        <ele>111.7</ele>
        <time>2026-08-20T08:40:54Z</time>
      </trkpt>
      <trkpt lat="49.19562" lon="4.0262">
        <ele>111.8</ele>
        <time>2026-08-20T08:40:59Z</time>
      </trkpt>
      <trkpt lat="49.19563" lon="4.02621">
        <ele>111.8</ele>
        <time>2026-08-20T08:41:04Z</time>
      </trkpt>
      <trkpt lat="49.1956" lon="4.0263">
        <ele>112</ele>
        <time>2026-08-20T08:41:10Z</time>
      </trkpt>
      <trkpt lat="49.19558" lon="4.02639">
        <ele>112.1</ele>
        <time>2026-08-20T08:41:15Z</time>
      </trkpt>
      <trkpt lat="49.19556" lon="4.02647">
        <ele>112.3</ele>
        <time>2026-08-20T08:41:20Z</time>
      </trkpt>
      <trkpt lat="49.19554" lon="4.02657">
        <ele>112.5</ele>
        <time>2026-08-20T08:41:26Z</time>
      </trkpt>
      <trkpt lat="49.19552" lon="4.02665">
        <ele>112.6</ele>
        <time>2026-08-20T08:41:31Z</time>
      </trkpt>
      <trkpt lat="49.19551" lon="4.02674">
        <ele>112.9</ele>
        <time>2026-08-20T08:41:36Z</time>
      </trkpt>
      <trkpt lat="49.19548" lon="4.02685">
        <ele>113.2</ele>
        <time>2026-08-20T08:41:42Z</time>
      </trkpt>
      <trkpt lat="49.19546" lon="4.02694">
        <ele>113.5</ele>
        <time>2026-08-20T08:41:47Z</time>
      </trkpt>
      <trkpt lat="49.19544" lon="4.02702">
        <ele>113.8</ele>
        <time>2026-08-20T08:41:52Z</time>
      </trkpt>
      <trkpt lat="49.19542" lon="4.02713">
        <ele>114.2</ele>
        <time>2026-08-20T08:41:58Z</time>
      </trkpt>
      <trkpt lat="49.1954" lon="4.02722">
        <ele>114.5</ele>
        <time>2026-08-20T08:42:03Z</time>
      </trkpt>
      <trkpt lat="49.19537" lon="4.02731">
        <ele>114.8</ele>
        <time>2026-08-20T08:42:08Z</time>
      </trkpt>
      <trkpt lat="49.19535" lon="4.02741">
        <ele>115.1</ele>
        <time>2026-08-20T08:42:14Z</time>
      </trkpt>
      <trkpt lat="49.19533" lon="4.02749">
        <ele>115.4</ele>
        <time>2026-08-20T08:42:19Z</time>
      </trkpt>
      <trkpt lat="49.19531" lon="4.02759">
        <ele>115.7</ele>
        <time>2026-08-20T08:42:24Z</time>
      </trkpt>
      <trkpt lat="49.19529" lon="4.02769">
        <ele>116</ele>
        <time>2026-08-20T08:42:30Z</time>
      </trkpt>
      <trkpt lat="49.19528" lon="4.02777">
        <ele>116.3</ele>
        <time>2026-08-20T08:42:35Z</time>
      </trkpt>
      <trkpt lat="49.19525" lon="4.02785">
        <ele>116.6</ele>
        <time>2026-08-20T08:42:40Z</time>
      </trkpt>
      <trkpt lat="49.19523" lon="4.02796">
        <ele>116.9</ele>
        <time>2026-08-20T08:42:46Z</time>
      </trkpt>
      <trkpt lat="49.19521" lon="4.02804">
        <ele>117.2</ele>
        <time>2026-08-20T08:42:51Z</time>
      </trkpt>
      <trkpt lat="49.19519" lon="4.02813">
        <ele>117.5</ele>
        <time>2026-08-20T08:42:56Z</time>
      </trkpt>
      <trkpt lat="49.19517" lon="4.02823">
        <ele>117.8</ele>
        <time>2026-08-20T08:43:02Z</time>
      </trkpt>
      <trkpt lat="49.19514" lon="4.02832">
        <ele>118.1</ele>
        <time>2026-08-20T08:43:07Z</time>
      </trkpt>
      <trkpt lat="49.19512" lon="4.02841">
        <ele>118.3</ele>
        <time>2026-08-20T08:43:12Z</time>
      </trkpt>
      <trkpt lat="49.1951" lon="4.02851">
        <ele>118.4</ele>
        <time>2026-08-20T08:43:18Z</time>
      </trkpt>
      <trkpt lat="49.19508" lon="4.02859">
        <ele>118.5</ele>
        <time>2026-08-20T08:43:23Z</time>
      </trkpt>
      <trkpt lat="49.19505" lon="4.02868">
        <ele>118.6</ele>
        <time>2026-08-20T08:43:28Z</time>
      </trkpt>
      <trkpt lat="49.19502" lon="4.02878">
        <ele>118.6</ele>
        <time>2026-08-20T08:43:34Z</time>
      </trkpt>
      <trkpt lat="49.195" lon="4.02888">
        <ele>118.7</ele>
        <time>2026-08-20T08:43:39Z</time>
      </trkpt>
      <trkpt lat="49.19497" lon="4.02896">
        <ele>118.7</ele>
        <time>2026-08-20T08:43:44Z</time>
      </trkpt>
      <trkpt lat="49.19494" lon="4.02907">
        <ele>118.7</ele>
        <time>2026-08-20T08:43:50Z</time>
      </trkpt>
      <trkpt lat="49.19492" lon="4.02912">
        <ele>118.7</ele>
        <time>2026-08-20T08:43:55Z</time>
      </trkpt>
      <trkpt lat="49.1949" lon="4.0292">
        <ele>118.8</ele>
        <time>2026-08-20T08:44:00Z</time>
      </trkpt>
      <trkpt lat="49.19488" lon="4.02931">
        <ele>119</ele>
        <time>2026-08-20T08:44:06Z</time>
      </trkpt>
      <trkpt lat="49.19487" lon="4.02939">
        <ele>119.2</ele>
        <time>2026-08-20T08:44:11Z</time>
      </trkpt>
      <trkpt lat="49.19486" lon="4.02948">
        <ele>119.4</ele>
        <time>2026-08-20T08:44:16Z</time>
      </trkpt>
      <trkpt lat="49.19485" lon="4.02959">
        <ele>119.6</ele>
        <time>2026-08-20T08:44:22Z</time>
      </trkpt>
      <trkpt lat="49.19484" lon="4.02967">
        <ele>119.7</ele>
        <time>2026-08-20T08:44:27Z</time>
      </trkpt>
      <trkpt lat="49.19482" lon="4.02977">
        <ele>119.9</ele>
        <time>2026-08-20T08:44:32Z</time>
      </trkpt>
      <trkpt lat="49.1948" lon="4.02989">
        <ele>120</ele>
        <time>2026-08-20T08:44:38Z</time>
      </trkpt>
      <trkpt lat="49.19479" lon="4.02997">
        <ele>120.2</ele>
        <time>2026-08-20T08:44:43Z</time>
      </trkpt>
      <trkpt lat="49.19478" lon="4.03007">
        <ele>120.5</ele>
        <time>2026-08-20T08:44:48Z</time>
      </trkpt>
      <trkpt lat="49.19477" lon="4.03018">
        <ele>120.8</ele>
        <time>2026-08-20T08:44:54Z</time>
      </trkpt>
      <trkpt lat="49.19476" lon="4.03026">
        <ele>121.1</ele>
        <time>2026-08-20T08:44:59Z</time>
      </trkpt>
      <trkpt lat="49.19475" lon="4.03035">
        <ele>121.4</ele>
        <time>2026-08-20T08:45:04Z</time>
      </trkpt>
      <trkpt lat="49.19474" lon="4.03045">
        <ele>121.7</ele>
        <time>2026-08-20T08:45:10Z</time>
      </trkpt>
      <trkpt lat="49.19473" lon="4.03053">
        <ele>121.9</ele>
        <time>2026-08-20T08:45:15Z</time>
      </trkpt>
      <trkpt lat="49.19472" lon="4.03062">
        <ele>122.2</ele>
        <time>2026-08-20T08:45:20Z</time>
      </trkpt>
      <trkpt lat="49.19471" lon="4.03073">
        <ele>122.6</ele>
        <time>2026-08-20T08:45:26Z</time>
      </trkpt>
      <trkpt lat="49.1947" lon="4.03082">
        <ele>122.9</ele>
        <time>2026-08-20T08:45:31Z</time>
      </trkpt>
      <trkpt lat="49.19469" lon="4.03093">
        <ele>123.3</ele>
        <time>2026-08-20T08:45:36Z</time>
      </trkpt>
      <trkpt lat="49.19468" lon="4.03103">
        <ele>123.8</ele>
        <time>2026-08-20T08:45:42Z</time>
      </trkpt>
      <trkpt lat="49.19467" lon="4.03113">
        <ele>124.2</ele>
        <time>2026-08-20T08:45:47Z</time>
      </trkpt>
      <trkpt lat="49.19465" lon="4.03121">
        <ele>124.5</ele>
        <time>2026-08-20T08:45:52Z</time>
      </trkpt>
      <trkpt lat="49.19464" lon="4.03132">
        <ele>125</ele>
        <time>2026-08-20T08:45:58Z</time>
      </trkpt>
      <trkpt lat="49.19464" lon="4.0314">
        <ele>125.4</ele>
        <time>2026-08-20T08:46:03Z</time>
      </trkpt>
      <trkpt lat="49.19463" lon="4.03148">
        <ele>125.8</ele>
        <time>2026-08-20T08:46:08Z</time>
      </trkpt>
      <trkpt lat="49.19461" lon="4.03159">
        <ele>126.2</ele>
        <time>2026-08-20T08:46:14Z</time>
      </trkpt>
      <trkpt lat="49.1946" lon="4.03167">
        <ele>126.6</ele>
        <time>2026-08-20T08:46:19Z</time>
      </trkpt>
      <trkpt lat="49.19459" lon="4.03176">
        <ele>126.9</ele>
        <time>2026-08-20T08:46:24Z</time>
      </trkpt>
      <trkpt lat="49.19458" lon="4.03185">
        <ele>127.3</ele>
        <time>2026-08-20T08:46:30Z</time>
      </trkpt>
      <trkpt lat="49.19457" lon="4.03193">
        <ele>127.6</ele>
        <time>2026-08-20T08:46:35Z</time>
      </trkpt>
      <trkpt lat="49.19458" lon="4.03194">
        <ele>127.6</ele>
        <time>2026-08-20T08:46:40Z</time>
      </trkpt>
      <trkpt lat="49.19456" lon="4.03201">
        <ele>127.8</ele>
        <time>2026-08-20T08:46:46Z</time>
      </trkpt>
      <trkpt lat="49.19455" lon="4.03208">
        <ele>128.1</ele>
        <time>2026-08-20T08:46:51Z</time>
      </trkpt>
      <trkpt lat="49.19455" lon="4.03217">
        <ele>128.5</ele>
        <time>2026-08-20T08:46:56Z</time>
      </trkpt>
      <trkpt lat="49.19454" lon="4.03227">
        <ele>128.8</ele>
        <time>2026-08-20T08:47:02Z</time>
      </trkpt>
      <trkpt lat="49.19452" lon="4.03235">
        <ele>129.1</ele>
        <time>2026-08-20T08:47:07Z</time>
      </trkpt>
      <trkpt lat="49.19452" lon="4.03244">
        <ele>129.4</ele>
        <time>2026-08-20T08:47:12Z</time>
      </trkpt>
      <trkpt lat="49.19451" lon="4.03254">
        <ele>129.8</ele>
        <time>2026-08-20T08:47:18Z</time>
      </trkpt>
      <trkpt lat="49.1945" lon="4.03258">
        <ele>130</ele>
        <time>2026-08-20T08:47:23Z</time>
      </trkpt>
      <trkpt lat="49.19449" lon="4.03266">
        <ele>130.4</ele>
        <time>2026-08-20T08:47:28Z</time>
      </trkpt>
      <trkpt lat="49.19448" lon="4.03277">
        <ele>130.9</ele>
        <time>2026-08-20T08:47:34Z</time>
      </trkpt>
      <trkpt lat="49.19447" lon="4.03286">
        <ele>131.3</ele>
        <time>2026-08-20T08:47:39Z</time>
      </trkpt>
      <trkpt lat="49.19446" lon="4.03294">
        <ele>131.7</ele>
        <time>2026-08-20T08:47:44Z</time>
      </trkpt>
      <trkpt lat="49.19445" lon="4.03305">
        <ele>132.2</ele>
        <time>2026-08-20T08:47:50Z</time>
      </trkpt>
      <trkpt lat="49.19444" lon="4.03314">
        <ele>132.6</ele>
        <time>2026-08-20T08:47:55Z</time>
      </trkpt>
      <trkpt lat="49.19443" lon="4.03319">
        <ele>132.9</ele>
        <time>2026-08-20T08:48:00Z</time>
      </trkpt>
      <trkpt lat="49.19443" lon="4.03328">
        <ele>133.4</ele>
        <time>2026-08-20T08:48:06Z</time>
      </trkpt>
      <trkpt lat="49.19442" lon="4.03336">
        <ele>133.8</ele>
        <time>2026-08-20T08:48:11Z</time>
      </trkpt>
      <trkpt lat="49.19441" lon="4.03344">
        <ele>134.3</ele>
        <time>2026-08-20T08:48:16Z</time>
      </trkpt>
      <trkpt lat="49.19439" lon="4.03355">
        <ele>135</ele>
        <time>2026-08-20T08:48:22Z</time>
      </trkpt>
      <trkpt lat="49.19439" lon="4.03363">
        <ele>135.5</ele>
        <time>2026-08-20T08:48:27Z</time>
      </trkpt>
      <trkpt lat="49.19437" lon="4.03372">
        <ele>136</ele>
        <time>2026-08-20T08:48:32Z</time>
      </trkpt>
      <trkpt lat="49.19437" lon="4.03382">
        <ele>136.7</ele>
        <time>2026-08-20T08:48:38Z</time>
      </trkpt>
      <trkpt lat="49.19436" lon="4.0339">
        <ele>137.2</ele>
        <time>2026-08-20T08:48:43Z</time>
      </trkpt>
      <trkpt lat="49.19435" lon="4.03399">
        <ele>137.8</ele>
        <time>2026-08-20T08:48:48Z</time>
      </trkpt>
      <trkpt lat="49.19434" lon="4.03409">
        <ele>138.5</ele>
        <time>2026-08-20T08:48:54Z</time>
      </trkpt>
      <trkpt lat="49.19433" lon="4.03413">
        <ele>138.8</ele>
        <time>2026-08-20T08:48:59Z</time>
      </trkpt>
      <trkpt lat="49.19432" lon="4.03422">
        <ele>139.2</ele>
        <time>2026-08-20T08:49:04Z</time>
      </trkpt>
      <trkpt lat="49.19432" lon="4.03433">
        <ele>139.6</ele>
        <time>2026-08-20T08:49:10Z</time>
      </trkpt>
      <trkpt lat="49.1943" lon="4.03439">
        <ele>139.8</ele>
        <time>2026-08-20T08:49:15Z</time>
      </trkpt>
      <trkpt lat="49.1943" lon="4.03442">
        <ele>139.9</ele>
        <time>2026-08-20T08:49:20Z</time>
      </trkpt>
      <trkpt lat="49.19429" lon="4.03446">
        <ele>140</ele>
        <time>2026-08-20T08:49:26Z</time>
      </trkpt>
      <trkpt lat="49.19427" lon="4.03456">
        <ele>140.4</ele>
        <time>2026-08-20T08:49:31Z</time>
      </trkpt>
      <trkpt lat="49.19425" lon="4.03466">
        <ele>140.7</ele>
        <time>2026-08-20T08:49:36Z</time>
      </trkpt>
      <trkpt lat="49.19424" lon="4.03477">
        <ele>141.1</ele>
        <time>2026-08-20T08:49:42Z</time>
      </trkpt>
      <trkpt lat="49.19422" lon="4.03485">
        <ele>141.4</ele>
        <time>2026-08-20T08:49:47Z</time>
      </trkpt>
      <trkpt lat="49.1942" lon="4.03494">
        <ele>141.7</ele>
        <time>2026-08-20T08:49:52Z</time>
      </trkpt>
      <trkpt lat="49.19418" lon="4.03506">
        <ele>141.9</ele>
        <time>2026-08-20T08:49:58Z</time>
      </trkpt>
      <trkpt lat="49.19416" lon="4.03516">
        <ele>141.8</ele>
        <time>2026-08-20T08:50:03Z</time>
      </trkpt>
      <trkpt lat="49.19414" lon="4.03526">
        <ele>141.6</ele>
        <time>2026-08-20T08:50:08Z</time>
      </trkpt>
      <trkpt lat="49.19411" lon="4.03537">
        <ele>141.5</ele>
        <time>2026-08-20T08:50:14Z</time>
      </trkpt>
      <trkpt lat="49.1941" lon="4.03547">
        <ele>141.4</ele>
        <time>2026-08-20T08:50:19Z</time>
      </trkpt>
      <trkpt lat="49.19408" lon="4.03555">
        <ele>141.3</ele>
        <time>2026-08-20T08:50:24Z</time>
      </trkpt>
      <trkpt lat="49.19406" lon="4.03566">
        <ele>141.2</ele>
        <time>2026-08-20T08:50:30Z</time>
      </trkpt>
      <trkpt lat="49.19404" lon="4.03575">
        <ele>141.1</ele>
        <time>2026-08-20T08:50:35Z</time>
      </trkpt>
      <trkpt lat="49.19402" lon="4.03584">
        <ele>141</ele>
        <time>2026-08-20T08:50:40Z</time>
      </trkpt>
      <trkpt lat="49.194" lon="4.03594">
        <ele>140.6</ele>
        <time>2026-08-20T08:50:46Z</time>
      </trkpt>
      <trkpt lat="49.19398" lon="4.03602">
        <ele>140.4</ele>
        <time>2026-08-20T08:50:51Z</time>
      </trkpt>
      <trkpt lat="49.19396" lon="4.03611">
        <ele>140.1</ele>
        <time>2026-08-20T08:50:56Z</time>
      </trkpt>
      <trkpt lat="49.19393" lon="4.03623">
        <ele>139.7</ele>
        <time>2026-08-20T08:51:02Z</time>
      </trkpt>
      <trkpt lat="49.19391" lon="4.03632">
        <ele>139.4</ele>
        <time>2026-08-20T08:51:07Z</time>
      </trkpt>
      <trkpt lat="49.19391" lon="4.03633">
        <ele>139.4</ele>
        <time>2026-08-20T08:51:12Z</time>
      </trkpt>
      <trkpt lat="49.1939" lon="4.03636">
        <ele>139.3</ele>
        <time>2026-08-20T08:51:18Z</time>
      </trkpt>
      <trkpt lat="49.19388" lon="4.03644">
        <ele>139.1</ele>
        <time>2026-08-20T08:51:23Z</time>
      </trkpt>
      <trkpt lat="49.19388" lon="4.03647">
        <ele>139</ele>
        <time>2026-08-20T08:51:28Z</time>
      </trkpt>
      <trkpt lat="49.19388" lon="4.03647">
        <ele>139</ele>
        <time>2026-08-20T08:51:34Z</time>
      </trkpt>
      <trkpt lat="49.19388" lon="4.03647">
        <ele>139</ele>
        <time>2026-08-20T08:51:39Z</time>
      </trkpt>
      <trkpt lat="49.19388" lon="4.03647">
        <ele>139</ele>
        <time>2026-08-20T08:51:44Z</time>
      </trkpt>
      <trkpt lat="49.19388" lon="4.03647">
        <ele>139</ele>
        <time>2026-08-20T08:51:50Z</time>
      </trkpt>
      <trkpt lat="49.19388" lon="4.03647">
        <ele>139</ele>
        <time>2026-08-20T08:51:55Z</time>
      </trkpt>
      <trkpt lat="49.19388" lon="4.03647">
        <ele>139</ele>
        <time>2026-08-20T08:52:00Z</time>
      </trkpt>
      <trkpt lat="49.19386" lon="4.03651">
        <ele>138.9</ele>
        <time>2026-08-20T08:52:06Z</time>
      </trkpt>
      <trkpt lat="49.19385" lon="4.0366">
        <ele>138.6</ele>
        <time>2026-08-20T08:52:11Z</time>
      </trkpt>
      <trkpt lat="49.19383" lon="4.03668">
        <ele>138.3</ele>
        <time>2026-08-20T08:52:16Z</time>
      </trkpt>
      <trkpt lat="49.1938" lon="4.03679">
        <ele>137.9</ele>
        <time>2026-08-20T08:52:22Z</time>
      </trkpt>
      <trkpt lat="49.19378" lon="4.03689">
        <ele>137.5</ele>
        <time>2026-08-20T08:52:27Z</time>
      </trkpt>
      <trkpt lat="49.19375" lon="4.03699">
        <ele>137.1</ele>
        <time>2026-08-20T08:52:32Z</time>
      </trkpt>
      <trkpt lat="49.19373" lon="4.0371">
        <ele>136.7</ele>
        <time>2026-08-20T08:52:38Z</time>
      </trkpt>
      <trkpt lat="49.1937" lon="4.03718">
        <ele>136.4</ele>
        <time>2026-08-20T08:52:43Z</time>
      </trkpt>
      <trkpt lat="49.19369" lon="4.03728">
        <ele>135.9</ele>
        <time>2026-08-20T08:52:48Z</time>
      </trkpt>
      <trkpt lat="49.19368" lon="4.03741">
        <ele>135.4</ele>
        <time>2026-08-20T08:52:54Z</time>
      </trkpt>
      <trkpt lat="49.19368" lon="4.03751">
        <ele>135</ele>
        <time>2026-08-20T08:52:59Z</time>
      </trkpt>
      <trkpt lat="49.19368" lon="4.03762">
        <ele>134.6</ele>
        <time>2026-08-20T08:53:04Z</time>
      </trkpt>
      <trkpt lat="49.19368" lon="4.03774">
        <ele>134.3</ele>
        <time>2026-08-20T08:53:10Z</time>
      </trkpt>
      <trkpt lat="49.19369" lon="4.03784">
        <ele>134</ele>
        <time>2026-08-20T08:53:15Z</time>
      </trkpt>
      <trkpt lat="49.19369" lon="4.03794">
        <ele>133.6</ele>
        <time>2026-08-20T08:53:20Z</time>
      </trkpt>
      <trkpt lat="49.19369" lon="4.03806">
        <ele>133.3</ele>
        <time>2026-08-20T08:53:26Z</time>
      </trkpt>
      <trkpt lat="49.19369" lon="4.03816">
        <ele>133</ele>
        <time>2026-08-20T08:53:31Z</time>
      </trkpt>
      <trkpt lat="49.19369" lon="4.03826">
        <ele>132.7</ele>
        <time>2026-08-20T08:53:36Z</time>
      </trkpt>
      <trkpt lat="49.1937" lon="4.03839">
        <ele>132.2</ele>
        <time>2026-08-20T08:53:42Z</time>
      </trkpt>
      <trkpt lat="49.1937" lon="4.03848">
        <ele>131.9</ele>
        <time>2026-08-20T08:53:47Z</time>
      </trkpt>
      <trkpt lat="49.19369" lon="4.0386">
        <ele>131.5</ele>
        <time>2026-08-20T08:53:52Z</time>
      </trkpt>
      <trkpt lat="49.19369" lon="4.03873">
        <ele>131</ele>
        <time>2026-08-20T08:53:58Z</time>
      </trkpt>
      <trkpt lat="49.19368" lon="4.03883">
        <ele>130.6</ele>
        <time>2026-08-20T08:54:03Z</time>
      </trkpt>
      <trkpt lat="49.19369" lon="4.03892">
        <ele>130.3</ele>
        <time>2026-08-20T08:54:08Z</time>
      </trkpt>
      <trkpt lat="49.19369" lon="4.03904">
        <ele>129.9</ele>
        <time>2026-08-20T08:54:14Z</time>
      </trkpt>
      <trkpt lat="49.19368" lon="4.03914">
        <ele>129.5</ele>
        <time>2026-08-20T08:54:19Z</time>
      </trkpt>
      <trkpt lat="49.19367" lon="4.03922">
        <ele>129</ele>
        <time>2026-08-20T08:54:24Z</time>
      </trkpt>
      <trkpt lat="49.19365" lon="4.03928">
        <ele>128.5</ele>
        <time>2026-08-20T08:54:30Z</time>
      </trkpt>
      <trkpt lat="49.19361" lon="4.03936">
        <ele>127.9</ele>
        <time>2026-08-20T08:54:35Z</time>
      </trkpt>
      <trkpt lat="49.19357" lon="4.03943">
        <ele>127.3</ele>
        <time>2026-08-20T08:54:40Z</time>
      </trkpt>
      <trkpt lat="49.19351" lon="4.03953">
        <ele>126.3</ele>
        <time>2026-08-20T08:54:46Z</time>
      </trkpt>
      <trkpt lat="49.19346" lon="4.03961">
        <ele>125.6</ele>
        <time>2026-08-20T08:54:51Z</time>
      </trkpt>
      <trkpt lat="49.19341" lon="4.03968">
        <ele>124.9</ele>
        <time>2026-08-20T08:54:56Z</time>
      </trkpt>
      <trkpt lat="49.19335" lon="4.03977">
        <ele>124</ele>
        <time>2026-08-20T08:55:02Z</time>
      </trkpt>
      <trkpt lat="49.1933" lon="4.03985">
        <ele>123.3</ele>
        <time>2026-08-20T08:55:07Z</time>
      </trkpt>
      <trkpt lat="49.19325" lon="4.03991">
        <ele>122.9</ele>
        <time>2026-08-20T08:55:12Z</time>
      </trkpt>
      <trkpt lat="49.19319" lon="4.04001">
        <ele>122.3</ele>
        <time>2026-08-20T08:55:18Z</time>
      </trkpt>
      <trkpt lat="49.19316" lon="4.04004">
        <ele>122.3</ele>
        <time>2026-08-20T08:55:23Z</time>
      </trkpt>
      <trkpt lat="49.19316" lon="4.04005">
        <ele>122.2</ele>
        <time>2026-08-20T08:55:28Z</time>
      </trkpt>
      <trkpt lat="49.19316" lon="4.04005">
        <ele>122.2</ele>
        <time>2026-08-20T08:55:34Z</time>
      </trkpt>
      <trkpt lat="49.19316" lon="4.04005">
        <ele>122.2</ele>
        <time>2026-08-20T08:55:39Z</time>
      </trkpt>
      <trkpt lat="49.19316" lon="4.04005">
        <ele>122.2</ele>
        <time>2026-08-20T08:55:44Z</time>
      </trkpt>
      <trkpt lat="49.19316" lon="4.04005">
        <ele>122.2</ele>
        <time>2026-08-20T08:55:50Z</time>
      </trkpt>
      <trkpt lat="49.19316" lon="4.04005">
        <ele>122.2</ele>
        <time>2026-08-20T08:55:55Z</time>
      </trkpt>
      <trkpt lat="49.1931" lon="4.0401">
        <ele>122.2</ele>
        <time>2026-08-20T08:56:00Z</time>
      </trkpt>
      <trkpt lat="49.19305" lon="4.04018">
        <ele>122.1</ele>
        <time>2026-08-20T08:56:06Z</time>
      </trkpt>
      <trkpt lat="49.19301" lon="4.04026">
        <ele>122</ele>
        <time>2026-08-20T08:56:11Z</time>
      </trkpt>
      <trkpt lat="49.19298" lon="4.04032">
        <ele>122</ele>
        <time>2026-08-20T08:56:16Z</time>
      </trkpt>
      <trkpt lat="49.19292" lon="4.04037">
        <ele>122.1</ele>
        <time>2026-08-20T08:56:22Z</time>
      </trkpt>
      <trkpt lat="49.19287" lon="4.04045">
        <ele>122.2</ele>
        <time>2026-08-20T08:56:27Z</time>
      </trkpt>
      <trkpt lat="49.19282" lon="4.04052">
        <ele>122.3</ele>
        <time>2026-08-20T08:56:32Z</time>
      </trkpt>
      <trkpt lat="49.19277" lon="4.04061">
        <ele>122.4</ele>
        <time>2026-08-20T08:56:38Z</time>
      </trkpt>
      <trkpt lat="49.19272" lon="4.04069">
        <ele>122.6</ele>
        <time>2026-08-20T08:56:43Z</time>
      </trkpt>
      <trkpt lat="49.19268" lon="4.04076">
        <ele>122.8</ele>
        <time>2026-08-20T08:56:48Z</time>
      </trkpt>
      <trkpt lat="49.19262" lon="4.04081">
        <ele>123.2</ele>
        <time>2026-08-20T08:56:54Z</time>
      </trkpt>
      <trkpt lat="49.19258" lon="4.04088">
        <ele>123.3</ele>
        <time>2026-08-20T08:56:59Z</time>
      </trkpt>
      <trkpt lat="49.19253" lon="4.04096">
        <ele>123.5</ele>
        <time>2026-08-20T08:57:04Z</time>
      </trkpt>
      <trkpt lat="49.1925" lon="4.04106">
        <ele>123.5</ele>
        <time>2026-08-20T08:57:10Z</time>
      </trkpt>
      <trkpt lat="49.19247" lon="4.04113">
        <ele>123.5</ele>
        <time>2026-08-20T08:57:15Z</time>
      </trkpt>
      <trkpt lat="49.19244" lon="4.04122">
        <ele>123.5</ele>
        <time>2026-08-20T08:57:20Z</time>
      </trkpt>
      <trkpt lat="49.1924" lon="4.04132">
        <ele>123.6</ele>
        <time>2026-08-20T08:57:26Z</time>
      </trkpt>
      <trkpt lat="49.19236" lon="4.04142">
        <ele>123.8</ele>
        <time>2026-08-20T08:57:31Z</time>
      </trkpt>
      <trkpt lat="49.19232" lon="4.04147">
        <ele>124</ele>
        <time>2026-08-20T08:57:36Z</time>
      </trkpt>
      <trkpt lat="49.19227" lon="4.04156">
        <ele>124.4</ele>
        <time>2026-08-20T08:57:42Z</time>
      </trkpt>
      <trkpt lat="49.19224" lon="4.04163">
        <ele>124.5</ele>
        <time>2026-08-20T08:57:47Z</time>
      </trkpt>
      <trkpt lat="49.19223" lon="4.04164">
        <ele>124.6</ele>
        <time>2026-08-20T08:57:52Z</time>
      </trkpt>
      <trkpt lat="49.19223" lon="4.04166">
        <ele>124.6</ele>
        <time>2026-08-20T08:57:58Z</time>
      </trkpt>
      <trkpt lat="49.19223" lon="4.04166">
        <ele>124.6</ele>
        <time>2026-08-20T08:58:03Z</time>
      </trkpt>
      <trkpt lat="49.19221" lon="4.04166">
        <ele>124.8</ele>
        <time>2026-08-20T08:58:08Z</time>
      </trkpt>
      <trkpt lat="49.19218" lon="4.04172">
        <ele>125.1</ele>
        <time>2026-08-20T08:58:14Z</time>
      </trkpt>
      <trkpt lat="49.19214" lon="4.04176">
        <ele>125.5</ele>
        <time>2026-08-20T08:58:19Z</time>
      </trkpt>
      <trkpt lat="49.19209" lon="4.0418">
        <ele>125.9</ele>
        <time>2026-08-20T08:58:24Z</time>
      </trkpt>
      <trkpt lat="49.19203" lon="4.04186">
        <ele>126.5</ele>
        <time>2026-08-20T08:58:30Z</time>
      </trkpt>
      <trkpt lat="49.192" lon="4.04192">
        <ele>126.8</ele>
        <time>2026-08-20T08:58:35Z</time>
      </trkpt>
      <trkpt lat="49.19197" lon="4.04197">
        <ele>127.1</ele>
        <time>2026-08-20T08:58:40Z</time>
      </trkpt>
      <trkpt lat="49.19193" lon="4.04207">
        <ele>127.5</ele>
        <time>2026-08-20T08:58:46Z</time>
      </trkpt>
      <trkpt lat="49.19189" lon="4.04212">
        <ele>127.9</ele>
        <time>2026-08-20T08:58:51Z</time>
      </trkpt>
      <trkpt lat="49.19183" lon="4.04218">
        <ele>128.4</ele>
        <time>2026-08-20T08:58:56Z</time>
      </trkpt>
      <trkpt lat="49.19177" lon="4.04226">
        <ele>129</ele>
        <time>2026-08-20T08:59:02Z</time>
      </trkpt>
      <trkpt lat="49.19173" lon="4.0423">
        <ele>129.4</ele>
        <time>2026-08-20T08:59:07Z</time>
      </trkpt>
      <trkpt lat="49.19169" lon="4.04234">
        <ele>129.8</ele>
        <time>2026-08-20T08:59:12Z</time>
      </trkpt>
      <trkpt lat="49.19164" lon="4.04243">
        <ele>130.2</ele>
        <time>2026-08-20T08:59:18Z</time>
      </trkpt>
      <trkpt lat="49.19161" lon="4.04248">
        <ele>130.3</ele>
        <time>2026-08-20T08:59:23Z</time>
      </trkpt>
      <trkpt lat="49.19155" lon="4.04254">
        <ele>130.7</ele>
        <time>2026-08-20T08:59:28Z</time>
      </trkpt>
      <trkpt lat="49.19149" lon="4.04263">
        <ele>130.9</ele>
        <time>2026-08-20T08:59:34Z</time>
      </trkpt>
      <trkpt lat="49.19146" lon="4.04271">
        <ele>131.1</ele>
        <time>2026-08-20T08:59:39Z</time>
      </trkpt>
      <trkpt lat="49.19143" lon="4.04278">
        <ele>131.2</ele>
        <time>2026-08-20T08:59:44Z</time>
      </trkpt>
      <trkpt lat="49.19137" lon="4.04285">
        <ele>131.5</ele>
        <time>2026-08-20T08:59:50Z</time>
      </trkpt>
      <trkpt lat="49.19133" lon="4.04291">
        <ele>131.7</ele>
        <time>2026-08-20T08:59:55Z</time>
      </trkpt>
      <trkpt lat="49.19131" lon="4.043">
        <ele>131.8</ele>
        <time>2026-08-20T09:00:00Z</time>
      </trkpt>
      <trkpt lat="49.19126" lon="4.04307">
        <ele>132.1</ele>
        <time>2026-08-20T09:00:06Z</time>
      </trkpt>
      <trkpt lat="49.19121" lon="4.04316">
        <ele>132.4</ele>
        <time>2026-08-20T09:00:11Z</time>
      </trkpt>
      <trkpt lat="49.19117" lon="4.04324">
        <ele>132.6</ele>
        <time>2026-08-20T09:00:16Z</time>
      </trkpt>
      <trkpt lat="49.19112" lon="4.04331">
        <ele>132.9</ele>
        <time>2026-08-20T09:00:22Z</time>
      </trkpt>
      <trkpt lat="49.1911" lon="4.04331">
        <ele>133.1</ele>
        <time>2026-08-20T09:00:27Z</time>
      </trkpt>
      <trkpt lat="49.19106" lon="4.04333">
        <ele>133.4</ele>
        <time>2026-08-20T09:00:32Z</time>
      </trkpt>
      <trkpt lat="49.19102" lon="4.04337">
        <ele>133.6</ele>
        <time>2026-08-20T09:00:38Z</time>
      </trkpt>
      <trkpt lat="49.19098" lon="4.04343">
        <ele>133.9</ele>
        <time>2026-08-20T09:00:43Z</time>
      </trkpt>
      <trkpt lat="49.19092" lon="4.0435">
        <ele>134.3</ele>
        <time>2026-08-20T09:00:48Z</time>
      </trkpt>
      <trkpt lat="49.19087" lon="4.04357">
        <ele>134.7</ele>
        <time>2026-08-20T09:00:54Z</time>
      </trkpt>
      <trkpt lat="49.19081" lon="4.04362">
        <ele>135.2</ele>
        <time>2026-08-20T09:00:59Z</time>
      </trkpt>
      <trkpt lat="49.19076" lon="4.04365">
        <ele>135.6</ele>
        <time>2026-08-20T09:01:04Z</time>
      </trkpt>
      <trkpt lat="49.19073" lon="4.0437">
        <ele>135.9</ele>
        <time>2026-08-20T09:01:10Z</time>
      </trkpt>
      <trkpt lat="49.19071" lon="4.04375">
        <ele>136.1</ele>
        <time>2026-08-20T09:01:15Z</time>
      </trkpt>
      <trkpt lat="49.19066" lon="4.04378">
        <ele>136.6</ele>
        <time>2026-08-20T09:01:20Z</time>
      </trkpt>
      <trkpt lat="49.19058" lon="4.04382">
        <ele>137.3</ele>
        <time>2026-08-20T09:01:26Z</time>
      </trkpt>
      <trkpt lat="49.19053" lon="4.04384">
        <ele>137.8</ele>
        <time>2026-08-20T09:01:31Z</time>
      </trkpt>
      <trkpt lat="49.19048" lon="4.04387">
        <ele>138.2</ele>
        <time>2026-08-20T09:01:36Z</time>
      </trkpt>
      <trkpt lat="49.19041" lon="4.04392">
        <ele>138.9</ele>
        <time>2026-08-20T09:01:42Z</time>
      </trkpt>
      <trkpt lat="49.19039" lon="4.04394">
        <ele>139.1</ele>
        <time>2026-08-20T09:01:47Z</time>
      </trkpt>
      <trkpt lat="49.19037" lon="4.04395">
        <ele>139.3</ele>
        <time>2026-08-20T09:01:52Z</time>
      </trkpt>
      <trkpt lat="49.19032" lon="4.04402">
        <ele>139.8</ele>
        <time>2026-08-20T09:01:58Z</time>
      </trkpt>
      <trkpt lat="49.19027" lon="4.04406">
        <ele>140.3</ele>
        <time>2026-08-20T09:02:03Z</time>
      </trkpt>
      <trkpt lat="49.19023" lon="4.04411">
        <ele>140.7</ele>
        <time>2026-08-20T09:02:08Z</time>
      </trkpt>
      <trkpt lat="49.19018" lon="4.04419">
        <ele>141.2</ele>
        <time>2026-08-20T09:02:14Z</time>
      </trkpt>
      <trkpt lat="49.19014" lon="4.04425">
        <ele>141.5</ele>
        <time>2026-08-20T09:02:19Z</time>
      </trkpt>
      <trkpt lat="49.19009" lon="4.04431">
        <ele>141.9</ele>
        <time>2026-08-20T09:02:24Z</time>
      </trkpt>
      <trkpt lat="49.19005" lon="4.04439">
        <ele>142.2</ele>
        <time>2026-08-20T09:02:30Z</time>
      </trkpt>
      <trkpt lat="49.19002" lon="4.04443">
        <ele>142.5</ele>
        <time>2026-08-20T09:02:35Z</time>
      </trkpt>
      <trkpt lat="49.19002" lon="4.04443">
        <ele>142.5</ele>
        <time>2026-08-20T09:02:40Z</time>
      </trkpt>
      <trkpt lat="49.18999" lon="4.04447">
        <ele>142.7</ele>
        <time>2026-08-20T09:02:46Z</time>
      </trkpt>
      <trkpt lat="49.18995" lon="4.04454">
        <ele>142.8</ele>
        <time>2026-08-20T09:02:51Z</time>
      </trkpt>
      <trkpt lat="49.18991" lon="4.0446">
        <ele>142.9</ele>
        <time>2026-08-20T09:02:56Z</time>
      </trkpt>
      <trkpt lat="49.18987" lon="4.04467">
        <ele>143.1</ele>
        <time>2026-08-20T09:03:02Z</time>
      </trkpt>
      <trkpt lat="49.18983" lon="4.04472">
        <ele>143.2</ele>
        <time>2026-08-20T09:03:07Z</time>
      </trkpt>
      <trkpt lat="49.1898" lon="4.04477">
        <ele>143.3</ele>
        <time>2026-08-20T09:03:12Z</time>
      </trkpt>
      <trkpt lat="49.18976" lon="4.04484">
        <ele>143.5</ele>
        <time>2026-08-20T09:03:18Z</time>
      </trkpt>
      <trkpt lat="49.18972" lon="4.0449">
        <ele>143.7</ele>
        <time>2026-08-20T09:03:23Z</time>
      </trkpt>
      <trkpt lat="49.18969" lon="4.04497">
        <ele>143.9</ele>
        <time>2026-08-20T09:03:28Z</time>
      </trkpt>
      <trkpt lat="49.18963" lon="4.04504">
        <ele>144.2</ele>
        <time>2026-08-20T09:03:34Z</time>
      </trkpt>
      <trkpt lat="49.18961" lon="4.04509">
        <ele>144.4</ele>
        <time>2026-08-20T09:03:39Z</time>
      </trkpt>
      <trkpt lat="49.18957" lon="4.04513">
        <ele>144.7</ele>
        <time>2026-08-20T09:03:44Z</time>
      </trkpt>
      <trkpt lat="49.18953" lon="4.04521">
        <ele>145</ele>
        <time>2026-08-20T09:03:50Z</time>
      </trkpt>
      <trkpt lat="49.1895" lon="4.04526">
        <ele>145.2</ele>
        <time>2026-08-20T09:03:55Z</time>
      </trkpt>
      <trkpt lat="49.18946" lon="4.04532">
        <ele>145.5</ele>
        <time>2026-08-20T09:04:00Z</time>
      </trkpt>
      <trkpt lat="49.18941" lon="4.04539">
        <ele>145.9</ele>
        <time>2026-08-20T09:04:06Z</time>
      </trkpt>
      <trkpt lat="49.18937" lon="4.04544">
        <ele>146.2</ele>
        <time>2026-08-20T09:04:11Z</time>
      </trkpt>
      <trkpt lat="49.18934" lon="4.0455">
        <ele>146.4</ele>
        <time>2026-08-20T09:04:16Z</time>
      </trkpt>
      <trkpt lat="49.1893" lon="4.04556">
        <ele>146.8</ele>
        <time>2026-08-20T09:04:22Z</time>
      </trkpt>
      <trkpt lat="49.18926" lon="4.04563">
        <ele>147.1</ele>
        <time>2026-08-20T09:04:27Z</time>
      </trkpt>
      <trkpt lat="49.18922" lon="4.0457">
        <ele>147.5</ele>
        <time>2026-08-20T09:04:32Z</time>
      </trkpt>
      <trkpt lat="49.18917" lon="4.04577">
        <ele>147.9</ele>
        <time>2026-08-20T09:04:38Z</time>
      </trkpt>
      <trkpt lat="49.18913" lon="4.04583">
        <ele>148.2</ele>
        <time>2026-08-20T09:04:43Z</time>
      </trkpt>
      <trkpt lat="49.18909" lon="4.0459">
        <ele>148.2</ele>
        <time>2026-08-20T09:04:48Z</time>
      </trkpt>
      <trkpt lat="49.18905" lon="4.04598">
        <ele>148.2</ele>
        <time>2026-08-20T09:04:54Z</time>
      </trkpt>
      <trkpt lat="49.18901" lon="4.04604">
        <ele>148.3</ele>
        <time>2026-08-20T09:04:59Z</time>
      </trkpt>
      <trkpt lat="49.18897" lon="4.04611">
        <ele>148.4</ele>
        <time>2026-08-20T09:05:04Z</time>
      </trkpt>
      <trkpt lat="49.18892" lon="4.04618">
        <ele>148.5</ele>
        <time>2026-08-20T09:05:10Z</time>
      </trkpt>
      <trkpt lat="49.18889" lon="4.04625">
        <ele>148.5</ele>
        <time>2026-08-20T09:05:15Z</time>
      </trkpt>
      <trkpt lat="49.18887" lon="4.04627">
        <ele>148.6</ele>
        <time>2026-08-20T09:05:20Z</time>
      </trkpt>
      <trkpt lat="49.18882" lon="4.04633">
        <ele>148.7</ele>
        <time>2026-08-20T09:05:26Z</time>
      </trkpt>
      <trkpt lat="49.18878" lon="4.0464">
        <ele>148.8</ele>
        <time>2026-08-20T09:05:31Z</time>
      </trkpt>
      <trkpt lat="49.18874" lon="4.04648">
        <ele>148.9</ele>
        <time>2026-08-20T09:05:36Z</time>
      </trkpt>
      <trkpt lat="49.18869" lon="4.04656">
        <ele>149</ele>
        <time>2026-08-20T09:05:42Z</time>
      </trkpt>
      <trkpt lat="49.18865" lon="4.04663">
        <ele>149.2</ele>
        <time>2026-08-20T09:05:47Z</time>
      </trkpt>
      <trkpt lat="49.18861" lon="4.0467">
        <ele>149.3</ele>
        <time>2026-08-20T09:05:52Z</time>
      </trkpt>
      <trkpt lat="49.18855" lon="4.04678">
        <ele>149.5</ele>
        <time>2026-08-20T09:05:58Z</time>
      </trkpt>
      <trkpt lat="49.18852" lon="4.04684">
        <ele>149.5</ele>
        <time>2026-08-20T09:06:03Z</time>
      </trkpt>
      <trkpt lat="49.18851" lon="4.04687">
        <ele>149.5</ele>
        <time>2026-08-20T09:06:08Z</time>
      </trkpt>
      <trkpt lat="49.18846" lon="4.04694">
        <ele>149.8</ele>
        <time>2026-08-20T09:06:14Z</time>
      </trkpt>
      <trkpt lat="49.18842" lon="4.04702">
        <ele>149.9</ele>
        <time>2026-08-20T09:06:19Z</time>
      </trkpt>
      <trkpt lat="49.18839" lon="4.04707">
        <ele>150.1</ele>
        <time>2026-08-20T09:06:24Z</time>
      </trkpt>
      <trkpt lat="49.18837" lon="4.0471">
        <ele>150.2</ele>
        <time>2026-08-20T09:06:30Z</time>
      </trkpt>
      <trkpt lat="49.18837" lon="4.0471">
        <ele>150.2</ele>
        <time>2026-08-20T09:06:35Z</time>
      </trkpt>
      <trkpt lat="49.18837" lon="4.0471">
        <ele>150.2</ele>
        <time>2026-08-20T09:06:40Z</time>
      </trkpt>
      <trkpt lat="49.18835" lon="4.04713">
        <ele>150.3</ele>
        <time>2026-08-20T09:06:46Z</time>
      </trkpt>
      <trkpt lat="49.18834" lon="4.04715">
        <ele>150.4</ele>
        <time>2026-08-20T09:06:51Z</time>
      </trkpt>
      <trkpt lat="49.18834" lon="4.04716">
        <ele>150.4</ele>
        <time>2026-08-20T09:06:56Z</time>
      </trkpt>
      <trkpt lat="49.1883" lon="4.04722">
        <ele>150.5</ele>
        <time>2026-08-20T09:07:02Z</time>
      </trkpt>
      <trkpt lat="49.18828" lon="4.04725">
        <ele>150.6</ele>
        <time>2026-08-20T09:07:07Z</time>
      </trkpt>
      <trkpt lat="49.18827" lon="4.04726">
        <ele>150.6</ele>
        <time>2026-08-20T09:07:12Z</time>
      </trkpt>
      <trkpt lat="49.18827" lon="4.04727">
        <ele>150.6</ele>
        <time>2026-08-20T09:07:18Z</time>
      </trkpt>
      <trkpt lat="49.18824" lon="4.04732">
        <ele>150.7</ele>
        <time>2026-08-20T09:07:23Z</time>
      </trkpt>
      <trkpt lat="49.18824" lon="4.04733">
        <ele>150.7</ele>
        <time>2026-08-20T09:07:28Z</time>
      </trkpt>
      <trkpt lat="49.18823" lon="4.04735">
        <ele>150.7</ele>
        <time>2026-08-20T09:07:34Z</time>
      </trkpt>
      <trkpt lat="49.1882" lon="4.04738">
        <ele>150.8</ele>
        <time>2026-08-20T09:07:39Z</time>
      </trkpt>
      <trkpt lat="49.18816" lon="4.04746">
        <ele>150.9</ele>
        <time>2026-08-20T09:07:44Z</time>
      </trkpt>
      <trkpt lat="49.18811" lon="4.04753">
        <ele>151</ele>
        <time>2026-08-20T09:07:50Z</time>
      </trkpt>
      <trkpt lat="49.18807" lon="4.04759">
        <ele>151</ele>
        <time>2026-08-20T09:07:55Z</time>
      </trkpt>
      <trkpt lat="49.18804" lon="4.04765">
        <ele>150.9</ele>
        <time>2026-08-20T09:08:00Z</time>
      </trkpt>
      <trkpt lat="49.18798" lon="4.04774">
        <ele>151</ele>
        <time>2026-08-20T09:08:06Z</time>
      </trkpt>
      <trkpt lat="49.18795" lon="4.04781">
        <ele>150.9</ele>
        <time>2026-08-20T09:08:11Z</time>
      </trkpt>
      <trkpt lat="49.18791" lon="4.04787">
        <ele>150.9</ele>
        <time>2026-08-20T09:08:16Z</time>
      </trkpt>
      <trkpt lat="49.18786" lon="4.04795">
        <ele>151</ele>
        <time>2026-08-20T09:08:22Z</time>
      </trkpt>
      <trkpt lat="49.18782" lon="4.04801">
        <ele>151</ele>
        <time>2026-08-20T09:08:27Z</time>
      </trkpt>
      <trkpt lat="49.18779" lon="4.04809">
        <ele>150.9</ele>
        <time>2026-08-20T09:08:32Z</time>
      </trkpt>
      <trkpt lat="49.18774" lon="4.04818">
        <ele>151</ele>
        <time>2026-08-20T09:08:38Z</time>
      </trkpt>
      <trkpt lat="49.18771" lon="4.04823">
        <ele>151</ele>
        <time>2026-08-20T09:08:43Z</time>
      </trkpt>
      <trkpt lat="49.18767" lon="4.0483">
        <ele>151.1</ele>
        <time>2026-08-20T09:08:48Z</time>
      </trkpt>
      <trkpt lat="49.18762" lon="4.04838">
        <ele>151</ele>
        <time>2026-08-20T09:08:54Z</time>
      </trkpt>
      <trkpt lat="49.18758" lon="4.04845">
        <ele>150.9</ele>
        <time>2026-08-20T09:08:59Z</time>
      </trkpt>
      <trkpt lat="49.18755" lon="4.04851">
        <ele>150.7</ele>
        <time>2026-08-20T09:09:04Z</time>
      </trkpt>
      <trkpt lat="49.18749" lon="4.04859">
        <ele>150.5</ele>
        <time>2026-08-20T09:09:10Z</time>
      </trkpt>
      <trkpt lat="49.18745" lon="4.04866">
        <ele>150.2</ele>
        <time>2026-08-20T09:09:15Z</time>
      </trkpt>
      <trkpt lat="49.18741" lon="4.04873">
        <ele>149.9</ele>
        <time>2026-08-20T09:09:20Z</time>
      </trkpt>
      <trkpt lat="49.18737" lon="4.04882">
        <ele>149.6</ele>
        <time>2026-08-20T09:09:26Z</time>
      </trkpt>
      <trkpt lat="49.18733" lon="4.04888">
        <ele>149.4</ele>
        <time>2026-08-20T09:09:31Z</time>
      </trkpt>
      <trkpt lat="49.18728" lon="4.04895">
        <ele>149.2</ele>
        <time>2026-08-20T09:09:36Z</time>
      </trkpt>
      <trkpt lat="49.18724" lon="4.04903">
        <ele>149</ele>
        <time>2026-08-20T09:09:42Z</time>
      </trkpt>
      <trkpt lat="49.1872" lon="4.0491">
        <ele>148.8</ele>
        <time>2026-08-20T09:09:47Z</time>
      </trkpt>
      <trkpt lat="49.18716" lon="4.04917">
        <ele>148.6</ele>
        <time>2026-08-20T09:09:52Z</time>
      </trkpt>
      <trkpt lat="49.18711" lon="4.04925">
        <ele>148.5</ele>
        <time>2026-08-20T09:09:58Z</time>
      </trkpt>
      <trkpt lat="49.18707" lon="4.0493">
        <ele>148.5</ele>
        <time>2026-08-20T09:10:03Z</time>
      </trkpt>
      <trkpt lat="49.18704" lon="4.04936">
        <ele>148.4</ele>
        <time>2026-08-20T09:10:08Z</time>
      </trkpt>
      <trkpt lat="49.18699" lon="4.04944">
        <ele>148.3</ele>
        <time>2026-08-20T09:10:14Z</time>
      </trkpt>
      <trkpt lat="49.18695" lon="4.04952">
        <ele>148.2</ele>
        <time>2026-08-20T09:10:19Z</time>
      </trkpt>
      <trkpt lat="49.18692" lon="4.04956">
        <ele>148.2</ele>
        <time>2026-08-20T09:10:24Z</time>
      </trkpt>
      <trkpt lat="49.18692" lon="4.04956">
        <ele>148.2</ele>
        <time>2026-08-20T09:10:30Z</time>
      </trkpt>
      <trkpt lat="49.18692" lon="4.04956">
        <ele>148.2</ele>
        <time>2026-08-20T09:10:35Z</time>
      </trkpt>
      <trkpt lat="49.18692" lon="4.04956">
        <ele>148.2</ele>
        <time>2026-08-20T09:10:40Z</time>
      </trkpt>
      <trkpt lat="49.18692" lon="4.04956">
        <ele>148.2</ele>
        <time>2026-08-20T09:10:46Z</time>
      </trkpt>
      <trkpt lat="49.18692" lon="4.04956">
        <ele>148.2</ele>
        <time>2026-08-20T09:10:51Z</time>
      </trkpt>
      <trkpt lat="49.18691" lon="4.04959">
        <ele>148.2</ele>
        <time>2026-08-20T09:10:56Z</time>
      </trkpt>
      <trkpt lat="49.18686" lon="4.04968">
        <ele>148.1</ele>
        <time>2026-08-20T09:11:02Z</time>
      </trkpt>
      <trkpt lat="49.18681" lon="4.04975">
        <ele>148.1</ele>
        <time>2026-08-20T09:11:07Z</time>
      </trkpt>
      <trkpt lat="49.18678" lon="4.04982">
        <ele>148</ele>
        <time>2026-08-20T09:11:12Z</time>
      </trkpt>
      <trkpt lat="49.18672" lon="4.0499">
        <ele>148</ele>
        <time>2026-08-20T09:11:18Z</time>
      </trkpt>
      <trkpt lat="49.18668" lon="4.04997">
        <ele>148</ele>
        <time>2026-08-20T09:11:23Z</time>
      </trkpt>
      <trkpt lat="49.18663" lon="4.05004">
        <ele>148.3</ele>
        <time>2026-08-20T09:11:28Z</time>
      </trkpt>
      <trkpt lat="49.1866" lon="4.05012">
        <ele>148.5</ele>
        <time>2026-08-20T09:11:34Z</time>
      </trkpt>
      <trkpt lat="49.18656" lon="4.05018">
        <ele>148.7</ele>
        <time>2026-08-20T09:11:39Z</time>
      </trkpt>
      <trkpt lat="49.18653" lon="4.05024">
        <ele>148.9</ele>
        <time>2026-08-20T09:11:44Z</time>
      </trkpt>
      <trkpt lat="49.18653" lon="4.05024">
        <ele>148.9</ele>
        <time>2026-08-20T09:11:50Z</time>
      </trkpt>
      <trkpt lat="49.18653" lon="4.05024">
        <ele>148.9</ele>
        <time>2026-08-20T09:11:55Z</time>
      </trkpt>
      <trkpt lat="49.18653" lon="4.05024">
        <ele>148.9</ele>
        <time>2026-08-20T09:12:00Z</time>
      </trkpt>
      <trkpt lat="49.18653" lon="4.05024">
        <ele>148.9</ele>
        <time>2026-08-20T09:12:06Z</time>
      </trkpt>
      <trkpt lat="49.1865" lon="4.0503">
        <ele>149.1</ele>
        <time>2026-08-20T09:12:11Z</time>
      </trkpt>
      <trkpt lat="49.18646" lon="4.05036">
        <ele>149.3</ele>
        <time>2026-08-20T09:12:16Z</time>
      </trkpt>
      <trkpt lat="49.18644" lon="4.0504">
        <ele>149.4</ele>
        <time>2026-08-20T09:12:22Z</time>
      </trkpt>
      <trkpt lat="49.18644" lon="4.0504">
        <ele>149.4</ele>
        <time>2026-08-20T09:12:27Z</time>
      </trkpt>
      <trkpt lat="49.18644" lon="4.0504">
        <ele>149.4</ele>
        <time>2026-08-20T09:12:32Z</time>
      </trkpt>
      <trkpt lat="49.18644" lon="4.0504">
        <ele>149.4</ele>
        <time>2026-08-20T09:12:38Z</time>
      </trkpt>
      <trkpt lat="49.18644" lon="4.0504">
        <ele>149.4</ele>
        <time>2026-08-20T09:12:43Z</time>
      </trkpt>
      <trkpt lat="49.18644" lon="4.0504">
        <ele>149.4</ele>
        <time>2026-08-20T09:12:48Z</time>
      </trkpt>
      <trkpt lat="49.1864" lon="4.05048">
        <ele>149.6</ele>
        <time>2026-08-20T09:12:54Z</time>
      </trkpt>
      <trkpt lat="49.18635" lon="4.05056">
        <ele>149.8</ele>
        <time>2026-08-20T09:12:59Z</time>
      </trkpt>
      <trkpt lat="49.18631" lon="4.05063">
        <ele>149.9</ele>
        <time>2026-08-20T09:13:04Z</time>
      </trkpt>
      <trkpt lat="49.18626" lon="4.05073">
        <ele>150.1</ele>
        <time>2026-08-20T09:13:10Z</time>
      </trkpt>
      <trkpt lat="49.18622" lon="4.0508">
        <ele>150.2</ele>
        <time>2026-08-20T09:13:15Z</time>
      </trkpt>
      <trkpt lat="49.18618" lon="4.05087">
        <ele>150.3</ele>
        <time>2026-08-20T09:13:20Z</time>
      </trkpt>
      <trkpt lat="49.18615" lon="4.05095">
        <ele>150.4</ele>
        <time>2026-08-20T09:13:26Z</time>
      </trkpt>
      <trkpt lat="49.18614" lon="4.05096">
        <ele>150.4</ele>
        <time>2026-08-20T09:13:31Z</time>
      </trkpt>
      <trkpt lat="49.18614" lon="4.05096">
        <ele>150.4</ele>
        <time>2026-08-20T09:13:36Z</time>
      </trkpt>
      <trkpt lat="49.1861" lon="4.05103">
        <ele>150.6</ele>
        <time>2026-08-20T09:13:42Z</time>
      </trkpt>
      <trkpt lat="49.18605" lon="4.05111">
        <ele>150.7</ele>
        <time>2026-08-20T09:13:47Z</time>
      </trkpt>
      <trkpt lat="49.18601" lon="4.05119">
        <ele>150.8</ele>
        <time>2026-08-20T09:13:52Z</time>
      </trkpt>
      <trkpt lat="49.18596" lon="4.05128">
        <ele>150.9</ele>
        <time>2026-08-20T09:13:58Z</time>
      </trkpt>
      <trkpt lat="49.18592" lon="4.05136">
        <ele>151</ele>
        <time>2026-08-20T09:14:03Z</time>
      </trkpt>
      <trkpt lat="49.18588" lon="4.05143">
        <ele>151.1</ele>
        <time>2026-08-20T09:14:08Z</time>
      </trkpt>
      <trkpt lat="49.18584" lon="4.05152">
        <ele>151.2</ele>
        <time>2026-08-20T09:14:14Z</time>
      </trkpt>
      <trkpt lat="49.18582" lon="4.05155">
        <ele>151.1</ele>
        <time>2026-08-20T09:14:19Z</time>
      </trkpt>
      <trkpt lat="49.18579" lon="4.0516">
        <ele>151</ele>
        <time>2026-08-20T09:14:24Z</time>
      </trkpt>
      <trkpt lat="49.18575" lon="4.05169">
        <ele>150.7</ele>
        <time>2026-08-20T09:14:30Z</time>
      </trkpt>
      <trkpt lat="49.1857" lon="4.05176">
        <ele>150.4</ele>
        <time>2026-08-20T09:14:35Z</time>
      </trkpt>
      <trkpt lat="49.18567" lon="4.05183">
        <ele>150.2</ele>
        <time>2026-08-20T09:14:40Z</time>
      </trkpt>
      <trkpt lat="49.18562" lon="4.05192">
        <ele>149.8</ele>
        <time>2026-08-20T09:14:46Z</time>
      </trkpt>
      <trkpt lat="49.18557" lon="4.05199">
        <ele>149.5</ele>
        <time>2026-08-20T09:14:51Z</time>
      </trkpt>
      <trkpt lat="49.18552" lon="4.05204">
        <ele>149.2</ele>
        <time>2026-08-20T09:14:56Z</time>
      </trkpt>
      <trkpt lat="49.18549" lon="4.0521">
        <ele>148.9</ele>
        <time>2026-08-20T09:15:02Z</time>
      </trkpt>
      <trkpt lat="49.18547" lon="4.0521">
        <ele>148.9</ele>
        <time>2026-08-20T09:15:07Z</time>
      </trkpt>
      <trkpt lat="49.18541" lon="4.05214">
        <ele>148.6</ele>
        <time>2026-08-20T09:15:12Z</time>
      </trkpt>
      <trkpt lat="49.18534" lon="4.0522">
        <ele>148.2</ele>
        <time>2026-08-20T09:15:18Z</time>
      </trkpt>
      <trkpt lat="49.18529" lon="4.05224">
        <ele>147.9</ele>
        <time>2026-08-20T09:15:23Z</time>
      </trkpt>
      <trkpt lat="49.18523" lon="4.05229">
        <ele>147.5</ele>
        <time>2026-08-20T09:15:28Z</time>
      </trkpt>
      <trkpt lat="49.18516" lon="4.05234">
        <ele>147.1</ele>
        <time>2026-08-20T09:15:34Z</time>
      </trkpt>
      <trkpt lat="49.1851" lon="4.05239">
        <ele>146.7</ele>
        <time>2026-08-20T09:15:39Z</time>
      </trkpt>
      <trkpt lat="49.18505" lon="4.05244">
        <ele>146.4</ele>
        <time>2026-08-20T09:15:44Z</time>
      </trkpt>
      <trkpt lat="49.18498" lon="4.0525">
        <ele>145.8</ele>
        <time>2026-08-20T09:15:50Z</time>
      </trkpt>
      <trkpt lat="49.18492" lon="4.05255">
        <ele>145.2</ele>
        <time>2026-08-20T09:15:55Z</time>
      </trkpt>
      <trkpt lat="49.18491" lon="4.05256">
        <ele>145.1</ele>
        <time>2026-08-20T09:16:00Z</time>
      </trkpt>
      <trkpt lat="49.18488" lon="4.0526">
        <ele>144.8</ele>
        <time>2026-08-20T09:16:06Z</time>
      </trkpt>
      <trkpt lat="49.18483" lon="4.05264">
        <ele>144.3</ele>
        <time>2026-08-20T09:16:11Z</time>
      </trkpt>
      <trkpt lat="49.18478" lon="4.05268">
        <ele>143.8</ele>
        <time>2026-08-20T09:16:16Z</time>
      </trkpt>
      <trkpt lat="49.18475" lon="4.0527">
        <ele>143.6</ele>
        <time>2026-08-20T09:16:22Z</time>
      </trkpt>
      <trkpt lat="49.18471" lon="4.05269">
        <ele>143.3</ele>
        <time>2026-08-20T09:16:27Z</time>
      </trkpt>
      <trkpt lat="49.18469" lon="4.05268">
        <ele>143.1</ele>
        <time>2026-08-20T09:16:32Z</time>
      </trkpt>
      <trkpt lat="49.18468" lon="4.05268">
        <ele>143</ele>
        <time>2026-08-20T09:16:38Z</time>
      </trkpt>
      <trkpt lat="49.1847" lon="4.0527">
        <ele>143.2</ele>
        <time>2026-08-20T09:16:43Z</time>
      </trkpt>
      <trkpt lat="49.18471" lon="4.05275">
        <ele>143.2</ele>
        <time>2026-08-20T09:16:48Z</time>
      </trkpt>
      <trkpt lat="49.18466" lon="4.0528">
        <ele>142.7</ele>
        <time>2026-08-20T09:16:54Z</time>
      </trkpt>
      <trkpt lat="49.18461" lon="4.05286">
        <ele>142.3</ele>
        <time>2026-08-20T09:16:59Z</time>
      </trkpt>
      <trkpt lat="49.18457" lon="4.05291">
        <ele>141.9</ele>
        <time>2026-08-20T09:17:04Z</time>
      </trkpt>
      <trkpt lat="49.18452" lon="4.05298">
        <ele>141.5</ele>
        <time>2026-08-20T09:17:10Z</time>
      </trkpt>
      <trkpt lat="49.18448" lon="4.05304">
        <ele>141.1</ele>
        <time>2026-08-20T09:17:15Z</time>
      </trkpt>
      <trkpt lat="49.18446" lon="4.05308">
        <ele>141</ele>
        <time>2026-08-20T09:17:20Z</time>
      </trkpt>
      <trkpt lat="49.18446" lon="4.05308">
        <ele>141</ele>
        <time>2026-08-20T09:17:26Z</time>
      </trkpt>
      <trkpt lat="49.18446" lon="4.05308">
        <ele>141</ele>
        <time>2026-08-20T09:17:31Z</time>
      </trkpt>
      <trkpt lat="49.18446" lon="4.05308">
        <ele>141</ele>
        <time>2026-08-20T09:17:36Z</time>
      </trkpt>
      <trkpt lat="49.18446" lon="4.05308">
        <ele>141</ele>
        <time>2026-08-20T09:17:42Z</time>
      </trkpt>
      <trkpt lat="49.18446" lon="4.05308">
        <ele>141</ele>
        <time>2026-08-20T09:17:47Z</time>
      </trkpt>
      <trkpt lat="49.18446" lon="4.05308">
        <ele>141</ele>
        <time>2026-08-20T09:17:52Z</time>
      </trkpt>
      <trkpt lat="49.18446" lon="4.05308">
        <ele>141</ele>
        <time>2026-08-20T09:17:58Z</time>
      </trkpt>
      <trkpt lat="49.18446" lon="4.05308">
        <ele>141</ele>
        <time>2026-08-20T09:18:03Z</time>
      </trkpt>
      <trkpt lat="49.18446" lon="4.05308">
        <ele>141</ele>
        <time>2026-08-20T09:18:08Z</time>
      </trkpt>
      <trkpt lat="49.18442" lon="4.05314">
        <ele>140.7</ele>
        <time>2026-08-20T09:18:14Z</time>
      </trkpt>
      <trkpt lat="49.18437" lon="4.0532">
        <ele>140.3</ele>
        <time>2026-08-20T09:18:19Z</time>
      </trkpt>
      <trkpt lat="49.18433" lon="4.05328">
        <ele>140</ele>
        <time>2026-08-20T09:18:24Z</time>
      </trkpt>
      <trkpt lat="49.18428" lon="4.05336">
        <ele>139.7</ele>
        <time>2026-08-20T09:18:30Z</time>
      </trkpt>
      <trkpt lat="49.18425" lon="4.05342">
        <ele>139.5</ele>
        <time>2026-08-20T09:18:35Z</time>
      </trkpt>
      <trkpt lat="49.18421" lon="4.05349">
        <ele>139.3</ele>
        <time>2026-08-20T09:18:40Z</time>
      </trkpt>
      <trkpt lat="49.18416" lon="4.05357">
        <ele>139</ele>
        <time>2026-08-20T09:18:46Z</time>
      </trkpt>
      <trkpt lat="49.18412" lon="4.05364">
        <ele>138.7</ele>
        <time>2026-08-20T09:18:51Z</time>
      </trkpt>
      <trkpt lat="49.18409" lon="4.05372">
        <ele>138.5</ele>
        <time>2026-08-20T09:18:56Z</time>
      </trkpt>
      <trkpt lat="49.18404" lon="4.0538">
        <ele>138.2</ele>
        <time>2026-08-20T09:19:02Z</time>
      </trkpt>
      <trkpt lat="49.18401" lon="4.05386">
        <ele>137.9</ele>
        <time>2026-08-20T09:19:07Z</time>
      </trkpt>
      <trkpt lat="49.18396" lon="4.05394">
        <ele>137.6</ele>
        <time>2026-08-20T09:19:12Z</time>
      </trkpt>
      <trkpt lat="49.18392" lon="4.05402">
        <ele>137.3</ele>
        <time>2026-08-20T09:19:18Z</time>
      </trkpt>
      <trkpt lat="49.18389" lon="4.05407">
        <ele>137</ele>
        <time>2026-08-20T09:19:23Z</time>
      </trkpt>
      <trkpt lat="49.18384" lon="4.05415">
        <ele>136.7</ele>
        <time>2026-08-20T09:19:28Z</time>
      </trkpt>
      <trkpt lat="49.1838" lon="4.05423">
        <ele>136.3</ele>
        <time>2026-08-20T09:19:34Z</time>
      </trkpt>
      <trkpt lat="49.18375" lon="4.05431">
        <ele>135.8</ele>
        <time>2026-08-20T09:19:39Z</time>
      </trkpt>
      <trkpt lat="49.18371" lon="4.05439">
        <ele>135.4</ele>
        <time>2026-08-20T09:19:44Z</time>
      </trkpt>
      <trkpt lat="49.18366" lon="4.05448">
        <ele>135</ele>
        <time>2026-08-20T09:19:50Z</time>
      </trkpt>
      <trkpt lat="49.18362" lon="4.05455">
        <ele>134.6</ele>
        <time>2026-08-20T09:19:55Z</time>
      </trkpt>
      <trkpt lat="49.18356" lon="4.0546">
        <ele>134.1</ele>
        <time>2026-08-20T09:20:00Z</time>
      </trkpt>
      <trkpt lat="49.18351" lon="4.05467">
        <ele>133.7</ele>
        <time>2026-08-20T09:20:06Z</time>
      </trkpt>
      <trkpt lat="49.1835" lon="4.05469">
        <ele>133.6</ele>
        <time>2026-08-20T09:20:11Z</time>
      </trkpt>
      <trkpt lat="49.18349" lon="4.05468">
        <ele>133.5</ele>
        <time>2026-08-20T09:20:16Z</time>
      </trkpt>
      <trkpt lat="49.18346" lon="4.05475">
        <ele>133.2</ele>
        <time>2026-08-20T09:20:22Z</time>
      </trkpt>
      <trkpt lat="49.18343" lon="4.05482">
        <ele>132.9</ele>
        <time>2026-08-20T09:20:27Z</time>
      </trkpt>
      <trkpt lat="49.18342" lon="4.05491">
        <ele>132.7</ele>
        <time>2026-08-20T09:20:32Z</time>
      </trkpt>
      <trkpt lat="49.18338" lon="4.05499">
        <ele>132.3</ele>
        <time>2026-08-20T09:20:38Z</time>
      </trkpt>
      <trkpt lat="49.18333" lon="4.05505">
        <ele>132</ele>
        <time>2026-08-20T09:20:43Z</time>
      </trkpt>
      <trkpt lat="49.18328" lon="4.0551">
        <ele>131.7</ele>
        <time>2026-08-20T09:20:48Z</time>
      </trkpt>
      <trkpt lat="49.18322" lon="4.05515">
        <ele>131.3</ele>
        <time>2026-08-20T09:20:54Z</time>
      </trkpt>
      <trkpt lat="49.18316" lon="4.0552">
        <ele>131</ele>
        <time>2026-08-20T09:20:59Z</time>
      </trkpt>
      <trkpt lat="49.18311" lon="4.05526">
        <ele>130.7</ele>
        <time>2026-08-20T09:21:04Z</time>
      </trkpt>
      <trkpt lat="49.18305" lon="4.05531">
        <ele>130.3</ele>
        <time>2026-08-20T09:21:10Z</time>
      </trkpt>
      <trkpt lat="49.18299" lon="4.05534">
        <ele>129.9</ele>
        <time>2026-08-20T09:21:15Z</time>
      </trkpt>
      <trkpt lat="49.18293" lon="4.05538">
        <ele>129.6</ele>
        <time>2026-08-20T09:21:20Z</time>
      </trkpt>
      <trkpt lat="49.18286" lon="4.05543">
        <ele>129.2</ele>
        <time>2026-08-20T09:21:26Z</time>
      </trkpt>
      <trkpt lat="49.18282" lon="4.05548">
        <ele>128.9</ele>
        <time>2026-08-20T09:21:31Z</time>
      </trkpt>
      <trkpt lat="49.18277" lon="4.0555">
        <ele>128.6</ele>
        <time>2026-08-20T09:21:36Z</time>
      </trkpt>
      <trkpt lat="49.1827" lon="4.05552">
        <ele>128.2</ele>
        <time>2026-08-20T09:21:42Z</time>
      </trkpt>
      <trkpt lat="49.18264" lon="4.05553">
        <ele>127.8</ele>
        <time>2026-08-20T09:21:47Z</time>
      </trkpt>
      <trkpt lat="49.18258" lon="4.05555">
        <ele>127.5</ele>
        <time>2026-08-20T09:21:52Z</time>
      </trkpt>
      <trkpt lat="49.1825" lon="4.0556">
        <ele>127</ele>
        <time>2026-08-20T09:21:58Z</time>
      </trkpt>
      <trkpt lat="49.18247" lon="4.05566">
        <ele>126.8</ele>
        <time>2026-08-20T09:22:03Z</time>
      </trkpt>
      <trkpt lat="49.18242" lon="4.05572">
        <ele>126.5</ele>
        <time>2026-08-20T09:22:08Z</time>
      </trkpt>
      <trkpt lat="49.18239" lon="4.05583">
        <ele>126.3</ele>
        <time>2026-08-20T09:22:14Z</time>
      </trkpt>
      <trkpt lat="49.18236" lon="4.05589">
        <ele>126.1</ele>
        <time>2026-08-20T09:22:19Z</time>
      </trkpt>
      <trkpt lat="49.18236" lon="4.05589">
        <ele>126.1</ele>
        <time>2026-08-20T09:22:24Z</time>
      </trkpt>
      <trkpt lat="49.18237" lon="4.0559">
        <ele>126.1</ele>
        <time>2026-08-20T09:22:30Z</time>
      </trkpt>
      <trkpt lat="49.18237" lon="4.0559">
        <ele>126.1</ele>
        <time>2026-08-20T09:22:35Z</time>
      </trkpt>
      <trkpt lat="49.18237" lon="4.0559">
        <ele>126.1</ele>
        <time>2026-08-20T09:22:40Z</time>
      </trkpt>
      <trkpt lat="49.18237" lon="4.0559">
        <ele>126.1</ele>
        <time>2026-08-20T09:22:46Z</time>
      </trkpt>
      <trkpt lat="49.18237" lon="4.0559">
        <ele>126.1</ele>
        <time>2026-08-20T09:22:51Z</time>
      </trkpt>
      <trkpt lat="49.18237" lon="4.0559">
        <ele>126.1</ele>
        <time>2026-08-20T09:22:56Z</time>
      </trkpt>
      <trkpt lat="49.18237" lon="4.0559">
        <ele>126.1</ele>
        <time>2026-08-20T09:23:02Z</time>
      </trkpt>
      <trkpt lat="49.18235" lon="4.05595">
        <ele>126</ele>
        <time>2026-08-20T09:23:07Z</time>
      </trkpt>
      <trkpt lat="49.18235" lon="4.05595">
        <ele>126</ele>
        <time>2026-08-20T09:23:12Z</time>
      </trkpt>
      <trkpt lat="49.18235" lon="4.05595">
        <ele>126</ele>
        <time>2026-08-20T09:23:18Z</time>
      </trkpt>
      <trkpt lat="49.18235" lon="4.05595">
        <ele>126</ele>
        <time>2026-08-20T09:23:23Z</time>
      </trkpt>
      <trkpt lat="49.18235" lon="4.05595">
        <ele>126</ele>
        <time>2026-08-20T09:23:28Z</time>
      </trkpt>
      <trkpt lat="49.18235" lon="4.05595">
        <ele>126</ele>
        <time>2026-08-20T09:23:34Z</time>
      </trkpt>
      <trkpt lat="49.18235" lon="4.05595">
        <ele>126</ele>
        <time>2026-08-20T09:23:39Z</time>
      </trkpt>
      <trkpt lat="49.18235" lon="4.05595">
        <ele>126</ele>
        <time>2026-08-20T09:23:44Z</time>
      </trkpt>
      <trkpt lat="49.18235" lon="4.05595">
        <ele>126</ele>
        <time>2026-08-20T09:23:50Z</time>
      </trkpt>
      <trkpt lat="49.18235" lon="4.05595">
        <ele>126</ele>
        <time>2026-08-20T09:23:55Z</time>
      </trkpt>
      <trkpt lat="49.18235" lon="4.05595">
        <ele>126</ele>
        <time>2026-08-20T09:24:00Z</time>
      </trkpt>
      <trkpt lat="49.18234" lon="4.05601">
        <ele>125.8</ele>
        <time>2026-08-20T09:24:06Z</time>
      </trkpt>
      <trkpt lat="49.18232" lon="4.05609">
        <ele>125.6</ele>
        <time>2026-08-20T09:24:11Z</time>
      </trkpt>
      <trkpt lat="49.18229" lon="4.05617">
        <ele>125.3</ele>
        <time>2026-08-20T09:24:16Z</time>
      </trkpt>
      <trkpt lat="49.18229" lon="4.05618">
        <ele>125.3</ele>
        <time>2026-08-20T09:24:22Z</time>
      </trkpt>
      <trkpt lat="49.18228" lon="4.05623">
        <ele>125.2</ele>
        <time>2026-08-20T09:24:27Z</time>
      </trkpt>
      <trkpt lat="49.18226" lon="4.05631">
        <ele>125</ele>
        <time>2026-08-20T09:24:32Z</time>
      </trkpt>
      <trkpt lat="49.18223" lon="4.05642">
        <ele>124.7</ele>
        <time>2026-08-20T09:24:38Z</time>
      </trkpt>
      <trkpt lat="49.1822" lon="4.05649">
        <ele>124.4</ele>
        <time>2026-08-20T09:24:43Z</time>
      </trkpt>
      <trkpt lat="49.1822" lon="4.05652">
        <ele>124.4</ele>
        <time>2026-08-20T09:24:48Z</time>
      </trkpt>
      <trkpt lat="49.1822" lon="4.05652">
        <ele>124.4</ele>
        <time>2026-08-20T09:24:54Z</time>
      </trkpt>
      <trkpt lat="49.1822" lon="4.05652">
        <ele>124.4</ele>
        <time>2026-08-20T09:24:59Z</time>
      </trkpt>
      <trkpt lat="49.1822" lon="4.05652">
        <ele>124.4</ele>
        <time>2026-08-20T09:25:04Z</time>
      </trkpt>
      <trkpt lat="49.1822" lon="4.05652">
        <ele>124.4</ele>
        <time>2026-08-20T09:25:10Z</time>
      </trkpt>
      <trkpt lat="49.1822" lon="4.05652">
        <ele>124.4</ele>
        <time>2026-08-20T09:25:15Z</time>
      </trkpt>
      <trkpt lat="49.1822" lon="4.05652">
        <ele>124.4</ele>
        <time>2026-08-20T09:25:20Z</time>
      </trkpt>
      <trkpt lat="49.1822" lon="4.05652">
        <ele>124.4</ele>
        <time>2026-08-20T09:25:26Z</time>
      </trkpt>
      <trkpt lat="49.1822" lon="4.05652">
        <ele>124.4</ele>
        <time>2026-08-20T09:25:31Z</time>
      </trkpt>
      <trkpt lat="49.1822" lon="4.05652">
        <ele>124.4</ele>
        <time>2026-08-20T09:25:36Z</time>
      </trkpt>
      <trkpt lat="49.1822" lon="4.05652">
        <ele>124.4</ele>
        <time>2026-08-20T09:25:42Z</time>
      </trkpt>
      <trkpt lat="49.1822" lon="4.05652">
        <ele>124.4</ele>
        <time>2026-08-20T09:25:47Z</time>
      </trkpt>
      <trkpt lat="49.1822" lon="4.05652">
        <ele>124.4</ele>
        <time>2026-08-20T09:25:52Z</time>
      </trkpt>
      <trkpt lat="49.1822" lon="4.05652">
        <ele>124.4</ele>
        <time>2026-08-20T09:25:58Z</time>
      </trkpt>
      <trkpt lat="49.18215" lon="4.0567">
        <ele>123.9</ele>
        <time>2026-08-20T09:26:03Z</time>
      </trkpt>
      <trkpt lat="49.18212" lon="4.05678">
        <ele>123.6</ele>
        <time>2026-08-20T09:26:08Z</time>
      </trkpt>
      <trkpt lat="49.18209" lon="4.05688">
        <ele>123.4</ele>
        <time>2026-08-20T09:26:14Z</time>
      </trkpt>
      <trkpt lat="49.18209" lon="4.05689">
        <ele>123.4</ele>
        <time>2026-08-20T09:26:19Z</time>
      </trkpt>
      <trkpt lat="49.18209" lon="4.05689">
        <ele>123.4</ele>
        <time>2026-08-20T09:26:24Z</time>
      </trkpt>
      <trkpt lat="49.18209" lon="4.05689">
        <ele>123.4</ele>
        <time>2026-08-20T09:26:30Z</time>
      </trkpt>
      <trkpt lat="49.18209" lon="4.05689">
        <ele>123.4</ele>
        <time>2026-08-20T09:26:35Z</time>
      </trkpt>
      <trkpt lat="49.18209" lon="4.05689">
        <ele>123.4</ele>
        <time>2026-08-20T09:26:40Z</time>
      </trkpt>
      <trkpt lat="49.18209" lon="4.05689">
        <ele>123.4</ele>
        <time>2026-08-20T09:26:46Z</time>
      </trkpt>
      <trkpt lat="49.18209" lon="4.05689">
        <ele>123.4</ele>
        <time>2026-08-20T09:26:51Z</time>
      </trkpt>
      <trkpt lat="49.18209" lon="4.05689">
        <ele>123.4</ele>
        <time>2026-08-20T09:26:56Z</time>
      </trkpt>
      <trkpt lat="49.18207" lon="4.05696">
        <ele>123.2</ele>
        <time>2026-08-20T09:27:02Z</time>
      </trkpt>
      <trkpt lat="49.18204" lon="4.05705">
        <ele>123</ele>
        <time>2026-08-20T09:27:07Z</time>
      </trkpt>
      <trkpt lat="49.18202" lon="4.05713">
        <ele>122.9</ele>
        <time>2026-08-20T09:27:12Z</time>
      </trkpt>
      <trkpt lat="49.18199" lon="4.05723">
        <ele>122.7</ele>
        <time>2026-08-20T09:27:18Z</time>
      </trkpt>
      <trkpt lat="49.18197" lon="4.05732">
        <ele>122.5</ele>
        <time>2026-08-20T09:27:23Z</time>
      </trkpt>
      <trkpt lat="49.18194" lon="4.0574">
        <ele>122.4</ele>
        <time>2026-08-20T09:27:28Z</time>
      </trkpt>
      <trkpt lat="49.18191" lon="4.05751">
        <ele>122.1</ele>
        <time>2026-08-20T09:27:34Z</time>
      </trkpt>
      <trkpt lat="49.18188" lon="4.05759">
        <ele>121.8</ele>
        <time>2026-08-20T09:27:39Z</time>
      </trkpt>
      <trkpt lat="49.18186" lon="4.05768">
        <ele>121.5</ele>
        <time>2026-08-20T09:27:44Z</time>
      </trkpt>
      <trkpt lat="49.18185" lon="4.05775">
        <ele>121.3</ele>
        <time>2026-08-20T09:27:50Z</time>
      </trkpt>
      <trkpt lat="49.18186" lon="4.05778">
        <ele>121.3</ele>
        <time>2026-08-20T09:27:55Z</time>
      </trkpt>
      <trkpt lat="49.18185" lon="4.05781">
        <ele>121.1</ele>
        <time>2026-08-20T09:28:00Z</time>
      </trkpt>
      <trkpt lat="49.18186" lon="4.05787">
        <ele>121</ele>
        <time>2026-08-20T09:28:06Z</time>
      </trkpt>
      <trkpt lat="49.18185" lon="4.05788">
        <ele>121</ele>
        <time>2026-08-20T09:28:11Z</time>
      </trkpt>
      <trkpt lat="49.18185" lon="4.05788">
        <ele>121</ele>
        <time>2026-08-20T09:28:16Z</time>
      </trkpt>
      <trkpt lat="49.18185" lon="4.05788">
        <ele>121</ele>
        <time>2026-08-20T09:28:22Z</time>
      </trkpt>
      <trkpt lat="49.18185" lon="4.05788">
        <ele>121</ele>
        <time>2026-08-20T09:28:27Z</time>
      </trkpt>
      <trkpt lat="49.18177" lon="4.05776">
        <ele>120.9</ele>
        <time>2026-08-20T09:28:32Z</time>
      </trkpt>
      <trkpt lat="49.18177" lon="4.05776">
        <ele>120.9</ele>
        <time>2026-08-20T09:28:38Z</time>
      </trkpt>
      <trkpt lat="49.18177" lon="4.05776">
        <ele>120.9</ele>
        <time>2026-08-20T09:28:43Z</time>
      </trkpt>
      <trkpt lat="49.18177" lon="4.05776">
        <ele>120.9</ele>
        <time>2026-08-20T09:28:48Z</time>
      </trkpt>
      <trkpt lat="49.18177" lon="4.05776">
        <ele>120.9</ele>
        <time>2026-08-20T09:28:54Z</time>
      </trkpt>
      <trkpt lat="49.18174" lon="4.05779">
        <ele>120.7</ele>
        <time>2026-08-20T09:28:59Z</time>
      </trkpt>
      <trkpt lat="49.1817" lon="4.05782">
        <ele>120.4</ele>
        <time>2026-08-20T09:29:04Z</time>
      </trkpt>
      <trkpt lat="49.18164" lon="4.05788">
        <ele>120</ele>
        <time>2026-08-20T09:29:10Z</time>
      </trkpt>
      <trkpt lat="49.18159" lon="4.05793">
        <ele>119.7</ele>
        <time>2026-08-20T09:29:15Z</time>
      </trkpt>
      <trkpt lat="49.18154" lon="4.05798">
        <ele>119.4</ele>
        <time>2026-08-20T09:29:20Z</time>
      </trkpt>
      <trkpt lat="49.18148" lon="4.05803">
        <ele>119.1</ele>
        <time>2026-08-20T09:29:26Z</time>
      </trkpt>
      <trkpt lat="49.18143" lon="4.05807">
        <ele>118.8</ele>
        <time>2026-08-20T09:29:31Z</time>
      </trkpt>
      <trkpt lat="49.18137" lon="4.05812">
        <ele>118.4</ele>
        <time>2026-08-20T09:29:36Z</time>
      </trkpt>
      <trkpt lat="49.1813" lon="4.05817">
        <ele>118.1</ele>
        <time>2026-08-20T09:29:42Z</time>
      </trkpt>
      <trkpt lat="49.18126" lon="4.05821">
        <ele>117.8</ele>
        <time>2026-08-20T09:29:47Z</time>
      </trkpt>
      <trkpt lat="49.1812" lon="4.05827">
        <ele>117.5</ele>
        <time>2026-08-20T09:29:52Z</time>
      </trkpt>
      <trkpt lat="49.18114" lon="4.05832">
        <ele>117.1</ele>
        <time>2026-08-20T09:29:58Z</time>
      </trkpt>
      <trkpt lat="49.18109" lon="4.05836">
        <ele>116.9</ele>
        <time>2026-08-20T09:30:03Z</time>
      </trkpt>
      <trkpt lat="49.18104" lon="4.0584">
        <ele>116.7</ele>
        <time>2026-08-20T09:30:08Z</time>
      </trkpt>
      <trkpt lat="49.18098" lon="4.05844">
        <ele>116.4</ele>
        <time>2026-08-20T09:30:14Z</time>
      </trkpt>
      <trkpt lat="49.18092" lon="4.05849">
        <ele>116.1</ele>
        <time>2026-08-20T09:30:19Z</time>
      </trkpt>
      <trkpt lat="49.18087" lon="4.05853">
        <ele>115.9</ele>
        <time>2026-08-20T09:30:24Z</time>
      </trkpt>
      <trkpt lat="49.18081" lon="4.05859">
        <ele>115.7</ele>
        <time>2026-08-20T09:30:30Z</time>
      </trkpt>
      <trkpt lat="49.18076" lon="4.05863">
        <ele>115.6</ele>
        <time>2026-08-20T09:30:35Z</time>
      </trkpt>
      <trkpt lat="49.1807" lon="4.05867">
        <ele>115.5</ele>
        <time>2026-08-20T09:30:40Z</time>
      </trkpt>
      <trkpt lat="49.18064" lon="4.05873">
        <ele>115.4</ele>
        <time>2026-08-20T09:30:46Z</time>
      </trkpt>
      <trkpt lat="49.18058" lon="4.05877">
        <ele>115.3</ele>
        <time>2026-08-20T09:30:51Z</time>
      </trkpt>
      <trkpt lat="49.18053" lon="4.05881">
        <ele>115.3</ele>
        <time>2026-08-20T09:30:56Z</time>
      </trkpt>
      <trkpt lat="49.18052" lon="4.05881">
        <ele>115.3</ele>
        <time>2026-08-20T09:31:02Z</time>
      </trkpt>
      <trkpt lat="49.18048" lon="4.05886">
        <ele>115.2</ele>
        <time>2026-08-20T09:31:07Z</time>
      </trkpt>
      <trkpt lat="49.18043" lon="4.0589">
        <ele>115.2</ele>
        <time>2026-08-20T09:31:12Z</time>
      </trkpt>
      <trkpt lat="49.18037" lon="4.05895">
        <ele>115.1</ele>
        <time>2026-08-20T09:31:18Z</time>
      </trkpt>
      <trkpt lat="49.18032" lon="4.059">
        <ele>115.1</ele>
        <time>2026-08-20T09:31:23Z</time>
      </trkpt>
      <trkpt lat="49.18027" lon="4.05904">
        <ele>115</ele>
        <time>2026-08-20T09:31:28Z</time>
      </trkpt>
      <trkpt lat="49.18021" lon="4.05909">
        <ele>115</ele>
        <time>2026-08-20T09:31:34Z</time>
      </trkpt>
      <trkpt lat="49.18016" lon="4.05913">
        <ele>115</ele>
        <time>2026-08-20T09:31:39Z</time>
      </trkpt>
      <trkpt lat="49.1801" lon="4.05918">
        <ele>115</ele>
        <time>2026-08-20T09:31:44Z</time>
      </trkpt>
      <trkpt lat="49.18003" lon="4.05923">
        <ele>115</ele>
        <time>2026-08-20T09:31:50Z</time>
      </trkpt>
      <trkpt lat="49.17997" lon="4.05928">
        <ele>115</ele>
        <time>2026-08-20T09:31:55Z</time>
      </trkpt>
      <trkpt lat="49.17992" lon="4.05933">
        <ele>115.1</ele>
        <time>2026-08-20T09:32:00Z</time>
      </trkpt>
      <trkpt lat="49.17985" lon="4.05937">
        <ele>115.2</ele>
        <time>2026-08-20T09:32:06Z</time>
      </trkpt>
      <trkpt lat="49.1798" lon="4.05942">
        <ele>115.3</ele>
        <time>2026-08-20T09:32:11Z</time>
      </trkpt>
      <trkpt lat="49.17975" lon="4.05947">
        <ele>115.4</ele>
        <time>2026-08-20T09:32:16Z</time>
      </trkpt>
      <trkpt lat="49.17969" lon="4.05952">
        <ele>115.5</ele>
        <time>2026-08-20T09:32:22Z</time>
      </trkpt>
      <trkpt lat="49.17964" lon="4.05956">
        <ele>115.6</ele>
        <time>2026-08-20T09:32:27Z</time>
      </trkpt>
      <trkpt lat="49.17958" lon="4.05961">
        <ele>115.8</ele>
        <time>2026-08-20T09:32:32Z</time>
      </trkpt>
      <trkpt lat="49.17951" lon="4.05966">
        <ele>115.9</ele>
        <time>2026-08-20T09:32:38Z</time>
      </trkpt>
      <trkpt lat="49.17945" lon="4.0597">
        <ele>116.1</ele>
        <time>2026-08-20T09:32:43Z</time>
      </trkpt>
      <trkpt lat="49.17941" lon="4.05974">
        <ele>116.2</ele>
        <time>2026-08-20T09:32:48Z</time>
      </trkpt>
      <trkpt lat="49.17934" lon="4.0598">
        <ele>116.4</ele>
        <time>2026-08-20T09:32:54Z</time>
      </trkpt>
      <trkpt lat="49.17933" lon="4.05983">
        <ele>116.4</ele>
        <time>2026-08-20T09:32:59Z</time>
      </trkpt>
      <trkpt lat="49.17933" lon="4.05984">
        <ele>116.5</ele>
        <time>2026-08-20T09:33:04Z</time>
      </trkpt>
      <trkpt lat="49.17933" lon="4.05984">
        <ele>116.5</ele>
        <time>2026-08-20T09:33:10Z</time>
      </trkpt>
      <trkpt lat="49.17933" lon="4.05984">
        <ele>116.5</ele>
        <time>2026-08-20T09:33:15Z</time>
      </trkpt>
      <trkpt lat="49.17933" lon="4.05984">
        <ele>116.5</ele>
        <time>2026-08-20T09:33:20Z</time>
      </trkpt>
      <trkpt lat="49.17933" lon="4.05984">
        <ele>116.5</ele>
        <time>2026-08-20T09:33:26Z</time>
      </trkpt>
      <trkpt lat="49.17933" lon="4.05984">
        <ele>116.5</ele>
        <time>2026-08-20T09:33:31Z</time>
      </trkpt>
      <trkpt lat="49.17933" lon="4.05984">
        <ele>116.5</ele>
        <time>2026-08-20T09:33:36Z</time>
      </trkpt>
      <trkpt lat="49.17933" lon="4.05984">
        <ele>116.5</ele>
        <time>2026-08-20T09:33:42Z</time>
      </trkpt>
      <trkpt lat="49.17933" lon="4.05984">
        <ele>116.5</ele>
        <time>2026-08-20T09:33:47Z</time>
      </trkpt>
      <trkpt lat="49.17933" lon="4.05984">
        <ele>116.5</ele>
        <time>2026-08-20T09:33:52Z</time>
      </trkpt>
      <trkpt lat="49.17928" lon="4.05987">
        <ele>116.6</ele>
        <time>2026-08-20T09:33:58Z</time>
      </trkpt>
      <trkpt lat="49.17924" lon="4.0599">
        <ele>116.7</ele>
        <time>2026-08-20T09:34:03Z</time>
      </trkpt>
      <trkpt lat="49.17919" lon="4.05994">
        <ele>116.9</ele>
        <time>2026-08-20T09:34:08Z</time>
      </trkpt>
      <trkpt lat="49.17912" lon="4.05999">
        <ele>117</ele>
        <time>2026-08-20T09:34:14Z</time>
      </trkpt>
      <trkpt lat="49.17907" lon="4.06004">
        <ele>117</ele>
        <time>2026-08-20T09:34:19Z</time>
      </trkpt>
      <trkpt lat="49.17903" lon="4.06008">
        <ele>117.1</ele>
        <time>2026-08-20T09:34:24Z</time>
      </trkpt>
      <trkpt lat="49.17897" lon="4.06013">
        <ele>117.1</ele>
        <time>2026-08-20T09:34:30Z</time>
      </trkpt>
      <trkpt lat="49.17893" lon="4.06016">
        <ele>117.1</ele>
        <time>2026-08-20T09:34:35Z</time>
      </trkpt>
      <trkpt lat="49.17888" lon="4.06021">
        <ele>117.1</ele>
        <time>2026-08-20T09:34:40Z</time>
      </trkpt>
      <trkpt lat="49.17882" lon="4.06025">
        <ele>117.1</ele>
        <time>2026-08-20T09:34:46Z</time>
      </trkpt>
      <trkpt lat="49.17877" lon="4.06029">
        <ele>117</ele>
        <time>2026-08-20T09:34:51Z</time>
      </trkpt>
      <trkpt lat="49.17872" lon="4.06033">
        <ele>117</ele>
        <time>2026-08-20T09:34:56Z</time>
      </trkpt>
      <trkpt lat="49.17865" lon="4.06038">
        <ele>116.9</ele>
        <time>2026-08-20T09:35:02Z</time>
      </trkpt>
      <trkpt lat="49.1786" lon="4.06041">
        <ele>116.8</ele>
        <time>2026-08-20T09:35:07Z</time>
      </trkpt>
      <trkpt lat="49.17854" lon="4.06047">
        <ele>116.7</ele>
        <time>2026-08-20T09:35:12Z</time>
      </trkpt>
      <trkpt lat="49.17848" lon="4.06051">
        <ele>116.6</ele>
        <time>2026-08-20T09:35:18Z</time>
      </trkpt>
      <trkpt lat="49.17844" lon="4.06054">
        <ele>116.5</ele>
        <time>2026-08-20T09:35:23Z</time>
      </trkpt>
      <trkpt lat="49.17839" lon="4.06059">
        <ele>116.4</ele>
        <time>2026-08-20T09:35:28Z</time>
      </trkpt>
      <trkpt lat="49.17833" lon="4.06064">
        <ele>116.2</ele>
        <time>2026-08-20T09:35:34Z</time>
      </trkpt>
      <trkpt lat="49.17827" lon="4.06069">
        <ele>116.1</ele>
        <time>2026-08-20T09:35:39Z</time>
      </trkpt>
      <trkpt lat="49.17821" lon="4.06074">
        <ele>116</ele>
        <time>2026-08-20T09:35:44Z</time>
      </trkpt>
      <trkpt lat="49.17814" lon="4.0608">
        <ele>115.8</ele>
        <time>2026-08-20T09:35:50Z</time>
      </trkpt>
      <trkpt lat="49.17809" lon="4.06085">
        <ele>115.7</ele>
        <time>2026-08-20T09:35:55Z</time>
      </trkpt>
      <trkpt lat="49.17804" lon="4.0609">
        <ele>115.6</ele>
        <time>2026-08-20T09:36:00Z</time>
      </trkpt>
      <trkpt lat="49.17798" lon="4.06095">
        <ele>115.6</ele>
        <time>2026-08-20T09:36:06Z</time>
      </trkpt>
      <trkpt lat="49.17793" lon="4.06099">
        <ele>115.5</ele>
        <time>2026-08-20T09:36:11Z</time>
      </trkpt>
      <trkpt lat="49.17788" lon="4.06103">
        <ele>115.5</ele>
        <time>2026-08-20T09:36:16Z</time>
      </trkpt>
      <trkpt lat="49.17783" lon="4.06107">
        <ele>115.4</ele>
        <time>2026-08-20T09:36:22Z</time>
      </trkpt>
      <trkpt lat="49.17778" lon="4.06109">
        <ele>115.3</ele>
        <time>2026-08-20T09:36:27Z</time>
      </trkpt>
      <trkpt lat="49.17775" lon="4.06112">
        <ele>115.3</ele>
        <time>2026-08-20T09:36:32Z</time>
      </trkpt>
      <trkpt lat="49.17772" lon="4.06116">
        <ele>115.3</ele>
        <time>2026-08-20T09:36:38Z</time>
      </trkpt>
      <trkpt lat="49.17768" lon="4.0612">
        <ele>115.2</ele>
        <time>2026-08-20T09:36:43Z</time>
      </trkpt>
      <trkpt lat="49.17764" lon="4.06124">
        <ele>115.2</ele>
        <time>2026-08-20T09:36:48Z</time>
      </trkpt>
      <trkpt lat="49.17759" lon="4.06128">
        <ele>115.1</ele>
        <time>2026-08-20T09:36:54Z</time>
      </trkpt>
      <trkpt lat="49.17755" lon="4.06133">
        <ele>115.1</ele>
        <time>2026-08-20T09:36:59Z</time>
      </trkpt>
      <trkpt lat="49.17751" lon="4.06139">
        <ele>115</ele>
        <time>2026-08-20T09:37:04Z</time>
      </trkpt>
      <trkpt lat="49.17746" lon="4.06147">
        <ele>114.8</ele>
        <time>2026-08-20T09:37:10Z</time>
      </trkpt>
      <trkpt lat="49.17744" lon="4.06154">
        <ele>114.7</ele>
        <time>2026-08-20T09:37:15Z</time>
      </trkpt>
      <trkpt lat="49.17742" lon="4.06162">
        <ele>114.6</ele>
        <time>2026-08-20T09:37:20Z</time>
      </trkpt>
      <trkpt lat="49.17739" lon="4.06171">
        <ele>114.4</ele>
        <time>2026-08-20T09:37:26Z</time>
      </trkpt>
      <trkpt lat="49.17736" lon="4.0618">
        <ele>114.1</ele>
        <time>2026-08-20T09:37:31Z</time>
      </trkpt>
      <trkpt lat="49.17733" lon="4.06189">
        <ele>113.8</ele>
        <time>2026-08-20T09:37:36Z</time>
      </trkpt>
      <trkpt lat="49.1773" lon="4.06197">
        <ele>113.5</ele>
        <time>2026-08-20T09:37:42Z</time>
      </trkpt>
      <trkpt lat="49.1773" lon="4.06201">
        <ele>113.4</ele>
        <time>2026-08-20T09:37:47Z</time>
      </trkpt>
      <trkpt lat="49.17728" lon="4.06209">
        <ele>113.2</ele>
        <time>2026-08-20T09:37:52Z</time>
      </trkpt>
      <trkpt lat="49.17724" lon="4.06219">
        <ele>112.9</ele>
        <time>2026-08-20T09:37:58Z</time>
      </trkpt>
      <trkpt lat="49.17722" lon="4.06227">
        <ele>112.7</ele>
        <time>2026-08-20T09:38:03Z</time>
      </trkpt>
      <trkpt lat="49.17719" lon="4.06235">
        <ele>112.5</ele>
        <time>2026-08-20T09:38:08Z</time>
      </trkpt>
      <trkpt lat="49.17716" lon="4.06246">
        <ele>112.2</ele>
        <time>2026-08-20T09:38:14Z</time>
      </trkpt>
      <trkpt lat="49.17714" lon="4.06254">
        <ele>112.1</ele>
        <time>2026-08-20T09:38:19Z</time>
      </trkpt>
      <trkpt lat="49.17711" lon="4.06263">
        <ele>112</ele>
        <time>2026-08-20T09:38:24Z</time>
      </trkpt>
      <trkpt lat="49.17708" lon="4.06273">
        <ele>111.9</ele>
        <time>2026-08-20T09:38:30Z</time>
      </trkpt>
      <trkpt lat="49.17705" lon="4.06282">
        <ele>111.7</ele>
        <time>2026-08-20T09:38:35Z</time>
      </trkpt>
      <trkpt lat="49.17703" lon="4.06289">
        <ele>111.7</ele>
        <time>2026-08-20T09:38:40Z</time>
      </trkpt>
      <trkpt lat="49.17701" lon="4.06299">
        <ele>111.6</ele>
        <time>2026-08-20T09:38:46Z</time>
      </trkpt>
      <trkpt lat="49.17698" lon="4.06308">
        <ele>111.5</ele>
        <time>2026-08-20T09:38:51Z</time>
      </trkpt>
      <trkpt lat="49.17695" lon="4.06316">
        <ele>111.4</ele>
        <time>2026-08-20T09:38:56Z</time>
      </trkpt>
      <trkpt lat="49.17692" lon="4.06326">
        <ele>111.3</ele>
        <time>2026-08-20T09:39:02Z</time>
      </trkpt>
      <trkpt lat="49.1769" lon="4.06335">
        <ele>111.3</ele>
        <time>2026-08-20T09:39:07Z</time>
      </trkpt>
      <trkpt lat="49.17687" lon="4.06343">
        <ele>111.1</ele>
        <time>2026-08-20T09:39:12Z</time>
      </trkpt>
      <trkpt lat="49.17683" lon="4.06352">
        <ele>111</ele>
        <time>2026-08-20T09:39:18Z</time>
      </trkpt>
      <trkpt lat="49.17681" lon="4.0636">
        <ele>110.9</ele>
        <time>2026-08-20T09:39:23Z</time>
      </trkpt>
      <trkpt lat="49.17678" lon="4.06369">
        <ele>110.7</ele>
        <time>2026-08-20T09:39:28Z</time>
      </trkpt>
      <trkpt lat="49.17676" lon="4.06375">
        <ele>110.6</ele>
        <time>2026-08-20T09:39:34Z</time>
      </trkpt>
      <trkpt lat="49.17676" lon="4.06376">
        <ele>110.6</ele>
        <time>2026-08-20T09:39:39Z</time>
      </trkpt>
      <trkpt lat="49.17676" lon="4.06376">
        <ele>110.6</ele>
        <time>2026-08-20T09:39:44Z</time>
      </trkpt>
      <trkpt lat="49.17676" lon="4.06376">
        <ele>110.6</ele>
        <time>2026-08-20T09:39:50Z</time>
      </trkpt>
      <trkpt lat="49.17676" lon="4.06376">
        <ele>110.6</ele>
        <time>2026-08-20T09:39:55Z</time>
      </trkpt>
      <trkpt lat="49.17676" lon="4.06376">
        <ele>110.6</ele>
        <time>2026-08-20T09:40:00Z</time>
      </trkpt>
      <trkpt lat="49.17676" lon="4.06376">
        <ele>110.6</ele>
        <time>2026-08-20T09:40:06Z</time>
      </trkpt>
      <trkpt lat="49.17676" lon="4.06376">
        <ele>110.6</ele>
        <time>2026-08-20T09:40:11Z</time>
      </trkpt>
      <trkpt lat="49.17676" lon="4.06376">
        <ele>110.6</ele>
        <time>2026-08-20T09:40:16Z</time>
      </trkpt>
      <trkpt lat="49.17676" lon="4.06376">
        <ele>110.6</ele>
        <time>2026-08-20T09:40:22Z</time>
      </trkpt>
      <trkpt lat="49.17676" lon="4.06376">
        <ele>110.6</ele>
        <time>2026-08-20T09:40:27Z</time>
      </trkpt>
      <trkpt lat="49.17676" lon="4.06376">
        <ele>110.6</ele>
        <time>2026-08-20T09:40:32Z</time>
      </trkpt>
      <trkpt lat="49.17676" lon="4.06376">
        <ele>110.6</ele>
        <time>2026-08-20T09:40:38Z</time>
      </trkpt>
      <trkpt lat="49.17676" lon="4.06376">
        <ele>110.6</ele>
        <time>2026-08-20T09:40:43Z</time>
      </trkpt>
      <trkpt lat="49.17676" lon="4.06376">
        <ele>110.6</ele>
        <time>2026-08-20T09:40:48Z</time>
      </trkpt>
      <trkpt lat="49.17674" lon="4.06379">
        <ele>110.5</ele>
        <time>2026-08-20T09:40:54Z</time>
      </trkpt>
      <trkpt lat="49.17673" lon="4.06385">
        <ele>110.5</ele>
        <time>2026-08-20T09:40:59Z</time>
      </trkpt>
      <trkpt lat="49.17671" lon="4.0639">
        <ele>110.4</ele>
        <time>2026-08-20T09:41:04Z</time>
      </trkpt>
      <trkpt lat="49.1767" lon="4.06398">
        <ele>110.3</ele>
        <time>2026-08-20T09:41:10Z</time>
      </trkpt>
      <trkpt lat="49.17668" lon="4.06405">
        <ele>110.2</ele>
        <time>2026-08-20T09:41:15Z</time>
      </trkpt>
      <trkpt lat="49.17666" lon="4.0641">
        <ele>110.1</ele>
        <time>2026-08-20T09:41:20Z</time>
      </trkpt>
      <trkpt lat="49.17664" lon="4.06417">
        <ele>110</ele>
        <time>2026-08-20T09:41:26Z</time>
      </trkpt>
      <trkpt lat="49.17662" lon="4.06424">
        <ele>110</ele>
        <time>2026-08-20T09:41:31Z</time>
      </trkpt>
      <trkpt lat="49.1766" lon="4.06431">
        <ele>109.9</ele>
        <time>2026-08-20T09:41:36Z</time>
      </trkpt>
      <trkpt lat="49.17657" lon="4.0644">
        <ele>109.8</ele>
        <time>2026-08-20T09:41:42Z</time>
      </trkpt>
      <trkpt lat="49.17655" lon="4.06447">
        <ele>109.8</ele>
        <time>2026-08-20T09:41:47Z</time>
      </trkpt>
      <trkpt lat="49.17653" lon="4.06455">
        <ele>109.7</ele>
        <time>2026-08-20T09:41:52Z</time>
      </trkpt>
      <trkpt lat="49.17649" lon="4.06464">
        <ele>109.6</ele>
        <time>2026-08-20T09:41:58Z</time>
      </trkpt>
      <trkpt lat="49.17647" lon="4.06473">
        <ele>109.6</ele>
        <time>2026-08-20T09:42:03Z</time>
      </trkpt>
      <trkpt lat="49.17645" lon="4.06479">
        <ele>109.5</ele>
        <time>2026-08-20T09:42:08Z</time>
      </trkpt>
      <trkpt lat="49.17642" lon="4.06489">
        <ele>109.4</ele>
        <time>2026-08-20T09:42:14Z</time>
      </trkpt>
      <trkpt lat="49.17639" lon="4.06498">
        <ele>109.4</ele>
        <time>2026-08-20T09:42:19Z</time>
      </trkpt>
      <trkpt lat="49.17636" lon="4.06507">
        <ele>109.4</ele>
        <time>2026-08-20T09:42:24Z</time>
      </trkpt>
      <trkpt lat="49.17632" lon="4.06518">
        <ele>109.5</ele>
        <time>2026-08-20T09:42:30Z</time>
      </trkpt>
      <trkpt lat="49.1763" lon="4.06525">
        <ele>109.6</ele>
        <time>2026-08-20T09:42:35Z</time>
      </trkpt>
      <trkpt lat="49.17628" lon="4.06535">
        <ele>109.7</ele>
        <time>2026-08-20T09:42:40Z</time>
      </trkpt>
      <trkpt lat="49.17626" lon="4.06543">
        <ele>109.7</ele>
        <time>2026-08-20T09:42:46Z</time>
      </trkpt>
      <trkpt lat="49.17623" lon="4.0655">
        <ele>109.8</ele>
        <time>2026-08-20T09:42:51Z</time>
      </trkpt>
      <trkpt lat="49.17621" lon="4.06557">
        <ele>109.9</ele>
        <time>2026-08-20T09:42:56Z</time>
      </trkpt>
      <trkpt lat="49.17619" lon="4.06566">
        <ele>110</ele>
        <time>2026-08-20T09:43:02Z</time>
      </trkpt>
      <trkpt lat="49.17616" lon="4.06573">
        <ele>110.1</ele>
        <time>2026-08-20T09:43:07Z</time>
      </trkpt>
      <trkpt lat="49.17613" lon="4.06581">
        <ele>110.3</ele>
        <time>2026-08-20T09:43:12Z</time>
      </trkpt>
      <trkpt lat="49.17611" lon="4.0659">
        <ele>110.4</ele>
        <time>2026-08-20T09:43:18Z</time>
      </trkpt>
      <trkpt lat="49.17608" lon="4.06598">
        <ele>110.7</ele>
        <time>2026-08-20T09:43:23Z</time>
      </trkpt>
      <trkpt lat="49.17605" lon="4.06607">
        <ele>110.9</ele>
        <time>2026-08-20T09:43:28Z</time>
      </trkpt>
      <trkpt lat="49.17603" lon="4.06616">
        <ele>111.1</ele>
        <time>2026-08-20T09:43:34Z</time>
      </trkpt>
      <trkpt lat="49.17601" lon="4.06624">
        <ele>111.3</ele>
        <time>2026-08-20T09:43:39Z</time>
      </trkpt>
      <trkpt lat="49.17599" lon="4.06631">
        <ele>111.6</ele>
        <time>2026-08-20T09:43:44Z</time>
      </trkpt>
      <trkpt lat="49.17596" lon="4.06642">
        <ele>111.9</ele>
        <time>2026-08-20T09:43:50Z</time>
      </trkpt>
      <trkpt lat="49.17594" lon="4.06649">
        <ele>112.1</ele>
        <time>2026-08-20T09:43:55Z</time>
      </trkpt>
      <trkpt lat="49.1759" lon="4.06657">
        <ele>112.5</ele>
        <time>2026-08-20T09:44:00Z</time>
      </trkpt>
      <trkpt lat="49.17588" lon="4.06665">
        <ele>112.7</ele>
        <time>2026-08-20T09:44:06Z</time>
      </trkpt>
      <trkpt lat="49.17583" lon="4.0667">
        <ele>113.1</ele>
        <time>2026-08-20T09:44:11Z</time>
      </trkpt>
      <trkpt lat="49.17578" lon="4.06669">
        <ele>113.3</ele>
        <time>2026-08-20T09:44:16Z</time>
      </trkpt>
      <trkpt lat="49.17571" lon="4.06665">
        <ele>113.6</ele>
        <time>2026-08-20T09:44:22Z</time>
      </trkpt>
      <trkpt lat="49.17566" lon="4.06661">
        <ele>113.7</ele>
        <time>2026-08-20T09:44:27Z</time>
      </trkpt>
      <trkpt lat="49.17561" lon="4.0666">
        <ele>113.9</ele>
        <time>2026-08-20T09:44:32Z</time>
      </trkpt>
      <trkpt lat="49.17555" lon="4.06655">
        <ele>114.1</ele>
        <time>2026-08-20T09:44:38Z</time>
      </trkpt>
      <trkpt lat="49.1755" lon="4.0665">
        <ele>114.2</ele>
        <time>2026-08-20T09:44:43Z</time>
      </trkpt>
      <trkpt lat="49.17546" lon="4.06649">
        <ele>114.4</ele>
        <time>2026-08-20T09:44:48Z</time>
      </trkpt>
      <trkpt lat="49.17541" lon="4.06645">
        <ele>114.5</ele>
        <time>2026-08-20T09:44:54Z</time>
      </trkpt>
      <trkpt lat="49.17535" lon="4.06642">
        <ele>114.7</ele>
        <time>2026-08-20T09:44:59Z</time>
      </trkpt>
      <trkpt lat="49.1753" lon="4.06637">
        <ele>114.8</ele>
        <time>2026-08-20T09:45:04Z</time>
      </trkpt>
      <trkpt lat="49.17523" lon="4.06634">
        <ele>115.1</ele>
        <time>2026-08-20T09:45:10Z</time>
      </trkpt>
      <trkpt lat="49.17517" lon="4.06629">
        <ele>115.3</ele>
        <time>2026-08-20T09:45:15Z</time>
      </trkpt>
      <trkpt lat="49.17511" lon="4.06625">
        <ele>115.5</ele>
        <time>2026-08-20T09:45:20Z</time>
      </trkpt>
      <trkpt lat="49.17504" lon="4.0662">
        <ele>115.7</ele>
        <time>2026-08-20T09:45:26Z</time>
      </trkpt>
      <trkpt lat="49.17499" lon="4.06616">
        <ele>115.8</ele>
        <time>2026-08-20T09:45:31Z</time>
      </trkpt>
      <trkpt lat="49.17494" lon="4.06613">
        <ele>116.1</ele>
        <time>2026-08-20T09:45:36Z</time>
      </trkpt>
      <trkpt lat="49.17487" lon="4.06609">
        <ele>116.5</ele>
        <time>2026-08-20T09:45:42Z</time>
      </trkpt>
      <trkpt lat="49.17484" lon="4.06605">
        <ele>116.6</ele>
        <time>2026-08-20T09:45:47Z</time>
      </trkpt>
      <trkpt lat="49.17478" lon="4.06602">
        <ele>116.9</ele>
        <time>2026-08-20T09:45:52Z</time>
      </trkpt>
      <trkpt lat="49.17472" lon="4.06598">
        <ele>117.2</ele>
        <time>2026-08-20T09:45:58Z</time>
      </trkpt>
      <trkpt lat="49.17468" lon="4.06597">
        <ele>117.5</ele>
        <time>2026-08-20T09:46:03Z</time>
      </trkpt>
      <trkpt lat="49.17465" lon="4.06594">
        <ele>117.7</ele>
        <time>2026-08-20T09:46:08Z</time>
      </trkpt>
      <trkpt lat="49.17459" lon="4.06589">
        <ele>118</ele>
        <time>2026-08-20T09:46:14Z</time>
      </trkpt>
      <trkpt lat="49.17454" lon="4.06586">
        <ele>118.3</ele>
        <time>2026-08-20T09:46:19Z</time>
      </trkpt>
      <trkpt lat="49.17448" lon="4.06581">
        <ele>118.7</ele>
        <time>2026-08-20T09:46:24Z</time>
      </trkpt>
      <trkpt lat="49.17444" lon="4.06577">
        <ele>118.9</ele>
        <time>2026-08-20T09:46:30Z</time>
      </trkpt>
      <trkpt lat="49.17438" lon="4.06574">
        <ele>119.3</ele>
        <time>2026-08-20T09:46:35Z</time>
      </trkpt>
      <trkpt lat="49.17433" lon="4.06571">
        <ele>119.6</ele>
        <time>2026-08-20T09:46:40Z</time>
      </trkpt>
      <trkpt lat="49.17428" lon="4.06567">
        <ele>119.8</ele>
        <time>2026-08-20T09:46:46Z</time>
      </trkpt>
      <trkpt lat="49.17423" lon="4.06563">
        <ele>120.1</ele>
        <time>2026-08-20T09:46:51Z</time>
      </trkpt>
      <trkpt lat="49.17419" lon="4.0656">
        <ele>120.3</ele>
        <time>2026-08-20T09:46:56Z</time>
      </trkpt>
      <trkpt lat="49.17414" lon="4.06554">
        <ele>120.4</ele>
        <time>2026-08-20T09:47:02Z</time>
      </trkpt>
      <trkpt lat="49.17412" lon="4.06551">
        <ele>120.4</ele>
        <time>2026-08-20T09:47:07Z</time>
      </trkpt>
      <trkpt lat="49.17409" lon="4.06547">
        <ele>120.4</ele>
        <time>2026-08-20T09:47:12Z</time>
      </trkpt>
      <trkpt lat="49.17406" lon="4.06542">
        <ele>120.4</ele>
        <time>2026-08-20T09:47:18Z</time>
      </trkpt>
      <trkpt lat="49.17404" lon="4.06539">
        <ele>120.4</ele>
        <time>2026-08-20T09:47:23Z</time>
      </trkpt>
      <trkpt lat="49.174" lon="4.06535">
        <ele>120.5</ele>
        <time>2026-08-20T09:47:28Z</time>
      </trkpt>
      <trkpt lat="49.17395" lon="4.06529">
        <ele>120.6</ele>
        <time>2026-08-20T09:47:34Z</time>
      </trkpt>
      <trkpt lat="49.17393" lon="4.06525">
        <ele>120.6</ele>
        <time>2026-08-20T09:47:39Z</time>
      </trkpt>
      <trkpt lat="49.1739" lon="4.06521">
        <ele>120.6</ele>
        <time>2026-08-20T09:47:44Z</time>
      </trkpt>
      <trkpt lat="49.17386" lon="4.06515">
        <ele>120.7</ele>
        <time>2026-08-20T09:47:50Z</time>
      </trkpt>
      <trkpt lat="49.17382" lon="4.0651">
        <ele>120.8</ele>
        <time>2026-08-20T09:47:55Z</time>
      </trkpt>
      <trkpt lat="49.17378" lon="4.06505">
        <ele>120.9</ele>
        <time>2026-08-20T09:48:00Z</time>
      </trkpt>
      <trkpt lat="49.17371" lon="4.06499">
        <ele>121.2</ele>
        <time>2026-08-20T09:48:06Z</time>
      </trkpt>
      <trkpt lat="49.17366" lon="4.06493">
        <ele>121.2</ele>
        <time>2026-08-20T09:48:11Z</time>
      </trkpt>
      <trkpt lat="49.17361" lon="4.06489">
        <ele>121.3</ele>
        <time>2026-08-20T09:48:16Z</time>
      </trkpt>
      <trkpt lat="49.17355" lon="4.06485">
        <ele>121.5</ele>
        <time>2026-08-20T09:48:22Z</time>
      </trkpt>
      <trkpt lat="49.1735" lon="4.06485">
        <ele>121.8</ele>
        <time>2026-08-20T09:48:27Z</time>
      </trkpt>
      <trkpt lat="49.17346" lon="4.06489">
        <ele>122.1</ele>
        <time>2026-08-20T09:48:32Z</time>
      </trkpt>
      <trkpt lat="49.17344" lon="4.06495">
        <ele>122.4</ele>
        <time>2026-08-20T09:48:38Z</time>
      </trkpt>
      <trkpt lat="49.17342" lon="4.06501">
        <ele>122.6</ele>
        <time>2026-08-20T09:48:43Z</time>
      </trkpt>
      <trkpt lat="49.17339" lon="4.06509">
        <ele>122.7</ele>
        <time>2026-08-20T09:48:48Z</time>
      </trkpt>
      <trkpt lat="49.17336" lon="4.06517">
        <ele>122.9</ele>
        <time>2026-08-20T09:48:54Z</time>
      </trkpt>
      <trkpt lat="49.17334" lon="4.06524">
        <ele>123</ele>
        <time>2026-08-20T09:48:59Z</time>
      </trkpt>
      <trkpt lat="49.17332" lon="4.06531">
        <ele>123</ele>
        <time>2026-08-20T09:49:04Z</time>
      </trkpt>
      <trkpt lat="49.17329" lon="4.06539">
        <ele>123.1</ele>
        <time>2026-08-20T09:49:10Z</time>
      </trkpt>
      <trkpt lat="49.17327" lon="4.06546">
        <ele>123.2</ele>
        <time>2026-08-20T09:49:15Z</time>
      </trkpt>
      <trkpt lat="49.17324" lon="4.06554">
        <ele>123.2</ele>
        <time>2026-08-20T09:49:20Z</time>
      </trkpt>
      <trkpt lat="49.17321" lon="4.06562">
        <ele>123.3</ele>
        <time>2026-08-20T09:49:26Z</time>
      </trkpt>
      <trkpt lat="49.17319" lon="4.0657">
        <ele>123.3</ele>
        <time>2026-08-20T09:49:31Z</time>
      </trkpt>
      <trkpt lat="49.17317" lon="4.06578">
        <ele>123.4</ele>
        <time>2026-08-20T09:49:36Z</time>
      </trkpt>
      <trkpt lat="49.17314" lon="4.06587">
        <ele>123.4</ele>
        <time>2026-08-20T09:49:42Z</time>
      </trkpt>
      <trkpt lat="49.17311" lon="4.06595">
        <ele>123.3</ele>
        <time>2026-08-20T09:49:47Z</time>
      </trkpt>
      <trkpt lat="49.17309" lon="4.06601">
        <ele>123.2</ele>
        <time>2026-08-20T09:49:52Z</time>
      </trkpt>
      <trkpt lat="49.17307" lon="4.0661">
        <ele>123.1</ele>
        <time>2026-08-20T09:49:58Z</time>
      </trkpt>
      <trkpt lat="49.17305" lon="4.06618">
        <ele>123</ele>
        <time>2026-08-20T09:50:03Z</time>
      </trkpt>
      <trkpt lat="49.17303" lon="4.06624">
        <ele>122.9</ele>
        <time>2026-08-20T09:50:08Z</time>
      </trkpt>
      <trkpt lat="49.173" lon="4.06635">
        <ele>122.7</ele>
        <time>2026-08-20T09:50:14Z</time>
      </trkpt>
      <trkpt lat="49.17297" lon="4.06643">
        <ele>122.5</ele>
        <time>2026-08-20T09:50:19Z</time>
      </trkpt>
      <trkpt lat="49.17296" lon="4.0665">
        <ele>122.4</ele>
        <time>2026-08-20T09:50:24Z</time>
      </trkpt>
      <trkpt lat="49.17293" lon="4.0666">
        <ele>122.2</ele>
        <time>2026-08-20T09:50:30Z</time>
      </trkpt>
      <trkpt lat="49.1729" lon="4.06668">
        <ele>122</ele>
        <time>2026-08-20T09:50:35Z</time>
      </trkpt>
      <trkpt lat="49.17288" lon="4.06677">
        <ele>121.7</ele>
        <time>2026-08-20T09:50:40Z</time>
      </trkpt>
      <trkpt lat="49.17285" lon="4.06687">
        <ele>121.5</ele>
        <time>2026-08-20T09:50:46Z</time>
      </trkpt>
      <trkpt lat="49.17282" lon="4.06695">
        <ele>121.2</ele>
        <time>2026-08-20T09:50:51Z</time>
      </trkpt>
      <trkpt lat="49.1728" lon="4.06703">
        <ele>121</ele>
        <time>2026-08-20T09:50:56Z</time>
      </trkpt>
      <trkpt lat="49.17277" lon="4.06713">
        <ele>120.7</ele>
        <time>2026-08-20T09:51:02Z</time>
      </trkpt>
      <trkpt lat="49.17274" lon="4.06721">
        <ele>120.4</ele>
        <time>2026-08-20T09:51:07Z</time>
      </trkpt>
      <trkpt lat="49.17272" lon="4.06727">
        <ele>120.2</ele>
        <time>2026-08-20T09:51:12Z</time>
      </trkpt>
      <trkpt lat="49.1727" lon="4.06736">
        <ele>119.9</ele>
        <time>2026-08-20T09:51:18Z</time>
      </trkpt>
      <trkpt lat="49.17267" lon="4.06744">
        <ele>119.6</ele>
        <time>2026-08-20T09:51:23Z</time>
      </trkpt>
      <trkpt lat="49.17265" lon="4.0675">
        <ele>119.4</ele>
        <time>2026-08-20T09:51:28Z</time>
      </trkpt>
      <trkpt lat="49.17262" lon="4.0676">
        <ele>118.9</ele>
        <time>2026-08-20T09:51:34Z</time>
      </trkpt>
      <trkpt lat="49.1726" lon="4.06769">
        <ele>118.6</ele>
        <time>2026-08-20T09:51:39Z</time>
      </trkpt>
      <trkpt lat="49.17258" lon="4.06777">
        <ele>118.3</ele>
        <time>2026-08-20T09:51:44Z</time>
      </trkpt>
      <trkpt lat="49.17255" lon="4.06787">
        <ele>117.8</ele>
        <time>2026-08-20T09:51:50Z</time>
      </trkpt>
      <trkpt lat="49.17252" lon="4.06795">
        <ele>117.4</ele>
        <time>2026-08-20T09:51:55Z</time>
      </trkpt>
      <trkpt lat="49.1725" lon="4.06803">
        <ele>117.1</ele>
        <time>2026-08-20T09:52:00Z</time>
      </trkpt>
      <trkpt lat="49.17247" lon="4.06812">
        <ele>116.8</ele>
        <time>2026-08-20T09:52:06Z</time>
      </trkpt>
      <trkpt lat="49.17245" lon="4.0682">
        <ele>116.5</ele>
        <time>2026-08-20T09:52:11Z</time>
      </trkpt>
      <trkpt lat="49.17242" lon="4.06828">
        <ele>116.2</ele>
        <time>2026-08-20T09:52:16Z</time>
      </trkpt>
      <trkpt lat="49.17239" lon="4.06837">
        <ele>116</ele>
        <time>2026-08-20T09:52:22Z</time>
      </trkpt>
      <trkpt lat="49.17235" lon="4.06842">
        <ele>115.9</ele>
        <time>2026-08-20T09:52:27Z</time>
      </trkpt>
      <trkpt lat="49.17232" lon="4.06847">
        <ele>115.8</ele>
        <time>2026-08-20T09:52:32Z</time>
      </trkpt>
      <trkpt lat="49.17226" lon="4.06848">
        <ele>115.8</ele>
        <time>2026-08-20T09:52:38Z</time>
      </trkpt>
      <trkpt lat="49.1722" lon="4.0685">
        <ele>115.7</ele>
        <time>2026-08-20T09:52:43Z</time>
      </trkpt>
      <trkpt lat="49.1722" lon="4.0685">
        <ele>115.7</ele>
        <time>2026-08-20T09:52:48Z</time>
      </trkpt>
      <trkpt lat="49.17221" lon="4.06852">
        <ele>115.7</ele>
        <time>2026-08-20T09:52:54Z</time>
      </trkpt>
      <trkpt lat="49.17221" lon="4.06852">
        <ele>115.7</ele>
        <time>2026-08-20T09:52:59Z</time>
      </trkpt>
      <trkpt lat="49.17221" lon="4.06852">
        <ele>115.7</ele>
        <time>2026-08-20T09:53:04Z</time>
      </trkpt>
      <trkpt lat="49.17221" lon="4.06852">
        <ele>115.7</ele>
        <time>2026-08-20T09:53:10Z</time>
      </trkpt>
      <trkpt lat="49.17221" lon="4.06852">
        <ele>115.7</ele>
        <time>2026-08-20T09:53:15Z</time>
      </trkpt>
      <trkpt lat="49.17217" lon="4.06849">
        <ele>115.7</ele>
        <time>2026-08-20T09:53:20Z</time>
      </trkpt>
      <trkpt lat="49.1721" lon="4.06853">
        <ele>115.7</ele>
        <time>2026-08-20T09:53:26Z</time>
      </trkpt>
      <trkpt lat="49.17204" lon="4.06856">
        <ele>115.6</ele>
        <time>2026-08-20T09:53:31Z</time>
      </trkpt>
      <trkpt lat="49.17199" lon="4.0686">
        <ele>115.5</ele>
        <time>2026-08-20T09:53:36Z</time>
      </trkpt>
      <trkpt lat="49.17192" lon="4.06863">
        <ele>115.4</ele>
        <time>2026-08-20T09:53:42Z</time>
      </trkpt>
      <trkpt lat="49.17186" lon="4.06867">
        <ele>115.3</ele>
        <time>2026-08-20T09:53:47Z</time>
      </trkpt>
      <trkpt lat="49.17181" lon="4.06871">
        <ele>115.2</ele>
        <time>2026-08-20T09:53:52Z</time>
      </trkpt>
      <trkpt lat="49.17175" lon="4.06876">
        <ele>115</ele>
        <time>2026-08-20T09:53:58Z</time>
      </trkpt>
      <trkpt lat="49.17169" lon="4.06879">
        <ele>114.9</ele>
        <time>2026-08-20T09:54:03Z</time>
      </trkpt>
      <trkpt lat="49.17167" lon="4.06881">
        <ele>114.9</ele>
        <time>2026-08-20T09:54:08Z</time>
      </trkpt>
      <trkpt lat="49.17165" lon="4.06883">
        <ele>114.8</ele>
        <time>2026-08-20T09:54:14Z</time>
      </trkpt>
      <trkpt lat="49.17162" lon="4.06886">
        <ele>114.8</ele>
        <time>2026-08-20T09:54:19Z</time>
      </trkpt>
      <trkpt lat="49.17157" lon="4.06889">
        <ele>114.7</ele>
        <time>2026-08-20T09:54:24Z</time>
      </trkpt>
      <trkpt lat="49.17152" lon="4.06894">
        <ele>114.6</ele>
        <time>2026-08-20T09:54:30Z</time>
      </trkpt>
      <trkpt lat="49.17147" lon="4.06897">
        <ele>114.6</ele>
        <time>2026-08-20T09:54:35Z</time>
      </trkpt>
      <trkpt lat="49.17142" lon="4.06902">
        <ele>114.5</ele>
        <time>2026-08-20T09:54:40Z</time>
      </trkpt>
      <trkpt lat="49.17139" lon="4.06903">
        <ele>114.6</ele>
        <time>2026-08-20T09:54:46Z</time>
      </trkpt>
      <trkpt lat="49.17139" lon="4.06903">
        <ele>114.6</ele>
        <time>2026-08-20T09:54:51Z</time>
      </trkpt>
      <trkpt lat="49.17139" lon="4.06903">
        <ele>114.6</ele>
        <time>2026-08-20T09:54:56Z</time>
      </trkpt>
      <trkpt lat="49.17139" lon="4.06903">
        <ele>114.6</ele>
        <time>2026-08-20T09:55:02Z</time>
      </trkpt>
      <trkpt lat="49.17139" lon="4.06903">
        <ele>114.6</ele>
        <time>2026-08-20T09:55:07Z</time>
      </trkpt>
      <trkpt lat="49.17139" lon="4.06903">
        <ele>114.6</ele>
        <time>2026-08-20T09:55:12Z</time>
      </trkpt>
      <trkpt lat="49.17139" lon="4.06903">
        <ele>114.6</ele>
        <time>2026-08-20T09:55:18Z</time>
      </trkpt>
      <trkpt lat="49.17139" lon="4.06903">
        <ele>114.6</ele>
        <time>2026-08-20T09:55:23Z</time>
      </trkpt>
      <trkpt lat="49.17134" lon="4.06907">
        <ele>114.5</ele>
        <time>2026-08-20T09:55:28Z</time>
      </trkpt>
      <trkpt lat="49.17127" lon="4.06911">
        <ele>114.5</ele>
        <time>2026-08-20T09:55:34Z</time>
      </trkpt>
      <trkpt lat="49.17122" lon="4.06915">
        <ele>114.6</ele>
        <time>2026-08-20T09:55:39Z</time>
      </trkpt>
      <trkpt lat="49.17118" lon="4.0692">
        <ele>114.5</ele>
        <time>2026-08-20T09:55:44Z</time>
      </trkpt>
      <trkpt lat="49.17111" lon="4.06925">
        <ele>114.4</ele>
        <time>2026-08-20T09:55:50Z</time>
      </trkpt>
      <trkpt lat="49.17106" lon="4.06928">
        <ele>114.4</ele>
        <time>2026-08-20T09:55:55Z</time>
      </trkpt>
      <trkpt lat="49.17101" lon="4.06933">
        <ele>114.4</ele>
        <time>2026-08-20T09:56:00Z</time>
      </trkpt>
      <trkpt lat="49.17095" lon="4.06938">
        <ele>114.3</ele>
        <time>2026-08-20T09:56:06Z</time>
      </trkpt>
      <trkpt lat="49.17089" lon="4.06942">
        <ele>114.3</ele>
        <time>2026-08-20T09:56:11Z</time>
      </trkpt>
      <trkpt lat="49.17083" lon="4.06946">
        <ele>114.3</ele>
        <time>2026-08-20T09:56:16Z</time>
      </trkpt>
      <trkpt lat="49.17077" lon="4.0695">
        <ele>114.1</ele>
        <time>2026-08-20T09:56:22Z</time>
      </trkpt>
      <trkpt lat="49.17072" lon="4.06952">
        <ele>114.1</ele>
        <time>2026-08-20T09:56:27Z</time>
      </trkpt>
      <trkpt lat="49.17067" lon="4.06957">
        <ele>113.9</ele>
        <time>2026-08-20T09:56:32Z</time>
      </trkpt>
      <trkpt lat="49.17061" lon="4.06962">
        <ele>113.8</ele>
        <time>2026-08-20T09:56:38Z</time>
      </trkpt>
      <trkpt lat="49.17057" lon="4.06966">
        <ele>113.7</ele>
        <time>2026-08-20T09:56:43Z</time>
      </trkpt>
      <trkpt lat="49.17052" lon="4.06967">
        <ele>113.7</ele>
        <time>2026-08-20T09:56:48Z</time>
      </trkpt>
      <trkpt lat="49.17045" lon="4.06973">
        <ele>113.7</ele>
        <time>2026-08-20T09:56:54Z</time>
      </trkpt>
      <trkpt lat="49.17039" lon="4.06977">
        <ele>113.6</ele>
        <time>2026-08-20T09:56:59Z</time>
      </trkpt>
      <trkpt lat="49.17034" lon="4.0698">
        <ele>113.6</ele>
        <time>2026-08-20T09:57:04Z</time>
      </trkpt>
      <trkpt lat="49.17027" lon="4.06986">
        <ele>113.7</ele>
        <time>2026-08-20T09:57:10Z</time>
      </trkpt>
      <trkpt lat="49.17022" lon="4.0699">
        <ele>113.7</ele>
        <time>2026-08-20T09:57:15Z</time>
      </trkpt>
      <trkpt lat="49.17017" lon="4.06994">
        <ele>113.8</ele>
        <time>2026-08-20T09:57:20Z</time>
      </trkpt>
      <trkpt lat="49.17011" lon="4.06997">
        <ele>113.8</ele>
        <time>2026-08-20T09:57:26Z</time>
      </trkpt>
      <trkpt lat="49.17006" lon="4.07">
        <ele>113.9</ele>
        <time>2026-08-20T09:57:31Z</time>
      </trkpt>
      <trkpt lat="49.17002" lon="4.07003">
        <ele>113.9</ele>
        <time>2026-08-20T09:57:36Z</time>
      </trkpt>
      <trkpt lat="49.16996" lon="4.07007">
        <ele>114</ele>
        <time>2026-08-20T09:57:42Z</time>
      </trkpt>
      <trkpt lat="49.16991" lon="4.0701">
        <ele>114</ele>
        <time>2026-08-20T09:57:47Z</time>
      </trkpt>
      <trkpt lat="49.16986" lon="4.07015">
        <ele>114</ele>
        <time>2026-08-20T09:57:52Z</time>
      </trkpt>
      <trkpt lat="49.16981" lon="4.0702">
        <ele>114</ele>
        <time>2026-08-20T09:57:58Z</time>
      </trkpt>
      <trkpt lat="49.16975" lon="4.07024">
        <ele>114.1</ele>
        <time>2026-08-20T09:58:03Z</time>
      </trkpt>
      <trkpt lat="49.1697" lon="4.07027">
        <ele>114.2</ele>
        <time>2026-08-20T09:58:08Z</time>
      </trkpt>
      <trkpt lat="49.16964" lon="4.07031">
        <ele>114.2</ele>
        <time>2026-08-20T09:58:14Z</time>
      </trkpt>
      <trkpt lat="49.16959" lon="4.07035">
        <ele>114.3</ele>
        <time>2026-08-20T09:58:19Z</time>
      </trkpt>
      <trkpt lat="49.16954" lon="4.07039">
        <ele>114.3</ele>
        <time>2026-08-20T09:58:24Z</time>
      </trkpt>
      <trkpt lat="49.16948" lon="4.07043">
        <ele>114.4</ele>
        <time>2026-08-20T09:58:30Z</time>
      </trkpt>
      <trkpt lat="49.16942" lon="4.07047">
        <ele>114.5</ele>
        <time>2026-08-20T09:58:35Z</time>
      </trkpt>
      <trkpt lat="49.16937" lon="4.07051">
        <ele>114.6</ele>
        <time>2026-08-20T09:58:40Z</time>
      </trkpt>
      <trkpt lat="49.16931" lon="4.07056">
        <ele>114.7</ele>
        <time>2026-08-20T09:58:46Z</time>
      </trkpt>
      <trkpt lat="49.16926" lon="4.0706">
        <ele>114.8</ele>
        <time>2026-08-20T09:58:51Z</time>
      </trkpt>
      <trkpt lat="49.16921" lon="4.07061">
        <ele>114.9</ele>
        <time>2026-08-20T09:58:56Z</time>
      </trkpt>
      <trkpt lat="49.16916" lon="4.07061">
        <ele>115</ele>
        <time>2026-08-20T09:59:02Z</time>
      </trkpt>
      <trkpt lat="49.1691" lon="4.07066">
        <ele>115.1</ele>
        <time>2026-08-20T09:59:07Z</time>
      </trkpt>
      <trkpt lat="49.16904" lon="4.07069">
        <ele>115.2</ele>
        <time>2026-08-20T09:59:12Z</time>
      </trkpt>
      <trkpt lat="49.16898" lon="4.07075">
        <ele>115.2</ele>
        <time>2026-08-20T09:59:18Z</time>
      </trkpt>
      <trkpt lat="49.16895" lon="4.07075">
        <ele>115.3</ele>
        <time>2026-08-20T09:59:23Z</time>
      </trkpt>
      <trkpt lat="49.16894" lon="4.07074">
        <ele>115.3</ele>
        <time>2026-08-20T09:59:28Z</time>
      </trkpt>
      <trkpt lat="49.16888" lon="4.07075">
        <ele>115.3</ele>
        <time>2026-08-20T09:59:34Z</time>
      </trkpt>
      <trkpt lat="49.16883" lon="4.07074">
        <ele>115.4</ele>
        <time>2026-08-20T09:59:39Z</time>
      </trkpt>
      <trkpt lat="49.16878" lon="4.0707">
        <ele>115.5</ele>
        <time>2026-08-20T09:59:44Z</time>
      </trkpt>
      <trkpt lat="49.16874" lon="4.07065">
        <ele>115.5</ele>
        <time>2026-08-20T09:59:50Z</time>
      </trkpt>
      <trkpt lat="49.16874" lon="4.07063">
        <ele>115.5</ele>
        <time>2026-08-20T09:59:55Z</time>
      </trkpt>
      <trkpt lat="49.16873" lon="4.07062">
        <ele>115.5</ele>
        <time>2026-08-20T10:00:00Z</time>
      </trkpt>
      <trkpt lat="49.16873" lon="4.07062">
        <ele>115.5</ele>
        <time>2026-08-20T10:00:06Z</time>
      </trkpt>
      <trkpt lat="49.16873" lon="4.07062">
        <ele>115.5</ele>
        <time>2026-08-20T10:00:11Z</time>
      </trkpt>
      <trkpt lat="49.16873" lon="4.07062">
        <ele>115.5</ele>
        <time>2026-08-20T10:00:16Z</time>
      </trkpt>
      <trkpt lat="49.16873" lon="4.07062">
        <ele>115.5</ele>
        <time>2026-08-20T10:00:22Z</time>
      </trkpt>
      <trkpt lat="49.16873" lon="4.07062">
        <ele>115.5</ele>
        <time>2026-08-20T10:00:27Z</time>
      </trkpt>
      <trkpt lat="49.16873" lon="4.07062">
        <ele>115.5</ele>
        <time>2026-08-20T10:00:32Z</time>
      </trkpt>
      <trkpt lat="49.16873" lon="4.07062">
        <ele>115.5</ele>
        <time>2026-08-20T10:00:38Z</time>
      </trkpt>
      <trkpt lat="49.16873" lon="4.07062">
        <ele>115.5</ele>
        <time>2026-08-20T10:00:43Z</time>
      </trkpt>
      <trkpt lat="49.16873" lon="4.07062">
        <ele>115.5</ele>
        <time>2026-08-20T10:00:48Z</time>
      </trkpt>
      <trkpt lat="49.16873" lon="4.07062">
        <ele>115.5</ele>
        <time>2026-08-20T10:00:54Z</time>
      </trkpt>
      <trkpt lat="49.16873" lon="4.07062">
        <ele>115.5</ele>
        <time>2026-08-20T10:00:59Z</time>
      </trkpt>
      <trkpt lat="49.16873" lon="4.07062">
        <ele>115.5</ele>
        <time>2026-08-20T10:01:04Z</time>
      </trkpt>
      <trkpt lat="49.16873" lon="4.07062">
        <ele>115.5</ele>
        <time>2026-08-20T10:01:10Z</time>
      </trkpt>
      <trkpt lat="49.16873" lon="4.07062">
        <ele>115.5</ele>
        <time>2026-08-20T10:01:15Z</time>
      </trkpt>
      <trkpt lat="49.16873" lon="4.07062">
        <ele>115.5</ele>
        <time>2026-08-20T10:01:20Z</time>
      </trkpt>
      <trkpt lat="49.16873" lon="4.07062">
        <ele>115.5</ele>
        <time>2026-08-20T10:01:26Z</time>
      </trkpt>
      <trkpt lat="49.16873" lon="4.07062">
        <ele>115.5</ele>
        <time>2026-08-20T10:01:31Z</time>
      </trkpt>
      <trkpt lat="49.16873" lon="4.07062">
        <ele>115.5</ele>
        <time>2026-08-20T10:01:36Z</time>
      </trkpt>
      <trkpt lat="49.16873" lon="4.07062">
        <ele>115.5</ele>
        <time>2026-08-20T10:01:42Z</time>
      </trkpt>
      <trkpt lat="49.16873" lon="4.07062">
        <ele>115.5</ele>
        <time>2026-08-20T10:01:47Z</time>
      </trkpt>
      <trkpt lat="49.16873" lon="4.07062">
        <ele>115.5</ele>
        <time>2026-08-20T10:01:52Z</time>
      </trkpt>
      <trkpt lat="49.16873" lon="4.07062">
        <ele>115.5</ele>
        <time>2026-08-20T10:01:58Z</time>
      </trkpt>
      <trkpt lat="49.16873" lon="4.07062">
        <ele>115.5</ele>
        <time>2026-08-20T10:02:03Z</time>
      </trkpt>
      <trkpt lat="49.16873" lon="4.07062">
        <ele>115.5</ele>
        <time>2026-08-20T10:02:08Z</time>
      </trkpt>
      <trkpt lat="49.16873" lon="4.07062">
        <ele>115.5</ele>
        <time>2026-08-20T10:02:14Z</time>
      </trkpt>
      <trkpt lat="49.16873" lon="4.07062">
        <ele>115.5</ele>
        <time>2026-08-20T10:02:19Z</time>
      </trkpt>
      <trkpt lat="49.16873" lon="4.07062">
        <ele>115.5</ele>
        <time>2026-08-20T10:02:24Z</time>
      </trkpt>
      <trkpt lat="49.16873" lon="4.07062">
        <ele>115.5</ele>
        <time>2026-08-20T10:02:30Z</time>
      </trkpt>
      <trkpt lat="49.16873" lon="4.07062">
        <ele>115.5</ele>
        <time>2026-08-20T10:02:35Z</time>
      </trkpt>
      <trkpt lat="49.16873" lon="4.07062">
        <ele>115.5</ele>
        <time>2026-08-20T10:02:40Z</time>
      </trkpt>
      <trkpt lat="49.16873" lon="4.07062">
        <ele>115.5</ele>
        <time>2026-08-20T10:02:46Z</time>
      </trkpt>
      <trkpt lat="49.16873" lon="4.07062">
        <ele>115.5</ele>
        <time>2026-08-20T10:02:51Z</time>
      </trkpt>
      <trkpt lat="49.16873" lon="4.07062">
        <ele>115.5</ele>
        <time>2026-08-20T10:02:56Z</time>
      </trkpt>
      <trkpt lat="49.16873" lon="4.07062">
        <ele>115.5</ele>
        <time>2026-08-20T10:03:02Z</time>
      </trkpt>
      <trkpt lat="49.16873" lon="4.07062">
        <ele>115.5</ele>
        <time>2026-08-20T10:03:07Z</time>
      </trkpt>
      <trkpt lat="49.16873" lon="4.07062">
        <ele>115.5</ele>
        <time>2026-08-20T10:03:12Z</time>
      </trkpt>
      <trkpt lat="49.16873" lon="4.07062">
        <ele>115.5</ele>
        <time>2026-08-20T10:03:18Z</time>
      </trkpt>
      <trkpt lat="49.16873" lon="4.07062">
        <ele>115.5</ele>
        <time>2026-08-20T10:03:23Z</time>
      </trkpt>
      <trkpt lat="49.16873" lon="4.07062">
        <ele>115.5</ele>
        <time>2026-08-20T10:03:28Z</time>
      </trkpt>
      <trkpt lat="49.16873" lon="4.07062">
        <ele>115.5</ele>
        <time>2026-08-20T10:03:34Z</time>
      </trkpt>
      <trkpt lat="49.16873" lon="4.07062">
        <ele>115.5</ele>
        <time>2026-08-20T10:03:39Z</time>
      </trkpt>
      <trkpt lat="49.16873" lon="4.07062">
        <ele>115.5</ele>
        <time>2026-08-20T10:03:44Z</time>
      </trkpt>
      <trkpt lat="49.16873" lon="4.07062">
        <ele>115.5</ele>
        <time>2026-08-20T10:03:50Z</time>
      </trkpt>
      <trkpt lat="49.16873" lon="4.07062">
        <ele>115.5</ele>
        <time>2026-08-20T10:03:55Z</time>
      </trkpt>
      <trkpt lat="49.16873" lon="4.07062">
        <ele>115.5</ele>
        <time>2026-08-20T10:04:00Z</time>
      </trkpt>
      <trkpt lat="49.16873" lon="4.07062">
        <ele>115.5</ele>
        <time>2026-08-20T10:04:06Z</time>
      </trkpt>
      <trkpt lat="49.16873" lon="4.07062">
        <ele>115.5</ele>
        <time>2026-08-20T10:04:11Z</time>
      </trkpt>
      <trkpt lat="49.16873" lon="4.07062">
        <ele>115.5</ele>
        <time>2026-08-20T10:04:16Z</time>
      </trkpt>
      <trkpt lat="49.16873" lon="4.07062">
        <ele>115.5</ele>
        <time>2026-08-20T10:04:22Z</time>
      </trkpt>
      <trkpt lat="49.16873" lon="4.07062">
        <ele>115.5</ele>
        <time>2026-08-20T10:04:27Z</time>
      </trkpt>
      <trkpt lat="49.16873" lon="4.07062">
        <ele>115.5</ele>
        <time>2026-08-20T10:04:32Z</time>
      </trkpt>
      <trkpt lat="49.16873" lon="4.07062">
        <ele>115.5</ele>
        <time>2026-08-20T10:04:38Z</time>
      </trkpt>
      <trkpt lat="49.16873" lon="4.07062">
        <ele>115.5</ele>
        <time>2026-08-20T10:04:43Z</time>
      </trkpt>
      <trkpt lat="49.16873" lon="4.07062">
        <ele>115.5</ele>
        <time>2026-08-20T10:04:48Z</time>
      </trkpt>
      <trkpt lat="49.16873" lon="4.07062">
        <ele>115.5</ele>
        <time>2026-08-20T10:04:54Z</time>
      </trkpt>
      <trkpt lat="49.16873" lon="4.07062">
        <ele>115.5</ele>
        <time>2026-08-20T10:04:59Z</time>
      </trkpt>
      <trkpt lat="49.16873" lon="4.07062">
        <ele>115.5</ele>
        <time>2026-08-20T10:05:04Z</time>
      </trkpt>
      <trkpt lat="49.16873" lon="4.07062">
        <ele>115.5</ele>
        <time>2026-08-20T10:05:10Z</time>
      </trkpt>
      <trkpt lat="49.16873" lon="4.07062">
        <ele>115.5</ele>
        <time>2026-08-20T10:05:15Z</time>
      </trkpt>
      <trkpt lat="49.16873" lon="4.07062">
        <ele>115.5</ele>
        <time>2026-08-20T10:05:20Z</time>
      </trkpt>
      <trkpt lat="49.16873" lon="4.07062">
        <ele>115.5</ele>
        <time>2026-08-20T10:05:26Z</time>
      </trkpt>
      <trkpt lat="49.16873" lon="4.07062">
        <ele>115.5</ele>
        <time>2026-08-20T10:05:31Z</time>
      </trkpt>
      <trkpt lat="49.16873" lon="4.07062">
        <ele>115.5</ele>
        <time>2026-08-20T10:05:36Z</time>
      </trkpt>
      <trkpt lat="49.16873" lon="4.07062">
        <ele>115.5</ele>
        <time>2026-08-20T10:05:42Z</time>
      </trkpt>
      <trkpt lat="49.16873" lon="4.07062">
        <ele>115.5</ele>
        <time>2026-08-20T10:05:47Z</time>
      </trkpt>
      <trkpt lat="49.16873" lon="4.07062">
        <ele>115.5</ele>
        <time>2026-08-20T10:05:52Z</time>
      </trkpt>
      <trkpt lat="49.16873" lon="4.07062">
        <ele>115.5</ele>
        <time>2026-08-20T10:05:58Z</time>
      </trkpt>
      <trkpt lat="49.16873" lon="4.07062">
        <ele>115.5</ele>
        <time>2026-08-20T10:06:03Z</time>
      </trkpt>
      <trkpt lat="49.16873" lon="4.07062">
        <ele>115.5</ele>
        <time>2026-08-20T10:06:08Z</time>
      </trkpt>
      <trkpt lat="49.16873" lon="4.07062">
        <ele>115.5</ele>
        <time>2026-08-20T10:06:14Z</time>
      </trkpt>
      <trkpt lat="49.16873" lon="4.07062">
        <ele>115.5</ele>
        <time>2026-08-20T10:06:19Z</time>
      </trkpt>
      <trkpt lat="49.16873" lon="4.07062">
        <ele>115.5</ele>
        <time>2026-08-20T10:06:24Z</time>
      </trkpt>
      <trkpt lat="49.16873" lon="4.07062">
        <ele>115.5</ele>
        <time>2026-08-20T10:06:30Z</time>
      </trkpt>
      <trkpt lat="49.16873" lon="4.07062">
        <ele>115.5</ele>
        <time>2026-08-20T10:06:35Z</time>
      </trkpt>
      <trkpt lat="49.16873" lon="4.07062">
        <ele>115.5</ele>
        <time>2026-08-20T10:06:40Z</time>
      </trkpt>
      <trkpt lat="49.16873" lon="4.07062">
        <ele>115.5</ele>
        <time>2026-08-20T10:06:46Z</time>
      </trkpt>
      <trkpt lat="49.16873" lon="4.07062">
        <ele>115.5</ele>
        <time>2026-08-20T10:06:51Z</time>
      </trkpt>
      <trkpt lat="49.16873" lon="4.07062">
        <ele>115.5</ele>
        <time>2026-08-20T10:06:56Z</time>
      </trkpt>
      <trkpt lat="49.16873" lon="4.07062">
        <ele>115.5</ele>
        <time>2026-08-20T10:07:02Z</time>
      </trkpt>
      <trkpt lat="49.16873" lon="4.07062">
        <ele>115.5</ele>
        <time>2026-08-20T10:07:07Z</time>
      </trkpt>
      <trkpt lat="49.16873" lon="4.07062">
        <ele>115.5</ele>
        <time>2026-08-20T10:07:12Z</time>
      </trkpt>
      <trkpt lat="49.16873" lon="4.07062">
        <ele>115.5</ele>
        <time>2026-08-20T10:07:18Z</time>
      </trkpt>
      <trkpt lat="49.16873" lon="4.07062">
        <ele>115.5</ele>
        <time>2026-08-20T10:07:23Z</time>
      </trkpt>
      <trkpt lat="49.16873" lon="4.07062">
        <ele>115.5</ele>
        <time>2026-08-20T10:07:28Z</time>
      </trkpt>
      <trkpt lat="49.16873" lon="4.07062">
        <ele>115.5</ele>
        <time>2026-08-20T10:07:34Z</time>
      </trkpt>
      <trkpt lat="49.16873" lon="4.07062">
        <ele>115.5</ele>
        <time>2026-08-20T10:07:39Z</time>
      </trkpt>
      <trkpt lat="49.16873" lon="4.07062">
        <ele>115.5</ele>
        <time>2026-08-20T10:07:44Z</time>
      </trkpt>
      <trkpt lat="49.16873" lon="4.07062">
        <ele>115.5</ele>
        <time>2026-08-20T10:07:50Z</time>
      </trkpt>
      <trkpt lat="49.16873" lon="4.07062">
        <ele>115.5</ele>
        <time>2026-08-20T10:07:55Z</time>
      </trkpt>
      <trkpt lat="49.16873" lon="4.07062">
        <ele>115.5</ele>
        <time>2026-08-20T10:08:00Z</time>
      </trkpt>
      <trkpt lat="49.16873" lon="4.07062">
        <ele>115.5</ele>
        <time>2026-08-20T10:08:06Z</time>
      </trkpt>
      <trkpt lat="49.16873" lon="4.07062">
        <ele>115.5</ele>
        <time>2026-08-20T10:08:11Z</time>
      </trkpt>
      <trkpt lat="49.16873" lon="4.07062">
        <ele>115.5</ele>
        <time>2026-08-20T10:08:16Z</time>
      </trkpt>
      <trkpt lat="49.16873" lon="4.07062">
        <ele>115.5</ele>
        <time>2026-08-20T10:08:22Z</time>
      </trkpt>
      <trkpt lat="49.16873" lon="4.07062">
        <ele>115.5</ele>
        <time>2026-08-20T10:08:27Z</time>
      </trkpt>
      <trkpt lat="49.16873" lon="4.07062">
        <ele>115.5</ele>
        <time>2026-08-20T10:08:32Z</time>
      </trkpt>
      <trkpt lat="49.16873" lon="4.07062">
        <ele>115.5</ele>
        <time>2026-08-20T10:08:38Z</time>
      </trkpt>
      <trkpt lat="49.16873" lon="4.07062">
        <ele>115.5</ele>
        <time>2026-08-20T10:08:43Z</time>
      </trkpt>
      <trkpt lat="49.16873" lon="4.07062">
        <ele>115.5</ele>
        <time>2026-08-20T10:08:48Z</time>
      </trkpt>
      <trkpt lat="49.16873" lon="4.07062">
        <ele>115.5</ele>
        <time>2026-08-20T10:08:54Z</time>
      </trkpt>
      <trkpt lat="49.16873" lon="4.07062">
        <ele>115.5</ele>
        <time>2026-08-20T10:08:59Z</time>
      </trkpt>
      <trkpt lat="49.16873" lon="4.07062">
        <ele>115.5</ele>
        <time>2026-08-20T10:09:04Z</time>
      </trkpt>
      <trkpt lat="49.16873" lon="4.07062">
        <ele>115.5</ele>
        <time>2026-08-20T10:09:10Z</time>
      </trkpt>
      <trkpt lat="49.16873" lon="4.07062">
        <ele>115.5</ele>
        <time>2026-08-20T10:09:15Z</time>
      </trkpt>
      <trkpt lat="49.16873" lon="4.07062">
        <ele>115.5</ele>
        <time>2026-08-20T10:09:20Z</time>
      </trkpt>
      <trkpt lat="49.16873" lon="4.07062">
        <ele>115.5</ele>
        <time>2026-08-20T10:09:26Z</time>
      </trkpt>
      <trkpt lat="49.16873" lon="4.07062">
        <ele>115.5</ele>
        <time>2026-08-20T10:09:31Z</time>
      </trkpt>
      <trkpt lat="49.16873" lon="4.07062">
        <ele>115.5</ele>
        <time>2026-08-20T10:09:36Z</time>
      </trkpt>
      <trkpt lat="49.16873" lon="4.07062">
        <ele>115.5</ele>
        <time>2026-08-20T10:09:42Z</time>
      </trkpt>
      <trkpt lat="49.16873" lon="4.07062">
        <ele>115.5</ele>
        <time>2026-08-20T10:09:47Z</time>
      </trkpt>
      <trkpt lat="49.16873" lon="4.07062">
        <ele>115.5</ele>
        <time>2026-08-20T10:09:52Z</time>
      </trkpt>
      <trkpt lat="49.16873" lon="4.07062">
        <ele>115.5</ele>
        <time>2026-08-20T10:09:58Z</time>
      </trkpt>
      <trkpt lat="49.16873" lon="4.07062">
        <ele>115.5</ele>
        <time>2026-08-20T10:10:03Z</time>
      </trkpt>
      <trkpt lat="49.16873" lon="4.07062">
        <ele>115.5</ele>
        <time>2026-08-20T10:10:08Z</time>
      </trkpt>
      <trkpt lat="49.16873" lon="4.07062">
        <ele>115.5</ele>
        <time>2026-08-20T10:10:14Z</time>
      </trkpt>
      <trkpt lat="49.16873" lon="4.07062">
        <ele>115.5</ele>
        <time>2026-08-20T10:10:19Z</time>
      </trkpt>
      <trkpt lat="49.16873" lon="4.07062">
        <ele>115.5</ele>
        <time>2026-08-20T10:10:24Z</time>
      </trkpt>
      <trkpt lat="49.16873" lon="4.07062">
        <ele>115.5</ele>
        <time>2026-08-20T10:10:30Z</time>
      </trkpt>
      <trkpt lat="49.16873" lon="4.07062">
        <ele>115.5</ele>
        <time>2026-08-20T10:10:35Z</time>
      </trkpt>
      <trkpt lat="49.16873" lon="4.07062">
        <ele>115.5</ele>
        <time>2026-08-20T10:10:40Z</time>
      </trkpt>
      <trkpt lat="49.16873" lon="4.07062">
        <ele>115.5</ele>
        <time>2026-08-20T10:10:46Z</time>
      </trkpt>
      <trkpt lat="49.16873" lon="4.07062">
        <ele>115.5</ele>
        <time>2026-08-20T10:10:51Z</time>
      </trkpt>
      <trkpt lat="49.16873" lon="4.07062">
        <ele>115.5</ele>
        <time>2026-08-20T10:10:56Z</time>
      </trkpt>
      <trkpt lat="49.16873" lon="4.07062">
        <ele>115.5</ele>
        <time>2026-08-20T10:11:02Z</time>
      </trkpt>
      <trkpt lat="49.16873" lon="4.07062">
        <ele>115.5</ele>
        <time>2026-08-20T10:11:07Z</time>
      </trkpt>
      <trkpt lat="49.16873" lon="4.07062">
        <ele>115.5</ele>
        <time>2026-08-20T10:11:12Z</time>
      </trkpt>
      <trkpt lat="49.16873" lon="4.07062">
        <ele>115.5</ele>
        <time>2026-08-20T10:11:18Z</time>
      </trkpt>
      <trkpt lat="49.16873" lon="4.07062">
        <ele>115.5</ele>
        <time>2026-08-20T10:11:23Z</time>
      </trkpt>
      <trkpt lat="49.16873" lon="4.07062">
        <ele>115.5</ele>
        <time>2026-08-20T10:11:28Z</time>
      </trkpt>
      <trkpt lat="49.16873" lon="4.07062">
        <ele>115.5</ele>
        <time>2026-08-20T10:11:34Z</time>
      </trkpt>
      <trkpt lat="49.16873" lon="4.07062">
        <ele>115.5</ele>
        <time>2026-08-20T10:11:39Z</time>
      </trkpt>
      <trkpt lat="49.16873" lon="4.07062">
        <ele>115.5</ele>
        <time>2026-08-20T10:11:44Z</time>
      </trkpt>
      <trkpt lat="49.16873" lon="4.07062">
        <ele>115.5</ele>
        <time>2026-08-20T10:11:50Z</time>
      </trkpt>
      <trkpt lat="49.16873" lon="4.07062">
        <ele>115.5</ele>
        <time>2026-08-20T10:11:55Z</time>
      </trkpt>
      <trkpt lat="49.16873" lon="4.07062">
        <ele>115.5</ele>
        <time>2026-08-20T10:12:00Z</time>
      </trkpt>
      <trkpt lat="49.16873" lon="4.07062">
        <ele>115.5</ele>
        <time>2026-08-20T10:12:06Z</time>
      </trkpt>
      <trkpt lat="49.16873" lon="4.07062">
        <ele>115.5</ele>
        <time>2026-08-20T10:12:11Z</time>
      </trkpt>
      <trkpt lat="49.16873" lon="4.07062">
        <ele>115.5</ele>
        <time>2026-08-20T10:12:16Z</time>
      </trkpt>
      <trkpt lat="49.16873" lon="4.07062">
        <ele>115.5</ele>
        <time>2026-08-20T10:12:22Z</time>
      </trkpt>
      <trkpt lat="49.16873" lon="4.07062">
        <ele>115.5</ele>
        <time>2026-08-20T10:12:27Z</time>
      </trkpt>
      <trkpt lat="49.16873" lon="4.07062">
        <ele>115.5</ele>
        <time>2026-08-20T10:12:32Z</time>
      </trkpt>
      <trkpt lat="49.16873" lon="4.07062">
        <ele>115.5</ele>
        <time>2026-08-20T10:12:38Z</time>
      </trkpt>
      <trkpt lat="49.16873" lon="4.07062">
        <ele>115.5</ele>
        <time>2026-08-20T10:12:43Z</time>
      </trkpt>
      <trkpt lat="49.16873" lon="4.07062">
        <ele>115.5</ele>
        <time>2026-08-20T10:12:48Z</time>
      </trkpt>
      <trkpt lat="49.16873" lon="4.07062">
        <ele>115.5</ele>
        <time>2026-08-20T10:12:54Z</time>
      </trkpt>
      <trkpt lat="49.16873" lon="4.07062">
        <ele>115.5</ele>
        <time>2026-08-20T10:12:59Z</time>
      </trkpt>
      <trkpt lat="49.16873" lon="4.07062">
        <ele>115.5</ele>
        <time>2026-08-20T10:13:04Z</time>
      </trkpt>
      <trkpt lat="49.16873" lon="4.07062">
        <ele>115.5</ele>
        <time>2026-08-20T10:13:10Z</time>
      </trkpt>
      <trkpt lat="49.16873" lon="4.07062">
        <ele>115.5</ele>
        <time>2026-08-20T10:13:15Z</time>
      </trkpt>
      <trkpt lat="49.16873" lon="4.07062">
        <ele>115.5</ele>
        <time>2026-08-20T10:13:20Z</time>
      </trkpt>
      <trkpt lat="49.16873" lon="4.07062">
        <ele>115.5</ele>
        <time>2026-08-20T10:13:26Z</time>
      </trkpt>
      <trkpt lat="49.16873" lon="4.07062">
        <ele>115.5</ele>
        <time>2026-08-20T10:13:31Z</time>
      </trkpt>
      <trkpt lat="49.16873" lon="4.07062">
        <ele>115.5</ele>
        <time>2026-08-20T10:13:36Z</time>
      </trkpt>
      <trkpt lat="49.16873" lon="4.07062">
        <ele>115.5</ele>
        <time>2026-08-20T10:13:42Z</time>
      </trkpt>
      <trkpt lat="49.16873" lon="4.07062">
        <ele>115.5</ele>
        <time>2026-08-20T10:13:47Z</time>
      </trkpt>
      <trkpt lat="49.16873" lon="4.07062">
        <ele>115.5</ele>
        <time>2026-08-20T10:13:52Z</time>
      </trkpt>
      <trkpt lat="49.16873" lon="4.07062">
        <ele>115.5</ele>
        <time>2026-08-20T10:13:58Z</time>
      </trkpt>
      <trkpt lat="49.16873" lon="4.07062">
        <ele>115.5</ele>
        <time>2026-08-20T10:14:03Z</time>
      </trkpt>
      <trkpt lat="49.16873" lon="4.07062">
        <ele>115.5</ele>
        <time>2026-08-20T10:14:08Z</time>
      </trkpt>
      <trkpt lat="49.16873" lon="4.07062">
        <ele>115.5</ele>
        <time>2026-08-20T10:14:14Z</time>
      </trkpt>
      <trkpt lat="49.16873" lon="4.07062">
        <ele>115.5</ele>
        <time>2026-08-20T10:14:19Z</time>
      </trkpt>
      <trkpt lat="49.16873" lon="4.07062">
        <ele>115.5</ele>
        <time>2026-08-20T10:14:24Z</time>
      </trkpt>
      <trkpt lat="49.16873" lon="4.07062">
        <ele>115.5</ele>
        <time>2026-08-20T10:14:30Z</time>
      </trkpt>
      <trkpt lat="49.16873" lon="4.07062">
        <ele>115.5</ele>
        <time>2026-08-20T10:14:35Z</time>
      </trkpt>
      <trkpt lat="49.16873" lon="4.07062">
        <ele>115.5</ele>
        <time>2026-08-20T10:14:40Z</time>
      </trkpt>
      <trkpt lat="49.16873" lon="4.07062">
        <ele>115.5</ele>
        <time>2026-08-20T10:14:46Z</time>
      </trkpt>
      <trkpt lat="49.16873" lon="4.07062">
        <ele>115.5</ele>
        <time>2026-08-20T10:14:51Z</time>
      </trkpt>
      <trkpt lat="49.16873" lon="4.07062">
        <ele>115.5</ele>
        <time>2026-08-20T10:14:56Z</time>
      </trkpt>
      <trkpt lat="49.16873" lon="4.07062">
        <ele>115.5</ele>
        <time>2026-08-20T10:15:02Z</time>
      </trkpt>
      <trkpt lat="49.16873" lon="4.07062">
        <ele>115.5</ele>
        <time>2026-08-20T10:15:07Z</time>
      </trkpt>
      <trkpt lat="49.16873" lon="4.07062">
        <ele>115.5</ele>
        <time>2026-08-20T10:15:12Z</time>
      </trkpt>
      <trkpt lat="49.16873" lon="4.07062">
        <ele>115.5</ele>
        <time>2026-08-20T10:15:18Z</time>
      </trkpt>
      <trkpt lat="49.16873" lon="4.07062">
        <ele>115.5</ele>
        <time>2026-08-20T10:15:23Z</time>
      </trkpt>
      <trkpt lat="49.16873" lon="4.07062">
        <ele>115.5</ele>
        <time>2026-08-20T10:15:28Z</time>
      </trkpt>
      <trkpt lat="49.16873" lon="4.07062">
        <ele>115.5</ele>
        <time>2026-08-20T10:15:34Z</time>
      </trkpt>
      <trkpt lat="49.16873" lon="4.07062">
        <ele>115.5</ele>
        <time>2026-08-20T10:15:39Z</time>
      </trkpt>
      <trkpt lat="49.16873" lon="4.07062">
        <ele>115.5</ele>
        <time>2026-08-20T10:15:44Z</time>
      </trkpt>
      <trkpt lat="49.16873" lon="4.07062">
        <ele>115.5</ele>
        <time>2026-08-20T10:15:50Z</time>
      </trkpt>
      <trkpt lat="49.16873" lon="4.07062">
        <ele>115.5</ele>
        <time>2026-08-20T10:15:55Z</time>
      </trkpt>
      <trkpt lat="49.16873" lon="4.07062">
        <ele>115.5</ele>
        <time>2026-08-20T10:16:00Z</time>
      </trkpt>
      <trkpt lat="49.16873" lon="4.07062">
        <ele>115.5</ele>
        <time>2026-08-20T10:16:06Z</time>
      </trkpt>
      <trkpt lat="49.16873" lon="4.07062">
        <ele>115.5</ele>
        <time>2026-08-20T10:16:11Z</time>
      </trkpt>
      <trkpt lat="49.16873" lon="4.07062">
        <ele>115.5</ele>
        <time>2026-08-20T10:16:16Z</time>
      </trkpt>
      <trkpt lat="49.16873" lon="4.07062">
        <ele>115.5</ele>
        <time>2026-08-20T10:16:22Z</time>
      </trkpt>
      <trkpt lat="49.16873" lon="4.07062">
        <ele>115.5</ele>
        <time>2026-08-20T10:16:27Z</time>
      </trkpt>
      <trkpt lat="49.16873" lon="4.07062">
        <ele>115.5</ele>
        <time>2026-08-20T10:16:32Z</time>
      </trkpt>
      <trkpt lat="49.16873" lon="4.07062">
        <ele>115.5</ele>
        <time>2026-08-20T10:16:38Z</time>
      </trkpt>
      <trkpt lat="49.16873" lon="4.07062">
        <ele>115.5</ele>
        <time>2026-08-20T10:16:43Z</time>
      </trkpt>
      <trkpt lat="49.16873" lon="4.07062">
        <ele>115.5</ele>
        <time>2026-08-20T10:16:48Z</time>
      </trkpt>
      <trkpt lat="49.16873" lon="4.07062">
        <ele>115.5</ele>
        <time>2026-08-20T10:16:54Z</time>
      </trkpt>
      <trkpt lat="49.16873" lon="4.07062">
        <ele>115.5</ele>
        <time>2026-08-20T10:16:59Z</time>
      </trkpt>
      <trkpt lat="49.16873" lon="4.07062">
        <ele>115.5</ele>
        <time>2026-08-20T10:17:04Z</time>
      </trkpt>
      <trkpt lat="49.16873" lon="4.07062">
        <ele>115.5</ele>
        <time>2026-08-20T10:17:10Z</time>
      </trkpt>
      <trkpt lat="49.16873" lon="4.07062">
        <ele>115.5</ele>
        <time>2026-08-20T10:17:15Z</time>
      </trkpt>
      <trkpt lat="49.16873" lon="4.07062">
        <ele>115.5</ele>
        <time>2026-08-20T10:17:20Z</time>
      </trkpt>
      <trkpt lat="49.16873" lon="4.07062">
        <ele>115.5</ele>
        <time>2026-08-20T10:17:26Z</time>
      </trkpt>
      <trkpt lat="49.16873" lon="4.07062">
        <ele>115.5</ele>
        <time>2026-08-20T10:17:31Z</time>
      </trkpt>
      <trkpt lat="49.16873" lon="4.07062">
        <ele>115.5</ele>
        <time>2026-08-20T10:17:36Z</time>
      </trkpt>
      <trkpt lat="49.16873" lon="4.07062">
        <ele>115.5</ele>
        <time>2026-08-20T10:17:42Z</time>
      </trkpt>
      <trkpt lat="49.16873" lon="4.07062">
        <ele>115.5</ele>
        <time>2026-08-20T10:17:47Z</time>
      </trkpt>
      <trkpt lat="49.16873" lon="4.07062">
        <ele>115.5</ele>
        <time>2026-08-20T10:17:52Z</time>
      </trkpt>
      <trkpt lat="49.16873" lon="4.07062">
        <ele>115.5</ele>
        <time>2026-08-20T10:17:58Z</time>
      </trkpt>
      <trkpt lat="49.16873" lon="4.07062">
        <ele>115.5</ele>
        <time>2026-08-20T10:18:03Z</time>
      </trkpt>
      <trkpt lat="49.16873" lon="4.07062">
        <ele>115.5</ele>
        <time>2026-08-20T10:18:08Z</time>
      </trkpt>
      <trkpt lat="49.16873" lon="4.07062">
        <ele>115.5</ele>
        <time>2026-08-20T10:18:14Z</time>
      </trkpt>
      <trkpt lat="49.16873" lon="4.07062">
        <ele>115.5</ele>
        <time>2026-08-20T10:18:19Z</time>
      </trkpt>
      <trkpt lat="49.16873" lon="4.07062">
        <ele>115.5</ele>
        <time>2026-08-20T10:18:24Z</time>
      </trkpt>
      <trkpt lat="49.16873" lon="4.07062">
        <ele>115.5</ele>
        <time>2026-08-20T10:18:30Z</time>
      </trkpt>
      <trkpt lat="49.16873" lon="4.07062">
        <ele>115.5</ele>
        <time>2026-08-20T10:18:35Z</time>
      </trkpt>
      <trkpt lat="49.16873" lon="4.07062">
        <ele>115.5</ele>
        <time>2026-08-20T10:18:40Z</time>
      </trkpt>
      <trkpt lat="49.16873" lon="4.07062">
        <ele>115.5</ele>
        <time>2026-08-20T10:18:46Z</time>
      </trkpt>
      <trkpt lat="49.16873" lon="4.07062">
        <ele>115.5</ele>
        <time>2026-08-20T10:18:51Z</time>
      </trkpt>
      <trkpt lat="49.16873" lon="4.07062">
        <ele>115.5</ele>
        <time>2026-08-20T10:18:56Z</time>
      </trkpt>
      <trkpt lat="49.16873" lon="4.07062">
        <ele>115.5</ele>
        <time>2026-08-20T10:19:02Z</time>
      </trkpt>
      <trkpt lat="49.16873" lon="4.07062">
        <ele>115.5</ele>
        <time>2026-08-20T10:19:07Z</time>
      </trkpt>
      <trkpt lat="49.16873" lon="4.07062">
        <ele>115.5</ele>
        <time>2026-08-20T10:19:12Z</time>
      </trkpt>
      <trkpt lat="49.16873" lon="4.07062">
        <ele>115.5</ele>
        <time>2026-08-20T10:19:18Z</time>
      </trkpt>
      <trkpt lat="49.16873" lon="4.07062">
        <ele>115.5</ele>
        <time>2026-08-20T10:19:23Z</time>
      </trkpt>
      <trkpt lat="49.16873" lon="4.07062">
        <ele>115.5</ele>
        <time>2026-08-20T10:19:28Z</time>
      </trkpt>
      <trkpt lat="49.16873" lon="4.07062">
        <ele>115.5</ele>
        <time>2026-08-20T10:19:34Z</time>
      </trkpt>
      <trkpt lat="49.16873" lon="4.07062">
        <ele>115.5</ele>
        <time>2026-08-20T10:19:39Z</time>
      </trkpt>
      <trkpt lat="49.16873" lon="4.07062">
        <ele>115.5</ele>
        <time>2026-08-20T10:19:44Z</time>
      </trkpt>
      <trkpt lat="49.16873" lon="4.07062">
        <ele>115.5</ele>
        <time>2026-08-20T10:19:50Z</time>
      </trkpt>
      <trkpt lat="49.16873" lon="4.07062">
        <ele>115.5</ele>
        <time>2026-08-20T10:19:55Z</time>
      </trkpt>
      <trkpt lat="49.16873" lon="4.07062">
        <ele>115.5</ele>
        <time>2026-08-20T10:20:00Z</time>
      </trkpt>
      <trkpt lat="49.16873" lon="4.07062">
        <ele>115.5</ele>
        <time>2026-08-20T10:20:06Z</time>
      </trkpt>
      <trkpt lat="49.16873" lon="4.07062">
        <ele>115.5</ele>
        <time>2026-08-20T10:20:11Z</time>
      </trkpt>
      <trkpt lat="49.16873" lon="4.07062">
        <ele>115.5</ele>
        <time>2026-08-20T10:20:16Z</time>
      </trkpt>
      <trkpt lat="49.16873" lon="4.07062">
        <ele>115.5</ele>
        <time>2026-08-20T10:20:22Z</time>
      </trkpt>
      <trkpt lat="49.16873" lon="4.07062">
        <ele>115.5</ele>
        <time>2026-08-20T10:20:27Z</time>
      </trkpt>
      <trkpt lat="49.16873" lon="4.07062">
        <ele>115.5</ele>
        <time>2026-08-20T10:20:32Z</time>
      </trkpt>
      <trkpt lat="49.16873" lon="4.07062">
        <ele>115.5</ele>
        <time>2026-08-20T10:20:38Z</time>
      </trkpt>
      <trkpt lat="49.16873" lon="4.07062">
        <ele>115.5</ele>
        <time>2026-08-20T10:20:43Z</time>
      </trkpt>
      <trkpt lat="49.16873" lon="4.07062">
        <ele>115.5</ele>
        <time>2026-08-20T10:20:48Z</time>
      </trkpt>
      <trkpt lat="49.16873" lon="4.07062">
        <ele>115.5</ele>
        <time>2026-08-20T10:20:54Z</time>
      </trkpt>
      <trkpt lat="49.16873" lon="4.07062">
        <ele>115.5</ele>
        <time>2026-08-20T10:20:59Z</time>
      </trkpt>
      <trkpt lat="49.16873" lon="4.07062">
        <ele>115.5</ele>
        <time>2026-08-20T10:21:04Z</time>
      </trkpt>
      <trkpt lat="49.16873" lon="4.07062">
        <ele>115.5</ele>
        <time>2026-08-20T10:21:10Z</time>
      </trkpt>
      <trkpt lat="49.16873" lon="4.07062">
        <ele>115.5</ele>
        <time>2026-08-20T10:21:15Z</time>
      </trkpt>
      <trkpt lat="49.16873" lon="4.07062">
        <ele>115.5</ele>
        <time>2026-08-20T10:21:20Z</time>
      </trkpt>
      <trkpt lat="49.16873" lon="4.07062">
        <ele>115.5</ele>
        <time>2026-08-20T10:21:26Z</time>
      </trkpt>
      <trkpt lat="49.16873" lon="4.07062">
        <ele>115.5</ele>
        <time>2026-08-20T10:21:31Z</time>
      </trkpt>
      <trkpt lat="49.16873" lon="4.07062">
        <ele>115.5</ele>
        <time>2026-08-20T10:21:36Z</time>
      </trkpt>
      <trkpt lat="49.16873" lon="4.07062">
        <ele>115.5</ele>
        <time>2026-08-20T10:21:42Z</time>
      </trkpt>
      <trkpt lat="49.16873" lon="4.07062">
        <ele>115.5</ele>
        <time>2026-08-20T10:21:47Z</time>
      </trkpt>
      <trkpt lat="49.16873" lon="4.07062">
        <ele>115.5</ele>
        <time>2026-08-20T10:21:52Z</time>
      </trkpt>
      <trkpt lat="49.16873" lon="4.07062">
        <ele>115.5</ele>
        <time>2026-08-20T10:21:58Z</time>
      </trkpt>
      <trkpt lat="49.16873" lon="4.07062">
        <ele>115.5</ele>
        <time>2026-08-20T10:22:03Z</time>
      </trkpt>
      <trkpt lat="49.16873" lon="4.07062">
        <ele>115.5</ele>
        <time>2026-08-20T10:22:08Z</time>
      </trkpt>
      <trkpt lat="49.16873" lon="4.07062">
        <ele>115.5</ele>
        <time>2026-08-20T10:22:14Z</time>
      </trkpt>
      <trkpt lat="49.16873" lon="4.07062">
        <ele>115.5</ele>
        <time>2026-08-20T10:22:19Z</time>
      </trkpt>
      <trkpt lat="49.16873" lon="4.07062">
        <ele>115.5</ele>
        <time>2026-08-20T10:22:24Z</time>
      </trkpt>
      <trkpt lat="49.16873" lon="4.07062">
        <ele>115.5</ele>
        <time>2026-08-20T10:22:30Z</time>
      </trkpt>
      <trkpt lat="49.16873" lon="4.07062">
        <ele>115.5</ele>
        <time>2026-08-20T10:22:35Z</time>
      </trkpt>
      <trkpt lat="49.16873" lon="4.07062">
        <ele>115.5</ele>
        <time>2026-08-20T10:22:40Z</time>
      </trkpt>
      <trkpt lat="49.16873" lon="4.07062">
        <ele>115.5</ele>
        <time>2026-08-20T10:22:46Z</time>
      </trkpt>
      <trkpt lat="49.16873" lon="4.07062">
        <ele>115.5</ele>
        <time>2026-08-20T10:22:51Z</time>
      </trkpt>
      <trkpt lat="49.16873" lon="4.07062">
        <ele>115.5</ele>
        <time>2026-08-20T10:22:56Z</time>
      </trkpt>
      <trkpt lat="49.16873" lon="4.07062">
        <ele>115.5</ele>
        <time>2026-08-20T10:23:02Z</time>
      </trkpt>
      <trkpt lat="49.16873" lon="4.07062">
        <ele>115.5</ele>
        <time>2026-08-20T10:23:07Z</time>
      </trkpt>
      <trkpt lat="49.16873" lon="4.07062">
        <ele>115.5</ele>
        <time>2026-08-20T10:23:12Z</time>
      </trkpt>
      <trkpt lat="49.16873" lon="4.07062">
        <ele>115.5</ele>
        <time>2026-08-20T10:23:18Z</time>
      </trkpt>
      <trkpt lat="49.16873" lon="4.07062">
        <ele>115.5</ele>
        <time>2026-08-20T10:23:23Z</time>
      </trkpt>
      <trkpt lat="49.16873" lon="4.07062">
        <ele>115.5</ele>
        <time>2026-08-20T10:23:28Z</time>
      </trkpt>
      <trkpt lat="49.16873" lon="4.07062">
        <ele>115.5</ele>
        <time>2026-08-20T10:23:34Z</time>
      </trkpt>
      <trkpt lat="49.16873" lon="4.07062">
        <ele>115.5</ele>
        <time>2026-08-20T10:23:39Z</time>
      </trkpt>
      <trkpt lat="49.16873" lon="4.07062">
        <ele>115.5</ele>
        <time>2026-08-20T10:23:44Z</time>
      </trkpt>
      <trkpt lat="49.16873" lon="4.07062">
        <ele>115.5</ele>
        <time>2026-08-20T10:23:50Z</time>
      </trkpt>
      <trkpt lat="49.16873" lon="4.07062">
        <ele>115.5</ele>
        <time>2026-08-20T10:23:55Z</time>
      </trkpt>
      <trkpt lat="49.16873" lon="4.07062">
        <ele>115.5</ele>
        <time>2026-08-20T10:24:00Z</time>
      </trkpt>
      <trkpt lat="49.16873" lon="4.07062">
        <ele>115.5</ele>
        <time>2026-08-20T10:24:06Z</time>
      </trkpt>
      <trkpt lat="49.16873" lon="4.07062">
        <ele>115.5</ele>
        <time>2026-08-20T10:24:11Z</time>
      </trkpt>
      <trkpt lat="49.16873" lon="4.07062">
        <ele>115.5</ele>
        <time>2026-08-20T10:24:16Z</time>
      </trkpt>
      <trkpt lat="49.16873" lon="4.07062">
        <ele>115.5</ele>
        <time>2026-08-20T10:24:22Z</time>
      </trkpt>
      <trkpt lat="49.16873" lon="4.07062">
        <ele>115.5</ele>
        <time>2026-08-20T10:24:27Z</time>
      </trkpt>
      <trkpt lat="49.16873" lon="4.07062">
        <ele>115.5</ele>
        <time>2026-08-20T10:24:32Z</time>
      </trkpt>
      <trkpt lat="49.16873" lon="4.07062">
        <ele>115.5</ele>
        <time>2026-08-20T10:24:38Z</time>
      </trkpt>
      <trkpt lat="49.16873" lon="4.07062">
        <ele>115.5</ele>
        <time>2026-08-20T10:24:43Z</time>
      </trkpt>
      <trkpt lat="49.16873" lon="4.07062">
        <ele>115.5</ele>
        <time>2026-08-20T10:24:48Z</time>
      </trkpt>
      <trkpt lat="49.16873" lon="4.07062">
        <ele>115.5</ele>
        <time>2026-08-20T10:24:54Z</time>
      </trkpt>
      <trkpt lat="49.16873" lon="4.07062">
        <ele>115.5</ele>
        <time>2026-08-20T10:24:59Z</time>
      </trkpt>
      <trkpt lat="49.16873" lon="4.07062">
        <ele>115.5</ele>
        <time>2026-08-20T10:25:04Z</time>
      </trkpt>
      <trkpt lat="49.16873" lon="4.07062">
        <ele>115.5</ele>
        <time>2026-08-20T10:25:10Z</time>
      </trkpt>
      <trkpt lat="49.16873" lon="4.07062">
        <ele>115.5</ele>
        <time>2026-08-20T10:25:15Z</time>
      </trkpt>
      <trkpt lat="49.16873" lon="4.07062">
        <ele>115.5</ele>
        <time>2026-08-20T10:25:20Z</time>
      </trkpt>
      <trkpt lat="49.16873" lon="4.07062">
        <ele>115.5</ele>
        <time>2026-08-20T10:25:26Z</time>
      </trkpt>
      <trkpt lat="49.16873" lon="4.07062">
        <ele>115.5</ele>
        <time>2026-08-20T10:25:31Z</time>
      </trkpt>
      <trkpt lat="49.16873" lon="4.07062">
        <ele>115.5</ele>
        <time>2026-08-20T10:25:36Z</time>
      </trkpt>
      <trkpt lat="49.16873" lon="4.07062">
        <ele>115.5</ele>
        <time>2026-08-20T10:25:42Z</time>
      </trkpt>
      <trkpt lat="49.16873" lon="4.07062">
        <ele>115.5</ele>
        <time>2026-08-20T10:25:47Z</time>
      </trkpt>
      <trkpt lat="49.16873" lon="4.07062">
        <ele>115.5</ele>
        <time>2026-08-20T10:25:52Z</time>
      </trkpt>
      <trkpt lat="49.16873" lon="4.07062">
        <ele>115.5</ele>
        <time>2026-08-20T10:25:58Z</time>
      </trkpt>
      <trkpt lat="49.16873" lon="4.07062">
        <ele>115.5</ele>
        <time>2026-08-20T10:26:03Z</time>
      </trkpt>
      <trkpt lat="49.16873" lon="4.07062">
        <ele>115.5</ele>
        <time>2026-08-20T10:26:08Z</time>
      </trkpt>
      <trkpt lat="49.16873" lon="4.07062">
        <ele>115.5</ele>
        <time>2026-08-20T10:26:14Z</time>
      </trkpt>
      <trkpt lat="49.16873" lon="4.07062">
        <ele>115.5</ele>
        <time>2026-08-20T10:26:19Z</time>
      </trkpt>
      <trkpt lat="49.16873" lon="4.07062">
        <ele>115.5</ele>
        <time>2026-08-20T10:26:24Z</time>
      </trkpt>
      <trkpt lat="49.16873" lon="4.07062">
        <ele>115.5</ele>
        <time>2026-08-20T10:26:30Z</time>
      </trkpt>
      <trkpt lat="49.16873" lon="4.07062">
        <ele>115.5</ele>
        <time>2026-08-20T10:26:35Z</time>
      </trkpt>
      <trkpt lat="49.16873" lon="4.07062">
        <ele>115.5</ele>
        <time>2026-08-20T10:26:40Z</time>
      </trkpt>
      <trkpt lat="49.16873" lon="4.07062">
        <ele>115.5</ele>
        <time>2026-08-20T10:26:46Z</time>
      </trkpt>
      <trkpt lat="49.16873" lon="4.07062">
        <ele>115.5</ele>
        <time>2026-08-20T10:26:51Z</time>
      </trkpt>
      <trkpt lat="49.16873" lon="4.07062">
        <ele>115.5</ele>
        <time>2026-08-20T10:26:56Z</time>
      </trkpt>
      <trkpt lat="49.16873" lon="4.07062">
        <ele>115.5</ele>
        <time>2026-08-20T10:27:02Z</time>
      </trkpt>
      <trkpt lat="49.16873" lon="4.07062">
        <ele>115.5</ele>
        <time>2026-08-20T10:27:07Z</time>
      </trkpt>
      <trkpt lat="49.16873" lon="4.07062">
        <ele>115.5</ele>
        <time>2026-08-20T10:27:12Z</time>
      </trkpt>
      <trkpt lat="49.16873" lon="4.07062">
        <ele>115.5</ele>
        <time>2026-08-20T10:27:18Z</time>
      </trkpt>
      <trkpt lat="49.16873" lon="4.07062">
        <ele>115.5</ele>
        <time>2026-08-20T10:27:23Z</time>
      </trkpt>
      <trkpt lat="49.16873" lon="4.07062">
        <ele>115.5</ele>
        <time>2026-08-20T10:27:28Z</time>
      </trkpt>
      <trkpt lat="49.16873" lon="4.07062">
        <ele>115.5</ele>
        <time>2026-08-20T10:27:34Z</time>
      </trkpt>
      <trkpt lat="49.16873" lon="4.07062">
        <ele>115.5</ele>
        <time>2026-08-20T10:27:39Z</time>
      </trkpt>
      <trkpt lat="49.16873" lon="4.07062">
        <ele>115.5</ele>
        <time>2026-08-20T10:27:44Z</time>
      </trkpt>
      <trkpt lat="49.16873" lon="4.07062">
        <ele>115.5</ele>
        <time>2026-08-20T10:27:50Z</time>
      </trkpt>
      <trkpt lat="49.16873" lon="4.07062">
        <ele>115.5</ele>
        <time>2026-08-20T10:27:55Z</time>
      </trkpt>
      <trkpt lat="49.16873" lon="4.07062">
        <ele>115.5</ele>
        <time>2026-08-20T10:28:00Z</time>
      </trkpt>
      <trkpt lat="49.16873" lon="4.07062">
        <ele>115.5</ele>
        <time>2026-08-20T10:28:06Z</time>
      </trkpt>
      <trkpt lat="49.16873" lon="4.07062">
        <ele>115.5</ele>
        <time>2026-08-20T10:28:11Z</time>
      </trkpt>
      <trkpt lat="49.16873" lon="4.07062">
        <ele>115.5</ele>
        <time>2026-08-20T10:28:16Z</time>
      </trkpt>
      <trkpt lat="49.16873" lon="4.07062">
        <ele>115.5</ele>
        <time>2026-08-20T10:28:22Z</time>
      </trkpt>
      <trkpt lat="49.16873" lon="4.07062">
        <ele>115.5</ele>
        <time>2026-08-20T10:28:27Z</time>
      </trkpt>
      <trkpt lat="49.16873" lon="4.07062">
        <ele>115.5</ele>
        <time>2026-08-20T10:28:32Z</time>
      </trkpt>
      <trkpt lat="49.16873" lon="4.07062">
        <ele>115.5</ele>
        <time>2026-08-20T10:28:38Z</time>
      </trkpt>
      <trkpt lat="49.16873" lon="4.07062">
        <ele>115.5</ele>
        <time>2026-08-20T10:28:43Z</time>
      </trkpt>
      <trkpt lat="49.16873" lon="4.07062">
        <ele>115.5</ele>
        <time>2026-08-20T10:28:48Z</time>
      </trkpt>
      <trkpt lat="49.16873" lon="4.07062">
        <ele>115.5</ele>
        <time>2026-08-20T10:28:54Z</time>
      </trkpt>
      <trkpt lat="49.16873" lon="4.07062">
        <ele>115.5</ele>
        <time>2026-08-20T10:28:59Z</time>
      </trkpt>
      <trkpt lat="49.16873" lon="4.07062">
        <ele>115.5</ele>
        <time>2026-08-20T10:29:04Z</time>
      </trkpt>
      <trkpt lat="49.16873" lon="4.07062">
        <ele>115.5</ele>
        <time>2026-08-20T10:29:10Z</time>
      </trkpt>
      <trkpt lat="49.16873" lon="4.07062">
        <ele>115.5</ele>
        <time>2026-08-20T10:29:15Z</time>
      </trkpt>
      <trkpt lat="49.16873" lon="4.07062">
        <ele>115.5</ele>
        <time>2026-08-20T10:29:20Z</time>
      </trkpt>
      <trkpt lat="49.16873" lon="4.07062">
        <ele>115.5</ele>
        <time>2026-08-20T10:29:26Z</time>
      </trkpt>
      <trkpt lat="49.16873" lon="4.07062">
        <ele>115.5</ele>
        <time>2026-08-20T10:29:31Z</time>
      </trkpt>
      <trkpt lat="49.16873" lon="4.07062">
        <ele>115.5</ele>
        <time>2026-08-20T10:29:36Z</time>
      </trkpt>
      <trkpt lat="49.16873" lon="4.07062">
        <ele>115.5</ele>
        <time>2026-08-20T10:29:42Z</time>
      </trkpt>
      <trkpt lat="49.16873" lon="4.07062">
        <ele>115.5</ele>
        <time>2026-08-20T10:29:47Z</time>
      </trkpt>
      <trkpt lat="49.16873" lon="4.07062">
        <ele>115.5</ele>
        <time>2026-08-20T10:29:52Z</time>
      </trkpt>
      <trkpt lat="49.16873" lon="4.07062">
        <ele>115.5</ele>
        <time>2026-08-20T10:29:58Z</time>
      </trkpt>
      <trkpt lat="49.16873" lon="4.07062">
        <ele>115.5</ele>
        <time>2026-08-20T10:30:03Z</time>
      </trkpt>
      <trkpt lat="49.16873" lon="4.07062">
        <ele>115.5</ele>
        <time>2026-08-20T10:30:08Z</time>
      </trkpt>
      <trkpt lat="49.16873" lon="4.07062">
        <ele>115.5</ele>
        <time>2026-08-20T10:30:14Z</time>
      </trkpt>
      <trkpt lat="49.16873" lon="4.07062">
        <ele>115.5</ele>
        <time>2026-08-20T10:30:19Z</time>
      </trkpt>
      <trkpt lat="49.16873" lon="4.07062">
        <ele>115.5</ele>
        <time>2026-08-20T10:30:24Z</time>
      </trkpt>
      <trkpt lat="49.16873" lon="4.07062">
        <ele>115.5</ele>
        <time>2026-08-20T10:30:30Z</time>
      </trkpt>
      <trkpt lat="49.16873" lon="4.07062">
        <ele>115.5</ele>
        <time>2026-08-20T10:30:35Z</time>
      </trkpt>
      <trkpt lat="49.16873" lon="4.07062">
        <ele>115.5</ele>
        <time>2026-08-20T10:30:40Z</time>
      </trkpt>
      <trkpt lat="49.16873" lon="4.07062">
        <ele>115.5</ele>
        <time>2026-08-20T10:30:46Z</time>
      </trkpt>
      <trkpt lat="49.16873" lon="4.07062">
        <ele>115.5</ele>
        <time>2026-08-20T10:30:51Z</time>
      </trkpt>
      <trkpt lat="49.16873" lon="4.07062">
        <ele>115.5</ele>
        <time>2026-08-20T10:30:56Z</time>
      </trkpt>
      <trkpt lat="49.16873" lon="4.07062">
        <ele>115.5</ele>
        <time>2026-08-20T10:31:02Z</time>
      </trkpt>
      <trkpt lat="49.16873" lon="4.07062">
        <ele>115.5</ele>
        <time>2026-08-20T10:31:07Z</time>
      </trkpt>
      <trkpt lat="49.16873" lon="4.07062">
        <ele>115.5</ele>
        <time>2026-08-20T10:31:12Z</time>
      </trkpt>
      <trkpt lat="49.16873" lon="4.07062">
        <ele>115.5</ele>
        <time>2026-08-20T10:31:18Z</time>
      </trkpt>
      <trkpt lat="49.16873" lon="4.07062">
        <ele>115.5</ele>
        <time>2026-08-20T10:31:23Z</time>
      </trkpt>
      <trkpt lat="49.16873" lon="4.07062">
        <ele>115.5</ele>
        <time>2026-08-20T10:31:28Z</time>
      </trkpt>
      <trkpt lat="49.16873" lon="4.07062">
        <ele>115.5</ele>
        <time>2026-08-20T10:31:34Z</time>
      </trkpt>
      <trkpt lat="49.16873" lon="4.07062">
        <ele>115.5</ele>
        <time>2026-08-20T10:31:39Z</time>
      </trkpt>
      <trkpt lat="49.16873" lon="4.07062">
        <ele>115.5</ele>
        <time>2026-08-20T10:31:44Z</time>
      </trkpt>
      <trkpt lat="49.16873" lon="4.07062">
        <ele>115.5</ele>
        <time>2026-08-20T10:31:50Z</time>
      </trkpt>
      <trkpt lat="49.16873" lon="4.07062">
        <ele>115.5</ele>
        <time>2026-08-20T10:31:55Z</time>
      </trkpt>
      <trkpt lat="49.16873" lon="4.07062">
        <ele>115.5</ele>
        <time>2026-08-20T10:32:00Z</time>
      </trkpt>
      <trkpt lat="49.16873" lon="4.07062">
        <ele>115.5</ele>
        <time>2026-08-20T10:32:06Z</time>
      </trkpt>
      <trkpt lat="49.16873" lon="4.07062">
        <ele>115.5</ele>
        <time>2026-08-20T10:32:11Z</time>
      </trkpt>
      <trkpt lat="49.16873" lon="4.07062">
        <ele>115.5</ele>
        <time>2026-08-20T10:32:16Z</time>
      </trkpt>
      <trkpt lat="49.16873" lon="4.07062">
        <ele>115.5</ele>
        <time>2026-08-20T10:32:22Z</time>
      </trkpt>
      <trkpt lat="49.16873" lon="4.07062">
        <ele>115.5</ele>
        <time>2026-08-20T10:32:27Z</time>
      </trkpt>
      <trkpt lat="49.16873" lon="4.07062">
        <ele>115.5</ele>
        <time>2026-08-20T10:32:32Z</time>
      </trkpt>
      <trkpt lat="49.16873" lon="4.07062">
        <ele>115.5</ele>
        <time>2026-08-20T10:32:38Z</time>
      </trkpt>
      <trkpt lat="49.16873" lon="4.07062">
        <ele>115.5</ele>
        <time>2026-08-20T10:32:43Z</time>
      </trkpt>
      <trkpt lat="49.16873" lon="4.07062">
        <ele>115.5</ele>
        <time>2026-08-20T10:32:48Z</time>
      </trkpt>
      <trkpt lat="49.16873" lon="4.07062">
        <ele>115.5</ele>
        <time>2026-08-20T10:32:54Z</time>
      </trkpt>
      <trkpt lat="49.16873" lon="4.07062">
        <ele>115.5</ele>
        <time>2026-08-20T10:32:59Z</time>
      </trkpt>
      <trkpt lat="49.16873" lon="4.07062">
        <ele>115.5</ele>
        <time>2026-08-20T10:33:04Z</time>
      </trkpt>
      <trkpt lat="49.16873" lon="4.07062">
        <ele>115.5</ele>
        <time>2026-08-20T10:33:10Z</time>
      </trkpt>
      <trkpt lat="49.16873" lon="4.07062">
        <ele>115.5</ele>
        <time>2026-08-20T10:33:15Z</time>
      </trkpt>
      <trkpt lat="49.16873" lon="4.07062">
        <ele>115.5</ele>
        <time>2026-08-20T10:33:20Z</time>
      </trkpt>
      <trkpt lat="49.16873" lon="4.07062">
        <ele>115.5</ele>
        <time>2026-08-20T10:33:26Z</time>
      </trkpt>
      <trkpt lat="49.16873" lon="4.07062">
        <ele>115.5</ele>
        <time>2026-08-20T10:33:31Z</time>
      </trkpt>
      <trkpt lat="49.16873" lon="4.07062">
        <ele>115.5</ele>
        <time>2026-08-20T10:33:36Z</time>
      </trkpt>
      <trkpt lat="49.16873" lon="4.07062">
        <ele>115.5</ele>
        <time>2026-08-20T10:33:42Z</time>
      </trkpt>
      <trkpt lat="49.16873" lon="4.07062">
        <ele>115.5</ele>
        <time>2026-08-20T10:33:47Z</time>
      </trkpt>
      <trkpt lat="49.16873" lon="4.07062">
        <ele>115.5</ele>
        <time>2026-08-20T10:33:52Z</time>
      </trkpt>
      <trkpt lat="49.16873" lon="4.07062">
        <ele>115.5</ele>
        <time>2026-08-20T10:33:58Z</time>
      </trkpt>
      <trkpt lat="49.16873" lon="4.07062">
        <ele>115.5</ele>
        <time>2026-08-20T10:34:03Z</time>
      </trkpt>
      <trkpt lat="49.16873" lon="4.07062">
        <ele>115.5</ele>
        <time>2026-08-20T10:34:08Z</time>
      </trkpt>
      <trkpt lat="49.16873" lon="4.07062">
        <ele>115.5</ele>
        <time>2026-08-20T10:34:14Z</time>
      </trkpt>
      <trkpt lat="49.16873" lon="4.07062">
        <ele>115.5</ele>
        <time>2026-08-20T10:34:19Z</time>
      </trkpt>
      <trkpt lat="49.16873" lon="4.07062">
        <ele>115.5</ele>
        <time>2026-08-20T10:34:24Z</time>
      </trkpt>
      <trkpt lat="49.16873" lon="4.07062">
        <ele>115.5</ele>
        <time>2026-08-20T10:34:30Z</time>
      </trkpt>
      <trkpt lat="49.16873" lon="4.07062">
        <ele>115.5</ele>
        <time>2026-08-20T10:34:35Z</time>
      </trkpt>
      <trkpt lat="49.16873" lon="4.07062">
        <ele>115.5</ele>
        <time>2026-08-20T10:34:40Z</time>
      </trkpt>
      <trkpt lat="49.16873" lon="4.07062">
        <ele>115.5</ele>
        <time>2026-08-20T10:34:46Z</time>
      </trkpt>
      <trkpt lat="49.16873" lon="4.07062">
        <ele>115.5</ele>
        <time>2026-08-20T10:34:51Z</time>
      </trkpt>
      <trkpt lat="49.16873" lon="4.07062">
        <ele>115.5</ele>
        <time>2026-08-20T10:34:56Z</time>
      </trkpt>
      <trkpt lat="49.16873" lon="4.07062">
        <ele>115.5</ele>
        <time>2026-08-20T10:35:02Z</time>
      </trkpt>
      <trkpt lat="49.16873" lon="4.07062">
        <ele>115.5</ele>
        <time>2026-08-20T10:35:07Z</time>
      </trkpt>
      <trkpt lat="49.16873" lon="4.07062">
        <ele>115.5</ele>
        <time>2026-08-20T10:35:12Z</time>
      </trkpt>
      <trkpt lat="49.16873" lon="4.07062">
        <ele>115.5</ele>
        <time>2026-08-20T10:35:18Z</time>
      </trkpt>
      <trkpt lat="49.16873" lon="4.07062">
        <ele>115.5</ele>
        <time>2026-08-20T10:35:23Z</time>
      </trkpt>
      <trkpt lat="49.16873" lon="4.07062">
        <ele>115.5</ele>
        <time>2026-08-20T10:35:28Z</time>
      </trkpt>
      <trkpt lat="49.16873" lon="4.07062">
        <ele>115.5</ele>
        <time>2026-08-20T10:35:34Z</time>
      </trkpt>
      <trkpt lat="49.16873" lon="4.07062">
        <ele>115.5</ele>
        <time>2026-08-20T10:35:39Z</time>
      </trkpt>
      <trkpt lat="49.16873" lon="4.07062">
        <ele>115.5</ele>
        <time>2026-08-20T10:35:44Z</time>
      </trkpt>
      <trkpt lat="49.16873" lon="4.07062">
        <ele>115.5</ele>
        <time>2026-08-20T10:35:50Z</time>
      </trkpt>
      <trkpt lat="49.16873" lon="4.07062">
        <ele>115.5</ele>
        <time>2026-08-20T10:35:55Z</time>
      </trkpt>
      <trkpt lat="49.16873" lon="4.07062">
        <ele>115.5</ele>
        <time>2026-08-20T10:36:00Z</time>
      </trkpt>
      <trkpt lat="49.16873" lon="4.07062">
        <ele>115.5</ele>
        <time>2026-08-20T10:36:06Z</time>
      </trkpt>
      <trkpt lat="49.16873" lon="4.07062">
        <ele>115.5</ele>
        <time>2026-08-20T10:36:11Z</time>
      </trkpt>
      <trkpt lat="49.16873" lon="4.07062">
        <ele>115.5</ele>
        <time>2026-08-20T10:36:16Z</time>
      </trkpt>
      <trkpt lat="49.16873" lon="4.07062">
        <ele>115.5</ele>
        <time>2026-08-20T10:36:22Z</time>
      </trkpt>
      <trkpt lat="49.16873" lon="4.07062">
        <ele>115.5</ele>
        <time>2026-08-20T10:36:27Z</time>
      </trkpt>
      <trkpt lat="49.16873" lon="4.07062">
        <ele>115.5</ele>
        <time>2026-08-20T10:36:32Z</time>
      </trkpt>
      <trkpt lat="49.16873" lon="4.07062">
        <ele>115.5</ele>
        <time>2026-08-20T10:36:38Z</time>
      </trkpt>
      <trkpt lat="49.16873" lon="4.07062">
        <ele>115.5</ele>
        <time>2026-08-20T10:36:43Z</time>
      </trkpt>
      <trkpt lat="49.16873" lon="4.07062">
        <ele>115.5</ele>
        <time>2026-08-20T10:36:48Z</time>
      </trkpt>
      <trkpt lat="49.16873" lon="4.07062">
        <ele>115.5</ele>
        <time>2026-08-20T10:36:54Z</time>
      </trkpt>
      <trkpt lat="49.16873" lon="4.07062">
        <ele>115.5</ele>
        <time>2026-08-20T10:36:59Z</time>
      </trkpt>
      <trkpt lat="49.16873" lon="4.07062">
        <ele>115.5</ele>
        <time>2026-08-20T10:37:04Z</time>
      </trkpt>
      <trkpt lat="49.16873" lon="4.07062">
        <ele>115.5</ele>
        <time>2026-08-20T10:37:10Z</time>
      </trkpt>
      <trkpt lat="49.16873" lon="4.07062">
        <ele>115.5</ele>
        <time>2026-08-20T10:37:15Z</time>
      </trkpt>
      <trkpt lat="49.16873" lon="4.07062">
        <ele>115.5</ele>
        <time>2026-08-20T10:37:20Z</time>
      </trkpt>
      <trkpt lat="49.16873" lon="4.07064">
        <ele>115.5</ele>
        <time>2026-08-20T10:37:26Z</time>
      </trkpt>
      <trkpt lat="49.16873" lon="4.07064">
        <ele>115.5</ele>
        <time>2026-08-20T10:37:31Z</time>
      </trkpt>
      <trkpt lat="49.16873" lon="4.07064">
        <ele>115.5</ele>
        <time>2026-08-20T10:37:36Z</time>
      </trkpt>
      <trkpt lat="49.16873" lon="4.07064">
        <ele>115.5</ele>
        <time>2026-08-20T10:37:42Z</time>
      </trkpt>
      <trkpt lat="49.16873" lon="4.07064">
        <ele>115.5</ele>
        <time>2026-08-20T10:37:47Z</time>
      </trkpt>
      <trkpt lat="49.16873" lon="4.07064">
        <ele>115.5</ele>
        <time>2026-08-20T10:37:52Z</time>
      </trkpt>
      <trkpt lat="49.16873" lon="4.07064">
        <ele>115.5</ele>
        <time>2026-08-20T10:37:58Z</time>
      </trkpt>
      <trkpt lat="49.16873" lon="4.07064">
        <ele>115.5</ele>
        <time>2026-08-20T10:38:03Z</time>
      </trkpt>
      <trkpt lat="49.16873" lon="4.07064">
        <ele>115.5</ele>
        <time>2026-08-20T10:38:08Z</time>
      </trkpt>
      <trkpt lat="49.16873" lon="4.07064">
        <ele>115.5</ele>
        <time>2026-08-20T10:38:14Z</time>
      </trkpt>
      <trkpt lat="49.16873" lon="4.07064">
        <ele>115.5</ele>
        <time>2026-08-20T10:38:19Z</time>
      </trkpt>
      <trkpt lat="49.16873" lon="4.07064">
        <ele>115.5</ele>
        <time>2026-08-20T10:38:24Z</time>
      </trkpt>
      <trkpt lat="49.16873" lon="4.07064">
        <ele>115.5</ele>
        <time>2026-08-20T10:38:30Z</time>
      </trkpt>
      <trkpt lat="49.16873" lon="4.07064">
        <ele>115.5</ele>
        <time>2026-08-20T10:38:35Z</time>
      </trkpt>
      <trkpt lat="49.16873" lon="4.07064">
        <ele>115.5</ele>
        <time>2026-08-20T10:38:40Z</time>
      </trkpt>
      <trkpt lat="49.16873" lon="4.07064">
        <ele>115.5</ele>
        <time>2026-08-20T10:38:46Z</time>
      </trkpt>
      <trkpt lat="49.16873" lon="4.07064">
        <ele>115.5</ele>
        <time>2026-08-20T10:38:51Z</time>
      </trkpt>
      <trkpt lat="49.16873" lon="4.07064">
        <ele>115.5</ele>
        <time>2026-08-20T10:38:56Z</time>
      </trkpt>
      <trkpt lat="49.16873" lon="4.07064">
        <ele>115.5</ele>
        <time>2026-08-20T10:39:02Z</time>
      </trkpt>
      <trkpt lat="49.16873" lon="4.07064">
        <ele>115.5</ele>
        <time>2026-08-20T10:39:07Z</time>
      </trkpt>
      <trkpt lat="49.16873" lon="4.07064">
        <ele>115.5</ele>
        <time>2026-08-20T10:39:12Z</time>
      </trkpt>
      <trkpt lat="49.16873" lon="4.07064">
        <ele>115.5</ele>
        <time>2026-08-20T10:39:18Z</time>
      </trkpt>
      <trkpt lat="49.16873" lon="4.07064">
        <ele>115.5</ele>
        <time>2026-08-20T10:39:23Z</time>
      </trkpt>
      <trkpt lat="49.16873" lon="4.07064">
        <ele>115.5</ele>
        <time>2026-08-20T10:39:28Z</time>
      </trkpt>
      <trkpt lat="49.16873" lon="4.07064">
        <ele>115.5</ele>
        <time>2026-08-20T10:39:34Z</time>
      </trkpt>
      <trkpt lat="49.16873" lon="4.07064">
        <ele>115.5</ele>
        <time>2026-08-20T10:39:39Z</time>
      </trkpt>
      <trkpt lat="49.16873" lon="4.07064">
        <ele>115.5</ele>
        <time>2026-08-20T10:39:44Z</time>
      </trkpt>
      <trkpt lat="49.16873" lon="4.07064">
        <ele>115.5</ele>
        <time>2026-08-20T10:39:50Z</time>
      </trkpt>
      <trkpt lat="49.16873" lon="4.07064">
        <ele>115.5</ele>
        <time>2026-08-20T10:39:55Z</time>
      </trkpt>
      <trkpt lat="49.16873" lon="4.07064">
        <ele>115.5</ele>
        <time>2026-08-20T10:40:00Z</time>
      </trkpt>
      <trkpt lat="49.16873" lon="4.07064">
        <ele>115.5</ele>
        <time>2026-08-20T10:40:06Z</time>
      </trkpt>
      <trkpt lat="49.16873" lon="4.07064">
        <ele>115.5</ele>
        <time>2026-08-20T10:40:11Z</time>
      </trkpt>
      <trkpt lat="49.16873" lon="4.07064">
        <ele>115.5</ele>
        <time>2026-08-20T10:40:16Z</time>
      </trkpt>
      <trkpt lat="49.16873" lon="4.07064">
        <ele>115.5</ele>
        <time>2026-08-20T10:40:22Z</time>
      </trkpt>
      <trkpt lat="49.16873" lon="4.07064">
        <ele>115.5</ele>
        <time>2026-08-20T10:40:27Z</time>
      </trkpt>
      <trkpt lat="49.16877" lon="4.07073">
        <ele>115.5</ele>
        <time>2026-08-20T10:40:32Z</time>
      </trkpt>
      <trkpt lat="49.16876" lon="4.07079">
        <ele>115.5</ele>
        <time>2026-08-20T10:40:38Z</time>
      </trkpt>
      <trkpt lat="49.16873" lon="4.07088">
        <ele>115.5</ele>
        <time>2026-08-20T10:40:43Z</time>
      </trkpt>
      <trkpt lat="49.1687" lon="4.07095">
        <ele>115.4</ele>
        <time>2026-08-20T10:40:48Z</time>
      </trkpt>
      <trkpt lat="49.16865" lon="4.07101">
        <ele>115.4</ele>
        <time>2026-08-20T10:40:54Z</time>
      </trkpt>
      <trkpt lat="49.16861" lon="4.07106">
        <ele>115.4</ele>
        <time>2026-08-20T10:40:59Z</time>
      </trkpt>
      <trkpt lat="49.16856" lon="4.0711">
        <ele>115.4</ele>
        <time>2026-08-20T10:41:04Z</time>
      </trkpt>
      <trkpt lat="49.1685" lon="4.07115">
        <ele>115.4</ele>
        <time>2026-08-20T10:41:10Z</time>
      </trkpt>
      <trkpt lat="49.16846" lon="4.07118">
        <ele>115.4</ele>
        <time>2026-08-20T10:41:15Z</time>
      </trkpt>
      <trkpt lat="49.16841" lon="4.07121">
        <ele>115.5</ele>
        <time>2026-08-20T10:41:20Z</time>
      </trkpt>
      <trkpt lat="49.16835" lon="4.07127">
        <ele>115.5</ele>
        <time>2026-08-20T10:41:26Z</time>
      </trkpt>
      <trkpt lat="49.1683" lon="4.0713">
        <ele>115.5</ele>
        <time>2026-08-20T10:41:31Z</time>
      </trkpt>
      <trkpt lat="49.16825" lon="4.07134">
        <ele>115.7</ele>
        <time>2026-08-20T10:41:36Z</time>
      </trkpt>
      <trkpt lat="49.16818" lon="4.07138">
        <ele>115.8</ele>
        <time>2026-08-20T10:41:42Z</time>
      </trkpt>
      <trkpt lat="49.16813" lon="4.07141">
        <ele>116</ele>
        <time>2026-08-20T10:41:47Z</time>
      </trkpt>
      <trkpt lat="49.16809" lon="4.07145">
        <ele>116.1</ele>
        <time>2026-08-20T10:41:52Z</time>
      </trkpt>
      <trkpt lat="49.16802" lon="4.0715">
        <ele>116.3</ele>
        <time>2026-08-20T10:41:58Z</time>
      </trkpt>
      <trkpt lat="49.16796" lon="4.07154">
        <ele>116.4</ele>
        <time>2026-08-20T10:42:03Z</time>
      </trkpt>
      <trkpt lat="49.16792" lon="4.07157">
        <ele>116.5</ele>
        <time>2026-08-20T10:42:08Z</time>
      </trkpt>
      <trkpt lat="49.16786" lon="4.07161">
        <ele>116.7</ele>
        <time>2026-08-20T10:42:14Z</time>
      </trkpt>
      <trkpt lat="49.16781" lon="4.07165">
        <ele>116.9</ele>
        <time>2026-08-20T10:42:19Z</time>
      </trkpt>
      <trkpt lat="49.16776" lon="4.07168">
        <ele>117.1</ele>
        <time>2026-08-20T10:42:24Z</time>
      </trkpt>
      <trkpt lat="49.16769" lon="4.07172">
        <ele>117.3</ele>
        <time>2026-08-20T10:42:30Z</time>
      </trkpt>
      <trkpt lat="49.16764" lon="4.07177">
        <ele>117.5</ele>
        <time>2026-08-20T10:42:35Z</time>
      </trkpt>
      <trkpt lat="49.1676" lon="4.0718">
        <ele>117.6</ele>
        <time>2026-08-20T10:42:40Z</time>
      </trkpt>
      <trkpt lat="49.16753" lon="4.07184">
        <ele>117.9</ele>
        <time>2026-08-20T10:42:46Z</time>
      </trkpt>
      <trkpt lat="49.16748" lon="4.07186">
        <ele>118.1</ele>
        <time>2026-08-20T10:42:51Z</time>
      </trkpt>
      <trkpt lat="49.16746" lon="4.07188">
        <ele>118.2</ele>
        <time>2026-08-20T10:42:56Z</time>
      </trkpt>
      <trkpt lat="49.1674" lon="4.07189">
        <ele>118.4</ele>
        <time>2026-08-20T10:43:02Z</time>
      </trkpt>
      <trkpt lat="49.16735" lon="4.07193">
        <ele>118.6</ele>
        <time>2026-08-20T10:43:07Z</time>
      </trkpt>
      <trkpt lat="49.1673" lon="4.07193">
        <ele>118.8</ele>
        <time>2026-08-20T10:43:12Z</time>
      </trkpt>
      <trkpt lat="49.16727" lon="4.07196">
        <ele>118.9</ele>
        <time>2026-08-20T10:43:18Z</time>
      </trkpt>
      <trkpt lat="49.16724" lon="4.07197">
        <ele>119</ele>
        <time>2026-08-20T10:43:23Z</time>
      </trkpt>
      <trkpt lat="49.16722" lon="4.07199">
        <ele>119.1</ele>
        <time>2026-08-20T10:43:28Z</time>
      </trkpt>
      <trkpt lat="49.16716" lon="4.07203">
        <ele>119.4</ele>
        <time>2026-08-20T10:43:34Z</time>
      </trkpt>
      <trkpt lat="49.16711" lon="4.07207">
        <ele>119.6</ele>
        <time>2026-08-20T10:43:39Z</time>
      </trkpt>
      <trkpt lat="49.16705" lon="4.0721">
        <ele>119.9</ele>
        <time>2026-08-20T10:43:44Z</time>
      </trkpt>
      <trkpt lat="49.16699" lon="4.07214">
        <ele>120.2</ele>
        <time>2026-08-20T10:43:50Z</time>
      </trkpt>
      <trkpt lat="49.16693" lon="4.07217">
        <ele>120.5</ele>
        <time>2026-08-20T10:43:55Z</time>
      </trkpt>
      <trkpt lat="49.16687" lon="4.07221">
        <ele>120.8</ele>
        <time>2026-08-20T10:44:00Z</time>
      </trkpt>
      <trkpt lat="49.16681" lon="4.07224">
        <ele>121.1</ele>
        <time>2026-08-20T10:44:06Z</time>
      </trkpt>
      <trkpt lat="49.16675" lon="4.07229">
        <ele>121.4</ele>
        <time>2026-08-20T10:44:11Z</time>
      </trkpt>
      <trkpt lat="49.16673" lon="4.0723">
        <ele>121.5</ele>
        <time>2026-08-20T10:44:16Z</time>
      </trkpt>
      <trkpt lat="49.16673" lon="4.0723">
        <ele>121.5</ele>
        <time>2026-08-20T10:44:22Z</time>
      </trkpt>
      <trkpt lat="49.16671" lon="4.07232">
        <ele>121.6</ele>
        <time>2026-08-20T10:44:27Z</time>
      </trkpt>
      <trkpt lat="49.16666" lon="4.07236">
        <ele>121.9</ele>
        <time>2026-08-20T10:44:32Z</time>
      </trkpt>
      <trkpt lat="49.16663" lon="4.07238">
        <ele>122</ele>
        <time>2026-08-20T10:44:38Z</time>
      </trkpt>
      <trkpt lat="49.16662" lon="4.07238">
        <ele>122.1</ele>
        <time>2026-08-20T10:44:43Z</time>
      </trkpt>
      <trkpt lat="49.16662" lon="4.07238">
        <ele>122.1</ele>
        <time>2026-08-20T10:44:48Z</time>
      </trkpt>
      <trkpt lat="49.16659" lon="4.07239">
        <ele>122.2</ele>
        <time>2026-08-20T10:44:54Z</time>
      </trkpt>
      <trkpt lat="49.16653" lon="4.07243">
        <ele>122.6</ele>
        <time>2026-08-20T10:44:59Z</time>
      </trkpt>
      <trkpt lat="49.16648" lon="4.07246">
        <ele>122.8</ele>
        <time>2026-08-20T10:45:04Z</time>
      </trkpt>
      <trkpt lat="49.16647" lon="4.07244">
        <ele>122.9</ele>
        <time>2026-08-20T10:45:10Z</time>
      </trkpt>
      <trkpt lat="49.16643" lon="4.07248">
        <ele>123.1</ele>
        <time>2026-08-20T10:45:15Z</time>
      </trkpt>
      <trkpt lat="49.16637" lon="4.07252">
        <ele>123.4</ele>
        <time>2026-08-20T10:45:20Z</time>
      </trkpt>
      <trkpt lat="49.16631" lon="4.07257">
        <ele>123.7</ele>
        <time>2026-08-20T10:45:26Z</time>
      </trkpt>
      <trkpt lat="49.16626" lon="4.07261">
        <ele>123.9</ele>
        <time>2026-08-20T10:45:31Z</time>
      </trkpt>
      <trkpt lat="49.1662" lon="4.07264">
        <ele>124.2</ele>
        <time>2026-08-20T10:45:36Z</time>
      </trkpt>
      <trkpt lat="49.16615" lon="4.0727">
        <ele>124.4</ele>
        <time>2026-08-20T10:45:42Z</time>
      </trkpt>
      <trkpt lat="49.16615" lon="4.0727">
        <ele>124.4</ele>
        <time>2026-08-20T10:45:47Z</time>
      </trkpt>
      <trkpt lat="49.16615" lon="4.0727">
        <ele>124.4</ele>
        <time>2026-08-20T10:45:52Z</time>
      </trkpt>
      <trkpt lat="49.16615" lon="4.0727">
        <ele>124.4</ele>
        <time>2026-08-20T10:45:58Z</time>
      </trkpt>
      <trkpt lat="49.16615" lon="4.0727">
        <ele>124.4</ele>
        <time>2026-08-20T10:46:03Z</time>
      </trkpt>
      <trkpt lat="49.16608" lon="4.07276">
        <ele>124.7</ele>
        <time>2026-08-20T10:46:08Z</time>
      </trkpt>
      <trkpt lat="49.16609" lon="4.07277">
        <ele>124.7</ele>
        <time>2026-08-20T10:46:14Z</time>
      </trkpt>
      <trkpt lat="49.16608" lon="4.07277">
        <ele>124.7</ele>
        <time>2026-08-20T10:46:19Z</time>
      </trkpt>
      <trkpt lat="49.16603" lon="4.07278">
        <ele>125</ele>
        <time>2026-08-20T10:46:24Z</time>
      </trkpt>
      <trkpt lat="49.16596" lon="4.07283">
        <ele>125.3</ele>
        <time>2026-08-20T10:46:30Z</time>
      </trkpt>
      <trkpt lat="49.16592" lon="4.07285">
        <ele>125.5</ele>
        <time>2026-08-20T10:46:35Z</time>
      </trkpt>
      <trkpt lat="49.16589" lon="4.07289">
        <ele>125.7</ele>
        <time>2026-08-20T10:46:40Z</time>
      </trkpt>
      <trkpt lat="49.16583" lon="4.07293">
        <ele>126</ele>
        <time>2026-08-20T10:46:46Z</time>
      </trkpt>
      <trkpt lat="49.16578" lon="4.07298">
        <ele>126.3</ele>
        <time>2026-08-20T10:46:51Z</time>
      </trkpt>
      <trkpt lat="49.16573" lon="4.07302">
        <ele>126.5</ele>
        <time>2026-08-20T10:46:56Z</time>
      </trkpt>
      <trkpt lat="49.16568" lon="4.07306">
        <ele>126.7</ele>
        <time>2026-08-20T10:47:02Z</time>
      </trkpt>
      <trkpt lat="49.16564" lon="4.07311">
        <ele>126.9</ele>
        <time>2026-08-20T10:47:07Z</time>
      </trkpt>
      <trkpt lat="49.1656" lon="4.07316">
        <ele>127.1</ele>
        <time>2026-08-20T10:47:12Z</time>
      </trkpt>
      <trkpt lat="49.16554" lon="4.07321">
        <ele>127.4</ele>
        <time>2026-08-20T10:47:18Z</time>
      </trkpt>
      <trkpt lat="49.16549" lon="4.07325">
        <ele>127.6</ele>
        <time>2026-08-20T10:47:23Z</time>
      </trkpt>
      <trkpt lat="49.16545" lon="4.0733">
        <ele>127.8</ele>
        <time>2026-08-20T10:47:28Z</time>
      </trkpt>
      <trkpt lat="49.1654" lon="4.07336">
        <ele>128.1</ele>
        <time>2026-08-20T10:47:34Z</time>
      </trkpt>
      <trkpt lat="49.16534" lon="4.07341">
        <ele>128.3</ele>
        <time>2026-08-20T10:47:39Z</time>
      </trkpt>
      <trkpt lat="49.1653" lon="4.07345">
        <ele>128.5</ele>
        <time>2026-08-20T10:47:44Z</time>
      </trkpt>
      <trkpt lat="49.16524" lon="4.07353">
        <ele>128.7</ele>
        <time>2026-08-20T10:47:50Z</time>
      </trkpt>
      <trkpt lat="49.1652" lon="4.0736">
        <ele>128.8</ele>
        <time>2026-08-20T10:47:55Z</time>
      </trkpt>
      <trkpt lat="49.16516" lon="4.07366">
        <ele>128.9</ele>
        <time>2026-08-20T10:48:00Z</time>
      </trkpt>
      <trkpt lat="49.1651" lon="4.07373">
        <ele>129.1</ele>
        <time>2026-08-20T10:48:06Z</time>
      </trkpt>
      <trkpt lat="49.16505" lon="4.07379">
        <ele>129.2</ele>
        <time>2026-08-20T10:48:11Z</time>
      </trkpt>
      <trkpt lat="49.16501" lon="4.07385">
        <ele>129.3</ele>
        <time>2026-08-20T10:48:16Z</time>
      </trkpt>
      <trkpt lat="49.16496" lon="4.0739">
        <ele>129.5</ele>
        <time>2026-08-20T10:48:22Z</time>
      </trkpt>
      <trkpt lat="49.16491" lon="4.07395">
        <ele>129.7</ele>
        <time>2026-08-20T10:48:27Z</time>
      </trkpt>
      <trkpt lat="49.16487" lon="4.07399">
        <ele>129.8</ele>
        <time>2026-08-20T10:48:32Z</time>
      </trkpt>
      <trkpt lat="49.16481" lon="4.07404">
        <ele>130.1</ele>
        <time>2026-08-20T10:48:38Z</time>
      </trkpt>
      <trkpt lat="49.16477" lon="4.07407">
        <ele>130.2</ele>
        <time>2026-08-20T10:48:43Z</time>
      </trkpt>
      <trkpt lat="49.16473" lon="4.07411">
        <ele>130.4</ele>
        <time>2026-08-20T10:48:48Z</time>
      </trkpt>
      <trkpt lat="49.16472" lon="4.07411">
        <ele>130.4</ele>
        <time>2026-08-20T10:48:54Z</time>
      </trkpt>
      <trkpt lat="49.16471" lon="4.07411">
        <ele>130.5</ele>
        <time>2026-08-20T10:48:59Z</time>
      </trkpt>
      <trkpt lat="49.16471" lon="4.07411">
        <ele>130.5</ele>
        <time>2026-08-20T10:49:04Z</time>
      </trkpt>
      <trkpt lat="49.16471" lon="4.07411">
        <ele>130.5</ele>
        <time>2026-08-20T10:49:10Z</time>
      </trkpt>
      <trkpt lat="49.16471" lon="4.07411">
        <ele>130.5</ele>
        <time>2026-08-20T10:49:15Z</time>
      </trkpt>
      <trkpt lat="49.16471" lon="4.07411">
        <ele>130.5</ele>
        <time>2026-08-20T10:49:20Z</time>
      </trkpt>
      <trkpt lat="49.16471" lon="4.07411">
        <ele>130.5</ele>
        <time>2026-08-20T10:49:26Z</time>
      </trkpt>
      <trkpt lat="49.16471" lon="4.07411">
        <ele>130.5</ele>
        <time>2026-08-20T10:49:31Z</time>
      </trkpt>
      <trkpt lat="49.16471" lon="4.07411">
        <ele>130.5</ele>
        <time>2026-08-20T10:49:36Z</time>
      </trkpt>
      <trkpt lat="49.16471" lon="4.07411">
        <ele>130.5</ele>
        <time>2026-08-20T10:49:42Z</time>
      </trkpt>
      <trkpt lat="49.16471" lon="4.07411">
        <ele>130.5</ele>
        <time>2026-08-20T10:49:47Z</time>
      </trkpt>
      <trkpt lat="49.16471" lon="4.07411">
        <ele>130.5</ele>
        <time>2026-08-20T10:49:52Z</time>
      </trkpt>
      <trkpt lat="49.16471" lon="4.07411">
        <ele>130.5</ele>
        <time>2026-08-20T10:49:58Z</time>
      </trkpt>
      <trkpt lat="49.16471" lon="4.07411">
        <ele>130.5</ele>
        <time>2026-08-20T10:50:03Z</time>
      </trkpt>
      <trkpt lat="49.16471" lon="4.07411">
        <ele>130.5</ele>
        <time>2026-08-20T10:50:08Z</time>
      </trkpt>
      <trkpt lat="49.16471" lon="4.07411">
        <ele>130.5</ele>
        <time>2026-08-20T10:50:14Z</time>
      </trkpt>
      <trkpt lat="49.16471" lon="4.07411">
        <ele>130.5</ele>
        <time>2026-08-20T10:50:19Z</time>
      </trkpt>
      <trkpt lat="49.16471" lon="4.07411">
        <ele>130.5</ele>
        <time>2026-08-20T10:50:24Z</time>
      </trkpt>
      <trkpt lat="49.16471" lon="4.07411">
        <ele>130.5</ele>
        <time>2026-08-20T10:50:30Z</time>
      </trkpt>
      <trkpt lat="49.16471" lon="4.07411">
        <ele>130.5</ele>
        <time>2026-08-20T10:50:35Z</time>
      </trkpt>
      <trkpt lat="49.16471" lon="4.07411">
        <ele>130.5</ele>
        <time>2026-08-20T10:50:40Z</time>
      </trkpt>
      <trkpt lat="49.16471" lon="4.07411">
        <ele>130.5</ele>
        <time>2026-08-20T10:50:46Z</time>
      </trkpt>
      <trkpt lat="49.16471" lon="4.07411">
        <ele>130.5</ele>
        <time>2026-08-20T10:50:51Z</time>
      </trkpt>
      <trkpt lat="49.16471" lon="4.07411">
        <ele>130.5</ele>
        <time>2026-08-20T10:50:56Z</time>
      </trkpt>
      <trkpt lat="49.16471" lon="4.07411">
        <ele>130.5</ele>
        <time>2026-08-20T10:51:02Z</time>
      </trkpt>
      <trkpt lat="49.16471" lon="4.07411">
        <ele>130.5</ele>
        <time>2026-08-20T10:51:07Z</time>
      </trkpt>
      <trkpt lat="49.16471" lon="4.07411">
        <ele>130.5</ele>
        <time>2026-08-20T10:51:12Z</time>
      </trkpt>
      <trkpt lat="49.16471" lon="4.07411">
        <ele>130.5</ele>
        <time>2026-08-20T10:51:18Z</time>
      </trkpt>
      <trkpt lat="49.16471" lon="4.07411">
        <ele>130.5</ele>
        <time>2026-08-20T10:51:23Z</time>
      </trkpt>
      <trkpt lat="49.16471" lon="4.07411">
        <ele>130.5</ele>
        <time>2026-08-20T10:51:28Z</time>
      </trkpt>
      <trkpt lat="49.16471" lon="4.07411">
        <ele>130.5</ele>
        <time>2026-08-20T10:51:34Z</time>
      </trkpt>
      <trkpt lat="49.16471" lon="4.07411">
        <ele>130.5</ele>
        <time>2026-08-20T10:51:39Z</time>
      </trkpt>
      <trkpt lat="49.16471" lon="4.07411">
        <ele>130.5</ele>
        <time>2026-08-20T10:51:44Z</time>
      </trkpt>
      <trkpt lat="49.16471" lon="4.07411">
        <ele>130.5</ele>
        <time>2026-08-20T10:51:50Z</time>
      </trkpt>
      <trkpt lat="49.16471" lon="4.07411">
        <ele>130.5</ele>
        <time>2026-08-20T10:51:55Z</time>
      </trkpt>
      <trkpt lat="49.16471" lon="4.07411">
        <ele>130.5</ele>
        <time>2026-08-20T10:52:00Z</time>
      </trkpt>
      <trkpt lat="49.16467" lon="4.07416">
        <ele>130.6</ele>
        <time>2026-08-20T10:52:06Z</time>
      </trkpt>
      <trkpt lat="49.16466" lon="4.07417">
        <ele>130.6</ele>
        <time>2026-08-20T10:52:11Z</time>
      </trkpt>
      <trkpt lat="49.16466" lon="4.07417">
        <ele>130.6</ele>
        <time>2026-08-20T10:52:16Z</time>
      </trkpt>
      <trkpt lat="49.16463" lon="4.07421">
        <ele>130.7</ele>
        <time>2026-08-20T10:52:22Z</time>
      </trkpt>
      <trkpt lat="49.16459" lon="4.07426">
        <ele>130.8</ele>
        <time>2026-08-20T10:52:27Z</time>
      </trkpt>
      <trkpt lat="49.16454" lon="4.07431">
        <ele>130.9</ele>
        <time>2026-08-20T10:52:32Z</time>
      </trkpt>
      <trkpt lat="49.16449" lon="4.07438">
        <ele>131</ele>
        <time>2026-08-20T10:52:38Z</time>
      </trkpt>
      <trkpt lat="49.16445" lon="4.07444">
        <ele>131</ele>
        <time>2026-08-20T10:52:43Z</time>
      </trkpt>
      <trkpt lat="49.16441" lon="4.0745">
        <ele>131</ele>
        <time>2026-08-20T10:52:48Z</time>
      </trkpt>
      <trkpt lat="49.16436" lon="4.07459">
        <ele>130.9</ele>
        <time>2026-08-20T10:52:54Z</time>
      </trkpt>
      <trkpt lat="49.16431" lon="4.07465">
        <ele>130.9</ele>
        <time>2026-08-20T10:52:59Z</time>
      </trkpt>
      <trkpt lat="49.16426" lon="4.07471">
        <ele>130.8</ele>
        <time>2026-08-20T10:53:04Z</time>
      </trkpt>
      <trkpt lat="49.16419" lon="4.07473">
        <ele>130.9</ele>
        <time>2026-08-20T10:53:10Z</time>
      </trkpt>
      <trkpt lat="49.16413" lon="4.07474">
        <ele>130.9</ele>
        <time>2026-08-20T10:53:15Z</time>
      </trkpt>
      <trkpt lat="49.16408" lon="4.07475">
        <ele>130.8</ele>
        <time>2026-08-20T10:53:20Z</time>
      </trkpt>
      <trkpt lat="49.164" lon="4.07473">
        <ele>130.8</ele>
        <time>2026-08-20T10:53:26Z</time>
      </trkpt>
      <trkpt lat="49.16395" lon="4.07472">
        <ele>130.8</ele>
        <time>2026-08-20T10:53:31Z</time>
      </trkpt>
      <trkpt lat="49.16389" lon="4.07471">
        <ele>130.8</ele>
        <time>2026-08-20T10:53:36Z</time>
      </trkpt>
      <trkpt lat="49.16382" lon="4.07471">
        <ele>130.8</ele>
        <time>2026-08-20T10:53:42Z</time>
      </trkpt>
      <trkpt lat="49.16377" lon="4.07471">
        <ele>130.7</ele>
        <time>2026-08-20T10:53:47Z</time>
      </trkpt>
      <trkpt lat="49.16372" lon="4.07472">
        <ele>130.7</ele>
        <time>2026-08-20T10:53:52Z</time>
      </trkpt>
      <trkpt lat="49.16368" lon="4.07476">
        <ele>130.4</ele>
        <time>2026-08-20T10:53:58Z</time>
      </trkpt>
      <trkpt lat="49.16368" lon="4.07476">
        <ele>130.4</ele>
        <time>2026-08-20T10:54:03Z</time>
      </trkpt>
      <trkpt lat="49.16368" lon="4.07476">
        <ele>130.4</ele>
        <time>2026-08-20T10:54:08Z</time>
      </trkpt>
      <trkpt lat="49.16368" lon="4.07476">
        <ele>130.4</ele>
        <time>2026-08-20T10:54:14Z</time>
      </trkpt>
      <trkpt lat="49.16368" lon="4.07476">
        <ele>130.4</ele>
        <time>2026-08-20T10:54:19Z</time>
      </trkpt>
      <trkpt lat="49.16368" lon="4.07476">
        <ele>130.4</ele>
        <time>2026-08-20T10:54:24Z</time>
      </trkpt>
      <trkpt lat="49.16368" lon="4.07476">
        <ele>130.4</ele>
        <time>2026-08-20T10:54:30Z</time>
      </trkpt>
      <trkpt lat="49.16368" lon="4.07476">
        <ele>130.4</ele>
        <time>2026-08-20T10:54:35Z</time>
      </trkpt>
      <trkpt lat="49.16368" lon="4.07476">
        <ele>130.4</ele>
        <time>2026-08-20T10:54:40Z</time>
      </trkpt>
      <trkpt lat="49.16368" lon="4.07476">
        <ele>130.4</ele>
        <time>2026-08-20T10:54:46Z</time>
      </trkpt>
      <trkpt lat="49.16368" lon="4.07476">
        <ele>130.4</ele>
        <time>2026-08-20T10:54:51Z</time>
      </trkpt>
      <trkpt lat="49.16368" lon="4.07476">
        <ele>130.4</ele>
        <time>2026-08-20T10:54:56Z</time>
      </trkpt>
      <trkpt lat="49.16368" lon="4.07476">
        <ele>130.4</ele>
        <time>2026-08-20T10:55:02Z</time>
      </trkpt>
      <trkpt lat="49.16368" lon="4.07476">
        <ele>130.4</ele>
        <time>2026-08-20T10:55:07Z</time>
      </trkpt>
      <trkpt lat="49.16368" lon="4.07476">
        <ele>130.4</ele>
        <time>2026-08-20T10:55:12Z</time>
      </trkpt>
      <trkpt lat="49.16367" lon="4.07478">
        <ele>130.4</ele>
        <time>2026-08-20T10:55:18Z</time>
      </trkpt>
      <trkpt lat="49.16366" lon="4.07479">
        <ele>130.3</ele>
        <time>2026-08-20T10:55:23Z</time>
      </trkpt>
      <trkpt lat="49.16366" lon="4.07479">
        <ele>130.3</ele>
        <time>2026-08-20T10:55:28Z</time>
      </trkpt>
      <trkpt lat="49.16366" lon="4.07479">
        <ele>130.3</ele>
        <time>2026-08-20T10:55:34Z</time>
      </trkpt>
      <trkpt lat="49.16366" lon="4.07479">
        <ele>130.3</ele>
        <time>2026-08-20T10:55:39Z</time>
      </trkpt>
      <trkpt lat="49.16366" lon="4.07479">
        <ele>130.3</ele>
        <time>2026-08-20T10:55:44Z</time>
      </trkpt>
      <trkpt lat="49.16366" lon="4.07479">
        <ele>130.3</ele>
        <time>2026-08-20T10:55:50Z</time>
      </trkpt>
      <trkpt lat="49.16366" lon="4.07479">
        <ele>130.3</ele>
        <time>2026-08-20T10:55:55Z</time>
      </trkpt>
      <trkpt lat="49.16366" lon="4.07479">
        <ele>130.3</ele>
        <time>2026-08-20T10:56:00Z</time>
      </trkpt>
      <trkpt lat="49.16366" lon="4.07479">
        <ele>130.3</ele>
        <time>2026-08-20T10:56:06Z</time>
      </trkpt>
      <trkpt lat="49.16366" lon="4.07479">
        <ele>130.3</ele>
        <time>2026-08-20T10:56:11Z</time>
      </trkpt>
      <trkpt lat="49.16366" lon="4.07479">
        <ele>130.3</ele>
        <time>2026-08-20T10:56:16Z</time>
      </trkpt>
      <trkpt lat="49.16364" lon="4.07487">
        <ele>129.9</ele>
        <time>2026-08-20T10:56:22Z</time>
      </trkpt>
      <trkpt lat="49.16362" lon="4.07491">
        <ele>129.7</ele>
        <time>2026-08-20T10:56:27Z</time>
      </trkpt>
      <trkpt lat="49.16362" lon="4.07492">
        <ele>129.7</ele>
        <time>2026-08-20T10:56:32Z</time>
      </trkpt>
      <trkpt lat="49.16361" lon="4.07494">
        <ele>129.6</ele>
        <time>2026-08-20T10:56:38Z</time>
      </trkpt>
      <trkpt lat="49.16361" lon="4.07496">
        <ele>129.5</ele>
        <time>2026-08-20T10:56:43Z</time>
      </trkpt>
      <trkpt lat="49.1636" lon="4.07503">
        <ele>129.2</ele>
        <time>2026-08-20T10:56:48Z</time>
      </trkpt>
      <trkpt lat="49.16356" lon="4.07511">
        <ele>128.7</ele>
        <time>2026-08-20T10:56:54Z</time>
      </trkpt>
      <trkpt lat="49.16353" lon="4.07516">
        <ele>128.4</ele>
        <time>2026-08-20T10:56:59Z</time>
      </trkpt>
      <trkpt lat="49.16353" lon="4.07516">
        <ele>128.4</ele>
        <time>2026-08-20T10:57:04Z</time>
      </trkpt>
      <trkpt lat="49.16352" lon="4.07515">
        <ele>128.4</ele>
        <time>2026-08-20T10:57:10Z</time>
      </trkpt>
      <trkpt lat="49.16345" lon="4.07513">
        <ele>128.4</ele>
        <time>2026-08-20T10:57:15Z</time>
      </trkpt>
      <trkpt lat="49.1634" lon="4.0751">
        <ele>128.5</ele>
        <time>2026-08-20T10:57:20Z</time>
      </trkpt>
      <trkpt lat="49.16333" lon="4.07506">
        <ele>128.6</ele>
        <time>2026-08-20T10:57:26Z</time>
      </trkpt>
      <trkpt lat="49.16327" lon="4.07503">
        <ele>128.7</ele>
        <time>2026-08-20T10:57:31Z</time>
      </trkpt>
      <trkpt lat="49.16321" lon="4.07499">
        <ele>128.9</ele>
        <time>2026-08-20T10:57:36Z</time>
      </trkpt>
      <trkpt lat="49.16316" lon="4.07494">
        <ele>129.1</ele>
        <time>2026-08-20T10:57:42Z</time>
      </trkpt>
      <trkpt lat="49.1631" lon="4.07491">
        <ele>129.2</ele>
        <time>2026-08-20T10:57:47Z</time>
      </trkpt>
      <trkpt lat="49.16305" lon="4.07487">
        <ele>129.3</ele>
        <time>2026-08-20T10:57:52Z</time>
      </trkpt>
      <trkpt lat="49.16299" lon="4.07481">
        <ele>129.5</ele>
        <time>2026-08-20T10:57:58Z</time>
      </trkpt>
      <trkpt lat="49.16293" lon="4.07478">
        <ele>129.6</ele>
        <time>2026-08-20T10:58:03Z</time>
      </trkpt>
      <trkpt lat="49.16288" lon="4.07474">
        <ele>129.7</ele>
        <time>2026-08-20T10:58:08Z</time>
      </trkpt>
      <trkpt lat="49.16281" lon="4.0747">
        <ele>129.8</ele>
        <time>2026-08-20T10:58:14Z</time>
      </trkpt>
      <trkpt lat="49.16276" lon="4.07466">
        <ele>129.9</ele>
        <time>2026-08-20T10:58:19Z</time>
      </trkpt>
      <trkpt lat="49.1627" lon="4.07463">
        <ele>130</ele>
        <time>2026-08-20T10:58:24Z</time>
      </trkpt>
      <trkpt lat="49.16264" lon="4.0746">
        <ele>130.1</ele>
        <time>2026-08-20T10:58:30Z</time>
      </trkpt>
      <trkpt lat="49.16257" lon="4.07457">
        <ele>130.1</ele>
        <time>2026-08-20T10:58:35Z</time>
      </trkpt>
      <trkpt lat="49.16251" lon="4.07455">
        <ele>130.2</ele>
        <time>2026-08-20T10:58:40Z</time>
      </trkpt>
      <trkpt lat="49.16244" lon="4.07455">
        <ele>129.9</ele>
        <time>2026-08-20T10:58:46Z</time>
      </trkpt>
      <trkpt lat="49.16238" lon="4.07455">
        <ele>129.7</ele>
        <time>2026-08-20T10:58:51Z</time>
      </trkpt>
      <trkpt lat="49.16231" lon="4.07456">
        <ele>129.3</ele>
        <time>2026-08-20T10:58:56Z</time>
      </trkpt>
      <trkpt lat="49.16224" lon="4.07456">
        <ele>129</ele>
        <time>2026-08-20T10:59:02Z</time>
      </trkpt>
      <trkpt lat="49.16218" lon="4.07458">
        <ele>128.7</ele>
        <time>2026-08-20T10:59:07Z</time>
      </trkpt>
      <trkpt lat="49.16212" lon="4.07459">
        <ele>128.4</ele>
        <time>2026-08-20T10:59:12Z</time>
      </trkpt>
      <trkpt lat="49.16205" lon="4.07463">
        <ele>127.9</ele>
        <time>2026-08-20T10:59:18Z</time>
      </trkpt>
      <trkpt lat="49.16199" lon="4.07465">
        <ele>127.6</ele>
        <time>2026-08-20T10:59:23Z</time>
      </trkpt>
      <trkpt lat="49.16193" lon="4.07468">
        <ele>127.2</ele>
        <time>2026-08-20T10:59:28Z</time>
      </trkpt>
      <trkpt lat="49.16186" lon="4.07471">
        <ele>126.8</ele>
        <time>2026-08-20T10:59:34Z</time>
      </trkpt>
      <trkpt lat="49.1618" lon="4.07473">
        <ele>126.5</ele>
        <time>2026-08-20T10:59:39Z</time>
      </trkpt>
      <trkpt lat="49.16173" lon="4.07474">
        <ele>126.2</ele>
        <time>2026-08-20T10:59:44Z</time>
      </trkpt>
      <trkpt lat="49.16166" lon="4.07474">
        <ele>125.9</ele>
        <time>2026-08-20T10:59:50Z</time>
      </trkpt>
      <trkpt lat="49.16159" lon="4.07475">
        <ele>125.9</ele>
        <time>2026-08-20T10:59:55Z</time>
      </trkpt>
      <trkpt lat="49.16153" lon="4.07478">
        <ele>125.7</ele>
        <time>2026-08-20T11:00:00Z</time>
      </trkpt>
      <trkpt lat="49.16149" lon="4.07478">
        <ele>125.7</ele>
        <time>2026-08-20T11:00:06Z</time>
      </trkpt>
      <trkpt lat="49.16143" lon="4.07478">
        <ele>125.7</ele>
        <time>2026-08-20T11:00:11Z</time>
      </trkpt>
      <trkpt lat="49.16137" lon="4.07478">
        <ele>125.7</ele>
        <time>2026-08-20T11:00:16Z</time>
      </trkpt>
      <trkpt lat="49.1613" lon="4.07479">
        <ele>125.6</ele>
        <time>2026-08-20T11:00:22Z</time>
      </trkpt>
      <trkpt lat="49.16123" lon="4.0748">
        <ele>125.6</ele>
        <time>2026-08-20T11:00:27Z</time>
      </trkpt>
      <trkpt lat="49.16117" lon="4.07481">
        <ele>125.5</ele>
        <time>2026-08-20T11:00:32Z</time>
      </trkpt>
      <trkpt lat="49.16108" lon="4.07482">
        <ele>125.5</ele>
        <time>2026-08-20T11:00:38Z</time>
      </trkpt>
      <trkpt lat="49.16102" lon="4.07482">
        <ele>125.5</ele>
        <time>2026-08-20T11:00:43Z</time>
      </trkpt>
      <trkpt lat="49.16095" lon="4.07482">
        <ele>125.5</ele>
        <time>2026-08-20T11:00:48Z</time>
      </trkpt>
      <trkpt lat="49.16087" lon="4.07485">
        <ele>125.4</ele>
        <time>2026-08-20T11:00:54Z</time>
      </trkpt>
      <trkpt lat="49.1608" lon="4.07488">
        <ele>125.3</ele>
        <time>2026-08-20T11:00:59Z</time>
      </trkpt>
      <trkpt lat="49.16075" lon="4.0749">
        <ele>125.3</ele>
        <time>2026-08-20T11:01:04Z</time>
      </trkpt>
      <trkpt lat="49.16067" lon="4.07494">
        <ele>125.3</ele>
        <time>2026-08-20T11:01:10Z</time>
      </trkpt>
      <trkpt lat="49.16061" lon="4.07497">
        <ele>125.3</ele>
        <time>2026-08-20T11:01:15Z</time>
      </trkpt>
      <trkpt lat="49.16054" lon="4.075">
        <ele>125.4</ele>
        <time>2026-08-20T11:01:20Z</time>
      </trkpt>
      <trkpt lat="49.16047" lon="4.07503">
        <ele>125.5</ele>
        <time>2026-08-20T11:01:26Z</time>
      </trkpt>
      <trkpt lat="49.16041" lon="4.07507">
        <ele>125.6</ele>
        <time>2026-08-20T11:01:31Z</time>
      </trkpt>
      <trkpt lat="49.16036" lon="4.07511">
        <ele>125.7</ele>
        <time>2026-08-20T11:01:36Z</time>
      </trkpt>
      <trkpt lat="49.16028" lon="4.07514">
        <ele>125.9</ele>
        <time>2026-08-20T11:01:42Z</time>
      </trkpt>
      <trkpt lat="49.16022" lon="4.07517">
        <ele>126</ele>
        <time>2026-08-20T11:01:47Z</time>
      </trkpt>
      <trkpt lat="49.16017" lon="4.0752">
        <ele>126.2</ele>
        <time>2026-08-20T11:01:52Z</time>
      </trkpt>
      <trkpt lat="49.16009" lon="4.07524">
        <ele>126.4</ele>
        <time>2026-08-20T11:01:58Z</time>
      </trkpt>
      <trkpt lat="49.16003" lon="4.07527">
        <ele>126.6</ele>
        <time>2026-08-20T11:02:03Z</time>
      </trkpt>
      <trkpt lat="49.15996" lon="4.0753">
        <ele>126.8</ele>
        <time>2026-08-20T11:02:08Z</time>
      </trkpt>
      <trkpt lat="49.1599" lon="4.07534">
        <ele>127.1</ele>
        <time>2026-08-20T11:02:14Z</time>
      </trkpt>
      <trkpt lat="49.15983" lon="4.07538">
        <ele>127.4</ele>
        <time>2026-08-20T11:02:19Z</time>
      </trkpt>
      <trkpt lat="49.15977" lon="4.07542">
        <ele>127.7</ele>
        <time>2026-08-20T11:02:24Z</time>
      </trkpt>
      <trkpt lat="49.1597" lon="4.07546">
        <ele>128</ele>
        <time>2026-08-20T11:02:30Z</time>
      </trkpt>
      <trkpt lat="49.15964" lon="4.0755">
        <ele>128.2</ele>
        <time>2026-08-20T11:02:35Z</time>
      </trkpt>
      <trkpt lat="49.15959" lon="4.07553">
        <ele>128.4</ele>
        <time>2026-08-20T11:02:40Z</time>
      </trkpt>
      <trkpt lat="49.15951" lon="4.07556">
        <ele>128.7</ele>
        <time>2026-08-20T11:02:46Z</time>
      </trkpt>
      <trkpt lat="49.15946" lon="4.07559">
        <ele>128.9</ele>
        <time>2026-08-20T11:02:51Z</time>
      </trkpt>
      <trkpt lat="49.15941" lon="4.07561">
        <ele>129.1</ele>
        <time>2026-08-20T11:02:56Z</time>
      </trkpt>
      <trkpt lat="49.15934" lon="4.07565">
        <ele>129.3</ele>
        <time>2026-08-20T11:03:02Z</time>
      </trkpt>
      <trkpt lat="49.15929" lon="4.07568">
        <ele>129.5</ele>
        <time>2026-08-20T11:03:07Z</time>
      </trkpt>
      <trkpt lat="49.15924" lon="4.07572">
        <ele>129.7</ele>
        <time>2026-08-20T11:03:12Z</time>
      </trkpt>
      <trkpt lat="49.15917" lon="4.07574">
        <ele>129.9</ele>
        <time>2026-08-20T11:03:18Z</time>
      </trkpt>
      <trkpt lat="49.15914" lon="4.07575">
        <ele>130.1</ele>
        <time>2026-08-20T11:03:23Z</time>
      </trkpt>
      <trkpt lat="49.15912" lon="4.07583">
        <ele>130.3</ele>
        <time>2026-08-20T11:03:28Z</time>
      </trkpt>
      <trkpt lat="49.15908" lon="4.07592">
        <ele>130.6</ele>
        <time>2026-08-20T11:03:34Z</time>
      </trkpt>
      <trkpt lat="49.15905" lon="4.07598">
        <ele>130.9</ele>
        <time>2026-08-20T11:03:39Z</time>
      </trkpt>
      <trkpt lat="49.15902" lon="4.07604">
        <ele>131.1</ele>
        <time>2026-08-20T11:03:44Z</time>
      </trkpt>
      <trkpt lat="49.15899" lon="4.07613">
        <ele>131.3</ele>
        <time>2026-08-20T11:03:50Z</time>
      </trkpt>
      <trkpt lat="49.15895" lon="4.07618">
        <ele>131.6</ele>
        <time>2026-08-20T11:03:55Z</time>
      </trkpt>
      <trkpt lat="49.15891" lon="4.07622">
        <ele>131.9</ele>
        <time>2026-08-20T11:04:00Z</time>
      </trkpt>
      <trkpt lat="49.15884" lon="4.07623">
        <ele>132.2</ele>
        <time>2026-08-20T11:04:06Z</time>
      </trkpt>
      <trkpt lat="49.15878" lon="4.07624">
        <ele>132.6</ele>
        <time>2026-08-20T11:04:11Z</time>
      </trkpt>
      <trkpt lat="49.15872" lon="4.07626">
        <ele>132.9</ele>
        <time>2026-08-20T11:04:16Z</time>
      </trkpt>
      <trkpt lat="49.15867" lon="4.07632">
        <ele>133.2</ele>
        <time>2026-08-20T11:04:22Z</time>
      </trkpt>
      <trkpt lat="49.15863" lon="4.07638">
        <ele>133.5</ele>
        <time>2026-08-20T11:04:27Z</time>
      </trkpt>
      <trkpt lat="49.1586" lon="4.07644">
        <ele>133.6</ele>
        <time>2026-08-20T11:04:32Z</time>
      </trkpt>
      <trkpt lat="49.15856" lon="4.07653">
        <ele>133.9</ele>
        <time>2026-08-20T11:04:38Z</time>
      </trkpt>
      <trkpt lat="49.15852" lon="4.07661">
        <ele>134.1</ele>
        <time>2026-08-20T11:04:43Z</time>
      </trkpt>
      <trkpt lat="49.15848" lon="4.07668">
        <ele>134.3</ele>
        <time>2026-08-20T11:04:48Z</time>
      </trkpt>
      <trkpt lat="49.15843" lon="4.07674">
        <ele>134.4</ele>
        <time>2026-08-20T11:04:54Z</time>
      </trkpt>
      <trkpt lat="49.15838" lon="4.07678">
        <ele>134.6</ele>
        <time>2026-08-20T11:04:59Z</time>
      </trkpt>
      <trkpt lat="49.15833" lon="4.07683">
        <ele>134.8</ele>
        <time>2026-08-20T11:05:04Z</time>
      </trkpt>
      <trkpt lat="49.15827" lon="4.07689">
        <ele>134.9</ele>
        <time>2026-08-20T11:05:10Z</time>
      </trkpt>
      <trkpt lat="49.15821" lon="4.07694">
        <ele>135.1</ele>
        <time>2026-08-20T11:05:15Z</time>
      </trkpt>
      <trkpt lat="49.15816" lon="4.07698">
        <ele>135.2</ele>
        <time>2026-08-20T11:05:20Z</time>
      </trkpt>
      <trkpt lat="49.15809" lon="4.07702">
        <ele>135.3</ele>
        <time>2026-08-20T11:05:26Z</time>
      </trkpt>
      <trkpt lat="49.15803" lon="4.07706">
        <ele>135.4</ele>
        <time>2026-08-20T11:05:31Z</time>
      </trkpt>
      <trkpt lat="49.15797" lon="4.0771">
        <ele>135.6</ele>
        <time>2026-08-20T11:05:36Z</time>
      </trkpt>
      <trkpt lat="49.15791" lon="4.07717">
        <ele>135.6</ele>
        <time>2026-08-20T11:05:42Z</time>
      </trkpt>
      <trkpt lat="49.15787" lon="4.07722">
        <ele>135.6</ele>
        <time>2026-08-20T11:05:47Z</time>
      </trkpt>
      <trkpt lat="49.15785" lon="4.0772">
        <ele>135.7</ele>
        <time>2026-08-20T11:05:52Z</time>
      </trkpt>
      <trkpt lat="49.15785" lon="4.0772">
        <ele>135.7</ele>
        <time>2026-08-20T11:05:58Z</time>
      </trkpt>
      <trkpt lat="49.15785" lon="4.0772">
        <ele>135.7</ele>
        <time>2026-08-20T11:06:03Z</time>
      </trkpt>
      <trkpt lat="49.15781" lon="4.07726">
        <ele>135.7</ele>
        <time>2026-08-20T11:06:08Z</time>
      </trkpt>
      <trkpt lat="49.15777" lon="4.07733">
        <ele>135.7</ele>
        <time>2026-08-20T11:06:14Z</time>
      </trkpt>
      <trkpt lat="49.15775" lon="4.07739">
        <ele>135.6</ele>
        <time>2026-08-20T11:06:19Z</time>
      </trkpt>
      <trkpt lat="49.1577" lon="4.07745">
        <ele>135.6</ele>
        <time>2026-08-20T11:06:24Z</time>
      </trkpt>
      <trkpt lat="49.15764" lon="4.07754">
        <ele>135.7</ele>
        <time>2026-08-20T11:06:30Z</time>
      </trkpt>
      <trkpt lat="49.1576" lon="4.0776">
        <ele>135.8</ele>
        <time>2026-08-20T11:06:35Z</time>
      </trkpt>
      <trkpt lat="49.15755" lon="4.07766">
        <ele>136</ele>
        <time>2026-08-20T11:06:40Z</time>
      </trkpt>
      <trkpt lat="49.1575" lon="4.07774">
        <ele>136.3</ele>
        <time>2026-08-20T11:06:46Z</time>
      </trkpt>
      <trkpt lat="49.15745" lon="4.0778">
        <ele>136.7</ele>
        <time>2026-08-20T11:06:51Z</time>
      </trkpt>
      <trkpt lat="49.15741" lon="4.07787">
        <ele>137</ele>
        <time>2026-08-20T11:06:56Z</time>
      </trkpt>
      <trkpt lat="49.15736" lon="4.07795">
        <ele>137.4</ele>
        <time>2026-08-20T11:07:02Z</time>
      </trkpt>
      <trkpt lat="49.15731" lon="4.07801">
        <ele>137.8</ele>
        <time>2026-08-20T11:07:07Z</time>
      </trkpt>
      <trkpt lat="49.15726" lon="4.07806">
        <ele>138.1</ele>
        <time>2026-08-20T11:07:12Z</time>
      </trkpt>
      <trkpt lat="49.15721" lon="4.07814">
        <ele>138.5</ele>
        <time>2026-08-20T11:07:18Z</time>
      </trkpt>
      <trkpt lat="49.15716" lon="4.0782">
        <ele>138.9</ele>
        <time>2026-08-20T11:07:23Z</time>
      </trkpt>
      <trkpt lat="49.15711" lon="4.07826">
        <ele>139.3</ele>
        <time>2026-08-20T11:07:28Z</time>
      </trkpt>
      <trkpt lat="49.15706" lon="4.07834">
        <ele>139.6</ele>
        <time>2026-08-20T11:07:34Z</time>
      </trkpt>
      <trkpt lat="49.15702" lon="4.07843">
        <ele>139.9</ele>
        <time>2026-08-20T11:07:39Z</time>
      </trkpt>
      <trkpt lat="49.15699" lon="4.07851">
        <ele>140.2</ele>
        <time>2026-08-20T11:07:44Z</time>
      </trkpt>
      <trkpt lat="49.15698" lon="4.0786">
        <ele>140.3</ele>
        <time>2026-08-20T11:07:50Z</time>
      </trkpt>
      <trkpt lat="49.15696" lon="4.07868">
        <ele>140.5</ele>
        <time>2026-08-20T11:07:55Z</time>
      </trkpt>
      <trkpt lat="49.15693" lon="4.07877">
        <ele>140.8</ele>
        <time>2026-08-20T11:08:00Z</time>
      </trkpt>
      <trkpt lat="49.15693" lon="4.07887">
        <ele>140.9</ele>
        <time>2026-08-20T11:08:06Z</time>
      </trkpt>
      <trkpt lat="49.15692" lon="4.07895">
        <ele>141</ele>
        <time>2026-08-20T11:08:11Z</time>
      </trkpt>
      <trkpt lat="49.1569" lon="4.07903">
        <ele>141.2</ele>
        <time>2026-08-20T11:08:16Z</time>
      </trkpt>
      <trkpt lat="49.15688" lon="4.07915">
        <ele>141.4</ele>
        <time>2026-08-20T11:08:22Z</time>
      </trkpt>
      <trkpt lat="49.15684" lon="4.07922">
        <ele>141.8</ele>
        <time>2026-08-20T11:08:27Z</time>
      </trkpt>
      <trkpt lat="49.15676" lon="4.07923">
        <ele>142.3</ele>
        <time>2026-08-20T11:08:32Z</time>
      </trkpt>
      <trkpt lat="49.1567" lon="4.07924">
        <ele>142.8</ele>
        <time>2026-08-20T11:08:38Z</time>
      </trkpt>
      <trkpt lat="49.1567" lon="4.07925">
        <ele>142.8</ele>
        <time>2026-08-20T11:08:43Z</time>
      </trkpt>
      <trkpt lat="49.15669" lon="4.07925">
        <ele>142.8</ele>
        <time>2026-08-20T11:08:48Z</time>
      </trkpt>
      <trkpt lat="49.15669" lon="4.07925">
        <ele>142.8</ele>
        <time>2026-08-20T11:08:54Z</time>
      </trkpt>
      <trkpt lat="49.15669" lon="4.07925">
        <ele>142.8</ele>
        <time>2026-08-20T11:08:59Z</time>
      </trkpt>
      <trkpt lat="49.15669" lon="4.07925">
        <ele>142.8</ele>
        <time>2026-08-20T11:09:04Z</time>
      </trkpt>
      <trkpt lat="49.15669" lon="4.07925">
        <ele>142.8</ele>
        <time>2026-08-20T11:09:10Z</time>
      </trkpt>
      <trkpt lat="49.15669" lon="4.07925">
        <ele>142.8</ele>
        <time>2026-08-20T11:09:15Z</time>
      </trkpt>
      <trkpt lat="49.15669" lon="4.07925">
        <ele>142.8</ele>
        <time>2026-08-20T11:09:20Z</time>
      </trkpt>
      <trkpt lat="49.15667" lon="4.07927">
        <ele>143</ele>
        <time>2026-08-20T11:09:26Z</time>
      </trkpt>
      <trkpt lat="49.15661" lon="4.07924">
        <ele>143.3</ele>
        <time>2026-08-20T11:09:31Z</time>
      </trkpt>
      <trkpt lat="49.15655" lon="4.07924">
        <ele>143.6</ele>
        <time>2026-08-20T11:09:36Z</time>
      </trkpt>
      <trkpt lat="49.15649" lon="4.07925">
        <ele>143.9</ele>
        <time>2026-08-20T11:09:42Z</time>
      </trkpt>
      <trkpt lat="49.15643" lon="4.07927">
        <ele>144.2</ele>
        <time>2026-08-20T11:09:47Z</time>
      </trkpt>
      <trkpt lat="49.15638" lon="4.07929">
        <ele>144.4</ele>
        <time>2026-08-20T11:09:52Z</time>
      </trkpt>
      <trkpt lat="49.15631" lon="4.07934">
        <ele>144.8</ele>
        <time>2026-08-20T11:09:58Z</time>
      </trkpt>
      <trkpt lat="49.15625" lon="4.07938">
        <ele>145.1</ele>
        <time>2026-08-20T11:10:03Z</time>
      </trkpt>
      <trkpt lat="49.1562" lon="4.07944">
        <ele>145.4</ele>
        <time>2026-08-20T11:10:08Z</time>
      </trkpt>
      <trkpt lat="49.15615" lon="4.07952">
        <ele>145.7</ele>
        <time>2026-08-20T11:10:14Z</time>
      </trkpt>
      <trkpt lat="49.15611" lon="4.07959">
        <ele>146</ele>
        <time>2026-08-20T11:10:19Z</time>
      </trkpt>
      <trkpt lat="49.15606" lon="4.07962">
        <ele>146.3</ele>
        <time>2026-08-20T11:10:24Z</time>
      </trkpt>
      <trkpt lat="49.15599" lon="4.07965">
        <ele>146.7</ele>
        <time>2026-08-20T11:10:30Z</time>
      </trkpt>
      <trkpt lat="49.15593" lon="4.07966">
        <ele>147.1</ele>
        <time>2026-08-20T11:10:35Z</time>
      </trkpt>
      <trkpt lat="49.15587" lon="4.07968">
        <ele>147.4</ele>
        <time>2026-08-20T11:10:40Z</time>
      </trkpt>
      <trkpt lat="49.15581" lon="4.07975">
        <ele>147.8</ele>
        <time>2026-08-20T11:10:46Z</time>
      </trkpt>
      <trkpt lat="49.15575" lon="4.07977">
        <ele>148.2</ele>
        <time>2026-08-20T11:10:51Z</time>
      </trkpt>
      <trkpt lat="49.15569" lon="4.07979">
        <ele>148.6</ele>
        <time>2026-08-20T11:10:56Z</time>
      </trkpt>
      <trkpt lat="49.15562" lon="4.07981">
        <ele>149.1</ele>
        <time>2026-08-20T11:11:02Z</time>
      </trkpt>
      <trkpt lat="49.15556" lon="4.07983">
        <ele>149.4</ele>
        <time>2026-08-20T11:11:07Z</time>
      </trkpt>
      <trkpt lat="49.1555" lon="4.07985">
        <ele>149.8</ele>
        <time>2026-08-20T11:11:12Z</time>
      </trkpt>
      <trkpt lat="49.15542" lon="4.07987">
        <ele>150.3</ele>
        <time>2026-08-20T11:11:18Z</time>
      </trkpt>
      <trkpt lat="49.15536" lon="4.07989">
        <ele>150.7</ele>
        <time>2026-08-20T11:11:23Z</time>
      </trkpt>
      <trkpt lat="49.15529" lon="4.07989">
        <ele>151.1</ele>
        <time>2026-08-20T11:11:28Z</time>
      </trkpt>
      <trkpt lat="49.15521" lon="4.07992">
        <ele>151.6</ele>
        <time>2026-08-20T11:11:34Z</time>
      </trkpt>
      <trkpt lat="49.15515" lon="4.07996">
        <ele>152.1</ele>
        <time>2026-08-20T11:11:39Z</time>
      </trkpt>
      <trkpt lat="49.1551" lon="4.07999">
        <ele>152.4</ele>
        <time>2026-08-20T11:11:44Z</time>
      </trkpt>
      <trkpt lat="49.15503" lon="4.08003">
        <ele>152.9</ele>
        <time>2026-08-20T11:11:50Z</time>
      </trkpt>
      <trkpt lat="49.15497" lon="4.08006">
        <ele>153.4</ele>
        <time>2026-08-20T11:11:55Z</time>
      </trkpt>
      <trkpt lat="49.15492" lon="4.08009">
        <ele>153.8</ele>
        <time>2026-08-20T11:12:00Z</time>
      </trkpt>
      <trkpt lat="49.15487" lon="4.08007">
        <ele>154</ele>
        <time>2026-08-20T11:12:06Z</time>
      </trkpt>
      <trkpt lat="49.15481" lon="4.08005">
        <ele>154.3</ele>
        <time>2026-08-20T11:12:11Z</time>
      </trkpt>
      <trkpt lat="49.15476" lon="4.08004">
        <ele>154.6</ele>
        <time>2026-08-20T11:12:16Z</time>
      </trkpt>
      <trkpt lat="49.15469" lon="4.08001">
        <ele>154.9</ele>
        <time>2026-08-20T11:12:22Z</time>
      </trkpt>
      <trkpt lat="49.15463" lon="4.08001">
        <ele>155.2</ele>
        <time>2026-08-20T11:12:27Z</time>
      </trkpt>
      <trkpt lat="49.15458" lon="4.07998">
        <ele>155.5</ele>
        <time>2026-08-20T11:12:32Z</time>
      </trkpt>
      <trkpt lat="49.15452" lon="4.07998">
        <ele>155.9</ele>
        <time>2026-08-20T11:12:38Z</time>
      </trkpt>
      <trkpt lat="49.15447" lon="4.07995">
        <ele>156.1</ele>
        <time>2026-08-20T11:12:43Z</time>
      </trkpt>
      <trkpt lat="49.15441" lon="4.07992">
        <ele>156.4</ele>
        <time>2026-08-20T11:12:48Z</time>
      </trkpt>
      <trkpt lat="49.15436" lon="4.07993">
        <ele>156.8</ele>
        <time>2026-08-20T11:12:54Z</time>
      </trkpt>
      <trkpt lat="49.15431" lon="4.07991">
        <ele>157</ele>
        <time>2026-08-20T11:12:59Z</time>
      </trkpt>
      <trkpt lat="49.15427" lon="4.07989">
        <ele>157.2</ele>
        <time>2026-08-20T11:13:04Z</time>
      </trkpt>
      <trkpt lat="49.15421" lon="4.07988">
        <ele>157.6</ele>
        <time>2026-08-20T11:13:10Z</time>
      </trkpt>
      <trkpt lat="49.15416" lon="4.07987">
        <ele>157.9</ele>
        <time>2026-08-20T11:13:15Z</time>
      </trkpt>
      <trkpt lat="49.15411" lon="4.07989">
        <ele>158.5</ele>
        <time>2026-08-20T11:13:20Z</time>
      </trkpt>
      <trkpt lat="49.15406" lon="4.07992">
        <ele>159.2</ele>
        <time>2026-08-20T11:13:26Z</time>
      </trkpt>
      <trkpt lat="49.15403" lon="4.07992">
        <ele>159.5</ele>
        <time>2026-08-20T11:13:31Z</time>
      </trkpt>
      <trkpt lat="49.15401" lon="4.07997">
        <ele>159.8</ele>
        <time>2026-08-20T11:13:36Z</time>
      </trkpt>
      <trkpt lat="49.15396" lon="4.08001">
        <ele>160.5</ele>
        <time>2026-08-20T11:13:42Z</time>
      </trkpt>
      <trkpt lat="49.15392" lon="4.08005">
        <ele>161</ele>
        <time>2026-08-20T11:13:47Z</time>
      </trkpt>
      <trkpt lat="49.15387" lon="4.08009">
        <ele>161.6</ele>
        <time>2026-08-20T11:13:52Z</time>
      </trkpt>
      <trkpt lat="49.1538" lon="4.08012">
        <ele>162.5</ele>
        <time>2026-08-20T11:13:58Z</time>
      </trkpt>
      <trkpt lat="49.15375" lon="4.08009">
        <ele>163.1</ele>
        <time>2026-08-20T11:14:03Z</time>
      </trkpt>
      <trkpt lat="49.15369" lon="4.08011">
        <ele>163.8</ele>
        <time>2026-08-20T11:14:08Z</time>
      </trkpt>
      <trkpt lat="49.15363" lon="4.08013">
        <ele>164.5</ele>
        <time>2026-08-20T11:14:14Z</time>
      </trkpt>
      <trkpt lat="49.15359" lon="4.08016">
        <ele>165</ele>
        <time>2026-08-20T11:14:19Z</time>
      </trkpt>
      <trkpt lat="49.15356" lon="4.08019">
        <ele>165.3</ele>
        <time>2026-08-20T11:14:24Z</time>
      </trkpt>
      <trkpt lat="49.15351" lon="4.08022">
        <ele>165.9</ele>
        <time>2026-08-20T11:14:30Z</time>
      </trkpt>
      <trkpt lat="49.15349" lon="4.08024">
        <ele>166.2</ele>
        <time>2026-08-20T11:14:35Z</time>
      </trkpt>
      <trkpt lat="49.15345" lon="4.08024">
        <ele>166.6</ele>
        <time>2026-08-20T11:14:40Z</time>
      </trkpt>
      <trkpt lat="49.15337" lon="4.08024">
        <ele>167.6</ele>
        <time>2026-08-20T11:14:46Z</time>
      </trkpt>
      <trkpt lat="49.15332" lon="4.08026">
        <ele>168.2</ele>
        <time>2026-08-20T11:14:51Z</time>
      </trkpt>
      <trkpt lat="49.15328" lon="4.08028">
        <ele>168.7</ele>
        <time>2026-08-20T11:14:56Z</time>
      </trkpt>
      <trkpt lat="49.15323" lon="4.08028">
        <ele>169.4</ele>
        <time>2026-08-20T11:15:02Z</time>
      </trkpt>
      <trkpt lat="49.15318" lon="4.08028">
        <ele>170.1</ele>
        <time>2026-08-20T11:15:07Z</time>
      </trkpt>
      <trkpt lat="49.15314" lon="4.0803">
        <ele>170.7</ele>
        <time>2026-08-20T11:15:12Z</time>
      </trkpt>
      <trkpt lat="49.15311" lon="4.08032">
        <ele>171.2</ele>
        <time>2026-08-20T11:15:18Z</time>
      </trkpt>
      <trkpt lat="49.1531" lon="4.08031">
        <ele>171.3</ele>
        <time>2026-08-20T11:15:23Z</time>
      </trkpt>
      <trkpt lat="49.1531" lon="4.0803">
        <ele>171.3</ele>
        <time>2026-08-20T11:15:28Z</time>
      </trkpt>
      <trkpt lat="49.1531" lon="4.0803">
        <ele>171.3</ele>
        <time>2026-08-20T11:15:34Z</time>
      </trkpt>
      <trkpt lat="49.1531" lon="4.0803">
        <ele>171.3</ele>
        <time>2026-08-20T11:15:39Z</time>
      </trkpt>
      <trkpt lat="49.1531" lon="4.0803">
        <ele>171.3</ele>
        <time>2026-08-20T11:15:44Z</time>
      </trkpt>
      <trkpt lat="49.1531" lon="4.0803">
        <ele>171.3</ele>
        <time>2026-08-20T11:15:50Z</time>
      </trkpt>
      <trkpt lat="49.1531" lon="4.0803">
        <ele>171.3</ele>
        <time>2026-08-20T11:15:55Z</time>
      </trkpt>
      <trkpt lat="49.1531" lon="4.0803">
        <ele>171.3</ele>
        <time>2026-08-20T11:16:00Z</time>
      </trkpt>
      <trkpt lat="49.1531" lon="4.0803">
        <ele>171.3</ele>
        <time>2026-08-20T11:16:06Z</time>
      </trkpt>
      <trkpt lat="49.1531" lon="4.0803">
        <ele>171.3</ele>
        <time>2026-08-20T11:16:11Z</time>
      </trkpt>
      <trkpt lat="49.1531" lon="4.0803">
        <ele>171.3</ele>
        <time>2026-08-20T11:16:16Z</time>
      </trkpt>
      <trkpt lat="49.15304" lon="4.08027">
        <ele>172.1</ele>
        <time>2026-08-20T11:16:22Z</time>
      </trkpt>
      <trkpt lat="49.15299" lon="4.08029">
        <ele>172.8</ele>
        <time>2026-08-20T11:16:27Z</time>
      </trkpt>
      <trkpt lat="49.15293" lon="4.0803">
        <ele>173.7</ele>
        <time>2026-08-20T11:16:32Z</time>
      </trkpt>
      <trkpt lat="49.15286" lon="4.08032">
        <ele>174.7</ele>
        <time>2026-08-20T11:16:38Z</time>
      </trkpt>
      <trkpt lat="49.15282" lon="4.08034">
        <ele>175.3</ele>
        <time>2026-08-20T11:16:43Z</time>
      </trkpt>
      <trkpt lat="49.15278" lon="4.08038">
        <ele>175.9</ele>
        <time>2026-08-20T11:16:48Z</time>
      </trkpt>
      <trkpt lat="49.15274" lon="4.08038">
        <ele>176.5</ele>
        <time>2026-08-20T11:16:54Z</time>
      </trkpt>
      <trkpt lat="49.15274" lon="4.08038">
        <ele>176.5</ele>
        <time>2026-08-20T11:16:59Z</time>
      </trkpt>
      <trkpt lat="49.15274" lon="4.08038">
        <ele>176.5</ele>
        <time>2026-08-20T11:17:04Z</time>
      </trkpt>
      <trkpt lat="49.15267" lon="4.08039">
        <ele>177.5</ele>
        <time>2026-08-20T11:17:10Z</time>
      </trkpt>
      <trkpt lat="49.15265" lon="4.08036">
        <ele>177.7</ele>
        <time>2026-08-20T11:17:15Z</time>
      </trkpt>
      <trkpt lat="49.15265" lon="4.08033">
        <ele>177.7</ele>
        <time>2026-08-20T11:17:20Z</time>
      </trkpt>
      <trkpt lat="49.15265" lon="4.08033">
        <ele>177.7</ele>
        <time>2026-08-20T11:17:26Z</time>
      </trkpt>
      <trkpt lat="49.15265" lon="4.08033">
        <ele>177.7</ele>
        <time>2026-08-20T11:17:31Z</time>
      </trkpt>
      <trkpt lat="49.15265" lon="4.08033">
        <ele>177.7</ele>
        <time>2026-08-20T11:17:36Z</time>
      </trkpt>
      <trkpt lat="49.15265" lon="4.08033">
        <ele>177.7</ele>
        <time>2026-08-20T11:17:42Z</time>
      </trkpt>
      <trkpt lat="49.15265" lon="4.08033">
        <ele>177.7</ele>
        <time>2026-08-20T11:17:47Z</time>
      </trkpt>
      <trkpt lat="49.15265" lon="4.08033">
        <ele>177.7</ele>
        <time>2026-08-20T11:17:52Z</time>
      </trkpt>
      <trkpt lat="49.15265" lon="4.08033">
        <ele>177.7</ele>
        <time>2026-08-20T11:17:58Z</time>
      </trkpt>
      <trkpt lat="49.15265" lon="4.08033">
        <ele>177.7</ele>
        <time>2026-08-20T11:18:03Z</time>
      </trkpt>
      <trkpt lat="49.15265" lon="4.08033">
        <ele>177.7</ele>
        <time>2026-08-20T11:18:08Z</time>
      </trkpt>
      <trkpt lat="49.15265" lon="4.08033">
        <ele>177.7</ele>
        <time>2026-08-20T11:18:14Z</time>
      </trkpt>
      <trkpt lat="49.15265" lon="4.08033">
        <ele>177.7</ele>
        <time>2026-08-20T11:18:19Z</time>
      </trkpt>
      <trkpt lat="49.15265" lon="4.08033">
        <ele>177.7</ele>
        <time>2026-08-20T11:18:24Z</time>
      </trkpt>
      <trkpt lat="49.15265" lon="4.08033">
        <ele>177.7</ele>
        <time>2026-08-20T11:18:30Z</time>
      </trkpt>
      <trkpt lat="49.15265" lon="4.08033">
        <ele>177.7</ele>
        <time>2026-08-20T11:18:35Z</time>
      </trkpt>
      <trkpt lat="49.15265" lon="4.08033">
        <ele>177.7</ele>
        <time>2026-08-20T11:18:40Z</time>
      </trkpt>
      <trkpt lat="49.15265" lon="4.08033">
        <ele>177.7</ele>
        <time>2026-08-20T11:18:46Z</time>
      </trkpt>
      <trkpt lat="49.15265" lon="4.08033">
        <ele>177.7</ele>
        <time>2026-08-20T11:18:51Z</time>
      </trkpt>
      <trkpt lat="49.15265" lon="4.08033">
        <ele>177.7</ele>
        <time>2026-08-20T11:18:56Z</time>
      </trkpt>
      <trkpt lat="49.15265" lon="4.08033">
        <ele>177.7</ele>
        <time>2026-08-20T11:19:02Z</time>
      </trkpt>
      <trkpt lat="49.15265" lon="4.08033">
        <ele>177.7</ele>
        <time>2026-08-20T11:19:07Z</time>
      </trkpt>
      <trkpt lat="49.15265" lon="4.08033">
        <ele>177.7</ele>
        <time>2026-08-20T11:19:12Z</time>
      </trkpt>
      <trkpt lat="49.15265" lon="4.08033">
        <ele>177.7</ele>
        <time>2026-08-20T11:19:18Z</time>
      </trkpt>
      <trkpt lat="49.15265" lon="4.08033">
        <ele>177.7</ele>
        <time>2026-08-20T11:19:23Z</time>
      </trkpt>
      <trkpt lat="49.15265" lon="4.08033">
        <ele>177.7</ele>
        <time>2026-08-20T11:19:28Z</time>
      </trkpt>
      <trkpt lat="49.15265" lon="4.08033">
        <ele>177.7</ele>
        <time>2026-08-20T11:19:34Z</time>
      </trkpt>
      <trkpt lat="49.15265" lon="4.08033">
        <ele>177.7</ele>
        <time>2026-08-20T11:19:39Z</time>
      </trkpt>
      <trkpt lat="49.15265" lon="4.08033">
        <ele>177.7</ele>
        <time>2026-08-20T11:19:44Z</time>
      </trkpt>
      <trkpt lat="49.15265" lon="4.08033">
        <ele>177.7</ele>
        <time>2026-08-20T11:19:50Z</time>
      </trkpt>
      <trkpt lat="49.15265" lon="4.08033">
        <ele>177.7</ele>
        <time>2026-08-20T11:19:55Z</time>
      </trkpt>
      <trkpt lat="49.15265" lon="4.08033">
        <ele>177.7</ele>
        <time>2026-08-20T11:20:00Z</time>
      </trkpt>
      <trkpt lat="49.15265" lon="4.08033">
        <ele>177.7</ele>
        <time>2026-08-20T11:20:06Z</time>
      </trkpt>
      <trkpt lat="49.15265" lon="4.08033">
        <ele>177.7</ele>
        <time>2026-08-20T11:20:11Z</time>
      </trkpt>
      <trkpt lat="49.15265" lon="4.08033">
        <ele>177.7</ele>
        <time>2026-08-20T11:20:16Z</time>
      </trkpt>
      <trkpt lat="49.15265" lon="4.08033">
        <ele>177.7</ele>
        <time>2026-08-20T11:20:22Z</time>
      </trkpt>
      <trkpt lat="49.15265" lon="4.08033">
        <ele>177.7</ele>
        <time>2026-08-20T11:20:27Z</time>
      </trkpt>
      <trkpt lat="49.15265" lon="4.08033">
        <ele>177.7</ele>
        <time>2026-08-20T11:20:32Z</time>
      </trkpt>
      <trkpt lat="49.15265" lon="4.08033">
        <ele>177.7</ele>
        <time>2026-08-20T11:20:38Z</time>
      </trkpt>
      <trkpt lat="49.15265" lon="4.08033">
        <ele>177.7</ele>
        <time>2026-08-20T11:20:43Z</time>
      </trkpt>
      <trkpt lat="49.15265" lon="4.08033">
        <ele>177.7</ele>
        <time>2026-08-20T11:20:48Z</time>
      </trkpt>
      <trkpt lat="49.15265" lon="4.08033">
        <ele>177.7</ele>
        <time>2026-08-20T11:20:54Z</time>
      </trkpt>
      <trkpt lat="49.15265" lon="4.08033">
        <ele>177.7</ele>
        <time>2026-08-20T11:20:59Z</time>
      </trkpt>
      <trkpt lat="49.15265" lon="4.08033">
        <ele>177.7</ele>
        <time>2026-08-20T11:21:04Z</time>
      </trkpt>
      <trkpt lat="49.15265" lon="4.08033">
        <ele>177.7</ele>
        <time>2026-08-20T11:21:10Z</time>
      </trkpt>
      <trkpt lat="49.15265" lon="4.08033">
        <ele>177.7</ele>
        <time>2026-08-20T11:21:15Z</time>
      </trkpt>
      <trkpt lat="49.15265" lon="4.08033">
        <ele>177.7</ele>
        <time>2026-08-20T11:21:20Z</time>
      </trkpt>
      <trkpt lat="49.15265" lon="4.08033">
        <ele>177.7</ele>
        <time>2026-08-20T11:21:26Z</time>
      </trkpt>
      <trkpt lat="49.15265" lon="4.08033">
        <ele>177.7</ele>
        <time>2026-08-20T11:21:31Z</time>
      </trkpt>
      <trkpt lat="49.15265" lon="4.08033">
        <ele>177.7</ele>
        <time>2026-08-20T11:21:36Z</time>
      </trkpt>
      <trkpt lat="49.15265" lon="4.08033">
        <ele>177.7</ele>
        <time>2026-08-20T11:21:42Z</time>
      </trkpt>
      <trkpt lat="49.15265" lon="4.08033">
        <ele>177.7</ele>
        <time>2026-08-20T11:21:47Z</time>
      </trkpt>
      <trkpt lat="49.15265" lon="4.08033">
        <ele>177.7</ele>
        <time>2026-08-20T11:21:52Z</time>
      </trkpt>
      <trkpt lat="49.15265" lon="4.08033">
        <ele>177.7</ele>
        <time>2026-08-20T11:21:58Z</time>
      </trkpt>
      <trkpt lat="49.15265" lon="4.08033">
        <ele>177.7</ele>
        <time>2026-08-20T11:22:03Z</time>
      </trkpt>
      <trkpt lat="49.15265" lon="4.08033">
        <ele>177.7</ele>
        <time>2026-08-20T11:22:08Z</time>
      </trkpt>
      <trkpt lat="49.15265" lon="4.08033">
        <ele>177.7</ele>
        <time>2026-08-20T11:22:14Z</time>
      </trkpt>
      <trkpt lat="49.15265" lon="4.08033">
        <ele>177.7</ele>
        <time>2026-08-20T11:22:19Z</time>
      </trkpt>
      <trkpt lat="49.15265" lon="4.08033">
        <ele>177.7</ele>
        <time>2026-08-20T11:22:24Z</time>
      </trkpt>
      <trkpt lat="49.15265" lon="4.08033">
        <ele>177.7</ele>
        <time>2026-08-20T11:22:30Z</time>
      </trkpt>
      <trkpt lat="49.15265" lon="4.08033">
        <ele>177.7</ele>
        <time>2026-08-20T11:22:35Z</time>
      </trkpt>
      <trkpt lat="49.15265" lon="4.08033">
        <ele>177.7</ele>
        <time>2026-08-20T11:22:40Z</time>
      </trkpt>
      <trkpt lat="49.15265" lon="4.08033">
        <ele>177.7</ele>
        <time>2026-08-20T11:22:46Z</time>
      </trkpt>
      <trkpt lat="49.15265" lon="4.08033">
        <ele>177.7</ele>
        <time>2026-08-20T11:22:51Z</time>
      </trkpt>
      <trkpt lat="49.15265" lon="4.08033">
        <ele>177.7</ele>
        <time>2026-08-20T11:22:56Z</time>
      </trkpt>
      <trkpt lat="49.15265" lon="4.08033">
        <ele>177.7</ele>
        <time>2026-08-20T11:23:02Z</time>
      </trkpt>
      <trkpt lat="49.15265" lon="4.08033">
        <ele>177.7</ele>
        <time>2026-08-20T11:23:07Z</time>
      </trkpt>
      <trkpt lat="49.15265" lon="4.08033">
        <ele>177.7</ele>
        <time>2026-08-20T11:23:12Z</time>
      </trkpt>
      <trkpt lat="49.15265" lon="4.08033">
        <ele>177.7</ele>
        <time>2026-08-20T11:23:18Z</time>
      </trkpt>
      <trkpt lat="49.15265" lon="4.08033">
        <ele>177.7</ele>
        <time>2026-08-20T11:23:23Z</time>
      </trkpt>
      <trkpt lat="49.15265" lon="4.08033">
        <ele>177.7</ele>
        <time>2026-08-20T11:23:28Z</time>
      </trkpt>
      <trkpt lat="49.15265" lon="4.08033">
        <ele>177.7</ele>
        <time>2026-08-20T11:23:34Z</time>
      </trkpt>
      <trkpt lat="49.15265" lon="4.08033">
        <ele>177.7</ele>
        <time>2026-08-20T11:23:39Z</time>
      </trkpt>
      <trkpt lat="49.15265" lon="4.08033">
        <ele>177.7</ele>
        <time>2026-08-20T11:23:44Z</time>
      </trkpt>
      <trkpt lat="49.15265" lon="4.08033">
        <ele>177.7</ele>
        <time>2026-08-20T11:23:50Z</time>
      </trkpt>
      <trkpt lat="49.15265" lon="4.08033">
        <ele>177.7</ele>
        <time>2026-08-20T11:23:55Z</time>
      </trkpt>
      <trkpt lat="49.15265" lon="4.08033">
        <ele>177.7</ele>
        <time>2026-08-20T11:24:00Z</time>
      </trkpt>
      <trkpt lat="49.15265" lon="4.08033">
        <ele>177.7</ele>
        <time>2026-08-20T11:24:06Z</time>
      </trkpt>
      <trkpt lat="49.15265" lon="4.08033">
        <ele>177.7</ele>
        <time>2026-08-20T11:24:11Z</time>
      </trkpt>
      <trkpt lat="49.15265" lon="4.08033">
        <ele>177.7</ele>
        <time>2026-08-20T11:24:16Z</time>
      </trkpt>
      <trkpt lat="49.15265" lon="4.08033">
        <ele>177.7</ele>
        <time>2026-08-20T11:24:22Z</time>
      </trkpt>
      <trkpt lat="49.15265" lon="4.08033">
        <ele>177.7</ele>
        <time>2026-08-20T11:24:27Z</time>
      </trkpt>
      <trkpt lat="49.15265" lon="4.08033">
        <ele>177.7</ele>
        <time>2026-08-20T11:24:32Z</time>
      </trkpt>
      <trkpt lat="49.15265" lon="4.08033">
        <ele>177.7</ele>
        <time>2026-08-20T11:24:38Z</time>
      </trkpt>
      <trkpt lat="49.15265" lon="4.08033">
        <ele>177.7</ele>
        <time>2026-08-20T11:24:43Z</time>
      </trkpt>
      <trkpt lat="49.15265" lon="4.08033">
        <ele>177.7</ele>
        <time>2026-08-20T11:24:48Z</time>
      </trkpt>
      <trkpt lat="49.15265" lon="4.08033">
        <ele>177.7</ele>
        <time>2026-08-20T11:24:54Z</time>
      </trkpt>
      <trkpt lat="49.15265" lon="4.08033">
        <ele>177.7</ele>
        <time>2026-08-20T11:24:59Z</time>
      </trkpt>
      <trkpt lat="49.15265" lon="4.08033">
        <ele>177.7</ele>
        <time>2026-08-20T11:25:04Z</time>
      </trkpt>
      <trkpt lat="49.15265" lon="4.08033">
        <ele>177.7</ele>
        <time>2026-08-20T11:25:10Z</time>
      </trkpt>
      <trkpt lat="49.15265" lon="4.08033">
        <ele>177.7</ele>
        <time>2026-08-20T11:25:15Z</time>
      </trkpt>
      <trkpt lat="49.15265" lon="4.08033">
        <ele>177.7</ele>
        <time>2026-08-20T11:25:20Z</time>
      </trkpt>
      <trkpt lat="49.15265" lon="4.08033">
        <ele>177.7</ele>
        <time>2026-08-20T11:25:26Z</time>
      </trkpt>
      <trkpt lat="49.15265" lon="4.08033">
        <ele>177.7</ele>
        <time>2026-08-20T11:25:31Z</time>
      </trkpt>
      <trkpt lat="49.15265" lon="4.08033">
        <ele>177.7</ele>
        <time>2026-08-20T11:25:36Z</time>
      </trkpt>
      <trkpt lat="49.15265" lon="4.08033">
        <ele>177.7</ele>
        <time>2026-08-20T11:25:42Z</time>
      </trkpt>
      <trkpt lat="49.15265" lon="4.08033">
        <ele>177.7</ele>
        <time>2026-08-20T11:25:47Z</time>
      </trkpt>
      <trkpt lat="49.15265" lon="4.08033">
        <ele>177.7</ele>
        <time>2026-08-20T11:25:52Z</time>
      </trkpt>
      <trkpt lat="49.15265" lon="4.08033">
        <ele>177.7</ele>
        <time>2026-08-20T11:25:58Z</time>
      </trkpt>
      <trkpt lat="49.15265" lon="4.08033">
        <ele>177.7</ele>
        <time>2026-08-20T11:26:03Z</time>
      </trkpt>
      <trkpt lat="49.15265" lon="4.08033">
        <ele>177.7</ele>
        <time>2026-08-20T11:26:08Z</time>
      </trkpt>
      <trkpt lat="49.15265" lon="4.08033">
        <ele>177.7</ele>
        <time>2026-08-20T11:26:14Z</time>
      </trkpt>
      <trkpt lat="49.15265" lon="4.08033">
        <ele>177.7</ele>
        <time>2026-08-20T11:26:19Z</time>
      </trkpt>
      <trkpt lat="49.15265" lon="4.08033">
        <ele>177.7</ele>
        <time>2026-08-20T11:26:24Z</time>
      </trkpt>
      <trkpt lat="49.15265" lon="4.08033">
        <ele>177.7</ele>
        <time>2026-08-20T11:26:30Z</time>
      </trkpt>
      <trkpt lat="49.15265" lon="4.08033">
        <ele>177.7</ele>
        <time>2026-08-20T11:26:35Z</time>
      </trkpt>
      <trkpt lat="49.15265" lon="4.08033">
        <ele>177.7</ele>
        <time>2026-08-20T11:26:40Z</time>
      </trkpt>
      <trkpt lat="49.15265" lon="4.08033">
        <ele>177.7</ele>
        <time>2026-08-20T11:26:46Z</time>
      </trkpt>
      <trkpt lat="49.15265" lon="4.08033">
        <ele>177.7</ele>
        <time>2026-08-20T11:26:51Z</time>
      </trkpt>
      <trkpt lat="49.15265" lon="4.08033">
        <ele>177.7</ele>
        <time>2026-08-20T11:26:56Z</time>
      </trkpt>
      <trkpt lat="49.15265" lon="4.08033">
        <ele>177.7</ele>
        <time>2026-08-20T11:27:02Z</time>
      </trkpt>
      <trkpt lat="49.15265" lon="4.08033">
        <ele>177.7</ele>
        <time>2026-08-20T11:27:07Z</time>
      </trkpt>
      <trkpt lat="49.15265" lon="4.08033">
        <ele>177.7</ele>
        <time>2026-08-20T11:27:12Z</time>
      </trkpt>
      <trkpt lat="49.15265" lon="4.08033">
        <ele>177.7</ele>
        <time>2026-08-20T11:27:18Z</time>
      </trkpt>
      <trkpt lat="49.15265" lon="4.08033">
        <ele>177.7</ele>
        <time>2026-08-20T11:27:23Z</time>
      </trkpt>
      <trkpt lat="49.15265" lon="4.08033">
        <ele>177.7</ele>
        <time>2026-08-20T11:27:28Z</time>
      </trkpt>
      <trkpt lat="49.15265" lon="4.08033">
        <ele>177.7</ele>
        <time>2026-08-20T11:27:34Z</time>
      </trkpt>
      <trkpt lat="49.15265" lon="4.08033">
        <ele>177.7</ele>
        <time>2026-08-20T11:27:39Z</time>
      </trkpt>
      <trkpt lat="49.15265" lon="4.08033">
        <ele>177.7</ele>
        <time>2026-08-20T11:27:44Z</time>
      </trkpt>
      <trkpt lat="49.15265" lon="4.08033">
        <ele>177.7</ele>
        <time>2026-08-20T11:27:50Z</time>
      </trkpt>
      <trkpt lat="49.15265" lon="4.08033">
        <ele>177.7</ele>
        <time>2026-08-20T11:27:55Z</time>
      </trkpt>
      <trkpt lat="49.15265" lon="4.08033">
        <ele>177.7</ele>
        <time>2026-08-20T11:28:00Z</time>
      </trkpt>
      <trkpt lat="49.15265" lon="4.08033">
        <ele>177.7</ele>
        <time>2026-08-20T11:28:06Z</time>
      </trkpt>
      <trkpt lat="49.15265" lon="4.08033">
        <ele>177.7</ele>
        <time>2026-08-20T11:28:11Z</time>
      </trkpt>
      <trkpt lat="49.15265" lon="4.08033">
        <ele>177.7</ele>
        <time>2026-08-20T11:28:16Z</time>
      </trkpt>
      <trkpt lat="49.15265" lon="4.08033">
        <ele>177.7</ele>
        <time>2026-08-20T11:28:22Z</time>
      </trkpt>
      <trkpt lat="49.15265" lon="4.08033">
        <ele>177.7</ele>
        <time>2026-08-20T11:28:27Z</time>
      </trkpt>
      <trkpt lat="49.15265" lon="4.08033">
        <ele>177.7</ele>
        <time>2026-08-20T11:28:32Z</time>
      </trkpt>
      <trkpt lat="49.15265" lon="4.08033">
        <ele>177.7</ele>
        <time>2026-08-20T11:28:38Z</time>
      </trkpt>
      <trkpt lat="49.15265" lon="4.08033">
        <ele>177.7</ele>
        <time>2026-08-20T11:28:43Z</time>
      </trkpt>
      <trkpt lat="49.15265" lon="4.08033">
        <ele>177.7</ele>
        <time>2026-08-20T11:28:48Z</time>
      </trkpt>
      <trkpt lat="49.15265" lon="4.08033">
        <ele>177.7</ele>
        <time>2026-08-20T11:28:54Z</time>
      </trkpt>
      <trkpt lat="49.15265" lon="4.08033">
        <ele>177.7</ele>
        <time>2026-08-20T11:28:59Z</time>
      </trkpt>
      <trkpt lat="49.15265" lon="4.08033">
        <ele>177.7</ele>
        <time>2026-08-20T11:29:04Z</time>
      </trkpt>
      <trkpt lat="49.15265" lon="4.08033">
        <ele>177.7</ele>
        <time>2026-08-20T11:29:10Z</time>
      </trkpt>
      <trkpt lat="49.15265" lon="4.08033">
        <ele>177.7</ele>
        <time>2026-08-20T11:29:15Z</time>
      </trkpt>
      <trkpt lat="49.15265" lon="4.08033">
        <ele>177.7</ele>
        <time>2026-08-20T11:29:20Z</time>
      </trkpt>
      <trkpt lat="49.15265" lon="4.08033">
        <ele>177.7</ele>
        <time>2026-08-20T11:29:26Z</time>
      </trkpt>
      <trkpt lat="49.15265" lon="4.08033">
        <ele>177.7</ele>
        <time>2026-08-20T11:29:31Z</time>
      </trkpt>
      <trkpt lat="49.15265" lon="4.08033">
        <ele>177.7</ele>
        <time>2026-08-20T11:29:36Z</time>
      </trkpt>
      <trkpt lat="49.15265" lon="4.08033">
        <ele>177.7</ele>
        <time>2026-08-20T11:29:42Z</time>
      </trkpt>
      <trkpt lat="49.15265" lon="4.08033">
        <ele>177.7</ele>
        <time>2026-08-20T11:29:47Z</time>
      </trkpt>
      <trkpt lat="49.15265" lon="4.08033">
        <ele>177.7</ele>
        <time>2026-08-20T11:29:52Z</time>
      </trkpt>
      <trkpt lat="49.15265" lon="4.08033">
        <ele>177.7</ele>
        <time>2026-08-20T11:29:58Z</time>
      </trkpt>
      <trkpt lat="49.15265" lon="4.08033">
        <ele>177.7</ele>
        <time>2026-08-20T11:30:03Z</time>
      </trkpt>
      <trkpt lat="49.15265" lon="4.08033">
        <ele>177.7</ele>
        <time>2026-08-20T11:30:08Z</time>
      </trkpt>
      <trkpt lat="49.15265" lon="4.08033">
        <ele>177.7</ele>
        <time>2026-08-20T11:30:14Z</time>
      </trkpt>
      <trkpt lat="49.15265" lon="4.08033">
        <ele>177.7</ele>
        <time>2026-08-20T11:30:20Z</time>
      </trkpt>
      <trkpt lat="49.15265" lon="4.08033">
        <ele>177.7</ele>
        <time>2026-08-20T11:30:26Z</time>
      </trkpt>
      <trkpt lat="49.15265" lon="4.08033">
        <ele>177.7</ele>
        <time>2026-08-20T11:30:31Z</time>
      </trkpt>
      <trkpt lat="49.15265" lon="4.08033">
        <ele>177.7</ele>
        <time>2026-08-20T11:30:36Z</time>
      </trkpt>
      <trkpt lat="49.15265" lon="4.08033">
        <ele>177.7</ele>
        <time>2026-08-20T11:30:42Z</time>
      </trkpt>
      <trkpt lat="49.15265" lon="4.08033">
        <ele>177.7</ele>
        <time>2026-08-20T11:30:47Z</time>
      </trkpt>
      <trkpt lat="49.15265" lon="4.08033">
        <ele>177.7</ele>
        <time>2026-08-20T11:30:52Z</time>
      </trkpt>
      <trkpt lat="49.15265" lon="4.08033">
        <ele>177.7</ele>
        <time>2026-08-20T11:30:58Z</time>
      </trkpt>
      <trkpt lat="49.15265" lon="4.08033">
        <ele>177.7</ele>
        <time>2026-08-20T11:31:03Z</time>
      </trkpt>
      <trkpt lat="49.15265" lon="4.08033">
        <ele>177.7</ele>
        <time>2026-08-20T11:31:08Z</time>
      </trkpt>
      <trkpt lat="49.15265" lon="4.08033">
        <ele>177.7</ele>
        <time>2026-08-20T11:31:14Z</time>
      </trkpt>
      <trkpt lat="49.15265" lon="4.08033">
        <ele>177.7</ele>
        <time>2026-08-20T11:31:19Z</time>
      </trkpt>
      <trkpt lat="49.15265" lon="4.08033">
        <ele>177.7</ele>
        <time>2026-08-20T11:31:24Z</time>
      </trkpt>
      <trkpt lat="49.15265" lon="4.08033">
        <ele>177.7</ele>
        <time>2026-08-20T11:31:30Z</time>
      </trkpt>
      <trkpt lat="49.15265" lon="4.08033">
        <ele>177.7</ele>
        <time>2026-08-20T11:31:35Z</time>
      </trkpt>
      <trkpt lat="49.15265" lon="4.08033">
        <ele>177.7</ele>
        <time>2026-08-20T11:31:40Z</time>
      </trkpt>
      <trkpt lat="49.15265" lon="4.08033">
        <ele>177.7</ele>
        <time>2026-08-20T11:31:46Z</time>
      </trkpt>
      <trkpt lat="49.15265" lon="4.08033">
        <ele>177.7</ele>
        <time>2026-08-20T11:31:51Z</time>
      </trkpt>
      <trkpt lat="49.15265" lon="4.08033">
        <ele>177.7</ele>
        <time>2026-08-20T11:31:56Z</time>
      </trkpt>
      <trkpt lat="49.15265" lon="4.08033">
        <ele>177.7</ele>
        <time>2026-08-20T11:32:02Z</time>
      </trkpt>
      <trkpt lat="49.15265" lon="4.08033">
        <ele>177.7</ele>
        <time>2026-08-20T11:32:07Z</time>
      </trkpt>
      <trkpt lat="49.15265" lon="4.08033">
        <ele>177.7</ele>
        <time>2026-08-20T11:32:12Z</time>
      </trkpt>
      <trkpt lat="49.15265" lon="4.08033">
        <ele>177.7</ele>
        <time>2026-08-20T11:32:18Z</time>
      </trkpt>
      <trkpt lat="49.15265" lon="4.08033">
        <ele>177.7</ele>
        <time>2026-08-20T11:32:23Z</time>
      </trkpt>
      <trkpt lat="49.15265" lon="4.08033">
        <ele>177.7</ele>
        <time>2026-08-20T11:32:28Z</time>
      </trkpt>
      <trkpt lat="49.15265" lon="4.08033">
        <ele>177.7</ele>
        <time>2026-08-20T11:32:34Z</time>
      </trkpt>
      <trkpt lat="49.15265" lon="4.08033">
        <ele>177.7</ele>
        <time>2026-08-20T11:32:39Z</time>
      </trkpt>
      <trkpt lat="49.15265" lon="4.08033">
        <ele>177.7</ele>
        <time>2026-08-20T11:32:44Z</time>
      </trkpt>
      <trkpt lat="49.15265" lon="4.08033">
        <ele>177.7</ele>
        <time>2026-08-20T11:32:50Z</time>
      </trkpt>
      <trkpt lat="49.15265" lon="4.08033">
        <ele>177.7</ele>
        <time>2026-08-20T11:32:55Z</time>
      </trkpt>
      <trkpt lat="49.15265" lon="4.08033">
        <ele>177.7</ele>
        <time>2026-08-20T11:33:00Z</time>
      </trkpt>
      <trkpt lat="49.15265" lon="4.08033">
        <ele>177.7</ele>
        <time>2026-08-20T11:33:06Z</time>
      </trkpt>
      <trkpt lat="49.15265" lon="4.08033">
        <ele>177.7</ele>
        <time>2026-08-20T11:33:11Z</time>
      </trkpt>
      <trkpt lat="49.15265" lon="4.08033">
        <ele>177.7</ele>
        <time>2026-08-20T11:33:16Z</time>
      </trkpt>
      <trkpt lat="49.15265" lon="4.08033">
        <ele>177.7</ele>
        <time>2026-08-20T11:33:22Z</time>
      </trkpt>
      <trkpt lat="49.15265" lon="4.08033">
        <ele>177.7</ele>
        <time>2026-08-20T11:33:27Z</time>
      </trkpt>
      <trkpt lat="49.15265" lon="4.08033">
        <ele>177.7</ele>
        <time>2026-08-20T11:33:32Z</time>
      </trkpt>
      <trkpt lat="49.15265" lon="4.08033">
        <ele>177.7</ele>
        <time>2026-08-20T11:33:38Z</time>
      </trkpt>
      <trkpt lat="49.15265" lon="4.08033">
        <ele>177.7</ele>
        <time>2026-08-20T11:33:43Z</time>
      </trkpt>
      <trkpt lat="49.15265" lon="4.08033">
        <ele>177.7</ele>
        <time>2026-08-20T11:33:48Z</time>
      </trkpt>
      <trkpt lat="49.15265" lon="4.08033">
        <ele>177.7</ele>
        <time>2026-08-20T11:33:54Z</time>
      </trkpt>
      <trkpt lat="49.15265" lon="4.08033">
        <ele>177.7</ele>
        <time>2026-08-20T11:33:59Z</time>
      </trkpt>
      <trkpt lat="49.15265" lon="4.08033">
        <ele>177.7</ele>
        <time>2026-08-20T11:34:04Z</time>
      </trkpt>
      <trkpt lat="49.15265" lon="4.08033">
        <ele>177.7</ele>
        <time>2026-08-20T11:34:10Z</time>
      </trkpt>
      <trkpt lat="49.15265" lon="4.08033">
        <ele>177.7</ele>
        <time>2026-08-20T11:34:15Z</time>
      </trkpt>
      <trkpt lat="49.15265" lon="4.08033">
        <ele>177.7</ele>
        <time>2026-08-20T11:34:20Z</time>
      </trkpt>
      <trkpt lat="49.15265" lon="4.08033">
        <ele>177.7</ele>
        <time>2026-08-20T11:34:26Z</time>
      </trkpt>
      <trkpt lat="49.15265" lon="4.08033">
        <ele>177.7</ele>
        <time>2026-08-20T11:34:31Z</time>
      </trkpt>
      <trkpt lat="49.15265" lon="4.08033">
        <ele>177.7</ele>
        <time>2026-08-20T11:34:36Z</time>
      </trkpt>
      <trkpt lat="49.15265" lon="4.08033">
        <ele>177.7</ele>
        <time>2026-08-20T11:34:42Z</time>
      </trkpt>
      <trkpt lat="49.15265" lon="4.08033">
        <ele>177.7</ele>
        <time>2026-08-20T11:34:47Z</time>
      </trkpt>
      <trkpt lat="49.15265" lon="4.08033">
        <ele>177.7</ele>
        <time>2026-08-20T11:34:52Z</time>
      </trkpt>
      <trkpt lat="49.15265" lon="4.08033">
        <ele>177.7</ele>
        <time>2026-08-20T11:34:58Z</time>
      </trkpt>
      <trkpt lat="49.15265" lon="4.08033">
        <ele>177.7</ele>
        <time>2026-08-20T11:35:03Z</time>
      </trkpt>
      <trkpt lat="49.15265" lon="4.08033">
        <ele>177.7</ele>
        <time>2026-08-20T11:35:08Z</time>
      </trkpt>
      <trkpt lat="49.15265" lon="4.08033">
        <ele>177.7</ele>
        <time>2026-08-20T11:35:14Z</time>
      </trkpt>
      <trkpt lat="49.15265" lon="4.08033">
        <ele>177.7</ele>
        <time>2026-08-20T11:35:19Z</time>
      </trkpt>
      <trkpt lat="49.15265" lon="4.08033">
        <ele>177.7</ele>
        <time>2026-08-20T11:35:24Z</time>
      </trkpt>
      <trkpt lat="49.15265" lon="4.08033">
        <ele>177.7</ele>
        <time>2026-08-20T11:35:30Z</time>
      </trkpt>
      <trkpt lat="49.15265" lon="4.08033">
        <ele>177.7</ele>
        <time>2026-08-20T11:35:35Z</time>
      </trkpt>
      <trkpt lat="49.15265" lon="4.08033">
        <ele>177.7</ele>
        <time>2026-08-20T11:35:40Z</time>
      </trkpt>
      <trkpt lat="49.15265" lon="4.08033">
        <ele>177.7</ele>
        <time>2026-08-20T11:35:46Z</time>
      </trkpt>
      <trkpt lat="49.15265" lon="4.08033">
        <ele>177.7</ele>
        <time>2026-08-20T11:35:51Z</time>
      </trkpt>
      <trkpt lat="49.15265" lon="4.08033">
        <ele>177.7</ele>
        <time>2026-08-20T11:35:56Z</time>
      </trkpt>
      <trkpt lat="49.15265" lon="4.08033">
        <ele>177.7</ele>
        <time>2026-08-20T11:36:02Z</time>
      </trkpt>
      <trkpt lat="49.15265" lon="4.08033">
        <ele>177.7</ele>
        <time>2026-08-20T11:36:07Z</time>
      </trkpt>
      <trkpt lat="49.15265" lon="4.08033">
        <ele>177.7</ele>
        <time>2026-08-20T11:36:12Z</time>
      </trkpt>
      <trkpt lat="49.15265" lon="4.08033">
        <ele>177.7</ele>
        <time>2026-08-20T11:36:18Z</time>
      </trkpt>
      <trkpt lat="49.15265" lon="4.08033">
        <ele>177.7</ele>
        <time>2026-08-20T11:36:23Z</time>
      </trkpt>
      <trkpt lat="49.15265" lon="4.08033">
        <ele>177.7</ele>
        <time>2026-08-20T11:36:28Z</time>
      </trkpt>
      <trkpt lat="49.15265" lon="4.08033">
        <ele>177.7</ele>
        <time>2026-08-20T11:36:34Z</time>
      </trkpt>
      <trkpt lat="49.15265" lon="4.08033">
        <ele>177.7</ele>
        <time>2026-08-20T11:36:39Z</time>
      </trkpt>
      <trkpt lat="49.15265" lon="4.08033">
        <ele>177.7</ele>
        <time>2026-08-20T11:36:44Z</time>
      </trkpt>
      <trkpt lat="49.15265" lon="4.08033">
        <ele>177.7</ele>
        <time>2026-08-20T11:36:50Z</time>
      </trkpt>
      <trkpt lat="49.15265" lon="4.08033">
        <ele>177.7</ele>
        <time>2026-08-20T11:36:55Z</time>
      </trkpt>
      <trkpt lat="49.15265" lon="4.08033">
        <ele>177.7</ele>
        <time>2026-08-20T11:37:00Z</time>
      </trkpt>
      <trkpt lat="49.15265" lon="4.08033">
        <ele>177.7</ele>
        <time>2026-08-20T11:37:06Z</time>
      </trkpt>
      <trkpt lat="49.15265" lon="4.08033">
        <ele>177.7</ele>
        <time>2026-08-20T11:37:11Z</time>
      </trkpt>
      <trkpt lat="49.15265" lon="4.08033">
        <ele>177.7</ele>
        <time>2026-08-20T11:37:16Z</time>
      </trkpt>
      <trkpt lat="49.15265" lon="4.08033">
        <ele>177.7</ele>
        <time>2026-08-20T11:37:22Z</time>
      </trkpt>
      <trkpt lat="49.15265" lon="4.08033">
        <ele>177.7</ele>
        <time>2026-08-20T11:37:27Z</time>
      </trkpt>
      <trkpt lat="49.15265" lon="4.08033">
        <ele>177.7</ele>
        <time>2026-08-20T11:37:32Z</time>
      </trkpt>
      <trkpt lat="49.15265" lon="4.08033">
        <ele>177.7</ele>
        <time>2026-08-20T11:37:38Z</time>
      </trkpt>
      <trkpt lat="49.15265" lon="4.08033">
        <ele>177.7</ele>
        <time>2026-08-20T11:37:43Z</time>
      </trkpt>
      <trkpt lat="49.15265" lon="4.08033">
        <ele>177.7</ele>
        <time>2026-08-20T11:37:48Z</time>
      </trkpt>
      <trkpt lat="49.15265" lon="4.08033">
        <ele>177.7</ele>
        <time>2026-08-20T11:37:54Z</time>
      </trkpt>
      <trkpt lat="49.15265" lon="4.08033">
        <ele>177.7</ele>
        <time>2026-08-20T11:37:59Z</time>
      </trkpt>
      <trkpt lat="49.15265" lon="4.08033">
        <ele>177.7</ele>
        <time>2026-08-20T11:38:04Z</time>
      </trkpt>
      <trkpt lat="49.15265" lon="4.08033">
        <ele>177.7</ele>
        <time>2026-08-20T11:38:10Z</time>
      </trkpt>
      <trkpt lat="49.15265" lon="4.08033">
        <ele>177.7</ele>
        <time>2026-08-20T11:38:15Z</time>
      </trkpt>
      <trkpt lat="49.15265" lon="4.08033">
        <ele>177.7</ele>
        <time>2026-08-20T11:38:20Z</time>
      </trkpt>
      <trkpt lat="49.15265" lon="4.08033">
        <ele>177.7</ele>
        <time>2026-08-20T11:38:26Z</time>
      </trkpt>
      <trkpt lat="49.15265" lon="4.08033">
        <ele>177.7</ele>
        <time>2026-08-20T11:38:31Z</time>
      </trkpt>
      <trkpt lat="49.15265" lon="4.08033">
        <ele>177.7</ele>
        <time>2026-08-20T11:38:36Z</time>
      </trkpt>
      <trkpt lat="49.15265" lon="4.08033">
        <ele>177.7</ele>
        <time>2026-08-20T11:38:42Z</time>
      </trkpt>
      <trkpt lat="49.15265" lon="4.08033">
        <ele>177.7</ele>
        <time>2026-08-20T11:38:47Z</time>
      </trkpt>
      <trkpt lat="49.15265" lon="4.08033">
        <ele>177.7</ele>
        <time>2026-08-20T11:38:52Z</time>
      </trkpt>
      <trkpt lat="49.15265" lon="4.08033">
        <ele>177.7</ele>
        <time>2026-08-20T11:38:58Z</time>
      </trkpt>
      <trkpt lat="49.15265" lon="4.08033">
        <ele>177.7</ele>
        <time>2026-08-20T11:39:03Z</time>
      </trkpt>
      <trkpt lat="49.15265" lon="4.08033">
        <ele>177.7</ele>
        <time>2026-08-20T11:39:08Z</time>
      </trkpt>
      <trkpt lat="49.15265" lon="4.08033">
        <ele>177.7</ele>
        <time>2026-08-20T11:39:14Z</time>
      </trkpt>
      <trkpt lat="49.15265" lon="4.08033">
        <ele>177.7</ele>
        <time>2026-08-20T11:39:19Z</time>
      </trkpt>
      <trkpt lat="49.15265" lon="4.08033">
        <ele>177.7</ele>
        <time>2026-08-20T11:39:24Z</time>
      </trkpt>
      <trkpt lat="49.15265" lon="4.08033">
        <ele>177.7</ele>
        <time>2026-08-20T11:39:30Z</time>
      </trkpt>
      <trkpt lat="49.15265" lon="4.08033">
        <ele>177.7</ele>
        <time>2026-08-20T11:39:35Z</time>
      </trkpt>
      <trkpt lat="49.15265" lon="4.08033">
        <ele>177.7</ele>
        <time>2026-08-20T11:39:40Z</time>
      </trkpt>
      <trkpt lat="49.15265" lon="4.08033">
        <ele>177.7</ele>
        <time>2026-08-20T11:39:46Z</time>
      </trkpt>
      <trkpt lat="49.15265" lon="4.08033">
        <ele>177.7</ele>
        <time>2026-08-20T11:39:51Z</time>
      </trkpt>
      <trkpt lat="49.15265" lon="4.08033">
        <ele>177.7</ele>
        <time>2026-08-20T11:39:56Z</time>
      </trkpt>
      <trkpt lat="49.15265" lon="4.08033">
        <ele>177.7</ele>
        <time>2026-08-20T11:40:02Z</time>
      </trkpt>
      <trkpt lat="49.15265" lon="4.08033">
        <ele>177.7</ele>
        <time>2026-08-20T11:40:07Z</time>
      </trkpt>
      <trkpt lat="49.15265" lon="4.08033">
        <ele>177.7</ele>
        <time>2026-08-20T11:40:12Z</time>
      </trkpt>
      <trkpt lat="49.15265" lon="4.08033">
        <ele>177.7</ele>
        <time>2026-08-20T11:40:18Z</time>
      </trkpt>
      <trkpt lat="49.15265" lon="4.08033">
        <ele>177.7</ele>
        <time>2026-08-20T11:40:23Z</time>
      </trkpt>
      <trkpt lat="49.15265" lon="4.08033">
        <ele>177.7</ele>
        <time>2026-08-20T11:40:28Z</time>
      </trkpt>
      <trkpt lat="49.15265" lon="4.08033">
        <ele>177.7</ele>
        <time>2026-08-20T11:40:34Z</time>
      </trkpt>
      <trkpt lat="49.15265" lon="4.08033">
        <ele>177.7</ele>
        <time>2026-08-20T11:40:39Z</time>
      </trkpt>
      <trkpt lat="49.15265" lon="4.08033">
        <ele>177.7</ele>
        <time>2026-08-20T11:40:44Z</time>
      </trkpt>
      <trkpt lat="49.15265" lon="4.08033">
        <ele>177.7</ele>
        <time>2026-08-20T11:40:50Z</time>
      </trkpt>
      <trkpt lat="49.15265" lon="4.08033">
        <ele>177.7</ele>
        <time>2026-08-20T11:40:55Z</time>
      </trkpt>
      <trkpt lat="49.15265" lon="4.08033">
        <ele>177.7</ele>
        <time>2026-08-20T11:41:00Z</time>
      </trkpt>
      <trkpt lat="49.15265" lon="4.08033">
        <ele>177.7</ele>
        <time>2026-08-20T11:41:06Z</time>
      </trkpt>
      <trkpt lat="49.15265" lon="4.08033">
        <ele>177.7</ele>
        <time>2026-08-20T11:41:11Z</time>
      </trkpt>
      <trkpt lat="49.15265" lon="4.08033">
        <ele>177.7</ele>
        <time>2026-08-20T11:41:16Z</time>
      </trkpt>
      <trkpt lat="49.15265" lon="4.08033">
        <ele>177.7</ele>
        <time>2026-08-20T11:41:22Z</time>
      </trkpt>
      <trkpt lat="49.15265" lon="4.08033">
        <ele>177.7</ele>
        <time>2026-08-20T11:41:27Z</time>
      </trkpt>
      <trkpt lat="49.15265" lon="4.08033">
        <ele>177.7</ele>
        <time>2026-08-20T11:41:32Z</time>
      </trkpt>
      <trkpt lat="49.15265" lon="4.08033">
        <ele>177.7</ele>
        <time>2026-08-20T11:41:38Z</time>
      </trkpt>
      <trkpt lat="49.15265" lon="4.08033">
        <ele>177.7</ele>
        <time>2026-08-20T11:41:43Z</time>
      </trkpt>
      <trkpt lat="49.15265" lon="4.08033">
        <ele>177.7</ele>
        <time>2026-08-20T11:41:48Z</time>
      </trkpt>
      <trkpt lat="49.15265" lon="4.08033">
        <ele>177.7</ele>
        <time>2026-08-20T11:41:54Z</time>
      </trkpt>
      <trkpt lat="49.15265" lon="4.08033">
        <ele>177.7</ele>
        <time>2026-08-20T11:41:59Z</time>
      </trkpt>
      <trkpt lat="49.15265" lon="4.08033">
        <ele>177.7</ele>
        <time>2026-08-20T11:42:04Z</time>
      </trkpt>
      <trkpt lat="49.15265" lon="4.08033">
        <ele>177.7</ele>
        <time>2026-08-20T11:42:10Z</time>
      </trkpt>
      <trkpt lat="49.15265" lon="4.08033">
        <ele>177.7</ele>
        <time>2026-08-20T11:42:15Z</time>
      </trkpt>
      <trkpt lat="49.15265" lon="4.08033">
        <ele>177.7</ele>
        <time>2026-08-20T11:42:20Z</time>
      </trkpt>
      <trkpt lat="49.15265" lon="4.08033">
        <ele>177.7</ele>
        <time>2026-08-20T11:42:26Z</time>
      </trkpt>
      <trkpt lat="49.15265" lon="4.08033">
        <ele>177.7</ele>
        <time>2026-08-20T11:42:31Z</time>
      </trkpt>
      <trkpt lat="49.15265" lon="4.08033">
        <ele>177.7</ele>
        <time>2026-08-20T11:42:36Z</time>
      </trkpt>
      <trkpt lat="49.15265" lon="4.08033">
        <ele>177.7</ele>
        <time>2026-08-20T11:42:42Z</time>
      </trkpt>
      <trkpt lat="49.15265" lon="4.08033">
        <ele>177.7</ele>
        <time>2026-08-20T11:42:47Z</time>
      </trkpt>
      <trkpt lat="49.15265" lon="4.08033">
        <ele>177.7</ele>
        <time>2026-08-20T11:42:52Z</time>
      </trkpt>
      <trkpt lat="49.15265" lon="4.08033">
        <ele>177.7</ele>
        <time>2026-08-20T11:42:58Z</time>
      </trkpt>
      <trkpt lat="49.15265" lon="4.08033">
        <ele>177.7</ele>
        <time>2026-08-20T11:43:03Z</time>
      </trkpt>
      <trkpt lat="49.15265" lon="4.08033">
        <ele>177.7</ele>
        <time>2026-08-20T11:43:08Z</time>
      </trkpt>
      <trkpt lat="49.15265" lon="4.08033">
        <ele>177.7</ele>
        <time>2026-08-20T11:43:14Z</time>
      </trkpt>
      <trkpt lat="49.15265" lon="4.08033">
        <ele>177.7</ele>
        <time>2026-08-20T11:43:19Z</time>
      </trkpt>
      <trkpt lat="49.15265" lon="4.08033">
        <ele>177.7</ele>
        <time>2026-08-20T11:43:24Z</time>
      </trkpt>
      <trkpt lat="49.15265" lon="4.08033">
        <ele>177.7</ele>
        <time>2026-08-20T11:43:30Z</time>
      </trkpt>
      <trkpt lat="49.15265" lon="4.08033">
        <ele>177.7</ele>
        <time>2026-08-20T11:43:35Z</time>
      </trkpt>
      <trkpt lat="49.15265" lon="4.08033">
        <ele>177.7</ele>
        <time>2026-08-20T11:43:40Z</time>
      </trkpt>
      <trkpt lat="49.15265" lon="4.08033">
        <ele>177.7</ele>
        <time>2026-08-20T11:43:46Z</time>
      </trkpt>
      <trkpt lat="49.15265" lon="4.08033">
        <ele>177.7</ele>
        <time>2026-08-20T11:43:51Z</time>
      </trkpt>
      <trkpt lat="49.15265" lon="4.08033">
        <ele>177.7</ele>
        <time>2026-08-20T11:43:56Z</time>
      </trkpt>
      <trkpt lat="49.15265" lon="4.08033">
        <ele>177.7</ele>
        <time>2026-08-20T11:44:02Z</time>
      </trkpt>
      <trkpt lat="49.15265" lon="4.08033">
        <ele>177.7</ele>
        <time>2026-08-20T11:44:07Z</time>
      </trkpt>
      <trkpt lat="49.15265" lon="4.08033">
        <ele>177.7</ele>
        <time>2026-08-20T11:44:12Z</time>
      </trkpt>
      <trkpt lat="49.15265" lon="4.08033">
        <ele>177.7</ele>
        <time>2026-08-20T11:44:18Z</time>
      </trkpt>
      <trkpt lat="49.15265" lon="4.08033">
        <ele>177.7</ele>
        <time>2026-08-20T11:44:23Z</time>
      </trkpt>
      <trkpt lat="49.15265" lon="4.08033">
        <ele>177.7</ele>
        <time>2026-08-20T11:44:28Z</time>
      </trkpt>
      <trkpt lat="49.15265" lon="4.08033">
        <ele>177.7</ele>
        <time>2026-08-20T11:44:34Z</time>
      </trkpt>
      <trkpt lat="49.15265" lon="4.08033">
        <ele>177.7</ele>
        <time>2026-08-20T11:44:39Z</time>
      </trkpt>
      <trkpt lat="49.15265" lon="4.08033">
        <ele>177.7</ele>
        <time>2026-08-20T11:44:44Z</time>
      </trkpt>
      <trkpt lat="49.15265" lon="4.08033">
        <ele>177.7</ele>
        <time>2026-08-20T11:44:50Z</time>
      </trkpt>
      <trkpt lat="49.15265" lon="4.08033">
        <ele>177.7</ele>
        <time>2026-08-20T11:44:55Z</time>
      </trkpt>
      <trkpt lat="49.15265" lon="4.08033">
        <ele>177.7</ele>
        <time>2026-08-20T11:45:00Z</time>
      </trkpt>
      <trkpt lat="49.15265" lon="4.08033">
        <ele>177.7</ele>
        <time>2026-08-20T11:45:06Z</time>
      </trkpt>
      <trkpt lat="49.15265" lon="4.08033">
        <ele>177.7</ele>
        <time>2026-08-20T11:45:11Z</time>
      </trkpt>
      <trkpt lat="49.15265" lon="4.08033">
        <ele>177.7</ele>
        <time>2026-08-20T11:45:16Z</time>
      </trkpt>
      <trkpt lat="49.15265" lon="4.08033">
        <ele>177.7</ele>
        <time>2026-08-20T11:45:22Z</time>
      </trkpt>
      <trkpt lat="49.15265" lon="4.08033">
        <ele>177.7</ele>
        <time>2026-08-20T11:45:27Z</time>
      </trkpt>
      <trkpt lat="49.15265" lon="4.08033">
        <ele>177.7</ele>
        <time>2026-08-20T11:45:32Z</time>
      </trkpt>
      <trkpt lat="49.15265" lon="4.08033">
        <ele>177.7</ele>
        <time>2026-08-20T11:45:38Z</time>
      </trkpt>
      <trkpt lat="49.15265" lon="4.08033">
        <ele>177.7</ele>
        <time>2026-08-20T11:45:43Z</time>
      </trkpt>
      <trkpt lat="49.15265" lon="4.08033">
        <ele>177.7</ele>
        <time>2026-08-20T11:45:48Z</time>
      </trkpt>
      <trkpt lat="49.15265" lon="4.08033">
        <ele>177.7</ele>
        <time>2026-08-20T11:45:54Z</time>
      </trkpt>
      <trkpt lat="49.15265" lon="4.08033">
        <ele>177.7</ele>
        <time>2026-08-20T11:45:59Z</time>
      </trkpt>
      <trkpt lat="49.15265" lon="4.08033">
        <ele>177.7</ele>
        <time>2026-08-20T11:46:04Z</time>
      </trkpt>
      <trkpt lat="49.15265" lon="4.08033">
        <ele>177.7</ele>
        <time>2026-08-20T11:46:10Z</time>
      </trkpt>
      <trkpt lat="49.15265" lon="4.08033">
        <ele>177.7</ele>
        <time>2026-08-20T11:46:15Z</time>
      </trkpt>
      <trkpt lat="49.15265" lon="4.08033">
        <ele>177.7</ele>
        <time>2026-08-20T11:46:20Z</time>
      </trkpt>
      <trkpt lat="49.15265" lon="4.08033">
        <ele>177.7</ele>
        <time>2026-08-20T11:46:26Z</time>
      </trkpt>
      <trkpt lat="49.15265" lon="4.08033">
        <ele>177.7</ele>
        <time>2026-08-20T11:46:31Z</time>
      </trkpt>
      <trkpt lat="49.15265" lon="4.08033">
        <ele>177.7</ele>
        <time>2026-08-20T11:46:36Z</time>
      </trkpt>
      <trkpt lat="49.15265" lon="4.08033">
        <ele>177.7</ele>
        <time>2026-08-20T11:46:42Z</time>
      </trkpt>
      <trkpt lat="49.15265" lon="4.08033">
        <ele>177.7</ele>
        <time>2026-08-20T11:46:47Z</time>
      </trkpt>
      <trkpt lat="49.15265" lon="4.08033">
        <ele>177.7</ele>
        <time>2026-08-20T11:46:52Z</time>
      </trkpt>
      <trkpt lat="49.15265" lon="4.08033">
        <ele>177.7</ele>
        <time>2026-08-20T11:46:58Z</time>
      </trkpt>
      <trkpt lat="49.15265" lon="4.08033">
        <ele>177.7</ele>
        <time>2026-08-20T11:47:03Z</time>
      </trkpt>
      <trkpt lat="49.15265" lon="4.08033">
        <ele>177.7</ele>
        <time>2026-08-20T11:47:08Z</time>
      </trkpt>
      <trkpt lat="49.15265" lon="4.08033">
        <ele>177.7</ele>
        <time>2026-08-20T11:47:14Z</time>
      </trkpt>
      <trkpt lat="49.15265" lon="4.08033">
        <ele>177.7</ele>
        <time>2026-08-20T11:47:19Z</time>
      </trkpt>
      <trkpt lat="49.15265" lon="4.08033">
        <ele>177.7</ele>
        <time>2026-08-20T11:47:24Z</time>
      </trkpt>
      <trkpt lat="49.15265" lon="4.08033">
        <ele>177.7</ele>
        <time>2026-08-20T11:47:30Z</time>
      </trkpt>
      <trkpt lat="49.15265" lon="4.08033">
        <ele>177.7</ele>
        <time>2026-08-20T11:47:35Z</time>
      </trkpt>
      <trkpt lat="49.15265" lon="4.08033">
        <ele>177.7</ele>
        <time>2026-08-20T11:47:40Z</time>
      </trkpt>
      <trkpt lat="49.15265" lon="4.08033">
        <ele>177.7</ele>
        <time>2026-08-20T11:47:46Z</time>
      </trkpt>
      <trkpt lat="49.15265" lon="4.08033">
        <ele>177.7</ele>
        <time>2026-08-20T11:47:51Z</time>
      </trkpt>
      <trkpt lat="49.15265" lon="4.08033">
        <ele>177.7</ele>
        <time>2026-08-20T11:47:56Z</time>
      </trkpt>
      <trkpt lat="49.15265" lon="4.08033">
        <ele>177.7</ele>
        <time>2026-08-20T11:48:02Z</time>
      </trkpt>
      <trkpt lat="49.15265" lon="4.08033">
        <ele>177.7</ele>
        <time>2026-08-20T11:48:07Z</time>
      </trkpt>
      <trkpt lat="49.15265" lon="4.08033">
        <ele>177.7</ele>
        <time>2026-08-20T11:48:12Z</time>
      </trkpt>
      <trkpt lat="49.15265" lon="4.08033">
        <ele>177.7</ele>
        <time>2026-08-20T11:48:18Z</time>
      </trkpt>
      <trkpt lat="49.15265" lon="4.08033">
        <ele>177.7</ele>
        <time>2026-08-20T11:48:23Z</time>
      </trkpt>
      <trkpt lat="49.15265" lon="4.08033">
        <ele>177.7</ele>
        <time>2026-08-20T11:48:28Z</time>
      </trkpt>
      <trkpt lat="49.15265" lon="4.08033">
        <ele>177.7</ele>
        <time>2026-08-20T11:48:34Z</time>
      </trkpt>
      <trkpt lat="49.15265" lon="4.08033">
        <ele>177.7</ele>
        <time>2026-08-20T11:48:39Z</time>
      </trkpt>
      <trkpt lat="49.15265" lon="4.08033">
        <ele>177.7</ele>
        <time>2026-08-20T11:48:44Z</time>
      </trkpt>
      <trkpt lat="49.15265" lon="4.08033">
        <ele>177.7</ele>
        <time>2026-08-20T11:48:50Z</time>
      </trkpt>
      <trkpt lat="49.15265" lon="4.08033">
        <ele>177.7</ele>
        <time>2026-08-20T11:48:55Z</time>
      </trkpt>
      <trkpt lat="49.15265" lon="4.08033">
        <ele>177.7</ele>
        <time>2026-08-20T11:49:00Z</time>
      </trkpt>
      <trkpt lat="49.15265" lon="4.08033">
        <ele>177.7</ele>
        <time>2026-08-20T11:49:06Z</time>
      </trkpt>
      <trkpt lat="49.15265" lon="4.08033">
        <ele>177.7</ele>
        <time>2026-08-20T11:49:11Z</time>
      </trkpt>
      <trkpt lat="49.15268" lon="4.08042">
        <ele>177.4</ele>
        <time>2026-08-20T11:49:16Z</time>
      </trkpt>
      <trkpt lat="49.15269" lon="4.08051">
        <ele>177.4</ele>
        <time>2026-08-20T11:49:22Z</time>
      </trkpt>
      <trkpt lat="49.15266" lon="4.08057">
        <ele>178</ele>
        <time>2026-08-20T11:49:27Z</time>
      </trkpt>
      <trkpt lat="49.15262" lon="4.08061">
        <ele>178.7</ele>
        <time>2026-08-20T11:49:32Z</time>
      </trkpt>
      <trkpt lat="49.15261" lon="4.0807">
        <ele>179</ele>
        <time>2026-08-20T11:49:38Z</time>
      </trkpt>
      <trkpt lat="49.15259" lon="4.08076">
        <ele>179.4</ele>
        <time>2026-08-20T11:49:43Z</time>
      </trkpt>
      <trkpt lat="49.15256" lon="4.08082">
        <ele>180</ele>
        <time>2026-08-20T11:49:48Z</time>
      </trkpt>
      <trkpt lat="49.15252" lon="4.08087">
        <ele>180.6</ele>
        <time>2026-08-20T11:49:54Z</time>
      </trkpt>
      <trkpt lat="49.15249" lon="4.08093">
        <ele>181.1</ele>
        <time>2026-08-20T11:49:59Z</time>
      </trkpt>
      <trkpt lat="49.15246" lon="4.08099">
        <ele>181.8</ele>
        <time>2026-08-20T11:50:04Z</time>
      </trkpt>
      <trkpt lat="49.15244" lon="4.08105">
        <ele>182.2</ele>
        <time>2026-08-20T11:50:10Z</time>
      </trkpt>
      <trkpt lat="49.15242" lon="4.08105">
        <ele>182.7</ele>
        <time>2026-08-20T11:50:15Z</time>
      </trkpt>
      <trkpt lat="49.15242" lon="4.08106">
        <ele>182.7</ele>
        <time>2026-08-20T11:50:20Z</time>
      </trkpt>
      <trkpt lat="49.15239" lon="4.08115">
        <ele>183.4</ele>
        <time>2026-08-20T11:50:26Z</time>
      </trkpt>
      <trkpt lat="49.15238" lon="4.08122">
        <ele>183.5</ele>
        <time>2026-08-20T11:50:31Z</time>
      </trkpt>
      <trkpt lat="49.15237" lon="4.08128">
        <ele>183.8</ele>
        <time>2026-08-20T11:50:36Z</time>
      </trkpt>
      <trkpt lat="49.15236" lon="4.08131">
        <ele>184</ele>
        <time>2026-08-20T11:50:42Z</time>
      </trkpt>
      <trkpt lat="49.15235" lon="4.08132">
        <ele>184.2</ele>
        <time>2026-08-20T11:50:47Z</time>
      </trkpt>
      <trkpt lat="49.15233" lon="4.08136">
        <ele>184.7</ele>
        <time>2026-08-20T11:50:52Z</time>
      </trkpt>
      <trkpt lat="49.15229" lon="4.08138">
        <ele>185.7</ele>
        <time>2026-08-20T11:50:58Z</time>
      </trkpt>
      <trkpt lat="49.15226" lon="4.08138">
        <ele>186.5</ele>
        <time>2026-08-20T11:51:03Z</time>
      </trkpt>
      <trkpt lat="49.15226" lon="4.08136">
        <ele>186.5</ele>
        <time>2026-08-20T11:51:08Z</time>
      </trkpt>
      <trkpt lat="49.15226" lon="4.08136">
        <ele>186.5</ele>
        <time>2026-08-20T11:51:14Z</time>
      </trkpt>
      <trkpt lat="49.15226" lon="4.08136">
        <ele>186.5</ele>
        <time>2026-08-20T11:51:19Z</time>
      </trkpt>
      <trkpt lat="49.15226" lon="4.08136">
        <ele>186.5</ele>
        <time>2026-08-20T11:51:24Z</time>
      </trkpt>
      <trkpt lat="49.15226" lon="4.08136">
        <ele>186.5</ele>
        <time>2026-08-20T11:51:30Z</time>
      </trkpt>
      <trkpt lat="49.15226" lon="4.08136">
        <ele>186.5</ele>
        <time>2026-08-20T11:51:35Z</time>
      </trkpt>
      <trkpt lat="49.15226" lon="4.08136">
        <ele>186.5</ele>
        <time>2026-08-20T11:51:40Z</time>
      </trkpt>
      <trkpt lat="49.15226" lon="4.08136">
        <ele>186.5</ele>
        <time>2026-08-20T11:51:46Z</time>
      </trkpt>
      <trkpt lat="49.15226" lon="4.08136">
        <ele>186.5</ele>
        <time>2026-08-20T11:51:51Z</time>
      </trkpt>
      <trkpt lat="49.15226" lon="4.08136">
        <ele>186.5</ele>
        <time>2026-08-20T11:51:56Z</time>
      </trkpt>
      <trkpt lat="49.15226" lon="4.08136">
        <ele>186.5</ele>
        <time>2026-08-20T11:52:02Z</time>
      </trkpt>
      <trkpt lat="49.15224" lon="4.08137">
        <ele>187</ele>
        <time>2026-08-20T11:52:07Z</time>
      </trkpt>
      <trkpt lat="49.15221" lon="4.0814">
        <ele>187.8</ele>
        <time>2026-08-20T11:52:12Z</time>
      </trkpt>
      <trkpt lat="49.15215" lon="4.08144">
        <ele>189.3</ele>
        <time>2026-08-20T11:52:18Z</time>
      </trkpt>
      <trkpt lat="49.1521" lon="4.08147">
        <ele>190.6</ele>
        <time>2026-08-20T11:52:23Z</time>
      </trkpt>
      <trkpt lat="49.1521" lon="4.08147">
        <ele>190.6</ele>
        <time>2026-08-20T11:52:28Z</time>
      </trkpt>
      <trkpt lat="49.1521" lon="4.08147">
        <ele>190.6</ele>
        <time>2026-08-20T11:52:34Z</time>
      </trkpt>
      <trkpt lat="49.15206" lon="4.08149">
        <ele>191.6</ele>
        <time>2026-08-20T11:52:39Z</time>
      </trkpt>
      <trkpt lat="49.15202" lon="4.08153">
        <ele>192.6</ele>
        <time>2026-08-20T11:52:44Z</time>
      </trkpt>
      <trkpt lat="49.15195" lon="4.08158">
        <ele>194.5</ele>
        <time>2026-08-20T11:52:50Z</time>
      </trkpt>
      <trkpt lat="49.1519" lon="4.0816">
        <ele>195.8</ele>
        <time>2026-08-20T11:52:55Z</time>
      </trkpt>
      <trkpt lat="49.15186" lon="4.08164">
        <ele>196.9</ele>
        <time>2026-08-20T11:53:00Z</time>
      </trkpt>
      <trkpt lat="49.15181" lon="4.08167">
        <ele>198.2</ele>
        <time>2026-08-20T11:53:06Z</time>
      </trkpt>
      <trkpt lat="49.15178" lon="4.08171">
        <ele>198.6</ele>
        <time>2026-08-20T11:53:11Z</time>
      </trkpt>
      <trkpt lat="49.15173" lon="4.08171">
        <ele>199.9</ele>
        <time>2026-08-20T11:53:16Z</time>
      </trkpt>
      <trkpt lat="49.15167" lon="4.0817">
        <ele>201.6</ele>
        <time>2026-08-20T11:53:22Z</time>
      </trkpt>
      <trkpt lat="49.15162" lon="4.08171">
        <ele>202.2</ele>
        <time>2026-08-20T11:53:27Z</time>
      </trkpt>
      <trkpt lat="49.15157" lon="4.08171">
        <ele>202.9</ele>
        <time>2026-08-20T11:53:32Z</time>
      </trkpt>
      <trkpt lat="49.15151" lon="4.08169">
        <ele>203.9</ele>
        <time>2026-08-20T11:53:38Z</time>
      </trkpt>
      <trkpt lat="49.15148" lon="4.08167">
        <ele>204.4</ele>
        <time>2026-08-20T11:53:43Z</time>
      </trkpt>
      <trkpt lat="49.15143" lon="4.08165">
        <ele>205.1</ele>
        <time>2026-08-20T11:53:48Z</time>
      </trkpt>
      <trkpt lat="49.15139" lon="4.08162">
        <ele>205.6</ele>
        <time>2026-08-20T11:53:54Z</time>
      </trkpt>
      <trkpt lat="49.15135" lon="4.08159">
        <ele>206.2</ele>
        <time>2026-08-20T11:53:59Z</time>
      </trkpt>
      <trkpt lat="49.15131" lon="4.08155">
        <ele>206.7</ele>
        <time>2026-08-20T11:54:04Z</time>
      </trkpt>
      <trkpt lat="49.15127" lon="4.08151">
        <ele>207.2</ele>
        <time>2026-08-20T11:54:10Z</time>
      </trkpt>
      <trkpt lat="49.15125" lon="4.08149">
        <ele>207.5</ele>
        <time>2026-08-20T11:54:15Z</time>
      </trkpt>
      <trkpt lat="49.15124" lon="4.08147">
        <ele>207.6</ele>
        <time>2026-08-20T11:54:20Z</time>
      </trkpt>
      <trkpt lat="49.1512" lon="4.08144">
        <ele>208.2</ele>
        <time>2026-08-20T11:54:26Z</time>
      </trkpt>
      <trkpt lat="49.15117" lon="4.0814">
        <ele>208.6</ele>
        <time>2026-08-20T11:54:31Z</time>
      </trkpt>
      <trkpt lat="49.15115" lon="4.08136">
        <ele>208.9</ele>
        <time>2026-08-20T11:54:36Z</time>
      </trkpt>
      <trkpt lat="49.1511" lon="4.08131">
        <ele>209.6</ele>
        <time>2026-08-20T11:54:42Z</time>
      </trkpt>
      <trkpt lat="49.15108" lon="4.08128">
        <ele>209.9</ele>
        <time>2026-08-20T11:54:47Z</time>
      </trkpt>
      <trkpt lat="49.15105" lon="4.08124">
        <ele>210.4</ele>
        <time>2026-08-20T11:54:52Z</time>
      </trkpt>
      <trkpt lat="49.15102" lon="4.08119">
        <ele>210.9</ele>
        <time>2026-08-20T11:54:58Z</time>
      </trkpt>
      <trkpt lat="49.15099" lon="4.08114">
        <ele>211.3</ele>
        <time>2026-08-20T11:55:03Z</time>
      </trkpt>
      <trkpt lat="49.15095" lon="4.08109">
        <ele>212</ele>
        <time>2026-08-20T11:55:08Z</time>
      </trkpt>
      <trkpt lat="49.1509" lon="4.08106">
        <ele>212.7</ele>
        <time>2026-08-20T11:55:14Z</time>
      </trkpt>
      <trkpt lat="49.15087" lon="4.08102">
        <ele>213.2</ele>
        <time>2026-08-20T11:55:19Z</time>
      </trkpt>
      <trkpt lat="49.15087" lon="4.08099">
        <ele>213.3</ele>
        <time>2026-08-20T11:55:24Z</time>
      </trkpt>
      <trkpt lat="49.15087" lon="4.08097">
        <ele>213.3</ele>
        <time>2026-08-20T11:55:30Z</time>
      </trkpt>
      <trkpt lat="49.15087" lon="4.08097">
        <ele>213.3</ele>
        <time>2026-08-20T11:55:35Z</time>
      </trkpt>
      <trkpt lat="49.15087" lon="4.08097">
        <ele>213.3</ele>
        <time>2026-08-20T11:55:40Z</time>
      </trkpt>
      <trkpt lat="49.15083" lon="4.08091">
        <ele>214</ele>
        <time>2026-08-20T11:55:46Z</time>
      </trkpt>
      <trkpt lat="49.15081" lon="4.08089">
        <ele>214.2</ele>
        <time>2026-08-20T11:55:51Z</time>
      </trkpt>
      <trkpt lat="49.15077" lon="4.08085">
        <ele>214.8</ele>
        <time>2026-08-20T11:55:56Z</time>
      </trkpt>
      <trkpt lat="49.15074" lon="4.08082">
        <ele>215.3</ele>
        <time>2026-08-20T11:56:02Z</time>
      </trkpt>
      <trkpt lat="49.15071" lon="4.08079">
        <ele>215.7</ele>
        <time>2026-08-20T11:56:07Z</time>
      </trkpt>
      <trkpt lat="49.15068" lon="4.08075">
        <ele>216.2</ele>
        <time>2026-08-20T11:56:12Z</time>
      </trkpt>
      <trkpt lat="49.15064" lon="4.08069">
        <ele>216.8</ele>
        <time>2026-08-20T11:56:18Z</time>
      </trkpt>
      <trkpt lat="49.15062" lon="4.08065">
        <ele>217.2</ele>
        <time>2026-08-20T11:56:23Z</time>
      </trkpt>
      <trkpt lat="49.15059" lon="4.08061">
        <ele>217.7</ele>
        <time>2026-08-20T11:56:28Z</time>
      </trkpt>
      <trkpt lat="49.15054" lon="4.08056">
        <ele>218.5</ele>
        <time>2026-08-20T11:56:34Z</time>
      </trkpt>
      <trkpt lat="49.15051" lon="4.08052">
        <ele>219.1</ele>
        <time>2026-08-20T11:56:39Z</time>
      </trkpt>
      <trkpt lat="49.15047" lon="4.08049">
        <ele>219.7</ele>
        <time>2026-08-20T11:56:44Z</time>
      </trkpt>
      <trkpt lat="49.15044" lon="4.08045">
        <ele>220.3</ele>
        <time>2026-08-20T11:56:50Z</time>
      </trkpt>
      <trkpt lat="49.15041" lon="4.08042">
        <ele>220.8</ele>
        <time>2026-08-20T11:56:55Z</time>
      </trkpt>
      <trkpt lat="49.15038" lon="4.0804">
        <ele>221.4</ele>
        <time>2026-08-20T11:57:00Z</time>
      </trkpt>
      <trkpt lat="49.15037" lon="4.08038">
        <ele>221.6</ele>
        <time>2026-08-20T11:57:06Z</time>
      </trkpt>
      <trkpt lat="49.15037" lon="4.08038">
        <ele>221.6</ele>
        <time>2026-08-20T11:57:11Z</time>
      </trkpt>
      <trkpt lat="49.15037" lon="4.08038">
        <ele>221.6</ele>
        <time>2026-08-20T11:57:16Z</time>
      </trkpt>
      <trkpt lat="49.15037" lon="4.08038">
        <ele>221.6</ele>
        <time>2026-08-20T11:57:22Z</time>
      </trkpt>
      <trkpt lat="49.15037" lon="4.08038">
        <ele>221.6</ele>
        <time>2026-08-20T11:57:27Z</time>
      </trkpt>
      <trkpt lat="49.15037" lon="4.08038">
        <ele>221.6</ele>
        <time>2026-08-20T11:57:32Z</time>
      </trkpt>
      <trkpt lat="49.15037" lon="4.08038">
        <ele>221.6</ele>
        <time>2026-08-20T11:57:38Z</time>
      </trkpt>
      <trkpt lat="49.15033" lon="4.08044">
        <ele>222</ele>
        <time>2026-08-20T11:57:43Z</time>
      </trkpt>
      <trkpt lat="49.15031" lon="4.08044">
        <ele>222.3</ele>
        <time>2026-08-20T11:57:48Z</time>
      </trkpt>
      <trkpt lat="49.15026" lon="4.08041">
        <ele>223.1</ele>
        <time>2026-08-20T11:57:54Z</time>
      </trkpt>
      <trkpt lat="49.15021" lon="4.0804">
        <ele>223.9</ele>
        <time>2026-08-20T11:57:59Z</time>
      </trkpt>
      <trkpt lat="49.15017" lon="4.08042">
        <ele>224.4</ele>
        <time>2026-08-20T11:58:04Z</time>
      </trkpt>
      <trkpt lat="49.15013" lon="4.08046">
        <ele>224.9</ele>
        <time>2026-08-20T11:58:10Z</time>
      </trkpt>
      <trkpt lat="49.15008" lon="4.08052">
        <ele>225.3</ele>
        <time>2026-08-20T11:58:15Z</time>
      </trkpt>
      <trkpt lat="49.15005" lon="4.08057">
        <ele>225.5</ele>
        <time>2026-08-20T11:58:20Z</time>
      </trkpt>
      <trkpt lat="49.15002" lon="4.08061">
        <ele>225.8</ele>
        <time>2026-08-20T11:58:26Z</time>
      </trkpt>
      <trkpt lat="49.14999" lon="4.08064">
        <ele>226.1</ele>
        <time>2026-08-20T11:58:31Z</time>
      </trkpt>
      <trkpt lat="49.14996" lon="4.08069">
        <ele>226.2</ele>
        <time>2026-08-20T11:58:36Z</time>
      </trkpt>
      <trkpt lat="49.14993" lon="4.08075">
        <ele>226.3</ele>
        <time>2026-08-20T11:58:42Z</time>
      </trkpt>
      <trkpt lat="49.1499" lon="4.08079">
        <ele>226.5</ele>
        <time>2026-08-20T11:58:47Z</time>
      </trkpt>
      <trkpt lat="49.14987" lon="4.08084">
        <ele>226.7</ele>
        <time>2026-08-20T11:58:52Z</time>
      </trkpt>
      <trkpt lat="49.14983" lon="4.0809">
        <ele>226.9</ele>
        <time>2026-08-20T11:58:58Z</time>
      </trkpt>
      <trkpt lat="49.1498" lon="4.08095">
        <ele>227</ele>
        <time>2026-08-20T11:59:03Z</time>
      </trkpt>
      <trkpt lat="49.14976" lon="4.08099">
        <ele>227.4</ele>
        <time>2026-08-20T11:59:08Z</time>
      </trkpt>
      <trkpt lat="49.14973" lon="4.08104">
        <ele>227.6</ele>
        <time>2026-08-20T11:59:14Z</time>
      </trkpt>
      <trkpt lat="49.14969" lon="4.08109">
        <ele>227.9</ele>
        <time>2026-08-20T11:59:19Z</time>
      </trkpt>
      <trkpt lat="49.14966" lon="4.08112">
        <ele>228.3</ele>
        <time>2026-08-20T11:59:24Z</time>
      </trkpt>
      <trkpt lat="49.14964" lon="4.08111">
        <ele>228.6</ele>
        <time>2026-08-20T11:59:30Z</time>
      </trkpt>
      <trkpt lat="49.14962" lon="4.08115">
        <ele>228.8</ele>
        <time>2026-08-20T11:59:35Z</time>
      </trkpt>
      <trkpt lat="49.14957" lon="4.0812">
        <ele>229.4</ele>
        <time>2026-08-20T11:59:40Z</time>
      </trkpt>
      <trkpt lat="49.14953" lon="4.08122">
        <ele>230</ele>
        <time>2026-08-20T11:59:46Z</time>
      </trkpt>
      <trkpt lat="49.14948" lon="4.08122">
        <ele>230.8</ele>
        <time>2026-08-20T11:59:51Z</time>
      </trkpt>
      <trkpt lat="49.14946" lon="4.08122">
        <ele>231.1</ele>
        <time>2026-08-20T11:59:56Z</time>
      </trkpt>
      <trkpt lat="49.14945" lon="4.08121">
        <ele>231.3</ele>
        <time>2026-08-20T12:00:02Z</time>
      </trkpt>
      <trkpt lat="49.14945" lon="4.08121">
        <ele>231.3</ele>
        <time>2026-08-20T12:00:07Z</time>
      </trkpt>
      <trkpt lat="49.14944" lon="4.08121">
        <ele>231.5</ele>
        <time>2026-08-20T12:00:12Z</time>
      </trkpt>
      <trkpt lat="49.14941" lon="4.08121">
        <ele>232</ele>
        <time>2026-08-20T12:00:18Z</time>
      </trkpt>
      <trkpt lat="49.1494" lon="4.0812">
        <ele>232.2</ele>
        <time>2026-08-20T12:00:23Z</time>
      </trkpt>
      <trkpt lat="49.1494" lon="4.0812">
        <ele>232.2</ele>
        <time>2026-08-20T12:00:28Z</time>
      </trkpt>
      <trkpt lat="49.1494" lon="4.0812">
        <ele>232.2</ele>
        <time>2026-08-20T12:00:34Z</time>
      </trkpt>
      <trkpt lat="49.1494" lon="4.0812">
        <ele>232.2</ele>
        <time>2026-08-20T12:00:39Z</time>
      </trkpt>
      <trkpt lat="49.1494" lon="4.0812">
        <ele>232.2</ele>
        <time>2026-08-20T12:00:44Z</time>
      </trkpt>
      <trkpt lat="49.1494" lon="4.0812">
        <ele>232.2</ele>
        <time>2026-08-20T12:00:50Z</time>
      </trkpt>
      <trkpt lat="49.1494" lon="4.0812">
        <ele>232.2</ele>
        <time>2026-08-20T12:00:55Z</time>
      </trkpt>
      <trkpt lat="49.1494" lon="4.0812">
        <ele>232.2</ele>
        <time>2026-08-20T12:01:00Z</time>
      </trkpt>
      <trkpt lat="49.1494" lon="4.0812">
        <ele>232.2</ele>
        <time>2026-08-20T12:01:06Z</time>
      </trkpt>
      <trkpt lat="49.1494" lon="4.0812">
        <ele>232.2</ele>
        <time>2026-08-20T12:01:11Z</time>
      </trkpt>
      <trkpt lat="49.1494" lon="4.0812">
        <ele>232.2</ele>
        <time>2026-08-20T12:01:16Z</time>
      </trkpt>
      <trkpt lat="49.1494" lon="4.0812">
        <ele>232.2</ele>
        <time>2026-08-20T12:01:22Z</time>
      </trkpt>
      <trkpt lat="49.1494" lon="4.0812">
        <ele>232.2</ele>
        <time>2026-08-20T12:01:27Z</time>
      </trkpt>
      <trkpt lat="49.1494" lon="4.0812">
        <ele>232.2</ele>
        <time>2026-08-20T12:01:32Z</time>
      </trkpt>
      <trkpt lat="49.1494" lon="4.0812">
        <ele>232.2</ele>
        <time>2026-08-20T12:01:38Z</time>
      </trkpt>
      <trkpt lat="49.1494" lon="4.0812">
        <ele>232.2</ele>
        <time>2026-08-20T12:01:43Z</time>
      </trkpt>
      <trkpt lat="49.1494" lon="4.0812">
        <ele>232.2</ele>
        <time>2026-08-20T12:01:48Z</time>
      </trkpt>
      <trkpt lat="49.1494" lon="4.0812">
        <ele>232.2</ele>
        <time>2026-08-20T12:01:54Z</time>
      </trkpt>
      <trkpt lat="49.1494" lon="4.0812">
        <ele>232.2</ele>
        <time>2026-08-20T12:01:59Z</time>
      </trkpt>
      <trkpt lat="49.1494" lon="4.0812">
        <ele>232.2</ele>
        <time>2026-08-20T12:02:04Z</time>
      </trkpt>
      <trkpt lat="49.1494" lon="4.0812">
        <ele>232.2</ele>
        <time>2026-08-20T12:02:10Z</time>
      </trkpt>
      <trkpt lat="49.1494" lon="4.0812">
        <ele>232.2</ele>
        <time>2026-08-20T12:02:15Z</time>
      </trkpt>
      <trkpt lat="49.1494" lon="4.0812">
        <ele>232.2</ele>
        <time>2026-08-20T12:02:20Z</time>
      </trkpt>
      <trkpt lat="49.14938" lon="4.08122">
        <ele>232.5</ele>
        <time>2026-08-20T12:02:26Z</time>
      </trkpt>
      <trkpt lat="49.14934" lon="4.08119">
        <ele>233.2</ele>
        <time>2026-08-20T12:02:31Z</time>
      </trkpt>
      <trkpt lat="49.1493" lon="4.08116">
        <ele>233.9</ele>
        <time>2026-08-20T12:02:36Z</time>
      </trkpt>
      <trkpt lat="49.14926" lon="4.08113">
        <ele>234.5</ele>
        <time>2026-08-20T12:02:42Z</time>
      </trkpt>
      <trkpt lat="49.14922" lon="4.08112">
        <ele>235.2</ele>
        <time>2026-08-20T12:02:47Z</time>
      </trkpt>
      <trkpt lat="49.14919" lon="4.0811">
        <ele>235.6</ele>
        <time>2026-08-20T12:02:52Z</time>
      </trkpt>
      <trkpt lat="49.14916" lon="4.08109">
        <ele>236.1</ele>
        <time>2026-08-20T12:02:58Z</time>
      </trkpt>
      <trkpt lat="49.14915" lon="4.08108">
        <ele>236.2</ele>
        <time>2026-08-20T12:03:03Z</time>
      </trkpt>
      <trkpt lat="49.14915" lon="4.08108">
        <ele>236.2</ele>
        <time>2026-08-20T12:03:08Z</time>
      </trkpt>
      <trkpt lat="49.14915" lon="4.08108">
        <ele>236.2</ele>
        <time>2026-08-20T12:03:14Z</time>
      </trkpt>
      <trkpt lat="49.14915" lon="4.08108">
        <ele>236.2</ele>
        <time>2026-08-20T12:03:19Z</time>
      </trkpt>
      <trkpt lat="49.14909" lon="4.08103">
        <ele>237</ele>
        <time>2026-08-20T12:03:24Z</time>
      </trkpt>
      <trkpt lat="49.14904" lon="4.08102">
        <ele>237.6</ele>
        <time>2026-08-20T12:03:30Z</time>
      </trkpt>
      <trkpt lat="49.14899" lon="4.08099">
        <ele>238.3</ele>
        <time>2026-08-20T12:03:35Z</time>
      </trkpt>
      <trkpt lat="49.14895" lon="4.08096">
        <ele>238.8</ele>
        <time>2026-08-20T12:03:40Z</time>
      </trkpt>
      <trkpt lat="49.1489" lon="4.08094">
        <ele>239.4</ele>
        <time>2026-08-20T12:03:46Z</time>
      </trkpt>
      <trkpt lat="49.14884" lon="4.08092">
        <ele>240.2</ele>
        <time>2026-08-20T12:03:51Z</time>
      </trkpt>
      <trkpt lat="49.1488" lon="4.08089">
        <ele>240.8</ele>
        <time>2026-08-20T12:03:56Z</time>
      </trkpt>
      <trkpt lat="49.14875" lon="4.08086">
        <ele>241.5</ele>
        <time>2026-08-20T12:04:02Z</time>
      </trkpt>
      <trkpt lat="49.14871" lon="4.08085">
        <ele>242</ele>
        <time>2026-08-20T12:04:07Z</time>
      </trkpt>
      <trkpt lat="49.14866" lon="4.08082">
        <ele>242.7</ele>
        <time>2026-08-20T12:04:12Z</time>
      </trkpt>
      <trkpt lat="49.14861" lon="4.08079">
        <ele>243.5</ele>
        <time>2026-08-20T12:04:18Z</time>
      </trkpt>
      <trkpt lat="49.14857" lon="4.08078">
        <ele>244</ele>
        <time>2026-08-20T12:04:23Z</time>
      </trkpt>
      <trkpt lat="49.14853" lon="4.08076">
        <ele>244.6</ele>
        <time>2026-08-20T12:04:28Z</time>
      </trkpt>
      <trkpt lat="49.14847" lon="4.08074">
        <ele>245.4</ele>
        <time>2026-08-20T12:04:34Z</time>
      </trkpt>
      <trkpt lat="49.14844" lon="4.08072">
        <ele>245.8</ele>
        <time>2026-08-20T12:04:39Z</time>
      </trkpt>
      <trkpt lat="49.1484" lon="4.0807">
        <ele>246.3</ele>
        <time>2026-08-20T12:04:44Z</time>
      </trkpt>
      <trkpt lat="49.14838" lon="4.08069">
        <ele>246.6</ele>
        <time>2026-08-20T12:04:50Z</time>
      </trkpt>
      <trkpt lat="49.14838" lon="4.08069">
        <ele>246.6</ele>
        <time>2026-08-20T12:04:55Z</time>
      </trkpt>
      <trkpt lat="49.14832" lon="4.08068">
        <ele>247.4</ele>
        <time>2026-08-20T12:05:00Z</time>
      </trkpt>
      <trkpt lat="49.14827" lon="4.08064">
        <ele>248.1</ele>
        <time>2026-08-20T12:05:06Z</time>
      </trkpt>
      <trkpt lat="49.14823" lon="4.08063">
        <ele>248.6</ele>
        <time>2026-08-20T12:05:11Z</time>
      </trkpt>
      <trkpt lat="49.14819" lon="4.0806">
        <ele>249.2</ele>
        <time>2026-08-20T12:05:16Z</time>
      </trkpt>
      <trkpt lat="49.14815" lon="4.08059">
        <ele>249.8</ele>
        <time>2026-08-20T12:05:22Z</time>
      </trkpt>
      <trkpt lat="49.14811" lon="4.08058">
        <ele>250.3</ele>
        <time>2026-08-20T12:05:27Z</time>
      </trkpt>
      <trkpt lat="49.14807" lon="4.08056">
        <ele>250.9</ele>
        <time>2026-08-20T12:05:32Z</time>
      </trkpt>
      <trkpt lat="49.14804" lon="4.08054">
        <ele>251.3</ele>
        <time>2026-08-20T12:05:38Z</time>
      </trkpt>
      <trkpt lat="49.14803" lon="4.08053">
        <ele>251.5</ele>
        <time>2026-08-20T12:05:43Z</time>
      </trkpt>
      <trkpt lat="49.14803" lon="4.08053">
        <ele>251.5</ele>
        <time>2026-08-20T12:05:48Z</time>
      </trkpt>
      <trkpt lat="49.14803" lon="4.08053">
        <ele>251.5</ele>
        <time>2026-08-20T12:05:54Z</time>
      </trkpt>
      <trkpt lat="49.14803" lon="4.08053">
        <ele>251.5</ele>
        <time>2026-08-20T12:05:59Z</time>
      </trkpt>
      <trkpt lat="49.14799" lon="4.08051">
        <ele>252.1</ele>
        <time>2026-08-20T12:06:04Z</time>
      </trkpt>
      <trkpt lat="49.14794" lon="4.08049">
        <ele>252.8</ele>
        <time>2026-08-20T12:06:10Z</time>
      </trkpt>
      <trkpt lat="49.14789" lon="4.08047">
        <ele>253.5</ele>
        <time>2026-08-20T12:06:15Z</time>
      </trkpt>
      <trkpt lat="49.14785" lon="4.08045">
        <ele>254.1</ele>
        <time>2026-08-20T12:06:20Z</time>
      </trkpt>
      <trkpt lat="49.14781" lon="4.08042">
        <ele>254.7</ele>
        <time>2026-08-20T12:06:26Z</time>
      </trkpt>
      <trkpt lat="49.14776" lon="4.0804">
        <ele>255.4</ele>
        <time>2026-08-20T12:06:31Z</time>
      </trkpt>
      <trkpt lat="49.14772" lon="4.08039">
        <ele>256</ele>
        <time>2026-08-20T12:06:36Z</time>
      </trkpt>
      <trkpt lat="49.14767" lon="4.0804">
        <ele>256.7</ele>
        <time>2026-08-20T12:06:42Z</time>
      </trkpt>
      <trkpt lat="49.14762" lon="4.08039">
        <ele>257.4</ele>
        <time>2026-08-20T12:06:47Z</time>
      </trkpt>
      <trkpt lat="49.1476" lon="4.08038">
        <ele>257.7</ele>
        <time>2026-08-20T12:06:52Z</time>
      </trkpt>
      <trkpt lat="49.14759" lon="4.08038">
        <ele>257.8</ele>
        <time>2026-08-20T12:06:58Z</time>
      </trkpt>
      <trkpt lat="49.14759" lon="4.08038">
        <ele>257.8</ele>
        <time>2026-08-20T12:07:03Z</time>
      </trkpt>
      <trkpt lat="49.14755" lon="4.08039">
        <ele>258.4</ele>
        <time>2026-08-20T12:07:08Z</time>
      </trkpt>
      <trkpt lat="49.14751" lon="4.08037">
        <ele>259</ele>
        <time>2026-08-20T12:07:14Z</time>
      </trkpt>
      <trkpt lat="49.14748" lon="4.08036">
        <ele>259.4</ele>
        <time>2026-08-20T12:07:19Z</time>
      </trkpt>
      <trkpt lat="49.14745" lon="4.08038">
        <ele>259.6</ele>
        <time>2026-08-20T12:07:24Z</time>
      </trkpt>
      <trkpt lat="49.14744" lon="4.08036">
        <ele>259.8</ele>
        <time>2026-08-20T12:07:30Z</time>
      </trkpt>
      <trkpt lat="49.14744" lon="4.08036">
        <ele>259.8</ele>
        <time>2026-08-20T12:07:35Z</time>
      </trkpt>
      <trkpt lat="49.14744" lon="4.08036">
        <ele>259.8</ele>
        <time>2026-08-20T12:07:40Z</time>
      </trkpt>
      <trkpt lat="49.14744" lon="4.08036">
        <ele>259.8</ele>
        <time>2026-08-20T12:07:46Z</time>
      </trkpt>
      <trkpt lat="49.14744" lon="4.08036">
        <ele>259.8</ele>
        <time>2026-08-20T12:07:51Z</time>
      </trkpt>
      <trkpt lat="49.14744" lon="4.08036">
        <ele>259.8</ele>
        <time>2026-08-20T12:07:56Z</time>
      </trkpt>
      <trkpt lat="49.14744" lon="4.08036">
        <ele>259.8</ele>
        <time>2026-08-20T12:08:02Z</time>
      </trkpt>
      <trkpt lat="49.14744" lon="4.08036">
        <ele>259.8</ele>
        <time>2026-08-20T12:08:07Z</time>
      </trkpt>
      <trkpt lat="49.14744" lon="4.08036">
        <ele>259.8</ele>
        <time>2026-08-20T12:08:12Z</time>
      </trkpt>
      <trkpt lat="49.14744" lon="4.08036">
        <ele>259.8</ele>
        <time>2026-08-20T12:08:18Z</time>
      </trkpt>
      <trkpt lat="49.14744" lon="4.08036">
        <ele>259.8</ele>
        <time>2026-08-20T12:08:23Z</time>
      </trkpt>
      <trkpt lat="49.14744" lon="4.08036">
        <ele>259.8</ele>
        <time>2026-08-20T12:08:28Z</time>
      </trkpt>
      <trkpt lat="49.14744" lon="4.08036">
        <ele>259.8</ele>
        <time>2026-08-20T12:08:34Z</time>
      </trkpt>
      <trkpt lat="49.14744" lon="4.08036">
        <ele>259.8</ele>
        <time>2026-08-20T12:08:39Z</time>
      </trkpt>
      <trkpt lat="49.14744" lon="4.08036">
        <ele>259.8</ele>
        <time>2026-08-20T12:08:44Z</time>
      </trkpt>
      <trkpt lat="49.14744" lon="4.08036">
        <ele>259.8</ele>
        <time>2026-08-20T12:08:50Z</time>
      </trkpt>
      <trkpt lat="49.14744" lon="4.08036">
        <ele>259.8</ele>
        <time>2026-08-20T12:08:55Z</time>
      </trkpt>
      <trkpt lat="49.14741" lon="4.08042">
        <ele>260</ele>
        <time>2026-08-20T12:09:00Z</time>
      </trkpt>
      <trkpt lat="49.14736" lon="4.08046">
        <ele>260.4</ele>
        <time>2026-08-20T12:09:06Z</time>
      </trkpt>
      <trkpt lat="49.14731" lon="4.08051">
        <ele>260.8</ele>
        <time>2026-08-20T12:09:11Z</time>
      </trkpt>
      <trkpt lat="49.14727" lon="4.08054">
        <ele>261.2</ele>
        <time>2026-08-20T12:09:16Z</time>
      </trkpt>
      <trkpt lat="49.14722" lon="4.08057">
        <ele>261.7</ele>
        <time>2026-08-20T12:09:22Z</time>
      </trkpt>
      <trkpt lat="49.1472" lon="4.08059">
        <ele>261.8</ele>
        <time>2026-08-20T12:09:27Z</time>
      </trkpt>
      <trkpt lat="49.14717" lon="4.08062">
        <ele>262.1</ele>
        <time>2026-08-20T12:09:32Z</time>
      </trkpt>
      <trkpt lat="49.14711" lon="4.08066">
        <ele>262.6</ele>
        <time>2026-08-20T12:09:38Z</time>
      </trkpt>
      <trkpt lat="49.14707" lon="4.08071">
        <ele>262.9</ele>
        <time>2026-08-20T12:09:43Z</time>
      </trkpt>
      <trkpt lat="49.14701" lon="4.08075">
        <ele>263.5</ele>
        <time>2026-08-20T12:09:48Z</time>
      </trkpt>
      <trkpt lat="49.14697" lon="4.08078">
        <ele>263.9</ele>
        <time>2026-08-20T12:09:54Z</time>
      </trkpt>
      <trkpt lat="49.14693" lon="4.08082">
        <ele>264.2</ele>
        <time>2026-08-20T12:09:59Z</time>
      </trkpt>
      <trkpt lat="49.14689" lon="4.08084">
        <ele>264.6</ele>
        <time>2026-08-20T12:10:04Z</time>
      </trkpt>
      <trkpt lat="49.14685" lon="4.08088">
        <ele>264.9</ele>
        <time>2026-08-20T12:10:10Z</time>
      </trkpt>
      <trkpt lat="49.14681" lon="4.08093">
        <ele>265.3</ele>
        <time>2026-08-20T12:10:15Z</time>
      </trkpt>
      <trkpt lat="49.14679" lon="4.08095">
        <ele>265.5</ele>
        <time>2026-08-20T12:10:20Z</time>
      </trkpt>
      <trkpt lat="49.14675" lon="4.08098">
        <ele>265.9</ele>
        <time>2026-08-20T12:10:26Z</time>
      </trkpt>
      <trkpt lat="49.14672" lon="4.08101">
        <ele>266.2</ele>
        <time>2026-08-20T12:10:31Z</time>
      </trkpt>
      <trkpt lat="49.14668" lon="4.08103">
        <ele>266.6</ele>
        <time>2026-08-20T12:10:36Z</time>
      </trkpt>
      <trkpt lat="49.14662" lon="4.08107">
        <ele>267.2</ele>
        <time>2026-08-20T12:10:42Z</time>
      </trkpt>
      <trkpt lat="49.14658" lon="4.08109">
        <ele>267.6</ele>
        <time>2026-08-20T12:10:47Z</time>
      </trkpt>
      <trkpt lat="49.14654" lon="4.0811">
        <ele>267.9</ele>
        <time>2026-08-20T12:10:52Z</time>
      </trkpt>
      <trkpt lat="49.1465" lon="4.0811">
        <ele>268.3</ele>
        <time>2026-08-20T12:10:58Z</time>
      </trkpt>
      <trkpt lat="49.14647" lon="4.08108">
        <ele>268.7</ele>
        <time>2026-08-20T12:11:03Z</time>
      </trkpt>
      <trkpt lat="49.14647" lon="4.08108">
        <ele>268.7</ele>
        <time>2026-08-20T12:11:08Z</time>
      </trkpt>
      <trkpt lat="49.14647" lon="4.08108">
        <ele>268.7</ele>
        <time>2026-08-20T12:11:14Z</time>
      </trkpt>
      <trkpt lat="49.14647" lon="4.08108">
        <ele>268.7</ele>
        <time>2026-08-20T12:11:19Z</time>
      </trkpt>
      <trkpt lat="49.14647" lon="4.08108">
        <ele>268.7</ele>
        <time>2026-08-20T12:11:24Z</time>
      </trkpt>
      <trkpt lat="49.14647" lon="4.08108">
        <ele>268.7</ele>
        <time>2026-08-20T12:11:30Z</time>
      </trkpt>
      <trkpt lat="49.14647" lon="4.08108">
        <ele>268.7</ele>
        <time>2026-08-20T12:11:35Z</time>
      </trkpt>
      <trkpt lat="49.14647" lon="4.08108">
        <ele>268.7</ele>
        <time>2026-08-20T12:11:40Z</time>
      </trkpt>
      <trkpt lat="49.14647" lon="4.08108">
        <ele>268.7</ele>
        <time>2026-08-20T12:11:46Z</time>
      </trkpt>
      <trkpt lat="49.14647" lon="4.08108">
        <ele>268.7</ele>
        <time>2026-08-20T12:11:51Z</time>
      </trkpt>
      <trkpt lat="49.14643" lon="4.0811">
        <ele>269</ele>
        <time>2026-08-20T12:11:56Z</time>
      </trkpt>
      <trkpt lat="49.14639" lon="4.08107">
        <ele>269.5</ele>
        <time>2026-08-20T12:12:02Z</time>
      </trkpt>
      <trkpt lat="49.14637" lon="4.08108">
        <ele>269.7</ele>
        <time>2026-08-20T12:12:07Z</time>
      </trkpt>
      <trkpt lat="49.14636" lon="4.0811">
        <ele>269.7</ele>
        <time>2026-08-20T12:12:12Z</time>
      </trkpt>
      <trkpt lat="49.14636" lon="4.0811">
        <ele>269.7</ele>
        <time>2026-08-20T12:12:18Z</time>
      </trkpt>
      <trkpt lat="49.14636" lon="4.0811">
        <ele>269.7</ele>
        <time>2026-08-20T12:12:23Z</time>
      </trkpt>
      <trkpt lat="49.14633" lon="4.0811">
        <ele>270</ele>
        <time>2026-08-20T12:12:28Z</time>
      </trkpt>
      <trkpt lat="49.14626" lon="4.08106">
        <ele>270.8</ele>
        <time>2026-08-20T12:12:34Z</time>
      </trkpt>
      <trkpt lat="49.14621" lon="4.081">
        <ele>271.3</ele>
        <time>2026-08-20T12:12:39Z</time>
      </trkpt>
      <trkpt lat="49.14617" lon="4.08096">
        <ele>271.7</ele>
        <time>2026-08-20T12:12:44Z</time>
      </trkpt>
      <trkpt lat="49.14612" lon="4.08092">
        <ele>272.2</ele>
        <time>2026-08-20T12:12:50Z</time>
      </trkpt>
      <trkpt lat="49.14608" lon="4.0809">
        <ele>272.6</ele>
        <time>2026-08-20T12:12:55Z</time>
      </trkpt>
      <trkpt lat="49.14603" lon="4.08089">
        <ele>273.1</ele>
        <time>2026-08-20T12:13:00Z</time>
      </trkpt>
      <trkpt lat="49.14598" lon="4.08086">
        <ele>273.6</ele>
        <time>2026-08-20T12:13:06Z</time>
      </trkpt>
      <trkpt lat="49.14593" lon="4.08083">
        <ele>274.1</ele>
        <time>2026-08-20T12:13:11Z</time>
      </trkpt>
      <trkpt lat="49.14588" lon="4.08081">
        <ele>274.6</ele>
        <time>2026-08-20T12:13:16Z</time>
      </trkpt>
      <trkpt lat="49.14583" lon="4.08076">
        <ele>275.2</ele>
        <time>2026-08-20T12:13:22Z</time>
      </trkpt>
      <trkpt lat="49.14579" lon="4.08074">
        <ele>275.6</ele>
        <time>2026-08-20T12:13:27Z</time>
      </trkpt>
      <trkpt lat="49.14574" lon="4.08072">
        <ele>276</ele>
        <time>2026-08-20T12:13:32Z</time>
      </trkpt>
      <trkpt lat="49.14569" lon="4.08079">
        <ele>276.3</ele>
        <time>2026-08-20T12:13:38Z</time>
      </trkpt>
      <trkpt lat="49.14566" lon="4.08085">
        <ele>276.5</ele>
        <time>2026-08-20T12:13:43Z</time>
      </trkpt>
      <trkpt lat="49.14565" lon="4.08089">
        <ele>276.5</ele>
        <time>2026-08-20T12:13:48Z</time>
      </trkpt>
      <trkpt lat="49.14559" lon="4.0809">
        <ele>277</ele>
        <time>2026-08-20T12:13:54Z</time>
      </trkpt>
      <trkpt lat="49.14555" lon="4.08094">
        <ele>277.4</ele>
        <time>2026-08-20T12:13:59Z</time>
      </trkpt>
      <trkpt lat="49.14551" lon="4.08097">
        <ele>277.7</ele>
        <time>2026-08-20T12:14:04Z</time>
      </trkpt>
      <trkpt lat="49.14549" lon="4.08096">
        <ele>277.9</ele>
        <time>2026-08-20T12:14:10Z</time>
      </trkpt>
      <trkpt lat="49.14549" lon="4.08097">
        <ele>277.9</ele>
        <time>2026-08-20T12:14:15Z</time>
      </trkpt>
      <trkpt lat="49.14549" lon="4.08097">
        <ele>277.9</ele>
        <time>2026-08-20T12:14:20Z</time>
      </trkpt>
      <trkpt lat="49.14548" lon="4.08104">
        <ele>278</ele>
        <time>2026-08-20T12:14:26Z</time>
      </trkpt>
      <trkpt lat="49.14545" lon="4.08104">
        <ele>278.2</ele>
        <time>2026-08-20T12:14:31Z</time>
      </trkpt>
      <trkpt lat="49.1454" lon="4.08107">
        <ele>278.6</ele>
        <time>2026-08-20T12:14:36Z</time>
      </trkpt>
      <trkpt lat="49.14535" lon="4.08113">
        <ele>279.1</ele>
        <time>2026-08-20T12:14:42Z</time>
      </trkpt>
      <trkpt lat="49.14531" lon="4.08117">
        <ele>279.4</ele>
        <time>2026-08-20T12:14:47Z</time>
      </trkpt>
      <trkpt lat="49.14529" lon="4.08121">
        <ele>279.6</ele>
        <time>2026-08-20T12:14:52Z</time>
      </trkpt>
      <trkpt lat="49.14525" lon="4.08123">
        <ele>279.9</ele>
        <time>2026-08-20T12:14:58Z</time>
      </trkpt>
      <trkpt lat="49.14522" lon="4.08127">
        <ele>280.2</ele>
        <time>2026-08-20T12:15:03Z</time>
      </trkpt>
      <trkpt lat="49.14519" lon="4.0813">
        <ele>280.4</ele>
        <time>2026-08-20T12:15:08Z</time>
      </trkpt>
      <trkpt lat="49.14515" lon="4.08132">
        <ele>280.7</ele>
        <time>2026-08-20T12:15:14Z</time>
      </trkpt>
      <trkpt lat="49.14513" lon="4.08133">
        <ele>280.9</ele>
        <time>2026-08-20T12:15:19Z</time>
      </trkpt>
      <trkpt lat="49.14513" lon="4.08133">
        <ele>280.9</ele>
        <time>2026-08-20T12:15:24Z</time>
      </trkpt>
      <trkpt lat="49.14513" lon="4.08133">
        <ele>280.9</ele>
        <time>2026-08-20T12:15:30Z</time>
      </trkpt>
      <trkpt lat="49.14513" lon="4.08133">
        <ele>280.9</ele>
        <time>2026-08-20T12:15:35Z</time>
      </trkpt>
      <trkpt lat="49.14513" lon="4.08133">
        <ele>280.9</ele>
        <time>2026-08-20T12:15:40Z</time>
      </trkpt>
      <trkpt lat="49.14513" lon="4.08133">
        <ele>280.9</ele>
        <time>2026-08-20T12:15:46Z</time>
      </trkpt>
      <trkpt lat="49.14513" lon="4.08133">
        <ele>280.9</ele>
        <time>2026-08-20T12:15:51Z</time>
      </trkpt>
      <trkpt lat="49.14513" lon="4.08133">
        <ele>280.9</ele>
        <time>2026-08-20T12:15:56Z</time>
      </trkpt>
      <trkpt lat="49.14513" lon="4.08133">
        <ele>280.9</ele>
        <time>2026-08-20T12:16:02Z</time>
      </trkpt>
      <trkpt lat="49.14513" lon="4.08133">
        <ele>280.9</ele>
        <time>2026-08-20T12:16:07Z</time>
      </trkpt>
      <trkpt lat="49.14513" lon="4.08133">
        <ele>280.9</ele>
        <time>2026-08-20T12:16:12Z</time>
      </trkpt>
      <trkpt lat="49.14513" lon="4.08133">
        <ele>280.9</ele>
        <time>2026-08-20T12:16:18Z</time>
      </trkpt>
      <trkpt lat="49.14513" lon="4.08133">
        <ele>280.9</ele>
        <time>2026-08-20T12:16:23Z</time>
      </trkpt>
      <trkpt lat="49.14513" lon="4.08133">
        <ele>280.9</ele>
        <time>2026-08-20T12:16:28Z</time>
      </trkpt>
      <trkpt lat="49.14513" lon="4.08133">
        <ele>280.9</ele>
        <time>2026-08-20T12:16:34Z</time>
      </trkpt>
      <trkpt lat="49.14513" lon="4.08133">
        <ele>280.9</ele>
        <time>2026-08-20T12:16:39Z</time>
      </trkpt>
      <trkpt lat="49.14513" lon="4.08133">
        <ele>280.9</ele>
        <time>2026-08-20T12:16:44Z</time>
      </trkpt>
      <trkpt lat="49.14513" lon="4.08133">
        <ele>280.9</ele>
        <time>2026-08-20T12:16:50Z</time>
      </trkpt>
      <trkpt lat="49.14513" lon="4.08133">
        <ele>280.9</ele>
        <time>2026-08-20T12:16:55Z</time>
      </trkpt>
      <trkpt lat="49.14513" lon="4.08133">
        <ele>280.9</ele>
        <time>2026-08-20T12:17:00Z</time>
      </trkpt>
      <trkpt lat="49.14513" lon="4.08133">
        <ele>280.9</ele>
        <time>2026-08-20T12:17:06Z</time>
      </trkpt>
      <trkpt lat="49.14513" lon="4.08133">
        <ele>280.9</ele>
        <time>2026-08-20T12:17:11Z</time>
      </trkpt>
      <trkpt lat="49.14513" lon="4.08133">
        <ele>280.9</ele>
        <time>2026-08-20T12:17:16Z</time>
      </trkpt>
      <trkpt lat="49.14513" lon="4.08133">
        <ele>280.9</ele>
        <time>2026-08-20T12:17:22Z</time>
      </trkpt>
      <trkpt lat="49.14513" lon="4.08133">
        <ele>280.9</ele>
        <time>2026-08-20T12:17:27Z</time>
      </trkpt>
      <trkpt lat="49.14513" lon="4.08133">
        <ele>280.9</ele>
        <time>2026-08-20T12:17:32Z</time>
      </trkpt>
      <trkpt lat="49.14513" lon="4.08133">
        <ele>280.9</ele>
        <time>2026-08-20T12:17:38Z</time>
      </trkpt>
      <trkpt lat="49.14513" lon="4.08133">
        <ele>280.9</ele>
        <time>2026-08-20T12:17:43Z</time>
      </trkpt>
      <trkpt lat="49.14513" lon="4.08133">
        <ele>280.9</ele>
        <time>2026-08-20T12:17:48Z</time>
      </trkpt>
      <trkpt lat="49.14513" lon="4.08133">
        <ele>280.9</ele>
        <time>2026-08-20T12:17:54Z</time>
      </trkpt>
      <trkpt lat="49.14513" lon="4.08133">
        <ele>280.9</ele>
        <time>2026-08-20T12:17:59Z</time>
      </trkpt>
      <trkpt lat="49.14513" lon="4.08133">
        <ele>280.9</ele>
        <time>2026-08-20T12:18:04Z</time>
      </trkpt>
      <trkpt lat="49.14513" lon="4.08133">
        <ele>280.9</ele>
        <time>2026-08-20T12:18:10Z</time>
      </trkpt>
      <trkpt lat="49.14513" lon="4.08133">
        <ele>280.9</ele>
        <time>2026-08-20T12:18:15Z</time>
      </trkpt>
      <trkpt lat="49.14513" lon="4.08133">
        <ele>280.9</ele>
        <time>2026-08-20T12:18:20Z</time>
      </trkpt>
      <trkpt lat="49.14513" lon="4.08133">
        <ele>280.9</ele>
        <time>2026-08-20T12:18:26Z</time>
      </trkpt>
      <trkpt lat="49.14513" lon="4.08133">
        <ele>280.9</ele>
        <time>2026-08-20T12:18:31Z</time>
      </trkpt>
      <trkpt lat="49.14513" lon="4.08133">
        <ele>280.9</ele>
        <time>2026-08-20T12:18:36Z</time>
      </trkpt>
      <trkpt lat="49.14513" lon="4.08133">
        <ele>280.9</ele>
        <time>2026-08-20T12:18:42Z</time>
      </trkpt>
      <trkpt lat="49.14513" lon="4.08133">
        <ele>280.9</ele>
        <time>2026-08-20T12:18:47Z</time>
      </trkpt>
      <trkpt lat="49.14513" lon="4.08133">
        <ele>280.9</ele>
        <time>2026-08-20T12:18:52Z</time>
      </trkpt>
      <trkpt lat="49.14513" lon="4.08133">
        <ele>280.9</ele>
        <time>2026-08-20T12:18:58Z</time>
      </trkpt>
      <trkpt lat="49.14513" lon="4.08133">
        <ele>280.9</ele>
        <time>2026-08-20T12:19:03Z</time>
      </trkpt>
      <trkpt lat="49.14513" lon="4.08133">
        <ele>280.9</ele>
        <time>2026-08-20T12:19:08Z</time>
      </trkpt>
      <trkpt lat="49.14513" lon="4.08133">
        <ele>280.9</ele>
        <time>2026-08-20T12:19:14Z</time>
      </trkpt>
      <trkpt lat="49.14513" lon="4.08133">
        <ele>280.9</ele>
        <time>2026-08-20T12:19:19Z</time>
      </trkpt>
      <trkpt lat="49.14513" lon="4.08133">
        <ele>280.9</ele>
        <time>2026-08-20T12:19:24Z</time>
      </trkpt>
      <trkpt lat="49.14513" lon="4.08133">
        <ele>280.9</ele>
        <time>2026-08-20T12:19:30Z</time>
      </trkpt>
      <trkpt lat="49.14513" lon="4.08133">
        <ele>280.9</ele>
        <time>2026-08-20T12:19:35Z</time>
      </trkpt>
      <trkpt lat="49.14513" lon="4.08133">
        <ele>280.9</ele>
        <time>2026-08-20T12:19:40Z</time>
      </trkpt>
      <trkpt lat="49.14513" lon="4.08133">
        <ele>280.9</ele>
        <time>2026-08-20T12:19:46Z</time>
      </trkpt>
      <trkpt lat="49.14513" lon="4.08133">
        <ele>280.9</ele>
        <time>2026-08-20T12:19:51Z</time>
      </trkpt>
      <trkpt lat="49.14513" lon="4.08133">
        <ele>280.9</ele>
        <time>2026-08-20T12:19:56Z</time>
      </trkpt>
      <trkpt lat="49.14513" lon="4.08133">
        <ele>280.9</ele>
        <time>2026-08-20T12:20:02Z</time>
      </trkpt>
      <trkpt lat="49.14513" lon="4.08133">
        <ele>280.9</ele>
        <time>2026-08-20T12:20:07Z</time>
      </trkpt>
      <trkpt lat="49.14513" lon="4.08133">
        <ele>280.9</ele>
        <time>2026-08-20T12:20:12Z</time>
      </trkpt>
      <trkpt lat="49.14513" lon="4.08133">
        <ele>280.9</ele>
        <time>2026-08-20T12:20:18Z</time>
      </trkpt>
      <trkpt lat="49.14513" lon="4.08133">
        <ele>280.9</ele>
        <time>2026-08-20T12:20:23Z</time>
      </trkpt>
      <trkpt lat="49.14513" lon="4.08133">
        <ele>280.9</ele>
        <time>2026-08-20T12:20:28Z</time>
      </trkpt>
      <trkpt lat="49.14513" lon="4.08133">
        <ele>280.9</ele>
        <time>2026-08-20T12:20:34Z</time>
      </trkpt>
      <trkpt lat="49.14513" lon="4.08133">
        <ele>280.9</ele>
        <time>2026-08-20T12:20:39Z</time>
      </trkpt>
      <trkpt lat="49.14513" lon="4.08133">
        <ele>280.9</ele>
        <time>2026-08-20T12:20:44Z</time>
      </trkpt>
      <trkpt lat="49.14513" lon="4.08133">
        <ele>280.9</ele>
        <time>2026-08-20T12:20:50Z</time>
      </trkpt>
      <trkpt lat="49.14513" lon="4.08133">
        <ele>280.9</ele>
        <time>2026-08-20T12:20:55Z</time>
      </trkpt>
      <trkpt lat="49.14513" lon="4.08133">
        <ele>280.9</ele>
        <time>2026-08-20T12:21:00Z</time>
      </trkpt>
      <trkpt lat="49.14513" lon="4.08133">
        <ele>280.9</ele>
        <time>2026-08-20T12:21:06Z</time>
      </trkpt>
      <trkpt lat="49.14513" lon="4.08133">
        <ele>280.9</ele>
        <time>2026-08-20T12:21:11Z</time>
      </trkpt>
      <trkpt lat="49.14513" lon="4.08133">
        <ele>280.9</ele>
        <time>2026-08-20T12:21:16Z</time>
      </trkpt>
      <trkpt lat="49.14513" lon="4.08133">
        <ele>280.9</ele>
        <time>2026-08-20T12:21:22Z</time>
      </trkpt>
      <trkpt lat="49.14513" lon="4.08133">
        <ele>280.9</ele>
        <time>2026-08-20T12:21:27Z</time>
      </trkpt>
      <trkpt lat="49.14513" lon="4.08133">
        <ele>280.9</ele>
        <time>2026-08-20T12:21:32Z</time>
      </trkpt>
      <trkpt lat="49.14512" lon="4.08137">
        <ele>281</ele>
        <time>2026-08-20T12:21:38Z</time>
      </trkpt>
      <trkpt lat="49.14512" lon="4.08137">
        <ele>281</ele>
        <time>2026-08-20T12:21:43Z</time>
      </trkpt>
      <trkpt lat="49.14512" lon="4.08137">
        <ele>281</ele>
        <time>2026-08-20T12:21:48Z</time>
      </trkpt>
      <trkpt lat="49.14512" lon="4.08137">
        <ele>281</ele>
        <time>2026-08-20T12:21:54Z</time>
      </trkpt>
      <trkpt lat="49.14512" lon="4.08137">
        <ele>281</ele>
        <time>2026-08-20T12:21:59Z</time>
      </trkpt>
      <trkpt lat="49.14512" lon="4.08137">
        <ele>281</ele>
        <time>2026-08-20T12:22:04Z</time>
      </trkpt>
      <trkpt lat="49.14512" lon="4.08137">
        <ele>281</ele>
        <time>2026-08-20T12:22:10Z</time>
      </trkpt>
      <trkpt lat="49.14512" lon="4.08137">
        <ele>281</ele>
        <time>2026-08-20T12:22:15Z</time>
      </trkpt>
      <trkpt lat="49.14512" lon="4.08137">
        <ele>281</ele>
        <time>2026-08-20T12:22:20Z</time>
      </trkpt>
      <trkpt lat="49.14512" lon="4.08137">
        <ele>281</ele>
        <time>2026-08-20T12:22:26Z</time>
      </trkpt>
      <trkpt lat="49.14512" lon="4.08137">
        <ele>281</ele>
        <time>2026-08-20T12:22:31Z</time>
      </trkpt>
      <trkpt lat="49.14512" lon="4.08137">
        <ele>281</ele>
        <time>2026-08-20T12:22:36Z</time>
      </trkpt>
      <trkpt lat="49.14512" lon="4.08137">
        <ele>281</ele>
        <time>2026-08-20T12:22:42Z</time>
      </trkpt>
      <trkpt lat="49.14512" lon="4.08137">
        <ele>281</ele>
        <time>2026-08-20T12:22:47Z</time>
      </trkpt>
      <trkpt lat="49.14512" lon="4.08137">
        <ele>281</ele>
        <time>2026-08-20T12:22:52Z</time>
      </trkpt>
      <trkpt lat="49.14512" lon="4.08137">
        <ele>281</ele>
        <time>2026-08-20T12:22:58Z</time>
      </trkpt>
      <trkpt lat="49.14512" lon="4.08137">
        <ele>281</ele>
        <time>2026-08-20T12:23:03Z</time>
      </trkpt>
      <trkpt lat="49.14512" lon="4.08137">
        <ele>281</ele>
        <time>2026-08-20T12:23:08Z</time>
      </trkpt>
      <trkpt lat="49.14512" lon="4.08137">
        <ele>281</ele>
        <time>2026-08-20T12:23:14Z</time>
      </trkpt>
      <trkpt lat="49.14512" lon="4.08137">
        <ele>281</ele>
        <time>2026-08-20T12:23:19Z</time>
      </trkpt>
      <trkpt lat="49.14512" lon="4.08137">
        <ele>281</ele>
        <time>2026-08-20T12:23:24Z</time>
      </trkpt>
      <trkpt lat="49.14512" lon="4.08137">
        <ele>281</ele>
        <time>2026-08-20T12:23:30Z</time>
      </trkpt>
      <trkpt lat="49.14512" lon="4.08137">
        <ele>281</ele>
        <time>2026-08-20T12:23:35Z</time>
      </trkpt>
      <trkpt lat="49.14512" lon="4.08137">
        <ele>281</ele>
        <time>2026-08-20T12:23:40Z</time>
      </trkpt>
      <trkpt lat="49.14512" lon="4.08137">
        <ele>281</ele>
        <time>2026-08-20T12:23:46Z</time>
      </trkpt>
      <trkpt lat="49.14512" lon="4.08137">
        <ele>281</ele>
        <time>2026-08-20T12:23:51Z</time>
      </trkpt>
      <trkpt lat="49.14512" lon="4.08137">
        <ele>281</ele>
        <time>2026-08-20T12:23:56Z</time>
      </trkpt>
      <trkpt lat="49.14512" lon="4.08137">
        <ele>281</ele>
        <time>2026-08-20T12:24:02Z</time>
      </trkpt>
      <trkpt lat="49.14512" lon="4.08137">
        <ele>281</ele>
        <time>2026-08-20T12:24:07Z</time>
      </trkpt>
      <trkpt lat="49.14512" lon="4.08137">
        <ele>281</ele>
        <time>2026-08-20T12:24:12Z</time>
      </trkpt>
      <trkpt lat="49.14512" lon="4.08137">
        <ele>281</ele>
        <time>2026-08-20T12:24:18Z</time>
      </trkpt>
      <trkpt lat="49.14512" lon="4.08137">
        <ele>281</ele>
        <time>2026-08-20T12:24:23Z</time>
      </trkpt>
      <trkpt lat="49.14512" lon="4.08137">
        <ele>281</ele>
        <time>2026-08-20T12:24:28Z</time>
      </trkpt>
      <trkpt lat="49.14512" lon="4.08137">
        <ele>281</ele>
        <time>2026-08-20T12:24:34Z</time>
      </trkpt>
      <trkpt lat="49.14512" lon="4.08137">
        <ele>281</ele>
        <time>2026-08-20T12:24:39Z</time>
      </trkpt>
      <trkpt lat="49.14512" lon="4.08137">
        <ele>281</ele>
        <time>2026-08-20T12:24:44Z</time>
      </trkpt>
      <trkpt lat="49.14512" lon="4.08137">
        <ele>281</ele>
        <time>2026-08-20T12:24:50Z</time>
      </trkpt>
      <trkpt lat="49.14512" lon="4.08137">
        <ele>281</ele>
        <time>2026-08-20T12:24:55Z</time>
      </trkpt>
      <trkpt lat="49.14512" lon="4.08137">
        <ele>281</ele>
        <time>2026-08-20T12:25:00Z</time>
      </trkpt>
      <trkpt lat="49.14512" lon="4.08137">
        <ele>281</ele>
        <time>2026-08-20T12:25:06Z</time>
      </trkpt>
      <trkpt lat="49.14512" lon="4.08137">
        <ele>281</ele>
        <time>2026-08-20T12:25:11Z</time>
      </trkpt>
      <trkpt lat="49.14512" lon="4.08137">
        <ele>281</ele>
        <time>2026-08-20T12:25:16Z</time>
      </trkpt>
      <trkpt lat="49.14512" lon="4.08137">
        <ele>281</ele>
        <time>2026-08-20T12:25:22Z</time>
      </trkpt>
      <trkpt lat="49.14512" lon="4.08137">
        <ele>281</ele>
        <time>2026-08-20T12:25:27Z</time>
      </trkpt>
      <trkpt lat="49.14512" lon="4.08137">
        <ele>281</ele>
        <time>2026-08-20T12:25:32Z</time>
      </trkpt>
      <trkpt lat="49.14512" lon="4.08137">
        <ele>281</ele>
        <time>2026-08-20T12:25:38Z</time>
      </trkpt>
      <trkpt lat="49.14512" lon="4.08137">
        <ele>281</ele>
        <time>2026-08-20T12:25:43Z</time>
      </trkpt>
      <trkpt lat="49.14512" lon="4.08137">
        <ele>281</ele>
        <time>2026-08-20T12:25:48Z</time>
      </trkpt>
      <trkpt lat="49.145" lon="4.08144">
        <ele>282</ele>
        <time>2026-08-20T12:25:54Z</time>
      </trkpt>
      <trkpt lat="49.14494" lon="4.08147">
        <ele>282.1</ele>
        <time>2026-08-20T12:25:59Z</time>
      </trkpt>
      <trkpt lat="49.1449" lon="4.0815">
        <ele>282.2</ele>
        <time>2026-08-20T12:26:04Z</time>
      </trkpt>
      <trkpt lat="49.14485" lon="4.08152">
        <ele>282.3</ele>
        <time>2026-08-20T12:26:10Z</time>
      </trkpt>
      <trkpt lat="49.1448" lon="4.08154">
        <ele>282.3</ele>
        <time>2026-08-20T12:26:15Z</time>
      </trkpt>
      <trkpt lat="49.14476" lon="4.08157">
        <ele>282.4</ele>
        <time>2026-08-20T12:26:20Z</time>
      </trkpt>
      <trkpt lat="49.14473" lon="4.08163">
        <ele>282.4</ele>
        <time>2026-08-20T12:26:26Z</time>
      </trkpt>
      <trkpt lat="49.14473" lon="4.08165">
        <ele>282.3</ele>
        <time>2026-08-20T12:26:31Z</time>
      </trkpt>
      <trkpt lat="49.14473" lon="4.08166">
        <ele>282.3</ele>
        <time>2026-08-20T12:26:36Z</time>
      </trkpt>
      <trkpt lat="49.14468" lon="4.08166">
        <ele>282.4</ele>
        <time>2026-08-20T12:26:42Z</time>
      </trkpt>
      <trkpt lat="49.14466" lon="4.08168">
        <ele>282.4</ele>
        <time>2026-08-20T12:26:47Z</time>
      </trkpt>
      <trkpt lat="49.14461" lon="4.08169">
        <ele>282.5</ele>
        <time>2026-08-20T12:26:52Z</time>
      </trkpt>
      <trkpt lat="49.14456" lon="4.08169">
        <ele>282.5</ele>
        <time>2026-08-20T12:26:58Z</time>
      </trkpt>
      <trkpt lat="49.14452" lon="4.08169">
        <ele>282.6</ele>
        <time>2026-08-20T12:27:03Z</time>
      </trkpt>
      <trkpt lat="49.14451" lon="4.08168">
        <ele>282.6</ele>
        <time>2026-08-20T12:27:08Z</time>
      </trkpt>
      <trkpt lat="49.14451" lon="4.08168">
        <ele>282.6</ele>
        <time>2026-08-20T12:27:14Z</time>
      </trkpt>
      <trkpt lat="49.14453" lon="4.08156">
        <ele>282.8</ele>
        <time>2026-08-20T12:27:19Z</time>
      </trkpt>
      <trkpt lat="49.14453" lon="4.0815">
        <ele>282.9</ele>
        <time>2026-08-20T12:27:24Z</time>
      </trkpt>
      <trkpt lat="49.14455" lon="4.08142">
        <ele>283</ele>
        <time>2026-08-20T12:27:30Z</time>
      </trkpt>
      <trkpt lat="49.14458" lon="4.08139">
        <ele>283</ele>
        <time>2026-08-20T12:27:35Z</time>
      </trkpt>
      <trkpt lat="49.14459" lon="4.08137">
        <ele>283</ele>
        <time>2026-08-20T12:27:40Z</time>
      </trkpt>
      <trkpt lat="49.14459" lon="4.0813">
        <ele>283.1</ele>
        <time>2026-08-20T12:27:46Z</time>
      </trkpt>
      <trkpt lat="49.14459" lon="4.0812">
        <ele>283.3</ele>
        <time>2026-08-20T12:27:51Z</time>
      </trkpt>
      <trkpt lat="49.1446" lon="4.08115">
        <ele>283.4</ele>
        <time>2026-08-20T12:27:56Z</time>
      </trkpt>
      <trkpt lat="49.14458" lon="4.08112">
        <ele>283.5</ele>
        <time>2026-08-20T12:28:02Z</time>
      </trkpt>
      <trkpt lat="49.14457" lon="4.08108">
        <ele>283.6</ele>
        <time>2026-08-20T12:28:07Z</time>
      </trkpt>
      <trkpt lat="49.14457" lon="4.08102">
        <ele>283.7</ele>
        <time>2026-08-20T12:28:12Z</time>
      </trkpt>
      <trkpt lat="49.14456" lon="4.08094">
        <ele>283.9</ele>
        <time>2026-08-20T12:28:18Z</time>
      </trkpt>
      <trkpt lat="49.14456" lon="4.08087">
        <ele>284</ele>
        <time>2026-08-20T12:28:23Z</time>
      </trkpt>
      <trkpt lat="49.14455" lon="4.0808">
        <ele>284.1</ele>
        <time>2026-08-20T12:28:28Z</time>
      </trkpt>
      <trkpt lat="49.14454" lon="4.08072">
        <ele>283.9</ele>
        <time>2026-08-20T12:28:34Z</time>
      </trkpt>
      <trkpt lat="49.14453" lon="4.08067">
        <ele>283.8</ele>
        <time>2026-08-20T12:28:39Z</time>
      </trkpt>
      <trkpt lat="49.14452" lon="4.08059">
        <ele>283.7</ele>
        <time>2026-08-20T12:28:44Z</time>
      </trkpt>
      <trkpt lat="49.14451" lon="4.08052">
        <ele>283.5</ele>
        <time>2026-08-20T12:28:50Z</time>
      </trkpt>
      <trkpt lat="49.14451" lon="4.08043">
        <ele>283.3</ele>
        <time>2026-08-20T12:28:55Z</time>
      </trkpt>
      <trkpt lat="49.14451" lon="4.08037">
        <ele>283.1</ele>
        <time>2026-08-20T12:29:00Z</time>
      </trkpt>
      <trkpt lat="49.14452" lon="4.08035">
        <ele>283.1</ele>
        <time>2026-08-20T12:29:06Z</time>
      </trkpt>
      <trkpt lat="49.14452" lon="4.08035">
        <ele>283.1</ele>
        <time>2026-08-20T12:29:11Z</time>
      </trkpt>
      <trkpt lat="49.14452" lon="4.08035">
        <ele>283.1</ele>
        <time>2026-08-20T12:29:16Z</time>
      </trkpt>
      <trkpt lat="49.14452" lon="4.08029">
        <ele>282.9</ele>
        <time>2026-08-20T12:29:22Z</time>
      </trkpt>
      <trkpt lat="49.14451" lon="4.08025">
        <ele>282.8</ele>
        <time>2026-08-20T12:29:27Z</time>
      </trkpt>
      <trkpt lat="49.14451" lon="4.08017">
        <ele>282.6</ele>
        <time>2026-08-20T12:29:32Z</time>
      </trkpt>
      <trkpt lat="49.14454" lon="4.08011">
        <ele>282.4</ele>
        <time>2026-08-20T12:29:38Z</time>
      </trkpt>
      <trkpt lat="49.14456" lon="4.08003">
        <ele>282.1</ele>
        <time>2026-08-20T12:29:43Z</time>
      </trkpt>
      <trkpt lat="49.14456" lon="4.07994">
        <ele>282.1</ele>
        <time>2026-08-20T12:29:48Z</time>
      </trkpt>
      <trkpt lat="49.14457" lon="4.07985">
        <ele>282.1</ele>
        <time>2026-08-20T12:29:54Z</time>
      </trkpt>
      <trkpt lat="49.14457" lon="4.0798">
        <ele>282.1</ele>
        <time>2026-08-20T12:29:59Z</time>
      </trkpt>
      <trkpt lat="49.14458" lon="4.07974">
        <ele>282.2</ele>
        <time>2026-08-20T12:30:04Z</time>
      </trkpt>
      <trkpt lat="49.14458" lon="4.07965">
        <ele>282.2</ele>
        <time>2026-08-20T12:30:10Z</time>
      </trkpt>
      <trkpt lat="49.1446" lon="4.07959">
        <ele>282.2</ele>
        <time>2026-08-20T12:30:15Z</time>
      </trkpt>
      <trkpt lat="49.14459" lon="4.07953">
        <ele>282.3</ele>
        <time>2026-08-20T12:30:20Z</time>
      </trkpt>
      <trkpt lat="49.14461" lon="4.07947">
        <ele>282.3</ele>
        <time>2026-08-20T12:30:26Z</time>
      </trkpt>
      <trkpt lat="49.14461" lon="4.0794">
        <ele>282.3</ele>
        <time>2026-08-20T12:30:31Z</time>
      </trkpt>
      <trkpt lat="49.14462" lon="4.07934">
        <ele>282.3</ele>
        <time>2026-08-20T12:30:36Z</time>
      </trkpt>
      <trkpt lat="49.14463" lon="4.0793">
        <ele>282.4</ele>
        <time>2026-08-20T12:30:42Z</time>
      </trkpt>
      <trkpt lat="49.14463" lon="4.0793">
        <ele>282.4</ele>
        <time>2026-08-20T12:30:47Z</time>
      </trkpt>
      <trkpt lat="49.14463" lon="4.0793">
        <ele>282.4</ele>
        <time>2026-08-20T12:30:52Z</time>
      </trkpt>
      <trkpt lat="49.14463" lon="4.0793">
        <ele>282.4</ele>
        <time>2026-08-20T12:30:58Z</time>
      </trkpt>
      <trkpt lat="49.14463" lon="4.0793">
        <ele>282.4</ele>
        <time>2026-08-20T12:31:03Z</time>
      </trkpt>
      <trkpt lat="49.14463" lon="4.0793">
        <ele>282.4</ele>
        <time>2026-08-20T12:31:08Z</time>
      </trkpt>
      <trkpt lat="49.14463" lon="4.0793">
        <ele>282.4</ele>
        <time>2026-08-20T12:31:14Z</time>
      </trkpt>
      <trkpt lat="49.14463" lon="4.0793">
        <ele>282.4</ele>
        <time>2026-08-20T12:31:19Z</time>
      </trkpt>
      <trkpt lat="49.14463" lon="4.0793">
        <ele>282.4</ele>
        <time>2026-08-20T12:31:24Z</time>
      </trkpt>
      <trkpt lat="49.14463" lon="4.0793">
        <ele>282.4</ele>
        <time>2026-08-20T12:31:30Z</time>
      </trkpt>
      <trkpt lat="49.14463" lon="4.0793">
        <ele>282.4</ele>
        <time>2026-08-20T12:31:35Z</time>
      </trkpt>
      <trkpt lat="49.14463" lon="4.0793">
        <ele>282.4</ele>
        <time>2026-08-20T12:31:40Z</time>
      </trkpt>
      <trkpt lat="49.14462" lon="4.07924">
        <ele>282.4</ele>
        <time>2026-08-20T12:31:46Z</time>
      </trkpt>
      <trkpt lat="49.14461" lon="4.07919">
        <ele>282.5</ele>
        <time>2026-08-20T12:31:51Z</time>
      </trkpt>
      <trkpt lat="49.14463" lon="4.07912">
        <ele>282.4</ele>
        <time>2026-08-20T12:31:56Z</time>
      </trkpt>
      <trkpt lat="49.14464" lon="4.07904">
        <ele>282.2</ele>
        <time>2026-08-20T12:32:02Z</time>
      </trkpt>
      <trkpt lat="49.14466" lon="4.07896">
        <ele>282</ele>
        <time>2026-08-20T12:32:07Z</time>
      </trkpt>
      <trkpt lat="49.14468" lon="4.07888">
        <ele>281.8</ele>
        <time>2026-08-20T12:32:12Z</time>
      </trkpt>
      <trkpt lat="49.14469" lon="4.07878">
        <ele>281.6</ele>
        <time>2026-08-20T12:32:18Z</time>
      </trkpt>
      <trkpt lat="49.1447" lon="4.07869">
        <ele>281.4</ele>
        <time>2026-08-20T12:32:23Z</time>
      </trkpt>
      <trkpt lat="49.14469" lon="4.0786">
        <ele>281.3</ele>
        <time>2026-08-20T12:32:28Z</time>
      </trkpt>
      <trkpt lat="49.1447" lon="4.0785">
        <ele>281</ele>
        <time>2026-08-20T12:32:34Z</time>
      </trkpt>
      <trkpt lat="49.14471" lon="4.07842">
        <ele>280.9</ele>
        <time>2026-08-20T12:32:39Z</time>
      </trkpt>
      <trkpt lat="49.14471" lon="4.07835">
        <ele>280.7</ele>
        <time>2026-08-20T12:32:44Z</time>
      </trkpt>
      <trkpt lat="49.14475" lon="4.07832">
        <ele>280.6</ele>
        <time>2026-08-20T12:32:50Z</time>
      </trkpt>
      <trkpt lat="49.14475" lon="4.07832">
        <ele>280.6</ele>
        <time>2026-08-20T12:32:55Z</time>
      </trkpt>
      <trkpt lat="49.14475" lon="4.07832">
        <ele>280.6</ele>
        <time>2026-08-20T12:33:00Z</time>
      </trkpt>
      <trkpt lat="49.14474" lon="4.07828">
        <ele>280.4</ele>
        <time>2026-08-20T12:33:06Z</time>
      </trkpt>
      <trkpt lat="49.14477" lon="4.07821">
        <ele>280.1</ele>
        <time>2026-08-20T12:33:11Z</time>
      </trkpt>
      <trkpt lat="49.1448" lon="4.07815">
        <ele>279.8</ele>
        <time>2026-08-20T12:33:16Z</time>
      </trkpt>
      <trkpt lat="49.14485" lon="4.07807">
        <ele>279.4</ele>
        <time>2026-08-20T12:33:22Z</time>
      </trkpt>
      <trkpt lat="49.14488" lon="4.07806">
        <ele>279.3</ele>
        <time>2026-08-20T12:33:27Z</time>
      </trkpt>
      <trkpt lat="49.14488" lon="4.07799">
        <ele>279.1</ele>
        <time>2026-08-20T12:33:32Z</time>
      </trkpt>
      <trkpt lat="49.14491" lon="4.07791">
        <ele>278.7</ele>
        <time>2026-08-20T12:33:38Z</time>
      </trkpt>
      <trkpt lat="49.14493" lon="4.07788">
        <ele>278.5</ele>
        <time>2026-08-20T12:33:43Z</time>
      </trkpt>
      <trkpt lat="49.14495" lon="4.07787">
        <ele>278.5</ele>
        <time>2026-08-20T12:33:48Z</time>
      </trkpt>
      <trkpt lat="49.14498" lon="4.07783">
        <ele>278.2</ele>
        <time>2026-08-20T12:33:54Z</time>
      </trkpt>
      <trkpt lat="49.14501" lon="4.07776">
        <ele>277.9</ele>
        <time>2026-08-20T12:33:59Z</time>
      </trkpt>
      <trkpt lat="49.14503" lon="4.0777">
        <ele>277.7</ele>
        <time>2026-08-20T12:34:04Z</time>
      </trkpt>
      <trkpt lat="49.14505" lon="4.07766">
        <ele>277.6</ele>
        <time>2026-08-20T12:34:10Z</time>
      </trkpt>
      <trkpt lat="49.14505" lon="4.07764">
        <ele>277.5</ele>
        <time>2026-08-20T12:34:15Z</time>
      </trkpt>
      <trkpt lat="49.14508" lon="4.07757">
        <ele>277.3</ele>
        <time>2026-08-20T12:34:20Z</time>
      </trkpt>
      <trkpt lat="49.14509" lon="4.07754">
        <ele>277.1</ele>
        <time>2026-08-20T12:34:26Z</time>
      </trkpt>
      <trkpt lat="49.14509" lon="4.07754">
        <ele>277.1</ele>
        <time>2026-08-20T12:34:31Z</time>
      </trkpt>
      <trkpt lat="49.14509" lon="4.07754">
        <ele>277.1</ele>
        <time>2026-08-20T12:34:36Z</time>
      </trkpt>
      <trkpt lat="49.14509" lon="4.07754">
        <ele>277.1</ele>
        <time>2026-08-20T12:34:42Z</time>
      </trkpt>
      <trkpt lat="49.14509" lon="4.07754">
        <ele>277.1</ele>
        <time>2026-08-20T12:34:47Z</time>
      </trkpt>
      <trkpt lat="49.14509" lon="4.07754">
        <ele>277.1</ele>
        <time>2026-08-20T12:34:52Z</time>
      </trkpt>
      <trkpt lat="49.14509" lon="4.07754">
        <ele>277.1</ele>
        <time>2026-08-20T12:34:58Z</time>
      </trkpt>
      <trkpt lat="49.14509" lon="4.07754">
        <ele>277.1</ele>
        <time>2026-08-20T12:35:03Z</time>
      </trkpt>
      <trkpt lat="49.14509" lon="4.07754">
        <ele>277.1</ele>
        <time>2026-08-20T12:35:08Z</time>
      </trkpt>
      <trkpt lat="49.14508" lon="4.0775">
        <ele>277</ele>
        <time>2026-08-20T12:35:14Z</time>
      </trkpt>
      <trkpt lat="49.1451" lon="4.07747">
        <ele>277.1</ele>
        <time>2026-08-20T12:35:19Z</time>
      </trkpt>
      <trkpt lat="49.14513" lon="4.07743">
        <ele>277.1</ele>
        <time>2026-08-20T12:35:24Z</time>
      </trkpt>
      <trkpt lat="49.14516" lon="4.07735">
        <ele>277.2</ele>
        <time>2026-08-20T12:35:30Z</time>
      </trkpt>
      <trkpt lat="49.14518" lon="4.07729">
        <ele>277.3</ele>
        <time>2026-08-20T12:35:35Z</time>
      </trkpt>
      <trkpt lat="49.14521" lon="4.07723">
        <ele>277.3</ele>
        <time>2026-08-20T12:35:40Z</time>
      </trkpt>
      <trkpt lat="49.14523" lon="4.07721">
        <ele>277.3</ele>
        <time>2026-08-20T12:35:46Z</time>
      </trkpt>
      <trkpt lat="49.14523" lon="4.07721">
        <ele>277.3</ele>
        <time>2026-08-20T12:35:51Z</time>
      </trkpt>
      <trkpt lat="49.14524" lon="4.07718">
        <ele>277.3</ele>
        <time>2026-08-20T12:35:56Z</time>
      </trkpt>
      <trkpt lat="49.14527" lon="4.07717">
        <ele>277.3</ele>
        <time>2026-08-20T12:36:02Z</time>
      </trkpt>
      <trkpt lat="49.14532" lon="4.07713">
        <ele>277.2</ele>
        <time>2026-08-20T12:36:07Z</time>
      </trkpt>
      <trkpt lat="49.14535" lon="4.07709">
        <ele>277.2</ele>
        <time>2026-08-20T12:36:12Z</time>
      </trkpt>
      <trkpt lat="49.14538" lon="4.07705">
        <ele>277.1</ele>
        <time>2026-08-20T12:36:18Z</time>
      </trkpt>
      <trkpt lat="49.14541" lon="4.07704">
        <ele>277</ele>
        <time>2026-08-20T12:36:23Z</time>
      </trkpt>
      <trkpt lat="49.14544" lon="4.07702">
        <ele>276.9</ele>
        <time>2026-08-20T12:36:28Z</time>
      </trkpt>
      <trkpt lat="49.14547" lon="4.077">
        <ele>276.8</ele>
        <time>2026-08-20T12:36:34Z</time>
      </trkpt>
      <trkpt lat="49.14551" lon="4.07696">
        <ele>276.7</ele>
        <time>2026-08-20T12:36:39Z</time>
      </trkpt>
      <trkpt lat="49.14554" lon="4.0769">
        <ele>276.6</ele>
        <time>2026-08-20T12:36:44Z</time>
      </trkpt>
      <trkpt lat="49.14557" lon="4.07684">
        <ele>276.4</ele>
        <time>2026-08-20T12:36:50Z</time>
      </trkpt>
      <trkpt lat="49.14559" lon="4.0768">
        <ele>276.3</ele>
        <time>2026-08-20T12:36:55Z</time>
      </trkpt>
      <trkpt lat="49.14563" lon="4.07674">
        <ele>276.1</ele>
        <time>2026-08-20T12:37:00Z</time>
      </trkpt>
      <trkpt lat="49.14566" lon="4.07666">
        <ele>275.8</ele>
        <time>2026-08-20T12:37:06Z</time>
      </trkpt>
      <trkpt lat="49.14568" lon="4.07658">
        <ele>275.8</ele>
        <time>2026-08-20T12:37:11Z</time>
      </trkpt>
      <trkpt lat="49.1457" lon="4.07651">
        <ele>275.7</ele>
        <time>2026-08-20T12:37:16Z</time>
      </trkpt>
      <trkpt lat="49.14572" lon="4.07645">
        <ele>275.6</ele>
        <time>2026-08-20T12:37:22Z</time>
      </trkpt>
      <trkpt lat="49.14574" lon="4.07641">
        <ele>275.5</ele>
        <time>2026-08-20T12:37:27Z</time>
      </trkpt>
      <trkpt lat="49.14575" lon="4.07636">
        <ele>275.4</ele>
        <time>2026-08-20T12:37:32Z</time>
      </trkpt>
      <trkpt lat="49.14576" lon="4.07628">
        <ele>275.4</ele>
        <time>2026-08-20T12:37:38Z</time>
      </trkpt>
      <trkpt lat="49.14576" lon="4.07623">
        <ele>275.4</ele>
        <time>2026-08-20T12:37:43Z</time>
      </trkpt>
      <trkpt lat="49.14577" lon="4.07619">
        <ele>275.3</ele>
        <time>2026-08-20T12:37:48Z</time>
      </trkpt>
      <trkpt lat="49.14577" lon="4.07618">
        <ele>275.3</ele>
        <time>2026-08-20T12:37:54Z</time>
      </trkpt>
      <trkpt lat="49.14577" lon="4.07618">
        <ele>275.3</ele>
        <time>2026-08-20T12:37:59Z</time>
      </trkpt>
      <trkpt lat="49.14577" lon="4.07618">
        <ele>275.3</ele>
        <time>2026-08-20T12:38:04Z</time>
      </trkpt>
      <trkpt lat="49.14577" lon="4.07618">
        <ele>275.3</ele>
        <time>2026-08-20T12:38:10Z</time>
      </trkpt>
      <trkpt lat="49.14577" lon="4.07618">
        <ele>275.3</ele>
        <time>2026-08-20T12:38:15Z</time>
      </trkpt>
      <trkpt lat="49.14577" lon="4.07618">
        <ele>275.3</ele>
        <time>2026-08-20T12:38:20Z</time>
      </trkpt>
      <trkpt lat="49.14577" lon="4.07618">
        <ele>275.3</ele>
        <time>2026-08-20T12:38:26Z</time>
      </trkpt>
      <trkpt lat="49.14577" lon="4.07618">
        <ele>275.3</ele>
        <time>2026-08-20T12:38:31Z</time>
      </trkpt>
      <trkpt lat="49.14577" lon="4.07618">
        <ele>275.3</ele>
        <time>2026-08-20T12:38:36Z</time>
      </trkpt>
      <trkpt lat="49.14577" lon="4.07618">
        <ele>275.3</ele>
        <time>2026-08-20T12:38:42Z</time>
      </trkpt>
      <trkpt lat="49.14582" lon="4.0761">
        <ele>275.1</ele>
        <time>2026-08-20T12:38:47Z</time>
      </trkpt>
      <trkpt lat="49.14582" lon="4.07606">
        <ele>275.1</ele>
        <time>2026-08-20T12:38:52Z</time>
      </trkpt>
      <trkpt lat="49.14582" lon="4.076">
        <ele>275.1</ele>
        <time>2026-08-20T12:38:58Z</time>
      </trkpt>
      <trkpt lat="49.14584" lon="4.07593">
        <ele>275</ele>
        <time>2026-08-20T12:39:03Z</time>
      </trkpt>
      <trkpt lat="49.14586" lon="4.07589">
        <ele>274.9</ele>
        <time>2026-08-20T12:39:08Z</time>
      </trkpt>
      <trkpt lat="49.14587" lon="4.07583">
        <ele>274.9</ele>
        <time>2026-08-20T12:39:14Z</time>
      </trkpt>
      <trkpt lat="49.14588" lon="4.07575">
        <ele>274.6</ele>
        <time>2026-08-20T12:39:19Z</time>
      </trkpt>
      <trkpt lat="49.14586" lon="4.07568">
        <ele>274.5</ele>
        <time>2026-08-20T12:39:24Z</time>
      </trkpt>
      <trkpt lat="49.14586" lon="4.0756">
        <ele>274.3</ele>
        <time>2026-08-20T12:39:30Z</time>
      </trkpt>
      <trkpt lat="49.14585" lon="4.07553">
        <ele>274.2</ele>
        <time>2026-08-20T12:39:35Z</time>
      </trkpt>
      <trkpt lat="49.14584" lon="4.07547">
        <ele>274.1</ele>
        <time>2026-08-20T12:39:40Z</time>
      </trkpt>
      <trkpt lat="49.14585" lon="4.07538">
        <ele>273.9</ele>
        <time>2026-08-20T12:39:46Z</time>
      </trkpt>
      <trkpt lat="49.14588" lon="4.07531">
        <ele>273.6</ele>
        <time>2026-08-20T12:39:51Z</time>
      </trkpt>
      <trkpt lat="49.14592" lon="4.07524">
        <ele>273.3</ele>
        <time>2026-08-20T12:39:56Z</time>
      </trkpt>
      <trkpt lat="49.14597" lon="4.07518">
        <ele>272.9</ele>
        <time>2026-08-20T12:40:02Z</time>
      </trkpt>
      <trkpt lat="49.14601" lon="4.07514">
        <ele>272.7</ele>
        <time>2026-08-20T12:40:07Z</time>
      </trkpt>
      <trkpt lat="49.14606" lon="4.07511">
        <ele>272.4</ele>
        <time>2026-08-20T12:40:12Z</time>
      </trkpt>
      <trkpt lat="49.14612" lon="4.07505">
        <ele>272.1</ele>
        <time>2026-08-20T12:40:18Z</time>
      </trkpt>
      <trkpt lat="49.14617" lon="4.07496">
        <ele>271.8</ele>
        <time>2026-08-20T12:40:23Z</time>
      </trkpt>
      <trkpt lat="49.14619" lon="4.07488">
        <ele>271.9</ele>
        <time>2026-08-20T12:40:28Z</time>
      </trkpt>
      <trkpt lat="49.14623" lon="4.07479">
        <ele>271.8</ele>
        <time>2026-08-20T12:40:34Z</time>
      </trkpt>
      <trkpt lat="49.14626" lon="4.07472">
        <ele>271.8</ele>
        <time>2026-08-20T12:40:39Z</time>
      </trkpt>
      <trkpt lat="49.14629" lon="4.07465">
        <ele>271.8</ele>
        <time>2026-08-20T12:40:44Z</time>
      </trkpt>
      <trkpt lat="49.1463" lon="4.07454">
        <ele>271.9</ele>
        <time>2026-08-20T12:40:50Z</time>
      </trkpt>
      <trkpt lat="49.14631" lon="4.07447">
        <ele>271.9</ele>
        <time>2026-08-20T12:40:55Z</time>
      </trkpt>
      <trkpt lat="49.14634" lon="4.07439">
        <ele>271.9</ele>
        <time>2026-08-20T12:41:00Z</time>
      </trkpt>
      <trkpt lat="49.14637" lon="4.07431">
        <ele>271.9</ele>
        <time>2026-08-20T12:41:06Z</time>
      </trkpt>
      <trkpt lat="49.14641" lon="4.07428">
        <ele>271.8</ele>
        <time>2026-08-20T12:41:11Z</time>
      </trkpt>
      <trkpt lat="49.14645" lon="4.07427">
        <ele>271.7</ele>
        <time>2026-08-20T12:41:16Z</time>
      </trkpt>
      <trkpt lat="49.1465" lon="4.07423">
        <ele>271.5</ele>
        <time>2026-08-20T12:41:22Z</time>
      </trkpt>
      <trkpt lat="49.14653" lon="4.07422">
        <ele>271.4</ele>
        <time>2026-08-20T12:41:27Z</time>
      </trkpt>
      <trkpt lat="49.14659" lon="4.07415">
        <ele>271.4</ele>
        <time>2026-08-20T12:41:32Z</time>
      </trkpt>
      <trkpt lat="49.14667" lon="4.07407">
        <ele>271.5</ele>
        <time>2026-08-20T12:41:38Z</time>
      </trkpt>
      <trkpt lat="49.14671" lon="4.074">
        <ele>271.7</ele>
        <time>2026-08-20T12:41:43Z</time>
      </trkpt>
      <trkpt lat="49.14674" lon="4.07392">
        <ele>272</ele>
        <time>2026-08-20T12:41:48Z</time>
      </trkpt>
      <trkpt lat="49.14677" lon="4.07382">
        <ele>272.4</ele>
        <time>2026-08-20T12:41:54Z</time>
      </trkpt>
      <trkpt lat="49.14678" lon="4.07377">
        <ele>272.6</ele>
        <time>2026-08-20T12:41:59Z</time>
      </trkpt>
      <trkpt lat="49.14679" lon="4.07371">
        <ele>272.8</ele>
        <time>2026-08-20T12:42:04Z</time>
      </trkpt>
      <trkpt lat="49.14683" lon="4.07362">
        <ele>273.1</ele>
        <time>2026-08-20T12:42:10Z</time>
      </trkpt>
      <trkpt lat="49.14685" lon="4.07355">
        <ele>273.4</ele>
        <time>2026-08-20T12:42:15Z</time>
      </trkpt>
      <trkpt lat="49.14687" lon="4.07348">
        <ele>273.6</ele>
        <time>2026-08-20T12:42:20Z</time>
      </trkpt>
      <trkpt lat="49.14689" lon="4.07342">
        <ele>273.8</ele>
        <time>2026-08-20T12:42:26Z</time>
      </trkpt>
      <trkpt lat="49.14689" lon="4.07338">
        <ele>274</ele>
        <time>2026-08-20T12:42:31Z</time>
      </trkpt>
      <trkpt lat="49.14688" lon="4.07338">
        <ele>274</ele>
        <time>2026-08-20T12:42:36Z</time>
      </trkpt>
      <trkpt lat="49.14687" lon="4.07337">
        <ele>274.1</ele>
        <time>2026-08-20T12:42:42Z</time>
      </trkpt>
      <trkpt lat="49.14688" lon="4.07336">
        <ele>274.1</ele>
        <time>2026-08-20T12:42:47Z</time>
      </trkpt>
      <trkpt lat="49.14692" lon="4.07331">
        <ele>274.2</ele>
        <time>2026-08-20T12:42:52Z</time>
      </trkpt>
      <trkpt lat="49.14696" lon="4.07325">
        <ele>274.3</ele>
        <time>2026-08-20T12:42:58Z</time>
      </trkpt>
      <trkpt lat="49.14698" lon="4.07324">
        <ele>274.3</ele>
        <time>2026-08-20T12:43:03Z</time>
      </trkpt>
      <trkpt lat="49.14698" lon="4.07324">
        <ele>274.3</ele>
        <time>2026-08-20T12:43:08Z</time>
      </trkpt>
      <trkpt lat="49.14703" lon="4.07319">
        <ele>274.4</ele>
        <time>2026-08-20T12:43:14Z</time>
      </trkpt>
      <trkpt lat="49.14705" lon="4.07319">
        <ele>274.3</ele>
        <time>2026-08-20T12:43:19Z</time>
      </trkpt>
      <trkpt lat="49.14708" lon="4.07314">
        <ele>274.4</ele>
        <time>2026-08-20T12:43:24Z</time>
      </trkpt>
      <trkpt lat="49.14711" lon="4.07306">
        <ele>274.7</ele>
        <time>2026-08-20T12:43:30Z</time>
      </trkpt>
      <trkpt lat="49.14714" lon="4.07299">
        <ele>274.9</ele>
        <time>2026-08-20T12:43:35Z</time>
      </trkpt>
      <trkpt lat="49.14718" lon="4.07293">
        <ele>275.1</ele>
        <time>2026-08-20T12:43:40Z</time>
      </trkpt>
      <trkpt lat="49.14723" lon="4.07288">
        <ele>275.1</ele>
        <time>2026-08-20T12:43:46Z</time>
      </trkpt>
      <trkpt lat="49.14724" lon="4.07287">
        <ele>275.2</ele>
        <time>2026-08-20T12:43:51Z</time>
      </trkpt>
      <trkpt lat="49.14728" lon="4.07286">
        <ele>275.1</ele>
        <time>2026-08-20T12:43:56Z</time>
      </trkpt>
      <trkpt lat="49.14733" lon="4.07282">
        <ele>275.1</ele>
        <time>2026-08-20T12:44:02Z</time>
      </trkpt>
      <trkpt lat="49.14736" lon="4.07279">
        <ele>275.1</ele>
        <time>2026-08-20T12:44:07Z</time>
      </trkpt>
      <trkpt lat="49.14741" lon="4.07274">
        <ele>275.2</ele>
        <time>2026-08-20T12:44:12Z</time>
      </trkpt>
      <trkpt lat="49.14745" lon="4.07268">
        <ele>275.3</ele>
        <time>2026-08-20T12:44:18Z</time>
      </trkpt>
      <trkpt lat="49.14751" lon="4.07264">
        <ele>275.2</ele>
        <time>2026-08-20T12:44:23Z</time>
      </trkpt>
      <trkpt lat="49.14756" lon="4.0726">
        <ele>274.9</ele>
        <time>2026-08-20T12:44:28Z</time>
      </trkpt>
      <trkpt lat="49.1476" lon="4.07256">
        <ele>274.6</ele>
        <time>2026-08-20T12:44:34Z</time>
      </trkpt>
      <trkpt lat="49.14764" lon="4.07252">
        <ele>274.4</ele>
        <time>2026-08-20T12:44:39Z</time>
      </trkpt>
      <trkpt lat="49.14768" lon="4.07248">
        <ele>274</ele>
        <time>2026-08-20T12:44:44Z</time>
      </trkpt>
      <trkpt lat="49.14775" lon="4.07244">
        <ele>273</ele>
        <time>2026-08-20T12:44:50Z</time>
      </trkpt>
      <trkpt lat="49.1478" lon="4.07242">
        <ele>272.4</ele>
        <time>2026-08-20T12:44:55Z</time>
      </trkpt>
      <trkpt lat="49.14784" lon="4.0724">
        <ele>271.8</ele>
        <time>2026-08-20T12:45:00Z</time>
      </trkpt>
      <trkpt lat="49.14789" lon="4.07235">
        <ele>271.1</ele>
        <time>2026-08-20T12:45:06Z</time>
      </trkpt>
      <trkpt lat="49.14794" lon="4.07229">
        <ele>270.2</ele>
        <time>2026-08-20T12:45:11Z</time>
      </trkpt>
      <trkpt lat="49.14798" lon="4.07223">
        <ele>269.5</ele>
        <time>2026-08-20T12:45:16Z</time>
      </trkpt>
      <trkpt lat="49.14803" lon="4.07214">
        <ele>268.5</ele>
        <time>2026-08-20T12:45:22Z</time>
      </trkpt>
      <trkpt lat="49.14805" lon="4.07209">
        <ele>268.1</ele>
        <time>2026-08-20T12:45:27Z</time>
      </trkpt>
      <trkpt lat="49.14807" lon="4.07203">
        <ele>267.6</ele>
        <time>2026-08-20T12:45:32Z</time>
      </trkpt>
      <trkpt lat="49.14811" lon="4.07196">
        <ele>266.8</ele>
        <time>2026-08-20T12:45:38Z</time>
      </trkpt>
      <trkpt lat="49.14814" lon="4.07189">
        <ele>266.2</ele>
        <time>2026-08-20T12:45:43Z</time>
      </trkpt>
      <trkpt lat="49.14817" lon="4.07184">
        <ele>265.6</ele>
        <time>2026-08-20T12:45:48Z</time>
      </trkpt>
      <trkpt lat="49.1482" lon="4.07177">
        <ele>264.9</ele>
        <time>2026-08-20T12:45:54Z</time>
      </trkpt>
      <trkpt lat="49.14824" lon="4.0717">
        <ele>264.2</ele>
        <time>2026-08-20T12:45:59Z</time>
      </trkpt>
      <trkpt lat="49.14826" lon="4.07164">
        <ele>263.5</ele>
        <time>2026-08-20T12:46:04Z</time>
      </trkpt>
      <trkpt lat="49.14828" lon="4.07154">
        <ele>262.4</ele>
        <time>2026-08-20T12:46:10Z</time>
      </trkpt>
      <trkpt lat="49.14829" lon="4.07144">
        <ele>261.3</ele>
        <time>2026-08-20T12:46:15Z</time>
      </trkpt>
      <trkpt lat="49.14826" lon="4.07137">
        <ele>260.9</ele>
        <time>2026-08-20T12:46:20Z</time>
      </trkpt>
      <trkpt lat="49.14823" lon="4.07133">
        <ele>260.9</ele>
        <time>2026-08-20T12:46:26Z</time>
      </trkpt>
      <trkpt lat="49.14824" lon="4.0713">
        <ele>260.5</ele>
        <time>2026-08-20T12:46:31Z</time>
      </trkpt>
      <trkpt lat="49.14824" lon="4.0713">
        <ele>260.5</ele>
        <time>2026-08-20T12:46:36Z</time>
      </trkpt>
      <trkpt lat="49.14824" lon="4.0713">
        <ele>260.5</ele>
        <time>2026-08-20T12:46:42Z</time>
      </trkpt>
      <trkpt lat="49.14824" lon="4.0713">
        <ele>260.5</ele>
        <time>2026-08-20T12:46:47Z</time>
      </trkpt>
      <trkpt lat="49.14825" lon="4.07119">
        <ele>259.3</ele>
        <time>2026-08-20T12:46:52Z</time>
      </trkpt>
      <trkpt lat="49.14821" lon="4.0711">
        <ele>258.9</ele>
        <time>2026-08-20T12:46:58Z</time>
      </trkpt>
      <trkpt lat="49.14819" lon="4.07104">
        <ele>258.5</ele>
        <time>2026-08-20T12:47:03Z</time>
      </trkpt>
      <trkpt lat="49.14818" lon="4.07098">
        <ele>258.1</ele>
        <time>2026-08-20T12:47:08Z</time>
      </trkpt>
      <trkpt lat="49.14821" lon="4.07092">
        <ele>257.2</ele>
        <time>2026-08-20T12:47:14Z</time>
      </trkpt>
      <trkpt lat="49.14826" lon="4.07088">
        <ele>256.2</ele>
        <time>2026-08-20T12:47:19Z</time>
      </trkpt>
      <trkpt lat="49.14829" lon="4.07082">
        <ele>255.4</ele>
        <time>2026-08-20T12:47:24Z</time>
      </trkpt>
      <trkpt lat="49.14835" lon="4.07076">
        <ele>254.4</ele>
        <time>2026-08-20T12:47:30Z</time>
      </trkpt>
      <trkpt lat="49.14838" lon="4.07072">
        <ele>253.9</ele>
        <time>2026-08-20T12:47:35Z</time>
      </trkpt>
      <trkpt lat="49.14841" lon="4.07066">
        <ele>253.3</ele>
        <time>2026-08-20T12:47:40Z</time>
      </trkpt>
      <trkpt lat="49.14844" lon="4.07058">
        <ele>252.6</ele>
        <time>2026-08-20T12:47:46Z</time>
      </trkpt>
      <trkpt lat="49.14846" lon="4.07053">
        <ele>252.2</ele>
        <time>2026-08-20T12:47:51Z</time>
      </trkpt>
      <trkpt lat="49.14848" lon="4.07048">
        <ele>251.7</ele>
        <time>2026-08-20T12:47:56Z</time>
      </trkpt>
      <trkpt lat="49.14853" lon="4.07039">
        <ele>250.9</ele>
        <time>2026-08-20T12:48:02Z</time>
      </trkpt>
      <trkpt lat="49.14857" lon="4.07033">
        <ele>250.3</ele>
        <time>2026-08-20T12:48:07Z</time>
      </trkpt>
      <trkpt lat="49.14862" lon="4.07027">
        <ele>249.7</ele>
        <time>2026-08-20T12:48:12Z</time>
      </trkpt>
      <trkpt lat="49.14867" lon="4.07022">
        <ele>249.2</ele>
        <time>2026-08-20T12:48:18Z</time>
      </trkpt>
      <trkpt lat="49.14871" lon="4.07018">
        <ele>248.7</ele>
        <time>2026-08-20T12:48:23Z</time>
      </trkpt>
      <trkpt lat="49.14875" lon="4.07015">
        <ele>248.4</ele>
        <time>2026-08-20T12:48:28Z</time>
      </trkpt>
      <trkpt lat="49.14882" lon="4.07009">
        <ele>247.8</ele>
        <time>2026-08-20T12:48:34Z</time>
      </trkpt>
      <trkpt lat="49.14888" lon="4.07003">
        <ele>247.2</ele>
        <time>2026-08-20T12:48:39Z</time>
      </trkpt>
      <trkpt lat="49.14891" lon="4.06997">
        <ele>246.7</ele>
        <time>2026-08-20T12:48:44Z</time>
      </trkpt>
      <trkpt lat="49.14892" lon="4.06989">
        <ele>246.1</ele>
        <time>2026-08-20T12:48:50Z</time>
      </trkpt>
      <trkpt lat="49.14894" lon="4.06979">
        <ele>245.2</ele>
        <time>2026-08-20T12:48:55Z</time>
      </trkpt>
      <trkpt lat="49.14893" lon="4.06968">
        <ele>244.4</ele>
        <time>2026-08-20T12:49:00Z</time>
      </trkpt>
      <trkpt lat="49.14893" lon="4.06961">
        <ele>243.9</ele>
        <time>2026-08-20T12:49:06Z</time>
      </trkpt>
      <trkpt lat="49.14894" lon="4.06955">
        <ele>243.4</ele>
        <time>2026-08-20T12:49:11Z</time>
      </trkpt>
      <trkpt lat="49.14898" lon="4.06946">
        <ele>242.6</ele>
        <time>2026-08-20T12:49:16Z</time>
      </trkpt>
      <trkpt lat="49.14902" lon="4.06934">
        <ele>241.6</ele>
        <time>2026-08-20T12:49:22Z</time>
      </trkpt>
      <trkpt lat="49.14903" lon="4.06926">
        <ele>241</ele>
        <time>2026-08-20T12:49:27Z</time>
      </trkpt>
      <trkpt lat="49.14905" lon="4.06922">
        <ele>240.7</ele>
        <time>2026-08-20T12:49:32Z</time>
      </trkpt>
      <trkpt lat="49.14906" lon="4.0692">
        <ele>240.5</ele>
        <time>2026-08-20T12:49:38Z</time>
      </trkpt>
      <trkpt lat="49.14906" lon="4.06919">
        <ele>240.4</ele>
        <time>2026-08-20T12:49:43Z</time>
      </trkpt>
      <trkpt lat="49.14906" lon="4.06919">
        <ele>240.4</ele>
        <time>2026-08-20T12:49:48Z</time>
      </trkpt>
      <trkpt lat="49.14906" lon="4.06919">
        <ele>240.4</ele>
        <time>2026-08-20T12:49:54Z</time>
      </trkpt>
      <trkpt lat="49.14906" lon="4.06919">
        <ele>240.4</ele>
        <time>2026-08-20T12:49:59Z</time>
      </trkpt>
      <trkpt lat="49.14906" lon="4.06919">
        <ele>240.4</ele>
        <time>2026-08-20T12:50:04Z</time>
      </trkpt>
      <trkpt lat="49.14906" lon="4.06919">
        <ele>240.4</ele>
        <time>2026-08-20T12:50:10Z</time>
      </trkpt>
      <trkpt lat="49.14906" lon="4.06919">
        <ele>240.4</ele>
        <time>2026-08-20T12:50:15Z</time>
      </trkpt>
      <trkpt lat="49.14906" lon="4.06919">
        <ele>240.4</ele>
        <time>2026-08-20T12:50:20Z</time>
      </trkpt>
      <trkpt lat="49.14906" lon="4.06919">
        <ele>240.4</ele>
        <time>2026-08-20T12:50:26Z</time>
      </trkpt>
      <trkpt lat="49.14906" lon="4.06919">
        <ele>240.4</ele>
        <time>2026-08-20T12:50:31Z</time>
      </trkpt>
      <trkpt lat="49.14906" lon="4.06919">
        <ele>240.4</ele>
        <time>2026-08-20T12:50:36Z</time>
      </trkpt>
      <trkpt lat="49.14906" lon="4.06919">
        <ele>240.4</ele>
        <time>2026-08-20T12:50:42Z</time>
      </trkpt>
      <trkpt lat="49.14914" lon="4.06917">
        <ele>240.1</ele>
        <time>2026-08-20T12:50:47Z</time>
      </trkpt>
      <trkpt lat="49.14918" lon="4.06912">
        <ele>239.7</ele>
        <time>2026-08-20T12:50:52Z</time>
      </trkpt>
      <trkpt lat="49.14922" lon="4.06906">
        <ele>239.2</ele>
        <time>2026-08-20T12:50:58Z</time>
      </trkpt>
      <trkpt lat="49.14926" lon="4.06898">
        <ele>238.6</ele>
        <time>2026-08-20T12:51:03Z</time>
      </trkpt>
      <trkpt lat="49.14929" lon="4.06893">
        <ele>238.2</ele>
        <time>2026-08-20T12:51:08Z</time>
      </trkpt>
      <trkpt lat="49.14927" lon="4.06881">
        <ele>237.6</ele>
        <time>2026-08-20T12:51:14Z</time>
      </trkpt>
      <trkpt lat="49.14926" lon="4.06874">
        <ele>237.2</ele>
        <time>2026-08-20T12:51:19Z</time>
      </trkpt>
      <trkpt lat="49.14924" lon="4.06867">
        <ele>236.8</ele>
        <time>2026-08-20T12:51:24Z</time>
      </trkpt>
      <trkpt lat="49.14925" lon="4.06859">
        <ele>236.3</ele>
        <time>2026-08-20T12:51:30Z</time>
      </trkpt>
      <trkpt lat="49.14926" lon="4.06853">
        <ele>235.9</ele>
        <time>2026-08-20T12:51:35Z</time>
      </trkpt>
      <trkpt lat="49.14927" lon="4.06846">
        <ele>235.4</ele>
        <time>2026-08-20T12:51:40Z</time>
      </trkpt>
      <trkpt lat="49.14928" lon="4.06837">
        <ele>234.8</ele>
        <time>2026-08-20T12:51:46Z</time>
      </trkpt>
      <trkpt lat="49.14929" lon="4.06829">
        <ele>234.2</ele>
        <time>2026-08-20T12:51:51Z</time>
      </trkpt>
      <trkpt lat="49.14929" lon="4.06822">
        <ele>233.6</ele>
        <time>2026-08-20T12:51:56Z</time>
      </trkpt>
      <trkpt lat="49.14928" lon="4.06814">
        <ele>233</ele>
        <time>2026-08-20T12:52:02Z</time>
      </trkpt>
      <trkpt lat="49.1493" lon="4.06808">
        <ele>232.4</ele>
        <time>2026-08-20T12:52:07Z</time>
      </trkpt>
      <trkpt lat="49.14936" lon="4.06801">
        <ele>231.6</ele>
        <time>2026-08-20T12:52:12Z</time>
      </trkpt>
      <trkpt lat="49.14941" lon="4.06796">
        <ele>231</ele>
        <time>2026-08-20T12:52:18Z</time>
      </trkpt>
      <trkpt lat="49.14946" lon="4.06794">
        <ele>230.6</ele>
        <time>2026-08-20T12:52:23Z</time>
      </trkpt>
      <trkpt lat="49.14947" lon="4.0679">
        <ele>230.3</ele>
        <time>2026-08-20T12:52:28Z</time>
      </trkpt>
      <trkpt lat="49.14947" lon="4.06783">
        <ele>229.7</ele>
        <time>2026-08-20T12:52:34Z</time>
      </trkpt>
      <trkpt lat="49.14951" lon="4.06778">
        <ele>229.1</ele>
        <time>2026-08-20T12:52:39Z</time>
      </trkpt>
      <trkpt lat="49.14957" lon="4.06773">
        <ele>228.5</ele>
        <time>2026-08-20T12:52:44Z</time>
      </trkpt>
      <trkpt lat="49.14959" lon="4.06764">
        <ele>227.7</ele>
        <time>2026-08-20T12:52:50Z</time>
      </trkpt>
      <trkpt lat="49.14956" lon="4.06756">
        <ele>227.1</ele>
        <time>2026-08-20T12:52:55Z</time>
      </trkpt>
      <trkpt lat="49.14954" lon="4.06749">
        <ele>226.6</ele>
        <time>2026-08-20T12:53:00Z</time>
      </trkpt>
      <trkpt lat="49.14957" lon="4.06744">
        <ele>226.2</ele>
        <time>2026-08-20T12:53:06Z</time>
      </trkpt>
      <trkpt lat="49.14963" lon="4.06744">
        <ele>225.9</ele>
        <time>2026-08-20T12:53:11Z</time>
      </trkpt>
      <trkpt lat="49.14968" lon="4.06744">
        <ele>225.7</ele>
        <time>2026-08-20T12:53:16Z</time>
      </trkpt>
      <trkpt lat="49.14973" lon="4.06744">
        <ele>225.5</ele>
        <time>2026-08-20T12:53:22Z</time>
      </trkpt>
      <trkpt lat="49.14973" lon="4.06744">
        <ele>225.5</ele>
        <time>2026-08-20T12:53:27Z</time>
      </trkpt>
      <trkpt lat="49.14973" lon="4.06744">
        <ele>225.5</ele>
        <time>2026-08-20T12:53:32Z</time>
      </trkpt>
      <trkpt lat="49.14973" lon="4.06744">
        <ele>225.5</ele>
        <time>2026-08-20T12:53:38Z</time>
      </trkpt>
      <trkpt lat="49.14973" lon="4.06744">
        <ele>225.5</ele>
        <time>2026-08-20T12:53:43Z</time>
      </trkpt>
      <trkpt lat="49.14973" lon="4.06744">
        <ele>225.5</ele>
        <time>2026-08-20T12:53:48Z</time>
      </trkpt>
      <trkpt lat="49.14977" lon="4.06738">
        <ele>224.9</ele>
        <time>2026-08-20T12:53:54Z</time>
      </trkpt>
      <trkpt lat="49.14982" lon="4.06738">
        <ele>224.7</ele>
        <time>2026-08-20T12:53:59Z</time>
      </trkpt>
      <trkpt lat="49.14986" lon="4.06732">
        <ele>224</ele>
        <time>2026-08-20T12:54:04Z</time>
      </trkpt>
      <trkpt lat="49.14991" lon="4.06726">
        <ele>223.2</ele>
        <time>2026-08-20T12:54:10Z</time>
      </trkpt>
      <trkpt lat="49.14992" lon="4.06718">
        <ele>222.4</ele>
        <time>2026-08-20T12:54:15Z</time>
      </trkpt>
      <trkpt lat="49.14994" lon="4.06712">
        <ele>221.7</ele>
        <time>2026-08-20T12:54:20Z</time>
      </trkpt>
      <trkpt lat="49.15" lon="4.06705">
        <ele>220.7</ele>
        <time>2026-08-20T12:54:26Z</time>
      </trkpt>
      <trkpt lat="49.15003" lon="4.06699">
        <ele>220</ele>
        <time>2026-08-20T12:54:31Z</time>
      </trkpt>
      <trkpt lat="49.15007" lon="4.06694">
        <ele>219.3</ele>
        <time>2026-08-20T12:54:36Z</time>
      </trkpt>
      <trkpt lat="49.15011" lon="4.06692">
        <ele>218.8</ele>
        <time>2026-08-20T12:54:42Z</time>
      </trkpt>
      <trkpt lat="49.15016" lon="4.06691">
        <ele>218.5</ele>
        <time>2026-08-20T12:54:47Z</time>
      </trkpt>
      <trkpt lat="49.15022" lon="4.06688">
        <ele>217.8</ele>
        <time>2026-08-20T12:54:52Z</time>
      </trkpt>
      <trkpt lat="49.15027" lon="4.06681">
        <ele>216.7</ele>
        <time>2026-08-20T12:54:58Z</time>
      </trkpt>
      <trkpt lat="49.1503" lon="4.06675">
        <ele>215.8</ele>
        <time>2026-08-20T12:55:03Z</time>
      </trkpt>
      <trkpt lat="49.15031" lon="4.06668">
        <ele>214.9</ele>
        <time>2026-08-20T12:55:08Z</time>
      </trkpt>
      <trkpt lat="49.15028" lon="4.06659">
        <ele>215.1</ele>
        <time>2026-08-20T12:55:14Z</time>
      </trkpt>
      <trkpt lat="49.15026" lon="4.06652">
        <ele>215.3</ele>
        <time>2026-08-20T12:55:19Z</time>
      </trkpt>
      <trkpt lat="49.15028" lon="4.06644">
        <ele>215.3</ele>
        <time>2026-08-20T12:55:24Z</time>
      </trkpt>
      <trkpt lat="49.1503" lon="4.06644">
        <ele>215.1</ele>
        <time>2026-08-20T12:55:30Z</time>
      </trkpt>
      <trkpt lat="49.1503" lon="4.06644">
        <ele>215.1</ele>
        <time>2026-08-20T12:55:35Z</time>
      </trkpt>
      <trkpt lat="49.1503" lon="4.06644">
        <ele>215.1</ele>
        <time>2026-08-20T12:55:40Z</time>
      </trkpt>
      <trkpt lat="49.1503" lon="4.06644">
        <ele>215.1</ele>
        <time>2026-08-20T12:55:46Z</time>
      </trkpt>
      <trkpt lat="49.1503" lon="4.06644">
        <ele>215.1</ele>
        <time>2026-08-20T12:55:51Z</time>
      </trkpt>
      <trkpt lat="49.1503" lon="4.06644">
        <ele>215.1</ele>
        <time>2026-08-20T12:55:56Z</time>
      </trkpt>
      <trkpt lat="49.15038" lon="4.06642">
        <ele>214.5</ele>
        <time>2026-08-20T12:56:02Z</time>
      </trkpt>
      <trkpt lat="49.15038" lon="4.06642">
        <ele>214.5</ele>
        <time>2026-08-20T12:56:07Z</time>
      </trkpt>
      <trkpt lat="49.15038" lon="4.06642">
        <ele>214.5</ele>
        <time>2026-08-20T12:56:12Z</time>
      </trkpt>
      <trkpt lat="49.15041" lon="4.06639">
        <ele>214.2</ele>
        <time>2026-08-20T12:56:18Z</time>
      </trkpt>
      <trkpt lat="49.15046" lon="4.06634">
        <ele>213.8</ele>
        <time>2026-08-20T12:56:23Z</time>
      </trkpt>
      <trkpt lat="49.15051" lon="4.06629">
        <ele>213.4</ele>
        <time>2026-08-20T12:56:28Z</time>
      </trkpt>
      <trkpt lat="49.15056" lon="4.06621">
        <ele>213</ele>
        <time>2026-08-20T12:56:34Z</time>
      </trkpt>
      <trkpt lat="49.15057" lon="4.06614">
        <ele>212.9</ele>
        <time>2026-08-20T12:56:39Z</time>
      </trkpt>
      <trkpt lat="49.1506" lon="4.06609">
        <ele>212.6</ele>
        <time>2026-08-20T12:56:44Z</time>
      </trkpt>
      <trkpt lat="49.15062" lon="4.06604">
        <ele>212.4</ele>
        <time>2026-08-20T12:56:50Z</time>
      </trkpt>
      <trkpt lat="49.15062" lon="4.06597">
        <ele>212.3</ele>
        <time>2026-08-20T12:56:55Z</time>
      </trkpt>
      <trkpt lat="49.15065" lon="4.06596">
        <ele>212</ele>
        <time>2026-08-20T12:57:00Z</time>
      </trkpt>
      <trkpt lat="49.15069" lon="4.06596">
        <ele>211.6</ele>
        <time>2026-08-20T12:57:06Z</time>
      </trkpt>
      <trkpt lat="49.15074" lon="4.06592">
        <ele>211.1</ele>
        <time>2026-08-20T12:57:11Z</time>
      </trkpt>
      <trkpt lat="49.15079" lon="4.06587">
        <ele>210.5</ele>
        <time>2026-08-20T12:57:16Z</time>
      </trkpt>
      <trkpt lat="49.15084" lon="4.06582">
        <ele>210</ele>
        <time>2026-08-20T12:57:22Z</time>
      </trkpt>
      <trkpt lat="49.15088" lon="4.06578">
        <ele>209.9</ele>
        <time>2026-08-20T12:57:27Z</time>
      </trkpt>
      <trkpt lat="49.15093" lon="4.06574">
        <ele>209.7</ele>
        <time>2026-08-20T12:57:32Z</time>
      </trkpt>
      <trkpt lat="49.15097" lon="4.06567">
        <ele>209.7</ele>
        <time>2026-08-20T12:57:38Z</time>
      </trkpt>
      <trkpt lat="49.15102" lon="4.06563">
        <ele>209.5</ele>
        <time>2026-08-20T12:57:43Z</time>
      </trkpt>
      <trkpt lat="49.15104" lon="4.0656">
        <ele>209.5</ele>
        <time>2026-08-20T12:57:48Z</time>
      </trkpt>
      <trkpt lat="49.15109" lon="4.06554">
        <ele>209.3</ele>
        <time>2026-08-20T12:57:54Z</time>
      </trkpt>
      <trkpt lat="49.15114" lon="4.06549">
        <ele>209</ele>
        <time>2026-08-20T12:57:59Z</time>
      </trkpt>
      <trkpt lat="49.15118" lon="4.06547">
        <ele>208.7</ele>
        <time>2026-08-20T12:58:04Z</time>
      </trkpt>
      <trkpt lat="49.15121" lon="4.06547">
        <ele>208.4</ele>
        <time>2026-08-20T12:58:10Z</time>
      </trkpt>
      <trkpt lat="49.15122" lon="4.06547">
        <ele>208.3</ele>
        <time>2026-08-20T12:58:15Z</time>
      </trkpt>
      <trkpt lat="49.15122" lon="4.06547">
        <ele>208.3</ele>
        <time>2026-08-20T12:58:20Z</time>
      </trkpt>
      <trkpt lat="49.15122" lon="4.06547">
        <ele>208.3</ele>
        <time>2026-08-20T12:58:26Z</time>
      </trkpt>
      <trkpt lat="49.15122" lon="4.06547">
        <ele>208.3</ele>
        <time>2026-08-20T12:58:31Z</time>
      </trkpt>
      <trkpt lat="49.15122" lon="4.06547">
        <ele>208.3</ele>
        <time>2026-08-20T12:58:36Z</time>
      </trkpt>
      <trkpt lat="49.15122" lon="4.06547">
        <ele>208.3</ele>
        <time>2026-08-20T12:58:42Z</time>
      </trkpt>
      <trkpt lat="49.15122" lon="4.06547">
        <ele>208.3</ele>
        <time>2026-08-20T12:58:47Z</time>
      </trkpt>
      <trkpt lat="49.15122" lon="4.06547">
        <ele>208.3</ele>
        <time>2026-08-20T12:58:52Z</time>
      </trkpt>
      <trkpt lat="49.15122" lon="4.06547">
        <ele>208.3</ele>
        <time>2026-08-20T12:58:58Z</time>
      </trkpt>
      <trkpt lat="49.15124" lon="4.06542">
        <ele>208.3</ele>
        <time>2026-08-20T12:59:03Z</time>
      </trkpt>
      <trkpt lat="49.1513" lon="4.06536">
        <ele>208</ele>
        <time>2026-08-20T12:59:08Z</time>
      </trkpt>
      <trkpt lat="49.15139" lon="4.06532">
        <ele>207.2</ele>
        <time>2026-08-20T12:59:14Z</time>
      </trkpt>
      <trkpt lat="49.15144" lon="4.06532">
        <ele>206.6</ele>
        <time>2026-08-20T12:59:19Z</time>
      </trkpt>
      <trkpt lat="49.15149" lon="4.06528">
        <ele>206.2</ele>
        <time>2026-08-20T12:59:24Z</time>
      </trkpt>
      <trkpt lat="49.15155" lon="4.06526">
        <ele>205.6</ele>
        <time>2026-08-20T12:59:30Z</time>
      </trkpt>
      <trkpt lat="49.15159" lon="4.06525">
        <ele>205.2</ele>
        <time>2026-08-20T12:59:35Z</time>
      </trkpt>
      <trkpt lat="49.15162" lon="4.06522">
        <ele>205</ele>
        <time>2026-08-20T12:59:40Z</time>
      </trkpt>
      <trkpt lat="49.15166" lon="4.0652">
        <ele>204.6</ele>
        <time>2026-08-20T12:59:46Z</time>
      </trkpt>
      <trkpt lat="49.15172" lon="4.06516">
        <ele>203.6</ele>
        <time>2026-08-20T12:59:51Z</time>
      </trkpt>
      <trkpt lat="49.15176" lon="4.06516">
        <ele>202.8</ele>
        <time>2026-08-20T12:59:56Z</time>
      </trkpt>
      <trkpt lat="49.15179" lon="4.06516">
        <ele>202.3</ele>
        <time>2026-08-20T13:00:02Z</time>
      </trkpt>
      <trkpt lat="49.15182" lon="4.06515">
        <ele>201.7</ele>
        <time>2026-08-20T13:00:07Z</time>
      </trkpt>
      <trkpt lat="49.15184" lon="4.06516">
        <ele>201.3</ele>
        <time>2026-08-20T13:00:12Z</time>
      </trkpt>
      <trkpt lat="49.15184" lon="4.06516">
        <ele>201.3</ele>
        <time>2026-08-20T13:00:18Z</time>
      </trkpt>
      <trkpt lat="49.15184" lon="4.06516">
        <ele>201.3</ele>
        <time>2026-08-20T13:00:23Z</time>
      </trkpt>
      <trkpt lat="49.15184" lon="4.06516">
        <ele>201.3</ele>
        <time>2026-08-20T13:00:28Z</time>
      </trkpt>
      <trkpt lat="49.15182" lon="4.06511">
        <ele>201.8</ele>
        <time>2026-08-20T13:00:34Z</time>
      </trkpt>
      <trkpt lat="49.15185" lon="4.06508">
        <ele>201.3</ele>
        <time>2026-08-20T13:00:39Z</time>
      </trkpt>
      <trkpt lat="49.1519" lon="4.06502">
        <ele>200.5</ele>
        <time>2026-08-20T13:00:44Z</time>
      </trkpt>
      <trkpt lat="49.15196" lon="4.06494">
        <ele>199.1</ele>
        <time>2026-08-20T13:00:50Z</time>
      </trkpt>
      <trkpt lat="49.15199" lon="4.06489">
        <ele>198.3</ele>
        <time>2026-08-20T13:00:55Z</time>
      </trkpt>
      <trkpt lat="49.15205" lon="4.06484">
        <ele>197</ele>
        <time>2026-08-20T13:01:00Z</time>
      </trkpt>
      <trkpt lat="49.15208" lon="4.06478">
        <ele>196.1</ele>
        <time>2026-08-20T13:01:06Z</time>
      </trkpt>
      <trkpt lat="49.15209" lon="4.06477">
        <ele>195.9</ele>
        <time>2026-08-20T13:01:11Z</time>
      </trkpt>
      <trkpt lat="49.15209" lon="4.06477">
        <ele>195.9</ele>
        <time>2026-08-20T13:01:16Z</time>
      </trkpt>
      <trkpt lat="49.15209" lon="4.06477">
        <ele>195.9</ele>
        <time>2026-08-20T13:01:22Z</time>
      </trkpt>
      <trkpt lat="49.15209" lon="4.06477">
        <ele>195.9</ele>
        <time>2026-08-20T13:01:27Z</time>
      </trkpt>
      <trkpt lat="49.15209" lon="4.06477">
        <ele>195.9</ele>
        <time>2026-08-20T13:01:32Z</time>
      </trkpt>
      <trkpt lat="49.15209" lon="4.06477">
        <ele>195.9</ele>
        <time>2026-08-20T13:01:38Z</time>
      </trkpt>
      <trkpt lat="49.15209" lon="4.06477">
        <ele>195.9</ele>
        <time>2026-08-20T13:01:43Z</time>
      </trkpt>
      <trkpt lat="49.15209" lon="4.06477">
        <ele>195.9</ele>
        <time>2026-08-20T13:01:48Z</time>
      </trkpt>
      <trkpt lat="49.15209" lon="4.06477">
        <ele>195.9</ele>
        <time>2026-08-20T13:01:54Z</time>
      </trkpt>
      <trkpt lat="49.15209" lon="4.06477">
        <ele>195.9</ele>
        <time>2026-08-20T13:01:59Z</time>
      </trkpt>
      <trkpt lat="49.15209" lon="4.06477">
        <ele>195.9</ele>
        <time>2026-08-20T13:02:04Z</time>
      </trkpt>
      <trkpt lat="49.15209" lon="4.06477">
        <ele>195.9</ele>
        <time>2026-08-20T13:02:10Z</time>
      </trkpt>
      <trkpt lat="49.15209" lon="4.06477">
        <ele>195.9</ele>
        <time>2026-08-20T13:02:15Z</time>
      </trkpt>
      <trkpt lat="49.15209" lon="4.06477">
        <ele>195.9</ele>
        <time>2026-08-20T13:02:20Z</time>
      </trkpt>
      <trkpt lat="49.15209" lon="4.06477">
        <ele>195.9</ele>
        <time>2026-08-20T13:02:26Z</time>
      </trkpt>
      <trkpt lat="49.15209" lon="4.06477">
        <ele>195.9</ele>
        <time>2026-08-20T13:02:31Z</time>
      </trkpt>
      <trkpt lat="49.15209" lon="4.06477">
        <ele>195.9</ele>
        <time>2026-08-20T13:02:36Z</time>
      </trkpt>
      <trkpt lat="49.15209" lon="4.06477">
        <ele>195.9</ele>
        <time>2026-08-20T13:02:42Z</time>
      </trkpt>
      <trkpt lat="49.15209" lon="4.06477">
        <ele>195.9</ele>
        <time>2026-08-20T13:02:47Z</time>
      </trkpt>
      <trkpt lat="49.15209" lon="4.06477">
        <ele>195.9</ele>
        <time>2026-08-20T13:02:52Z</time>
      </trkpt>
      <trkpt lat="49.15209" lon="4.06477">
        <ele>195.9</ele>
        <time>2026-08-20T13:02:58Z</time>
      </trkpt>
      <trkpt lat="49.15209" lon="4.06477">
        <ele>195.9</ele>
        <time>2026-08-20T13:03:03Z</time>
      </trkpt>
      <trkpt lat="49.15209" lon="4.06477">
        <ele>195.9</ele>
        <time>2026-08-20T13:03:08Z</time>
      </trkpt>
      <trkpt lat="49.15209" lon="4.06477">
        <ele>195.9</ele>
        <time>2026-08-20T13:03:14Z</time>
      </trkpt>
      <trkpt lat="49.15209" lon="4.06477">
        <ele>195.9</ele>
        <time>2026-08-20T13:03:19Z</time>
      </trkpt>
      <trkpt lat="49.15209" lon="4.06477">
        <ele>195.9</ele>
        <time>2026-08-20T13:03:24Z</time>
      </trkpt>
      <trkpt lat="49.15209" lon="4.06477">
        <ele>195.9</ele>
        <time>2026-08-20T13:03:30Z</time>
      </trkpt>
      <trkpt lat="49.15209" lon="4.06477">
        <ele>195.9</ele>
        <time>2026-08-20T13:03:35Z</time>
      </trkpt>
      <trkpt lat="49.15209" lon="4.06477">
        <ele>195.9</ele>
        <time>2026-08-20T13:03:40Z</time>
      </trkpt>
      <trkpt lat="49.15209" lon="4.06477">
        <ele>195.9</ele>
        <time>2026-08-20T13:03:46Z</time>
      </trkpt>
      <trkpt lat="49.15209" lon="4.06477">
        <ele>195.9</ele>
        <time>2026-08-20T13:03:51Z</time>
      </trkpt>
      <trkpt lat="49.15209" lon="4.06477">
        <ele>195.9</ele>
        <time>2026-08-20T13:03:56Z</time>
      </trkpt>
      <trkpt lat="49.15212" lon="4.0647">
        <ele>195.1</ele>
        <time>2026-08-20T13:04:02Z</time>
      </trkpt>
      <trkpt lat="49.15219" lon="4.06464">
        <ele>193.5</ele>
        <time>2026-08-20T13:04:07Z</time>
      </trkpt>
      <trkpt lat="49.15222" lon="4.06461">
        <ele>192.8</ele>
        <time>2026-08-20T13:04:12Z</time>
      </trkpt>
      <trkpt lat="49.15222" lon="4.0646">
        <ele>192.8</ele>
        <time>2026-08-20T13:04:18Z</time>
      </trkpt>
      <trkpt lat="49.15222" lon="4.06459">
        <ele>192.7</ele>
        <time>2026-08-20T13:04:23Z</time>
      </trkpt>
      <trkpt lat="49.15224" lon="4.06457">
        <ele>192.3</ele>
        <time>2026-08-20T13:04:28Z</time>
      </trkpt>
      <trkpt lat="49.15229" lon="4.0645">
        <ele>191.1</ele>
        <time>2026-08-20T13:04:34Z</time>
      </trkpt>
      <trkpt lat="49.15233" lon="4.06445">
        <ele>190.1</ele>
        <time>2026-08-20T13:04:39Z</time>
      </trkpt>
      <trkpt lat="49.15236" lon="4.06438">
        <ele>189.3</ele>
        <time>2026-08-20T13:04:44Z</time>
      </trkpt>
      <trkpt lat="49.15241" lon="4.06432">
        <ele>188.2</ele>
        <time>2026-08-20T13:04:50Z</time>
      </trkpt>
      <trkpt lat="49.15245" lon="4.06426">
        <ele>187.2</ele>
        <time>2026-08-20T13:04:55Z</time>
      </trkpt>
      <trkpt lat="49.15247" lon="4.06418">
        <ele>186.6</ele>
        <time>2026-08-20T13:05:00Z</time>
      </trkpt>
      <trkpt lat="49.15252" lon="4.0641">
        <ele>186.1</ele>
        <time>2026-08-20T13:05:06Z</time>
      </trkpt>
      <trkpt lat="49.15256" lon="4.06405">
        <ele>186</ele>
        <time>2026-08-20T13:05:11Z</time>
      </trkpt>
      <trkpt lat="49.1526" lon="4.06399">
        <ele>185.9</ele>
        <time>2026-08-20T13:05:16Z</time>
      </trkpt>
      <trkpt lat="49.15266" lon="4.06395">
        <ele>185.6</ele>
        <time>2026-08-20T13:05:22Z</time>
      </trkpt>
      <trkpt lat="49.15271" lon="4.06389">
        <ele>185.4</ele>
        <time>2026-08-20T13:05:27Z</time>
      </trkpt>
      <trkpt lat="49.15276" lon="4.06384">
        <ele>185.2</ele>
        <time>2026-08-20T13:05:32Z</time>
      </trkpt>
      <trkpt lat="49.15283" lon="4.06379">
        <ele>184.8</ele>
        <time>2026-08-20T13:05:38Z</time>
      </trkpt>
      <trkpt lat="49.15288" lon="4.06376">
        <ele>184.5</ele>
        <time>2026-08-20T13:05:43Z</time>
      </trkpt>
      <trkpt lat="49.15293" lon="4.06376">
        <ele>184.1</ele>
        <time>2026-08-20T13:05:48Z</time>
      </trkpt>
      <trkpt lat="49.15299" lon="4.06374">
        <ele>183.7</ele>
        <time>2026-08-20T13:05:54Z</time>
      </trkpt>
      <trkpt lat="49.15303" lon="4.06372">
        <ele>183.5</ele>
        <time>2026-08-20T13:05:59Z</time>
      </trkpt>
      <trkpt lat="49.15309" lon="4.0637">
        <ele>183</ele>
        <time>2026-08-20T13:06:04Z</time>
      </trkpt>
      <trkpt lat="49.15316" lon="4.06369">
        <ele>182.5</ele>
        <time>2026-08-20T13:06:10Z</time>
      </trkpt>
      <trkpt lat="49.15321" lon="4.06367">
        <ele>182.2</ele>
        <time>2026-08-20T13:06:15Z</time>
      </trkpt>
      <trkpt lat="49.15326" lon="4.06365">
        <ele>181.8</ele>
        <time>2026-08-20T13:06:20Z</time>
      </trkpt>
      <trkpt lat="49.15333" lon="4.06364">
        <ele>181.3</ele>
        <time>2026-08-20T13:06:26Z</time>
      </trkpt>
      <trkpt lat="49.15338" lon="4.06362">
        <ele>181.1</ele>
        <time>2026-08-20T13:06:31Z</time>
      </trkpt>
      <trkpt lat="49.15343" lon="4.0636">
        <ele>180.9</ele>
        <time>2026-08-20T13:06:36Z</time>
      </trkpt>
      <trkpt lat="49.15346" lon="4.06358">
        <ele>180.8</ele>
        <time>2026-08-20T13:06:42Z</time>
      </trkpt>
      <trkpt lat="49.15351" lon="4.06359">
        <ele>180.5</ele>
        <time>2026-08-20T13:06:47Z</time>
      </trkpt>
      <trkpt lat="49.15356" lon="4.06359">
        <ele>180.2</ele>
        <time>2026-08-20T13:06:52Z</time>
      </trkpt>
      <trkpt lat="49.15362" lon="4.06357">
        <ele>180</ele>
        <time>2026-08-20T13:06:58Z</time>
      </trkpt>
      <trkpt lat="49.15365" lon="4.06356">
        <ele>179.8</ele>
        <time>2026-08-20T13:07:03Z</time>
      </trkpt>
      <trkpt lat="49.15369" lon="4.06356">
        <ele>179.6</ele>
        <time>2026-08-20T13:07:08Z</time>
      </trkpt>
      <trkpt lat="49.15376" lon="4.06354">
        <ele>179.3</ele>
        <time>2026-08-20T13:07:14Z</time>
      </trkpt>
      <trkpt lat="49.15383" lon="4.06353">
        <ele>179</ele>
        <time>2026-08-20T13:07:19Z</time>
      </trkpt>
      <trkpt lat="49.15388" lon="4.06351">
        <ele>178.8</ele>
        <time>2026-08-20T13:07:24Z</time>
      </trkpt>
      <trkpt lat="49.15397" lon="4.06347">
        <ele>178.5</ele>
        <time>2026-08-20T13:07:30Z</time>
      </trkpt>
      <trkpt lat="49.15402" lon="4.06338">
        <ele>178.5</ele>
        <time>2026-08-20T13:07:35Z</time>
      </trkpt>
      <trkpt lat="49.15403" lon="4.06337">
        <ele>178.5</ele>
        <time>2026-08-20T13:07:40Z</time>
      </trkpt>
      <trkpt lat="49.15403" lon="4.06337">
        <ele>178.5</ele>
        <time>2026-08-20T13:07:46Z</time>
      </trkpt>
      <trkpt lat="49.15403" lon="4.06337">
        <ele>178.5</ele>
        <time>2026-08-20T13:07:51Z</time>
      </trkpt>
      <trkpt lat="49.15403" lon="4.06337">
        <ele>178.5</ele>
        <time>2026-08-20T13:07:56Z</time>
      </trkpt>
      <trkpt lat="49.15399" lon="4.06333">
        <ele>178.9</ele>
        <time>2026-08-20T13:08:02Z</time>
      </trkpt>
      <trkpt lat="49.15399" lon="4.06333">
        <ele>178.9</ele>
        <time>2026-08-20T13:08:07Z</time>
      </trkpt>
      <trkpt lat="49.15399" lon="4.06333">
        <ele>178.9</ele>
        <time>2026-08-20T13:08:12Z</time>
      </trkpt>
      <trkpt lat="49.15399" lon="4.06333">
        <ele>178.9</ele>
        <time>2026-08-20T13:08:18Z</time>
      </trkpt>
      <trkpt lat="49.15399" lon="4.06333">
        <ele>178.9</ele>
        <time>2026-08-20T13:08:23Z</time>
      </trkpt>
      <trkpt lat="49.15399" lon="4.06333">
        <ele>178.9</ele>
        <time>2026-08-20T13:08:28Z</time>
      </trkpt>
      <trkpt lat="49.15399" lon="4.06333">
        <ele>178.9</ele>
        <time>2026-08-20T13:08:34Z</time>
      </trkpt>
      <trkpt lat="49.15399" lon="4.06333">
        <ele>178.9</ele>
        <time>2026-08-20T13:08:39Z</time>
      </trkpt>
      <trkpt lat="49.15399" lon="4.06333">
        <ele>178.9</ele>
        <time>2026-08-20T13:08:44Z</time>
      </trkpt>
      <trkpt lat="49.15399" lon="4.06333">
        <ele>178.9</ele>
        <time>2026-08-20T13:08:50Z</time>
      </trkpt>
      <trkpt lat="49.15402" lon="4.06337">
        <ele>178.6</ele>
        <time>2026-08-20T13:08:55Z</time>
      </trkpt>
      <trkpt lat="49.15407" lon="4.06331">
        <ele>178.7</ele>
        <time>2026-08-20T13:09:00Z</time>
      </trkpt>
      <trkpt lat="49.15411" lon="4.06325">
        <ele>179</ele>
        <time>2026-08-20T13:09:06Z</time>
      </trkpt>
      <trkpt lat="49.15414" lon="4.06322">
        <ele>179.1</ele>
        <time>2026-08-20T13:09:11Z</time>
      </trkpt>
      <trkpt lat="49.15419" lon="4.06322">
        <ele>178.8</ele>
        <time>2026-08-20T13:09:16Z</time>
      </trkpt>
      <trkpt lat="49.15426" lon="4.06321">
        <ele>178.6</ele>
        <time>2026-08-20T13:09:22Z</time>
      </trkpt>
      <trkpt lat="49.15431" lon="4.0632">
        <ele>178.4</ele>
        <time>2026-08-20T13:09:27Z</time>
      </trkpt>
      <trkpt lat="49.15437" lon="4.06315">
        <ele>178.5</ele>
        <time>2026-08-20T13:09:32Z</time>
      </trkpt>
      <trkpt lat="49.15442" lon="4.06306">
        <ele>179</ele>
        <time>2026-08-20T13:09:38Z</time>
      </trkpt>
      <trkpt lat="49.15446" lon="4.06298">
        <ele>179.4</ele>
        <time>2026-08-20T13:09:43Z</time>
      </trkpt>
      <trkpt lat="49.1545" lon="4.06291">
        <ele>179.8</ele>
        <time>2026-08-20T13:09:48Z</time>
      </trkpt>
      <trkpt lat="49.15454" lon="4.06284">
        <ele>180.1</ele>
        <time>2026-08-20T13:09:54Z</time>
      </trkpt>
      <trkpt lat="49.15457" lon="4.06275">
        <ele>180.6</ele>
        <time>2026-08-20T13:09:59Z</time>
      </trkpt>
      <trkpt lat="49.1546" lon="4.06266">
        <ele>181.2</ele>
        <time>2026-08-20T13:10:04Z</time>
      </trkpt>
      <trkpt lat="49.15463" lon="4.06256">
        <ele>181.8</ele>
        <time>2026-08-20T13:10:10Z</time>
      </trkpt>
      <trkpt lat="49.15467" lon="4.06251">
        <ele>181.9</ele>
        <time>2026-08-20T13:10:15Z</time>
      </trkpt>
      <trkpt lat="49.1547" lon="4.06244">
        <ele>182</ele>
        <time>2026-08-20T13:10:20Z</time>
      </trkpt>
      <trkpt lat="49.15476" lon="4.06246">
        <ele>181.6</ele>
        <time>2026-08-20T13:10:26Z</time>
      </trkpt>
      <trkpt lat="49.1548" lon="4.06248">
        <ele>181.3</ele>
        <time>2026-08-20T13:10:31Z</time>
      </trkpt>
      <trkpt lat="49.15487" lon="4.0625">
        <ele>180.8</ele>
        <time>2026-08-20T13:10:36Z</time>
      </trkpt>
      <trkpt lat="49.15492" lon="4.06252">
        <ele>180.3</ele>
        <time>2026-08-20T13:10:42Z</time>
      </trkpt>
      <trkpt lat="49.15497" lon="4.06258">
        <ele>179.6</ele>
        <time>2026-08-20T13:10:47Z</time>
      </trkpt>
      <trkpt lat="49.15502" lon="4.06262">
        <ele>178.9</ele>
        <time>2026-08-20T13:10:52Z</time>
      </trkpt>
      <trkpt lat="49.15508" lon="4.06265">
        <ele>177.9</ele>
        <time>2026-08-20T13:10:58Z</time>
      </trkpt>
      <trkpt lat="49.15513" lon="4.06267">
        <ele>177.1</ele>
        <time>2026-08-20T13:11:03Z</time>
      </trkpt>
      <trkpt lat="49.15517" lon="4.06271">
        <ele>176.3</ele>
        <time>2026-08-20T13:11:08Z</time>
      </trkpt>
      <trkpt lat="49.15522" lon="4.06273">
        <ele>175.5</ele>
        <time>2026-08-20T13:11:14Z</time>
      </trkpt>
      <trkpt lat="49.15525" lon="4.06274">
        <ele>175.1</ele>
        <time>2026-08-20T13:11:19Z</time>
      </trkpt>
      <trkpt lat="49.15526" lon="4.06275">
        <ele>174.9</ele>
        <time>2026-08-20T13:11:24Z</time>
      </trkpt>
      <trkpt lat="49.15526" lon="4.06275">
        <ele>174.9</ele>
        <time>2026-08-20T13:11:30Z</time>
      </trkpt>
      <trkpt lat="49.15526" lon="4.06275">
        <ele>174.9</ele>
        <time>2026-08-20T13:11:35Z</time>
      </trkpt>
      <trkpt lat="49.15526" lon="4.06275">
        <ele>174.9</ele>
        <time>2026-08-20T13:11:40Z</time>
      </trkpt>
      <trkpt lat="49.15526" lon="4.06275">
        <ele>174.9</ele>
        <time>2026-08-20T13:11:46Z</time>
      </trkpt>
      <trkpt lat="49.15526" lon="4.06275">
        <ele>174.9</ele>
        <time>2026-08-20T13:11:51Z</time>
      </trkpt>
      <trkpt lat="49.15526" lon="4.06275">
        <ele>174.9</ele>
        <time>2026-08-20T13:11:56Z</time>
      </trkpt>
      <trkpt lat="49.15526" lon="4.06275">
        <ele>174.9</ele>
        <time>2026-08-20T13:12:02Z</time>
      </trkpt>
      <trkpt lat="49.15534" lon="4.06279">
        <ele>173.7</ele>
        <time>2026-08-20T13:12:07Z</time>
      </trkpt>
      <trkpt lat="49.15539" lon="4.06281">
        <ele>173</ele>
        <time>2026-08-20T13:12:12Z</time>
      </trkpt>
      <trkpt lat="49.15545" lon="4.06277">
        <ele>172.5</ele>
        <time>2026-08-20T13:12:18Z</time>
      </trkpt>
      <trkpt lat="49.15551" lon="4.06275">
        <ele>171.8</ele>
        <time>2026-08-20T13:12:23Z</time>
      </trkpt>
      <trkpt lat="49.15558" lon="4.06269">
        <ele>171.1</ele>
        <time>2026-08-20T13:12:28Z</time>
      </trkpt>
      <trkpt lat="49.15562" lon="4.06263">
        <ele>170.7</ele>
        <time>2026-08-20T13:12:34Z</time>
      </trkpt>
      <trkpt lat="49.15567" lon="4.06256">
        <ele>170.2</ele>
        <time>2026-08-20T13:12:39Z</time>
      </trkpt>
      <trkpt lat="49.15571" lon="4.06249">
        <ele>169.8</ele>
        <time>2026-08-20T13:12:44Z</time>
      </trkpt>
      <trkpt lat="49.15575" lon="4.06243">
        <ele>169.3</ele>
        <time>2026-08-20T13:12:50Z</time>
      </trkpt>
      <trkpt lat="49.15579" lon="4.06236">
        <ele>168.8</ele>
        <time>2026-08-20T13:12:55Z</time>
      </trkpt>
      <trkpt lat="49.15582" lon="4.06229">
        <ele>168.4</ele>
        <time>2026-08-20T13:13:00Z</time>
      </trkpt>
      <trkpt lat="49.15585" lon="4.06221">
        <ele>168.2</ele>
        <time>2026-08-20T13:13:06Z</time>
      </trkpt>
      <trkpt lat="49.15587" lon="4.06211">
        <ele>168.1</ele>
        <time>2026-08-20T13:13:11Z</time>
      </trkpt>
      <trkpt lat="49.15591" lon="4.06207">
        <ele>167.8</ele>
        <time>2026-08-20T13:13:16Z</time>
      </trkpt>
      <trkpt lat="49.15594" lon="4.06202">
        <ele>167.6</ele>
        <time>2026-08-20T13:13:22Z</time>
      </trkpt>
      <trkpt lat="49.15597" lon="4.06198">
        <ele>167.3</ele>
        <time>2026-08-20T13:13:27Z</time>
      </trkpt>
      <trkpt lat="49.15602" lon="4.06193">
        <ele>166.9</ele>
        <time>2026-08-20T13:13:32Z</time>
      </trkpt>
      <trkpt lat="49.15604" lon="4.06185">
        <ele>166.8</ele>
        <time>2026-08-20T13:13:38Z</time>
      </trkpt>
      <trkpt lat="49.15607" lon="4.06177">
        <ele>166.6</ele>
        <time>2026-08-20T13:13:43Z</time>
      </trkpt>
      <trkpt lat="49.1561" lon="4.06169">
        <ele>166.4</ele>
        <time>2026-08-20T13:13:48Z</time>
      </trkpt>
      <trkpt lat="49.15613" lon="4.06159">
        <ele>166.3</ele>
        <time>2026-08-20T13:13:54Z</time>
      </trkpt>
      <trkpt lat="49.15616" lon="4.06152">
        <ele>166.2</ele>
        <time>2026-08-20T13:13:59Z</time>
      </trkpt>
      <trkpt lat="49.15618" lon="4.06145">
        <ele>166.2</ele>
        <time>2026-08-20T13:14:04Z</time>
      </trkpt>
      <trkpt lat="49.15622" lon="4.06135">
        <ele>166</ele>
        <time>2026-08-20T13:14:10Z</time>
      </trkpt>
      <trkpt lat="49.15622" lon="4.06128">
        <ele>166.2</ele>
        <time>2026-08-20T13:14:15Z</time>
      </trkpt>
      <trkpt lat="49.15623" lon="4.06128">
        <ele>166.1</ele>
        <time>2026-08-20T13:14:20Z</time>
      </trkpt>
      <trkpt lat="49.15624" lon="4.06124">
        <ele>166.1</ele>
        <time>2026-08-20T13:14:26Z</time>
      </trkpt>
      <trkpt lat="49.15626" lon="4.06118">
        <ele>166.1</ele>
        <time>2026-08-20T13:14:31Z</time>
      </trkpt>
      <trkpt lat="49.15629" lon="4.06111">
        <ele>166</ele>
        <time>2026-08-20T13:14:36Z</time>
      </trkpt>
      <trkpt lat="49.15632" lon="4.06101">
        <ele>165.9</ele>
        <time>2026-08-20T13:14:42Z</time>
      </trkpt>
      <trkpt lat="49.15635" lon="4.06092">
        <ele>165.8</ele>
        <time>2026-08-20T13:14:47Z</time>
      </trkpt>
      <trkpt lat="49.15637" lon="4.06085">
        <ele>165.8</ele>
        <time>2026-08-20T13:14:52Z</time>
      </trkpt>
      <trkpt lat="49.15639" lon="4.06074">
        <ele>165.9</ele>
        <time>2026-08-20T13:14:58Z</time>
      </trkpt>
      <trkpt lat="49.15641" lon="4.06065">
        <ele>165.9</ele>
        <time>2026-08-20T13:15:03Z</time>
      </trkpt>
      <trkpt lat="49.15645" lon="4.06057">
        <ele>165.7</ele>
        <time>2026-08-20T13:15:08Z</time>
      </trkpt>
      <trkpt lat="49.15647" lon="4.06046">
        <ele>165.8</ele>
        <time>2026-08-20T13:15:14Z</time>
      </trkpt>
      <trkpt lat="49.1565" lon="4.0604">
        <ele>165.6</ele>
        <time>2026-08-20T13:15:19Z</time>
      </trkpt>
      <trkpt lat="49.15654" lon="4.06034">
        <ele>165.4</ele>
        <time>2026-08-20T13:15:24Z</time>
      </trkpt>
      <trkpt lat="49.1566" lon="4.06026">
        <ele>165</ele>
        <time>2026-08-20T13:15:30Z</time>
      </trkpt>
      <trkpt lat="49.15662" lon="4.06023">
        <ele>164.9</ele>
        <time>2026-08-20T13:15:35Z</time>
      </trkpt>
      <trkpt lat="49.15666" lon="4.06015">
        <ele>164.7</ele>
        <time>2026-08-20T13:15:40Z</time>
      </trkpt>
      <trkpt lat="49.1567" lon="4.06007">
        <ele>164.6</ele>
        <time>2026-08-20T13:15:46Z</time>
      </trkpt>
      <trkpt lat="49.15673" lon="4.06001">
        <ele>164.5</ele>
        <time>2026-08-20T13:15:51Z</time>
      </trkpt>
      <trkpt lat="49.15676" lon="4.05995">
        <ele>164.7</ele>
        <time>2026-08-20T13:15:56Z</time>
      </trkpt>
      <trkpt lat="49.1568" lon="4.05987">
        <ele>164.9</ele>
        <time>2026-08-20T13:16:02Z</time>
      </trkpt>
      <trkpt lat="49.15684" lon="4.0598">
        <ele>165</ele>
        <time>2026-08-20T13:16:07Z</time>
      </trkpt>
      <trkpt lat="49.15688" lon="4.05973">
        <ele>165.2</ele>
        <time>2026-08-20T13:16:12Z</time>
      </trkpt>
      <trkpt lat="49.15693" lon="4.05964">
        <ele>165.3</ele>
        <time>2026-08-20T13:16:18Z</time>
      </trkpt>
      <trkpt lat="49.15697" lon="4.05957">
        <ele>165.3</ele>
        <time>2026-08-20T13:16:23Z</time>
      </trkpt>
      <trkpt lat="49.157" lon="4.05949">
        <ele>165.5</ele>
        <time>2026-08-20T13:16:28Z</time>
      </trkpt>
      <trkpt lat="49.15704" lon="4.05939">
        <ele>165.7</ele>
        <time>2026-08-20T13:16:34Z</time>
      </trkpt>
      <trkpt lat="49.15708" lon="4.05931">
        <ele>165.8</ele>
        <time>2026-08-20T13:16:39Z</time>
      </trkpt>
      <trkpt lat="49.15712" lon="4.05924">
        <ele>165.7</ele>
        <time>2026-08-20T13:16:44Z</time>
      </trkpt>
      <trkpt lat="49.15715" lon="4.05914">
        <ele>166</ele>
        <time>2026-08-20T13:16:50Z</time>
      </trkpt>
      <trkpt lat="49.15717" lon="4.05904">
        <ele>166.7</ele>
        <time>2026-08-20T13:16:55Z</time>
      </trkpt>
      <trkpt lat="49.15718" lon="4.05896">
        <ele>167.4</ele>
        <time>2026-08-20T13:17:00Z</time>
      </trkpt>
      <trkpt lat="49.1572" lon="4.05885">
        <ele>168.1</ele>
        <time>2026-08-20T13:17:06Z</time>
      </trkpt>
      <trkpt lat="49.1572" lon="4.05875">
        <ele>169</ele>
        <time>2026-08-20T13:17:11Z</time>
      </trkpt>
      <trkpt lat="49.15721" lon="4.05867">
        <ele>169.6</ele>
        <time>2026-08-20T13:17:16Z</time>
      </trkpt>
      <trkpt lat="49.15719" lon="4.05859">
        <ele>170.6</ele>
        <time>2026-08-20T13:17:22Z</time>
      </trkpt>
      <trkpt lat="49.15718" lon="4.05853">
        <ele>171.3</ele>
        <time>2026-08-20T13:17:27Z</time>
      </trkpt>
      <trkpt lat="49.15718" lon="4.05847">
        <ele>171.9</ele>
        <time>2026-08-20T13:17:32Z</time>
      </trkpt>
      <trkpt lat="49.15716" lon="4.0584">
        <ele>172.9</ele>
        <time>2026-08-20T13:17:38Z</time>
      </trkpt>
      <trkpt lat="49.15716" lon="4.05839">
        <ele>173</ele>
        <time>2026-08-20T13:17:43Z</time>
      </trkpt>
      <trkpt lat="49.15715" lon="4.05839">
        <ele>173.2</ele>
        <time>2026-08-20T13:17:48Z</time>
      </trkpt>
      <trkpt lat="49.15715" lon="4.05839">
        <ele>173.2</ele>
        <time>2026-08-20T13:17:54Z</time>
      </trkpt>
      <trkpt lat="49.15715" lon="4.05839">
        <ele>173.2</ele>
        <time>2026-08-20T13:17:59Z</time>
      </trkpt>
      <trkpt lat="49.15715" lon="4.05839">
        <ele>173.2</ele>
        <time>2026-08-20T13:18:04Z</time>
      </trkpt>
      <trkpt lat="49.15715" lon="4.05839">
        <ele>173.2</ele>
        <time>2026-08-20T13:18:10Z</time>
      </trkpt>
      <trkpt lat="49.15715" lon="4.05839">
        <ele>173.2</ele>
        <time>2026-08-20T13:18:15Z</time>
      </trkpt>
      <trkpt lat="49.15715" lon="4.05839">
        <ele>173.2</ele>
        <time>2026-08-20T13:18:20Z</time>
      </trkpt>
      <trkpt lat="49.15713" lon="4.05826">
        <ele>174.5</ele>
        <time>2026-08-20T13:18:26Z</time>
      </trkpt>
      <trkpt lat="49.15713" lon="4.0582">
        <ele>174.9</ele>
        <time>2026-08-20T13:18:31Z</time>
      </trkpt>
      <trkpt lat="49.15711" lon="4.05812">
        <ele>175.7</ele>
        <time>2026-08-20T13:18:36Z</time>
      </trkpt>
      <trkpt lat="49.15709" lon="4.05803">
        <ele>176.7</ele>
        <time>2026-08-20T13:18:42Z</time>
      </trkpt>
      <trkpt lat="49.15709" lon="4.05797">
        <ele>177</ele>
        <time>2026-08-20T13:18:47Z</time>
      </trkpt>
      <trkpt lat="49.15711" lon="4.05788">
        <ele>177.1</ele>
        <time>2026-08-20T13:18:52Z</time>
      </trkpt>
      <trkpt lat="49.15714" lon="4.05781">
        <ele>176.9</ele>
        <time>2026-08-20T13:18:58Z</time>
      </trkpt>
      <trkpt lat="49.15715" lon="4.05779">
        <ele>176.8</ele>
        <time>2026-08-20T13:19:03Z</time>
      </trkpt>
      <trkpt lat="49.15718" lon="4.05775">
        <ele>176.3</ele>
        <time>2026-08-20T13:19:08Z</time>
      </trkpt>
      <trkpt lat="49.15722" lon="4.05769">
        <ele>175.7</ele>
        <time>2026-08-20T13:19:14Z</time>
      </trkpt>
      <trkpt lat="49.15723" lon="4.05769">
        <ele>175.5</ele>
        <time>2026-08-20T13:19:19Z</time>
      </trkpt>
      <trkpt lat="49.15723" lon="4.05769">
        <ele>175.5</ele>
        <time>2026-08-20T13:19:24Z</time>
      </trkpt>
      <trkpt lat="49.15723" lon="4.05769">
        <ele>175.5</ele>
        <time>2026-08-20T13:19:30Z</time>
      </trkpt>
      <trkpt lat="49.15724" lon="4.05764">
        <ele>175.5</ele>
        <time>2026-08-20T13:19:35Z</time>
      </trkpt>
      <trkpt lat="49.15728" lon="4.0576">
        <ele>174.8</ele>
        <time>2026-08-20T13:19:40Z</time>
      </trkpt>
      <trkpt lat="49.15731" lon="4.05754">
        <ele>174.4</ele>
        <time>2026-08-20T13:19:46Z</time>
      </trkpt>
      <trkpt lat="49.15735" lon="4.05748">
        <ele>173.6</ele>
        <time>2026-08-20T13:19:51Z</time>
      </trkpt>
      <trkpt lat="49.15738" lon="4.05743">
        <ele>172.8</ele>
        <time>2026-08-20T13:19:56Z</time>
      </trkpt>
      <trkpt lat="49.15743" lon="4.05736">
        <ele>171.6</ele>
        <time>2026-08-20T13:20:02Z</time>
      </trkpt>
      <trkpt lat="49.15747" lon="4.0573">
        <ele>170.7</ele>
        <time>2026-08-20T13:20:07Z</time>
      </trkpt>
      <trkpt lat="49.15751" lon="4.05725">
        <ele>169.9</ele>
        <time>2026-08-20T13:20:12Z</time>
      </trkpt>
      <trkpt lat="49.15755" lon="4.0572">
        <ele>169.4</ele>
        <time>2026-08-20T13:20:18Z</time>
      </trkpt>
      <trkpt lat="49.15758" lon="4.05714">
        <ele>169.1</ele>
        <time>2026-08-20T13:20:23Z</time>
      </trkpt>
      <trkpt lat="49.1576" lon="4.05709">
        <ele>169</ele>
        <time>2026-08-20T13:20:28Z</time>
      </trkpt>
      <trkpt lat="49.1576" lon="4.05709">
        <ele>169</ele>
        <time>2026-08-20T13:20:34Z</time>
      </trkpt>
      <trkpt lat="49.1576" lon="4.05709">
        <ele>169</ele>
        <time>2026-08-20T13:20:39Z</time>
      </trkpt>
      <trkpt lat="49.15762" lon="4.05705">
        <ele>168.8</ele>
        <time>2026-08-20T13:20:44Z</time>
      </trkpt>
      <trkpt lat="49.15763" lon="4.05701">
        <ele>168.8</ele>
        <time>2026-08-20T13:20:50Z</time>
      </trkpt>
      <trkpt lat="49.15763" lon="4.05701">
        <ele>168.8</ele>
        <time>2026-08-20T13:20:55Z</time>
      </trkpt>
      <trkpt lat="49.15763" lon="4.05701">
        <ele>168.8</ele>
        <time>2026-08-20T13:21:00Z</time>
      </trkpt>
      <trkpt lat="49.15763" lon="4.05701">
        <ele>168.8</ele>
        <time>2026-08-20T13:21:06Z</time>
      </trkpt>
      <trkpt lat="49.15763" lon="4.05701">
        <ele>168.8</ele>
        <time>2026-08-20T13:21:11Z</time>
      </trkpt>
      <trkpt lat="49.15763" lon="4.05701">
        <ele>168.8</ele>
        <time>2026-08-20T13:21:16Z</time>
      </trkpt>
      <trkpt lat="49.15763" lon="4.05701">
        <ele>168.8</ele>
        <time>2026-08-20T13:21:22Z</time>
      </trkpt>
      <trkpt lat="49.15763" lon="4.05701">
        <ele>168.8</ele>
        <time>2026-08-20T13:21:27Z</time>
      </trkpt>
      <trkpt lat="49.15763" lon="4.05701">
        <ele>168.8</ele>
        <time>2026-08-20T13:21:32Z</time>
      </trkpt>
      <trkpt lat="49.15763" lon="4.05701">
        <ele>168.8</ele>
        <time>2026-08-20T13:21:38Z</time>
      </trkpt>
      <trkpt lat="49.15764" lon="4.05697">
        <ele>168.7</ele>
        <time>2026-08-20T13:21:43Z</time>
      </trkpt>
      <trkpt lat="49.15765" lon="4.05692">
        <ele>168.7</ele>
        <time>2026-08-20T13:21:48Z</time>
      </trkpt>
      <trkpt lat="49.15767" lon="4.05686">
        <ele>168.6</ele>
        <time>2026-08-20T13:21:54Z</time>
      </trkpt>
      <trkpt lat="49.15767" lon="4.05686">
        <ele>168.6</ele>
        <time>2026-08-20T13:21:59Z</time>
      </trkpt>
      <trkpt lat="49.15767" lon="4.05686">
        <ele>168.6</ele>
        <time>2026-08-20T13:22:04Z</time>
      </trkpt>
      <trkpt lat="49.15767" lon="4.05686">
        <ele>168.6</ele>
        <time>2026-08-20T13:22:10Z</time>
      </trkpt>
      <trkpt lat="49.15767" lon="4.05686">
        <ele>168.6</ele>
        <time>2026-08-20T13:22:15Z</time>
      </trkpt>
      <trkpt lat="49.15767" lon="4.05686">
        <ele>168.6</ele>
        <time>2026-08-20T13:22:20Z</time>
      </trkpt>
      <trkpt lat="49.15767" lon="4.05686">
        <ele>168.6</ele>
        <time>2026-08-20T13:22:26Z</time>
      </trkpt>
      <trkpt lat="49.15769" lon="4.05676">
        <ele>168.7</ele>
        <time>2026-08-20T13:22:31Z</time>
      </trkpt>
      <trkpt lat="49.15771" lon="4.05668">
        <ele>168.7</ele>
        <time>2026-08-20T13:22:36Z</time>
      </trkpt>
      <trkpt lat="49.15773" lon="4.0566">
        <ele>169.1</ele>
        <time>2026-08-20T13:22:42Z</time>
      </trkpt>
      <trkpt lat="49.15773" lon="4.05657">
        <ele>169.3</ele>
        <time>2026-08-20T13:22:47Z</time>
      </trkpt>
      <trkpt lat="49.15773" lon="4.05657">
        <ele>169.3</ele>
        <time>2026-08-20T13:22:52Z</time>
      </trkpt>
      <trkpt lat="49.15774" lon="4.05655">
        <ele>169.4</ele>
        <time>2026-08-20T13:22:58Z</time>
      </trkpt>
      <trkpt lat="49.15776" lon="4.05651">
        <ele>169.6</ele>
        <time>2026-08-20T13:23:03Z</time>
      </trkpt>
      <trkpt lat="49.15777" lon="4.05645">
        <ele>170</ele>
        <time>2026-08-20T13:23:08Z</time>
      </trkpt>
      <trkpt lat="49.1578" lon="4.05637">
        <ele>170.5</ele>
        <time>2026-08-20T13:23:14Z</time>
      </trkpt>
      <trkpt lat="49.15781" lon="4.05631">
        <ele>170.9</ele>
        <time>2026-08-20T13:23:19Z</time>
      </trkpt>
      <trkpt lat="49.15783" lon="4.05624">
        <ele>171.4</ele>
        <time>2026-08-20T13:23:24Z</time>
      </trkpt>
      <trkpt lat="49.15785" lon="4.05616">
        <ele>172</ele>
        <time>2026-08-20T13:23:30Z</time>
      </trkpt>
      <trkpt lat="49.15787" lon="4.05609">
        <ele>172.5</ele>
        <time>2026-08-20T13:23:35Z</time>
      </trkpt>
      <trkpt lat="49.15789" lon="4.05602">
        <ele>173</ele>
        <time>2026-08-20T13:23:40Z</time>
      </trkpt>
      <trkpt lat="49.15791" lon="4.05593">
        <ele>173.7</ele>
        <time>2026-08-20T13:23:46Z</time>
      </trkpt>
      <trkpt lat="49.15789" lon="4.05589">
        <ele>174.1</ele>
        <time>2026-08-20T13:23:51Z</time>
      </trkpt>
      <trkpt lat="49.1579" lon="4.05588">
        <ele>174.1</ele>
        <time>2026-08-20T13:23:56Z</time>
      </trkpt>
      <trkpt lat="49.15795" lon="4.05583">
        <ele>174.5</ele>
        <time>2026-08-20T13:24:02Z</time>
      </trkpt>
      <trkpt lat="49.15797" lon="4.05577">
        <ele>175.1</ele>
        <time>2026-08-20T13:24:07Z</time>
      </trkpt>
      <trkpt lat="49.158" lon="4.0557">
        <ele>175.8</ele>
        <time>2026-08-20T13:24:12Z</time>
      </trkpt>
      <trkpt lat="49.15802" lon="4.05561">
        <ele>176.7</ele>
        <time>2026-08-20T13:24:18Z</time>
      </trkpt>
      <trkpt lat="49.15804" lon="4.05552">
        <ele>177.5</ele>
        <time>2026-08-20T13:24:23Z</time>
      </trkpt>
      <trkpt lat="49.15806" lon="4.05545">
        <ele>178.1</ele>
        <time>2026-08-20T13:24:28Z</time>
      </trkpt>
      <trkpt lat="49.15809" lon="4.05537">
        <ele>178.8</ele>
        <time>2026-08-20T13:24:34Z</time>
      </trkpt>
      <trkpt lat="49.15812" lon="4.05531">
        <ele>179.1</ele>
        <time>2026-08-20T13:24:39Z</time>
      </trkpt>
      <trkpt lat="49.15815" lon="4.05522">
        <ele>179.8</ele>
        <time>2026-08-20T13:24:44Z</time>
      </trkpt>
      <trkpt lat="49.15818" lon="4.05514">
        <ele>180.2</ele>
        <time>2026-08-20T13:24:50Z</time>
      </trkpt>
      <trkpt lat="49.15821" lon="4.05507">
        <ele>180.6</ele>
        <time>2026-08-20T13:24:55Z</time>
      </trkpt>
      <trkpt lat="49.15823" lon="4.05499">
        <ele>181.1</ele>
        <time>2026-08-20T13:25:00Z</time>
      </trkpt>
      <trkpt lat="49.15828" lon="4.0549">
        <ele>181.2</ele>
        <time>2026-08-20T13:25:06Z</time>
      </trkpt>
      <trkpt lat="49.15828" lon="4.05489">
        <ele>181.2</ele>
        <time>2026-08-20T13:25:11Z</time>
      </trkpt>
      <trkpt lat="49.15829" lon="4.05486">
        <ele>181.3</ele>
        <time>2026-08-20T13:25:16Z</time>
      </trkpt>
      <trkpt lat="49.15831" lon="4.05484">
        <ele>181.2</ele>
        <time>2026-08-20T13:25:22Z</time>
      </trkpt>
      <trkpt lat="49.15831" lon="4.05484">
        <ele>181.2</ele>
        <time>2026-08-20T13:25:27Z</time>
      </trkpt>
      <trkpt lat="49.15832" lon="4.05482">
        <ele>181.2</ele>
        <time>2026-08-20T13:25:32Z</time>
      </trkpt>
      <trkpt lat="49.15835" lon="4.05473">
        <ele>181.3</ele>
        <time>2026-08-20T13:25:38Z</time>
      </trkpt>
      <trkpt lat="49.15836" lon="4.05466">
        <ele>181.5</ele>
        <time>2026-08-20T13:25:43Z</time>
      </trkpt>
      <trkpt lat="49.15839" lon="4.05459">
        <ele>181.3</ele>
        <time>2026-08-20T13:25:48Z</time>
      </trkpt>
      <trkpt lat="49.15842" lon="4.05449">
        <ele>181.3</ele>
        <time>2026-08-20T13:25:54Z</time>
      </trkpt>
      <trkpt lat="49.15845" lon="4.05441">
        <ele>181.1</ele>
        <time>2026-08-20T13:25:59Z</time>
      </trkpt>
      <trkpt lat="49.15848" lon="4.05433">
        <ele>181</ele>
        <time>2026-08-20T13:26:04Z</time>
      </trkpt>
      <trkpt lat="49.15851" lon="4.05425">
        <ele>180.7</ele>
        <time>2026-08-20T13:26:10Z</time>
      </trkpt>
      <trkpt lat="49.15854" lon="4.05417">
        <ele>180.5</ele>
        <time>2026-08-20T13:26:15Z</time>
      </trkpt>
      <trkpt lat="49.15858" lon="4.05411">
        <ele>180.1</ele>
        <time>2026-08-20T13:26:20Z</time>
      </trkpt>
      <trkpt lat="49.15862" lon="4.05404">
        <ele>179.8</ele>
        <time>2026-08-20T13:26:26Z</time>
      </trkpt>
      <trkpt lat="49.15863" lon="4.05403">
        <ele>179.7</ele>
        <time>2026-08-20T13:26:31Z</time>
      </trkpt>
      <trkpt lat="49.15863" lon="4.05404">
        <ele>179.6</ele>
        <time>2026-08-20T13:26:36Z</time>
      </trkpt>
      <trkpt lat="49.15863" lon="4.05404">
        <ele>179.6</ele>
        <time>2026-08-20T13:26:42Z</time>
      </trkpt>
      <trkpt lat="49.15864" lon="4.05401">
        <ele>179.6</ele>
        <time>2026-08-20T13:26:47Z</time>
      </trkpt>
      <trkpt lat="49.15867" lon="4.05395">
        <ele>179.5</ele>
        <time>2026-08-20T13:26:52Z</time>
      </trkpt>
      <trkpt lat="49.15871" lon="4.05388">
        <ele>179.2</ele>
        <time>2026-08-20T13:26:58Z</time>
      </trkpt>
      <trkpt lat="49.15873" lon="4.05382">
        <ele>179.3</ele>
        <time>2026-08-20T13:27:03Z</time>
      </trkpt>
      <trkpt lat="49.15875" lon="4.05379">
        <ele>179.2</ele>
        <time>2026-08-20T13:27:08Z</time>
      </trkpt>
      <trkpt lat="49.15879" lon="4.05375">
        <ele>178.7</ele>
        <time>2026-08-20T13:27:14Z</time>
      </trkpt>
      <trkpt lat="49.1588" lon="4.05374">
        <ele>178.6</ele>
        <time>2026-08-20T13:27:19Z</time>
      </trkpt>
      <trkpt lat="49.1588" lon="4.05374">
        <ele>178.6</ele>
        <time>2026-08-20T13:27:24Z</time>
      </trkpt>
      <trkpt lat="49.1588" lon="4.05374">
        <ele>178.6</ele>
        <time>2026-08-20T13:27:30Z</time>
      </trkpt>
      <trkpt lat="49.1588" lon="4.05374">
        <ele>178.6</ele>
        <time>2026-08-20T13:27:35Z</time>
      </trkpt>
      <trkpt lat="49.1588" lon="4.05374">
        <ele>178.6</ele>
        <time>2026-08-20T13:27:40Z</time>
      </trkpt>
      <trkpt lat="49.15882" lon="4.05367">
        <ele>178.8</ele>
        <time>2026-08-20T13:27:46Z</time>
      </trkpt>
      <trkpt lat="49.15886" lon="4.05362">
        <ele>178.4</ele>
        <time>2026-08-20T13:27:51Z</time>
      </trkpt>
      <trkpt lat="49.15889" lon="4.05356">
        <ele>178.3</ele>
        <time>2026-08-20T13:27:56Z</time>
      </trkpt>
      <trkpt lat="49.15892" lon="4.05352">
        <ele>178.1</ele>
        <time>2026-08-20T13:28:02Z</time>
      </trkpt>
      <trkpt lat="49.15897" lon="4.05347">
        <ele>177.5</ele>
        <time>2026-08-20T13:28:07Z</time>
      </trkpt>
      <trkpt lat="49.15899" lon="4.05342">
        <ele>177.6</ele>
        <time>2026-08-20T13:28:12Z</time>
      </trkpt>
      <trkpt lat="49.15904" lon="4.05336">
        <ele>177.2</ele>
        <time>2026-08-20T13:28:18Z</time>
      </trkpt>
      <trkpt lat="49.15908" lon="4.0533">
        <ele>177</ele>
        <time>2026-08-20T13:28:23Z</time>
      </trkpt>
      <trkpt lat="49.15913" lon="4.05325">
        <ele>176.7</ele>
        <time>2026-08-20T13:28:28Z</time>
      </trkpt>
      <trkpt lat="49.15916" lon="4.05322">
        <ele>176.5</ele>
        <time>2026-08-20T13:28:34Z</time>
      </trkpt>
      <trkpt lat="49.15922" lon="4.05317">
        <ele>176.4</ele>
        <time>2026-08-20T13:28:39Z</time>
      </trkpt>
      <trkpt lat="49.15926" lon="4.05312">
        <ele>176.6</ele>
        <time>2026-08-20T13:28:44Z</time>
      </trkpt>
      <trkpt lat="49.15933" lon="4.05305">
        <ele>176.8</ele>
        <time>2026-08-20T13:28:50Z</time>
      </trkpt>
      <trkpt lat="49.15938" lon="4.053">
        <ele>176.8</ele>
        <time>2026-08-20T13:28:55Z</time>
      </trkpt>
      <trkpt lat="49.15942" lon="4.05295">
        <ele>177</ele>
        <time>2026-08-20T13:29:00Z</time>
      </trkpt>
      <trkpt lat="49.15947" lon="4.05288">
        <ele>177.3</ele>
        <time>2026-08-20T13:29:06Z</time>
      </trkpt>
      <trkpt lat="49.15952" lon="4.05282">
        <ele>177.5</ele>
        <time>2026-08-20T13:29:11Z</time>
      </trkpt>
      <trkpt lat="49.15955" lon="4.05277">
        <ele>177.8</ele>
        <time>2026-08-20T13:29:16Z</time>
      </trkpt>
      <trkpt lat="49.1596" lon="4.0527">
        <ele>178</ele>
        <time>2026-08-20T13:29:22Z</time>
      </trkpt>
      <trkpt lat="49.15964" lon="4.05266">
        <ele>178.1</ele>
        <time>2026-08-20T13:29:27Z</time>
      </trkpt>
      <trkpt lat="49.15968" lon="4.05264">
        <ele>177.9</ele>
        <time>2026-08-20T13:29:32Z</time>
      </trkpt>
      <trkpt lat="49.15968" lon="4.05264">
        <ele>177.9</ele>
        <time>2026-08-20T13:29:38Z</time>
      </trkpt>
      <trkpt lat="49.1597" lon="4.05263">
        <ele>177.8</ele>
        <time>2026-08-20T13:29:43Z</time>
      </trkpt>
      <trkpt lat="49.15975" lon="4.05262">
        <ele>177.4</ele>
        <time>2026-08-20T13:29:48Z</time>
      </trkpt>
      <trkpt lat="49.15981" lon="4.05261">
        <ele>176.8</ele>
        <time>2026-08-20T13:29:54Z</time>
      </trkpt>
      <trkpt lat="49.15987" lon="4.0526">
        <ele>176.3</ele>
        <time>2026-08-20T13:29:59Z</time>
      </trkpt>
      <trkpt lat="49.15992" lon="4.05258">
        <ele>176</ele>
        <time>2026-08-20T13:30:04Z</time>
      </trkpt>
      <trkpt lat="49.15996" lon="4.05254">
        <ele>176</ele>
        <time>2026-08-20T13:30:10Z</time>
      </trkpt>
      <trkpt lat="49.15997" lon="4.0525">
        <ele>176.3</ele>
        <time>2026-08-20T13:30:15Z</time>
      </trkpt>
      <trkpt lat="49.15996" lon="4.05243">
        <ele>177.3</ele>
        <time>2026-08-20T13:30:20Z</time>
      </trkpt>
      <trkpt lat="49.15994" lon="4.05237">
        <ele>178.2</ele>
        <time>2026-08-20T13:30:26Z</time>
      </trkpt>
      <trkpt lat="49.15994" lon="4.05236">
        <ele>178.3</ele>
        <time>2026-08-20T13:30:31Z</time>
      </trkpt>
      <trkpt lat="49.15993" lon="4.05233">
        <ele>178.8</ele>
        <time>2026-08-20T13:30:36Z</time>
      </trkpt>
      <trkpt lat="49.15993" lon="4.05233">
        <ele>178.8</ele>
        <time>2026-08-20T13:30:42Z</time>
      </trkpt>
      <trkpt lat="49.15993" lon="4.05233">
        <ele>178.8</ele>
        <time>2026-08-20T13:30:47Z</time>
      </trkpt>
      <trkpt lat="49.15993" lon="4.05233">
        <ele>178.8</ele>
        <time>2026-08-20T13:30:52Z</time>
      </trkpt>
      <trkpt lat="49.15991" lon="4.05232">
        <ele>179.2</ele>
        <time>2026-08-20T13:30:58Z</time>
      </trkpt>
      <trkpt lat="49.15991" lon="4.05227">
        <ele>179.8</ele>
        <time>2026-08-20T13:31:03Z</time>
      </trkpt>
      <trkpt lat="49.1599" lon="4.05223">
        <ele>180.4</ele>
        <time>2026-08-20T13:31:08Z</time>
      </trkpt>
      <trkpt lat="49.15988" lon="4.05215">
        <ele>181.6</ele>
        <time>2026-08-20T13:31:14Z</time>
      </trkpt>
      <trkpt lat="49.15986" lon="4.0521">
        <ele>182.4</ele>
        <time>2026-08-20T13:31:19Z</time>
      </trkpt>
      <trkpt lat="49.15985" lon="4.0521">
        <ele>182.5</ele>
        <time>2026-08-20T13:31:24Z</time>
      </trkpt>
      <trkpt lat="49.15984" lon="4.0521">
        <ele>182.6</ele>
        <time>2026-08-20T13:31:30Z</time>
      </trkpt>
      <trkpt lat="49.15984" lon="4.0521">
        <ele>182.6</ele>
        <time>2026-08-20T13:31:35Z</time>
      </trkpt>
      <trkpt lat="49.15984" lon="4.0521">
        <ele>182.6</ele>
        <time>2026-08-20T13:31:40Z</time>
      </trkpt>
      <trkpt lat="49.15984" lon="4.0521">
        <ele>182.6</ele>
        <time>2026-08-20T13:31:46Z</time>
      </trkpt>
      <trkpt lat="49.15984" lon="4.0521">
        <ele>182.6</ele>
        <time>2026-08-20T13:31:51Z</time>
      </trkpt>
      <trkpt lat="49.15984" lon="4.0521">
        <ele>182.6</ele>
        <time>2026-08-20T13:31:56Z</time>
      </trkpt>
      <trkpt lat="49.15984" lon="4.0521">
        <ele>182.6</ele>
        <time>2026-08-20T13:32:02Z</time>
      </trkpt>
      <trkpt lat="49.15984" lon="4.0521">
        <ele>182.6</ele>
        <time>2026-08-20T13:32:07Z</time>
      </trkpt>
      <trkpt lat="49.15984" lon="4.0521">
        <ele>182.6</ele>
        <time>2026-08-20T13:32:12Z</time>
      </trkpt>
      <trkpt lat="49.15984" lon="4.0521">
        <ele>182.6</ele>
        <time>2026-08-20T13:32:18Z</time>
      </trkpt>
      <trkpt lat="49.15984" lon="4.0521">
        <ele>182.6</ele>
        <time>2026-08-20T13:32:23Z</time>
      </trkpt>
      <trkpt lat="49.15984" lon="4.0521">
        <ele>182.6</ele>
        <time>2026-08-20T13:32:28Z</time>
      </trkpt>
      <trkpt lat="49.15984" lon="4.0521">
        <ele>182.6</ele>
        <time>2026-08-20T13:32:34Z</time>
      </trkpt>
      <trkpt lat="49.15984" lon="4.0521">
        <ele>182.6</ele>
        <time>2026-08-20T13:32:39Z</time>
      </trkpt>
      <trkpt lat="49.15984" lon="4.0521">
        <ele>182.6</ele>
        <time>2026-08-20T13:32:44Z</time>
      </trkpt>
      <trkpt lat="49.15984" lon="4.0521">
        <ele>182.6</ele>
        <time>2026-08-20T13:32:50Z</time>
      </trkpt>
      <trkpt lat="49.15984" lon="4.0521">
        <ele>182.6</ele>
        <time>2026-08-20T13:32:55Z</time>
      </trkpt>
      <trkpt lat="49.15984" lon="4.0521">
        <ele>182.6</ele>
        <time>2026-08-20T13:33:00Z</time>
      </trkpt>
      <trkpt lat="49.15984" lon="4.0521">
        <ele>182.6</ele>
        <time>2026-08-20T13:33:06Z</time>
      </trkpt>
      <trkpt lat="49.15984" lon="4.0521">
        <ele>182.6</ele>
        <time>2026-08-20T13:33:11Z</time>
      </trkpt>
      <trkpt lat="49.15984" lon="4.0521">
        <ele>182.6</ele>
        <time>2026-08-20T13:33:16Z</time>
      </trkpt>
      <trkpt lat="49.15986" lon="4.0521">
        <ele>182.4</ele>
        <time>2026-08-20T13:33:22Z</time>
      </trkpt>
      <trkpt lat="49.15986" lon="4.05206">
        <ele>182.9</ele>
        <time>2026-08-20T13:33:27Z</time>
      </trkpt>
      <trkpt lat="49.15986" lon="4.05204">
        <ele>183.1</ele>
        <time>2026-08-20T13:33:32Z</time>
      </trkpt>
      <trkpt lat="49.15985" lon="4.052">
        <ele>183.7</ele>
        <time>2026-08-20T13:33:38Z</time>
      </trkpt>
      <trkpt lat="49.15983" lon="4.05197">
        <ele>184.3</ele>
        <time>2026-08-20T13:33:43Z</time>
      </trkpt>
      <trkpt lat="49.15983" lon="4.05197">
        <ele>184.3</ele>
        <time>2026-08-20T13:33:48Z</time>
      </trkpt>
      <trkpt lat="49.15983" lon="4.05192">
        <ele>184.9</ele>
        <time>2026-08-20T13:33:54Z</time>
      </trkpt>
      <trkpt lat="49.15981" lon="4.05189">
        <ele>185.5</ele>
        <time>2026-08-20T13:33:59Z</time>
      </trkpt>
      <trkpt lat="49.15979" lon="4.05183">
        <ele>186.5</ele>
        <time>2026-08-20T13:34:04Z</time>
      </trkpt>
      <trkpt lat="49.15976" lon="4.05176">
        <ele>187.7</ele>
        <time>2026-08-20T13:34:10Z</time>
      </trkpt>
      <trkpt lat="49.15974" lon="4.05171">
        <ele>188.6</ele>
        <time>2026-08-20T13:34:15Z</time>
      </trkpt>
      <trkpt lat="49.15971" lon="4.05167">
        <ele>189.4</ele>
        <time>2026-08-20T13:34:20Z</time>
      </trkpt>
      <trkpt lat="49.15969" lon="4.05161">
        <ele>190.2</ele>
        <time>2026-08-20T13:34:26Z</time>
      </trkpt>
      <trkpt lat="49.15967" lon="4.05155">
        <ele>191.1</ele>
        <time>2026-08-20T13:34:31Z</time>
      </trkpt>
      <trkpt lat="49.15966" lon="4.05151">
        <ele>191.5</ele>
        <time>2026-08-20T13:34:36Z</time>
      </trkpt>
      <trkpt lat="49.15966" lon="4.05148">
        <ele>191.8</ele>
        <time>2026-08-20T13:34:42Z</time>
      </trkpt>
      <trkpt lat="49.15963" lon="4.05143">
        <ele>192.7</ele>
        <time>2026-08-20T13:34:47Z</time>
      </trkpt>
      <trkpt lat="49.1596" lon="4.05137">
        <ele>193.6</ele>
        <time>2026-08-20T13:34:52Z</time>
      </trkpt>
      <trkpt lat="49.15958" lon="4.0513">
        <ele>194.6</ele>
        <time>2026-08-20T13:34:58Z</time>
      </trkpt>
      <trkpt lat="49.15955" lon="4.05125">
        <ele>195.4</ele>
        <time>2026-08-20T13:35:03Z</time>
      </trkpt>
      <trkpt lat="49.15952" lon="4.05121">
        <ele>196.2</ele>
        <time>2026-08-20T13:35:08Z</time>
      </trkpt>
      <trkpt lat="49.15949" lon="4.05116">
        <ele>197.1</ele>
        <time>2026-08-20T13:35:14Z</time>
      </trkpt>
      <trkpt lat="49.15949" lon="4.05115">
        <ele>197.2</ele>
        <time>2026-08-20T13:35:19Z</time>
      </trkpt>
      <trkpt lat="49.15948" lon="4.05111">
        <ele>197.7</ele>
        <time>2026-08-20T13:35:24Z</time>
      </trkpt>
      <trkpt lat="49.15946" lon="4.05105">
        <ele>198.6</ele>
        <time>2026-08-20T13:35:30Z</time>
      </trkpt>
      <trkpt lat="49.15944" lon="4.05101">
        <ele>199.3</ele>
        <time>2026-08-20T13:35:35Z</time>
      </trkpt>
      <trkpt lat="49.15943" lon="4.05099">
        <ele>199.6</ele>
        <time>2026-08-20T13:35:40Z</time>
      </trkpt>
      <trkpt lat="49.15943" lon="4.05098">
        <ele>199.7</ele>
        <time>2026-08-20T13:35:46Z</time>
      </trkpt>
      <trkpt lat="49.15943" lon="4.05098">
        <ele>199.7</ele>
        <time>2026-08-20T13:35:51Z</time>
      </trkpt>
      <trkpt lat="49.15943" lon="4.05098">
        <ele>199.7</ele>
        <time>2026-08-20T13:35:56Z</time>
      </trkpt>
      <trkpt lat="49.15943" lon="4.05098">
        <ele>199.7</ele>
        <time>2026-08-20T13:36:02Z</time>
      </trkpt>
      <trkpt lat="49.15943" lon="4.05098">
        <ele>199.7</ele>
        <time>2026-08-20T13:36:07Z</time>
      </trkpt>
      <trkpt lat="49.15939" lon="4.05091">
        <ele>201</ele>
        <time>2026-08-20T13:36:12Z</time>
      </trkpt>
      <trkpt lat="49.15943" lon="4.05087">
        <ele>200.8</ele>
        <time>2026-08-20T13:36:18Z</time>
      </trkpt>
      <trkpt lat="49.15946" lon="4.05084">
        <ele>200.7</ele>
        <time>2026-08-20T13:36:23Z</time>
      </trkpt>
      <trkpt lat="49.15948" lon="4.05081">
        <ele>200.6</ele>
        <time>2026-08-20T13:36:28Z</time>
      </trkpt>
      <trkpt lat="49.15952" lon="4.05077">
        <ele>200.3</ele>
        <time>2026-08-20T13:36:34Z</time>
      </trkpt>
      <trkpt lat="49.15954" lon="4.05074">
        <ele>200.2</ele>
        <time>2026-08-20T13:36:39Z</time>
      </trkpt>
      <trkpt lat="49.15955" lon="4.05071">
        <ele>200.2</ele>
        <time>2026-08-20T13:36:44Z</time>
      </trkpt>
      <trkpt lat="49.15956" lon="4.05069">
        <ele>200.2</ele>
        <time>2026-08-20T13:36:50Z</time>
      </trkpt>
      <trkpt lat="49.15956" lon="4.05064">
        <ele>200.5</ele>
        <time>2026-08-20T13:36:55Z</time>
      </trkpt>
      <trkpt lat="49.15958" lon="4.05061">
        <ele>200.4</ele>
        <time>2026-08-20T13:37:00Z</time>
      </trkpt>
      <trkpt lat="49.1596" lon="4.05055">
        <ele>200.5</ele>
        <time>2026-08-20T13:37:06Z</time>
      </trkpt>
      <trkpt lat="49.15963" lon="4.05051">
        <ele>200.3</ele>
        <time>2026-08-20T13:37:11Z</time>
      </trkpt>
      <trkpt lat="49.15964" lon="4.05049">
        <ele>200.3</ele>
        <time>2026-08-20T13:37:16Z</time>
      </trkpt>
      <trkpt lat="49.15966" lon="4.05044">
        <ele>200.3</ele>
        <time>2026-08-20T13:37:22Z</time>
      </trkpt>
      <trkpt lat="49.15969" lon="4.05042">
        <ele>200.1</ele>
        <time>2026-08-20T13:37:27Z</time>
      </trkpt>
      <trkpt lat="49.15968" lon="4.05038">
        <ele>200.5</ele>
        <time>2026-08-20T13:37:32Z</time>
      </trkpt>
      <trkpt lat="49.15968" lon="4.05038">
        <ele>200.5</ele>
        <time>2026-08-20T13:37:38Z</time>
      </trkpt>
      <trkpt lat="49.15968" lon="4.05038">
        <ele>200.5</ele>
        <time>2026-08-20T13:37:43Z</time>
      </trkpt>
      <trkpt lat="49.15968" lon="4.05038">
        <ele>200.5</ele>
        <time>2026-08-20T13:37:48Z</time>
      </trkpt>
      <trkpt lat="49.15968" lon="4.05038">
        <ele>200.5</ele>
        <time>2026-08-20T13:37:54Z</time>
      </trkpt>
      <trkpt lat="49.15971" lon="4.05035">
        <ele>200.3</ele>
        <time>2026-08-20T13:37:59Z</time>
      </trkpt>
      <trkpt lat="49.15971" lon="4.05036">
        <ele>200.2</ele>
        <time>2026-08-20T13:38:04Z</time>
      </trkpt>
      <trkpt lat="49.15971" lon="4.05036">
        <ele>200.2</ele>
        <time>2026-08-20T13:38:10Z</time>
      </trkpt>
      <trkpt lat="49.15971" lon="4.05036">
        <ele>200.2</ele>
        <time>2026-08-20T13:38:15Z</time>
      </trkpt>
      <trkpt lat="49.15971" lon="4.05036">
        <ele>200.2</ele>
        <time>2026-08-20T13:38:20Z</time>
      </trkpt>
      <trkpt lat="49.15971" lon="4.05036">
        <ele>200.2</ele>
        <time>2026-08-20T13:38:26Z</time>
      </trkpt>
      <trkpt lat="49.15971" lon="4.05036">
        <ele>200.2</ele>
        <time>2026-08-20T13:38:31Z</time>
      </trkpt>
      <trkpt lat="49.15971" lon="4.05036">
        <ele>200.2</ele>
        <time>2026-08-20T13:38:36Z</time>
      </trkpt>
      <trkpt lat="49.15974" lon="4.05035">
        <ele>199.9</ele>
        <time>2026-08-20T13:38:42Z</time>
      </trkpt>
      <trkpt lat="49.15975" lon="4.05034">
        <ele>199.8</ele>
        <time>2026-08-20T13:38:47Z</time>
      </trkpt>
      <trkpt lat="49.15975" lon="4.05034">
        <ele>199.8</ele>
        <time>2026-08-20T13:38:52Z</time>
      </trkpt>
      <trkpt lat="49.15976" lon="4.0503">
        <ele>199.9</ele>
        <time>2026-08-20T13:38:58Z</time>
      </trkpt>
      <trkpt lat="49.15978" lon="4.05025">
        <ele>200</ele>
        <time>2026-08-20T13:39:03Z</time>
      </trkpt>
      <trkpt lat="49.1598" lon="4.05024">
        <ele>199.8</ele>
        <time>2026-08-20T13:39:08Z</time>
      </trkpt>
      <trkpt lat="49.15983" lon="4.0502">
        <ele>199.7</ele>
        <time>2026-08-20T13:39:14Z</time>
      </trkpt>
      <trkpt lat="49.15985" lon="4.05018">
        <ele>199.6</ele>
        <time>2026-08-20T13:39:19Z</time>
      </trkpt>
      <trkpt lat="49.15986" lon="4.05014">
        <ele>199.7</ele>
        <time>2026-08-20T13:39:24Z</time>
      </trkpt>
      <trkpt lat="49.15987" lon="4.05008">
        <ele>200</ele>
        <time>2026-08-20T13:39:30Z</time>
      </trkpt>
      <trkpt lat="49.1599" lon="4.05002">
        <ele>200.1</ele>
        <time>2026-08-20T13:39:35Z</time>
      </trkpt>
      <trkpt lat="49.15994" lon="4.04996">
        <ele>200</ele>
        <time>2026-08-20T13:39:40Z</time>
      </trkpt>
      <trkpt lat="49.15999" lon="4.0499">
        <ele>200</ele>
        <time>2026-08-20T13:39:46Z</time>
      </trkpt>
      <trkpt lat="49.16" lon="4.04986">
        <ele>200.2</ele>
        <time>2026-08-20T13:39:51Z</time>
      </trkpt>
      <trkpt lat="49.16004" lon="4.04981">
        <ele>200.5</ele>
        <time>2026-08-20T13:39:56Z</time>
      </trkpt>
      <trkpt lat="49.16006" lon="4.04973">
        <ele>201.1</ele>
        <time>2026-08-20T13:40:02Z</time>
      </trkpt>
      <trkpt lat="49.16008" lon="4.04969">
        <ele>201.3</ele>
        <time>2026-08-20T13:40:07Z</time>
      </trkpt>
      <trkpt lat="49.16009" lon="4.04964">
        <ele>201.7</ele>
        <time>2026-08-20T13:40:12Z</time>
      </trkpt>
      <trkpt lat="49.1601" lon="4.0496">
        <ele>202</ele>
        <time>2026-08-20T13:40:18Z</time>
      </trkpt>
      <trkpt lat="49.16013" lon="4.04954">
        <ele>202.4</ele>
        <time>2026-08-20T13:40:23Z</time>
      </trkpt>
      <trkpt lat="49.16016" lon="4.0495">
        <ele>202.6</ele>
        <time>2026-08-20T13:40:28Z</time>
      </trkpt>
      <trkpt lat="49.1602" lon="4.04947">
        <ele>202.7</ele>
        <time>2026-08-20T13:40:34Z</time>
      </trkpt>
      <trkpt lat="49.16025" lon="4.04942">
        <ele>203</ele>
        <time>2026-08-20T13:40:39Z</time>
      </trkpt>
      <trkpt lat="49.16029" lon="4.04936">
        <ele>203.3</ele>
        <time>2026-08-20T13:40:44Z</time>
      </trkpt>
      <trkpt lat="49.16033" lon="4.04928">
        <ele>203.9</ele>
        <time>2026-08-20T13:40:50Z</time>
      </trkpt>
      <trkpt lat="49.16037" lon="4.0492">
        <ele>204.4</ele>
        <time>2026-08-20T13:40:55Z</time>
      </trkpt>
      <trkpt lat="49.16039" lon="4.04914">
        <ele>204.8</ele>
        <time>2026-08-20T13:41:00Z</time>
      </trkpt>
      <trkpt lat="49.16045" lon="4.04907">
        <ele>205</ele>
        <time>2026-08-20T13:41:06Z</time>
      </trkpt>
      <trkpt lat="49.16048" lon="4.04906">
        <ele>205</ele>
        <time>2026-08-20T13:41:11Z</time>
      </trkpt>
      <trkpt lat="49.16054" lon="4.04905">
        <ele>204.8</ele>
        <time>2026-08-20T13:41:16Z</time>
      </trkpt>
      <trkpt lat="49.1606" lon="4.04901">
        <ele>204.8</ele>
        <time>2026-08-20T13:41:22Z</time>
      </trkpt>
      <trkpt lat="49.16064" lon="4.04896">
        <ele>205</ele>
        <time>2026-08-20T13:41:27Z</time>
      </trkpt>
      <trkpt lat="49.16067" lon="4.0489">
        <ele>205.3</ele>
        <time>2026-08-20T13:41:32Z</time>
      </trkpt>
      <trkpt lat="49.16072" lon="4.0488">
        <ele>205.7</ele>
        <time>2026-08-20T13:41:38Z</time>
      </trkpt>
      <trkpt lat="49.16075" lon="4.04875">
        <ele>205.8</ele>
        <time>2026-08-20T13:41:43Z</time>
      </trkpt>
      <trkpt lat="49.16074" lon="4.04867">
        <ele>206.4</ele>
        <time>2026-08-20T13:41:48Z</time>
      </trkpt>
      <trkpt lat="49.16075" lon="4.04856">
        <ele>207</ele>
        <time>2026-08-20T13:41:54Z</time>
      </trkpt>
      <trkpt lat="49.16075" lon="4.04847">
        <ele>207.6</ele>
        <time>2026-08-20T13:41:59Z</time>
      </trkpt>
      <trkpt lat="49.16075" lon="4.04838">
        <ele>208.1</ele>
        <time>2026-08-20T13:42:04Z</time>
      </trkpt>
      <trkpt lat="49.16076" lon="4.04828">
        <ele>208.7</ele>
        <time>2026-08-20T13:42:10Z</time>
      </trkpt>
      <trkpt lat="49.16078" lon="4.0482">
        <ele>209</ele>
        <time>2026-08-20T13:42:15Z</time>
      </trkpt>
      <trkpt lat="49.16077" lon="4.04815">
        <ele>209.4</ele>
        <time>2026-08-20T13:42:20Z</time>
      </trkpt>
      <trkpt lat="49.16077" lon="4.04809">
        <ele>209.7</ele>
        <time>2026-08-20T13:42:26Z</time>
      </trkpt>
      <trkpt lat="49.16078" lon="4.048">
        <ele>210.2</ele>
        <time>2026-08-20T13:42:31Z</time>
      </trkpt>
      <trkpt lat="49.16077" lon="4.04796">
        <ele>210.5</ele>
        <time>2026-08-20T13:42:36Z</time>
      </trkpt>
      <trkpt lat="49.16077" lon="4.04796">
        <ele>210.5</ele>
        <time>2026-08-20T13:42:42Z</time>
      </trkpt>
      <trkpt lat="49.16077" lon="4.04796">
        <ele>210.5</ele>
        <time>2026-08-20T13:42:47Z</time>
      </trkpt>
      <trkpt lat="49.16077" lon="4.04796">
        <ele>210.5</ele>
        <time>2026-08-20T13:42:52Z</time>
      </trkpt>
      <trkpt lat="49.16077" lon="4.04796">
        <ele>210.5</ele>
        <time>2026-08-20T13:42:58Z</time>
      </trkpt>
      <trkpt lat="49.16077" lon="4.04796">
        <ele>210.5</ele>
        <time>2026-08-20T13:43:03Z</time>
      </trkpt>
      <trkpt lat="49.16077" lon="4.04796">
        <ele>210.5</ele>
        <time>2026-08-20T13:43:08Z</time>
      </trkpt>
      <trkpt lat="49.16077" lon="4.04796">
        <ele>210.5</ele>
        <time>2026-08-20T13:43:14Z</time>
      </trkpt>
      <trkpt lat="49.16077" lon="4.04796">
        <ele>210.5</ele>
        <time>2026-08-20T13:43:19Z</time>
      </trkpt>
      <trkpt lat="49.16077" lon="4.04796">
        <ele>210.5</ele>
        <time>2026-08-20T13:43:24Z</time>
      </trkpt>
      <trkpt lat="49.16077" lon="4.04796">
        <ele>210.5</ele>
        <time>2026-08-20T13:43:30Z</time>
      </trkpt>
      <trkpt lat="49.16077" lon="4.04796">
        <ele>210.5</ele>
        <time>2026-08-20T13:43:35Z</time>
      </trkpt>
      <trkpt lat="49.16077" lon="4.04796">
        <ele>210.5</ele>
        <time>2026-08-20T13:43:40Z</time>
      </trkpt>
      <trkpt lat="49.1608" lon="4.04798">
        <ele>210.3</ele>
        <time>2026-08-20T13:43:46Z</time>
      </trkpt>
      <trkpt lat="49.1608" lon="4.04806">
        <ele>209.8</ele>
        <time>2026-08-20T13:43:51Z</time>
      </trkpt>
      <trkpt lat="49.16078" lon="4.04815">
        <ele>209.3</ele>
        <time>2026-08-20T13:43:56Z</time>
      </trkpt>
      <trkpt lat="49.16076" lon="4.04826">
        <ele>208.8</ele>
        <time>2026-08-20T13:44:02Z</time>
      </trkpt>
      <trkpt lat="49.16076" lon="4.04835">
        <ele>208.3</ele>
        <time>2026-08-20T13:44:07Z</time>
      </trkpt>
      <trkpt lat="49.16076" lon="4.04837">
        <ele>208.1</ele>
        <time>2026-08-20T13:44:12Z</time>
      </trkpt>
      <trkpt lat="49.16074" lon="4.04841">
        <ele>208</ele>
        <time>2026-08-20T13:44:18Z</time>
      </trkpt>
      <trkpt lat="49.16072" lon="4.04848">
        <ele>207.6</ele>
        <time>2026-08-20T13:44:23Z</time>
      </trkpt>
      <trkpt lat="49.16072" lon="4.04856">
        <ele>207.1</ele>
        <time>2026-08-20T13:44:28Z</time>
      </trkpt>
      <trkpt lat="49.16075" lon="4.04866">
        <ele>206.4</ele>
        <time>2026-08-20T13:44:34Z</time>
      </trkpt>
      <trkpt lat="49.16073" lon="4.04874">
        <ele>206</ele>
        <time>2026-08-20T13:44:39Z</time>
      </trkpt>
      <trkpt lat="49.16069" lon="4.04882">
        <ele>205.7</ele>
        <time>2026-08-20T13:44:44Z</time>
      </trkpt>
      <trkpt lat="49.16063" lon="4.04888">
        <ele>205.5</ele>
        <time>2026-08-20T13:44:50Z</time>
      </trkpt>
      <trkpt lat="49.16058" lon="4.04895">
        <ele>205.3</ele>
        <time>2026-08-20T13:44:55Z</time>
      </trkpt>
      <trkpt lat="49.16054" lon="4.04899">
        <ele>205.2</ele>
        <time>2026-08-20T13:45:00Z</time>
      </trkpt>
      <trkpt lat="49.16052" lon="4.04898">
        <ele>205.3</ele>
        <time>2026-08-20T13:45:06Z</time>
      </trkpt>
      <trkpt lat="49.1605" lon="4.04896">
        <ele>205.5</ele>
        <time>2026-08-20T13:45:11Z</time>
      </trkpt>
      <trkpt lat="49.16047" lon="4.04895">
        <ele>205.7</ele>
        <time>2026-08-20T13:45:16Z</time>
      </trkpt>
      <trkpt lat="49.16045" lon="4.04892">
        <ele>206</ele>
        <time>2026-08-20T13:45:22Z</time>
      </trkpt>
      <trkpt lat="49.16048" lon="4.04884">
        <ele>206.4</ele>
        <time>2026-08-20T13:45:27Z</time>
      </trkpt>
      <trkpt lat="49.16051" lon="4.04878">
        <ele>206.7</ele>
        <time>2026-08-20T13:45:32Z</time>
      </trkpt>
      <trkpt lat="49.16054" lon="4.04867">
        <ele>207.2</ele>
        <time>2026-08-20T13:45:38Z</time>
      </trkpt>
      <trkpt lat="49.16055" lon="4.04859">
        <ele>207.7</ele>
        <time>2026-08-20T13:45:43Z</time>
      </trkpt>
      <trkpt lat="49.16056" lon="4.0485">
        <ele>208.2</ele>
        <time>2026-08-20T13:45:48Z</time>
      </trkpt>
      <trkpt lat="49.16056" lon="4.0484">
        <ele>208.9</ele>
        <time>2026-08-20T13:45:54Z</time>
      </trkpt>
      <trkpt lat="49.16056" lon="4.04833">
        <ele>209.3</ele>
        <time>2026-08-20T13:45:59Z</time>
      </trkpt>
      <trkpt lat="49.16057" lon="4.04825">
        <ele>209.7</ele>
        <time>2026-08-20T13:46:04Z</time>
      </trkpt>
      <trkpt lat="49.16057" lon="4.04814">
        <ele>210.4</ele>
        <time>2026-08-20T13:46:10Z</time>
      </trkpt>
      <trkpt lat="49.16058" lon="4.04808">
        <ele>210.6</ele>
        <time>2026-08-20T13:46:15Z</time>
      </trkpt>
      <trkpt lat="49.16058" lon="4.04803">
        <ele>210.9</ele>
        <time>2026-08-20T13:46:20Z</time>
      </trkpt>
      <trkpt lat="49.16057" lon="4.04802">
        <ele>211</ele>
        <time>2026-08-20T13:46:26Z</time>
      </trkpt>
      <trkpt lat="49.16057" lon="4.04802">
        <ele>211</ele>
        <time>2026-08-20T13:46:31Z</time>
      </trkpt>
      <trkpt lat="49.16057" lon="4.04799">
        <ele>211.2</ele>
        <time>2026-08-20T13:46:36Z</time>
      </trkpt>
      <trkpt lat="49.16058" lon="4.04791">
        <ele>211.6</ele>
        <time>2026-08-20T13:46:42Z</time>
      </trkpt>
      <trkpt lat="49.16056" lon="4.04782">
        <ele>212.2</ele>
        <time>2026-08-20T13:46:47Z</time>
      </trkpt>
      <trkpt lat="49.16055" lon="4.04775">
        <ele>212.6</ele>
        <time>2026-08-20T13:46:52Z</time>
      </trkpt>
      <trkpt lat="49.16055" lon="4.0477">
        <ele>212.9</ele>
        <time>2026-08-20T13:46:58Z</time>
      </trkpt>
      <trkpt lat="49.16056" lon="4.04762">
        <ele>213.3</ele>
        <time>2026-08-20T13:47:03Z</time>
      </trkpt>
      <trkpt lat="49.16056" lon="4.04754">
        <ele>213.8</ele>
        <time>2026-08-20T13:47:08Z</time>
      </trkpt>
      <trkpt lat="49.16056" lon="4.04745">
        <ele>214</ele>
        <time>2026-08-20T13:47:14Z</time>
      </trkpt>
      <trkpt lat="49.16056" lon="4.04738">
        <ele>214</ele>
        <time>2026-08-20T13:47:19Z</time>
      </trkpt>
      <trkpt lat="49.16055" lon="4.04735">
        <ele>214</ele>
        <time>2026-08-20T13:47:24Z</time>
      </trkpt>
      <trkpt lat="49.16055" lon="4.04735">
        <ele>214</ele>
        <time>2026-08-20T13:47:30Z</time>
      </trkpt>
      <trkpt lat="49.16055" lon="4.04735">
        <ele>214</ele>
        <time>2026-08-20T13:47:35Z</time>
      </trkpt>
      <trkpt lat="49.16055" lon="4.04735">
        <ele>214</ele>
        <time>2026-08-20T13:47:40Z</time>
      </trkpt>
      <trkpt lat="49.16055" lon="4.04735">
        <ele>214</ele>
        <time>2026-08-20T13:47:46Z</time>
      </trkpt>
      <trkpt lat="49.16055" lon="4.04735">
        <ele>214</ele>
        <time>2026-08-20T13:47:51Z</time>
      </trkpt>
      <trkpt lat="49.16055" lon="4.04735">
        <ele>214</ele>
        <time>2026-08-20T13:47:56Z</time>
      </trkpt>
      <trkpt lat="49.16054" lon="4.04737">
        <ele>214.1</ele>
        <time>2026-08-20T13:48:02Z</time>
      </trkpt>
      <trkpt lat="49.16054" lon="4.04747">
        <ele>214.1</ele>
        <time>2026-08-20T13:48:07Z</time>
      </trkpt>
      <trkpt lat="49.16055" lon="4.04758">
        <ele>213.6</ele>
        <time>2026-08-20T13:48:12Z</time>
      </trkpt>
      <trkpt lat="49.16054" lon="4.04759">
        <ele>213.6</ele>
        <time>2026-08-20T13:48:18Z</time>
      </trkpt>
      <trkpt lat="49.16053" lon="4.04764">
        <ele>213.3</ele>
        <time>2026-08-20T13:48:23Z</time>
      </trkpt>
      <trkpt lat="49.1605" lon="4.04768">
        <ele>213.2</ele>
        <time>2026-08-20T13:48:28Z</time>
      </trkpt>
      <trkpt lat="49.16046" lon="4.04762">
        <ele>213.7</ele>
        <time>2026-08-20T13:48:34Z</time>
      </trkpt>
      <trkpt lat="49.16043" lon="4.04756">
        <ele>214.1</ele>
        <time>2026-08-20T13:48:39Z</time>
      </trkpt>
      <trkpt lat="49.16041" lon="4.0475">
        <ele>214.5</ele>
        <time>2026-08-20T13:48:44Z</time>
      </trkpt>
      <trkpt lat="49.1604" lon="4.04739">
        <ele>214.6</ele>
        <time>2026-08-20T13:48:50Z</time>
      </trkpt>
      <trkpt lat="49.16038" lon="4.04731">
        <ele>214.8</ele>
        <time>2026-08-20T13:48:55Z</time>
      </trkpt>
      <trkpt lat="49.16037" lon="4.04724">
        <ele>214.9</ele>
        <time>2026-08-20T13:49:00Z</time>
      </trkpt>
      <trkpt lat="49.16035" lon="4.04714">
        <ele>215.1</ele>
        <time>2026-08-20T13:49:06Z</time>
      </trkpt>
      <trkpt lat="49.16034" lon="4.04709">
        <ele>215.2</ele>
        <time>2026-08-20T13:49:11Z</time>
      </trkpt>
      <trkpt lat="49.16034" lon="4.04705">
        <ele>215.2</ele>
        <time>2026-08-20T13:49:16Z</time>
      </trkpt>
      <trkpt lat="49.16038" lon="4.04701">
        <ele>215</ele>
        <time>2026-08-20T13:49:22Z</time>
      </trkpt>
      <trkpt lat="49.1604" lon="4.04695">
        <ele>214.9</ele>
        <time>2026-08-20T13:49:27Z</time>
      </trkpt>
      <trkpt lat="49.1604" lon="4.04689">
        <ele>215</ele>
        <time>2026-08-20T13:49:32Z</time>
      </trkpt>
      <trkpt lat="49.16039" lon="4.04679">
        <ele>215.1</ele>
        <time>2026-08-20T13:49:38Z</time>
      </trkpt>
      <trkpt lat="49.16036" lon="4.04677">
        <ele>215.3</ele>
        <time>2026-08-20T13:49:43Z</time>
      </trkpt>
      <trkpt lat="49.16034" lon="4.04677">
        <ele>215.5</ele>
        <time>2026-08-20T13:49:48Z</time>
      </trkpt>
      <trkpt lat="49.16034" lon="4.04676">
        <ele>215.5</ele>
        <time>2026-08-20T13:49:54Z</time>
      </trkpt>
      <trkpt lat="49.16034" lon="4.04676">
        <ele>215.5</ele>
        <time>2026-08-20T13:49:59Z</time>
      </trkpt>
      <trkpt lat="49.16034" lon="4.04676">
        <ele>215.5</ele>
        <time>2026-08-20T13:50:04Z</time>
      </trkpt>
      <trkpt lat="49.16034" lon="4.04676">
        <ele>215.5</ele>
        <time>2026-08-20T13:50:10Z</time>
      </trkpt>
      <trkpt lat="49.16034" lon="4.04676">
        <ele>215.5</ele>
        <time>2026-08-20T13:50:15Z</time>
      </trkpt>
      <trkpt lat="49.1604" lon="4.04676">
        <ele>215.1</ele>
        <time>2026-08-20T13:50:20Z</time>
      </trkpt>
      <trkpt lat="49.16044" lon="4.04672">
        <ele>214.8</ele>
        <time>2026-08-20T13:50:26Z</time>
      </trkpt>
      <trkpt lat="49.16048" lon="4.0467">
        <ele>214.5</ele>
        <time>2026-08-20T13:50:31Z</time>
      </trkpt>
      <trkpt lat="49.16053" lon="4.0467">
        <ele>214.2</ele>
        <time>2026-08-20T13:50:36Z</time>
      </trkpt>
      <trkpt lat="49.16058" lon="4.04667">
        <ele>213.8</ele>
        <time>2026-08-20T13:50:42Z</time>
      </trkpt>
      <trkpt lat="49.16064" lon="4.04665">
        <ele>213.4</ele>
        <time>2026-08-20T13:50:47Z</time>
      </trkpt>
      <trkpt lat="49.16068" lon="4.04661">
        <ele>213.3</ele>
        <time>2026-08-20T13:50:52Z</time>
      </trkpt>
      <trkpt lat="49.16073" lon="4.04656">
        <ele>213</ele>
        <time>2026-08-20T13:50:58Z</time>
      </trkpt>
      <trkpt lat="49.16078" lon="4.0465">
        <ele>212.8</ele>
        <time>2026-08-20T13:51:03Z</time>
      </trkpt>
      <trkpt lat="49.16082" lon="4.04642">
        <ele>212.7</ele>
        <time>2026-08-20T13:51:08Z</time>
      </trkpt>
      <trkpt lat="49.16087" lon="4.04633">
        <ele>212.3</ele>
        <time>2026-08-20T13:51:14Z</time>
      </trkpt>
      <trkpt lat="49.1609" lon="4.04627">
        <ele>212</ele>
        <time>2026-08-20T13:51:19Z</time>
      </trkpt>
      <trkpt lat="49.16092" lon="4.04619">
        <ele>211.9</ele>
        <time>2026-08-20T13:51:24Z</time>
      </trkpt>
      <trkpt lat="49.16098" lon="4.04612">
        <ele>211.2</ele>
        <time>2026-08-20T13:51:30Z</time>
      </trkpt>
      <trkpt lat="49.16101" lon="4.04605">
        <ele>210.9</ele>
        <time>2026-08-20T13:51:35Z</time>
      </trkpt>
      <trkpt lat="49.16104" lon="4.04598">
        <ele>210.7</ele>
        <time>2026-08-20T13:51:40Z</time>
      </trkpt>
      <trkpt lat="49.16109" lon="4.04591">
        <ele>210.1</ele>
        <time>2026-08-20T13:51:46Z</time>
      </trkpt>
      <trkpt lat="49.16114" lon="4.04583">
        <ele>209.6</ele>
        <time>2026-08-20T13:51:51Z</time>
      </trkpt>
      <trkpt lat="49.16117" lon="4.04575">
        <ele>209.7</ele>
        <time>2026-08-20T13:51:56Z</time>
      </trkpt>
      <trkpt lat="49.16122" lon="4.04567">
        <ele>209.5</ele>
        <time>2026-08-20T13:52:02Z</time>
      </trkpt>
      <trkpt lat="49.16126" lon="4.0456">
        <ele>209.4</ele>
        <time>2026-08-20T13:52:07Z</time>
      </trkpt>
      <trkpt lat="49.16131" lon="4.04553">
        <ele>209.1</ele>
        <time>2026-08-20T13:52:12Z</time>
      </trkpt>
      <trkpt lat="49.16133" lon="4.04545">
        <ele>209.3</ele>
        <time>2026-08-20T13:52:18Z</time>
      </trkpt>
      <trkpt lat="49.16135" lon="4.04537">
        <ele>209.6</ele>
        <time>2026-08-20T13:52:23Z</time>
      </trkpt>
      <trkpt lat="49.16136" lon="4.04529">
        <ele>209.9</ele>
        <time>2026-08-20T13:52:28Z</time>
      </trkpt>
      <trkpt lat="49.1614" lon="4.0452">
        <ele>209.9</ele>
        <time>2026-08-20T13:52:34Z</time>
      </trkpt>
      <trkpt lat="49.16144" lon="4.04512">
        <ele>209.8</ele>
        <time>2026-08-20T13:52:39Z</time>
      </trkpt>
      <trkpt lat="49.16146" lon="4.04504">
        <ele>210</ele>
        <time>2026-08-20T13:52:44Z</time>
      </trkpt>
      <trkpt lat="49.16144" lon="4.04497">
        <ele>210.7</ele>
        <time>2026-08-20T13:52:50Z</time>
      </trkpt>
      <trkpt lat="49.16145" lon="4.04496">
        <ele>210.6</ele>
        <time>2026-08-20T13:52:55Z</time>
      </trkpt>
      <trkpt lat="49.16145" lon="4.04496">
        <ele>210.6</ele>
        <time>2026-08-20T13:53:00Z</time>
      </trkpt>
      <trkpt lat="49.16145" lon="4.04496">
        <ele>210.6</ele>
        <time>2026-08-20T13:53:06Z</time>
      </trkpt>
      <trkpt lat="49.16148" lon="4.04499">
        <ele>210</ele>
        <time>2026-08-20T13:53:11Z</time>
      </trkpt>
      <trkpt lat="49.16154" lon="4.04502">
        <ele>208.9</ele>
        <time>2026-08-20T13:53:16Z</time>
      </trkpt>
      <trkpt lat="49.16161" lon="4.04493">
        <ele>208.4</ele>
        <time>2026-08-20T13:53:22Z</time>
      </trkpt>
      <trkpt lat="49.16162" lon="4.04484">
        <ele>208.8</ele>
        <time>2026-08-20T13:53:27Z</time>
      </trkpt>
      <trkpt lat="49.16162" lon="4.04475">
        <ele>209.4</ele>
        <time>2026-08-20T13:53:32Z</time>
      </trkpt>
      <trkpt lat="49.16162" lon="4.04464">
        <ele>210.2</ele>
        <time>2026-08-20T13:53:38Z</time>
      </trkpt>
      <trkpt lat="49.1616" lon="4.04456">
        <ele>211</ele>
        <time>2026-08-20T13:53:43Z</time>
      </trkpt>
      <trkpt lat="49.16154" lon="4.04453">
        <ele>211.8</ele>
        <time>2026-08-20T13:53:48Z</time>
      </trkpt>
      <trkpt lat="49.16147" lon="4.04452">
        <ele>212.7</ele>
        <time>2026-08-20T13:53:54Z</time>
      </trkpt>
      <trkpt lat="49.16141" lon="4.04451">
        <ele>213.4</ele>
        <time>2026-08-20T13:53:59Z</time>
      </trkpt>
      <trkpt lat="49.16136" lon="4.04452">
        <ele>214</ele>
        <time>2026-08-20T13:54:04Z</time>
      </trkpt>
      <trkpt lat="49.16134" lon="4.04452">
        <ele>214.2</ele>
        <time>2026-08-20T13:54:10Z</time>
      </trkpt>
      <trkpt lat="49.16131" lon="4.04451">
        <ele>214.6</ele>
        <time>2026-08-20T13:54:15Z</time>
      </trkpt>
      <trkpt lat="49.16126" lon="4.04448">
        <ele>215.3</ele>
        <time>2026-08-20T13:54:20Z</time>
      </trkpt>
      <trkpt lat="49.16124" lon="4.04446">
        <ele>215.6</ele>
        <time>2026-08-20T13:54:26Z</time>
      </trkpt>
      <trkpt lat="49.16123" lon="4.04446">
        <ele>215.7</ele>
        <time>2026-08-20T13:54:31Z</time>
      </trkpt>
      <trkpt lat="49.16119" lon="4.04444">
        <ele>216.2</ele>
        <time>2026-08-20T13:54:36Z</time>
      </trkpt>
      <trkpt lat="49.16115" lon="4.04439">
        <ele>216.7</ele>
        <time>2026-08-20T13:54:42Z</time>
      </trkpt>
      <trkpt lat="49.16112" lon="4.04438">
        <ele>217.1</ele>
        <time>2026-08-20T13:54:47Z</time>
      </trkpt>
      <trkpt lat="49.16109" lon="4.04438">
        <ele>217.4</ele>
        <time>2026-08-20T13:54:52Z</time>
      </trkpt>
      <trkpt lat="49.16108" lon="4.04439">
        <ele>217.5</ele>
        <time>2026-08-20T13:54:58Z</time>
      </trkpt>
      <trkpt lat="49.16108" lon="4.04439">
        <ele>217.5</ele>
        <time>2026-08-20T13:55:03Z</time>
      </trkpt>
      <trkpt lat="49.16108" lon="4.04439">
        <ele>217.5</ele>
        <time>2026-08-20T13:55:08Z</time>
      </trkpt>
      <trkpt lat="49.16102" lon="4.04433">
        <ele>218.2</ele>
        <time>2026-08-20T13:55:14Z</time>
      </trkpt>
      <trkpt lat="49.16097" lon="4.04429">
        <ele>218.7</ele>
        <time>2026-08-20T13:55:19Z</time>
      </trkpt>
      <trkpt lat="49.16092" lon="4.04426">
        <ele>219.2</ele>
        <time>2026-08-20T13:55:24Z</time>
      </trkpt>
      <trkpt lat="49.16088" lon="4.04424">
        <ele>219.6</ele>
        <time>2026-08-20T13:55:30Z</time>
      </trkpt>
      <trkpt lat="49.16087" lon="4.04425">
        <ele>219.7</ele>
        <time>2026-08-20T13:55:35Z</time>
      </trkpt>
      <trkpt lat="49.16085" lon="4.04424">
        <ele>219.8</ele>
        <time>2026-08-20T13:55:40Z</time>
      </trkpt>
      <trkpt lat="49.16081" lon="4.0442">
        <ele>220.2</ele>
        <time>2026-08-20T13:55:46Z</time>
      </trkpt>
      <trkpt lat="49.16077" lon="4.04417">
        <ele>220.6</ele>
        <time>2026-08-20T13:55:51Z</time>
      </trkpt>
      <trkpt lat="49.16072" lon="4.04415">
        <ele>221.2</ele>
        <time>2026-08-20T13:55:56Z</time>
      </trkpt>
      <trkpt lat="49.16067" lon="4.04411">
        <ele>221.9</ele>
        <time>2026-08-20T13:56:02Z</time>
      </trkpt>
      <trkpt lat="49.16066" lon="4.0441">
        <ele>222.1</ele>
        <time>2026-08-20T13:56:07Z</time>
      </trkpt>
      <trkpt lat="49.16063" lon="4.04406">
        <ele>222.7</ele>
        <time>2026-08-20T13:56:12Z</time>
      </trkpt>
      <trkpt lat="49.16057" lon="4.04404">
        <ele>223.4</ele>
        <time>2026-08-20T13:56:18Z</time>
      </trkpt>
      <trkpt lat="49.16052" lon="4.04401">
        <ele>224.2</ele>
        <time>2026-08-20T13:56:23Z</time>
      </trkpt>
      <trkpt lat="49.16046" lon="4.04396">
        <ele>225.2</ele>
        <time>2026-08-20T13:56:28Z</time>
      </trkpt>
      <trkpt lat="49.16042" lon="4.04391">
        <ele>226</ele>
        <time>2026-08-20T13:56:34Z</time>
      </trkpt>
      <trkpt lat="49.1604" lon="4.04389">
        <ele>226.3</ele>
        <time>2026-08-20T13:56:39Z</time>
      </trkpt>
      <trkpt lat="49.1604" lon="4.04387">
        <ele>226.5</ele>
        <time>2026-08-20T13:56:44Z</time>
      </trkpt>
      <trkpt lat="49.1604" lon="4.04387">
        <ele>226.5</ele>
        <time>2026-08-20T13:56:50Z</time>
      </trkpt>
      <trkpt lat="49.1604" lon="4.04387">
        <ele>226.5</ele>
        <time>2026-08-20T13:56:55Z</time>
      </trkpt>
      <trkpt lat="49.16033" lon="4.04389">
        <ele>227.1</ele>
        <time>2026-08-20T13:57:00Z</time>
      </trkpt>
      <trkpt lat="49.16029" lon="4.04389">
        <ele>227.5</ele>
        <time>2026-08-20T13:57:06Z</time>
      </trkpt>
      <trkpt lat="49.16026" lon="4.04387">
        <ele>228</ele>
        <time>2026-08-20T13:57:11Z</time>
      </trkpt>
      <trkpt lat="49.16021" lon="4.04386">
        <ele>228.6</ele>
        <time>2026-08-20T13:57:16Z</time>
      </trkpt>
      <trkpt lat="49.16015" lon="4.04385">
        <ele>229.4</ele>
        <time>2026-08-20T13:57:22Z</time>
      </trkpt>
      <trkpt lat="49.1601" lon="4.04384">
        <ele>230</ele>
        <time>2026-08-20T13:57:27Z</time>
      </trkpt>
      <trkpt lat="49.16007" lon="4.04382">
        <ele>230.6</ele>
        <time>2026-08-20T13:57:32Z</time>
      </trkpt>
      <trkpt lat="49.16002" lon="4.04382">
        <ele>231.1</ele>
        <time>2026-08-20T13:57:38Z</time>
      </trkpt>
      <trkpt lat="49.15998" lon="4.04381">
        <ele>231.7</ele>
        <time>2026-08-20T13:57:43Z</time>
      </trkpt>
      <trkpt lat="49.15993" lon="4.04378">
        <ele>232.5</ele>
        <time>2026-08-20T13:57:48Z</time>
      </trkpt>
      <trkpt lat="49.15983" lon="4.04376">
        <ele>233.9</ele>
        <time>2026-08-20T13:57:54Z</time>
      </trkpt>
      <trkpt lat="49.15976" lon="4.04374">
        <ele>235</ele>
        <time>2026-08-20T13:57:59Z</time>
      </trkpt>
      <trkpt lat="49.1597" lon="4.04373">
        <ele>235.8</ele>
        <time>2026-08-20T13:58:04Z</time>
      </trkpt>
      <trkpt lat="49.15964" lon="4.04371">
        <ele>236.7</ele>
        <time>2026-08-20T13:58:10Z</time>
      </trkpt>
      <trkpt lat="49.15961" lon="4.0437">
        <ele>237.2</ele>
        <time>2026-08-20T13:58:15Z</time>
      </trkpt>
      <trkpt lat="49.15958" lon="4.04367">
        <ele>237.9</ele>
        <time>2026-08-20T13:58:20Z</time>
      </trkpt>
      <trkpt lat="49.15954" lon="4.04361">
        <ele>239</ele>
        <time>2026-08-20T13:58:26Z</time>
      </trkpt>
      <trkpt lat="49.15954" lon="4.04361">
        <ele>239</ele>
        <time>2026-08-20T13:58:31Z</time>
      </trkpt>
      <trkpt lat="49.15954" lon="4.04361">
        <ele>239</ele>
        <time>2026-08-20T13:58:36Z</time>
      </trkpt>
      <trkpt lat="49.15954" lon="4.04361">
        <ele>239</ele>
        <time>2026-08-20T13:58:42Z</time>
      </trkpt>
      <trkpt lat="49.15954" lon="4.04361">
        <ele>239</ele>
        <time>2026-08-20T13:58:47Z</time>
      </trkpt>
      <trkpt lat="49.15954" lon="4.0435">
        <ele>240.3</ele>
        <time>2026-08-20T13:58:52Z</time>
      </trkpt>
      <trkpt lat="49.1595" lon="4.04347">
        <ele>241.1</ele>
        <time>2026-08-20T13:58:58Z</time>
      </trkpt>
      <trkpt lat="49.15947" lon="4.04343">
        <ele>241.9</ele>
        <time>2026-08-20T13:59:03Z</time>
      </trkpt>
      <trkpt lat="49.15942" lon="4.04338">
        <ele>243.1</ele>
        <time>2026-08-20T13:59:08Z</time>
      </trkpt>
      <trkpt lat="49.15936" lon="4.04333">
        <ele>244.5</ele>
        <time>2026-08-20T13:59:14Z</time>
      </trkpt>
      <trkpt lat="49.15933" lon="4.04331">
        <ele>244.9</ele>
        <time>2026-08-20T13:59:19Z</time>
      </trkpt>
      <trkpt lat="49.15931" lon="4.0433">
        <ele>245.2</ele>
        <time>2026-08-20T13:59:24Z</time>
      </trkpt>
      <trkpt lat="49.1593" lon="4.04328">
        <ele>245.4</ele>
        <time>2026-08-20T13:59:30Z</time>
      </trkpt>
      <trkpt lat="49.1593" lon="4.04328">
        <ele>245.4</ele>
        <time>2026-08-20T13:59:35Z</time>
      </trkpt>
      <trkpt lat="49.1593" lon="4.04328">
        <ele>245.4</ele>
        <time>2026-08-20T13:59:40Z</time>
      </trkpt>
      <trkpt lat="49.1593" lon="4.04328">
        <ele>245.4</ele>
        <time>2026-08-20T13:59:46Z</time>
      </trkpt>
      <trkpt lat="49.1593" lon="4.04328">
        <ele>245.4</ele>
        <time>2026-08-20T13:59:51Z</time>
      </trkpt>
      <trkpt lat="49.1593" lon="4.04328">
        <ele>245.4</ele>
        <time>2026-08-20T13:59:56Z</time>
      </trkpt>
      <trkpt lat="49.1593" lon="4.04328">
        <ele>245.4</ele>
        <time>2026-08-20T14:00:02Z</time>
      </trkpt>
      <trkpt lat="49.1593" lon="4.04328">
        <ele>245.4</ele>
        <time>2026-08-20T14:00:07Z</time>
      </trkpt>
      <trkpt lat="49.1593" lon="4.04328">
        <ele>245.4</ele>
        <time>2026-08-20T14:00:12Z</time>
      </trkpt>
      <trkpt lat="49.1593" lon="4.04328">
        <ele>245.4</ele>
        <time>2026-08-20T14:00:18Z</time>
      </trkpt>
      <trkpt lat="49.1593" lon="4.04328">
        <ele>245.4</ele>
        <time>2026-08-20T14:00:23Z</time>
      </trkpt>
      <trkpt lat="49.1593" lon="4.04328">
        <ele>245.4</ele>
        <time>2026-08-20T14:00:28Z</time>
      </trkpt>
      <trkpt lat="49.1593" lon="4.04328">
        <ele>245.4</ele>
        <time>2026-08-20T14:00:34Z</time>
      </trkpt>
      <trkpt lat="49.1593" lon="4.04328">
        <ele>245.4</ele>
        <time>2026-08-20T14:00:39Z</time>
      </trkpt>
      <trkpt lat="49.1593" lon="4.04328">
        <ele>245.4</ele>
        <time>2026-08-20T14:00:44Z</time>
      </trkpt>
      <trkpt lat="49.15924" lon="4.0432">
        <ele>246.6</ele>
        <time>2026-08-20T14:00:50Z</time>
      </trkpt>
      <trkpt lat="49.15923" lon="4.04312">
        <ele>247.1</ele>
        <time>2026-08-20T14:00:55Z</time>
      </trkpt>
      <trkpt lat="49.15923" lon="4.0431">
        <ele>247.2</ele>
        <time>2026-08-20T14:01:00Z</time>
      </trkpt>
      <trkpt lat="49.15928" lon="4.04319">
        <ele>246.1</ele>
        <time>2026-08-20T14:01:06Z</time>
      </trkpt>
      <trkpt lat="49.1593" lon="4.04327">
        <ele>245.5</ele>
        <time>2026-08-20T14:01:11Z</time>
      </trkpt>
      <trkpt lat="49.15933" lon="4.04333">
        <ele>244.9</ele>
        <time>2026-08-20T14:01:16Z</time>
      </trkpt>
      <trkpt lat="49.15933" lon="4.04338">
        <ele>244.3</ele>
        <time>2026-08-20T14:01:22Z</time>
      </trkpt>
      <trkpt lat="49.15933" lon="4.04338">
        <ele>244.3</ele>
        <time>2026-08-20T14:01:27Z</time>
      </trkpt>
      <trkpt lat="49.15933" lon="4.04338">
        <ele>244.3</ele>
        <time>2026-08-20T14:01:32Z</time>
      </trkpt>
      <trkpt lat="49.15931" lon="4.04335">
        <ele>244.9</ele>
        <time>2026-08-20T14:01:38Z</time>
      </trkpt>
      <trkpt lat="49.15928" lon="4.04325">
        <ele>245.8</ele>
        <time>2026-08-20T14:01:43Z</time>
      </trkpt>
      <trkpt lat="49.15926" lon="4.04318">
        <ele>246.4</ele>
        <time>2026-08-20T14:01:48Z</time>
      </trkpt>
      <trkpt lat="49.15924" lon="4.04311">
        <ele>247</ele>
        <time>2026-08-20T14:01:54Z</time>
      </trkpt>
      <trkpt lat="49.15923" lon="4.04305">
        <ele>247.4</ele>
        <time>2026-08-20T14:01:59Z</time>
      </trkpt>
      <trkpt lat="49.15923" lon="4.04303">
        <ele>247.5</ele>
        <time>2026-08-20T14:02:04Z</time>
      </trkpt>
      <trkpt lat="49.15923" lon="4.04304">
        <ele>247.4</ele>
        <time>2026-08-20T14:02:10Z</time>
      </trkpt>
      <trkpt lat="49.15923" lon="4.04304">
        <ele>247.4</ele>
        <time>2026-08-20T14:02:15Z</time>
      </trkpt>
      <trkpt lat="49.15923" lon="4.04304">
        <ele>247.4</ele>
        <time>2026-08-20T14:02:20Z</time>
      </trkpt>
      <trkpt lat="49.15923" lon="4.04304">
        <ele>247.4</ele>
        <time>2026-08-20T14:02:26Z</time>
      </trkpt>
      <trkpt lat="49.15923" lon="4.04304">
        <ele>247.4</ele>
        <time>2026-08-20T14:02:31Z</time>
      </trkpt>
      <trkpt lat="49.15923" lon="4.04304">
        <ele>247.4</ele>
        <time>2026-08-20T14:02:36Z</time>
      </trkpt>
      <trkpt lat="49.15923" lon="4.04304">
        <ele>247.4</ele>
        <time>2026-08-20T14:02:42Z</time>
      </trkpt>
      <trkpt lat="49.15923" lon="4.04304">
        <ele>247.4</ele>
        <time>2026-08-20T14:02:47Z</time>
      </trkpt>
      <trkpt lat="49.15923" lon="4.04304">
        <ele>247.4</ele>
        <time>2026-08-20T14:02:52Z</time>
      </trkpt>
      <trkpt lat="49.15923" lon="4.04304">
        <ele>247.4</ele>
        <time>2026-08-20T14:02:58Z</time>
      </trkpt>
      <trkpt lat="49.15923" lon="4.04304">
        <ele>247.4</ele>
        <time>2026-08-20T14:03:03Z</time>
      </trkpt>
      <trkpt lat="49.15927" lon="4.04317">
        <ele>246.3</ele>
        <time>2026-08-20T14:03:08Z</time>
      </trkpt>
      <trkpt lat="49.15927" lon="4.04317">
        <ele>246.3</ele>
        <time>2026-08-20T14:03:14Z</time>
        <extensions>
          <visugpx:TrkExtension xmlns:visugpx="https://www.visugpx.com/editgpx/">
            <visugpx:node>1</visugpx:node>
            </visugpx:TrkExtension>
        </extensions>
      </trkpt>
      <trkpt lat="49.15917" lon="4.04311">
        <ele>248</ele>
        <time>2026-08-21T07:37:28Z</time>
      </trkpt>
      <trkpt lat="49.15917" lon="4.0431">
        <ele>248.1</ele>
        <time>2026-08-21T07:37:34Z</time>
      </trkpt>
      <trkpt lat="49.15917" lon="4.0431">
        <ele>248.1</ele>
        <time>2026-08-21T07:37:39Z</time>
      </trkpt>
      <trkpt lat="49.15917" lon="4.0431">
        <ele>248.1</ele>
        <time>2026-08-21T07:37:44Z</time>
      </trkpt>
      <trkpt lat="49.15917" lon="4.0431">
        <ele>248.1</ele>
        <time>2026-08-21T07:37:50Z</time>
      </trkpt>
      <trkpt lat="49.15917" lon="4.0431">
        <ele>248.1</ele>
        <time>2026-08-21T07:37:55Z</time>
      </trkpt>
      <trkpt lat="49.15917" lon="4.0431">
        <ele>248.1</ele>
        <time>2026-08-21T07:38:00Z</time>
      </trkpt>
      <trkpt lat="49.15917" lon="4.0431">
        <ele>248.1</ele>
        <time>2026-08-21T07:38:06Z</time>
      </trkpt>
      <trkpt lat="49.15921" lon="4.0431">
        <ele>247.5</ele>
        <time>2026-08-21T07:38:11Z</time>
      </trkpt>
      <trkpt lat="49.15923" lon="4.04308">
        <ele>247.3</ele>
        <time>2026-08-21T07:38:16Z</time>
      </trkpt>
      <trkpt lat="49.1593" lon="4.043">
        <ele>246.5</ele>
        <time>2026-08-21T07:38:22Z</time>
      </trkpt>
      <trkpt lat="49.15931" lon="4.04297">
        <ele>246.5</ele>
        <time>2026-08-21T07:38:27Z</time>
      </trkpt>
      <trkpt lat="49.1593" lon="4.04297">
        <ele>246.6</ele>
        <time>2026-08-21T07:38:32Z</time>
      </trkpt>
      <trkpt lat="49.15929" lon="4.04289">
        <ele>247.1</ele>
        <time>2026-08-21T07:38:38Z</time>
      </trkpt>
      <trkpt lat="49.15927" lon="4.04286">
        <ele>247.6</ele>
        <time>2026-08-21T07:38:43Z</time>
      </trkpt>
      <trkpt lat="49.15929" lon="4.04279">
        <ele>247.5</ele>
        <time>2026-08-21T07:38:48Z</time>
      </trkpt>
      <trkpt lat="49.15932" lon="4.04272">
        <ele>247.2</ele>
        <time>2026-08-21T07:38:54Z</time>
      </trkpt>
      <trkpt lat="49.15934" lon="4.0427">
        <ele>247</ele>
        <time>2026-08-21T07:38:59Z</time>
      </trkpt>
      <trkpt lat="49.15937" lon="4.04267">
        <ele>246.5</ele>
        <time>2026-08-21T07:39:04Z</time>
      </trkpt>
      <trkpt lat="49.15941" lon="4.04263">
        <ele>245.9</ele>
        <time>2026-08-21T07:39:10Z</time>
      </trkpt>
      <trkpt lat="49.15943" lon="4.04258">
        <ele>245.7</ele>
        <time>2026-08-21T07:39:15Z</time>
      </trkpt>
      <trkpt lat="49.15947" lon="4.04253">
        <ele>245.1</ele>
        <time>2026-08-21T07:39:20Z</time>
      </trkpt>
      <trkpt lat="49.15951" lon="4.04248">
        <ele>244.5</ele>
        <time>2026-08-21T07:39:26Z</time>
      </trkpt>
      <trkpt lat="49.15954" lon="4.04245">
        <ele>244</ele>
        <time>2026-08-21T07:39:31Z</time>
      </trkpt>
      <trkpt lat="49.15955" lon="4.04238">
        <ele>244.1</ele>
        <time>2026-08-21T07:39:36Z</time>
      </trkpt>
      <trkpt lat="49.15955" lon="4.04232">
        <ele>244.4</ele>
        <time>2026-08-21T07:39:42Z</time>
      </trkpt>
      <trkpt lat="49.1595" lon="4.04231">
        <ele>245.4</ele>
        <time>2026-08-21T07:39:47Z</time>
      </trkpt>
      <trkpt lat="49.1595" lon="4.04231">
        <ele>245.4</ele>
        <time>2026-08-21T07:39:52Z</time>
      </trkpt>
      <trkpt lat="49.1595" lon="4.04231">
        <ele>245.4</ele>
        <time>2026-08-21T07:39:58Z</time>
      </trkpt>
      <trkpt lat="49.1595" lon="4.04231">
        <ele>245.4</ele>
        <time>2026-08-21T07:40:03Z</time>
      </trkpt>
      <trkpt lat="49.1595" lon="4.04231">
        <ele>245.4</ele>
        <time>2026-08-21T07:40:08Z</time>
      </trkpt>
      <trkpt lat="49.15949" lon="4.04217">
        <ele>246.2</ele>
        <time>2026-08-21T07:40:14Z</time>
      </trkpt>
      <trkpt lat="49.15949" lon="4.04217">
        <ele>246.2</ele>
        <time>2026-08-21T07:40:19Z</time>
      </trkpt>
      <trkpt lat="49.15949" lon="4.04217">
        <ele>246.2</ele>
        <time>2026-08-21T07:40:24Z</time>
      </trkpt>
      <trkpt lat="49.15949" lon="4.04217">
        <ele>246.2</ele>
        <time>2026-08-21T07:40:30Z</time>
      </trkpt>
      <trkpt lat="49.15949" lon="4.04217">
        <ele>246.2</ele>
        <time>2026-08-21T07:40:35Z</time>
      </trkpt>
      <trkpt lat="49.15949" lon="4.04217">
        <ele>246.2</ele>
        <time>2026-08-21T07:40:40Z</time>
      </trkpt>
      <trkpt lat="49.15949" lon="4.04217">
        <ele>246.2</ele>
        <time>2026-08-21T07:40:46Z</time>
      </trkpt>
      <trkpt lat="49.15949" lon="4.04217">
        <ele>246.2</ele>
        <time>2026-08-21T07:40:51Z</time>
      </trkpt>
      <trkpt lat="49.15949" lon="4.04217">
        <ele>246.2</ele>
        <time>2026-08-21T07:40:56Z</time>
      </trkpt>
      <trkpt lat="49.15949" lon="4.04217">
        <ele>246.2</ele>
        <time>2026-08-21T07:41:02Z</time>
      </trkpt>
      <trkpt lat="49.15949" lon="4.04217">
        <ele>246.2</ele>
        <time>2026-08-21T07:41:07Z</time>
      </trkpt>
      <trkpt lat="49.15949" lon="4.04217">
        <ele>246.2</ele>
        <time>2026-08-21T07:41:12Z</time>
      </trkpt>
      <trkpt lat="49.15949" lon="4.04217">
        <ele>246.2</ele>
        <time>2026-08-21T07:41:18Z</time>
      </trkpt>
      <trkpt lat="49.15949" lon="4.04217">
        <ele>246.2</ele>
        <time>2026-08-21T07:41:23Z</time>
      </trkpt>
      <trkpt lat="49.15946" lon="4.04204">
        <ele>247.4</ele>
        <time>2026-08-21T07:41:28Z</time>
      </trkpt>
      <trkpt lat="49.15943" lon="4.04198">
        <ele>248.2</ele>
        <time>2026-08-21T07:41:34Z</time>
      </trkpt>
      <trkpt lat="49.15943" lon="4.04197">
        <ele>248.3</ele>
        <time>2026-08-21T07:41:39Z</time>
      </trkpt>
      <trkpt lat="49.15943" lon="4.04197">
        <ele>248.3</ele>
        <time>2026-08-21T07:41:44Z</time>
      </trkpt>
      <trkpt lat="49.15948" lon="4.04196">
        <ele>247.3</ele>
        <time>2026-08-21T07:41:50Z</time>
      </trkpt>
      <trkpt lat="49.15948" lon="4.04196">
        <ele>247.3</ele>
        <time>2026-08-21T07:41:55Z</time>
      </trkpt>
      <trkpt lat="49.15948" lon="4.04196">
        <ele>247.3</ele>
        <time>2026-08-21T07:42:00Z</time>
      </trkpt>
      <trkpt lat="49.15948" lon="4.04196">
        <ele>247.3</ele>
        <time>2026-08-21T07:42:06Z</time>
      </trkpt>
      <trkpt lat="49.15954" lon="4.04195">
        <ele>246.2</ele>
        <time>2026-08-21T07:42:11Z</time>
      </trkpt>
      <trkpt lat="49.1596" lon="4.04195">
        <ele>245</ele>
        <time>2026-08-21T07:42:16Z</time>
      </trkpt>
      <trkpt lat="49.15965" lon="4.04196">
        <ele>243.9</ele>
        <time>2026-08-21T07:42:22Z</time>
      </trkpt>
      <trkpt lat="49.15967" lon="4.04196">
        <ele>243.5</ele>
        <time>2026-08-21T07:42:27Z</time>
      </trkpt>
      <trkpt lat="49.15971" lon="4.04194">
        <ele>242.8</ele>
        <time>2026-08-21T07:42:32Z</time>
      </trkpt>
      <trkpt lat="49.15977" lon="4.04195">
        <ele>241.6</ele>
        <time>2026-08-21T07:42:38Z</time>
      </trkpt>
      <trkpt lat="49.1598" lon="4.04194">
        <ele>241</ele>
        <time>2026-08-21T07:42:43Z</time>
      </trkpt>
      <trkpt lat="49.15984" lon="4.04193">
        <ele>240.3</ele>
        <time>2026-08-21T07:42:48Z</time>
      </trkpt>
      <trkpt lat="49.1599" lon="4.04189">
        <ele>239.2</ele>
        <time>2026-08-21T07:42:54Z</time>
      </trkpt>
      <trkpt lat="49.15993" lon="4.04183">
        <ele>238.8</ele>
        <time>2026-08-21T07:42:59Z</time>
      </trkpt>
      <trkpt lat="49.15992" lon="4.04176">
        <ele>239.3</ele>
        <time>2026-08-21T07:43:04Z</time>
      </trkpt>
      <trkpt lat="49.15988" lon="4.04165">
        <ele>240.5</ele>
        <time>2026-08-21T07:43:10Z</time>
      </trkpt>
      <trkpt lat="49.15984" lon="4.04161">
        <ele>241.5</ele>
        <time>2026-08-21T07:43:15Z</time>
      </trkpt>
      <trkpt lat="49.15982" lon="4.04162">
        <ele>241.9</ele>
        <time>2026-08-21T07:43:20Z</time>
      </trkpt>
      <trkpt lat="49.15982" lon="4.04164">
        <ele>241.8</ele>
        <time>2026-08-21T07:43:26Z</time>
      </trkpt>
      <trkpt lat="49.15982" lon="4.04164">
        <ele>241.8</ele>
        <time>2026-08-21T07:43:31Z</time>
      </trkpt>
      <trkpt lat="49.15982" lon="4.04164">
        <ele>241.8</ele>
        <time>2026-08-21T07:43:36Z</time>
      </trkpt>
      <trkpt lat="49.15982" lon="4.04164">
        <ele>241.8</ele>
        <time>2026-08-21T07:43:42Z</time>
      </trkpt>
      <trkpt lat="49.15982" lon="4.04164">
        <ele>241.8</ele>
        <time>2026-08-21T07:43:47Z</time>
      </trkpt>
      <trkpt lat="49.15982" lon="4.04164">
        <ele>241.8</ele>
        <time>2026-08-21T07:43:52Z</time>
      </trkpt>
      <trkpt lat="49.15982" lon="4.04164">
        <ele>241.8</ele>
        <time>2026-08-21T07:43:58Z</time>
      </trkpt>
      <trkpt lat="49.15983" lon="4.04156">
        <ele>242</ele>
        <time>2026-08-21T07:44:03Z</time>
      </trkpt>
      <trkpt lat="49.15983" lon="4.04149">
        <ele>242.4</ele>
        <time>2026-08-21T07:44:08Z</time>
      </trkpt>
      <trkpt lat="49.15981" lon="4.0414">
        <ele>243.2</ele>
        <time>2026-08-21T07:44:14Z</time>
      </trkpt>
      <trkpt lat="49.1598" lon="4.04133">
        <ele>243.8</ele>
        <time>2026-08-21T07:44:19Z</time>
      </trkpt>
      <trkpt lat="49.1598" lon="4.04127">
        <ele>244.1</ele>
        <time>2026-08-21T07:44:24Z</time>
      </trkpt>
      <trkpt lat="49.15978" lon="4.04118">
        <ele>245</ele>
        <time>2026-08-21T07:44:30Z</time>
      </trkpt>
      <trkpt lat="49.15978" lon="4.04111">
        <ele>245.3</ele>
        <time>2026-08-21T07:44:35Z</time>
      </trkpt>
      <trkpt lat="49.15979" lon="4.0411">
        <ele>245.2</ele>
        <time>2026-08-21T07:44:40Z</time>
      </trkpt>
      <trkpt lat="49.15979" lon="4.0411">
        <ele>245.2</ele>
        <time>2026-08-21T07:44:46Z</time>
      </trkpt>
      <trkpt lat="49.15979" lon="4.0411">
        <ele>245.2</ele>
        <time>2026-08-21T07:44:51Z</time>
      </trkpt>
      <trkpt lat="49.15979" lon="4.0411">
        <ele>245.2</ele>
        <time>2026-08-21T07:44:56Z</time>
      </trkpt>
      <trkpt lat="49.15979" lon="4.0411">
        <ele>245.2</ele>
        <time>2026-08-21T07:45:02Z</time>
      </trkpt>
      <trkpt lat="49.15979" lon="4.0411">
        <ele>245.2</ele>
        <time>2026-08-21T07:45:07Z</time>
      </trkpt>
      <trkpt lat="49.15979" lon="4.0411">
        <ele>245.2</ele>
        <time>2026-08-21T07:45:12Z</time>
      </trkpt>
      <trkpt lat="49.15979" lon="4.0411">
        <ele>245.2</ele>
        <time>2026-08-21T07:45:18Z</time>
      </trkpt>
      <trkpt lat="49.15979" lon="4.0411">
        <ele>245.2</ele>
        <time>2026-08-21T07:45:23Z</time>
      </trkpt>
      <trkpt lat="49.15979" lon="4.0411">
        <ele>245.2</ele>
        <time>2026-08-21T07:45:28Z</time>
      </trkpt>
      <trkpt lat="49.15979" lon="4.0411">
        <ele>245.2</ele>
        <time>2026-08-21T07:45:34Z</time>
      </trkpt>
      <trkpt lat="49.15979" lon="4.0411">
        <ele>245.2</ele>
        <time>2026-08-21T07:45:39Z</time>
      </trkpt>
      <trkpt lat="49.15979" lon="4.0411">
        <ele>245.2</ele>
        <time>2026-08-21T07:45:44Z</time>
      </trkpt>
      <trkpt lat="49.15979" lon="4.0411">
        <ele>245.2</ele>
        <time>2026-08-21T07:45:50Z</time>
      </trkpt>
      <trkpt lat="49.15979" lon="4.0411">
        <ele>245.2</ele>
        <time>2026-08-21T07:45:55Z</time>
      </trkpt>
      <trkpt lat="49.15979" lon="4.0411">
        <ele>245.2</ele>
        <time>2026-08-21T07:46:00Z</time>
      </trkpt>
      <trkpt lat="49.15979" lon="4.0411">
        <ele>245.2</ele>
        <time>2026-08-21T07:46:06Z</time>
      </trkpt>
      <trkpt lat="49.15983" lon="4.04105">
        <ele>244.6</ele>
        <time>2026-08-21T07:46:11Z</time>
      </trkpt>
      <trkpt lat="49.15981" lon="4.04101">
        <ele>245.2</ele>
        <time>2026-08-21T07:46:16Z</time>
      </trkpt>
      <trkpt lat="49.15979" lon="4.04094">
        <ele>246</ele>
        <time>2026-08-21T07:46:22Z</time>
      </trkpt>
      <trkpt lat="49.15977" lon="4.04089">
        <ele>246.7</ele>
        <time>2026-08-21T07:46:27Z</time>
      </trkpt>
      <trkpt lat="49.15976" lon="4.04084">
        <ele>247.1</ele>
        <time>2026-08-21T07:46:32Z</time>
      </trkpt>
      <trkpt lat="49.15973" lon="4.04074">
        <ele>248.1</ele>
        <time>2026-08-21T07:46:38Z</time>
      </trkpt>
      <trkpt lat="49.15973" lon="4.04068">
        <ele>248.2</ele>
        <time>2026-08-21T07:46:43Z</time>
      </trkpt>
      <trkpt lat="49.15974" lon="4.04061">
        <ele>248.2</ele>
        <time>2026-08-21T07:46:48Z</time>
      </trkpt>
      <trkpt lat="49.15974" lon="4.04053">
        <ele>248.4</ele>
        <time>2026-08-21T07:46:54Z</time>
      </trkpt>
      <trkpt lat="49.15975" lon="4.04048">
        <ele>248.3</ele>
        <time>2026-08-21T07:46:59Z</time>
      </trkpt>
      <trkpt lat="49.15975" lon="4.04041">
        <ele>248.5</ele>
        <time>2026-08-21T07:47:04Z</time>
      </trkpt>
      <trkpt lat="49.15978" lon="4.04031">
        <ele>248.1</ele>
        <time>2026-08-21T07:47:10Z</time>
      </trkpt>
      <trkpt lat="49.15981" lon="4.04023">
        <ele>247.8</ele>
        <time>2026-08-21T07:47:15Z</time>
      </trkpt>
      <trkpt lat="49.15983" lon="4.04015">
        <ele>247.6</ele>
        <time>2026-08-21T07:47:20Z</time>
      </trkpt>
      <trkpt lat="49.15984" lon="4.04004">
        <ele>247.8</ele>
        <time>2026-08-21T07:47:26Z</time>
      </trkpt>
      <trkpt lat="49.15985" lon="4.03996">
        <ele>247.8</ele>
        <time>2026-08-21T07:47:31Z</time>
      </trkpt>
      <trkpt lat="49.15986" lon="4.03988">
        <ele>247.7</ele>
        <time>2026-08-21T07:47:36Z</time>
      </trkpt>
      <trkpt lat="49.15988" lon="4.03978">
        <ele>247.5</ele>
        <time>2026-08-21T07:47:42Z</time>
      </trkpt>
      <trkpt lat="49.15991" lon="4.0397">
        <ele>247.1</ele>
        <time>2026-08-21T07:47:47Z</time>
      </trkpt>
      <trkpt lat="49.15994" lon="4.03961">
        <ele>246.6</ele>
        <time>2026-08-21T07:47:52Z</time>
      </trkpt>
      <trkpt lat="49.15996" lon="4.03951">
        <ele>246.4</ele>
        <time>2026-08-21T07:47:58Z</time>
      </trkpt>
      <trkpt lat="49.15997" lon="4.03943">
        <ele>246.3</ele>
        <time>2026-08-21T07:48:03Z</time>
      </trkpt>
      <trkpt lat="49.15999" lon="4.03934">
        <ele>246</ele>
        <time>2026-08-21T07:48:08Z</time>
      </trkpt>
      <trkpt lat="49.15998" lon="4.03921">
        <ele>246.4</ele>
        <time>2026-08-21T07:48:14Z</time>
      </trkpt>
      <trkpt lat="49.15998" lon="4.03911">
        <ele>246.5</ele>
        <time>2026-08-21T07:48:19Z</time>
      </trkpt>
      <trkpt lat="49.15999" lon="4.03903">
        <ele>246.4</ele>
        <time>2026-08-21T07:48:24Z</time>
      </trkpt>
      <trkpt lat="49.15998" lon="4.03893">
        <ele>246.7</ele>
        <time>2026-08-21T07:48:30Z</time>
      </trkpt>
      <trkpt lat="49.15995" lon="4.03885">
        <ele>247.5</ele>
        <time>2026-08-21T07:48:35Z</time>
      </trkpt>
      <trkpt lat="49.15992" lon="4.03878">
        <ele>248.2</ele>
        <time>2026-08-21T07:48:40Z</time>
      </trkpt>
      <trkpt lat="49.15986" lon="4.03872">
        <ele>249.7</ele>
        <time>2026-08-21T07:48:46Z</time>
      </trkpt>
      <trkpt lat="49.15981" lon="4.03868">
        <ele>250.9</ele>
        <time>2026-08-21T07:48:51Z</time>
      </trkpt>
      <trkpt lat="49.15979" lon="4.03861">
        <ele>251.5</ele>
        <time>2026-08-21T07:48:56Z</time>
      </trkpt>
      <trkpt lat="49.15981" lon="4.03855">
        <ele>251.1</ele>
        <time>2026-08-21T07:49:02Z</time>
      </trkpt>
      <trkpt lat="49.15979" lon="4.03849">
        <ele>251.7</ele>
        <time>2026-08-21T07:49:07Z</time>
      </trkpt>
      <trkpt lat="49.15977" lon="4.03842">
        <ele>252.3</ele>
        <time>2026-08-21T07:49:12Z</time>
      </trkpt>
      <trkpt lat="49.15975" lon="4.03835">
        <ele>253</ele>
        <time>2026-08-21T07:49:18Z</time>
      </trkpt>
      <trkpt lat="49.15974" lon="4.03826">
        <ele>253.6</ele>
        <time>2026-08-21T07:49:23Z</time>
      </trkpt>
      <trkpt lat="49.15976" lon="4.03818">
        <ele>253.5</ele>
        <time>2026-08-21T07:49:28Z</time>
      </trkpt>
      <trkpt lat="49.15978" lon="4.03808">
        <ele>253.6</ele>
        <time>2026-08-21T07:49:34Z</time>
      </trkpt>
      <trkpt lat="49.1598" lon="4.038">
        <ele>253.5</ele>
        <time>2026-08-21T07:49:39Z</time>
      </trkpt>
      <trkpt lat="49.15983" lon="4.03794">
        <ele>253.2</ele>
        <time>2026-08-21T07:49:44Z</time>
      </trkpt>
      <trkpt lat="49.15986" lon="4.03789">
        <ele>252.8</ele>
        <time>2026-08-21T07:49:50Z</time>
      </trkpt>
      <trkpt lat="49.15986" lon="4.03787">
        <ele>252.9</ele>
        <time>2026-08-21T07:49:55Z</time>
      </trkpt>
      <trkpt lat="49.15986" lon="4.03785">
        <ele>253</ele>
        <time>2026-08-21T07:50:00Z</time>
      </trkpt>
      <trkpt lat="49.15985" lon="4.03785">
        <ele>253.2</ele>
        <time>2026-08-21T07:50:06Z</time>
      </trkpt>
      <trkpt lat="49.15985" lon="4.03785">
        <ele>253.2</ele>
        <time>2026-08-21T07:50:11Z</time>
      </trkpt>
      <trkpt lat="49.15985" lon="4.03785">
        <ele>253.2</ele>
        <time>2026-08-21T07:50:16Z</time>
      </trkpt>
      <trkpt lat="49.15985" lon="4.03785">
        <ele>253.2</ele>
        <time>2026-08-21T07:50:22Z</time>
      </trkpt>
      <trkpt lat="49.15993" lon="4.03782">
        <ele>251.6</ele>
        <time>2026-08-21T07:50:27Z</time>
      </trkpt>
      <trkpt lat="49.15998" lon="4.03779">
        <ele>250.7</ele>
        <time>2026-08-21T07:50:32Z</time>
      </trkpt>
      <trkpt lat="49.16002" lon="4.03773">
        <ele>250.3</ele>
        <time>2026-08-21T07:50:38Z</time>
      </trkpt>
      <trkpt lat="49.16004" lon="4.03767">
        <ele>250.3</ele>
        <time>2026-08-21T07:50:43Z</time>
      </trkpt>
      <trkpt lat="49.16006" lon="4.03762">
        <ele>250.2</ele>
        <time>2026-08-21T07:50:48Z</time>
      </trkpt>
      <trkpt lat="49.16009" lon="4.03755">
        <ele>250.1</ele>
        <time>2026-08-21T07:50:54Z</time>
      </trkpt>
      <trkpt lat="49.16014" lon="4.0375">
        <ele>249.5</ele>
        <time>2026-08-21T07:50:59Z</time>
      </trkpt>
      <trkpt lat="49.16019" lon="4.03745">
        <ele>248.7</ele>
        <time>2026-08-21T07:51:04Z</time>
      </trkpt>
      <trkpt lat="49.16024" lon="4.03738">
        <ele>248</ele>
        <time>2026-08-21T07:51:10Z</time>
      </trkpt>
      <trkpt lat="49.16028" lon="4.03732">
        <ele>247.5</ele>
        <time>2026-08-21T07:51:15Z</time>
      </trkpt>
      <trkpt lat="49.16031" lon="4.03726">
        <ele>247.1</ele>
        <time>2026-08-21T07:51:20Z</time>
      </trkpt>
      <trkpt lat="49.16032" lon="4.03718">
        <ele>247.2</ele>
        <time>2026-08-21T07:51:26Z</time>
      </trkpt>
      <trkpt lat="49.16035" lon="4.03711">
        <ele>246.8</ele>
        <time>2026-08-21T07:51:31Z</time>
      </trkpt>
      <trkpt lat="49.16039" lon="4.03704">
        <ele>246.3</ele>
        <time>2026-08-21T07:51:36Z</time>
      </trkpt>
      <trkpt lat="49.16042" lon="4.03695">
        <ele>246.1</ele>
        <time>2026-08-21T07:51:42Z</time>
      </trkpt>
      <trkpt lat="49.16044" lon="4.03687">
        <ele>246</ele>
        <time>2026-08-21T07:51:47Z</time>
      </trkpt>
      <trkpt lat="49.16045" lon="4.03677">
        <ele>246.1</ele>
        <time>2026-08-21T07:51:52Z</time>
      </trkpt>
      <trkpt lat="49.16048" lon="4.03667">
        <ele>245.9</ele>
        <time>2026-08-21T07:51:58Z</time>
      </trkpt>
      <trkpt lat="49.1605" lon="4.0366">
        <ele>246.1</ele>
        <time>2026-08-21T07:52:03Z</time>
      </trkpt>
      <trkpt lat="49.16051" lon="4.03652">
        <ele>246.6</ele>
        <time>2026-08-21T07:52:08Z</time>
      </trkpt>
      <trkpt lat="49.16053" lon="4.03643">
        <ele>246.9</ele>
        <time>2026-08-21T07:52:14Z</time>
      </trkpt>
      <trkpt lat="49.16054" lon="4.03634">
        <ele>247.4</ele>
        <time>2026-08-21T07:52:19Z</time>
      </trkpt>
      <trkpt lat="49.16054" lon="4.03627">
        <ele>248</ele>
        <time>2026-08-21T07:52:24Z</time>
      </trkpt>
      <trkpt lat="49.16057" lon="4.03618">
        <ele>248.1</ele>
        <time>2026-08-21T07:52:30Z</time>
      </trkpt>
      <trkpt lat="49.16059" lon="4.03612">
        <ele>248.2</ele>
        <time>2026-08-21T07:52:35Z</time>
      </trkpt>
      <trkpt lat="49.16062" lon="4.03604">
        <ele>248.3</ele>
        <time>2026-08-21T07:52:40Z</time>
      </trkpt>
      <trkpt lat="49.16063" lon="4.03596">
        <ele>248.7</ele>
        <time>2026-08-21T07:52:46Z</time>
      </trkpt>
      <trkpt lat="49.16065" lon="4.03586">
        <ele>249.1</ele>
        <time>2026-08-21T07:52:51Z</time>
      </trkpt>
      <trkpt lat="49.16067" lon="4.03577">
        <ele>249.5</ele>
        <time>2026-08-21T07:52:56Z</time>
      </trkpt>
      <trkpt lat="49.16068" lon="4.03568">
        <ele>250.2</ele>
        <time>2026-08-21T07:53:02Z</time>
      </trkpt>
      <trkpt lat="49.16067" lon="4.0356">
        <ele>251.1</ele>
        <time>2026-08-21T07:53:07Z</time>
      </trkpt>
      <trkpt lat="49.16066" lon="4.03553">
        <ele>251.9</ele>
        <time>2026-08-21T07:53:12Z</time>
      </trkpt>
      <trkpt lat="49.16064" lon="4.03545">
        <ele>252.9</ele>
        <time>2026-08-21T07:53:18Z</time>
      </trkpt>
      <trkpt lat="49.1606" lon="4.0354">
        <ele>254.1</ele>
        <time>2026-08-21T07:53:23Z</time>
      </trkpt>
      <trkpt lat="49.16057" lon="4.03535">
        <ele>255</ele>
        <time>2026-08-21T07:53:28Z</time>
      </trkpt>
      <trkpt lat="49.16056" lon="4.03533">
        <ele>255.4</ele>
        <time>2026-08-21T07:53:34Z</time>
      </trkpt>
      <trkpt lat="49.16056" lon="4.03533">
        <ele>255.4</ele>
        <time>2026-08-21T07:53:39Z</time>
      </trkpt>
      <trkpt lat="49.16056" lon="4.03533">
        <ele>255.4</ele>
        <time>2026-08-21T07:53:44Z</time>
      </trkpt>
      <trkpt lat="49.16056" lon="4.03533">
        <ele>255.4</ele>
        <time>2026-08-21T07:53:50Z</time>
      </trkpt>
      <trkpt lat="49.16056" lon="4.03533">
        <ele>255.4</ele>
        <time>2026-08-21T07:53:55Z</time>
      </trkpt>
      <trkpt lat="49.16056" lon="4.03533">
        <ele>255.4</ele>
        <time>2026-08-21T07:54:00Z</time>
      </trkpt>
      <trkpt lat="49.16056" lon="4.03533">
        <ele>255.4</ele>
        <time>2026-08-21T07:54:06Z</time>
      </trkpt>
      <trkpt lat="49.16056" lon="4.03533">
        <ele>255.4</ele>
        <time>2026-08-21T07:54:11Z</time>
      </trkpt>
      <trkpt lat="49.16056" lon="4.03533">
        <ele>255.4</ele>
        <time>2026-08-21T07:54:16Z</time>
      </trkpt>
      <trkpt lat="49.16056" lon="4.03533">
        <ele>255.4</ele>
        <time>2026-08-21T07:54:22Z</time>
      </trkpt>
      <trkpt lat="49.16056" lon="4.03533">
        <ele>255.4</ele>
        <time>2026-08-21T07:54:27Z</time>
      </trkpt>
      <trkpt lat="49.16056" lon="4.03533">
        <ele>255.4</ele>
        <time>2026-08-21T07:54:32Z</time>
      </trkpt>
      <trkpt lat="49.16056" lon="4.03533">
        <ele>255.4</ele>
        <time>2026-08-21T07:54:38Z</time>
      </trkpt>
      <trkpt lat="49.16056" lon="4.03533">
        <ele>255.4</ele>
        <time>2026-08-21T07:54:43Z</time>
      </trkpt>
      <trkpt lat="49.16056" lon="4.03533">
        <ele>255.4</ele>
        <time>2026-08-21T07:54:48Z</time>
      </trkpt>
      <trkpt lat="49.16056" lon="4.03533">
        <ele>255.4</ele>
        <time>2026-08-21T07:54:54Z</time>
      </trkpt>
      <trkpt lat="49.16056" lon="4.03533">
        <ele>255.4</ele>
        <time>2026-08-21T07:54:59Z</time>
      </trkpt>
      <trkpt lat="49.16056" lon="4.03533">
        <ele>255.4</ele>
        <time>2026-08-21T07:55:04Z</time>
      </trkpt>
      <trkpt lat="49.16056" lon="4.03533">
        <ele>255.4</ele>
        <time>2026-08-21T07:55:10Z</time>
      </trkpt>
      <trkpt lat="49.16056" lon="4.03533">
        <ele>255.4</ele>
        <time>2026-08-21T07:55:15Z</time>
      </trkpt>
      <trkpt lat="49.16056" lon="4.03533">
        <ele>255.4</ele>
        <time>2026-08-21T07:55:20Z</time>
      </trkpt>
      <trkpt lat="49.16054" lon="4.03529">
        <ele>256</ele>
        <time>2026-08-21T07:55:26Z</time>
      </trkpt>
      <trkpt lat="49.1605" lon="4.03524">
        <ele>257.1</ele>
        <time>2026-08-21T07:55:31Z</time>
      </trkpt>
      <trkpt lat="49.16046" lon="4.03523">
        <ele>257.9</ele>
        <time>2026-08-21T07:55:36Z</time>
      </trkpt>
      <trkpt lat="49.16043" lon="4.03522">
        <ele>258.4</ele>
        <time>2026-08-21T07:55:42Z</time>
      </trkpt>
      <trkpt lat="49.16039" lon="4.03522">
        <ele>259.1</ele>
        <time>2026-08-21T07:55:47Z</time>
      </trkpt>
      <trkpt lat="49.16033" lon="4.03522">
        <ele>260.1</ele>
        <time>2026-08-21T07:55:52Z</time>
      </trkpt>
      <trkpt lat="49.16027" lon="4.03523">
        <ele>261</ele>
        <time>2026-08-21T07:55:58Z</time>
      </trkpt>
      <trkpt lat="49.16022" lon="4.03526">
        <ele>261.5</ele>
        <time>2026-08-21T07:56:03Z</time>
      </trkpt>
      <trkpt lat="49.16015" lon="4.03529">
        <ele>262.4</ele>
        <time>2026-08-21T07:56:08Z</time>
      </trkpt>
      <trkpt lat="49.16009" lon="4.03531">
        <ele>263.3</ele>
        <time>2026-08-21T07:56:14Z</time>
      </trkpt>
      <trkpt lat="49.16004" lon="4.03536">
        <ele>263.7</ele>
        <time>2026-08-21T07:56:19Z</time>
      </trkpt>
      <trkpt lat="49.15999" lon="4.0354">
        <ele>264.2</ele>
        <time>2026-08-21T07:56:24Z</time>
      </trkpt>
      <trkpt lat="49.15995" lon="4.03546">
        <ele>264.2</ele>
        <time>2026-08-21T07:56:30Z</time>
      </trkpt>
      <trkpt lat="49.15992" lon="4.03551">
        <ele>264.1</ele>
        <time>2026-08-21T07:56:35Z</time>
      </trkpt>
      <trkpt lat="49.15989" lon="4.03555">
        <ele>264.2</ele>
        <time>2026-08-21T07:56:40Z</time>
      </trkpt>
      <trkpt lat="49.15984" lon="4.03561">
        <ele>264.3</ele>
        <time>2026-08-21T07:56:46Z</time>
      </trkpt>
      <trkpt lat="49.1598" lon="4.03563">
        <ele>264.6</ele>
        <time>2026-08-21T07:56:51Z</time>
      </trkpt>
      <trkpt lat="49.15977" lon="4.03566">
        <ele>264.8</ele>
        <time>2026-08-21T07:56:56Z</time>
      </trkpt>
      <trkpt lat="49.15973" lon="4.0357">
        <ele>265</ele>
        <time>2026-08-21T07:57:02Z</time>
      </trkpt>
      <trkpt lat="49.1597" lon="4.03575">
        <ele>265.1</ele>
        <time>2026-08-21T07:57:07Z</time>
      </trkpt>
      <trkpt lat="49.15967" lon="4.03581">
        <ele>265.1</ele>
        <time>2026-08-21T07:57:12Z</time>
      </trkpt>
      <trkpt lat="49.15963" lon="4.03588">
        <ele>265.3</ele>
        <time>2026-08-21T07:57:18Z</time>
      </trkpt>
      <trkpt lat="49.15959" lon="4.03595">
        <ele>265.6</ele>
        <time>2026-08-21T07:57:23Z</time>
      </trkpt>
      <trkpt lat="49.15957" lon="4.03602">
        <ele>265.6</ele>
        <time>2026-08-21T07:57:28Z</time>
      </trkpt>
      <trkpt lat="49.15952" lon="4.03609">
        <ele>266.2</ele>
        <time>2026-08-21T07:57:34Z</time>
      </trkpt>
      <trkpt lat="49.15948" lon="4.03614">
        <ele>266.7</ele>
        <time>2026-08-21T07:57:39Z</time>
      </trkpt>
      <trkpt lat="49.15945" lon="4.03617">
        <ele>267.2</ele>
        <time>2026-08-21T07:57:44Z</time>
      </trkpt>
      <trkpt lat="49.1594" lon="4.03623">
        <ele>268</ele>
        <time>2026-08-21T07:57:50Z</time>
      </trkpt>
      <trkpt lat="49.15935" lon="4.03628">
        <ele>268.8</ele>
        <time>2026-08-21T07:57:55Z</time>
      </trkpt>
      <trkpt lat="49.15931" lon="4.03633">
        <ele>269.5</ele>
        <time>2026-08-21T07:58:00Z</time>
      </trkpt>
      <trkpt lat="49.15926" lon="4.03637">
        <ele>270.5</ele>
        <time>2026-08-21T07:58:06Z</time>
      </trkpt>
      <trkpt lat="49.15922" lon="4.03642">
        <ele>271.4</ele>
        <time>2026-08-21T07:58:11Z</time>
      </trkpt>
      <trkpt lat="49.15918" lon="4.03648">
        <ele>272.3</ele>
        <time>2026-08-21T07:58:16Z</time>
      </trkpt>
      <trkpt lat="49.15914" lon="4.03654">
        <ele>272.8</ele>
        <time>2026-08-21T07:58:22Z</time>
      </trkpt>
      <trkpt lat="49.1591" lon="4.03658">
        <ele>273</ele>
        <time>2026-08-21T07:58:27Z</time>
      </trkpt>
      <trkpt lat="49.15906" lon="4.03664">
        <ele>273.2</ele>
        <time>2026-08-21T07:58:32Z</time>
      </trkpt>
      <trkpt lat="49.15902" lon="4.03672">
        <ele>273.1</ele>
        <time>2026-08-21T07:58:38Z</time>
      </trkpt>
      <trkpt lat="49.15899" lon="4.03679">
        <ele>273</ele>
        <time>2026-08-21T07:58:43Z</time>
      </trkpt>
      <trkpt lat="49.15896" lon="4.03684">
        <ele>272.9</ele>
        <time>2026-08-21T07:58:48Z</time>
      </trkpt>
      <trkpt lat="49.15892" lon="4.03683">
        <ele>273</ele>
        <time>2026-08-21T07:58:54Z</time>
      </trkpt>
      <trkpt lat="49.15891" lon="4.03682">
        <ele>273.1</ele>
        <time>2026-08-21T07:58:59Z</time>
      </trkpt>
      <trkpt lat="49.15893" lon="4.03681">
        <ele>273.1</ele>
        <time>2026-08-21T07:59:04Z</time>
      </trkpt>
      <trkpt lat="49.15893" lon="4.03681">
        <ele>273.1</ele>
        <time>2026-08-21T07:59:10Z</time>
      </trkpt>
      <trkpt lat="49.15893" lon="4.03681">
        <ele>273.1</ele>
        <time>2026-08-21T07:59:15Z</time>
      </trkpt>
      <trkpt lat="49.15893" lon="4.03681">
        <ele>273.1</ele>
        <time>2026-08-21T07:59:20Z</time>
      </trkpt>
      <trkpt lat="49.15893" lon="4.03681">
        <ele>273.1</ele>
        <time>2026-08-21T07:59:26Z</time>
      </trkpt>
      <trkpt lat="49.15893" lon="4.03681">
        <ele>273.1</ele>
        <time>2026-08-21T07:59:31Z</time>
      </trkpt>
      <trkpt lat="49.15893" lon="4.03681">
        <ele>273.1</ele>
        <time>2026-08-21T07:59:36Z</time>
      </trkpt>
      <trkpt lat="49.15893" lon="4.03681">
        <ele>273.1</ele>
        <time>2026-08-21T07:59:42Z</time>
      </trkpt>
      <trkpt lat="49.15893" lon="4.03681">
        <ele>273.1</ele>
        <time>2026-08-21T07:59:47Z</time>
      </trkpt>
      <trkpt lat="49.15893" lon="4.03681">
        <ele>273.1</ele>
        <time>2026-08-21T07:59:52Z</time>
      </trkpt>
      <trkpt lat="49.15893" lon="4.03681">
        <ele>273.1</ele>
        <time>2026-08-21T07:59:58Z</time>
      </trkpt>
      <trkpt lat="49.15893" lon="4.03681">
        <ele>273.1</ele>
        <time>2026-08-21T08:00:03Z</time>
      </trkpt>
      <trkpt lat="49.15893" lon="4.03681">
        <ele>273.1</ele>
        <time>2026-08-21T08:00:08Z</time>
      </trkpt>
      <trkpt lat="49.15893" lon="4.03681">
        <ele>273.1</ele>
        <time>2026-08-21T08:00:14Z</time>
      </trkpt>
      <trkpt lat="49.15893" lon="4.03681">
        <ele>273.1</ele>
        <time>2026-08-21T08:00:19Z</time>
      </trkpt>
      <trkpt lat="49.15893" lon="4.03681">
        <ele>273.1</ele>
        <time>2026-08-21T08:00:24Z</time>
      </trkpt>
      <trkpt lat="49.15893" lon="4.03681">
        <ele>273.1</ele>
        <time>2026-08-21T08:00:30Z</time>
      </trkpt>
      <trkpt lat="49.15893" lon="4.03681">
        <ele>273.1</ele>
        <time>2026-08-21T08:00:35Z</time>
      </trkpt>
      <trkpt lat="49.15893" lon="4.03681">
        <ele>273.1</ele>
        <time>2026-08-21T08:00:40Z</time>
      </trkpt>
      <trkpt lat="49.15893" lon="4.03681">
        <ele>273.1</ele>
        <time>2026-08-21T08:00:46Z</time>
      </trkpt>
      <trkpt lat="49.15893" lon="4.03681">
        <ele>273.1</ele>
        <time>2026-08-21T08:00:51Z</time>
      </trkpt>
      <trkpt lat="49.15893" lon="4.03681">
        <ele>273.1</ele>
        <time>2026-08-21T08:00:56Z</time>
      </trkpt>
      <trkpt lat="49.15893" lon="4.03681">
        <ele>273.1</ele>
        <time>2026-08-21T08:01:02Z</time>
      </trkpt>
      <trkpt lat="49.15893" lon="4.03681">
        <ele>273.1</ele>
        <time>2026-08-21T08:01:07Z</time>
      </trkpt>
      <trkpt lat="49.15893" lon="4.03681">
        <ele>273.1</ele>
        <time>2026-08-21T08:01:12Z</time>
      </trkpt>
      <trkpt lat="49.15893" lon="4.03681">
        <ele>273.1</ele>
        <time>2026-08-21T08:01:18Z</time>
      </trkpt>
      <trkpt lat="49.15893" lon="4.03681">
        <ele>273.1</ele>
        <time>2026-08-21T08:01:23Z</time>
      </trkpt>
      <trkpt lat="49.15893" lon="4.03681">
        <ele>273.1</ele>
        <time>2026-08-21T08:01:28Z</time>
      </trkpt>
      <trkpt lat="49.15893" lon="4.03681">
        <ele>273.1</ele>
        <time>2026-08-21T08:01:34Z</time>
      </trkpt>
      <trkpt lat="49.15893" lon="4.03681">
        <ele>273.1</ele>
        <time>2026-08-21T08:01:39Z</time>
      </trkpt>
      <trkpt lat="49.15893" lon="4.03681">
        <ele>273.1</ele>
        <time>2026-08-21T08:01:44Z</time>
      </trkpt>
      <trkpt lat="49.15893" lon="4.03681">
        <ele>273.1</ele>
        <time>2026-08-21T08:01:50Z</time>
      </trkpt>
      <trkpt lat="49.15893" lon="4.03681">
        <ele>273.1</ele>
        <time>2026-08-21T08:01:55Z</time>
      </trkpt>
      <trkpt lat="49.15893" lon="4.03681">
        <ele>273.1</ele>
        <time>2026-08-21T08:02:00Z</time>
      </trkpt>
      <trkpt lat="49.15893" lon="4.03681">
        <ele>273.1</ele>
        <time>2026-08-21T08:02:06Z</time>
      </trkpt>
      <trkpt lat="49.15893" lon="4.03681">
        <ele>273.1</ele>
        <time>2026-08-21T08:02:11Z</time>
      </trkpt>
      <trkpt lat="49.15893" lon="4.03681">
        <ele>273.1</ele>
        <time>2026-08-21T08:02:16Z</time>
      </trkpt>
      <trkpt lat="49.15893" lon="4.03681">
        <ele>273.1</ele>
        <time>2026-08-21T08:02:22Z</time>
      </trkpt>
      <trkpt lat="49.15893" lon="4.03681">
        <ele>273.1</ele>
        <time>2026-08-21T08:02:27Z</time>
      </trkpt>
      <trkpt lat="49.15893" lon="4.03681">
        <ele>273.1</ele>
        <time>2026-08-21T08:02:32Z</time>
      </trkpt>
      <trkpt lat="49.15893" lon="4.03681">
        <ele>273.1</ele>
        <time>2026-08-21T08:02:38Z</time>
      </trkpt>
      <trkpt lat="49.15893" lon="4.03681">
        <ele>273.1</ele>
        <time>2026-08-21T08:02:43Z</time>
      </trkpt>
      <trkpt lat="49.15893" lon="4.03681">
        <ele>273.1</ele>
        <time>2026-08-21T08:02:48Z</time>
      </trkpt>
      <trkpt lat="49.15893" lon="4.03681">
        <ele>273.1</ele>
        <time>2026-08-21T08:02:54Z</time>
      </trkpt>
      <trkpt lat="49.15893" lon="4.03681">
        <ele>273.1</ele>
        <time>2026-08-21T08:02:59Z</time>
      </trkpt>
      <trkpt lat="49.15888" lon="4.03683">
        <ele>273.2</ele>
        <time>2026-08-21T08:03:04Z</time>
      </trkpt>
      <trkpt lat="49.15884" lon="4.03678">
        <ele>273.5</ele>
        <time>2026-08-21T08:03:10Z</time>
      </trkpt>
      <trkpt lat="49.15883" lon="4.03678">
        <ele>273.5</ele>
        <time>2026-08-21T08:03:15Z</time>
      </trkpt>
      <trkpt lat="49.15882" lon="4.03678">
        <ele>273.5</ele>
        <time>2026-08-21T08:03:20Z</time>
      </trkpt>
      <trkpt lat="49.15879" lon="4.03672">
        <ele>273.8</ele>
        <time>2026-08-21T08:03:26Z</time>
      </trkpt>
      <trkpt lat="49.15879" lon="4.03672">
        <ele>273.8</ele>
        <time>2026-08-21T08:03:31Z</time>
      </trkpt>
      <trkpt lat="49.15879" lon="4.03672">
        <ele>273.8</ele>
        <time>2026-08-21T08:03:36Z</time>
      </trkpt>
      <trkpt lat="49.15879" lon="4.03672">
        <ele>273.8</ele>
        <time>2026-08-21T08:03:42Z</time>
      </trkpt>
      <trkpt lat="49.15871" lon="4.03665">
        <ele>274.1</ele>
        <time>2026-08-21T08:03:47Z</time>
      </trkpt>
      <trkpt lat="49.15868" lon="4.03664">
        <ele>274.1</ele>
        <time>2026-08-21T08:03:52Z</time>
      </trkpt>
      <trkpt lat="49.15866" lon="4.03662">
        <ele>274.2</ele>
        <time>2026-08-21T08:03:58Z</time>
      </trkpt>
      <trkpt lat="49.15864" lon="4.03658">
        <ele>274.2</ele>
        <time>2026-08-21T08:04:03Z</time>
      </trkpt>
      <trkpt lat="49.15861" lon="4.03654">
        <ele>274.2</ele>
        <time>2026-08-21T08:04:08Z</time>
      </trkpt>
      <trkpt lat="49.15861" lon="4.03649">
        <ele>274.2</ele>
        <time>2026-08-21T08:04:14Z</time>
      </trkpt>
      <trkpt lat="49.15861" lon="4.03642">
        <ele>274.1</ele>
        <time>2026-08-21T08:04:19Z</time>
      </trkpt>
      <trkpt lat="49.15862" lon="4.03637">
        <ele>274.1</ele>
        <time>2026-08-21T08:04:24Z</time>
      </trkpt>
      <trkpt lat="49.15864" lon="4.03636">
        <ele>274</ele>
        <time>2026-08-21T08:04:30Z</time>
      </trkpt>
      <trkpt lat="49.15864" lon="4.03636">
        <ele>274</ele>
        <time>2026-08-21T08:04:35Z</time>
      </trkpt>
      <trkpt lat="49.15864" lon="4.03636">
        <ele>274</ele>
        <time>2026-08-21T08:04:40Z</time>
      </trkpt>
      <trkpt lat="49.15864" lon="4.03636">
        <ele>274</ele>
        <time>2026-08-21T08:04:46Z</time>
      </trkpt>
      <trkpt lat="49.15864" lon="4.03636">
        <ele>274</ele>
        <time>2026-08-21T08:04:51Z</time>
      </trkpt>
      <trkpt lat="49.15868" lon="4.0363">
        <ele>273.8</ele>
        <time>2026-08-21T08:04:56Z</time>
      </trkpt>
      <trkpt lat="49.15867" lon="4.03623">
        <ele>273.8</ele>
        <time>2026-08-21T08:05:02Z</time>
      </trkpt>
      <trkpt lat="49.15865" lon="4.03617">
        <ele>273.8</ele>
        <time>2026-08-21T08:05:07Z</time>
      </trkpt>
      <trkpt lat="49.15862" lon="4.03608">
        <ele>273.8</ele>
        <time>2026-08-21T08:05:12Z</time>
      </trkpt>
      <trkpt lat="49.15858" lon="4.03601">
        <ele>273.9</ele>
        <time>2026-08-21T08:05:18Z</time>
      </trkpt>
      <trkpt lat="49.15856" lon="4.03595">
        <ele>274</ele>
        <time>2026-08-21T08:05:23Z</time>
      </trkpt>
      <trkpt lat="49.15851" lon="4.03588">
        <ele>274.2</ele>
        <time>2026-08-21T08:05:28Z</time>
      </trkpt>
      <trkpt lat="49.15846" lon="4.03581">
        <ele>274.4</ele>
        <time>2026-08-21T08:05:34Z</time>
      </trkpt>
      <trkpt lat="49.15842" lon="4.03578">
        <ele>274.5</ele>
        <time>2026-08-21T08:05:39Z</time>
      </trkpt>
      <trkpt lat="49.15839" lon="4.03574">
        <ele>274.6</ele>
        <time>2026-08-21T08:05:44Z</time>
      </trkpt>
      <trkpt lat="49.15834" lon="4.03574">
        <ele>274.9</ele>
        <time>2026-08-21T08:05:50Z</time>
      </trkpt>
      <trkpt lat="49.15827" lon="4.03573">
        <ele>274.8</ele>
        <time>2026-08-21T08:05:55Z</time>
      </trkpt>
      <trkpt lat="49.15822" lon="4.03573">
        <ele>274.7</ele>
        <time>2026-08-21T08:06:00Z</time>
      </trkpt>
      <trkpt lat="49.15816" lon="4.03574">
        <ele>274.7</ele>
        <time>2026-08-21T08:06:06Z</time>
      </trkpt>
      <trkpt lat="49.1581" lon="4.03577">
        <ele>274.6</ele>
        <time>2026-08-21T08:06:11Z</time>
      </trkpt>
      <trkpt lat="49.15805" lon="4.03578">
        <ele>274.6</ele>
        <time>2026-08-21T08:06:16Z</time>
      </trkpt>
      <trkpt lat="49.15797" lon="4.03579">
        <ele>274.5</ele>
        <time>2026-08-21T08:06:22Z</time>
      </trkpt>
      <trkpt lat="49.15792" lon="4.0358">
        <ele>274.5</ele>
        <time>2026-08-21T08:06:27Z</time>
      </trkpt>
      <trkpt lat="49.15787" lon="4.03582">
        <ele>274.4</ele>
        <time>2026-08-21T08:06:32Z</time>
      </trkpt>
      <trkpt lat="49.15783" lon="4.03583">
        <ele>274.4</ele>
        <time>2026-08-21T08:06:38Z</time>
      </trkpt>
      <trkpt lat="49.15779" lon="4.03584">
        <ele>274.4</ele>
        <time>2026-08-21T08:06:43Z</time>
      </trkpt>
      <trkpt lat="49.15774" lon="4.03588">
        <ele>274.4</ele>
        <time>2026-08-21T08:06:48Z</time>
      </trkpt>
      <trkpt lat="49.15768" lon="4.0359">
        <ele>274.3</ele>
        <time>2026-08-21T08:06:54Z</time>
      </trkpt>
      <trkpt lat="49.15764" lon="4.03592">
        <ele>274.3</ele>
        <time>2026-08-21T08:06:59Z</time>
      </trkpt>
      <trkpt lat="49.15758" lon="4.03594">
        <ele>274.3</ele>
        <time>2026-08-21T08:07:04Z</time>
      </trkpt>
      <trkpt lat="49.15752" lon="4.03594">
        <ele>274.3</ele>
        <time>2026-08-21T08:07:10Z</time>
      </trkpt>
      <trkpt lat="49.15747" lon="4.03595">
        <ele>274.3</ele>
        <time>2026-08-21T08:07:15Z</time>
      </trkpt>
      <trkpt lat="49.1574" lon="4.03597">
        <ele>274.4</ele>
        <time>2026-08-21T08:07:20Z</time>
      </trkpt>
      <trkpt lat="49.15735" lon="4.03598">
        <ele>274.5</ele>
        <time>2026-08-21T08:07:26Z</time>
      </trkpt>
      <trkpt lat="49.15732" lon="4.036">
        <ele>274.5</ele>
        <time>2026-08-21T08:07:31Z</time>
      </trkpt>
      <trkpt lat="49.15728" lon="4.03599">
        <ele>274.5</ele>
        <time>2026-08-21T08:07:36Z</time>
      </trkpt>
      <trkpt lat="49.15722" lon="4.03599">
        <ele>274.6</ele>
        <time>2026-08-21T08:07:42Z</time>
      </trkpt>
      <trkpt lat="49.15718" lon="4.03596">
        <ele>274.6</ele>
        <time>2026-08-21T08:07:47Z</time>
      </trkpt>
      <trkpt lat="49.15717" lon="4.03594">
        <ele>274.6</ele>
        <time>2026-08-21T08:07:52Z</time>
      </trkpt>
      <trkpt lat="49.15717" lon="4.03594">
        <ele>274.6</ele>
        <time>2026-08-21T08:07:58Z</time>
      </trkpt>
      <trkpt lat="49.15717" lon="4.03594">
        <ele>274.6</ele>
        <time>2026-08-21T08:08:03Z</time>
      </trkpt>
      <trkpt lat="49.15717" lon="4.03594">
        <ele>274.6</ele>
        <time>2026-08-21T08:08:08Z</time>
      </trkpt>
      <trkpt lat="49.15717" lon="4.03594">
        <ele>274.6</ele>
        <time>2026-08-21T08:08:14Z</time>
      </trkpt>
      <trkpt lat="49.15717" lon="4.03594">
        <ele>274.6</ele>
        <time>2026-08-21T08:08:19Z</time>
      </trkpt>
      <trkpt lat="49.15717" lon="4.03594">
        <ele>274.6</ele>
        <time>2026-08-21T08:08:24Z</time>
      </trkpt>
      <trkpt lat="49.15717" lon="4.03594">
        <ele>274.6</ele>
        <time>2026-08-21T08:08:30Z</time>
      </trkpt>
      <trkpt lat="49.15717" lon="4.03594">
        <ele>274.6</ele>
        <time>2026-08-21T08:08:35Z</time>
      </trkpt>
      <trkpt lat="49.15717" lon="4.03594">
        <ele>274.6</ele>
        <time>2026-08-21T08:08:40Z</time>
      </trkpt>
      <trkpt lat="49.15717" lon="4.03594">
        <ele>274.6</ele>
        <time>2026-08-21T08:08:46Z</time>
      </trkpt>
      <trkpt lat="49.15717" lon="4.03594">
        <ele>274.6</ele>
        <time>2026-08-21T08:08:51Z</time>
      </trkpt>
      <trkpt lat="49.15717" lon="4.03594">
        <ele>274.6</ele>
        <time>2026-08-21T08:08:56Z</time>
      </trkpt>
      <trkpt lat="49.15717" lon="4.03594">
        <ele>274.6</ele>
        <time>2026-08-21T08:09:02Z</time>
      </trkpt>
      <trkpt lat="49.15717" lon="4.03594">
        <ele>274.6</ele>
        <time>2026-08-21T08:09:07Z</time>
      </trkpt>
      <trkpt lat="49.15717" lon="4.03594">
        <ele>274.6</ele>
        <time>2026-08-21T08:09:12Z</time>
      </trkpt>
      <trkpt lat="49.15717" lon="4.03594">
        <ele>274.6</ele>
        <time>2026-08-21T08:09:18Z</time>
      </trkpt>
      <trkpt lat="49.15717" lon="4.03594">
        <ele>274.6</ele>
        <time>2026-08-21T08:09:23Z</time>
      </trkpt>
      <trkpt lat="49.15717" lon="4.03594">
        <ele>274.6</ele>
        <time>2026-08-21T08:09:28Z</time>
      </trkpt>
      <trkpt lat="49.15717" lon="4.03594">
        <ele>274.6</ele>
        <time>2026-08-21T08:09:34Z</time>
      </trkpt>
      <trkpt lat="49.15717" lon="4.03594">
        <ele>274.6</ele>
        <time>2026-08-21T08:09:39Z</time>
      </trkpt>
      <trkpt lat="49.15717" lon="4.03594">
        <ele>274.6</ele>
        <time>2026-08-21T08:09:44Z</time>
      </trkpt>
      <trkpt lat="49.15709" lon="4.03595">
        <ele>274.6</ele>
        <time>2026-08-21T08:09:50Z</time>
      </trkpt>
      <trkpt lat="49.15703" lon="4.03592">
        <ele>274.7</ele>
        <time>2026-08-21T08:09:55Z</time>
      </trkpt>
      <trkpt lat="49.15698" lon="4.03591">
        <ele>274.7</ele>
        <time>2026-08-21T08:10:00Z</time>
      </trkpt>
      <trkpt lat="49.15691" lon="4.03588">
        <ele>274.7</ele>
        <time>2026-08-21T08:10:06Z</time>
      </trkpt>
      <trkpt lat="49.15686" lon="4.03585">
        <ele>274.8</ele>
        <time>2026-08-21T08:10:11Z</time>
      </trkpt>
      <trkpt lat="49.15686" lon="4.03585">
        <ele>274.8</ele>
        <time>2026-08-21T08:10:16Z</time>
      </trkpt>
      <trkpt lat="49.15686" lon="4.03585">
        <ele>274.8</ele>
        <time>2026-08-21T08:10:22Z</time>
      </trkpt>
      <trkpt lat="49.15686" lon="4.03585">
        <ele>274.8</ele>
        <time>2026-08-21T08:10:27Z</time>
      </trkpt>
      <trkpt lat="49.15686" lon="4.03585">
        <ele>274.8</ele>
        <time>2026-08-21T08:10:32Z</time>
      </trkpt>
      <trkpt lat="49.15686" lon="4.03585">
        <ele>274.8</ele>
        <time>2026-08-21T08:10:38Z</time>
      </trkpt>
      <trkpt lat="49.15686" lon="4.03585">
        <ele>274.8</ele>
        <time>2026-08-21T08:10:43Z</time>
      </trkpt>
      <trkpt lat="49.15686" lon="4.03585">
        <ele>274.8</ele>
        <time>2026-08-21T08:10:48Z</time>
      </trkpt>
      <trkpt lat="49.15686" lon="4.03585">
        <ele>274.8</ele>
        <time>2026-08-21T08:10:54Z</time>
      </trkpt>
      <trkpt lat="49.15682" lon="4.03578">
        <ele>274.8</ele>
        <time>2026-08-21T08:10:59Z</time>
      </trkpt>
      <trkpt lat="49.15682" lon="4.03578">
        <ele>274.8</ele>
        <time>2026-08-21T08:11:04Z</time>
      </trkpt>
      <trkpt lat="49.15682" lon="4.03578">
        <ele>274.8</ele>
        <time>2026-08-21T08:11:10Z</time>
      </trkpt>
      <trkpt lat="49.15682" lon="4.03578">
        <ele>274.8</ele>
        <time>2026-08-21T08:11:15Z</time>
      </trkpt>
      <trkpt lat="49.15682" lon="4.03578">
        <ele>274.8</ele>
        <time>2026-08-21T08:11:20Z</time>
      </trkpt>
      <trkpt lat="49.15682" lon="4.03578">
        <ele>274.8</ele>
        <time>2026-08-21T08:11:26Z</time>
      </trkpt>
      <trkpt lat="49.15677" lon="4.03579">
        <ele>274.9</ele>
        <time>2026-08-21T08:11:31Z</time>
      </trkpt>
      <trkpt lat="49.15676" lon="4.03575">
        <ele>274.9</ele>
        <time>2026-08-21T08:11:36Z</time>
      </trkpt>
      <trkpt lat="49.15676" lon="4.03575">
        <ele>274.9</ele>
        <time>2026-08-21T08:11:42Z</time>
      </trkpt>
      <trkpt lat="49.15676" lon="4.03575">
        <ele>274.9</ele>
        <time>2026-08-21T08:11:47Z</time>
      </trkpt>
      <trkpt lat="49.15669" lon="4.03568">
        <ele>275</ele>
        <time>2026-08-21T08:11:52Z</time>
      </trkpt>
      <trkpt lat="49.15664" lon="4.0357">
        <ele>275.1</ele>
        <time>2026-08-21T08:11:58Z</time>
      </trkpt>
      <trkpt lat="49.15661" lon="4.03569">
        <ele>275.2</ele>
        <time>2026-08-21T08:12:03Z</time>
      </trkpt>
      <trkpt lat="49.15657" lon="4.03567">
        <ele>275.3</ele>
        <time>2026-08-21T08:12:08Z</time>
      </trkpt>
      <trkpt lat="49.15653" lon="4.03563">
        <ele>275.4</ele>
        <time>2026-08-21T08:12:14Z</time>
      </trkpt>
      <trkpt lat="49.15649" lon="4.03562">
        <ele>275.5</ele>
        <time>2026-08-21T08:12:19Z</time>
      </trkpt>
      <trkpt lat="49.15649" lon="4.03561">
        <ele>275.5</ele>
        <time>2026-08-21T08:12:24Z</time>
      </trkpt>
      <trkpt lat="49.15649" lon="4.03561">
        <ele>275.5</ele>
        <time>2026-08-21T08:12:30Z</time>
      </trkpt>
      <trkpt lat="49.15649" lon="4.03561">
        <ele>275.5</ele>
        <time>2026-08-21T08:12:35Z</time>
      </trkpt>
      <trkpt lat="49.15644" lon="4.0356">
        <ele>275.7</ele>
        <time>2026-08-21T08:12:40Z</time>
      </trkpt>
      <trkpt lat="49.15638" lon="4.03557">
        <ele>275.9</ele>
        <time>2026-08-21T08:12:46Z</time>
      </trkpt>
      <trkpt lat="49.15633" lon="4.03554">
        <ele>276.1</ele>
        <time>2026-08-21T08:12:51Z</time>
      </trkpt>
      <trkpt lat="49.15626" lon="4.03549">
        <ele>276.4</ele>
        <time>2026-08-21T08:12:56Z</time>
      </trkpt>
      <trkpt lat="49.15619" lon="4.03547">
        <ele>276.6</ele>
        <time>2026-08-21T08:13:02Z</time>
      </trkpt>
      <trkpt lat="49.15614" lon="4.03544">
        <ele>276.9</ele>
        <time>2026-08-21T08:13:07Z</time>
      </trkpt>
      <trkpt lat="49.15608" lon="4.0354">
        <ele>277.1</ele>
        <time>2026-08-21T08:13:12Z</time>
      </trkpt>
      <trkpt lat="49.15601" lon="4.03535">
        <ele>277.5</ele>
        <time>2026-08-21T08:13:18Z</time>
      </trkpt>
      <trkpt lat="49.15595" lon="4.03533">
        <ele>277.8</ele>
        <time>2026-08-21T08:13:23Z</time>
      </trkpt>
      <trkpt lat="49.15589" lon="4.0353">
        <ele>278.1</ele>
        <time>2026-08-21T08:13:28Z</time>
      </trkpt>
      <trkpt lat="49.15583" lon="4.03528">
        <ele>278.3</ele>
        <time>2026-08-21T08:13:34Z</time>
      </trkpt>
      <trkpt lat="49.1558" lon="4.03526">
        <ele>278.5</ele>
        <time>2026-08-21T08:13:39Z</time>
      </trkpt>
      <trkpt lat="49.15576" lon="4.03524">
        <ele>278.7</ele>
        <time>2026-08-21T08:13:44Z</time>
      </trkpt>
      <trkpt lat="49.15573" lon="4.03522">
        <ele>278.8</ele>
        <time>2026-08-21T08:13:50Z</time>
      </trkpt>
      <trkpt lat="49.15573" lon="4.03522">
        <ele>278.8</ele>
        <time>2026-08-21T08:13:55Z</time>
      </trkpt>
      <trkpt lat="49.15569" lon="4.0352">
        <ele>278.9</ele>
        <time>2026-08-21T08:14:00Z</time>
      </trkpt>
      <trkpt lat="49.15562" lon="4.03516">
        <ele>279.2</ele>
        <time>2026-08-21T08:14:06Z</time>
      </trkpt>
      <trkpt lat="49.15556" lon="4.03513">
        <ele>279.4</ele>
        <time>2026-08-21T08:14:11Z</time>
      </trkpt>
      <trkpt lat="49.15551" lon="4.03512">
        <ele>279.6</ele>
        <time>2026-08-21T08:14:16Z</time>
      </trkpt>
      <trkpt lat="49.15548" lon="4.0351">
        <ele>279.7</ele>
        <time>2026-08-21T08:14:22Z</time>
      </trkpt>
      <trkpt lat="49.15547" lon="4.0351">
        <ele>279.7</ele>
        <time>2026-08-21T08:14:27Z</time>
      </trkpt>
      <trkpt lat="49.15547" lon="4.0351">
        <ele>279.7</ele>
        <time>2026-08-21T08:14:32Z</time>
      </trkpt>
      <trkpt lat="49.15541" lon="4.03508">
        <ele>279.9</ele>
        <time>2026-08-21T08:14:38Z</time>
      </trkpt>
      <trkpt lat="49.1554" lon="4.03508">
        <ele>279.9</ele>
        <time>2026-08-21T08:14:43Z</time>
      </trkpt>
      <trkpt lat="49.1554" lon="4.03508">
        <ele>279.9</ele>
        <time>2026-08-21T08:14:48Z</time>
      </trkpt>
      <trkpt lat="49.15534" lon="4.03507">
        <ele>280.1</ele>
        <time>2026-08-21T08:14:54Z</time>
      </trkpt>
      <trkpt lat="49.15526" lon="4.035">
        <ele>280.4</ele>
        <time>2026-08-21T08:14:59Z</time>
      </trkpt>
      <trkpt lat="49.1552" lon="4.03495">
        <ele>280.4</ele>
        <time>2026-08-21T08:15:04Z</time>
      </trkpt>
      <trkpt lat="49.15515" lon="4.03491">
        <ele>280.5</ele>
        <time>2026-08-21T08:15:10Z</time>
      </trkpt>
      <trkpt lat="49.15511" lon="4.03488">
        <ele>280.5</ele>
        <time>2026-08-21T08:15:15Z</time>
      </trkpt>
      <trkpt lat="49.15506" lon="4.03486">
        <ele>280.5</ele>
        <time>2026-08-21T08:15:20Z</time>
      </trkpt>
      <trkpt lat="49.15504" lon="4.03489">
        <ele>280.7</ele>
        <time>2026-08-21T08:15:26Z</time>
      </trkpt>
      <trkpt lat="49.15505" lon="4.03489">
        <ele>280.6</ele>
        <time>2026-08-21T08:15:31Z</time>
      </trkpt>
      <trkpt lat="49.15505" lon="4.03489">
        <ele>280.6</ele>
        <time>2026-08-21T08:15:36Z</time>
      </trkpt>
      <trkpt lat="49.15505" lon="4.03489">
        <ele>280.6</ele>
        <time>2026-08-21T08:15:42Z</time>
      </trkpt>
      <trkpt lat="49.15503" lon="4.03489">
        <ele>280.7</ele>
        <time>2026-08-21T08:15:47Z</time>
      </trkpt>
      <trkpt lat="49.15497" lon="4.03486">
        <ele>280.7</ele>
        <time>2026-08-21T08:15:52Z</time>
      </trkpt>
      <trkpt lat="49.1549" lon="4.03482">
        <ele>280.6</ele>
        <time>2026-08-21T08:15:58Z</time>
      </trkpt>
      <trkpt lat="49.15485" lon="4.03476">
        <ele>280.4</ele>
        <time>2026-08-21T08:16:03Z</time>
      </trkpt>
      <trkpt lat="49.15483" lon="4.03478">
        <ele>280.5</ele>
        <time>2026-08-21T08:16:08Z</time>
      </trkpt>
      <trkpt lat="49.15483" lon="4.03478">
        <ele>280.5</ele>
        <time>2026-08-21T08:16:14Z</time>
      </trkpt>
      <trkpt lat="49.15483" lon="4.03478">
        <ele>280.5</ele>
        <time>2026-08-21T08:16:19Z</time>
      </trkpt>
      <trkpt lat="49.15483" lon="4.03478">
        <ele>280.5</ele>
        <time>2026-08-21T08:16:24Z</time>
      </trkpt>
      <trkpt lat="49.15483" lon="4.03478">
        <ele>280.5</ele>
        <time>2026-08-21T08:16:30Z</time>
      </trkpt>
      <trkpt lat="49.15483" lon="4.03478">
        <ele>280.5</ele>
        <time>2026-08-21T08:16:35Z</time>
      </trkpt>
      <trkpt lat="49.15483" lon="4.03478">
        <ele>280.5</ele>
        <time>2026-08-21T08:16:40Z</time>
      </trkpt>
      <trkpt lat="49.15483" lon="4.03478">
        <ele>280.5</ele>
        <time>2026-08-21T08:16:46Z</time>
      </trkpt>
      <trkpt lat="49.15483" lon="4.03478">
        <ele>280.5</ele>
        <time>2026-08-21T08:16:51Z</time>
      </trkpt>
      <trkpt lat="49.15483" lon="4.03478">
        <ele>280.5</ele>
        <time>2026-08-21T08:16:56Z</time>
      </trkpt>
      <trkpt lat="49.15483" lon="4.03478">
        <ele>280.5</ele>
        <time>2026-08-21T08:17:02Z</time>
      </trkpt>
      <trkpt lat="49.15478" lon="4.03469">
        <ele>280.3</ele>
        <time>2026-08-21T08:17:07Z</time>
      </trkpt>
      <trkpt lat="49.15473" lon="4.03467">
        <ele>280.2</ele>
        <time>2026-08-21T08:17:12Z</time>
      </trkpt>
      <trkpt lat="49.15466" lon="4.03463">
        <ele>280.1</ele>
        <time>2026-08-21T08:17:18Z</time>
      </trkpt>
      <trkpt lat="49.15461" lon="4.0346">
        <ele>280</ele>
        <time>2026-08-21T08:17:23Z</time>
      </trkpt>
      <trkpt lat="49.15458" lon="4.03459">
        <ele>280</ele>
        <time>2026-08-21T08:17:28Z</time>
      </trkpt>
      <trkpt lat="49.15452" lon="4.03457">
        <ele>280</ele>
        <time>2026-08-21T08:17:34Z</time>
      </trkpt>
      <trkpt lat="49.15448" lon="4.03455">
        <ele>279.9</ele>
        <time>2026-08-21T08:17:39Z</time>
      </trkpt>
      <trkpt lat="49.15443" lon="4.03451">
        <ele>279.8</ele>
        <time>2026-08-21T08:17:44Z</time>
      </trkpt>
      <trkpt lat="49.15441" lon="4.03444">
        <ele>279.7</ele>
        <time>2026-08-21T08:17:50Z</time>
      </trkpt>
      <trkpt lat="49.15438" lon="4.03443">
        <ele>279.6</ele>
        <time>2026-08-21T08:17:55Z</time>
      </trkpt>
      <trkpt lat="49.15433" lon="4.03443">
        <ele>279.6</ele>
        <time>2026-08-21T08:18:00Z</time>
      </trkpt>
      <trkpt lat="49.15427" lon="4.03443">
        <ele>279.6</ele>
        <time>2026-08-21T08:18:06Z</time>
      </trkpt>
      <trkpt lat="49.15422" lon="4.03441">
        <ele>279.6</ele>
        <time>2026-08-21T08:18:11Z</time>
      </trkpt>
      <trkpt lat="49.15416" lon="4.0344">
        <ele>279.5</ele>
        <time>2026-08-21T08:18:16Z</time>
      </trkpt>
      <trkpt lat="49.15408" lon="4.03436">
        <ele>279.2</ele>
        <time>2026-08-21T08:18:22Z</time>
      </trkpt>
      <trkpt lat="49.15402" lon="4.03433">
        <ele>278.9</ele>
        <time>2026-08-21T08:18:27Z</time>
      </trkpt>
      <trkpt lat="49.15397" lon="4.0343">
        <ele>278.6</ele>
        <time>2026-08-21T08:18:32Z</time>
      </trkpt>
      <trkpt lat="49.15388" lon="4.03424">
        <ele>278.1</ele>
        <time>2026-08-21T08:18:38Z</time>
      </trkpt>
      <trkpt lat="49.15382" lon="4.03424">
        <ele>277.9</ele>
        <time>2026-08-21T08:18:43Z</time>
      </trkpt>
      <trkpt lat="49.15377" lon="4.03423">
        <ele>277.7</ele>
        <time>2026-08-21T08:18:48Z</time>
      </trkpt>
      <trkpt lat="49.15374" lon="4.03421">
        <ele>277.6</ele>
        <time>2026-08-21T08:18:54Z</time>
      </trkpt>
      <trkpt lat="49.15366" lon="4.03415">
        <ele>277.2</ele>
        <time>2026-08-21T08:18:59Z</time>
      </trkpt>
      <trkpt lat="49.1536" lon="4.03412">
        <ele>277.1</ele>
        <time>2026-08-21T08:19:04Z</time>
      </trkpt>
      <trkpt lat="49.15354" lon="4.03407">
        <ele>276.9</ele>
        <time>2026-08-21T08:19:10Z</time>
      </trkpt>
      <trkpt lat="49.15347" lon="4.03404">
        <ele>276.8</ele>
        <time>2026-08-21T08:19:15Z</time>
      </trkpt>
      <trkpt lat="49.15341" lon="4.03401">
        <ele>276.6</ele>
        <time>2026-08-21T08:19:20Z</time>
      </trkpt>
      <trkpt lat="49.15332" lon="4.03396">
        <ele>276.5</ele>
        <time>2026-08-21T08:19:26Z</time>
      </trkpt>
      <trkpt lat="49.15327" lon="4.03393">
        <ele>276.5</ele>
        <time>2026-08-21T08:19:31Z</time>
      </trkpt>
      <trkpt lat="49.15322" lon="4.03391">
        <ele>276.5</ele>
        <time>2026-08-21T08:19:36Z</time>
      </trkpt>
      <trkpt lat="49.15314" lon="4.03388">
        <ele>276.4</ele>
        <time>2026-08-21T08:19:42Z</time>
      </trkpt>
      <trkpt lat="49.15307" lon="4.03384">
        <ele>276.4</ele>
        <time>2026-08-21T08:19:47Z</time>
      </trkpt>
      <trkpt lat="49.15303" lon="4.03381">
        <ele>276.4</ele>
        <time>2026-08-21T08:19:52Z</time>
      </trkpt>
      <trkpt lat="49.15297" lon="4.03377">
        <ele>276.3</ele>
        <time>2026-08-21T08:19:58Z</time>
      </trkpt>
      <trkpt lat="49.1529" lon="4.03375">
        <ele>276.2</ele>
        <time>2026-08-21T08:20:03Z</time>
      </trkpt>
      <trkpt lat="49.15284" lon="4.03371">
        <ele>276.1</ele>
        <time>2026-08-21T08:20:08Z</time>
      </trkpt>
      <trkpt lat="49.15275" lon="4.03369">
        <ele>275.9</ele>
        <time>2026-08-21T08:20:14Z</time>
      </trkpt>
      <trkpt lat="49.1527" lon="4.03367">
        <ele>275.8</ele>
        <time>2026-08-21T08:20:19Z</time>
      </trkpt>
      <trkpt lat="49.15263" lon="4.03365">
        <ele>275.7</ele>
        <time>2026-08-21T08:20:24Z</time>
      </trkpt>
      <trkpt lat="49.15257" lon="4.03362">
        <ele>275.5</ele>
        <time>2026-08-21T08:20:30Z</time>
      </trkpt>
      <trkpt lat="49.1525" lon="4.03358">
        <ele>275.3</ele>
        <time>2026-08-21T08:20:35Z</time>
      </trkpt>
      <trkpt lat="49.15243" lon="4.03353">
        <ele>274.9</ele>
        <time>2026-08-21T08:20:40Z</time>
      </trkpt>
      <trkpt lat="49.15236" lon="4.03347">
        <ele>274.4</ele>
        <time>2026-08-21T08:20:46Z</time>
      </trkpt>
      <trkpt lat="49.15232" lon="4.03345">
        <ele>274.1</ele>
        <time>2026-08-21T08:20:51Z</time>
      </trkpt>
      <trkpt lat="49.15226" lon="4.03339">
        <ele>273.7</ele>
        <time>2026-08-21T08:20:56Z</time>
      </trkpt>
      <trkpt lat="49.15218" lon="4.03338">
        <ele>273.2</ele>
        <time>2026-08-21T08:21:02Z</time>
      </trkpt>
      <trkpt lat="49.15212" lon="4.03333">
        <ele>272.7</ele>
        <time>2026-08-21T08:21:07Z</time>
      </trkpt>
      <trkpt lat="49.1521" lon="4.0333">
        <ele>272.5</ele>
        <time>2026-08-21T08:21:12Z</time>
      </trkpt>
      <trkpt lat="49.1521" lon="4.03329">
        <ele>272.5</ele>
        <time>2026-08-21T08:21:18Z</time>
      </trkpt>
      <trkpt lat="49.1521" lon="4.03329">
        <ele>272.5</ele>
        <time>2026-08-21T08:21:23Z</time>
      </trkpt>
      <trkpt lat="49.1521" lon="4.03329">
        <ele>272.5</ele>
        <time>2026-08-21T08:21:28Z</time>
      </trkpt>
      <trkpt lat="49.1521" lon="4.03329">
        <ele>272.5</ele>
        <time>2026-08-21T08:21:34Z</time>
      </trkpt>
      <trkpt lat="49.1521" lon="4.03329">
        <ele>272.5</ele>
        <time>2026-08-21T08:21:39Z</time>
      </trkpt>
      <trkpt lat="49.1521" lon="4.03329">
        <ele>272.5</ele>
        <time>2026-08-21T08:21:44Z</time>
      </trkpt>
      <trkpt lat="49.1521" lon="4.03329">
        <ele>272.5</ele>
        <time>2026-08-21T08:21:50Z</time>
      </trkpt>
      <trkpt lat="49.1521" lon="4.03329">
        <ele>272.5</ele>
        <time>2026-08-21T08:21:55Z</time>
      </trkpt>
      <trkpt lat="49.152" lon="4.03325">
        <ele>271.7</ele>
        <time>2026-08-21T08:22:00Z</time>
      </trkpt>
      <trkpt lat="49.15192" lon="4.03323">
        <ele>271.1</ele>
        <time>2026-08-21T08:22:06Z</time>
      </trkpt>
      <trkpt lat="49.15187" lon="4.0332">
        <ele>270.7</ele>
        <time>2026-08-21T08:22:11Z</time>
      </trkpt>
      <trkpt lat="49.15183" lon="4.03319">
        <ele>270.4</ele>
        <time>2026-08-21T08:22:16Z</time>
      </trkpt>
      <trkpt lat="49.15177" lon="4.03313">
        <ele>269.7</ele>
        <time>2026-08-21T08:22:22Z</time>
      </trkpt>
      <trkpt lat="49.1517" lon="4.03308">
        <ele>269</ele>
        <time>2026-08-21T08:22:27Z</time>
      </trkpt>
      <trkpt lat="49.15163" lon="4.03306">
        <ele>268.6</ele>
        <time>2026-08-21T08:22:32Z</time>
      </trkpt>
      <trkpt lat="49.15156" lon="4.03303">
        <ele>268.4</ele>
        <time>2026-08-21T08:22:38Z</time>
      </trkpt>
      <trkpt lat="49.15149" lon="4.033">
        <ele>268.1</ele>
        <time>2026-08-21T08:22:43Z</time>
      </trkpt>
      <trkpt lat="49.15144" lon="4.03299">
        <ele>268</ele>
        <time>2026-08-21T08:22:48Z</time>
      </trkpt>
      <trkpt lat="49.15137" lon="4.03294">
        <ele>267.7</ele>
        <time>2026-08-21T08:22:54Z</time>
      </trkpt>
      <trkpt lat="49.15131" lon="4.03291">
        <ele>267.5</ele>
        <time>2026-08-21T08:22:59Z</time>
      </trkpt>
      <trkpt lat="49.15124" lon="4.03288">
        <ele>267.4</ele>
        <time>2026-08-21T08:23:04Z</time>
      </trkpt>
      <trkpt lat="49.15116" lon="4.03286">
        <ele>267.2</ele>
        <time>2026-08-21T08:23:10Z</time>
      </trkpt>
      <trkpt lat="49.15111" lon="4.03281">
        <ele>267</ele>
        <time>2026-08-21T08:23:15Z</time>
      </trkpt>
      <trkpt lat="49.15105" lon="4.03278">
        <ele>266.8</ele>
        <time>2026-08-21T08:23:20Z</time>
      </trkpt>
      <trkpt lat="49.15098" lon="4.03276">
        <ele>266.7</ele>
        <time>2026-08-21T08:23:26Z</time>
      </trkpt>
      <trkpt lat="49.15091" lon="4.03274">
        <ele>266.6</ele>
        <time>2026-08-21T08:23:31Z</time>
      </trkpt>
      <trkpt lat="49.15086" lon="4.03273">
        <ele>266.6</ele>
        <time>2026-08-21T08:23:36Z</time>
      </trkpt>
      <trkpt lat="49.15078" lon="4.03267">
        <ele>266.1</ele>
        <time>2026-08-21T08:23:42Z</time>
      </trkpt>
      <trkpt lat="49.15073" lon="4.03262">
        <ele>265.7</ele>
        <time>2026-08-21T08:23:47Z</time>
      </trkpt>
      <trkpt lat="49.15066" lon="4.03258">
        <ele>265.2</ele>
        <time>2026-08-21T08:23:52Z</time>
      </trkpt>
      <trkpt lat="49.15058" lon="4.03255">
        <ele>264.6</ele>
        <time>2026-08-21T08:23:58Z</time>
      </trkpt>
      <trkpt lat="49.15052" lon="4.03252">
        <ele>264.2</ele>
        <time>2026-08-21T08:24:03Z</time>
      </trkpt>
      <trkpt lat="49.15045" lon="4.03248">
        <ele>263.6</ele>
        <time>2026-08-21T08:24:08Z</time>
      </trkpt>
      <trkpt lat="49.15036" lon="4.03243">
        <ele>263</ele>
        <time>2026-08-21T08:24:14Z</time>
      </trkpt>
      <trkpt lat="49.15031" lon="4.0324">
        <ele>262.6</ele>
        <time>2026-08-21T08:24:19Z</time>
      </trkpt>
      <trkpt lat="49.15024" lon="4.03238">
        <ele>262.1</ele>
        <time>2026-08-21T08:24:24Z</time>
      </trkpt>
      <trkpt lat="49.15017" lon="4.03234">
        <ele>261.6</ele>
        <time>2026-08-21T08:24:30Z</time>
      </trkpt>
      <trkpt lat="49.15011" lon="4.03231">
        <ele>261.2</ele>
        <time>2026-08-21T08:24:35Z</time>
      </trkpt>
      <trkpt lat="49.15004" lon="4.03228">
        <ele>260.7</ele>
        <time>2026-08-21T08:24:40Z</time>
      </trkpt>
      <trkpt lat="49.14997" lon="4.03224">
        <ele>260.3</ele>
        <time>2026-08-21T08:24:46Z</time>
      </trkpt>
      <trkpt lat="49.14991" lon="4.0322">
        <ele>260</ele>
        <time>2026-08-21T08:24:51Z</time>
      </trkpt>
      <trkpt lat="49.14985" lon="4.03214">
        <ele>259.7</ele>
        <time>2026-08-21T08:24:56Z</time>
      </trkpt>
      <trkpt lat="49.14977" lon="4.03207">
        <ele>259.4</ele>
        <time>2026-08-21T08:25:02Z</time>
      </trkpt>
      <trkpt lat="49.14972" lon="4.03203">
        <ele>259.3</ele>
        <time>2026-08-21T08:25:07Z</time>
      </trkpt>
      <trkpt lat="49.14966" lon="4.03198">
        <ele>259.1</ele>
        <time>2026-08-21T08:25:12Z</time>
      </trkpt>
      <trkpt lat="49.14957" lon="4.03195">
        <ele>259</ele>
        <time>2026-08-21T08:25:18Z</time>
      </trkpt>
      <trkpt lat="49.14949" lon="4.03192">
        <ele>258.9</ele>
        <time>2026-08-21T08:25:23Z</time>
      </trkpt>
      <trkpt lat="49.14942" lon="4.03191">
        <ele>258.8</ele>
        <time>2026-08-21T08:25:28Z</time>
      </trkpt>
      <trkpt lat="49.14934" lon="4.03188">
        <ele>258.7</ele>
        <time>2026-08-21T08:25:34Z</time>
      </trkpt>
      <trkpt lat="49.14927" lon="4.03185">
        <ele>258.7</ele>
        <time>2026-08-21T08:25:39Z</time>
      </trkpt>
      <trkpt lat="49.14922" lon="4.03184">
        <ele>258.6</ele>
        <time>2026-08-21T08:25:44Z</time>
      </trkpt>
      <trkpt lat="49.14915" lon="4.03181">
        <ele>258.6</ele>
        <time>2026-08-21T08:25:50Z</time>
      </trkpt>
      <trkpt lat="49.14909" lon="4.03177">
        <ele>258.4</ele>
        <time>2026-08-21T08:25:55Z</time>
      </trkpt>
      <trkpt lat="49.14901" lon="4.03171">
        <ele>258.1</ele>
        <time>2026-08-21T08:26:00Z</time>
      </trkpt>
      <trkpt lat="49.14893" lon="4.03167">
        <ele>257.9</ele>
        <time>2026-08-21T08:26:06Z</time>
      </trkpt>
      <trkpt lat="49.14885" lon="4.03162">
        <ele>257.8</ele>
        <time>2026-08-21T08:26:11Z</time>
      </trkpt>
      <trkpt lat="49.14879" lon="4.03159">
        <ele>257.8</ele>
        <time>2026-08-21T08:26:16Z</time>
      </trkpt>
      <trkpt lat="49.14872" lon="4.03157">
        <ele>257.5</ele>
        <time>2026-08-21T08:26:22Z</time>
      </trkpt>
      <trkpt lat="49.14865" lon="4.03153">
        <ele>257.5</ele>
        <time>2026-08-21T08:26:27Z</time>
      </trkpt>
      <trkpt lat="49.14859" lon="4.0315">
        <ele>257.4</ele>
        <time>2026-08-21T08:26:32Z</time>
      </trkpt>
      <trkpt lat="49.14852" lon="4.03148">
        <ele>257.1</ele>
        <time>2026-08-21T08:26:38Z</time>
      </trkpt>
      <trkpt lat="49.14845" lon="4.03148">
        <ele>256.7</ele>
        <time>2026-08-21T08:26:43Z</time>
      </trkpt>
      <trkpt lat="49.14838" lon="4.03148">
        <ele>256.4</ele>
        <time>2026-08-21T08:26:48Z</time>
      </trkpt>
      <trkpt lat="49.14829" lon="4.03149">
        <ele>255.7</ele>
        <time>2026-08-21T08:26:54Z</time>
      </trkpt>
      <trkpt lat="49.14823" lon="4.03151">
        <ele>255</ele>
        <time>2026-08-21T08:26:59Z</time>
      </trkpt>
      <trkpt lat="49.14818" lon="4.03153">
        <ele>254.4</ele>
        <time>2026-08-21T08:27:04Z</time>
      </trkpt>
      <trkpt lat="49.1481" lon="4.03154">
        <ele>253.7</ele>
        <time>2026-08-21T08:27:10Z</time>
      </trkpt>
      <trkpt lat="49.14805" lon="4.03157">
        <ele>253.1</ele>
        <time>2026-08-21T08:27:15Z</time>
      </trkpt>
      <trkpt lat="49.14797" lon="4.0316">
        <ele>252.2</ele>
        <time>2026-08-21T08:27:20Z</time>
      </trkpt>
      <trkpt lat="49.14792" lon="4.03163">
        <ele>251.7</ele>
        <time>2026-08-21T08:27:26Z</time>
      </trkpt>
      <trkpt lat="49.14792" lon="4.03162">
        <ele>251.7</ele>
        <time>2026-08-21T08:27:31Z</time>
      </trkpt>
      <trkpt lat="49.14789" lon="4.03165">
        <ele>251.3</ele>
        <time>2026-08-21T08:27:36Z</time>
      </trkpt>
      <trkpt lat="49.14782" lon="4.0317">
        <ele>250.6</ele>
        <time>2026-08-21T08:27:42Z</time>
      </trkpt>
      <trkpt lat="49.14776" lon="4.03173">
        <ele>250</ele>
        <time>2026-08-21T08:27:47Z</time>
      </trkpt>
      <trkpt lat="49.14769" lon="4.03178">
        <ele>249.3</ele>
        <time>2026-08-21T08:27:52Z</time>
      </trkpt>
      <trkpt lat="49.14762" lon="4.03184">
        <ele>248.6</ele>
        <time>2026-08-21T08:27:58Z</time>
      </trkpt>
      <trkpt lat="49.14755" lon="4.03188">
        <ele>247.9</ele>
        <time>2026-08-21T08:28:03Z</time>
      </trkpt>
      <trkpt lat="49.14748" lon="4.03192">
        <ele>247.2</ele>
        <time>2026-08-21T08:28:08Z</time>
      </trkpt>
      <trkpt lat="49.1474" lon="4.03197">
        <ele>246.4</ele>
        <time>2026-08-21T08:28:14Z</time>
      </trkpt>
      <trkpt lat="49.14734" lon="4.03201">
        <ele>245.8</ele>
        <time>2026-08-21T08:28:19Z</time>
      </trkpt>
      <trkpt lat="49.14728" lon="4.03206">
        <ele>245.2</ele>
        <time>2026-08-21T08:28:24Z</time>
      </trkpt>
      <trkpt lat="49.14722" lon="4.03207">
        <ele>244.7</ele>
        <time>2026-08-21T08:28:30Z</time>
      </trkpt>
      <trkpt lat="49.1472" lon="4.03205">
        <ele>244.5</ele>
        <time>2026-08-21T08:28:35Z</time>
      </trkpt>
      <trkpt lat="49.1472" lon="4.03204">
        <ele>244.5</ele>
        <time>2026-08-21T08:28:40Z</time>
      </trkpt>
      <trkpt lat="49.1472" lon="4.03204">
        <ele>244.5</ele>
        <time>2026-08-21T08:28:46Z</time>
      </trkpt>
      <trkpt lat="49.1472" lon="4.03204">
        <ele>244.5</ele>
        <time>2026-08-21T08:28:51Z</time>
      </trkpt>
      <trkpt lat="49.14718" lon="4.03207">
        <ele>244.3</ele>
        <time>2026-08-21T08:28:56Z</time>
      </trkpt>
      <trkpt lat="49.1471" lon="4.03212">
        <ele>243.6</ele>
        <time>2026-08-21T08:29:02Z</time>
      </trkpt>
      <trkpt lat="49.14703" lon="4.03213">
        <ele>243.1</ele>
        <time>2026-08-21T08:29:07Z</time>
      </trkpt>
      <trkpt lat="49.14696" lon="4.03213">
        <ele>242.5</ele>
        <time>2026-08-21T08:29:12Z</time>
      </trkpt>
      <trkpt lat="49.14688" lon="4.03213">
        <ele>241.8</ele>
        <time>2026-08-21T08:29:18Z</time>
      </trkpt>
      <trkpt lat="49.14681" lon="4.03215">
        <ele>241.3</ele>
        <time>2026-08-21T08:29:23Z</time>
      </trkpt>
      <trkpt lat="49.14675" lon="4.03216">
        <ele>240.8</ele>
        <time>2026-08-21T08:29:28Z</time>
      </trkpt>
      <trkpt lat="49.14668" lon="4.03216">
        <ele>240.3</ele>
        <time>2026-08-21T08:29:34Z</time>
      </trkpt>
      <trkpt lat="49.14662" lon="4.03216">
        <ele>239.8</ele>
        <time>2026-08-21T08:29:39Z</time>
      </trkpt>
      <trkpt lat="49.14655" lon="4.03214">
        <ele>239.1</ele>
        <time>2026-08-21T08:29:44Z</time>
      </trkpt>
      <trkpt lat="49.1465" lon="4.03211">
        <ele>238.6</ele>
        <time>2026-08-21T08:29:50Z</time>
      </trkpt>
      <trkpt lat="49.14648" lon="4.03211">
        <ele>238.4</ele>
        <time>2026-08-21T08:29:55Z</time>
      </trkpt>
      <trkpt lat="49.14645" lon="4.03209">
        <ele>238.1</ele>
        <time>2026-08-21T08:30:00Z</time>
      </trkpt>
      <trkpt lat="49.14638" lon="4.03204">
        <ele>237.3</ele>
        <time>2026-08-21T08:30:06Z</time>
      </trkpt>
      <trkpt lat="49.14634" lon="4.03199">
        <ele>236.9</ele>
        <time>2026-08-21T08:30:11Z</time>
      </trkpt>
      <trkpt lat="49.1463" lon="4.03191">
        <ele>236.4</ele>
        <time>2026-08-21T08:30:16Z</time>
      </trkpt>
      <trkpt lat="49.14626" lon="4.03181">
        <ele>235.8</ele>
        <time>2026-08-21T08:30:22Z</time>
      </trkpt>
      <trkpt lat="49.14623" lon="4.03172">
        <ele>235.4</ele>
        <time>2026-08-21T08:30:27Z</time>
      </trkpt>
      <trkpt lat="49.14621" lon="4.03164">
        <ele>235.2</ele>
        <time>2026-08-21T08:30:32Z</time>
      </trkpt>
      <trkpt lat="49.14621" lon="4.03152">
        <ele>235.1</ele>
        <time>2026-08-21T08:30:38Z</time>
      </trkpt>
      <trkpt lat="49.1462" lon="4.03143">
        <ele>235</ele>
        <time>2026-08-21T08:30:43Z</time>
      </trkpt>
      <trkpt lat="49.14622" lon="4.03133">
        <ele>235.1</ele>
        <time>2026-08-21T08:30:48Z</time>
      </trkpt>
      <trkpt lat="49.14624" lon="4.03123">
        <ele>235.2</ele>
        <time>2026-08-21T08:30:54Z</time>
      </trkpt>
      <trkpt lat="49.14625" lon="4.03114">
        <ele>235.2</ele>
        <time>2026-08-21T08:30:59Z</time>
      </trkpt>
      <trkpt lat="49.14625" lon="4.03104">
        <ele>235.1</ele>
        <time>2026-08-21T08:31:04Z</time>
      </trkpt>
      <trkpt lat="49.14624" lon="4.0309">
        <ele>235</ele>
        <time>2026-08-21T08:31:10Z</time>
      </trkpt>
      <trkpt lat="49.14624" lon="4.03079">
        <ele>234.9</ele>
        <time>2026-08-21T08:31:15Z</time>
      </trkpt>
      <trkpt lat="49.14623" lon="4.03069">
        <ele>234.8</ele>
        <time>2026-08-21T08:31:20Z</time>
      </trkpt>
      <trkpt lat="49.14623" lon="4.03061">
        <ele>234.8</ele>
        <time>2026-08-21T08:31:26Z</time>
      </trkpt>
      <trkpt lat="49.1462" lon="4.03052">
        <ele>234.6</ele>
        <time>2026-08-21T08:31:31Z</time>
      </trkpt>
      <trkpt lat="49.14615" lon="4.03042">
        <ele>234.5</ele>
        <time>2026-08-21T08:31:36Z</time>
      </trkpt>
      <trkpt lat="49.14612" lon="4.03034">
        <ele>234.4</ele>
        <time>2026-08-21T08:31:42Z</time>
      </trkpt>
      <trkpt lat="49.14606" lon="4.03027">
        <ele>234.2</ele>
        <time>2026-08-21T08:31:47Z</time>
      </trkpt>
      <trkpt lat="49.14608" lon="4.03022">
        <ele>234.3</ele>
        <time>2026-08-21T08:31:52Z</time>
      </trkpt>
      <trkpt lat="49.14607" lon="4.03019">
        <ele>234.3</ele>
        <time>2026-08-21T08:31:58Z</time>
      </trkpt>
      <trkpt lat="49.14605" lon="4.03017">
        <ele>234.2</ele>
        <time>2026-08-21T08:32:03Z</time>
      </trkpt>
      <trkpt lat="49.14602" lon="4.03015">
        <ele>234.2</ele>
        <time>2026-08-21T08:32:08Z</time>
      </trkpt>
      <trkpt lat="49.14602" lon="4.03015">
        <ele>234.2</ele>
        <time>2026-08-21T08:32:14Z</time>
      </trkpt>
      <trkpt lat="49.14602" lon="4.03015">
        <ele>234.2</ele>
        <time>2026-08-21T08:32:19Z</time>
      </trkpt>
      <trkpt lat="49.14602" lon="4.03015">
        <ele>234.2</ele>
        <time>2026-08-21T08:32:24Z</time>
      </trkpt>
      <trkpt lat="49.14602" lon="4.03015">
        <ele>234.2</ele>
        <time>2026-08-21T08:32:30Z</time>
      </trkpt>
      <trkpt lat="49.14602" lon="4.03015">
        <ele>234.2</ele>
        <time>2026-08-21T08:32:35Z</time>
      </trkpt>
      <trkpt lat="49.14602" lon="4.03015">
        <ele>234.2</ele>
        <time>2026-08-21T08:32:40Z</time>
      </trkpt>
      <trkpt lat="49.14601" lon="4.03016">
        <ele>234.1</ele>
        <time>2026-08-21T08:32:46Z</time>
      </trkpt>
      <trkpt lat="49.14596" lon="4.03014">
        <ele>234.1</ele>
        <time>2026-08-21T08:32:51Z</time>
      </trkpt>
      <trkpt lat="49.14593" lon="4.03012">
        <ele>234</ele>
        <time>2026-08-21T08:32:56Z</time>
      </trkpt>
      <trkpt lat="49.14592" lon="4.03012">
        <ele>234</ele>
        <time>2026-08-21T08:33:02Z</time>
      </trkpt>
      <trkpt lat="49.14592" lon="4.03012">
        <ele>234</ele>
        <time>2026-08-21T08:33:07Z</time>
      </trkpt>
      <trkpt lat="49.14592" lon="4.03012">
        <ele>234</ele>
        <time>2026-08-21T08:33:12Z</time>
      </trkpt>
      <trkpt lat="49.14592" lon="4.03012">
        <ele>234</ele>
        <time>2026-08-21T08:33:18Z</time>
      </trkpt>
      <trkpt lat="49.14592" lon="4.03012">
        <ele>234</ele>
        <time>2026-08-21T08:33:23Z</time>
      </trkpt>
      <trkpt lat="49.14585" lon="4.03006">
        <ele>234</ele>
        <time>2026-08-21T08:33:28Z</time>
      </trkpt>
      <trkpt lat="49.1458" lon="4.03001">
        <ele>234.1</ele>
        <time>2026-08-21T08:33:34Z</time>
      </trkpt>
      <trkpt lat="49.14576" lon="4.03">
        <ele>234.2</ele>
        <time>2026-08-21T08:33:39Z</time>
      </trkpt>
      <trkpt lat="49.14571" lon="4.02997">
        <ele>234.5</ele>
        <time>2026-08-21T08:33:44Z</time>
      </trkpt>
      <trkpt lat="49.14565" lon="4.02992">
        <ele>235</ele>
        <time>2026-08-21T08:33:50Z</time>
      </trkpt>
      <trkpt lat="49.14561" lon="4.02992">
        <ele>235</ele>
        <time>2026-08-21T08:33:55Z</time>
      </trkpt>
      <trkpt lat="49.14555" lon="4.02987">
        <ele>235.5</ele>
        <time>2026-08-21T08:34:00Z</time>
      </trkpt>
      <trkpt lat="49.1455" lon="4.02983">
        <ele>235.8</ele>
        <time>2026-08-21T08:34:06Z</time>
      </trkpt>
      <trkpt lat="49.1455" lon="4.0298">
        <ele>236</ele>
        <time>2026-08-21T08:34:11Z</time>
      </trkpt>
      <trkpt lat="49.1455" lon="4.0298">
        <ele>236</ele>
        <time>2026-08-21T08:34:16Z</time>
      </trkpt>
      <trkpt lat="49.1455" lon="4.0298">
        <ele>236</ele>
        <time>2026-08-21T08:34:22Z</time>
      </trkpt>
      <trkpt lat="49.1455" lon="4.0298">
        <ele>236</ele>
        <time>2026-08-21T08:34:27Z</time>
      </trkpt>
      <trkpt lat="49.1455" lon="4.0298">
        <ele>236</ele>
        <time>2026-08-21T08:34:32Z</time>
      </trkpt>
      <trkpt lat="49.1455" lon="4.0298">
        <ele>236</ele>
        <time>2026-08-21T08:34:38Z</time>
      </trkpt>
      <trkpt lat="49.1455" lon="4.0298">
        <ele>236</ele>
        <time>2026-08-21T08:34:43Z</time>
      </trkpt>
      <trkpt lat="49.1455" lon="4.0298">
        <ele>236</ele>
        <time>2026-08-21T08:34:48Z</time>
      </trkpt>
      <trkpt lat="49.1455" lon="4.0298">
        <ele>236</ele>
        <time>2026-08-21T08:34:54Z</time>
      </trkpt>
      <trkpt lat="49.1455" lon="4.0298">
        <ele>236</ele>
        <time>2026-08-21T08:34:59Z</time>
      </trkpt>
      <trkpt lat="49.1455" lon="4.0298">
        <ele>236</ele>
        <time>2026-08-21T08:35:04Z</time>
      </trkpt>
      <trkpt lat="49.1455" lon="4.0298">
        <ele>236</ele>
        <time>2026-08-21T08:35:10Z</time>
      </trkpt>
      <trkpt lat="49.1455" lon="4.0298">
        <ele>236</ele>
        <time>2026-08-21T08:35:15Z</time>
      </trkpt>
      <trkpt lat="49.1455" lon="4.0298">
        <ele>236</ele>
        <time>2026-08-21T08:35:20Z</time>
      </trkpt>
      <trkpt lat="49.1455" lon="4.0298">
        <ele>236</ele>
        <time>2026-08-21T08:35:26Z</time>
      </trkpt>
      <trkpt lat="49.1455" lon="4.0298">
        <ele>236</ele>
        <time>2026-08-21T08:35:31Z</time>
      </trkpt>
      <trkpt lat="49.1455" lon="4.0298">
        <ele>236</ele>
        <time>2026-08-21T08:35:36Z</time>
      </trkpt>
      <trkpt lat="49.1455" lon="4.0298">
        <ele>236</ele>
        <time>2026-08-21T08:35:42Z</time>
      </trkpt>
      <trkpt lat="49.1455" lon="4.0298">
        <ele>236</ele>
        <time>2026-08-21T08:35:47Z</time>
      </trkpt>
      <trkpt lat="49.1455" lon="4.0298">
        <ele>236</ele>
        <time>2026-08-21T08:35:52Z</time>
      </trkpt>
      <trkpt lat="49.1455" lon="4.0298">
        <ele>236</ele>
        <time>2026-08-21T08:35:58Z</time>
      </trkpt>
      <trkpt lat="49.1455" lon="4.0298">
        <ele>236</ele>
        <time>2026-08-21T08:36:03Z</time>
      </trkpt>
      <trkpt lat="49.1455" lon="4.0298">
        <ele>236</ele>
        <time>2026-08-21T08:36:08Z</time>
      </trkpt>
      <trkpt lat="49.1455" lon="4.0298">
        <ele>236</ele>
        <time>2026-08-21T08:36:14Z</time>
      </trkpt>
      <trkpt lat="49.1455" lon="4.0298">
        <ele>236</ele>
        <time>2026-08-21T08:36:19Z</time>
      </trkpt>
      <trkpt lat="49.1455" lon="4.0298">
        <ele>236</ele>
        <time>2026-08-21T08:36:24Z</time>
      </trkpt>
      <trkpt lat="49.14547" lon="4.02981">
        <ele>235.9</ele>
        <time>2026-08-21T08:36:30Z</time>
      </trkpt>
      <trkpt lat="49.14544" lon="4.02982">
        <ele>235.9</ele>
        <time>2026-08-21T08:36:35Z</time>
      </trkpt>
      <trkpt lat="49.14541" lon="4.02979">
        <ele>236.1</ele>
        <time>2026-08-21T08:36:40Z</time>
      </trkpt>
      <trkpt lat="49.14541" lon="4.02976">
        <ele>236.3</ele>
        <time>2026-08-21T08:36:46Z</time>
      </trkpt>
      <trkpt lat="49.14541" lon="4.02976">
        <ele>236.3</ele>
        <time>2026-08-21T08:36:51Z</time>
      </trkpt>
      <trkpt lat="49.14541" lon="4.02976">
        <ele>236.3</ele>
        <time>2026-08-21T08:36:56Z</time>
      </trkpt>
      <trkpt lat="49.14541" lon="4.02976">
        <ele>236.3</ele>
        <time>2026-08-21T08:37:02Z</time>
      </trkpt>
      <trkpt lat="49.14541" lon="4.02976">
        <ele>236.3</ele>
        <time>2026-08-21T08:37:07Z</time>
      </trkpt>
      <trkpt lat="49.14541" lon="4.02976">
        <ele>236.3</ele>
        <time>2026-08-21T08:37:12Z</time>
      </trkpt>
      <trkpt lat="49.14541" lon="4.02976">
        <ele>236.3</ele>
        <time>2026-08-21T08:37:18Z</time>
      </trkpt>
      <trkpt lat="49.14541" lon="4.02976">
        <ele>236.3</ele>
        <time>2026-08-21T08:37:23Z</time>
      </trkpt>
      <trkpt lat="49.14541" lon="4.02976">
        <ele>236.3</ele>
        <time>2026-08-21T08:37:28Z</time>
      </trkpt>
      <trkpt lat="49.14541" lon="4.02976">
        <ele>236.3</ele>
        <time>2026-08-21T08:37:34Z</time>
      </trkpt>
      <trkpt lat="49.14541" lon="4.02976">
        <ele>236.3</ele>
        <time>2026-08-21T08:37:39Z</time>
      </trkpt>
      <trkpt lat="49.14541" lon="4.02976">
        <ele>236.3</ele>
        <time>2026-08-21T08:37:44Z</time>
      </trkpt>
      <trkpt lat="49.14541" lon="4.02976">
        <ele>236.3</ele>
        <time>2026-08-21T08:37:50Z</time>
      </trkpt>
      <trkpt lat="49.14541" lon="4.02976">
        <ele>236.3</ele>
        <time>2026-08-21T08:37:55Z</time>
      </trkpt>
      <trkpt lat="49.14541" lon="4.02976">
        <ele>236.3</ele>
        <time>2026-08-21T08:38:00Z</time>
      </trkpt>
      <trkpt lat="49.14541" lon="4.02976">
        <ele>236.3</ele>
        <time>2026-08-21T08:38:06Z</time>
      </trkpt>
      <trkpt lat="49.14541" lon="4.02976">
        <ele>236.3</ele>
        <time>2026-08-21T08:38:11Z</time>
      </trkpt>
      <trkpt lat="49.14541" lon="4.02976">
        <ele>236.3</ele>
        <time>2026-08-21T08:38:16Z</time>
      </trkpt>
      <trkpt lat="49.14541" lon="4.02976">
        <ele>236.3</ele>
        <time>2026-08-21T08:38:22Z</time>
      </trkpt>
      <trkpt lat="49.14541" lon="4.02976">
        <ele>236.3</ele>
        <time>2026-08-21T08:38:27Z</time>
      </trkpt>
      <trkpt lat="49.14541" lon="4.02976">
        <ele>236.3</ele>
        <time>2026-08-21T08:38:32Z</time>
      </trkpt>
      <trkpt lat="49.14541" lon="4.02976">
        <ele>236.3</ele>
        <time>2026-08-21T08:38:38Z</time>
      </trkpt>
      <trkpt lat="49.14541" lon="4.02976">
        <ele>236.3</ele>
        <time>2026-08-21T08:38:43Z</time>
      </trkpt>
      <trkpt lat="49.14541" lon="4.02976">
        <ele>236.3</ele>
        <time>2026-08-21T08:38:48Z</time>
      </trkpt>
      <trkpt lat="49.14541" lon="4.02976">
        <ele>236.3</ele>
        <time>2026-08-21T08:38:54Z</time>
      </trkpt>
      <trkpt lat="49.14541" lon="4.02976">
        <ele>236.3</ele>
        <time>2026-08-21T08:38:59Z</time>
      </trkpt>
      <trkpt lat="49.14541" lon="4.02976">
        <ele>236.3</ele>
        <time>2026-08-21T08:39:04Z</time>
      </trkpt>
      <trkpt lat="49.14541" lon="4.02976">
        <ele>236.3</ele>
        <time>2026-08-21T08:39:10Z</time>
      </trkpt>
      <trkpt lat="49.14541" lon="4.02976">
        <ele>236.3</ele>
        <time>2026-08-21T08:39:15Z</time>
      </trkpt>
      <trkpt lat="49.14541" lon="4.02976">
        <ele>236.3</ele>
        <time>2026-08-21T08:39:20Z</time>
      </trkpt>
      <trkpt lat="49.14541" lon="4.02976">
        <ele>236.3</ele>
        <time>2026-08-21T08:39:26Z</time>
      </trkpt>
      <trkpt lat="49.14541" lon="4.02976">
        <ele>236.3</ele>
        <time>2026-08-21T08:39:31Z</time>
      </trkpt>
      <trkpt lat="49.14541" lon="4.02976">
        <ele>236.3</ele>
        <time>2026-08-21T08:39:36Z</time>
      </trkpt>
      <trkpt lat="49.14541" lon="4.02976">
        <ele>236.3</ele>
        <time>2026-08-21T08:39:42Z</time>
      </trkpt>
      <trkpt lat="49.14541" lon="4.02976">
        <ele>236.3</ele>
        <time>2026-08-21T08:39:47Z</time>
      </trkpt>
      <trkpt lat="49.14541" lon="4.02976">
        <ele>236.3</ele>
        <time>2026-08-21T08:39:52Z</time>
      </trkpt>
      <trkpt lat="49.14541" lon="4.02976">
        <ele>236.3</ele>
        <time>2026-08-21T08:39:58Z</time>
      </trkpt>
      <trkpt lat="49.14541" lon="4.02976">
        <ele>236.3</ele>
        <time>2026-08-21T08:40:03Z</time>
      </trkpt>
      <trkpt lat="49.14541" lon="4.02976">
        <ele>236.3</ele>
        <time>2026-08-21T08:40:08Z</time>
      </trkpt>
      <trkpt lat="49.14541" lon="4.02976">
        <ele>236.3</ele>
        <time>2026-08-21T08:40:14Z</time>
      </trkpt>
      <trkpt lat="49.14541" lon="4.02976">
        <ele>236.3</ele>
        <time>2026-08-21T08:40:19Z</time>
      </trkpt>
      <trkpt lat="49.14541" lon="4.02976">
        <ele>236.3</ele>
        <time>2026-08-21T08:40:24Z</time>
      </trkpt>
      <trkpt lat="49.14541" lon="4.02976">
        <ele>236.3</ele>
        <time>2026-08-21T08:40:30Z</time>
      </trkpt>
      <trkpt lat="49.14541" lon="4.02976">
        <ele>236.3</ele>
        <time>2026-08-21T08:40:35Z</time>
      </trkpt>
      <trkpt lat="49.14541" lon="4.02976">
        <ele>236.3</ele>
        <time>2026-08-21T08:40:40Z</time>
      </trkpt>
      <trkpt lat="49.14541" lon="4.02976">
        <ele>236.3</ele>
        <time>2026-08-21T08:40:46Z</time>
      </trkpt>
      <trkpt lat="49.14541" lon="4.02976">
        <ele>236.3</ele>
        <time>2026-08-21T08:40:51Z</time>
      </trkpt>
      <trkpt lat="49.14541" lon="4.02976">
        <ele>236.3</ele>
        <time>2026-08-21T08:40:56Z</time>
      </trkpt>
      <trkpt lat="49.14541" lon="4.02976">
        <ele>236.3</ele>
        <time>2026-08-21T08:41:02Z</time>
      </trkpt>
      <trkpt lat="49.14541" lon="4.02976">
        <ele>236.3</ele>
        <time>2026-08-21T08:41:07Z</time>
      </trkpt>
      <trkpt lat="49.14534" lon="4.02978">
        <ele>236.3</ele>
        <time>2026-08-21T08:41:12Z</time>
      </trkpt>
      <trkpt lat="49.14526" lon="4.02975">
        <ele>236.6</ele>
        <time>2026-08-21T08:41:18Z</time>
      </trkpt>
      <trkpt lat="49.14521" lon="4.02971">
        <ele>236.8</ele>
        <time>2026-08-21T08:41:23Z</time>
      </trkpt>
      <trkpt lat="49.14515" lon="4.02969">
        <ele>237</ele>
        <time>2026-08-21T08:41:28Z</time>
      </trkpt>
      <trkpt lat="49.14507" lon="4.02965">
        <ele>237.2</ele>
        <time>2026-08-21T08:41:34Z</time>
      </trkpt>
      <trkpt lat="49.14501" lon="4.02961">
        <ele>237.4</ele>
        <time>2026-08-21T08:41:39Z</time>
      </trkpt>
      <trkpt lat="49.14495" lon="4.02957">
        <ele>237.4</ele>
        <time>2026-08-21T08:41:44Z</time>
      </trkpt>
      <trkpt lat="49.14488" lon="4.02952">
        <ele>237.3</ele>
        <time>2026-08-21T08:41:50Z</time>
      </trkpt>
      <trkpt lat="49.14482" lon="4.0295">
        <ele>237.1</ele>
        <time>2026-08-21T08:41:55Z</time>
      </trkpt>
      <trkpt lat="49.14476" lon="4.02948">
        <ele>236.9</ele>
        <time>2026-08-21T08:42:00Z</time>
      </trkpt>
      <trkpt lat="49.14468" lon="4.02944">
        <ele>236.7</ele>
        <time>2026-08-21T08:42:06Z</time>
      </trkpt>
      <trkpt lat="49.14462" lon="4.0294">
        <ele>236.6</ele>
        <time>2026-08-21T08:42:11Z</time>
      </trkpt>
      <trkpt lat="49.14457" lon="4.02936">
        <ele>236.5</ele>
        <time>2026-08-21T08:42:16Z</time>
      </trkpt>
      <trkpt lat="49.1445" lon="4.02933">
        <ele>236.2</ele>
        <time>2026-08-21T08:42:22Z</time>
      </trkpt>
      <trkpt lat="49.14444" lon="4.02931">
        <ele>236</ele>
        <time>2026-08-21T08:42:27Z</time>
      </trkpt>
      <trkpt lat="49.14439" lon="4.02928">
        <ele>235.9</ele>
        <time>2026-08-21T08:42:32Z</time>
      </trkpt>
      <trkpt lat="49.14433" lon="4.02925">
        <ele>235.6</ele>
        <time>2026-08-21T08:42:38Z</time>
      </trkpt>
      <trkpt lat="49.14428" lon="4.02924">
        <ele>235.4</ele>
        <time>2026-08-21T08:42:43Z</time>
      </trkpt>
      <trkpt lat="49.14422" lon="4.02921">
        <ele>235.2</ele>
        <time>2026-08-21T08:42:48Z</time>
      </trkpt>
      <trkpt lat="49.14415" lon="4.02917">
        <ele>234.9</ele>
        <time>2026-08-21T08:42:54Z</time>
      </trkpt>
      <trkpt lat="49.1441" lon="4.02915">
        <ele>234.6</ele>
        <time>2026-08-21T08:42:59Z</time>
      </trkpt>
      <trkpt lat="49.14404" lon="4.02912">
        <ele>234.2</ele>
        <time>2026-08-21T08:43:04Z</time>
      </trkpt>
      <trkpt lat="49.14397" lon="4.02907">
        <ele>233.8</ele>
        <time>2026-08-21T08:43:10Z</time>
      </trkpt>
      <trkpt lat="49.14392" lon="4.02906">
        <ele>233.4</ele>
        <time>2026-08-21T08:43:15Z</time>
      </trkpt>
      <trkpt lat="49.14386" lon="4.02902">
        <ele>233.1</ele>
        <time>2026-08-21T08:43:20Z</time>
      </trkpt>
      <trkpt lat="49.14379" lon="4.02898">
        <ele>232.6</ele>
        <time>2026-08-21T08:43:26Z</time>
      </trkpt>
      <trkpt lat="49.14373" lon="4.02897">
        <ele>232.2</ele>
        <time>2026-08-21T08:43:31Z</time>
      </trkpt>
      <trkpt lat="49.14367" lon="4.02892">
        <ele>231.8</ele>
        <time>2026-08-21T08:43:36Z</time>
      </trkpt>
      <trkpt lat="49.1436" lon="4.02888">
        <ele>231.4</ele>
        <time>2026-08-21T08:43:42Z</time>
      </trkpt>
      <trkpt lat="49.14354" lon="4.02882">
        <ele>231</ele>
        <time>2026-08-21T08:43:47Z</time>
      </trkpt>
      <trkpt lat="49.14347" lon="4.02879">
        <ele>230.5</ele>
        <time>2026-08-21T08:43:52Z</time>
      </trkpt>
      <trkpt lat="49.14337" lon="4.02873">
        <ele>229.8</ele>
        <time>2026-08-21T08:43:58Z</time>
      </trkpt>
      <trkpt lat="49.14331" lon="4.02871">
        <ele>229.4</ele>
        <time>2026-08-21T08:44:03Z</time>
      </trkpt>
      <trkpt lat="49.14324" lon="4.02867">
        <ele>229</ele>
        <time>2026-08-21T08:44:08Z</time>
      </trkpt>
      <trkpt lat="49.14319" lon="4.02865">
        <ele>228.7</ele>
        <time>2026-08-21T08:44:14Z</time>
      </trkpt>
      <trkpt lat="49.14312" lon="4.02862">
        <ele>228.2</ele>
        <time>2026-08-21T08:44:19Z</time>
      </trkpt>
      <trkpt lat="49.14306" lon="4.02859">
        <ele>227.8</ele>
        <time>2026-08-21T08:44:24Z</time>
      </trkpt>
      <trkpt lat="49.14297" lon="4.02856">
        <ele>227.2</ele>
        <time>2026-08-21T08:44:30Z</time>
      </trkpt>
      <trkpt lat="49.14291" lon="4.02852">
        <ele>226.8</ele>
        <time>2026-08-21T08:44:35Z</time>
      </trkpt>
      <trkpt lat="49.14284" lon="4.02847">
        <ele>226.4</ele>
        <time>2026-08-21T08:44:40Z</time>
      </trkpt>
      <trkpt lat="49.14276" lon="4.02841">
        <ele>225.8</ele>
        <time>2026-08-21T08:44:46Z</time>
      </trkpt>
      <trkpt lat="49.14274" lon="4.02842">
        <ele>225.7</ele>
        <time>2026-08-21T08:44:51Z</time>
      </trkpt>
      <trkpt lat="49.14274" lon="4.02846">
        <ele>225.7</ele>
        <time>2026-08-21T08:44:56Z</time>
      </trkpt>
      <trkpt lat="49.14274" lon="4.02846">
        <ele>225.7</ele>
        <time>2026-08-21T08:45:02Z</time>
      </trkpt>
      <trkpt lat="49.14274" lon="4.02846">
        <ele>225.7</ele>
        <time>2026-08-21T08:45:07Z</time>
      </trkpt>
      <trkpt lat="49.14274" lon="4.02846">
        <ele>225.7</ele>
        <time>2026-08-21T08:45:12Z</time>
      </trkpt>
      <trkpt lat="49.14274" lon="4.02846">
        <ele>225.7</ele>
        <time>2026-08-21T08:45:18Z</time>
      </trkpt>
      <trkpt lat="49.14274" lon="4.02846">
        <ele>225.7</ele>
        <time>2026-08-21T08:45:23Z</time>
      </trkpt>
      <trkpt lat="49.14274" lon="4.02846">
        <ele>225.7</ele>
        <time>2026-08-21T08:45:28Z</time>
      </trkpt>
      <trkpt lat="49.14274" lon="4.02846">
        <ele>225.7</ele>
        <time>2026-08-21T08:45:34Z</time>
      </trkpt>
      <trkpt lat="49.14274" lon="4.02846">
        <ele>225.7</ele>
        <time>2026-08-21T08:45:39Z</time>
      </trkpt>
      <trkpt lat="49.14274" lon="4.02846">
        <ele>225.7</ele>
        <time>2026-08-21T08:45:44Z</time>
      </trkpt>
      <trkpt lat="49.14274" lon="4.02846">
        <ele>225.7</ele>
        <time>2026-08-21T08:45:50Z</time>
      </trkpt>
      <trkpt lat="49.14274" lon="4.02846">
        <ele>225.7</ele>
        <time>2026-08-21T08:45:55Z</time>
      </trkpt>
      <trkpt lat="49.14268" lon="4.02831">
        <ele>225.3</ele>
        <time>2026-08-21T08:46:00Z</time>
      </trkpt>
      <trkpt lat="49.14262" lon="4.02833">
        <ele>224.9</ele>
        <time>2026-08-21T08:46:06Z</time>
      </trkpt>
      <trkpt lat="49.14257" lon="4.02832">
        <ele>224.5</ele>
        <time>2026-08-21T08:46:11Z</time>
      </trkpt>
      <trkpt lat="49.14251" lon="4.02829">
        <ele>224.1</ele>
        <time>2026-08-21T08:46:16Z</time>
      </trkpt>
      <trkpt lat="49.14245" lon="4.02825">
        <ele>223.8</ele>
        <time>2026-08-21T08:46:22Z</time>
      </trkpt>
      <trkpt lat="49.1424" lon="4.02824">
        <ele>223.4</ele>
        <time>2026-08-21T08:46:27Z</time>
      </trkpt>
      <trkpt lat="49.14235" lon="4.02822">
        <ele>223.1</ele>
        <time>2026-08-21T08:46:32Z</time>
      </trkpt>
      <trkpt lat="49.14234" lon="4.0282">
        <ele>223.1</ele>
        <time>2026-08-21T08:46:38Z</time>
      </trkpt>
      <trkpt lat="49.14233" lon="4.0282">
        <ele>223</ele>
        <time>2026-08-21T08:46:43Z</time>
      </trkpt>
      <trkpt lat="49.14233" lon="4.0282">
        <ele>223</ele>
        <time>2026-08-21T08:46:48Z</time>
      </trkpt>
      <trkpt lat="49.14233" lon="4.0282">
        <ele>223</ele>
        <time>2026-08-21T08:46:54Z</time>
      </trkpt>
      <trkpt lat="49.14233" lon="4.0282">
        <ele>223</ele>
        <time>2026-08-21T08:46:59Z</time>
      </trkpt>
      <trkpt lat="49.14233" lon="4.0282">
        <ele>223</ele>
        <time>2026-08-21T08:47:04Z</time>
      </trkpt>
      <trkpt lat="49.14233" lon="4.0282">
        <ele>223</ele>
        <time>2026-08-21T08:47:10Z</time>
      </trkpt>
      <trkpt lat="49.14233" lon="4.0282">
        <ele>223</ele>
        <time>2026-08-21T08:47:15Z</time>
      </trkpt>
      <trkpt lat="49.14233" lon="4.0282">
        <ele>223</ele>
        <time>2026-08-21T08:47:20Z</time>
      </trkpt>
      <trkpt lat="49.14233" lon="4.0282">
        <ele>223</ele>
        <time>2026-08-21T08:47:26Z</time>
      </trkpt>
      <trkpt lat="49.14233" lon="4.0282">
        <ele>223</ele>
        <time>2026-08-21T08:47:31Z</time>
      </trkpt>
      <trkpt lat="49.14233" lon="4.0282">
        <ele>223</ele>
        <time>2026-08-21T08:47:36Z</time>
      </trkpt>
      <trkpt lat="49.14233" lon="4.0282">
        <ele>223</ele>
        <time>2026-08-21T08:47:42Z</time>
      </trkpt>
      <trkpt lat="49.14233" lon="4.0282">
        <ele>223</ele>
        <time>2026-08-21T08:47:47Z</time>
      </trkpt>
      <trkpt lat="49.14233" lon="4.0282">
        <ele>223</ele>
        <time>2026-08-21T08:47:52Z</time>
      </trkpt>
      <trkpt lat="49.14233" lon="4.0282">
        <ele>223</ele>
        <time>2026-08-21T08:47:58Z</time>
      </trkpt>
      <trkpt lat="49.14233" lon="4.0282">
        <ele>223</ele>
        <time>2026-08-21T08:48:03Z</time>
      </trkpt>
      <trkpt lat="49.14233" lon="4.0282">
        <ele>223</ele>
        <time>2026-08-21T08:48:08Z</time>
      </trkpt>
      <trkpt lat="49.14233" lon="4.0282">
        <ele>223</ele>
        <time>2026-08-21T08:48:14Z</time>
      </trkpt>
      <trkpt lat="49.14233" lon="4.0282">
        <ele>223</ele>
        <time>2026-08-21T08:48:19Z</time>
      </trkpt>
      <trkpt lat="49.14233" lon="4.0282">
        <ele>223</ele>
        <time>2026-08-21T08:48:24Z</time>
      </trkpt>
      <trkpt lat="49.14233" lon="4.0282">
        <ele>223</ele>
        <time>2026-08-21T08:48:30Z</time>
      </trkpt>
      <trkpt lat="49.14233" lon="4.0282">
        <ele>223</ele>
        <time>2026-08-21T08:48:35Z</time>
      </trkpt>
      <trkpt lat="49.14233" lon="4.0282">
        <ele>223</ele>
        <time>2026-08-21T08:48:40Z</time>
      </trkpt>
      <trkpt lat="49.14233" lon="4.0282">
        <ele>223</ele>
        <time>2026-08-21T08:48:46Z</time>
      </trkpt>
      <trkpt lat="49.14233" lon="4.0282">
        <ele>223</ele>
        <time>2026-08-21T08:48:51Z</time>
      </trkpt>
      <trkpt lat="49.14233" lon="4.0282">
        <ele>223</ele>
        <time>2026-08-21T08:48:56Z</time>
      </trkpt>
      <trkpt lat="49.14233" lon="4.0282">
        <ele>223</ele>
        <time>2026-08-21T08:49:02Z</time>
      </trkpt>
      <trkpt lat="49.14233" lon="4.0282">
        <ele>223</ele>
        <time>2026-08-21T08:49:07Z</time>
      </trkpt>
      <trkpt lat="49.14233" lon="4.0282">
        <ele>223</ele>
        <time>2026-08-21T08:49:12Z</time>
      </trkpt>
      <trkpt lat="49.14233" lon="4.0282">
        <ele>223</ele>
        <time>2026-08-21T08:49:18Z</time>
      </trkpt>
      <trkpt lat="49.14233" lon="4.0282">
        <ele>223</ele>
        <time>2026-08-21T08:49:23Z</time>
      </trkpt>
      <trkpt lat="49.14233" lon="4.0282">
        <ele>223</ele>
        <time>2026-08-21T08:49:28Z</time>
      </trkpt>
      <trkpt lat="49.14233" lon="4.0282">
        <ele>223</ele>
        <time>2026-08-21T08:49:34Z</time>
      </trkpt>
      <trkpt lat="49.14233" lon="4.0282">
        <ele>223</ele>
        <time>2026-08-21T08:49:39Z</time>
      </trkpt>
      <trkpt lat="49.14233" lon="4.0282">
        <ele>223</ele>
        <time>2026-08-21T08:49:44Z</time>
      </trkpt>
      <trkpt lat="49.14233" lon="4.0282">
        <ele>223</ele>
        <time>2026-08-21T08:49:50Z</time>
      </trkpt>
      <trkpt lat="49.14233" lon="4.0282">
        <ele>223</ele>
        <time>2026-08-21T08:49:55Z</time>
      </trkpt>
      <trkpt lat="49.14233" lon="4.0282">
        <ele>223</ele>
        <time>2026-08-21T08:50:00Z</time>
      </trkpt>
      <trkpt lat="49.14233" lon="4.0282">
        <ele>223</ele>
        <time>2026-08-21T08:50:06Z</time>
      </trkpt>
      <trkpt lat="49.14233" lon="4.0282">
        <ele>223</ele>
        <time>2026-08-21T08:50:11Z</time>
      </trkpt>
      <trkpt lat="49.14233" lon="4.0282">
        <ele>223</ele>
        <time>2026-08-21T08:50:16Z</time>
      </trkpt>
      <trkpt lat="49.14233" lon="4.0282">
        <ele>223</ele>
        <time>2026-08-21T08:50:22Z</time>
      </trkpt>
      <trkpt lat="49.14233" lon="4.0282">
        <ele>223</ele>
        <time>2026-08-21T08:50:27Z</time>
      </trkpt>
      <trkpt lat="49.14233" lon="4.0282">
        <ele>223</ele>
        <time>2026-08-21T08:50:32Z</time>
      </trkpt>
      <trkpt lat="49.14233" lon="4.0282">
        <ele>223</ele>
        <time>2026-08-21T08:50:38Z</time>
      </trkpt>
      <trkpt lat="49.14233" lon="4.0282">
        <ele>223</ele>
        <time>2026-08-21T08:50:43Z</time>
      </trkpt>
      <trkpt lat="49.14233" lon="4.0282">
        <ele>223</ele>
        <time>2026-08-21T08:50:48Z</time>
      </trkpt>
      <trkpt lat="49.14233" lon="4.0282">
        <ele>223</ele>
        <time>2026-08-21T08:50:54Z</time>
      </trkpt>
      <trkpt lat="49.14233" lon="4.0282">
        <ele>223</ele>
        <time>2026-08-21T08:50:59Z</time>
      </trkpt>
      <trkpt lat="49.14233" lon="4.0282">
        <ele>223</ele>
        <time>2026-08-21T08:51:04Z</time>
      </trkpt>
      <trkpt lat="49.14233" lon="4.0282">
        <ele>223</ele>
        <time>2026-08-21T08:51:10Z</time>
      </trkpt>
      <trkpt lat="49.14233" lon="4.0282">
        <ele>223</ele>
        <time>2026-08-21T08:51:15Z</time>
      </trkpt>
      <trkpt lat="49.14233" lon="4.0282">
        <ele>223</ele>
        <time>2026-08-21T08:51:20Z</time>
      </trkpt>
      <trkpt lat="49.14233" lon="4.0282">
        <ele>223</ele>
        <time>2026-08-21T08:51:26Z</time>
      </trkpt>
      <trkpt lat="49.14233" lon="4.0282">
        <ele>223</ele>
        <time>2026-08-21T08:51:31Z</time>
      </trkpt>
      <trkpt lat="49.14233" lon="4.0282">
        <ele>223</ele>
        <time>2026-08-21T08:51:36Z</time>
      </trkpt>
      <trkpt lat="49.14233" lon="4.0282">
        <ele>223</ele>
        <time>2026-08-21T08:51:42Z</time>
      </trkpt>
      <trkpt lat="49.14233" lon="4.0282">
        <ele>223</ele>
        <time>2026-08-21T08:51:47Z</time>
      </trkpt>
      <trkpt lat="49.14233" lon="4.0282">
        <ele>223</ele>
        <time>2026-08-21T08:51:52Z</time>
      </trkpt>
      <trkpt lat="49.14233" lon="4.0282">
        <ele>223</ele>
        <time>2026-08-21T08:51:58Z</time>
      </trkpt>
      <trkpt lat="49.14233" lon="4.0282">
        <ele>223</ele>
        <time>2026-08-21T08:52:03Z</time>
      </trkpt>
      <trkpt lat="49.14233" lon="4.0282">
        <ele>223</ele>
        <time>2026-08-21T08:52:08Z</time>
      </trkpt>
      <trkpt lat="49.14233" lon="4.0282">
        <ele>223</ele>
        <time>2026-08-21T08:52:14Z</time>
      </trkpt>
      <trkpt lat="49.14233" lon="4.0282">
        <ele>223</ele>
        <time>2026-08-21T08:52:19Z</time>
      </trkpt>
      <trkpt lat="49.14233" lon="4.0282">
        <ele>223</ele>
        <time>2026-08-21T08:52:24Z</time>
      </trkpt>
      <trkpt lat="49.14233" lon="4.0282">
        <ele>223</ele>
        <time>2026-08-21T08:52:30Z</time>
      </trkpt>
      <trkpt lat="49.14233" lon="4.0282">
        <ele>223</ele>
        <time>2026-08-21T08:52:35Z</time>
      </trkpt>
      <trkpt lat="49.14233" lon="4.0282">
        <ele>223</ele>
        <time>2026-08-21T08:52:40Z</time>
      </trkpt>
      <trkpt lat="49.14233" lon="4.0282">
        <ele>223</ele>
        <time>2026-08-21T08:52:46Z</time>
      </trkpt>
      <trkpt lat="49.14233" lon="4.0282">
        <ele>223</ele>
        <time>2026-08-21T08:52:51Z</time>
      </trkpt>
      <trkpt lat="49.14233" lon="4.0282">
        <ele>223</ele>
        <time>2026-08-21T08:52:56Z</time>
      </trkpt>
      <trkpt lat="49.14233" lon="4.0282">
        <ele>223</ele>
        <time>2026-08-21T08:53:02Z</time>
      </trkpt>
      <trkpt lat="49.14233" lon="4.0282">
        <ele>223</ele>
        <time>2026-08-21T08:53:07Z</time>
      </trkpt>
      <trkpt lat="49.14233" lon="4.0282">
        <ele>223</ele>
        <time>2026-08-21T08:53:12Z</time>
      </trkpt>
      <trkpt lat="49.14233" lon="4.0282">
        <ele>223</ele>
        <time>2026-08-21T08:53:18Z</time>
      </trkpt>
      <trkpt lat="49.14233" lon="4.0282">
        <ele>223</ele>
        <time>2026-08-21T08:53:23Z</time>
      </trkpt>
      <trkpt lat="49.14233" lon="4.0282">
        <ele>223</ele>
        <time>2026-08-21T08:53:28Z</time>
      </trkpt>
      <trkpt lat="49.14233" lon="4.0282">
        <ele>223</ele>
        <time>2026-08-21T08:53:34Z</time>
      </trkpt>
      <trkpt lat="49.14233" lon="4.0282">
        <ele>223</ele>
        <time>2026-08-21T08:53:39Z</time>
      </trkpt>
      <trkpt lat="49.14233" lon="4.0282">
        <ele>223</ele>
        <time>2026-08-21T08:53:44Z</time>
      </trkpt>
      <trkpt lat="49.14233" lon="4.0282">
        <ele>223</ele>
        <time>2026-08-21T08:53:50Z</time>
      </trkpt>
      <trkpt lat="49.14233" lon="4.0282">
        <ele>223</ele>
        <time>2026-08-21T08:53:55Z</time>
      </trkpt>
      <trkpt lat="49.14233" lon="4.0282">
        <ele>223</ele>
        <time>2026-08-21T08:54:00Z</time>
      </trkpt>
      <trkpt lat="49.14233" lon="4.0282">
        <ele>223</ele>
        <time>2026-08-21T08:54:06Z</time>
      </trkpt>
      <trkpt lat="49.14233" lon="4.0282">
        <ele>223</ele>
        <time>2026-08-21T08:54:11Z</time>
      </trkpt>
      <trkpt lat="49.14233" lon="4.0282">
        <ele>223</ele>
        <time>2026-08-21T08:54:16Z</time>
      </trkpt>
      <trkpt lat="49.14233" lon="4.0282">
        <ele>223</ele>
        <time>2026-08-21T08:54:22Z</time>
      </trkpt>
      <trkpt lat="49.14233" lon="4.0282">
        <ele>223</ele>
        <time>2026-08-21T08:54:27Z</time>
      </trkpt>
      <trkpt lat="49.14233" lon="4.0282">
        <ele>223</ele>
        <time>2026-08-21T08:54:32Z</time>
      </trkpt>
      <trkpt lat="49.14233" lon="4.0282">
        <ele>223</ele>
        <time>2026-08-21T08:54:38Z</time>
      </trkpt>
      <trkpt lat="49.14233" lon="4.0282">
        <ele>223</ele>
        <time>2026-08-21T08:54:43Z</time>
      </trkpt>
      <trkpt lat="49.14233" lon="4.0282">
        <ele>223</ele>
        <time>2026-08-21T08:54:48Z</time>
      </trkpt>
      <trkpt lat="49.14233" lon="4.0282">
        <ele>223</ele>
        <time>2026-08-21T08:54:54Z</time>
      </trkpt>
      <trkpt lat="49.14233" lon="4.0282">
        <ele>223</ele>
        <time>2026-08-21T08:54:59Z</time>
      </trkpt>
      <trkpt lat="49.14233" lon="4.0282">
        <ele>223</ele>
        <time>2026-08-21T08:55:04Z</time>
      </trkpt>
      <trkpt lat="49.14233" lon="4.0282">
        <ele>223</ele>
        <time>2026-08-21T08:55:10Z</time>
      </trkpt>
      <trkpt lat="49.14233" lon="4.0282">
        <ele>223</ele>
        <time>2026-08-21T08:55:15Z</time>
      </trkpt>
      <trkpt lat="49.14233" lon="4.0282">
        <ele>223</ele>
        <time>2026-08-21T08:55:20Z</time>
      </trkpt>
      <trkpt lat="49.14233" lon="4.0282">
        <ele>223</ele>
        <time>2026-08-21T08:55:26Z</time>
      </trkpt>
      <trkpt lat="49.14233" lon="4.0282">
        <ele>223</ele>
        <time>2026-08-21T08:55:31Z</time>
      </trkpt>
      <trkpt lat="49.14233" lon="4.0282">
        <ele>223</ele>
        <time>2026-08-21T08:55:36Z</time>
      </trkpt>
      <trkpt lat="49.14233" lon="4.0282">
        <ele>223</ele>
        <time>2026-08-21T08:55:42Z</time>
      </trkpt>
      <trkpt lat="49.14233" lon="4.0282">
        <ele>223</ele>
        <time>2026-08-21T08:55:47Z</time>
      </trkpt>
      <trkpt lat="49.14233" lon="4.0282">
        <ele>223</ele>
        <time>2026-08-21T08:55:52Z</time>
      </trkpt>
      <trkpt lat="49.14233" lon="4.0282">
        <ele>223</ele>
        <time>2026-08-21T08:55:58Z</time>
      </trkpt>
      <trkpt lat="49.14233" lon="4.0282">
        <ele>223</ele>
        <time>2026-08-21T08:56:03Z</time>
      </trkpt>
      <trkpt lat="49.14233" lon="4.0282">
        <ele>223</ele>
        <time>2026-08-21T08:56:08Z</time>
      </trkpt>
      <trkpt lat="49.14233" lon="4.0282">
        <ele>223</ele>
        <time>2026-08-21T08:56:14Z</time>
      </trkpt>
      <trkpt lat="49.14233" lon="4.0282">
        <ele>223</ele>
        <time>2026-08-21T08:56:19Z</time>
      </trkpt>
      <trkpt lat="49.14233" lon="4.0282">
        <ele>223</ele>
        <time>2026-08-21T08:56:24Z</time>
      </trkpt>
      <trkpt lat="49.14225" lon="4.02816">
        <ele>222.5</ele>
        <time>2026-08-21T08:56:30Z</time>
      </trkpt>
      <trkpt lat="49.14219" lon="4.02814">
        <ele>222.2</ele>
        <time>2026-08-21T08:56:35Z</time>
      </trkpt>
      <trkpt lat="49.14214" lon="4.02811">
        <ele>221.9</ele>
        <time>2026-08-21T08:56:40Z</time>
      </trkpt>
      <trkpt lat="49.1421" lon="4.02807">
        <ele>221.7</ele>
        <time>2026-08-21T08:56:46Z</time>
      </trkpt>
      <trkpt lat="49.14209" lon="4.02805">
        <ele>221.7</ele>
        <time>2026-08-21T08:56:51Z</time>
      </trkpt>
      <trkpt lat="49.14206" lon="4.02803">
        <ele>221.6</ele>
        <time>2026-08-21T08:56:56Z</time>
      </trkpt>
      <trkpt lat="49.14201" lon="4.02802">
        <ele>221.3</ele>
        <time>2026-08-21T08:57:02Z</time>
      </trkpt>
      <trkpt lat="49.14196" lon="4.02801">
        <ele>221</ele>
        <time>2026-08-21T08:57:07Z</time>
      </trkpt>
      <trkpt lat="49.14191" lon="4.02797">
        <ele>220.8</ele>
        <time>2026-08-21T08:57:12Z</time>
      </trkpt>
      <trkpt lat="49.14186" lon="4.02796">
        <ele>220.5</ele>
        <time>2026-08-21T08:57:18Z</time>
      </trkpt>
      <trkpt lat="49.14184" lon="4.02796">
        <ele>220.4</ele>
        <time>2026-08-21T08:57:23Z</time>
      </trkpt>
      <trkpt lat="49.14182" lon="4.02794">
        <ele>220.3</ele>
        <time>2026-08-21T08:57:28Z</time>
      </trkpt>
      <trkpt lat="49.14176" lon="4.02791">
        <ele>220.1</ele>
        <time>2026-08-21T08:57:34Z</time>
      </trkpt>
      <trkpt lat="49.14171" lon="4.02789">
        <ele>219.9</ele>
        <time>2026-08-21T08:57:39Z</time>
      </trkpt>
      <trkpt lat="49.14164" lon="4.02784">
        <ele>219.7</ele>
        <time>2026-08-21T08:57:44Z</time>
      </trkpt>
      <trkpt lat="49.14156" lon="4.02778">
        <ele>219.9</ele>
        <time>2026-08-21T08:57:50Z</time>
      </trkpt>
      <trkpt lat="49.14151" lon="4.02777">
        <ele>219.8</ele>
        <time>2026-08-21T08:57:55Z</time>
      </trkpt>
      <trkpt lat="49.14148" lon="4.02776">
        <ele>219.8</ele>
        <time>2026-08-21T08:58:00Z</time>
      </trkpt>
      <trkpt lat="49.14147" lon="4.02776">
        <ele>219.8</ele>
        <time>2026-08-21T08:58:06Z</time>
      </trkpt>
      <trkpt lat="49.14143" lon="4.02772">
        <ele>219.9</ele>
        <time>2026-08-21T08:58:11Z</time>
      </trkpt>
      <trkpt lat="49.14137" lon="4.02769">
        <ele>220</ele>
        <time>2026-08-21T08:58:16Z</time>
      </trkpt>
      <trkpt lat="49.14132" lon="4.02765">
        <ele>220</ele>
        <time>2026-08-21T08:58:22Z</time>
      </trkpt>
      <trkpt lat="49.14127" lon="4.02762">
        <ele>220.1</ele>
        <time>2026-08-21T08:58:27Z</time>
      </trkpt>
      <trkpt lat="49.14121" lon="4.02759">
        <ele>220.1</ele>
        <time>2026-08-21T08:58:32Z</time>
      </trkpt>
      <trkpt lat="49.14114" lon="4.02757">
        <ele>220.1</ele>
        <time>2026-08-21T08:58:38Z</time>
      </trkpt>
      <trkpt lat="49.14107" lon="4.02755">
        <ele>220.1</ele>
        <time>2026-08-21T08:58:43Z</time>
      </trkpt>
      <trkpt lat="49.14101" lon="4.02753">
        <ele>220.1</ele>
        <time>2026-08-21T08:58:48Z</time>
      </trkpt>
      <trkpt lat="49.14095" lon="4.0275">
        <ele>220.1</ele>
        <time>2026-08-21T08:58:54Z</time>
      </trkpt>
      <trkpt lat="49.14089" lon="4.02746">
        <ele>220.2</ele>
        <time>2026-08-21T08:58:59Z</time>
      </trkpt>
      <trkpt lat="49.14084" lon="4.02743">
        <ele>220.2</ele>
        <time>2026-08-21T08:59:04Z</time>
      </trkpt>
      <trkpt lat="49.14079" lon="4.0274">
        <ele>219.9</ele>
        <time>2026-08-21T08:59:10Z</time>
      </trkpt>
      <trkpt lat="49.14079" lon="4.02738">
        <ele>220</ele>
        <time>2026-08-21T08:59:15Z</time>
      </trkpt>
      <trkpt lat="49.14076" lon="4.02737">
        <ele>219.8</ele>
        <time>2026-08-21T08:59:20Z</time>
      </trkpt>
      <trkpt lat="49.14067" lon="4.02732">
        <ele>219.3</ele>
        <time>2026-08-21T08:59:26Z</time>
      </trkpt>
      <trkpt lat="49.14061" lon="4.02729">
        <ele>218.9</ele>
        <time>2026-08-21T08:59:31Z</time>
      </trkpt>
      <trkpt lat="49.14055" lon="4.02727">
        <ele>218.5</ele>
        <time>2026-08-21T08:59:36Z</time>
      </trkpt>
      <trkpt lat="49.14047" lon="4.02722">
        <ele>218.1</ele>
        <time>2026-08-21T08:59:42Z</time>
      </trkpt>
      <trkpt lat="49.14041" lon="4.02721">
        <ele>217.6</ele>
        <time>2026-08-21T08:59:47Z</time>
      </trkpt>
      <trkpt lat="49.14035" lon="4.02719">
        <ele>217.3</ele>
        <time>2026-08-21T08:59:52Z</time>
      </trkpt>
      <trkpt lat="49.14028" lon="4.02715">
        <ele>216.9</ele>
        <time>2026-08-21T08:59:58Z</time>
      </trkpt>
      <trkpt lat="49.14023" lon="4.02711">
        <ele>216.6</ele>
        <time>2026-08-21T09:00:03Z</time>
      </trkpt>
      <trkpt lat="49.14019" lon="4.02707">
        <ele>216.4</ele>
        <time>2026-08-21T09:00:08Z</time>
      </trkpt>
      <trkpt lat="49.14011" lon="4.02704">
        <ele>215.9</ele>
        <time>2026-08-21T09:00:14Z</time>
      </trkpt>
      <trkpt lat="49.14004" lon="4.02703">
        <ele>215.4</ele>
        <time>2026-08-21T09:00:19Z</time>
      </trkpt>
      <trkpt lat="49.13999" lon="4.02702">
        <ele>215.1</ele>
        <time>2026-08-21T09:00:24Z</time>
      </trkpt>
      <trkpt lat="49.13993" lon="4.02696">
        <ele>214.7</ele>
        <time>2026-08-21T09:00:30Z</time>
      </trkpt>
      <trkpt lat="49.13987" lon="4.02692">
        <ele>214.3</ele>
        <time>2026-08-21T09:00:35Z</time>
      </trkpt>
      <trkpt lat="49.13982" lon="4.0269">
        <ele>213.9</ele>
        <time>2026-08-21T09:00:40Z</time>
      </trkpt>
      <trkpt lat="49.13976" lon="4.02687">
        <ele>213.4</ele>
        <time>2026-08-21T09:00:46Z</time>
      </trkpt>
      <trkpt lat="49.13971" lon="4.02686">
        <ele>213</ele>
        <time>2026-08-21T09:00:51Z</time>
      </trkpt>
      <trkpt lat="49.13967" lon="4.02684">
        <ele>212.7</ele>
        <time>2026-08-21T09:00:56Z</time>
      </trkpt>
      <trkpt lat="49.13962" lon="4.02679">
        <ele>212.4</ele>
        <time>2026-08-21T09:01:02Z</time>
      </trkpt>
      <trkpt lat="49.13956" lon="4.02675">
        <ele>212.1</ele>
        <time>2026-08-21T09:01:07Z</time>
      </trkpt>
      <trkpt lat="49.13951" lon="4.02674">
        <ele>211.7</ele>
        <time>2026-08-21T09:01:12Z</time>
      </trkpt>
      <trkpt lat="49.13945" lon="4.02668">
        <ele>211.3</ele>
        <time>2026-08-21T09:01:18Z</time>
      </trkpt>
      <trkpt lat="49.13939" lon="4.02664">
        <ele>211</ele>
        <time>2026-08-21T09:01:23Z</time>
      </trkpt>
      <trkpt lat="49.13933" lon="4.02661">
        <ele>210.6</ele>
        <time>2026-08-21T09:01:28Z</time>
      </trkpt>
      <trkpt lat="49.13926" lon="4.02657">
        <ele>210.2</ele>
        <time>2026-08-21T09:01:34Z</time>
      </trkpt>
      <trkpt lat="49.1392" lon="4.02656">
        <ele>209.8</ele>
        <time>2026-08-21T09:01:39Z</time>
      </trkpt>
      <trkpt lat="49.13913" lon="4.02651">
        <ele>209.4</ele>
        <time>2026-08-21T09:01:44Z</time>
      </trkpt>
      <trkpt lat="49.13905" lon="4.02646">
        <ele>208.8</ele>
        <time>2026-08-21T09:01:50Z</time>
      </trkpt>
      <trkpt lat="49.13899" lon="4.02644">
        <ele>208.2</ele>
        <time>2026-08-21T09:01:55Z</time>
      </trkpt>
      <trkpt lat="49.13894" lon="4.02642">
        <ele>207.8</ele>
        <time>2026-08-21T09:02:00Z</time>
      </trkpt>
      <trkpt lat="49.13887" lon="4.02635">
        <ele>207.3</ele>
        <time>2026-08-21T09:02:06Z</time>
      </trkpt>
      <trkpt lat="49.1388" lon="4.02633">
        <ele>206.6</ele>
        <time>2026-08-21T09:02:11Z</time>
      </trkpt>
      <trkpt lat="49.13874" lon="4.02629">
        <ele>206</ele>
        <time>2026-08-21T09:02:16Z</time>
      </trkpt>
      <trkpt lat="49.13867" lon="4.02622">
        <ele>205.4</ele>
        <time>2026-08-21T09:02:22Z</time>
      </trkpt>
      <trkpt lat="49.13862" lon="4.02616">
        <ele>205</ele>
        <time>2026-08-21T09:02:27Z</time>
      </trkpt>
      <trkpt lat="49.1386" lon="4.02614">
        <ele>204.8</ele>
        <time>2026-08-21T09:02:32Z</time>
      </trkpt>
      <trkpt lat="49.13858" lon="4.02614">
        <ele>204.6</ele>
        <time>2026-08-21T09:02:38Z</time>
      </trkpt>
      <trkpt lat="49.13857" lon="4.02609">
        <ele>204.6</ele>
        <time>2026-08-21T09:02:43Z</time>
      </trkpt>
      <trkpt lat="49.13853" lon="4.02602">
        <ele>204.2</ele>
        <time>2026-08-21T09:02:48Z</time>
      </trkpt>
      <trkpt lat="49.13849" lon="4.02593">
        <ele>203.9</ele>
        <time>2026-08-21T09:02:54Z</time>
      </trkpt>
      <trkpt lat="49.13844" lon="4.02586">
        <ele>203.4</ele>
        <time>2026-08-21T09:02:59Z</time>
      </trkpt>
      <trkpt lat="49.13841" lon="4.0258">
        <ele>203.1</ele>
        <time>2026-08-21T09:03:04Z</time>
      </trkpt>
      <trkpt lat="49.13835" lon="4.02573">
        <ele>202.6</ele>
        <time>2026-08-21T09:03:10Z</time>
      </trkpt>
      <trkpt lat="49.13833" lon="4.02569">
        <ele>202.5</ele>
        <time>2026-08-21T09:03:15Z</time>
      </trkpt>
      <trkpt lat="49.13831" lon="4.02566">
        <ele>202.6</ele>
        <time>2026-08-21T09:03:20Z</time>
      </trkpt>
      <trkpt lat="49.13831" lon="4.02563">
        <ele>202.7</ele>
        <time>2026-08-21T09:03:26Z</time>
      </trkpt>
      <trkpt lat="49.13831" lon="4.02563">
        <ele>202.7</ele>
        <time>2026-08-21T09:03:31Z</time>
      </trkpt>
      <trkpt lat="49.13831" lon="4.02563">
        <ele>202.7</ele>
        <time>2026-08-21T09:03:36Z</time>
      </trkpt>
      <trkpt lat="49.13831" lon="4.02563">
        <ele>202.7</ele>
        <time>2026-08-21T09:03:42Z</time>
      </trkpt>
      <trkpt lat="49.13831" lon="4.02563">
        <ele>202.7</ele>
        <time>2026-08-21T09:03:47Z</time>
      </trkpt>
      <trkpt lat="49.13831" lon="4.02563">
        <ele>202.7</ele>
        <time>2026-08-21T09:03:52Z</time>
      </trkpt>
      <trkpt lat="49.13826" lon="4.02563">
        <ele>202.6</ele>
        <time>2026-08-21T09:03:58Z</time>
      </trkpt>
      <trkpt lat="49.13822" lon="4.02556">
        <ele>202.8</ele>
        <time>2026-08-21T09:04:03Z</time>
      </trkpt>
      <trkpt lat="49.13817" lon="4.02549">
        <ele>202.9</ele>
        <time>2026-08-21T09:04:08Z</time>
      </trkpt>
      <trkpt lat="49.13811" lon="4.02543">
        <ele>202.9</ele>
        <time>2026-08-21T09:04:14Z</time>
      </trkpt>
      <trkpt lat="49.13809" lon="4.02544">
        <ele>202.8</ele>
        <time>2026-08-21T09:04:19Z</time>
      </trkpt>
      <trkpt lat="49.13803" lon="4.02538">
        <ele>202.9</ele>
        <time>2026-08-21T09:04:24Z</time>
      </trkpt>
      <trkpt lat="49.13795" lon="4.02536">
        <ele>202.7</ele>
        <time>2026-08-21T09:04:30Z</time>
      </trkpt>
      <trkpt lat="49.13789" lon="4.02533">
        <ele>202.6</ele>
        <time>2026-08-21T09:04:35Z</time>
      </trkpt>
      <trkpt lat="49.13789" lon="4.02533">
        <ele>202.6</ele>
        <time>2026-08-21T09:04:40Z</time>
      </trkpt>
      <trkpt lat="49.13789" lon="4.02533">
        <ele>202.6</ele>
        <time>2026-08-21T09:04:46Z</time>
      </trkpt>
      <trkpt lat="49.13788" lon="4.02533">
        <ele>202.6</ele>
        <time>2026-08-21T09:04:51Z</time>
      </trkpt>
      <trkpt lat="49.13783" lon="4.02531">
        <ele>202.5</ele>
        <time>2026-08-21T09:04:56Z</time>
      </trkpt>
      <trkpt lat="49.13775" lon="4.02527">
        <ele>202.4</ele>
        <time>2026-08-21T09:05:02Z</time>
      </trkpt>
      <trkpt lat="49.13768" lon="4.02525">
        <ele>202.2</ele>
        <time>2026-08-21T09:05:07Z</time>
      </trkpt>
      <trkpt lat="49.13763" lon="4.02524">
        <ele>202.1</ele>
        <time>2026-08-21T09:05:12Z</time>
      </trkpt>
      <trkpt lat="49.13757" lon="4.0252">
        <ele>202</ele>
        <time>2026-08-21T09:05:18Z</time>
      </trkpt>
      <trkpt lat="49.13751" lon="4.02519">
        <ele>201.8</ele>
        <time>2026-08-21T09:05:23Z</time>
      </trkpt>
      <trkpt lat="49.13744" lon="4.02516">
        <ele>201.3</ele>
        <time>2026-08-21T09:05:28Z</time>
      </trkpt>
      <trkpt lat="49.13738" lon="4.02513">
        <ele>200.9</ele>
        <time>2026-08-21T09:05:34Z</time>
      </trkpt>
      <trkpt lat="49.13733" lon="4.02511">
        <ele>200.5</ele>
        <time>2026-08-21T09:05:39Z</time>
      </trkpt>
      <trkpt lat="49.13727" lon="4.02507">
        <ele>200</ele>
        <time>2026-08-21T09:05:44Z</time>
      </trkpt>
      <trkpt lat="49.13721" lon="4.02504">
        <ele>199.5</ele>
        <time>2026-08-21T09:05:50Z</time>
      </trkpt>
      <trkpt lat="49.13715" lon="4.025">
        <ele>199.1</ele>
        <time>2026-08-21T09:05:55Z</time>
      </trkpt>
      <trkpt lat="49.13709" lon="4.02496">
        <ele>198.8</ele>
        <time>2026-08-21T09:06:00Z</time>
      </trkpt>
      <trkpt lat="49.13703" lon="4.02493">
        <ele>198.5</ele>
        <time>2026-08-21T09:06:06Z</time>
      </trkpt>
      <trkpt lat="49.13696" lon="4.0249">
        <ele>198.1</ele>
        <time>2026-08-21T09:06:11Z</time>
      </trkpt>
      <trkpt lat="49.1369" lon="4.02487">
        <ele>197.9</ele>
        <time>2026-08-21T09:06:16Z</time>
      </trkpt>
      <trkpt lat="49.13684" lon="4.02482">
        <ele>197.7</ele>
        <time>2026-08-21T09:06:22Z</time>
      </trkpt>
      <trkpt lat="49.13678" lon="4.02479">
        <ele>197.4</ele>
        <time>2026-08-21T09:06:27Z</time>
      </trkpt>
      <trkpt lat="49.13672" lon="4.02476">
        <ele>197.2</ele>
        <time>2026-08-21T09:06:32Z</time>
      </trkpt>
      <trkpt lat="49.13666" lon="4.02472">
        <ele>197</ele>
        <time>2026-08-21T09:06:38Z</time>
      </trkpt>
      <trkpt lat="49.1366" lon="4.02468">
        <ele>197.2</ele>
        <time>2026-08-21T09:06:43Z</time>
      </trkpt>
      <trkpt lat="49.13654" lon="4.02464">
        <ele>197.3</ele>
        <time>2026-08-21T09:06:48Z</time>
      </trkpt>
      <trkpt lat="49.13646" lon="4.0246">
        <ele>197.3</ele>
        <time>2026-08-21T09:06:54Z</time>
      </trkpt>
      <trkpt lat="49.1364" lon="4.02457">
        <ele>197.3</ele>
        <time>2026-08-21T09:06:59Z</time>
      </trkpt>
      <trkpt lat="49.13634" lon="4.02453">
        <ele>197.2</ele>
        <time>2026-08-21T09:07:04Z</time>
      </trkpt>
      <trkpt lat="49.13628" lon="4.02447">
        <ele>197.2</ele>
        <time>2026-08-21T09:07:10Z</time>
      </trkpt>
      <trkpt lat="49.13622" lon="4.02445">
        <ele>197</ele>
        <time>2026-08-21T09:07:15Z</time>
      </trkpt>
      <trkpt lat="49.13616" lon="4.02444">
        <ele>196.8</ele>
        <time>2026-08-21T09:07:20Z</time>
      </trkpt>
      <trkpt lat="49.13608" lon="4.0244">
        <ele>196.5</ele>
        <time>2026-08-21T09:07:26Z</time>
      </trkpt>
      <trkpt lat="49.13602" lon="4.02438">
        <ele>196.2</ele>
        <time>2026-08-21T09:07:31Z</time>
      </trkpt>
      <trkpt lat="49.13595" lon="4.02438">
        <ele>195.8</ele>
        <time>2026-08-21T09:07:36Z</time>
      </trkpt>
      <trkpt lat="49.13587" lon="4.02439">
        <ele>195.4</ele>
        <time>2026-08-21T09:07:42Z</time>
      </trkpt>
      <trkpt lat="49.1358" lon="4.02436">
        <ele>194.9</ele>
        <time>2026-08-21T09:07:47Z</time>
      </trkpt>
      <trkpt lat="49.13573" lon="4.02433">
        <ele>194.3</ele>
        <time>2026-08-21T09:07:52Z</time>
      </trkpt>
      <trkpt lat="49.13566" lon="4.0243">
        <ele>193.5</ele>
        <time>2026-08-21T09:07:58Z</time>
      </trkpt>
      <trkpt lat="49.13559" lon="4.02427">
        <ele>192.7</ele>
        <time>2026-08-21T09:08:03Z</time>
      </trkpt>
      <trkpt lat="49.13554" lon="4.02424">
        <ele>192.1</ele>
        <time>2026-08-21T09:08:08Z</time>
      </trkpt>
      <trkpt lat="49.13546" lon="4.0242">
        <ele>191.1</ele>
        <time>2026-08-21T09:08:14Z</time>
      </trkpt>
      <trkpt lat="49.13539" lon="4.02418">
        <ele>190.3</ele>
        <time>2026-08-21T09:08:19Z</time>
      </trkpt>
      <trkpt lat="49.13532" lon="4.02416">
        <ele>189.5</ele>
        <time>2026-08-21T09:08:24Z</time>
      </trkpt>
      <trkpt lat="49.13525" lon="4.02412">
        <ele>188.8</ele>
        <time>2026-08-21T09:08:30Z</time>
      </trkpt>
      <trkpt lat="49.13519" lon="4.02413">
        <ele>188.2</ele>
        <time>2026-08-21T09:08:35Z</time>
      </trkpt>
      <trkpt lat="49.13514" lon="4.02412">
        <ele>187.6</ele>
        <time>2026-08-21T09:08:40Z</time>
      </trkpt>
      <trkpt lat="49.13512" lon="4.02412">
        <ele>187.4</ele>
        <time>2026-08-21T09:08:46Z</time>
      </trkpt>
      <trkpt lat="49.13512" lon="4.02412">
        <ele>187.4</ele>
        <time>2026-08-21T09:08:51Z</time>
      </trkpt>
      <trkpt lat="49.13512" lon="4.02412">
        <ele>187.4</ele>
        <time>2026-08-21T09:08:56Z</time>
      </trkpt>
      <trkpt lat="49.13512" lon="4.02412">
        <ele>187.4</ele>
        <time>2026-08-21T09:09:02Z</time>
      </trkpt>
      <trkpt lat="49.13508" lon="4.02409">
        <ele>187.1</ele>
        <time>2026-08-21T09:09:07Z</time>
      </trkpt>
      <trkpt lat="49.13505" lon="4.02403">
        <ele>186.9</ele>
        <time>2026-08-21T09:09:12Z</time>
      </trkpt>
      <trkpt lat="49.13501" lon="4.02396">
        <ele>186.6</ele>
        <time>2026-08-21T09:09:18Z</time>
      </trkpt>
      <trkpt lat="49.13497" lon="4.02389">
        <ele>186.7</ele>
        <time>2026-08-21T09:09:23Z</time>
      </trkpt>
      <trkpt lat="49.13492" lon="4.02382">
        <ele>187</ele>
        <time>2026-08-21T09:09:28Z</time>
      </trkpt>
      <trkpt lat="49.13487" lon="4.02376">
        <ele>187.1</ele>
        <time>2026-08-21T09:09:34Z</time>
      </trkpt>
      <trkpt lat="49.13485" lon="4.02374">
        <ele>187.1</ele>
        <time>2026-08-21T09:09:39Z</time>
      </trkpt>
      <trkpt lat="49.13481" lon="4.02369">
        <ele>187.1</ele>
        <time>2026-08-21T09:09:44Z</time>
      </trkpt>
      <trkpt lat="49.13475" lon="4.02363">
        <ele>187</ele>
        <time>2026-08-21T09:09:50Z</time>
      </trkpt>
      <trkpt lat="49.13469" lon="4.02359">
        <ele>186.9</ele>
        <time>2026-08-21T09:09:55Z</time>
      </trkpt>
      <trkpt lat="49.13463" lon="4.02356">
        <ele>186.8</ele>
        <time>2026-08-21T09:10:00Z</time>
      </trkpt>
      <trkpt lat="49.1346" lon="4.02353">
        <ele>186.6</ele>
        <time>2026-08-21T09:10:06Z</time>
      </trkpt>
      <trkpt lat="49.13458" lon="4.0235">
        <ele>186.5</ele>
        <time>2026-08-21T09:10:11Z</time>
      </trkpt>
      <trkpt lat="49.13457" lon="4.0235">
        <ele>186.5</ele>
        <time>2026-08-21T09:10:16Z</time>
      </trkpt>
      <trkpt lat="49.13457" lon="4.0235">
        <ele>186.5</ele>
        <time>2026-08-21T09:10:22Z</time>
      </trkpt>
      <trkpt lat="49.13457" lon="4.0235">
        <ele>186.5</ele>
        <time>2026-08-21T09:10:27Z</time>
      </trkpt>
      <trkpt lat="49.13453" lon="4.02349">
        <ele>186.3</ele>
        <time>2026-08-21T09:10:32Z</time>
      </trkpt>
      <trkpt lat="49.13447" lon="4.02347">
        <ele>186.1</ele>
        <time>2026-08-21T09:10:38Z</time>
      </trkpt>
      <trkpt lat="49.13444" lon="4.02346">
        <ele>185.9</ele>
        <time>2026-08-21T09:10:43Z</time>
      </trkpt>
      <trkpt lat="49.13439" lon="4.02343">
        <ele>185.6</ele>
        <time>2026-08-21T09:10:48Z</time>
      </trkpt>
      <trkpt lat="49.13434" lon="4.02338">
        <ele>185.1</ele>
        <time>2026-08-21T09:10:54Z</time>
      </trkpt>
      <trkpt lat="49.13428" lon="4.02335">
        <ele>184.7</ele>
        <time>2026-08-21T09:10:59Z</time>
      </trkpt>
      <trkpt lat="49.13423" lon="4.02332">
        <ele>184.4</ele>
        <time>2026-08-21T09:11:04Z</time>
      </trkpt>
      <trkpt lat="49.13417" lon="4.02329">
        <ele>184.3</ele>
        <time>2026-08-21T09:11:10Z</time>
      </trkpt>
      <trkpt lat="49.13411" lon="4.02324">
        <ele>184.7</ele>
        <time>2026-08-21T09:11:15Z</time>
      </trkpt>
      <trkpt lat="49.13406" lon="4.02321">
        <ele>185</ele>
        <time>2026-08-21T09:11:20Z</time>
      </trkpt>
      <trkpt lat="49.13398" lon="4.02317">
        <ele>185.2</ele>
        <time>2026-08-21T09:11:26Z</time>
      </trkpt>
      <trkpt lat="49.13392" lon="4.02316">
        <ele>185.3</ele>
        <time>2026-08-21T09:11:31Z</time>
      </trkpt>
      <trkpt lat="49.13387" lon="4.02313">
        <ele>185.4</ele>
        <time>2026-08-21T09:11:36Z</time>
      </trkpt>
      <trkpt lat="49.13379" lon="4.02308">
        <ele>185.5</ele>
        <time>2026-08-21T09:11:42Z</time>
      </trkpt>
      <trkpt lat="49.13374" lon="4.02306">
        <ele>185.5</ele>
        <time>2026-08-21T09:11:47Z</time>
      </trkpt>
      <trkpt lat="49.13368" lon="4.02303">
        <ele>185.4</ele>
        <time>2026-08-21T09:11:52Z</time>
      </trkpt>
      <trkpt lat="49.13362" lon="4.02298">
        <ele>185.4</ele>
        <time>2026-08-21T09:11:58Z</time>
      </trkpt>
      <trkpt lat="49.13358" lon="4.02294">
        <ele>185.2</ele>
        <time>2026-08-21T09:12:03Z</time>
      </trkpt>
      <trkpt lat="49.13353" lon="4.02293">
        <ele>185.1</ele>
        <time>2026-08-21T09:12:08Z</time>
      </trkpt>
      <trkpt lat="49.13344" lon="4.02288">
        <ele>184.7</ele>
        <time>2026-08-21T09:12:14Z</time>
      </trkpt>
      <trkpt lat="49.13338" lon="4.02286">
        <ele>184.5</ele>
        <time>2026-08-21T09:12:19Z</time>
      </trkpt>
      <trkpt lat="49.13332" lon="4.02284">
        <ele>184.3</ele>
        <time>2026-08-21T09:12:24Z</time>
      </trkpt>
      <trkpt lat="49.13325" lon="4.0228">
        <ele>184.5</ele>
        <time>2026-08-21T09:12:30Z</time>
      </trkpt>
      <trkpt lat="49.1332" lon="4.02277">
        <ele>184.6</ele>
        <time>2026-08-21T09:12:35Z</time>
      </trkpt>
      <trkpt lat="49.13314" lon="4.02272">
        <ele>184.5</ele>
        <time>2026-08-21T09:12:40Z</time>
      </trkpt>
      <trkpt lat="49.1331" lon="4.02273">
        <ele>184.8</ele>
        <time>2026-08-21T09:12:46Z</time>
      </trkpt>
      <trkpt lat="49.13309" lon="4.02274">
        <ele>184.9</ele>
        <time>2026-08-21T09:12:51Z</time>
      </trkpt>
      <trkpt lat="49.13309" lon="4.02274">
        <ele>184.9</ele>
        <time>2026-08-21T09:12:56Z</time>
      </trkpt>
      <trkpt lat="49.13309" lon="4.02274">
        <ele>184.9</ele>
        <time>2026-08-21T09:13:02Z</time>
      </trkpt>
      <trkpt lat="49.13309" lon="4.02274">
        <ele>184.9</ele>
        <time>2026-08-21T09:13:07Z</time>
      </trkpt>
      <trkpt lat="49.13309" lon="4.02274">
        <ele>184.9</ele>
        <time>2026-08-21T09:13:12Z</time>
      </trkpt>
      <trkpt lat="49.13309" lon="4.02274">
        <ele>184.9</ele>
        <time>2026-08-21T09:13:18Z</time>
      </trkpt>
      <trkpt lat="49.13305" lon="4.02276">
        <ele>185.2</ele>
        <time>2026-08-21T09:13:23Z</time>
      </trkpt>
      <trkpt lat="49.133" lon="4.02269">
        <ele>184.8</ele>
        <time>2026-08-21T09:13:28Z</time>
      </trkpt>
      <trkpt lat="49.13294" lon="4.02264">
        <ele>184.5</ele>
        <time>2026-08-21T09:13:34Z</time>
      </trkpt>
      <trkpt lat="49.13289" lon="4.02261">
        <ele>184.2</ele>
        <time>2026-08-21T09:13:39Z</time>
      </trkpt>
      <trkpt lat="49.13285" lon="4.02258">
        <ele>184</ele>
        <time>2026-08-21T09:13:44Z</time>
      </trkpt>
      <trkpt lat="49.13278" lon="4.02254">
        <ele>183.5</ele>
        <time>2026-08-21T09:13:50Z</time>
      </trkpt>
      <trkpt lat="49.13271" lon="4.0225">
        <ele>183</ele>
        <time>2026-08-21T09:13:55Z</time>
      </trkpt>
      <trkpt lat="49.13264" lon="4.02245">
        <ele>183</ele>
        <time>2026-08-21T09:14:00Z</time>
      </trkpt>
      <trkpt lat="49.13257" lon="4.02241">
        <ele>183</ele>
        <time>2026-08-21T09:14:06Z</time>
      </trkpt>
      <trkpt lat="49.13251" lon="4.02239">
        <ele>183</ele>
        <time>2026-08-21T09:14:11Z</time>
      </trkpt>
      <trkpt lat="49.13245" lon="4.02238">
        <ele>183</ele>
        <time>2026-08-21T09:14:16Z</time>
      </trkpt>
      <trkpt lat="49.13237" lon="4.02232">
        <ele>183.1</ele>
        <time>2026-08-21T09:14:22Z</time>
      </trkpt>
      <trkpt lat="49.1323" lon="4.02227">
        <ele>183</ele>
        <time>2026-08-21T09:14:27Z</time>
      </trkpt>
      <trkpt lat="49.13225" lon="4.02225">
        <ele>183</ele>
        <time>2026-08-21T09:14:32Z</time>
      </trkpt>
      <trkpt lat="49.13224" lon="4.02222">
        <ele>183</ele>
        <time>2026-08-21T09:14:38Z</time>
      </trkpt>
      <trkpt lat="49.13224" lon="4.02222">
        <ele>183</ele>
        <time>2026-08-21T09:14:43Z</time>
      </trkpt>
      <trkpt lat="49.13224" lon="4.02222">
        <ele>183</ele>
        <time>2026-08-21T09:14:48Z</time>
      </trkpt>
      <trkpt lat="49.13224" lon="4.02222">
        <ele>183</ele>
        <time>2026-08-21T09:14:54Z</time>
      </trkpt>
      <trkpt lat="49.13224" lon="4.02222">
        <ele>183</ele>
        <time>2026-08-21T09:14:59Z</time>
      </trkpt>
      <trkpt lat="49.1322" lon="4.02222">
        <ele>183</ele>
        <time>2026-08-21T09:15:04Z</time>
      </trkpt>
      <trkpt lat="49.13212" lon="4.0222">
        <ele>183</ele>
        <time>2026-08-21T09:15:10Z</time>
      </trkpt>
      <trkpt lat="49.13209" lon="4.02223">
        <ele>183</ele>
        <time>2026-08-21T09:15:15Z</time>
      </trkpt>
      <trkpt lat="49.13209" lon="4.02224">
        <ele>183</ele>
        <time>2026-08-21T09:15:20Z</time>
      </trkpt>
      <trkpt lat="49.13206" lon="4.02222">
        <ele>183</ele>
        <time>2026-08-21T09:15:26Z</time>
      </trkpt>
      <trkpt lat="49.13202" lon="4.02216">
        <ele>182.9</ele>
        <time>2026-08-21T09:15:31Z</time>
      </trkpt>
      <trkpt lat="49.13196" lon="4.02213">
        <ele>182.8</ele>
        <time>2026-08-21T09:15:36Z</time>
      </trkpt>
      <trkpt lat="49.1319" lon="4.02211">
        <ele>182.7</ele>
        <time>2026-08-21T09:15:42Z</time>
      </trkpt>
      <trkpt lat="49.13185" lon="4.0221">
        <ele>182.7</ele>
        <time>2026-08-21T09:15:47Z</time>
      </trkpt>
      <trkpt lat="49.13184" lon="4.02208">
        <ele>182.6</ele>
        <time>2026-08-21T09:15:52Z</time>
      </trkpt>
      <trkpt lat="49.13183" lon="4.02208">
        <ele>182.6</ele>
        <time>2026-08-21T09:15:58Z</time>
      </trkpt>
      <trkpt lat="49.13178" lon="4.02205">
        <ele>182.5</ele>
        <time>2026-08-21T09:16:03Z</time>
      </trkpt>
      <trkpt lat="49.13176" lon="4.02202">
        <ele>182.4</ele>
        <time>2026-08-21T09:16:08Z</time>
      </trkpt>
      <trkpt lat="49.13175" lon="4.02202">
        <ele>182.3</ele>
        <time>2026-08-21T09:16:14Z</time>
      </trkpt>
      <trkpt lat="49.13171" lon="4.02201">
        <ele>182.3</ele>
        <time>2026-08-21T09:16:19Z</time>
      </trkpt>
      <trkpt lat="49.13165" lon="4.022">
        <ele>182.2</ele>
        <time>2026-08-21T09:16:24Z</time>
      </trkpt>
      <trkpt lat="49.13157" lon="4.02199">
        <ele>182.4</ele>
        <time>2026-08-21T09:16:30Z</time>
      </trkpt>
      <trkpt lat="49.13152" lon="4.02198">
        <ele>182.4</ele>
        <time>2026-08-21T09:16:35Z</time>
      </trkpt>
      <trkpt lat="49.13146" lon="4.02195">
        <ele>182.4</ele>
        <time>2026-08-21T09:16:40Z</time>
      </trkpt>
      <trkpt lat="49.13139" lon="4.02192">
        <ele>182.5</ele>
        <time>2026-08-21T09:16:46Z</time>
      </trkpt>
      <trkpt lat="49.13133" lon="4.02189">
        <ele>182.5</ele>
        <time>2026-08-21T09:16:51Z</time>
      </trkpt>
      <trkpt lat="49.13126" lon="4.02186">
        <ele>182.6</ele>
        <time>2026-08-21T09:16:56Z</time>
      </trkpt>
      <trkpt lat="49.13119" lon="4.02185">
        <ele>182.7</ele>
        <time>2026-08-21T09:17:02Z</time>
      </trkpt>
      <trkpt lat="49.13113" lon="4.02184">
        <ele>182.8</ele>
        <time>2026-08-21T09:17:07Z</time>
      </trkpt>
      <trkpt lat="49.13108" lon="4.02183">
        <ele>182.9</ele>
        <time>2026-08-21T09:17:12Z</time>
      </trkpt>
      <trkpt lat="49.131" lon="4.0218">
        <ele>183</ele>
        <time>2026-08-21T09:17:18Z</time>
      </trkpt>
      <trkpt lat="49.13092" lon="4.02179">
        <ele>183.1</ele>
        <time>2026-08-21T09:17:23Z</time>
      </trkpt>
      <trkpt lat="49.13084" lon="4.02177">
        <ele>183.2</ele>
        <time>2026-08-21T09:17:28Z</time>
      </trkpt>
      <trkpt lat="49.13076" lon="4.02176">
        <ele>183</ele>
        <time>2026-08-21T09:17:34Z</time>
      </trkpt>
      <trkpt lat="49.1307" lon="4.02177">
        <ele>182.9</ele>
        <time>2026-08-21T09:17:39Z</time>
      </trkpt>
      <trkpt lat="49.13067" lon="4.02176">
        <ele>182.8</ele>
        <time>2026-08-21T09:17:44Z</time>
      </trkpt>
      <trkpt lat="49.13062" lon="4.02175">
        <ele>182.6</ele>
        <time>2026-08-21T09:17:50Z</time>
      </trkpt>
      <trkpt lat="49.13056" lon="4.02176">
        <ele>182.5</ele>
        <time>2026-08-21T09:17:55Z</time>
      </trkpt>
      <trkpt lat="49.1305" lon="4.02174">
        <ele>182.3</ele>
        <time>2026-08-21T09:18:00Z</time>
      </trkpt>
      <trkpt lat="49.13043" lon="4.02175">
        <ele>182.1</ele>
        <time>2026-08-21T09:18:06Z</time>
      </trkpt>
      <trkpt lat="49.13037" lon="4.02174">
        <ele>182</ele>
        <time>2026-08-21T09:18:11Z</time>
      </trkpt>
      <trkpt lat="49.13031" lon="4.02174">
        <ele>181.8</ele>
        <time>2026-08-21T09:18:16Z</time>
      </trkpt>
      <trkpt lat="49.13024" lon="4.02172">
        <ele>181.6</ele>
        <time>2026-08-21T09:18:22Z</time>
      </trkpt>
      <trkpt lat="49.13017" lon="4.02173">
        <ele>181.4</ele>
        <time>2026-08-21T09:18:27Z</time>
      </trkpt>
      <trkpt lat="49.13012" lon="4.02174">
        <ele>181.3</ele>
        <time>2026-08-21T09:18:32Z</time>
      </trkpt>
      <trkpt lat="49.13005" lon="4.02174">
        <ele>181.1</ele>
        <time>2026-08-21T09:18:38Z</time>
      </trkpt>
      <trkpt lat="49.12998" lon="4.02174">
        <ele>181</ele>
        <time>2026-08-21T09:18:43Z</time>
      </trkpt>
      <trkpt lat="49.12992" lon="4.02175">
        <ele>180.9</ele>
        <time>2026-08-21T09:18:48Z</time>
      </trkpt>
      <trkpt lat="49.12984" lon="4.02175">
        <ele>180.8</ele>
        <time>2026-08-21T09:18:54Z</time>
      </trkpt>
      <trkpt lat="49.12978" lon="4.02174">
        <ele>180.7</ele>
        <time>2026-08-21T09:18:59Z</time>
      </trkpt>
      <trkpt lat="49.12971" lon="4.02175">
        <ele>180.6</ele>
        <time>2026-08-21T09:19:04Z</time>
      </trkpt>
      <trkpt lat="49.12963" lon="4.02175">
        <ele>180.5</ele>
        <time>2026-08-21T09:19:10Z</time>
      </trkpt>
      <trkpt lat="49.12958" lon="4.02178">
        <ele>180.4</ele>
        <time>2026-08-21T09:19:15Z</time>
      </trkpt>
      <trkpt lat="49.12951" lon="4.02178">
        <ele>180.3</ele>
        <time>2026-08-21T09:19:20Z</time>
      </trkpt>
      <trkpt lat="49.12949" lon="4.02177">
        <ele>180.2</ele>
        <time>2026-08-21T09:19:26Z</time>
      </trkpt>
      <trkpt lat="49.12949" lon="4.02177">
        <ele>180.2</ele>
        <time>2026-08-21T09:19:31Z</time>
      </trkpt>
      <trkpt lat="49.12949" lon="4.02177">
        <ele>180.2</ele>
        <time>2026-08-21T09:19:36Z</time>
      </trkpt>
      <trkpt lat="49.12949" lon="4.02177">
        <ele>180.2</ele>
        <time>2026-08-21T09:19:42Z</time>
      </trkpt>
      <trkpt lat="49.12949" lon="4.02177">
        <ele>180.2</ele>
        <time>2026-08-21T09:19:47Z</time>
      </trkpt>
      <trkpt lat="49.12949" lon="4.02177">
        <ele>180.2</ele>
        <time>2026-08-21T09:19:52Z</time>
      </trkpt>
      <trkpt lat="49.12949" lon="4.02177">
        <ele>180.2</ele>
        <time>2026-08-21T09:19:58Z</time>
      </trkpt>
      <trkpt lat="49.12949" lon="4.02177">
        <ele>180.2</ele>
        <time>2026-08-21T09:20:03Z</time>
      </trkpt>
      <trkpt lat="49.12949" lon="4.02177">
        <ele>180.2</ele>
        <time>2026-08-21T09:20:08Z</time>
      </trkpt>
      <trkpt lat="49.12949" lon="4.02177">
        <ele>180.2</ele>
        <time>2026-08-21T09:20:14Z</time>
      </trkpt>
      <trkpt lat="49.12949" lon="4.02177">
        <ele>180.2</ele>
        <time>2026-08-21T09:20:19Z</time>
      </trkpt>
      <trkpt lat="49.12949" lon="4.02177">
        <ele>180.2</ele>
        <time>2026-08-21T09:20:24Z</time>
      </trkpt>
      <trkpt lat="49.12949" lon="4.02177">
        <ele>180.2</ele>
        <time>2026-08-21T09:20:30Z</time>
      </trkpt>
      <trkpt lat="49.12949" lon="4.02177">
        <ele>180.2</ele>
        <time>2026-08-21T09:20:35Z</time>
      </trkpt>
      <trkpt lat="49.12949" lon="4.02177">
        <ele>180.2</ele>
        <time>2026-08-21T09:20:40Z</time>
      </trkpt>
      <trkpt lat="49.12949" lon="4.02177">
        <ele>180.2</ele>
        <time>2026-08-21T09:20:46Z</time>
      </trkpt>
      <trkpt lat="49.12949" lon="4.02177">
        <ele>180.2</ele>
        <time>2026-08-21T09:20:51Z</time>
      </trkpt>
      <trkpt lat="49.12939" lon="4.02171">
        <ele>180.2</ele>
        <time>2026-08-21T09:20:56Z</time>
      </trkpt>
      <trkpt lat="49.12939" lon="4.0217">
        <ele>180.2</ele>
        <time>2026-08-21T09:21:02Z</time>
      </trkpt>
      <trkpt lat="49.12935" lon="4.02172">
        <ele>180.1</ele>
        <time>2026-08-21T09:21:07Z</time>
      </trkpt>
      <trkpt lat="49.12929" lon="4.02174">
        <ele>180</ele>
        <time>2026-08-21T09:21:12Z</time>
      </trkpt>
      <trkpt lat="49.12921" lon="4.02174">
        <ele>179.9</ele>
        <time>2026-08-21T09:21:18Z</time>
      </trkpt>
      <trkpt lat="49.12916" lon="4.02172">
        <ele>179.9</ele>
        <time>2026-08-21T09:21:23Z</time>
      </trkpt>
      <trkpt lat="49.12913" lon="4.02164">
        <ele>180.3</ele>
        <time>2026-08-21T09:21:28Z</time>
      </trkpt>
      <trkpt lat="49.12914" lon="4.02152">
        <ele>181.1</ele>
        <time>2026-08-21T09:21:34Z</time>
      </trkpt>
      <trkpt lat="49.12914" lon="4.02143">
        <ele>181.7</ele>
        <time>2026-08-21T09:21:39Z</time>
      </trkpt>
      <trkpt lat="49.12915" lon="4.02135">
        <ele>182.3</ele>
        <time>2026-08-21T09:21:44Z</time>
      </trkpt>
      <trkpt lat="49.12915" lon="4.02126">
        <ele>182.9</ele>
        <time>2026-08-21T09:21:50Z</time>
      </trkpt>
      <trkpt lat="49.12915" lon="4.02117">
        <ele>183.6</ele>
        <time>2026-08-21T09:21:55Z</time>
      </trkpt>
      <trkpt lat="49.12916" lon="4.02109">
        <ele>184.2</ele>
        <time>2026-08-21T09:22:00Z</time>
      </trkpt>
      <trkpt lat="49.12916" lon="4.021">
        <ele>184.8</ele>
        <time>2026-08-21T09:22:06Z</time>
      </trkpt>
      <trkpt lat="49.12918" lon="4.02091">
        <ele>185.4</ele>
        <time>2026-08-21T09:22:11Z</time>
      </trkpt>
      <trkpt lat="49.12917" lon="4.02083">
        <ele>186</ele>
        <time>2026-08-21T09:22:16Z</time>
      </trkpt>
      <trkpt lat="49.12917" lon="4.02073">
        <ele>186.6</ele>
        <time>2026-08-21T09:22:22Z</time>
      </trkpt>
      <trkpt lat="49.12919" lon="4.02066">
        <ele>186.9</ele>
        <time>2026-08-21T09:22:27Z</time>
      </trkpt>
      <trkpt lat="49.12919" lon="4.02058">
        <ele>187.4</ele>
        <time>2026-08-21T09:22:32Z</time>
      </trkpt>
      <trkpt lat="49.1292" lon="4.02048">
        <ele>187.9</ele>
        <time>2026-08-21T09:22:38Z</time>
      </trkpt>
      <trkpt lat="49.12922" lon="4.02039">
        <ele>188.3</ele>
        <time>2026-08-21T09:22:43Z</time>
      </trkpt>
      <trkpt lat="49.12922" lon="4.02031">
        <ele>188.8</ele>
        <time>2026-08-21T09:22:48Z</time>
      </trkpt>
      <trkpt lat="49.12922" lon="4.02021">
        <ele>189.4</ele>
        <time>2026-08-21T09:22:54Z</time>
      </trkpt>
      <trkpt lat="49.12923" lon="4.02013">
        <ele>189.8</ele>
        <time>2026-08-21T09:22:59Z</time>
      </trkpt>
      <trkpt lat="49.12923" lon="4.02005">
        <ele>190.3</ele>
        <time>2026-08-21T09:23:04Z</time>
      </trkpt>
      <trkpt lat="49.12924" lon="4.01996">
        <ele>190.7</ele>
        <time>2026-08-21T09:23:10Z</time>
      </trkpt>
      <trkpt lat="49.12924" lon="4.01989">
        <ele>191</ele>
        <time>2026-08-21T09:23:15Z</time>
      </trkpt>
      <trkpt lat="49.12925" lon="4.01982">
        <ele>191.3</ele>
        <time>2026-08-21T09:23:20Z</time>
      </trkpt>
      <trkpt lat="49.12926" lon="4.01972">
        <ele>191.7</ele>
        <time>2026-08-21T09:23:26Z</time>
      </trkpt>
      <trkpt lat="49.12928" lon="4.01964">
        <ele>191.9</ele>
        <time>2026-08-21T09:23:31Z</time>
      </trkpt>
      <trkpt lat="49.12929" lon="4.01956">
        <ele>192.2</ele>
        <time>2026-08-21T09:23:36Z</time>
      </trkpt>
      <trkpt lat="49.12931" lon="4.01946">
        <ele>192.6</ele>
        <time>2026-08-21T09:23:42Z</time>
      </trkpt>
      <trkpt lat="49.12932" lon="4.01937">
        <ele>192.9</ele>
        <time>2026-08-21T09:23:47Z</time>
      </trkpt>
      <trkpt lat="49.12932" lon="4.01929">
        <ele>193.3</ele>
        <time>2026-08-21T09:23:52Z</time>
      </trkpt>
      <trkpt lat="49.12933" lon="4.01919">
        <ele>193.7</ele>
        <time>2026-08-21T09:23:58Z</time>
      </trkpt>
      <trkpt lat="49.12934" lon="4.01911">
        <ele>194</ele>
        <time>2026-08-21T09:24:03Z</time>
      </trkpt>
      <trkpt lat="49.12935" lon="4.01903">
        <ele>194.3</ele>
        <time>2026-08-21T09:24:08Z</time>
      </trkpt>
      <trkpt lat="49.12936" lon="4.01893">
        <ele>194.7</ele>
        <time>2026-08-21T09:24:14Z</time>
      </trkpt>
      <trkpt lat="49.12939" lon="4.01885">
        <ele>194.9</ele>
        <time>2026-08-21T09:24:19Z</time>
      </trkpt>
      <trkpt lat="49.12941" lon="4.01877">
        <ele>195.2</ele>
        <time>2026-08-21T09:24:24Z</time>
      </trkpt>
      <trkpt lat="49.12943" lon="4.01867">
        <ele>195.5</ele>
        <time>2026-08-21T09:24:30Z</time>
      </trkpt>
      <trkpt lat="49.12945" lon="4.0186">
        <ele>195.7</ele>
        <time>2026-08-21T09:24:35Z</time>
      </trkpt>
      <trkpt lat="49.12948" lon="4.01852">
        <ele>195.8</ele>
        <time>2026-08-21T09:24:40Z</time>
      </trkpt>
      <trkpt lat="49.12951" lon="4.01842">
        <ele>196.1</ele>
        <time>2026-08-21T09:24:46Z</time>
      </trkpt>
      <trkpt lat="49.12953" lon="4.01835">
        <ele>196.3</ele>
        <time>2026-08-21T09:24:51Z</time>
      </trkpt>
      <trkpt lat="49.12954" lon="4.01831">
        <ele>196.4</ele>
        <time>2026-08-21T09:24:56Z</time>
      </trkpt>
      <trkpt lat="49.12956" lon="4.01829">
        <ele>196.3</ele>
        <time>2026-08-21T09:25:02Z</time>
      </trkpt>
      <trkpt lat="49.12957" lon="4.01828">
        <ele>196.3</ele>
        <time>2026-08-21T09:25:07Z</time>
      </trkpt>
      <trkpt lat="49.12957" lon="4.01828">
        <ele>196.3</ele>
        <time>2026-08-21T09:25:12Z</time>
      </trkpt>
      <trkpt lat="49.12957" lon="4.01828">
        <ele>196.3</ele>
        <time>2026-08-21T09:25:18Z</time>
      </trkpt>
      <trkpt lat="49.12958" lon="4.01816">
        <ele>196.5</ele>
        <time>2026-08-21T09:25:23Z</time>
      </trkpt>
      <trkpt lat="49.12961" lon="4.0181">
        <ele>196.5</ele>
        <time>2026-08-21T09:25:28Z</time>
      </trkpt>
      <trkpt lat="49.12964" lon="4.01801">
        <ele>196.6</ele>
        <time>2026-08-21T09:25:34Z</time>
      </trkpt>
      <trkpt lat="49.12966" lon="4.01794">
        <ele>196.7</ele>
        <time>2026-08-21T09:25:39Z</time>
      </trkpt>
      <trkpt lat="49.12968" lon="4.01786">
        <ele>196.8</ele>
        <time>2026-08-21T09:25:44Z</time>
      </trkpt>
      <trkpt lat="49.1297" lon="4.01778">
        <ele>196.9</ele>
        <time>2026-08-21T09:25:50Z</time>
      </trkpt>
      <trkpt lat="49.12973" lon="4.0177">
        <ele>197</ele>
        <time>2026-08-21T09:25:55Z</time>
      </trkpt>
      <trkpt lat="49.12974" lon="4.01764">
        <ele>197.1</ele>
        <time>2026-08-21T09:26:00Z</time>
      </trkpt>
      <trkpt lat="49.12977" lon="4.01753">
        <ele>197.3</ele>
        <time>2026-08-21T09:26:06Z</time>
      </trkpt>
      <trkpt lat="49.1298" lon="4.01746">
        <ele>197.4</ele>
        <time>2026-08-21T09:26:11Z</time>
      </trkpt>
      <trkpt lat="49.12981" lon="4.01739">
        <ele>197.6</ele>
        <time>2026-08-21T09:26:16Z</time>
      </trkpt>
      <trkpt lat="49.12984" lon="4.01738">
        <ele>197.4</ele>
        <time>2026-08-21T09:26:22Z</time>
      </trkpt>
      <trkpt lat="49.12984" lon="4.01737">
        <ele>197.5</ele>
        <time>2026-08-21T09:26:27Z</time>
      </trkpt>
      <trkpt lat="49.12984" lon="4.01737">
        <ele>197.5</ele>
        <time>2026-08-21T09:26:32Z</time>
      </trkpt>
      <trkpt lat="49.12984" lon="4.01737">
        <ele>197.5</ele>
        <time>2026-08-21T09:26:38Z</time>
      </trkpt>
      <trkpt lat="49.12984" lon="4.01737">
        <ele>197.5</ele>
        <time>2026-08-21T09:26:43Z</time>
      </trkpt>
      <trkpt lat="49.12984" lon="4.01737">
        <ele>197.5</ele>
        <time>2026-08-21T09:26:48Z</time>
      </trkpt>
      <trkpt lat="49.12984" lon="4.01737">
        <ele>197.5</ele>
        <time>2026-08-21T09:26:54Z</time>
      </trkpt>
      <trkpt lat="49.12987" lon="4.01732">
        <ele>197.5</ele>
        <time>2026-08-21T09:26:59Z</time>
      </trkpt>
      <trkpt lat="49.12988" lon="4.01728">
        <ele>197.6</ele>
        <time>2026-08-21T09:27:04Z</time>
      </trkpt>
      <trkpt lat="49.1299" lon="4.01722">
        <ele>197.7</ele>
        <time>2026-08-21T09:27:10Z</time>
      </trkpt>
      <trkpt lat="49.12992" lon="4.01716">
        <ele>197.8</ele>
        <time>2026-08-21T09:27:15Z</time>
      </trkpt>
      <trkpt lat="49.12994" lon="4.01709">
        <ele>197.9</ele>
        <time>2026-08-21T09:27:20Z</time>
      </trkpt>
      <trkpt lat="49.12996" lon="4.017">
        <ele>198.1</ele>
        <time>2026-08-21T09:27:26Z</time>
      </trkpt>
      <trkpt lat="49.12998" lon="4.01693">
        <ele>198.2</ele>
        <time>2026-08-21T09:27:31Z</time>
      </trkpt>
      <trkpt lat="49.12999" lon="4.01686">
        <ele>198.4</ele>
        <time>2026-08-21T09:27:36Z</time>
      </trkpt>
      <trkpt lat="49.13002" lon="4.01677">
        <ele>198.6</ele>
        <time>2026-08-21T09:27:42Z</time>
      </trkpt>
      <trkpt lat="49.13003" lon="4.0167">
        <ele>198.9</ele>
        <time>2026-08-21T09:27:47Z</time>
      </trkpt>
      <trkpt lat="49.13005" lon="4.01663">
        <ele>199.3</ele>
        <time>2026-08-21T09:27:52Z</time>
      </trkpt>
      <trkpt lat="49.13008" lon="4.01654">
        <ele>199.9</ele>
        <time>2026-08-21T09:27:58Z</time>
      </trkpt>
      <trkpt lat="49.13011" lon="4.01646">
        <ele>200.5</ele>
        <time>2026-08-21T09:28:03Z</time>
      </trkpt>
      <trkpt lat="49.13014" lon="4.01639">
        <ele>201</ele>
        <time>2026-08-21T09:28:08Z</time>
      </trkpt>
      <trkpt lat="49.13017" lon="4.0163">
        <ele>201.7</ele>
        <time>2026-08-21T09:28:14Z</time>
      </trkpt>
      <trkpt lat="49.13019" lon="4.01623">
        <ele>202.3</ele>
        <time>2026-08-21T09:28:19Z</time>
      </trkpt>
      <trkpt lat="49.13021" lon="4.01617">
        <ele>202.7</ele>
        <time>2026-08-21T09:28:24Z</time>
      </trkpt>
      <trkpt lat="49.13025" lon="4.0161">
        <ele>203.3</ele>
        <time>2026-08-21T09:28:30Z</time>
      </trkpt>
      <trkpt lat="49.13028" lon="4.01602">
        <ele>203.9</ele>
        <time>2026-08-21T09:28:35Z</time>
      </trkpt>
      <trkpt lat="49.13031" lon="4.01594">
        <ele>204.6</ele>
        <time>2026-08-21T09:28:40Z</time>
      </trkpt>
      <trkpt lat="49.13034" lon="4.01584">
        <ele>205.4</ele>
        <time>2026-08-21T09:28:46Z</time>
      </trkpt>
      <trkpt lat="49.13037" lon="4.01575">
        <ele>205.7</ele>
        <time>2026-08-21T09:28:51Z</time>
      </trkpt>
      <trkpt lat="49.13038" lon="4.01567">
        <ele>205.9</ele>
        <time>2026-08-21T09:28:56Z</time>
      </trkpt>
      <trkpt lat="49.13041" lon="4.01558">
        <ele>206.1</ele>
        <time>2026-08-21T09:29:02Z</time>
      </trkpt>
      <trkpt lat="49.13042" lon="4.01549">
        <ele>206.3</ele>
        <time>2026-08-21T09:29:07Z</time>
      </trkpt>
      <trkpt lat="49.13041" lon="4.0154">
        <ele>206.5</ele>
        <time>2026-08-21T09:29:12Z</time>
      </trkpt>
      <trkpt lat="49.13041" lon="4.01529">
        <ele>206.8</ele>
        <time>2026-08-21T09:29:18Z</time>
      </trkpt>
      <trkpt lat="49.13039" lon="4.01522">
        <ele>207</ele>
        <time>2026-08-21T09:29:23Z</time>
      </trkpt>
      <trkpt lat="49.13037" lon="4.01515">
        <ele>207.2</ele>
        <time>2026-08-21T09:29:28Z</time>
      </trkpt>
      <trkpt lat="49.13034" lon="4.01507">
        <ele>207.4</ele>
        <time>2026-08-21T09:29:34Z</time>
      </trkpt>
      <trkpt lat="49.1303" lon="4.01502">
        <ele>207.6</ele>
        <time>2026-08-21T09:29:39Z</time>
      </trkpt>
      <trkpt lat="49.13025" lon="4.01499">
        <ele>207.7</ele>
        <time>2026-08-21T09:29:44Z</time>
      </trkpt>
      <trkpt lat="49.13019" lon="4.01493">
        <ele>208.1</ele>
        <time>2026-08-21T09:29:50Z</time>
      </trkpt>
      <trkpt lat="49.13012" lon="4.01492">
        <ele>208.3</ele>
        <time>2026-08-21T09:29:55Z</time>
      </trkpt>
      <trkpt lat="49.13006" lon="4.0149">
        <ele>208.5</ele>
        <time>2026-08-21T09:30:00Z</time>
      </trkpt>
      <trkpt lat="49.13" lon="4.01488">
        <ele>208.7</ele>
        <time>2026-08-21T09:30:06Z</time>
      </trkpt>
      <trkpt lat="49.12993" lon="4.01489">
        <ele>209</ele>
        <time>2026-08-21T09:30:11Z</time>
      </trkpt>
      <trkpt lat="49.12988" lon="4.01491">
        <ele>209.1</ele>
        <time>2026-08-21T09:30:16Z</time>
      </trkpt>
      <trkpt lat="49.1298" lon="4.01491">
        <ele>209.6</ele>
        <time>2026-08-21T09:30:22Z</time>
      </trkpt>
      <trkpt lat="49.12975" lon="4.01494">
        <ele>209.6</ele>
        <time>2026-08-21T09:30:27Z</time>
      </trkpt>
      <trkpt lat="49.1297" lon="4.01495">
        <ele>209.8</ele>
        <time>2026-08-21T09:30:32Z</time>
      </trkpt>
      <trkpt lat="49.12964" lon="4.01497">
        <ele>209.9</ele>
        <time>2026-08-21T09:30:38Z</time>
      </trkpt>
      <trkpt lat="49.12957" lon="4.015">
        <ele>210.1</ele>
        <time>2026-08-21T09:30:43Z</time>
      </trkpt>
      <trkpt lat="49.1295" lon="4.01505">
        <ele>210.1</ele>
        <time>2026-08-21T09:30:48Z</time>
      </trkpt>
      <trkpt lat="49.12942" lon="4.0151">
        <ele>210.2</ele>
        <time>2026-08-21T09:30:54Z</time>
      </trkpt>
      <trkpt lat="49.12938" lon="4.0151">
        <ele>210.3</ele>
        <time>2026-08-21T09:30:59Z</time>
      </trkpt>
      <trkpt lat="49.12937" lon="4.01506">
        <ele>210.6</ele>
        <time>2026-08-21T09:31:04Z</time>
      </trkpt>
      <trkpt lat="49.12945" lon="4.01504">
        <ele>210.4</ele>
        <time>2026-08-21T09:31:10Z</time>
      </trkpt>
      <trkpt lat="49.12953" lon="4.01505">
        <ele>210</ele>
        <time>2026-08-21T09:31:15Z</time>
      </trkpt>
      <trkpt lat="49.12959" lon="4.01501">
        <ele>209.9</ele>
        <time>2026-08-21T09:31:20Z</time>
      </trkpt>
      <trkpt lat="49.12966" lon="4.01498">
        <ele>209.8</ele>
        <time>2026-08-21T09:31:26Z</time>
      </trkpt>
      <trkpt lat="49.12972" lon="4.01495">
        <ele>209.7</ele>
        <time>2026-08-21T09:31:31Z</time>
      </trkpt>
      <trkpt lat="49.12978" lon="4.01493">
        <ele>209.5</ele>
        <time>2026-08-21T09:31:36Z</time>
      </trkpt>
      <trkpt lat="49.12984" lon="4.01492">
        <ele>209.3</ele>
        <time>2026-08-21T09:31:42Z</time>
      </trkpt>
      <trkpt lat="49.12991" lon="4.0149">
        <ele>209.1</ele>
        <time>2026-08-21T09:31:47Z</time>
      </trkpt>
      <trkpt lat="49.12995" lon="4.01489">
        <ele>208.9</ele>
        <time>2026-08-21T09:31:52Z</time>
      </trkpt>
      <trkpt lat="49.13001" lon="4.01488">
        <ele>208.7</ele>
        <time>2026-08-21T09:31:58Z</time>
      </trkpt>
      <trkpt lat="49.13008" lon="4.01489">
        <ele>208.5</ele>
        <time>2026-08-21T09:32:03Z</time>
      </trkpt>
      <trkpt lat="49.13015" lon="4.0149">
        <ele>208.4</ele>
        <time>2026-08-21T09:32:08Z</time>
      </trkpt>
      <trkpt lat="49.13022" lon="4.01496">
        <ele>207.9</ele>
        <time>2026-08-21T09:32:14Z</time>
      </trkpt>
      <trkpt lat="49.13029" lon="4.01502">
        <ele>207.6</ele>
        <time>2026-08-21T09:32:19Z</time>
      </trkpt>
      <trkpt lat="49.13031" lon="4.01505">
        <ele>207.5</ele>
        <time>2026-08-21T09:32:24Z</time>
      </trkpt>
      <trkpt lat="49.13031" lon="4.01509">
        <ele>207.4</ele>
        <time>2026-08-21T09:32:30Z</time>
      </trkpt>
      <trkpt lat="49.13031" lon="4.0151">
        <ele>207.4</ele>
        <time>2026-08-21T09:32:35Z</time>
      </trkpt>
      <trkpt lat="49.13031" lon="4.0151">
        <ele>207.4</ele>
        <time>2026-08-21T09:32:40Z</time>
      </trkpt>
      <trkpt lat="49.13031" lon="4.0151">
        <ele>207.4</ele>
        <time>2026-08-21T09:32:46Z</time>
      </trkpt>
      <trkpt lat="49.13031" lon="4.0151">
        <ele>207.4</ele>
        <time>2026-08-21T09:32:51Z</time>
      </trkpt>
      <trkpt lat="49.13027" lon="4.01507">
        <ele>207.5</ele>
        <time>2026-08-21T09:32:56Z</time>
      </trkpt>
      <trkpt lat="49.13027" lon="4.01507">
        <ele>207.5</ele>
        <time>2026-08-21T09:33:02Z</time>
      </trkpt>
      <trkpt lat="49.13022" lon="4.01495">
        <ele>208</ele>
        <time>2026-08-21T09:33:07Z</time>
      </trkpt>
      <trkpt lat="49.13018" lon="4.01491">
        <ele>208.3</ele>
        <time>2026-08-21T09:33:12Z</time>
      </trkpt>
      <trkpt lat="49.13012" lon="4.01489">
        <ele>208.5</ele>
        <time>2026-08-21T09:33:18Z</time>
      </trkpt>
      <trkpt lat="49.13006" lon="4.01489">
        <ele>208.6</ele>
        <time>2026-08-21T09:33:23Z</time>
      </trkpt>
      <trkpt lat="49.13" lon="4.01488">
        <ele>208.7</ele>
        <time>2026-08-21T09:33:28Z</time>
      </trkpt>
      <trkpt lat="49.12992" lon="4.01489">
        <ele>209.1</ele>
        <time>2026-08-21T09:33:34Z</time>
      </trkpt>
      <trkpt lat="49.12986" lon="4.01491">
        <ele>209.2</ele>
        <time>2026-08-21T09:33:39Z</time>
      </trkpt>
      <trkpt lat="49.1298" lon="4.01491">
        <ele>209.6</ele>
        <time>2026-08-21T09:33:44Z</time>
      </trkpt>
      <trkpt lat="49.12974" lon="4.01494">
        <ele>209.7</ele>
        <time>2026-08-21T09:33:50Z</time>
      </trkpt>
      <trkpt lat="49.12969" lon="4.01495">
        <ele>209.8</ele>
        <time>2026-08-21T09:33:55Z</time>
      </trkpt>
      <trkpt lat="49.12964" lon="4.01496">
        <ele>210</ele>
        <time>2026-08-21T09:34:00Z</time>
      </trkpt>
      <trkpt lat="49.12957" lon="4.015">
        <ele>210.1</ele>
        <time>2026-08-21T09:34:06Z</time>
      </trkpt>
      <trkpt lat="49.1295" lon="4.01505">
        <ele>210.1</ele>
        <time>2026-08-21T09:34:11Z</time>
      </trkpt>
      <trkpt lat="49.12944" lon="4.01507">
        <ele>210.3</ele>
        <time>2026-08-21T09:34:16Z</time>
      </trkpt>
      <trkpt lat="49.12936" lon="4.01511">
        <ele>210.4</ele>
        <time>2026-08-21T09:34:22Z</time>
      </trkpt>
      <trkpt lat="49.12931" lon="4.01513">
        <ele>210.5</ele>
        <time>2026-08-21T09:34:27Z</time>
      </trkpt>
      <trkpt lat="49.12929" lon="4.01512">
        <ele>210.6</ele>
        <time>2026-08-21T09:34:32Z</time>
      </trkpt>
      <trkpt lat="49.12923" lon="4.01511">
        <ele>210.9</ele>
        <time>2026-08-21T09:34:38Z</time>
      </trkpt>
      <trkpt lat="49.12917" lon="4.0151">
        <ele>211.3</ele>
        <time>2026-08-21T09:34:43Z</time>
      </trkpt>
      <trkpt lat="49.12912" lon="4.01505">
        <ele>211.8</ele>
        <time>2026-08-21T09:34:48Z</time>
      </trkpt>
      <trkpt lat="49.12906" lon="4.01499">
        <ele>212.3</ele>
        <time>2026-08-21T09:34:54Z</time>
      </trkpt>
      <trkpt lat="49.12901" lon="4.01493">
        <ele>212.9</ele>
        <time>2026-08-21T09:34:59Z</time>
      </trkpt>
      <trkpt lat="49.12897" lon="4.01486">
        <ele>213.5</ele>
        <time>2026-08-21T09:35:04Z</time>
      </trkpt>
      <trkpt lat="49.12895" lon="4.01483">
        <ele>213.8</ele>
        <time>2026-08-21T09:35:10Z</time>
      </trkpt>
      <trkpt lat="49.12892" lon="4.01476">
        <ele>214.4</ele>
        <time>2026-08-21T09:35:15Z</time>
      </trkpt>
      <trkpt lat="49.1289" lon="4.01467">
        <ele>215</ele>
        <time>2026-08-21T09:35:20Z</time>
      </trkpt>
      <trkpt lat="49.12891" lon="4.01457">
        <ele>215.8</ele>
        <time>2026-08-21T09:35:26Z</time>
      </trkpt>
      <trkpt lat="49.12891" lon="4.01448">
        <ele>216.4</ele>
        <time>2026-08-21T09:35:31Z</time>
      </trkpt>
      <trkpt lat="49.12892" lon="4.01441">
        <ele>216.9</ele>
        <time>2026-08-21T09:35:36Z</time>
      </trkpt>
      <trkpt lat="49.12894" lon="4.01436">
        <ele>217.3</ele>
        <time>2026-08-21T09:35:42Z</time>
      </trkpt>
      <trkpt lat="49.12896" lon="4.01434">
        <ele>217.5</ele>
        <time>2026-08-21T09:35:47Z</time>
      </trkpt>
      <trkpt lat="49.12896" lon="4.01434">
        <ele>217.5</ele>
        <time>2026-08-21T09:35:52Z</time>
      </trkpt>
      <trkpt lat="49.12896" lon="4.01434">
        <ele>217.5</ele>
        <time>2026-08-21T09:35:58Z</time>
      </trkpt>
      <trkpt lat="49.12896" lon="4.01434">
        <ele>217.5</ele>
        <time>2026-08-21T09:36:03Z</time>
      </trkpt>
      <trkpt lat="49.12896" lon="4.01434">
        <ele>217.5</ele>
        <time>2026-08-21T09:36:08Z</time>
      </trkpt>
      <trkpt lat="49.12896" lon="4.01434">
        <ele>217.5</ele>
        <time>2026-08-21T09:36:14Z</time>
      </trkpt>
      <trkpt lat="49.12896" lon="4.01434">
        <ele>217.5</ele>
        <time>2026-08-21T09:36:19Z</time>
      </trkpt>
      <trkpt lat="49.12896" lon="4.01434">
        <ele>217.5</ele>
        <time>2026-08-21T09:36:24Z</time>
      </trkpt>
      <trkpt lat="49.12896" lon="4.01434">
        <ele>217.5</ele>
        <time>2026-08-21T09:36:30Z</time>
      </trkpt>
      <trkpt lat="49.12896" lon="4.01434">
        <ele>217.5</ele>
        <time>2026-08-21T09:36:35Z</time>
      </trkpt>
      <trkpt lat="49.12896" lon="4.01434">
        <ele>217.5</ele>
        <time>2026-08-21T09:36:40Z</time>
      </trkpt>
      <trkpt lat="49.12896" lon="4.01434">
        <ele>217.5</ele>
        <time>2026-08-21T09:36:46Z</time>
      </trkpt>
      <trkpt lat="49.12896" lon="4.01434">
        <ele>217.5</ele>
        <time>2026-08-21T09:36:51Z</time>
      </trkpt>
      <trkpt lat="49.12898" lon="4.01426">
        <ele>218.1</ele>
        <time>2026-08-21T09:36:56Z</time>
      </trkpt>
      <trkpt lat="49.12894" lon="4.01417">
        <ele>218.7</ele>
        <time>2026-08-21T09:37:02Z</time>
      </trkpt>
      <trkpt lat="49.12892" lon="4.01412">
        <ele>218.8</ele>
        <time>2026-08-21T09:37:07Z</time>
      </trkpt>
      <trkpt lat="49.12892" lon="4.01412">
        <ele>218.8</ele>
        <time>2026-08-21T09:37:12Z</time>
      </trkpt>
      <trkpt lat="49.12892" lon="4.01412">
        <ele>218.8</ele>
        <time>2026-08-21T09:37:18Z</time>
      </trkpt>
      <trkpt lat="49.12892" lon="4.01412">
        <ele>218.8</ele>
        <time>2026-08-21T09:37:23Z</time>
      </trkpt>
      <trkpt lat="49.12892" lon="4.01412">
        <ele>218.8</ele>
        <time>2026-08-21T09:37:28Z</time>
      </trkpt>
      <trkpt lat="49.12892" lon="4.01412">
        <ele>218.8</ele>
        <time>2026-08-21T09:37:34Z</time>
      </trkpt>
      <trkpt lat="49.12892" lon="4.01412">
        <ele>218.8</ele>
        <time>2026-08-21T09:37:39Z</time>
      </trkpt>
      <trkpt lat="49.12892" lon="4.01412">
        <ele>218.8</ele>
        <time>2026-08-21T09:37:44Z</time>
      </trkpt>
      <trkpt lat="49.12892" lon="4.01412">
        <ele>218.8</ele>
        <time>2026-08-21T09:37:50Z</time>
      </trkpt>
      <trkpt lat="49.12892" lon="4.01412">
        <ele>218.8</ele>
        <time>2026-08-21T09:37:55Z</time>
      </trkpt>
      <trkpt lat="49.1289" lon="4.01396">
        <ele>219.2</ele>
        <time>2026-08-21T09:38:00Z</time>
      </trkpt>
      <trkpt lat="49.12886" lon="4.01389">
        <ele>219.3</ele>
        <time>2026-08-21T09:38:06Z</time>
      </trkpt>
      <trkpt lat="49.12883" lon="4.01382">
        <ele>219.5</ele>
        <time>2026-08-21T09:38:11Z</time>
      </trkpt>
      <trkpt lat="49.12881" lon="4.01377">
        <ele>219.7</ele>
        <time>2026-08-21T09:38:16Z</time>
      </trkpt>
      <trkpt lat="49.12877" lon="4.01368">
        <ele>219.9</ele>
        <time>2026-08-21T09:38:22Z</time>
      </trkpt>
      <trkpt lat="49.12873" lon="4.01363">
        <ele>220.1</ele>
        <time>2026-08-21T09:38:27Z</time>
      </trkpt>
      <trkpt lat="49.1287" lon="4.01358">
        <ele>220.3</ele>
        <time>2026-08-21T09:38:32Z</time>
      </trkpt>
      <trkpt lat="49.12868" lon="4.01351">
        <ele>220.6</ele>
        <time>2026-08-21T09:38:38Z</time>
      </trkpt>
      <trkpt lat="49.12865" lon="4.01353">
        <ele>220.6</ele>
        <time>2026-08-21T09:38:43Z</time>
      </trkpt>
      <trkpt lat="49.12863" lon="4.01349">
        <ele>220.7</ele>
        <time>2026-08-21T09:38:48Z</time>
      </trkpt>
      <trkpt lat="49.12862" lon="4.01339">
        <ele>221.1</ele>
        <time>2026-08-21T09:38:54Z</time>
      </trkpt>
      <trkpt lat="49.12861" lon="4.0133">
        <ele>221.6</ele>
        <time>2026-08-21T09:38:59Z</time>
      </trkpt>
      <trkpt lat="49.12859" lon="4.01324">
        <ele>222</ele>
        <time>2026-08-21T09:39:04Z</time>
      </trkpt>
      <trkpt lat="49.12857" lon="4.01316">
        <ele>222.7</ele>
        <time>2026-08-21T09:39:10Z</time>
      </trkpt>
      <trkpt lat="49.12857" lon="4.01313">
        <ele>222.9</ele>
        <time>2026-08-21T09:39:15Z</time>
      </trkpt>
      <trkpt lat="49.12856" lon="4.01308">
        <ele>223.3</ele>
        <time>2026-08-21T09:39:20Z</time>
      </trkpt>
      <trkpt lat="49.12852" lon="4.01307">
        <ele>223.5</ele>
        <time>2026-08-21T09:39:26Z</time>
      </trkpt>
      <trkpt lat="49.1285" lon="4.01306">
        <ele>223.6</ele>
        <time>2026-08-21T09:39:31Z</time>
      </trkpt>
      <trkpt lat="49.12846" lon="4.01302">
        <ele>224.1</ele>
        <time>2026-08-21T09:39:36Z</time>
      </trkpt>
      <trkpt lat="49.12845" lon="4.01295">
        <ele>224.7</ele>
        <time>2026-08-21T09:39:42Z</time>
      </trkpt>
      <trkpt lat="49.12843" lon="4.01295">
        <ele>224.8</ele>
        <time>2026-08-21T09:39:47Z</time>
      </trkpt>
      <trkpt lat="49.12841" lon="4.01291">
        <ele>225.2</ele>
        <time>2026-08-21T09:39:52Z</time>
      </trkpt>
      <trkpt lat="49.12838" lon="4.01285">
        <ele>225.8</ele>
        <time>2026-08-21T09:39:58Z</time>
      </trkpt>
      <trkpt lat="49.12836" lon="4.0128">
        <ele>226.3</ele>
        <time>2026-08-21T09:40:03Z</time>
      </trkpt>
      <trkpt lat="49.12833" lon="4.01274">
        <ele>227</ele>
        <time>2026-08-21T09:40:08Z</time>
      </trkpt>
      <trkpt lat="49.12828" lon="4.01263">
        <ele>228</ele>
        <time>2026-08-21T09:40:14Z</time>
      </trkpt>
      <trkpt lat="49.12826" lon="4.01255">
        <ele>228.7</ele>
        <time>2026-08-21T09:40:19Z</time>
      </trkpt>
      <trkpt lat="49.12822" lon="4.01248">
        <ele>229.2</ele>
        <time>2026-08-21T09:40:24Z</time>
      </trkpt>
      <trkpt lat="49.12821" lon="4.01243">
        <ele>229.5</ele>
        <time>2026-08-21T09:40:30Z</time>
      </trkpt>
      <trkpt lat="49.12824" lon="4.01243">
        <ele>229.5</ele>
        <time>2026-08-21T09:40:35Z</time>
      </trkpt>
      <trkpt lat="49.12824" lon="4.01239">
        <ele>229.7</ele>
        <time>2026-08-21T09:40:40Z</time>
      </trkpt>
      <trkpt lat="49.12821" lon="4.01228">
        <ele>230.4</ele>
        <time>2026-08-21T09:40:46Z</time>
      </trkpt>
      <trkpt lat="49.12819" lon="4.01221">
        <ele>230.8</ele>
        <time>2026-08-21T09:40:51Z</time>
      </trkpt>
      <trkpt lat="49.12818" lon="4.01216">
        <ele>231.1</ele>
        <time>2026-08-21T09:40:56Z</time>
      </trkpt>
      <trkpt lat="49.12818" lon="4.01207">
        <ele>231.6</ele>
        <time>2026-08-21T09:41:02Z</time>
      </trkpt>
      <trkpt lat="49.12821" lon="4.01198">
        <ele>232.1</ele>
        <time>2026-08-21T09:41:07Z</time>
      </trkpt>
      <trkpt lat="49.12824" lon="4.0119">
        <ele>232.6</ele>
        <time>2026-08-21T09:41:12Z</time>
      </trkpt>
      <trkpt lat="49.12829" lon="4.01184">
        <ele>232.9</ele>
        <time>2026-08-21T09:41:18Z</time>
      </trkpt>
      <trkpt lat="49.12834" lon="4.01181">
        <ele>233.1</ele>
        <time>2026-08-21T09:41:23Z</time>
      </trkpt>
      <trkpt lat="49.12839" lon="4.01179">
        <ele>233.1</ele>
        <time>2026-08-21T09:41:28Z</time>
      </trkpt>
      <trkpt lat="49.12845" lon="4.01179">
        <ele>232.9</ele>
        <time>2026-08-21T09:41:34Z</time>
      </trkpt>
      <trkpt lat="49.12845" lon="4.0118">
        <ele>232.8</ele>
        <time>2026-08-21T09:41:39Z</time>
      </trkpt>
      <trkpt lat="49.12849" lon="4.01181">
        <ele>232.6</ele>
        <time>2026-08-21T09:41:44Z</time>
      </trkpt>
      <trkpt lat="49.12853" lon="4.01182">
        <ele>232.4</ele>
        <time>2026-08-21T09:41:50Z</time>
      </trkpt>
      <trkpt lat="49.12857" lon="4.01184">
        <ele>232.2</ele>
        <time>2026-08-21T09:41:55Z</time>
      </trkpt>
      <trkpt lat="49.12861" lon="4.01186">
        <ele>231.9</ele>
        <time>2026-08-21T09:42:00Z</time>
      </trkpt>
      <trkpt lat="49.12865" lon="4.01183">
        <ele>232</ele>
        <time>2026-08-21T09:42:06Z</time>
      </trkpt>
      <trkpt lat="49.12868" lon="4.01182">
        <ele>231.9</ele>
        <time>2026-08-21T09:42:11Z</time>
      </trkpt>
      <trkpt lat="49.12873" lon="4.0118">
        <ele>231.9</ele>
        <time>2026-08-21T09:42:16Z</time>
      </trkpt>
      <trkpt lat="49.1288" lon="4.01178">
        <ele>231.9</ele>
        <time>2026-08-21T09:42:22Z</time>
      </trkpt>
      <trkpt lat="49.12885" lon="4.01177">
        <ele>231.8</ele>
        <time>2026-08-21T09:42:27Z</time>
      </trkpt>
      <trkpt lat="49.12889" lon="4.01175">
        <ele>231.9</ele>
        <time>2026-08-21T09:42:32Z</time>
      </trkpt>
      <trkpt lat="49.12895" lon="4.01173">
        <ele>231.9</ele>
        <time>2026-08-21T09:42:38Z</time>
      </trkpt>
      <trkpt lat="49.12901" lon="4.0117">
        <ele>232</ele>
        <time>2026-08-21T09:42:43Z</time>
      </trkpt>
      <trkpt lat="49.12907" lon="4.01167">
        <ele>232.2</ele>
        <time>2026-08-21T09:42:48Z</time>
      </trkpt>
      <trkpt lat="49.12912" lon="4.01165">
        <ele>232.3</ele>
        <time>2026-08-21T09:42:54Z</time>
      </trkpt>
      <trkpt lat="49.12917" lon="4.01163">
        <ele>232.4</ele>
        <time>2026-08-21T09:42:59Z</time>
      </trkpt>
      <trkpt lat="49.12922" lon="4.01161">
        <ele>232.7</ele>
        <time>2026-08-21T09:43:04Z</time>
      </trkpt>
      <trkpt lat="49.12929" lon="4.01159">
        <ele>233.1</ele>
        <time>2026-08-21T09:43:10Z</time>
      </trkpt>
      <trkpt lat="49.12935" lon="4.01157">
        <ele>233.5</ele>
        <time>2026-08-21T09:43:15Z</time>
      </trkpt>
      <trkpt lat="49.1294" lon="4.01153">
        <ele>234</ele>
        <time>2026-08-21T09:43:20Z</time>
      </trkpt>
      <trkpt lat="49.12944" lon="4.01153">
        <ele>234.1</ele>
        <time>2026-08-21T09:43:26Z</time>
      </trkpt>
      <trkpt lat="49.12945" lon="4.01155">
        <ele>233.9</ele>
        <time>2026-08-21T09:43:31Z</time>
      </trkpt>
      <trkpt lat="49.12949" lon="4.01152">
        <ele>234.3</ele>
        <time>2026-08-21T09:43:36Z</time>
      </trkpt>
      <trkpt lat="49.12955" lon="4.01146">
        <ele>235</ele>
        <time>2026-08-21T09:43:42Z</time>
      </trkpt>
      <trkpt lat="49.1296" lon="4.01142">
        <ele>235.6</ele>
        <time>2026-08-21T09:43:47Z</time>
      </trkpt>
      <trkpt lat="49.12965" lon="4.01138">
        <ele>236.1</ele>
        <time>2026-08-21T09:43:52Z</time>
      </trkpt>
      <trkpt lat="49.1297" lon="4.01131">
        <ele>236.9</ele>
        <time>2026-08-21T09:43:58Z</time>
      </trkpt>
      <trkpt lat="49.12974" lon="4.01124">
        <ele>237.6</ele>
        <time>2026-08-21T09:44:03Z</time>
      </trkpt>
      <trkpt lat="49.12976" lon="4.01119">
        <ele>238.2</ele>
        <time>2026-08-21T09:44:08Z</time>
      </trkpt>
      <trkpt lat="49.1298" lon="4.0111">
        <ele>239.1</ele>
        <time>2026-08-21T09:44:14Z</time>
      </trkpt>
      <trkpt lat="49.12982" lon="4.01103">
        <ele>239.8</ele>
        <time>2026-08-21T09:44:19Z</time>
      </trkpt>
      <trkpt lat="49.12984" lon="4.01096">
        <ele>240.6</ele>
        <time>2026-08-21T09:44:24Z</time>
      </trkpt>
      <trkpt lat="49.12987" lon="4.01086">
        <ele>241.6</ele>
        <time>2026-08-21T09:44:30Z</time>
      </trkpt>
      <trkpt lat="49.12991" lon="4.01078">
        <ele>242.5</ele>
        <time>2026-08-21T09:44:35Z</time>
      </trkpt>
      <trkpt lat="49.12994" lon="4.01072">
        <ele>243.3</ele>
        <time>2026-08-21T09:44:40Z</time>
      </trkpt>
      <trkpt lat="49.12996" lon="4.01063">
        <ele>244.4</ele>
        <time>2026-08-21T09:44:46Z</time>
      </trkpt>
      <trkpt lat="49.12998" lon="4.01055">
        <ele>245.4</ele>
        <time>2026-08-21T09:44:51Z</time>
      </trkpt>
      <trkpt lat="49.13001" lon="4.01049">
        <ele>246</ele>
        <time>2026-08-21T09:44:56Z</time>
      </trkpt>
      <trkpt lat="49.13003" lon="4.01047">
        <ele>245.9</ele>
        <time>2026-08-21T09:45:02Z</time>
      </trkpt>
      <trkpt lat="49.13006" lon="4.01041">
        <ele>246.3</ele>
        <time>2026-08-21T09:45:07Z</time>
      </trkpt>
      <trkpt lat="49.1301" lon="4.01035">
        <ele>246.4</ele>
        <time>2026-08-21T09:45:12Z</time>
      </trkpt>
      <trkpt lat="49.13015" lon="4.01028">
        <ele>246.7</ele>
        <time>2026-08-21T09:45:18Z</time>
      </trkpt>
      <trkpt lat="49.13018" lon="4.01025">
        <ele>246.6</ele>
        <time>2026-08-21T09:45:23Z</time>
      </trkpt>
      <trkpt lat="49.13019" lon="4.01025">
        <ele>246.5</ele>
        <time>2026-08-21T09:45:28Z</time>
      </trkpt>
      <trkpt lat="49.13019" lon="4.01024">
        <ele>246.6</ele>
        <time>2026-08-21T09:45:34Z</time>
      </trkpt>
      <trkpt lat="49.13019" lon="4.01024">
        <ele>246.6</ele>
        <time>2026-08-21T09:45:39Z</time>
      </trkpt>
      <trkpt lat="49.13019" lon="4.01024">
        <ele>246.6</ele>
        <time>2026-08-21T09:45:44Z</time>
      </trkpt>
      <trkpt lat="49.13019" lon="4.01024">
        <ele>246.6</ele>
        <time>2026-08-21T09:45:50Z</time>
      </trkpt>
      <trkpt lat="49.13019" lon="4.01024">
        <ele>246.6</ele>
        <time>2026-08-21T09:45:55Z</time>
      </trkpt>
      <trkpt lat="49.13019" lon="4.01024">
        <ele>246.6</ele>
        <time>2026-08-21T09:46:00Z</time>
      </trkpt>
      <trkpt lat="49.13019" lon="4.01024">
        <ele>246.6</ele>
        <time>2026-08-21T09:46:06Z</time>
      </trkpt>
      <trkpt lat="49.13019" lon="4.01024">
        <ele>246.6</ele>
        <time>2026-08-21T09:46:11Z</time>
      </trkpt>
      <trkpt lat="49.13019" lon="4.01024">
        <ele>246.6</ele>
        <time>2026-08-21T09:46:16Z</time>
      </trkpt>
      <trkpt lat="49.13024" lon="4.01017">
        <ele>246.9</ele>
        <time>2026-08-21T09:46:22Z</time>
      </trkpt>
      <trkpt lat="49.13029" lon="4.01015">
        <ele>246.5</ele>
        <time>2026-08-21T09:46:27Z</time>
      </trkpt>
      <trkpt lat="49.13033" lon="4.01013">
        <ele>246.3</ele>
        <time>2026-08-21T09:46:32Z</time>
      </trkpt>
      <trkpt lat="49.13033" lon="4.01013">
        <ele>246.3</ele>
        <time>2026-08-21T09:46:38Z</time>
      </trkpt>
      <trkpt lat="49.13033" lon="4.01013">
        <ele>246.3</ele>
        <time>2026-08-21T09:46:43Z</time>
      </trkpt>
      <trkpt lat="49.13034" lon="4.0101">
        <ele>246.6</ele>
        <time>2026-08-21T09:46:48Z</time>
      </trkpt>
      <trkpt lat="49.13039" lon="4.01007">
        <ele>246.4</ele>
        <time>2026-08-21T09:46:54Z</time>
      </trkpt>
      <trkpt lat="49.13043" lon="4.01006">
        <ele>246</ele>
        <time>2026-08-21T09:46:59Z</time>
      </trkpt>
      <trkpt lat="49.13044" lon="4.01005">
        <ele>246</ele>
        <time>2026-08-21T09:47:04Z</time>
      </trkpt>
      <trkpt lat="49.13046" lon="4.01003">
        <ele>246.1</ele>
        <time>2026-08-21T09:47:10Z</time>
      </trkpt>
      <trkpt lat="49.1305" lon="4.01001">
        <ele>245.9</ele>
        <time>2026-08-21T09:47:15Z</time>
      </trkpt>
      <trkpt lat="49.13053" lon="4.00998">
        <ele>245.8</ele>
        <time>2026-08-21T09:47:20Z</time>
      </trkpt>
      <trkpt lat="49.13057" lon="4.00995">
        <ele>245.5</ele>
        <time>2026-08-21T09:47:26Z</time>
      </trkpt>
      <trkpt lat="49.1306" lon="4.00991">
        <ele>245.5</ele>
        <time>2026-08-21T09:47:31Z</time>
      </trkpt>
      <trkpt lat="49.13063" lon="4.00986">
        <ele>245.5</ele>
        <time>2026-08-21T09:47:36Z</time>
      </trkpt>
      <trkpt lat="49.13069" lon="4.0098">
        <ele>245.2</ele>
        <time>2026-08-21T09:47:42Z</time>
      </trkpt>
      <trkpt lat="49.13074" lon="4.00975">
        <ele>245</ele>
        <time>2026-08-21T09:47:47Z</time>
      </trkpt>
      <trkpt lat="49.13076" lon="4.00969">
        <ele>245.1</ele>
        <time>2026-08-21T09:47:52Z</time>
      </trkpt>
      <trkpt lat="49.13078" lon="4.00965">
        <ele>245.2</ele>
        <time>2026-08-21T09:47:58Z</time>
      </trkpt>
      <trkpt lat="49.1308" lon="4.00959">
        <ele>245.4</ele>
        <time>2026-08-21T09:48:03Z</time>
      </trkpt>
      <trkpt lat="49.13081" lon="4.00953">
        <ele>245.7</ele>
        <time>2026-08-21T09:48:08Z</time>
      </trkpt>
      <trkpt lat="49.13084" lon="4.00944">
        <ele>246</ele>
        <time>2026-08-21T09:48:14Z</time>
      </trkpt>
      <trkpt lat="49.13085" lon="4.00938">
        <ele>246.4</ele>
        <time>2026-08-21T09:48:19Z</time>
      </trkpt>
      <trkpt lat="49.13088" lon="4.0093">
        <ele>247</ele>
        <time>2026-08-21T09:48:24Z</time>
      </trkpt>
      <trkpt lat="49.13093" lon="4.00922">
        <ele>247.6</ele>
        <time>2026-08-21T09:48:30Z</time>
      </trkpt>
      <trkpt lat="49.13095" lon="4.00916">
        <ele>248</ele>
        <time>2026-08-21T09:48:35Z</time>
      </trkpt>
      <trkpt lat="49.13099" lon="4.00911">
        <ele>248.4</ele>
        <time>2026-08-21T09:48:40Z</time>
      </trkpt>
      <trkpt lat="49.13106" lon="4.00904">
        <ele>248.8</ele>
        <time>2026-08-21T09:48:46Z</time>
      </trkpt>
      <trkpt lat="49.1311" lon="4.00899">
        <ele>249.1</ele>
        <time>2026-08-21T09:48:51Z</time>
      </trkpt>
      <trkpt lat="49.13114" lon="4.00894">
        <ele>249.5</ele>
        <time>2026-08-21T09:48:56Z</time>
      </trkpt>
      <trkpt lat="49.13119" lon="4.00892">
        <ele>249.6</ele>
        <time>2026-08-21T09:49:02Z</time>
      </trkpt>
      <trkpt lat="49.13123" lon="4.00889">
        <ele>249.8</ele>
        <time>2026-08-21T09:49:07Z</time>
      </trkpt>
      <trkpt lat="49.13127" lon="4.00887">
        <ele>250</ele>
        <time>2026-08-21T09:49:12Z</time>
      </trkpt>
      <trkpt lat="49.13131" lon="4.00884">
        <ele>250.2</ele>
        <time>2026-08-21T09:49:18Z</time>
      </trkpt>
      <trkpt lat="49.13138" lon="4.0088">
        <ele>250.5</ele>
        <time>2026-08-21T09:49:23Z</time>
      </trkpt>
      <trkpt lat="49.13143" lon="4.00878">
        <ele>250.7</ele>
        <time>2026-08-21T09:49:28Z</time>
      </trkpt>
      <trkpt lat="49.13143" lon="4.00878">
        <ele>250.7</ele>
        <time>2026-08-21T09:49:34Z</time>
      </trkpt>
      <trkpt lat="49.13143" lon="4.00878">
        <ele>250.7</ele>
        <time>2026-08-21T09:49:39Z</time>
      </trkpt>
      <trkpt lat="49.13143" lon="4.00878">
        <ele>250.7</ele>
        <time>2026-08-21T09:49:44Z</time>
      </trkpt>
      <trkpt lat="49.13148" lon="4.00875">
        <ele>250.9</ele>
        <time>2026-08-21T09:49:50Z</time>
      </trkpt>
      <trkpt lat="49.13151" lon="4.00871">
        <ele>251.2</ele>
        <time>2026-08-21T09:49:55Z</time>
      </trkpt>
      <trkpt lat="49.13154" lon="4.00867">
        <ele>251.5</ele>
        <time>2026-08-21T09:50:00Z</time>
      </trkpt>
      <trkpt lat="49.13159" lon="4.00859">
        <ele>252.1</ele>
        <time>2026-08-21T09:50:06Z</time>
      </trkpt>
      <trkpt lat="49.13162" lon="4.00853">
        <ele>252.5</ele>
        <time>2026-08-21T09:50:11Z</time>
      </trkpt>
      <trkpt lat="49.13166" lon="4.00846">
        <ele>253.1</ele>
        <time>2026-08-21T09:50:16Z</time>
      </trkpt>
      <trkpt lat="49.1317" lon="4.00838">
        <ele>253.9</ele>
        <time>2026-08-21T09:50:22Z</time>
      </trkpt>
      <trkpt lat="49.13172" lon="4.00831">
        <ele>254.5</ele>
        <time>2026-08-21T09:50:27Z</time>
      </trkpt>
      <trkpt lat="49.13173" lon="4.00828">
        <ele>254.8</ele>
        <time>2026-08-21T09:50:32Z</time>
      </trkpt>
      <trkpt lat="49.13173" lon="4.00828">
        <ele>254.8</ele>
        <time>2026-08-21T09:50:38Z</time>
      </trkpt>
      <trkpt lat="49.13173" lon="4.00828">
        <ele>254.8</ele>
        <time>2026-08-21T09:50:43Z</time>
      </trkpt>
      <trkpt lat="49.13173" lon="4.00828">
        <ele>254.8</ele>
        <time>2026-08-21T09:50:48Z</time>
      </trkpt>
      <trkpt lat="49.13174" lon="4.00823">
        <ele>255.2</ele>
        <time>2026-08-21T09:50:54Z</time>
      </trkpt>
      <trkpt lat="49.13173" lon="4.00817">
        <ele>255.5</ele>
        <time>2026-08-21T09:50:59Z</time>
      </trkpt>
      <trkpt lat="49.13172" lon="4.00814">
        <ele>255.7</ele>
        <time>2026-08-21T09:51:04Z</time>
      </trkpt>
      <trkpt lat="49.13172" lon="4.00813">
        <ele>255.8</ele>
        <time>2026-08-21T09:51:10Z</time>
      </trkpt>
      <trkpt lat="49.13171" lon="4.00806">
        <ele>256.2</ele>
        <time>2026-08-21T09:51:15Z</time>
      </trkpt>
      <trkpt lat="49.1317" lon="4.00798">
        <ele>256.7</ele>
        <time>2026-08-21T09:51:20Z</time>
      </trkpt>
      <trkpt lat="49.1317" lon="4.00787">
        <ele>257.5</ele>
        <time>2026-08-21T09:51:26Z</time>
      </trkpt>
      <trkpt lat="49.13169" lon="4.0078">
        <ele>257.9</ele>
        <time>2026-08-21T09:51:31Z</time>
      </trkpt>
      <trkpt lat="49.13166" lon="4.00774">
        <ele>258.3</ele>
        <time>2026-08-21T09:51:36Z</time>
      </trkpt>
      <trkpt lat="49.13163" lon="4.00764">
        <ele>258.9</ele>
        <time>2026-08-21T09:51:42Z</time>
      </trkpt>
      <trkpt lat="49.13161" lon="4.00758">
        <ele>259.4</ele>
        <time>2026-08-21T09:51:47Z</time>
      </trkpt>
      <trkpt lat="49.13159" lon="4.00752">
        <ele>259.8</ele>
        <time>2026-08-21T09:51:52Z</time>
      </trkpt>
      <trkpt lat="49.13156" lon="4.00749">
        <ele>259.9</ele>
        <time>2026-08-21T09:51:58Z</time>
      </trkpt>
      <trkpt lat="49.13155" lon="4.00743">
        <ele>260.4</ele>
        <time>2026-08-21T09:52:03Z</time>
      </trkpt>
      <trkpt lat="49.13152" lon="4.00737">
        <ele>260.8</ele>
        <time>2026-08-21T09:52:08Z</time>
      </trkpt>
      <trkpt lat="49.13151" lon="4.00728">
        <ele>261.5</ele>
        <time>2026-08-21T09:52:14Z</time>
      </trkpt>
      <trkpt lat="49.13148" lon="4.00722">
        <ele>262</ele>
        <time>2026-08-21T09:52:19Z</time>
      </trkpt>
      <trkpt lat="49.13146" lon="4.00715">
        <ele>262.6</ele>
        <time>2026-08-21T09:52:24Z</time>
      </trkpt>
      <trkpt lat="49.13145" lon="4.00705">
        <ele>263.4</ele>
        <time>2026-08-21T09:52:30Z</time>
      </trkpt>
      <trkpt lat="49.13144" lon="4.00704">
        <ele>263.5</ele>
        <time>2026-08-21T09:52:35Z</time>
      </trkpt>
      <trkpt lat="49.13144" lon="4.00704">
        <ele>263.5</ele>
        <time>2026-08-21T09:52:40Z</time>
      </trkpt>
      <trkpt lat="49.13144" lon="4.00704">
        <ele>263.5</ele>
        <time>2026-08-21T09:52:46Z</time>
      </trkpt>
      <trkpt lat="49.13144" lon="4.00704">
        <ele>263.5</ele>
        <time>2026-08-21T09:52:51Z</time>
      </trkpt>
      <trkpt lat="49.13144" lon="4.00704">
        <ele>263.5</ele>
        <time>2026-08-21T09:52:56Z</time>
      </trkpt>
      <trkpt lat="49.13144" lon="4.00704">
        <ele>263.5</ele>
        <time>2026-08-21T09:53:02Z</time>
      </trkpt>
      <trkpt lat="49.13144" lon="4.00704">
        <ele>263.5</ele>
        <time>2026-08-21T09:53:07Z</time>
      </trkpt>
      <trkpt lat="49.13141" lon="4.00699">
        <ele>263.9</ele>
        <time>2026-08-21T09:53:12Z</time>
      </trkpt>
      <trkpt lat="49.13142" lon="4.00697">
        <ele>264.1</ele>
        <time>2026-08-21T09:53:18Z</time>
      </trkpt>
      <trkpt lat="49.13143" lon="4.00692">
        <ele>264.5</ele>
        <time>2026-08-21T09:53:23Z</time>
      </trkpt>
      <trkpt lat="49.13142" lon="4.00684">
        <ele>265.2</ele>
        <time>2026-08-21T09:53:28Z</time>
      </trkpt>
      <trkpt lat="49.13141" lon="4.00674">
        <ele>266</ele>
        <time>2026-08-21T09:53:34Z</time>
      </trkpt>
      <trkpt lat="49.1314" lon="4.00667">
        <ele>266.6</ele>
        <time>2026-08-21T09:53:39Z</time>
      </trkpt>
      <trkpt lat="49.13139" lon="4.00659">
        <ele>266.9</ele>
        <time>2026-08-21T09:53:44Z</time>
      </trkpt>
      <trkpt lat="49.13138" lon="4.00649">
        <ele>267.3</ele>
        <time>2026-08-21T09:53:50Z</time>
      </trkpt>
      <trkpt lat="49.13137" lon="4.00644">
        <ele>267.5</ele>
        <time>2026-08-21T09:53:55Z</time>
      </trkpt>
      <trkpt lat="49.13136" lon="4.00637">
        <ele>267.8</ele>
        <time>2026-08-21T09:54:00Z</time>
      </trkpt>
      <trkpt lat="49.13134" lon="4.00629">
        <ele>268.1</ele>
        <time>2026-08-21T09:54:06Z</time>
      </trkpt>
      <trkpt lat="49.13135" lon="4.00622">
        <ele>268.4</ele>
        <time>2026-08-21T09:54:11Z</time>
      </trkpt>
      <trkpt lat="49.13136" lon="4.0062">
        <ele>268.4</ele>
        <time>2026-08-21T09:54:16Z</time>
      </trkpt>
      <trkpt lat="49.13136" lon="4.00619">
        <ele>268.5</ele>
        <time>2026-08-21T09:54:22Z</time>
      </trkpt>
      <trkpt lat="49.13136" lon="4.00619">
        <ele>268.5</ele>
        <time>2026-08-21T09:54:27Z</time>
      </trkpt>
      <trkpt lat="49.13136" lon="4.00619">
        <ele>268.5</ele>
        <time>2026-08-21T09:54:32Z</time>
      </trkpt>
      <trkpt lat="49.13136" lon="4.00619">
        <ele>268.5</ele>
        <time>2026-08-21T09:54:38Z</time>
      </trkpt>
      <trkpt lat="49.13136" lon="4.00619">
        <ele>268.5</ele>
        <time>2026-08-21T09:54:43Z</time>
      </trkpt>
      <trkpt lat="49.13136" lon="4.00619">
        <ele>268.5</ele>
        <time>2026-08-21T09:54:48Z</time>
      </trkpt>
      <trkpt lat="49.13136" lon="4.00619">
        <ele>268.5</ele>
        <time>2026-08-21T09:54:54Z</time>
      </trkpt>
      <trkpt lat="49.13136" lon="4.00619">
        <ele>268.5</ele>
        <time>2026-08-21T09:54:59Z</time>
      </trkpt>
      <trkpt lat="49.13136" lon="4.00619">
        <ele>268.5</ele>
        <time>2026-08-21T09:55:04Z</time>
      </trkpt>
      <trkpt lat="49.13136" lon="4.00619">
        <ele>268.5</ele>
        <time>2026-08-21T09:55:10Z</time>
      </trkpt>
      <trkpt lat="49.13136" lon="4.00619">
        <ele>268.5</ele>
        <time>2026-08-21T09:55:15Z</time>
      </trkpt>
      <trkpt lat="49.13136" lon="4.00619">
        <ele>268.5</ele>
        <time>2026-08-21T09:55:20Z</time>
      </trkpt>
      <trkpt lat="49.13136" lon="4.00619">
        <ele>268.5</ele>
        <time>2026-08-21T09:55:26Z</time>
      </trkpt>
      <trkpt lat="49.13136" lon="4.00619">
        <ele>268.5</ele>
        <time>2026-08-21T09:55:31Z</time>
      </trkpt>
      <trkpt lat="49.13136" lon="4.00619">
        <ele>268.5</ele>
        <time>2026-08-21T09:55:36Z</time>
      </trkpt>
      <trkpt lat="49.13136" lon="4.00619">
        <ele>268.5</ele>
        <time>2026-08-21T09:55:42Z</time>
      </trkpt>
      <trkpt lat="49.13136" lon="4.00619">
        <ele>268.5</ele>
        <time>2026-08-21T09:55:47Z</time>
      </trkpt>
      <trkpt lat="49.13136" lon="4.00619">
        <ele>268.5</ele>
        <time>2026-08-21T09:55:52Z</time>
      </trkpt>
      <trkpt lat="49.13136" lon="4.00619">
        <ele>268.5</ele>
        <time>2026-08-21T09:55:58Z</time>
      </trkpt>
      <trkpt lat="49.13136" lon="4.00619">
        <ele>268.5</ele>
        <time>2026-08-21T09:56:03Z</time>
      </trkpt>
      <trkpt lat="49.13136" lon="4.00619">
        <ele>268.5</ele>
        <time>2026-08-21T09:56:08Z</time>
      </trkpt>
      <trkpt lat="49.13136" lon="4.00619">
        <ele>268.5</ele>
        <time>2026-08-21T09:56:14Z</time>
      </trkpt>
      <trkpt lat="49.13136" lon="4.00619">
        <ele>268.5</ele>
        <time>2026-08-21T09:56:19Z</time>
      </trkpt>
      <trkpt lat="49.13136" lon="4.00619">
        <ele>268.5</ele>
        <time>2026-08-21T09:56:24Z</time>
      </trkpt>
      <trkpt lat="49.13136" lon="4.00619">
        <ele>268.5</ele>
        <time>2026-08-21T09:56:30Z</time>
      </trkpt>
      <trkpt lat="49.13136" lon="4.00619">
        <ele>268.5</ele>
        <time>2026-08-21T09:56:35Z</time>
      </trkpt>
      <trkpt lat="49.13136" lon="4.00619">
        <ele>268.5</ele>
        <time>2026-08-21T09:56:40Z</time>
      </trkpt>
      <trkpt lat="49.13136" lon="4.00619">
        <ele>268.5</ele>
        <time>2026-08-21T09:56:46Z</time>
      </trkpt>
      <trkpt lat="49.13136" lon="4.00619">
        <ele>268.5</ele>
        <time>2026-08-21T09:56:51Z</time>
      </trkpt>
      <trkpt lat="49.13136" lon="4.00619">
        <ele>268.5</ele>
        <time>2026-08-21T09:56:56Z</time>
      </trkpt>
      <trkpt lat="49.13136" lon="4.00619">
        <ele>268.5</ele>
        <time>2026-08-21T09:57:02Z</time>
      </trkpt>
      <trkpt lat="49.13136" lon="4.00619">
        <ele>268.5</ele>
        <time>2026-08-21T09:57:07Z</time>
      </trkpt>
      <trkpt lat="49.13136" lon="4.00619">
        <ele>268.5</ele>
        <time>2026-08-21T09:57:12Z</time>
      </trkpt>
      <trkpt lat="49.13136" lon="4.00619">
        <ele>268.5</ele>
        <time>2026-08-21T09:57:18Z</time>
      </trkpt>
      <trkpt lat="49.13136" lon="4.00619">
        <ele>268.5</ele>
        <time>2026-08-21T09:57:23Z</time>
      </trkpt>
      <trkpt lat="49.13136" lon="4.00619">
        <ele>268.5</ele>
        <time>2026-08-21T09:57:28Z</time>
      </trkpt>
      <trkpt lat="49.13136" lon="4.00619">
        <ele>268.5</ele>
        <time>2026-08-21T09:57:34Z</time>
      </trkpt>
      <trkpt lat="49.13136" lon="4.00619">
        <ele>268.5</ele>
        <time>2026-08-21T09:57:39Z</time>
      </trkpt>
      <trkpt lat="49.13136" lon="4.00619">
        <ele>268.5</ele>
        <time>2026-08-21T09:57:44Z</time>
      </trkpt>
      <trkpt lat="49.13136" lon="4.00619">
        <ele>268.5</ele>
        <time>2026-08-21T09:57:50Z</time>
      </trkpt>
      <trkpt lat="49.13136" lon="4.00619">
        <ele>268.5</ele>
        <time>2026-08-21T09:57:55Z</time>
      </trkpt>
      <trkpt lat="49.13136" lon="4.00619">
        <ele>268.5</ele>
        <time>2026-08-21T09:58:00Z</time>
      </trkpt>
      <trkpt lat="49.13136" lon="4.00619">
        <ele>268.5</ele>
        <time>2026-08-21T09:58:06Z</time>
      </trkpt>
      <trkpt lat="49.13136" lon="4.00619">
        <ele>268.5</ele>
        <time>2026-08-21T09:58:11Z</time>
      </trkpt>
      <trkpt lat="49.13136" lon="4.00619">
        <ele>268.5</ele>
        <time>2026-08-21T09:58:16Z</time>
      </trkpt>
      <trkpt lat="49.13136" lon="4.00619">
        <ele>268.5</ele>
        <time>2026-08-21T09:58:22Z</time>
      </trkpt>
      <trkpt lat="49.13136" lon="4.00619">
        <ele>268.5</ele>
        <time>2026-08-21T09:58:27Z</time>
      </trkpt>
      <trkpt lat="49.13136" lon="4.00619">
        <ele>268.5</ele>
        <time>2026-08-21T09:58:32Z</time>
      </trkpt>
      <trkpt lat="49.13136" lon="4.00619">
        <ele>268.5</ele>
        <time>2026-08-21T09:58:38Z</time>
      </trkpt>
      <trkpt lat="49.13136" lon="4.00619">
        <ele>268.5</ele>
        <time>2026-08-21T09:58:43Z</time>
      </trkpt>
      <trkpt lat="49.13136" lon="4.00619">
        <ele>268.5</ele>
        <time>2026-08-21T09:58:48Z</time>
      </trkpt>
      <trkpt lat="49.13136" lon="4.00619">
        <ele>268.5</ele>
        <time>2026-08-21T09:58:54Z</time>
      </trkpt>
      <trkpt lat="49.13136" lon="4.00619">
        <ele>268.5</ele>
        <time>2026-08-21T09:58:59Z</time>
      </trkpt>
      <trkpt lat="49.13136" lon="4.00619">
        <ele>268.5</ele>
        <time>2026-08-21T09:59:04Z</time>
      </trkpt>
      <trkpt lat="49.13136" lon="4.00619">
        <ele>268.5</ele>
        <time>2026-08-21T09:59:10Z</time>
      </trkpt>
      <trkpt lat="49.13136" lon="4.00619">
        <ele>268.5</ele>
        <time>2026-08-21T09:59:15Z</time>
      </trkpt>
      <trkpt lat="49.13136" lon="4.00619">
        <ele>268.5</ele>
        <time>2026-08-21T09:59:20Z</time>
      </trkpt>
      <trkpt lat="49.13136" lon="4.00619">
        <ele>268.5</ele>
        <time>2026-08-21T09:59:26Z</time>
      </trkpt>
      <trkpt lat="49.13136" lon="4.00619">
        <ele>268.5</ele>
        <time>2026-08-21T09:59:31Z</time>
      </trkpt>
      <trkpt lat="49.13136" lon="4.00619">
        <ele>268.5</ele>
        <time>2026-08-21T09:59:36Z</time>
      </trkpt>
      <trkpt lat="49.13136" lon="4.00619">
        <ele>268.5</ele>
        <time>2026-08-21T09:59:42Z</time>
      </trkpt>
      <trkpt lat="49.13136" lon="4.00619">
        <ele>268.5</ele>
        <time>2026-08-21T09:59:47Z</time>
      </trkpt>
      <trkpt lat="49.13136" lon="4.00619">
        <ele>268.5</ele>
        <time>2026-08-21T09:59:52Z</time>
      </trkpt>
      <trkpt lat="49.13136" lon="4.00619">
        <ele>268.5</ele>
        <time>2026-08-21T09:59:58Z</time>
      </trkpt>
      <trkpt lat="49.13136" lon="4.00619">
        <ele>268.5</ele>
        <time>2026-08-21T10:00:03Z</time>
      </trkpt>
      <trkpt lat="49.13136" lon="4.00619">
        <ele>268.5</ele>
        <time>2026-08-21T10:00:08Z</time>
      </trkpt>
      <trkpt lat="49.13136" lon="4.00619">
        <ele>268.5</ele>
        <time>2026-08-21T10:00:14Z</time>
      </trkpt>
      <trkpt lat="49.13136" lon="4.00619">
        <ele>268.5</ele>
        <time>2026-08-21T10:00:19Z</time>
      </trkpt>
      <trkpt lat="49.13136" lon="4.00619">
        <ele>268.5</ele>
        <time>2026-08-21T10:00:24Z</time>
      </trkpt>
      <trkpt lat="49.13136" lon="4.00619">
        <ele>268.5</ele>
        <time>2026-08-21T10:00:30Z</time>
      </trkpt>
      <trkpt lat="49.13136" lon="4.00619">
        <ele>268.5</ele>
        <time>2026-08-21T10:00:35Z</time>
      </trkpt>
      <trkpt lat="49.13136" lon="4.00619">
        <ele>268.5</ele>
        <time>2026-08-21T10:00:40Z</time>
      </trkpt>
      <trkpt lat="49.13136" lon="4.00619">
        <ele>268.5</ele>
        <time>2026-08-21T10:00:46Z</time>
      </trkpt>
      <trkpt lat="49.13136" lon="4.00619">
        <ele>268.5</ele>
        <time>2026-08-21T10:00:51Z</time>
      </trkpt>
      <trkpt lat="49.13146" lon="4.00614">
        <ele>268.4</ele>
        <time>2026-08-21T10:00:56Z</time>
      </trkpt>
      <trkpt lat="49.1315" lon="4.00609">
        <ele>268.5</ele>
        <time>2026-08-21T10:01:02Z</time>
      </trkpt>
      <trkpt lat="49.1315" lon="4.00609">
        <ele>268.5</ele>
        <time>2026-08-21T10:01:07Z</time>
      </trkpt>
      <trkpt lat="49.1315" lon="4.00609">
        <ele>268.5</ele>
        <time>2026-08-21T10:01:12Z</time>
      </trkpt>
      <trkpt lat="49.1315" lon="4.00609">
        <ele>268.5</ele>
        <time>2026-08-21T10:01:18Z</time>
      </trkpt>
      <trkpt lat="49.1315" lon="4.00609">
        <ele>268.5</ele>
        <time>2026-08-21T10:01:23Z</time>
      </trkpt>
      <trkpt lat="49.1315" lon="4.00609">
        <ele>268.5</ele>
        <time>2026-08-21T10:01:28Z</time>
      </trkpt>
      <trkpt lat="49.1315" lon="4.00609">
        <ele>268.5</ele>
        <time>2026-08-21T10:01:34Z</time>
      </trkpt>
      <trkpt lat="49.1315" lon="4.00609">
        <ele>268.5</ele>
        <time>2026-08-21T10:01:39Z</time>
      </trkpt>
      <trkpt lat="49.13144" lon="4.00618">
        <ele>268.3</ele>
        <time>2026-08-21T10:01:44Z</time>
      </trkpt>
      <trkpt lat="49.13144" lon="4.00618">
        <ele>268.3</ele>
        <time>2026-08-21T10:01:50Z</time>
      </trkpt>
      <trkpt lat="49.13144" lon="4.00618">
        <ele>268.3</ele>
        <time>2026-08-21T10:01:55Z</time>
      </trkpt>
      <trkpt lat="49.13144" lon="4.00618">
        <ele>268.3</ele>
        <time>2026-08-21T10:02:00Z</time>
      </trkpt>
      <trkpt lat="49.13144" lon="4.00618">
        <ele>268.3</ele>
        <time>2026-08-21T10:02:06Z</time>
      </trkpt>
      <trkpt lat="49.13144" lon="4.00618">
        <ele>268.3</ele>
        <time>2026-08-21T10:02:11Z</time>
      </trkpt>
      <trkpt lat="49.13134" lon="4.00624">
        <ele>268.3</ele>
        <time>2026-08-21T10:02:16Z</time>
      </trkpt>
      <trkpt lat="49.13134" lon="4.00624">
        <ele>268.3</ele>
        <time>2026-08-21T10:02:22Z</time>
      </trkpt>
      <trkpt lat="49.13134" lon="4.00624">
        <ele>268.3</ele>
        <time>2026-08-21T10:02:27Z</time>
      </trkpt>
      <trkpt lat="49.13134" lon="4.00624">
        <ele>268.3</ele>
        <time>2026-08-21T10:02:32Z</time>
      </trkpt>
      <trkpt lat="49.13134" lon="4.00624">
        <ele>268.3</ele>
        <time>2026-08-21T10:02:38Z</time>
      </trkpt>
      <trkpt lat="49.13134" lon="4.00624">
        <ele>268.3</ele>
        <time>2026-08-21T10:02:43Z</time>
      </trkpt>
      <trkpt lat="49.13134" lon="4.00624">
        <ele>268.3</ele>
        <time>2026-08-21T10:02:48Z</time>
      </trkpt>
      <trkpt lat="49.13134" lon="4.00624">
        <ele>268.3</ele>
        <time>2026-08-21T10:02:54Z</time>
      </trkpt>
      <trkpt lat="49.13134" lon="4.00624">
        <ele>268.3</ele>
        <time>2026-08-21T10:02:59Z</time>
      </trkpt>
      <trkpt lat="49.13134" lon="4.00624">
        <ele>268.3</ele>
        <time>2026-08-21T10:03:04Z</time>
      </trkpt>
      <trkpt lat="49.13134" lon="4.00624">
        <ele>268.3</ele>
        <time>2026-08-21T10:03:10Z</time>
      </trkpt>
      <trkpt lat="49.13134" lon="4.00624">
        <ele>268.3</ele>
        <time>2026-08-21T10:03:15Z</time>
      </trkpt>
      <trkpt lat="49.13134" lon="4.00624">
        <ele>268.3</ele>
        <time>2026-08-21T10:03:20Z</time>
      </trkpt>
      <trkpt lat="49.13134" lon="4.00624">
        <ele>268.3</ele>
        <time>2026-08-21T10:03:26Z</time>
      </trkpt>
      <trkpt lat="49.13134" lon="4.00624">
        <ele>268.3</ele>
        <time>2026-08-21T10:03:31Z</time>
      </trkpt>
      <trkpt lat="49.13134" lon="4.00624">
        <ele>268.3</ele>
        <time>2026-08-21T10:03:36Z</time>
      </trkpt>
      <trkpt lat="49.13134" lon="4.00624">
        <ele>268.3</ele>
        <time>2026-08-21T10:03:42Z</time>
      </trkpt>
      <trkpt lat="49.13134" lon="4.00624">
        <ele>268.3</ele>
        <time>2026-08-21T10:03:47Z</time>
      </trkpt>
      <trkpt lat="49.13134" lon="4.00624">
        <ele>268.3</ele>
        <time>2026-08-21T10:03:52Z</time>
      </trkpt>
      <trkpt lat="49.13134" lon="4.00624">
        <ele>268.3</ele>
        <time>2026-08-21T10:03:58Z</time>
      </trkpt>
      <trkpt lat="49.13134" lon="4.00624">
        <ele>268.3</ele>
        <time>2026-08-21T10:04:03Z</time>
      </trkpt>
      <trkpt lat="49.13134" lon="4.00624">
        <ele>268.3</ele>
        <time>2026-08-21T10:04:08Z</time>
      </trkpt>
      <trkpt lat="49.13134" lon="4.00624">
        <ele>268.3</ele>
        <time>2026-08-21T10:04:14Z</time>
      </trkpt>
      <trkpt lat="49.13134" lon="4.00624">
        <ele>268.3</ele>
        <time>2026-08-21T10:04:19Z</time>
      </trkpt>
      <trkpt lat="49.13134" lon="4.00624">
        <ele>268.3</ele>
        <time>2026-08-21T10:04:24Z</time>
      </trkpt>
      <trkpt lat="49.13134" lon="4.00624">
        <ele>268.3</ele>
        <time>2026-08-21T10:04:30Z</time>
      </trkpt>
      <trkpt lat="49.13134" lon="4.00624">
        <ele>268.3</ele>
        <time>2026-08-21T10:04:35Z</time>
      </trkpt>
      <trkpt lat="49.13134" lon="4.00624">
        <ele>268.3</ele>
        <time>2026-08-21T10:04:40Z</time>
      </trkpt>
      <trkpt lat="49.13134" lon="4.00624">
        <ele>268.3</ele>
        <time>2026-08-21T10:04:46Z</time>
      </trkpt>
      <trkpt lat="49.13134" lon="4.00624">
        <ele>268.3</ele>
        <time>2026-08-21T10:04:51Z</time>
      </trkpt>
      <trkpt lat="49.13134" lon="4.00624">
        <ele>268.3</ele>
        <time>2026-08-21T10:04:56Z</time>
      </trkpt>
      <trkpt lat="49.13134" lon="4.00624">
        <ele>268.3</ele>
        <time>2026-08-21T10:05:02Z</time>
      </trkpt>
      <trkpt lat="49.13134" lon="4.00624">
        <ele>268.3</ele>
        <time>2026-08-21T10:05:07Z</time>
      </trkpt>
      <trkpt lat="49.13134" lon="4.00624">
        <ele>268.3</ele>
        <time>2026-08-21T10:05:12Z</time>
      </trkpt>
      <trkpt lat="49.13134" lon="4.00624">
        <ele>268.3</ele>
        <time>2026-08-21T10:05:18Z</time>
      </trkpt>
      <trkpt lat="49.13134" lon="4.00624">
        <ele>268.3</ele>
        <time>2026-08-21T10:05:23Z</time>
      </trkpt>
      <trkpt lat="49.13134" lon="4.00624">
        <ele>268.3</ele>
        <time>2026-08-21T10:05:28Z</time>
      </trkpt>
      <trkpt lat="49.13134" lon="4.00624">
        <ele>268.3</ele>
        <time>2026-08-21T10:05:34Z</time>
      </trkpt>
      <trkpt lat="49.13134" lon="4.00624">
        <ele>268.3</ele>
        <time>2026-08-21T10:05:39Z</time>
      </trkpt>
      <trkpt lat="49.13134" lon="4.00624">
        <ele>268.3</ele>
        <time>2026-08-21T10:05:44Z</time>
      </trkpt>
      <trkpt lat="49.13134" lon="4.00624">
        <ele>268.3</ele>
        <time>2026-08-21T10:05:50Z</time>
      </trkpt>
      <trkpt lat="49.13134" lon="4.00624">
        <ele>268.3</ele>
        <time>2026-08-21T10:05:55Z</time>
      </trkpt>
      <trkpt lat="49.13134" lon="4.00624">
        <ele>268.3</ele>
        <time>2026-08-21T10:06:00Z</time>
      </trkpt>
      <trkpt lat="49.13134" lon="4.00624">
        <ele>268.3</ele>
        <time>2026-08-21T10:06:06Z</time>
      </trkpt>
      <trkpt lat="49.13134" lon="4.00624">
        <ele>268.3</ele>
        <time>2026-08-21T10:06:11Z</time>
      </trkpt>
      <trkpt lat="49.13134" lon="4.00624">
        <ele>268.3</ele>
        <time>2026-08-21T10:06:16Z</time>
      </trkpt>
      <trkpt lat="49.13134" lon="4.00624">
        <ele>268.3</ele>
        <time>2026-08-21T10:06:22Z</time>
      </trkpt>
      <trkpt lat="49.13134" lon="4.00624">
        <ele>268.3</ele>
        <time>2026-08-21T10:06:27Z</time>
      </trkpt>
      <trkpt lat="49.13134" lon="4.00624">
        <ele>268.3</ele>
        <time>2026-08-21T10:06:32Z</time>
      </trkpt>
      <trkpt lat="49.13134" lon="4.00624">
        <ele>268.3</ele>
        <time>2026-08-21T10:06:38Z</time>
      </trkpt>
      <trkpt lat="49.13134" lon="4.00624">
        <ele>268.3</ele>
        <time>2026-08-21T10:06:43Z</time>
      </trkpt>
      <trkpt lat="49.13134" lon="4.00624">
        <ele>268.3</ele>
        <time>2026-08-21T10:06:48Z</time>
      </trkpt>
      <trkpt lat="49.13134" lon="4.00624">
        <ele>268.3</ele>
        <time>2026-08-21T10:06:54Z</time>
      </trkpt>
      <trkpt lat="49.13134" lon="4.00624">
        <ele>268.3</ele>
        <time>2026-08-21T10:06:59Z</time>
      </trkpt>
      <trkpt lat="49.13134" lon="4.00624">
        <ele>268.3</ele>
        <time>2026-08-21T10:07:04Z</time>
      </trkpt>
      <trkpt lat="49.13134" lon="4.00624">
        <ele>268.3</ele>
        <time>2026-08-21T10:07:10Z</time>
      </trkpt>
      <trkpt lat="49.13134" lon="4.00624">
        <ele>268.3</ele>
        <time>2026-08-21T10:07:15Z</time>
      </trkpt>
      <trkpt lat="49.13134" lon="4.00624">
        <ele>268.3</ele>
        <time>2026-08-21T10:07:20Z</time>
      </trkpt>
      <trkpt lat="49.13134" lon="4.00624">
        <ele>268.3</ele>
        <time>2026-08-21T10:07:26Z</time>
      </trkpt>
      <trkpt lat="49.13134" lon="4.00624">
        <ele>268.3</ele>
        <time>2026-08-21T10:07:31Z</time>
      </trkpt>
      <trkpt lat="49.13134" lon="4.00624">
        <ele>268.3</ele>
        <time>2026-08-21T10:07:36Z</time>
      </trkpt>
      <trkpt lat="49.13134" lon="4.00624">
        <ele>268.3</ele>
        <time>2026-08-21T10:07:42Z</time>
      </trkpt>
      <trkpt lat="49.13134" lon="4.00624">
        <ele>268.3</ele>
        <time>2026-08-21T10:07:47Z</time>
      </trkpt>
      <trkpt lat="49.13134" lon="4.00624">
        <ele>268.3</ele>
        <time>2026-08-21T10:07:52Z</time>
      </trkpt>
      <trkpt lat="49.13134" lon="4.00624">
        <ele>268.3</ele>
        <time>2026-08-21T10:07:58Z</time>
      </trkpt>
      <trkpt lat="49.13134" lon="4.00624">
        <ele>268.3</ele>
        <time>2026-08-21T10:08:03Z</time>
      </trkpt>
      <trkpt lat="49.13134" lon="4.00624">
        <ele>268.3</ele>
        <time>2026-08-21T10:08:08Z</time>
      </trkpt>
      <trkpt lat="49.13134" lon="4.00624">
        <ele>268.3</ele>
        <time>2026-08-21T10:08:14Z</time>
      </trkpt>
      <trkpt lat="49.13134" lon="4.00624">
        <ele>268.3</ele>
        <time>2026-08-21T10:08:19Z</time>
      </trkpt>
      <trkpt lat="49.13134" lon="4.00624">
        <ele>268.3</ele>
        <time>2026-08-21T10:08:24Z</time>
      </trkpt>
      <trkpt lat="49.13134" lon="4.00624">
        <ele>268.3</ele>
        <time>2026-08-21T10:08:30Z</time>
      </trkpt>
      <trkpt lat="49.13134" lon="4.00624">
        <ele>268.3</ele>
        <time>2026-08-21T10:08:35Z</time>
      </trkpt>
      <trkpt lat="49.13134" lon="4.00624">
        <ele>268.3</ele>
        <time>2026-08-21T10:08:40Z</time>
      </trkpt>
      <trkpt lat="49.13134" lon="4.00624">
        <ele>268.3</ele>
        <time>2026-08-21T10:08:46Z</time>
      </trkpt>
      <trkpt lat="49.13134" lon="4.00624">
        <ele>268.3</ele>
        <time>2026-08-21T10:08:51Z</time>
      </trkpt>
      <trkpt lat="49.13134" lon="4.00624">
        <ele>268.3</ele>
        <time>2026-08-21T10:08:56Z</time>
      </trkpt>
      <trkpt lat="49.13134" lon="4.00624">
        <ele>268.3</ele>
        <time>2026-08-21T10:09:02Z</time>
      </trkpt>
      <trkpt lat="49.13134" lon="4.00624">
        <ele>268.3</ele>
        <time>2026-08-21T10:09:07Z</time>
      </trkpt>
      <trkpt lat="49.13134" lon="4.00624">
        <ele>268.3</ele>
        <time>2026-08-21T10:09:12Z</time>
      </trkpt>
      <trkpt lat="49.13134" lon="4.00624">
        <ele>268.3</ele>
        <time>2026-08-21T10:09:18Z</time>
      </trkpt>
      <trkpt lat="49.13134" lon="4.00624">
        <ele>268.3</ele>
        <time>2026-08-21T10:09:23Z</time>
      </trkpt>
      <trkpt lat="49.13134" lon="4.00624">
        <ele>268.3</ele>
        <time>2026-08-21T10:09:28Z</time>
      </trkpt>
      <trkpt lat="49.13134" lon="4.00624">
        <ele>268.3</ele>
        <time>2026-08-21T10:09:34Z</time>
      </trkpt>
      <trkpt lat="49.13134" lon="4.00624">
        <ele>268.3</ele>
        <time>2026-08-21T10:09:39Z</time>
      </trkpt>
      <trkpt lat="49.13134" lon="4.00624">
        <ele>268.3</ele>
        <time>2026-08-21T10:09:44Z</time>
      </trkpt>
      <trkpt lat="49.13134" lon="4.00624">
        <ele>268.3</ele>
        <time>2026-08-21T10:09:50Z</time>
      </trkpt>
      <trkpt lat="49.13134" lon="4.00624">
        <ele>268.3</ele>
        <time>2026-08-21T10:09:55Z</time>
      </trkpt>
      <trkpt lat="49.13134" lon="4.00624">
        <ele>268.3</ele>
        <time>2026-08-21T10:10:00Z</time>
      </trkpt>
      <trkpt lat="49.13134" lon="4.00624">
        <ele>268.3</ele>
        <time>2026-08-21T10:10:06Z</time>
      </trkpt>
      <trkpt lat="49.13134" lon="4.00624">
        <ele>268.3</ele>
        <time>2026-08-21T10:10:11Z</time>
      </trkpt>
      <trkpt lat="49.13134" lon="4.00624">
        <ele>268.3</ele>
        <time>2026-08-21T10:10:16Z</time>
      </trkpt>
      <trkpt lat="49.13134" lon="4.00624">
        <ele>268.3</ele>
        <time>2026-08-21T10:10:22Z</time>
      </trkpt>
      <trkpt lat="49.13134" lon="4.00624">
        <ele>268.3</ele>
        <time>2026-08-21T10:10:27Z</time>
      </trkpt>
      <trkpt lat="49.13134" lon="4.00624">
        <ele>268.3</ele>
        <time>2026-08-21T10:10:32Z</time>
      </trkpt>
      <trkpt lat="49.13134" lon="4.00624">
        <ele>268.3</ele>
        <time>2026-08-21T10:10:38Z</time>
      </trkpt>
      <trkpt lat="49.13134" lon="4.00624">
        <ele>268.3</ele>
        <time>2026-08-21T10:10:43Z</time>
      </trkpt>
      <trkpt lat="49.13134" lon="4.00624">
        <ele>268.3</ele>
        <time>2026-08-21T10:10:48Z</time>
      </trkpt>
      <trkpt lat="49.13134" lon="4.00624">
        <ele>268.3</ele>
        <time>2026-08-21T10:10:54Z</time>
      </trkpt>
      <trkpt lat="49.13134" lon="4.00624">
        <ele>268.3</ele>
        <time>2026-08-21T10:10:59Z</time>
      </trkpt>
      <trkpt lat="49.13134" lon="4.00624">
        <ele>268.3</ele>
        <time>2026-08-21T10:11:04Z</time>
      </trkpt>
      <trkpt lat="49.13134" lon="4.00624">
        <ele>268.3</ele>
        <time>2026-08-21T10:11:10Z</time>
      </trkpt>
      <trkpt lat="49.13134" lon="4.00624">
        <ele>268.3</ele>
        <time>2026-08-21T10:11:15Z</time>
      </trkpt>
      <trkpt lat="49.13134" lon="4.00624">
        <ele>268.3</ele>
        <time>2026-08-21T10:11:20Z</time>
      </trkpt>
      <trkpt lat="49.13134" lon="4.00624">
        <ele>268.3</ele>
        <time>2026-08-21T10:11:26Z</time>
      </trkpt>
      <trkpt lat="49.13134" lon="4.00624">
        <ele>268.3</ele>
        <time>2026-08-21T10:11:31Z</time>
      </trkpt>
      <trkpt lat="49.13134" lon="4.00624">
        <ele>268.3</ele>
        <time>2026-08-21T10:11:36Z</time>
      </trkpt>
      <trkpt lat="49.13134" lon="4.00624">
        <ele>268.3</ele>
        <time>2026-08-21T10:11:42Z</time>
      </trkpt>
      <trkpt lat="49.13134" lon="4.00624">
        <ele>268.3</ele>
        <time>2026-08-21T10:11:47Z</time>
      </trkpt>
      <trkpt lat="49.13134" lon="4.00624">
        <ele>268.3</ele>
        <time>2026-08-21T10:11:52Z</time>
      </trkpt>
      <trkpt lat="49.13134" lon="4.00624">
        <ele>268.3</ele>
        <time>2026-08-21T10:11:58Z</time>
      </trkpt>
      <trkpt lat="49.13134" lon="4.00624">
        <ele>268.3</ele>
        <time>2026-08-21T10:12:03Z</time>
      </trkpt>
      <trkpt lat="49.13134" lon="4.00624">
        <ele>268.3</ele>
        <time>2026-08-21T10:12:08Z</time>
      </trkpt>
      <trkpt lat="49.13134" lon="4.00624">
        <ele>268.3</ele>
        <time>2026-08-21T10:12:14Z</time>
      </trkpt>
      <trkpt lat="49.13134" lon="4.00624">
        <ele>268.3</ele>
        <time>2026-08-21T10:12:19Z</time>
      </trkpt>
      <trkpt lat="49.13134" lon="4.00624">
        <ele>268.3</ele>
        <time>2026-08-21T10:12:24Z</time>
      </trkpt>
      <trkpt lat="49.13134" lon="4.00624">
        <ele>268.3</ele>
        <time>2026-08-21T10:12:30Z</time>
      </trkpt>
      <trkpt lat="49.13134" lon="4.00624">
        <ele>268.3</ele>
        <time>2026-08-21T10:12:35Z</time>
      </trkpt>
      <trkpt lat="49.13134" lon="4.00624">
        <ele>268.3</ele>
        <time>2026-08-21T10:12:40Z</time>
      </trkpt>
      <trkpt lat="49.13134" lon="4.00624">
        <ele>268.3</ele>
        <time>2026-08-21T10:12:46Z</time>
      </trkpt>
      <trkpt lat="49.13134" lon="4.00624">
        <ele>268.3</ele>
        <time>2026-08-21T10:12:51Z</time>
      </trkpt>
      <trkpt lat="49.13134" lon="4.00624">
        <ele>268.3</ele>
        <time>2026-08-21T10:12:56Z</time>
      </trkpt>
      <trkpt lat="49.13134" lon="4.00624">
        <ele>268.3</ele>
        <time>2026-08-21T10:13:02Z</time>
      </trkpt>
      <trkpt lat="49.13134" lon="4.00624">
        <ele>268.3</ele>
        <time>2026-08-21T10:13:07Z</time>
      </trkpt>
      <trkpt lat="49.13134" lon="4.00624">
        <ele>268.3</ele>
        <time>2026-08-21T10:13:12Z</time>
      </trkpt>
      <trkpt lat="49.13134" lon="4.00624">
        <ele>268.3</ele>
        <time>2026-08-21T10:13:18Z</time>
      </trkpt>
      <trkpt lat="49.13134" lon="4.00624">
        <ele>268.3</ele>
        <time>2026-08-21T10:13:23Z</time>
      </trkpt>
      <trkpt lat="49.13134" lon="4.00624">
        <ele>268.3</ele>
        <time>2026-08-21T10:13:28Z</time>
      </trkpt>
      <trkpt lat="49.13134" lon="4.00624">
        <ele>268.3</ele>
        <time>2026-08-21T10:13:34Z</time>
      </trkpt>
      <trkpt lat="49.13134" lon="4.00624">
        <ele>268.3</ele>
        <time>2026-08-21T10:13:39Z</time>
      </trkpt>
      <trkpt lat="49.13134" lon="4.00624">
        <ele>268.3</ele>
        <time>2026-08-21T10:13:44Z</time>
      </trkpt>
      <trkpt lat="49.13134" lon="4.00624">
        <ele>268.3</ele>
        <time>2026-08-21T10:13:50Z</time>
      </trkpt>
      <trkpt lat="49.13134" lon="4.00624">
        <ele>268.3</ele>
        <time>2026-08-21T10:13:55Z</time>
      </trkpt>
      <trkpt lat="49.13134" lon="4.00624">
        <ele>268.3</ele>
        <time>2026-08-21T10:14:00Z</time>
      </trkpt>
      <trkpt lat="49.13134" lon="4.00624">
        <ele>268.3</ele>
        <time>2026-08-21T10:14:06Z</time>
      </trkpt>
      <trkpt lat="49.13134" lon="4.00624">
        <ele>268.3</ele>
        <time>2026-08-21T10:14:11Z</time>
      </trkpt>
      <trkpt lat="49.13134" lon="4.00624">
        <ele>268.3</ele>
        <time>2026-08-21T10:14:16Z</time>
      </trkpt>
      <trkpt lat="49.13134" lon="4.00624">
        <ele>268.3</ele>
        <time>2026-08-21T10:14:22Z</time>
      </trkpt>
      <trkpt lat="49.13134" lon="4.00624">
        <ele>268.3</ele>
        <time>2026-08-21T10:14:27Z</time>
      </trkpt>
      <trkpt lat="49.13134" lon="4.00624">
        <ele>268.3</ele>
        <time>2026-08-21T10:14:32Z</time>
      </trkpt>
      <trkpt lat="49.13134" lon="4.00624">
        <ele>268.3</ele>
        <time>2026-08-21T10:14:38Z</time>
      </trkpt>
      <trkpt lat="49.13134" lon="4.00624">
        <ele>268.3</ele>
        <time>2026-08-21T10:14:43Z</time>
      </trkpt>
      <trkpt lat="49.13134" lon="4.00624">
        <ele>268.3</ele>
        <time>2026-08-21T10:14:48Z</time>
      </trkpt>
      <trkpt lat="49.13134" lon="4.00624">
        <ele>268.3</ele>
        <time>2026-08-21T10:14:54Z</time>
      </trkpt>
      <trkpt lat="49.13134" lon="4.00624">
        <ele>268.3</ele>
        <time>2026-08-21T10:14:59Z</time>
      </trkpt>
      <trkpt lat="49.13134" lon="4.00624">
        <ele>268.3</ele>
        <time>2026-08-21T10:15:04Z</time>
      </trkpt>
      <trkpt lat="49.13134" lon="4.00624">
        <ele>268.3</ele>
        <time>2026-08-21T10:15:10Z</time>
      </trkpt>
      <trkpt lat="49.13134" lon="4.00624">
        <ele>268.3</ele>
        <time>2026-08-21T10:15:15Z</time>
      </trkpt>
      <trkpt lat="49.13134" lon="4.00624">
        <ele>268.3</ele>
        <time>2026-08-21T10:15:20Z</time>
      </trkpt>
      <trkpt lat="49.13134" lon="4.00624">
        <ele>268.3</ele>
        <time>2026-08-21T10:15:26Z</time>
      </trkpt>
      <trkpt lat="49.13134" lon="4.00624">
        <ele>268.3</ele>
        <time>2026-08-21T10:15:31Z</time>
      </trkpt>
      <trkpt lat="49.13134" lon="4.00624">
        <ele>268.3</ele>
        <time>2026-08-21T10:15:36Z</time>
      </trkpt>
      <trkpt lat="49.13134" lon="4.00624">
        <ele>268.3</ele>
        <time>2026-08-21T10:15:42Z</time>
      </trkpt>
      <trkpt lat="49.13134" lon="4.00624">
        <ele>268.3</ele>
        <time>2026-08-21T10:15:47Z</time>
      </trkpt>
      <trkpt lat="49.13134" lon="4.00624">
        <ele>268.3</ele>
        <time>2026-08-21T10:15:52Z</time>
      </trkpt>
      <trkpt lat="49.13134" lon="4.00624">
        <ele>268.3</ele>
        <time>2026-08-21T10:15:58Z</time>
      </trkpt>
      <trkpt lat="49.13134" lon="4.00624">
        <ele>268.3</ele>
        <time>2026-08-21T10:16:03Z</time>
      </trkpt>
      <trkpt lat="49.13134" lon="4.00624">
        <ele>268.3</ele>
        <time>2026-08-21T10:16:08Z</time>
      </trkpt>
      <trkpt lat="49.13134" lon="4.00624">
        <ele>268.3</ele>
        <time>2026-08-21T10:16:14Z</time>
      </trkpt>
      <trkpt lat="49.13134" lon="4.00624">
        <ele>268.3</ele>
        <time>2026-08-21T10:16:19Z</time>
      </trkpt>
      <trkpt lat="49.13134" lon="4.00624">
        <ele>268.3</ele>
        <time>2026-08-21T10:16:24Z</time>
      </trkpt>
      <trkpt lat="49.13134" lon="4.00624">
        <ele>268.3</ele>
        <time>2026-08-21T10:16:30Z</time>
      </trkpt>
      <trkpt lat="49.13136" lon="4.00627">
        <ele>268.2</ele>
        <time>2026-08-21T10:16:35Z</time>
      </trkpt>
      <trkpt lat="49.13136" lon="4.00629">
        <ele>268.1</ele>
        <time>2026-08-21T10:16:40Z</time>
      </trkpt>
      <trkpt lat="49.13136" lon="4.00629">
        <ele>268.1</ele>
        <time>2026-08-21T10:16:46Z</time>
      </trkpt>
      <trkpt lat="49.13136" lon="4.00629">
        <ele>268.1</ele>
        <time>2026-08-21T10:16:51Z</time>
      </trkpt>
      <trkpt lat="49.13136" lon="4.00629">
        <ele>268.1</ele>
        <time>2026-08-21T10:16:56Z</time>
      </trkpt>
      <trkpt lat="49.13136" lon="4.00629">
        <ele>268.1</ele>
        <time>2026-08-21T10:17:02Z</time>
      </trkpt>
      <trkpt lat="49.13136" lon="4.00629">
        <ele>268.1</ele>
        <time>2026-08-21T10:17:07Z</time>
      </trkpt>
      <trkpt lat="49.13136" lon="4.00629">
        <ele>268.1</ele>
        <time>2026-08-21T10:17:12Z</time>
      </trkpt>
      <trkpt lat="49.13136" lon="4.00629">
        <ele>268.1</ele>
        <time>2026-08-21T10:17:18Z</time>
      </trkpt>
      <trkpt lat="49.13136" lon="4.00629">
        <ele>268.1</ele>
        <time>2026-08-21T10:17:23Z</time>
      </trkpt>
      <trkpt lat="49.13136" lon="4.00629">
        <ele>268.1</ele>
        <time>2026-08-21T10:17:28Z</time>
      </trkpt>
      <trkpt lat="49.13136" lon="4.00629">
        <ele>268.1</ele>
        <time>2026-08-21T10:17:34Z</time>
      </trkpt>
      <trkpt lat="49.13136" lon="4.00629">
        <ele>268.1</ele>
        <time>2026-08-21T10:17:39Z</time>
      </trkpt>
      <trkpt lat="49.13136" lon="4.00629">
        <ele>268.1</ele>
        <time>2026-08-21T10:17:44Z</time>
      </trkpt>
      <trkpt lat="49.13136" lon="4.00629">
        <ele>268.1</ele>
        <time>2026-08-21T10:17:50Z</time>
      </trkpt>
      <trkpt lat="49.13136" lon="4.00629">
        <ele>268.1</ele>
        <time>2026-08-21T10:17:55Z</time>
      </trkpt>
      <trkpt lat="49.13136" lon="4.00629">
        <ele>268.1</ele>
        <time>2026-08-21T10:18:00Z</time>
      </trkpt>
      <trkpt lat="49.13137" lon="4.00643">
        <ele>267.6</ele>
        <time>2026-08-21T10:18:06Z</time>
      </trkpt>
      <trkpt lat="49.13138" lon="4.00653">
        <ele>267.2</ele>
        <time>2026-08-21T10:18:11Z</time>
      </trkpt>
      <trkpt lat="49.13137" lon="4.00657">
        <ele>267.1</ele>
        <time>2026-08-21T10:18:16Z</time>
      </trkpt>
      <trkpt lat="49.13137" lon="4.0066">
        <ele>267</ele>
        <time>2026-08-21T10:18:22Z</time>
      </trkpt>
      <trkpt lat="49.13138" lon="4.00662">
        <ele>266.9</ele>
        <time>2026-08-21T10:18:27Z</time>
      </trkpt>
      <trkpt lat="49.13139" lon="4.00671">
        <ele>266.3</ele>
        <time>2026-08-21T10:18:32Z</time>
      </trkpt>
      <trkpt lat="49.13141" lon="4.0068">
        <ele>265.5</ele>
        <time>2026-08-21T10:18:38Z</time>
      </trkpt>
      <trkpt lat="49.13144" lon="4.00688">
        <ele>264.8</ele>
        <time>2026-08-21T10:18:43Z</time>
      </trkpt>
      <trkpt lat="49.13144" lon="4.00699">
        <ele>263.9</ele>
        <time>2026-08-21T10:18:48Z</time>
      </trkpt>
      <trkpt lat="49.13142" lon="4.00701">
        <ele>263.8</ele>
        <time>2026-08-21T10:18:54Z</time>
      </trkpt>
      <trkpt lat="49.13135" lon="4.00703">
        <ele>263.6</ele>
        <time>2026-08-21T10:18:59Z</time>
      </trkpt>
      <trkpt lat="49.13132" lon="4.00702">
        <ele>263.8</ele>
        <time>2026-08-21T10:19:04Z</time>
      </trkpt>
      <trkpt lat="49.13126" lon="4.00701">
        <ele>263.9</ele>
        <time>2026-08-21T10:19:10Z</time>
      </trkpt>
      <trkpt lat="49.13122" lon="4.00702">
        <ele>263.8</ele>
        <time>2026-08-21T10:19:15Z</time>
      </trkpt>
      <trkpt lat="49.13119" lon="4.007">
        <ele>264.1</ele>
        <time>2026-08-21T10:19:20Z</time>
      </trkpt>
      <trkpt lat="49.13118" lon="4.007">
        <ele>264.1</ele>
        <time>2026-08-21T10:19:26Z</time>
      </trkpt>
      <trkpt lat="49.13118" lon="4.007">
        <ele>264.1</ele>
        <time>2026-08-21T10:19:31Z</time>
      </trkpt>
      <trkpt lat="49.13118" lon="4.007">
        <ele>264.1</ele>
        <time>2026-08-21T10:19:36Z</time>
      </trkpt>
      <trkpt lat="49.13113" lon="4.00699">
        <ele>264.2</ele>
        <time>2026-08-21T10:19:42Z</time>
      </trkpt>
      <trkpt lat="49.13109" lon="4.007">
        <ele>264.2</ele>
        <time>2026-08-21T10:19:47Z</time>
      </trkpt>
      <trkpt lat="49.13104" lon="4.00701">
        <ele>264.1</ele>
        <time>2026-08-21T10:19:52Z</time>
      </trkpt>
      <trkpt lat="49.13098" lon="4.00703">
        <ele>264</ele>
        <time>2026-08-21T10:19:58Z</time>
      </trkpt>
      <trkpt lat="49.13092" lon="4.00703">
        <ele>264</ele>
        <time>2026-08-21T10:20:03Z</time>
      </trkpt>
      <trkpt lat="49.13087" lon="4.00703">
        <ele>264</ele>
        <time>2026-08-21T10:20:08Z</time>
      </trkpt>
      <trkpt lat="49.13081" lon="4.00705">
        <ele>263.9</ele>
        <time>2026-08-21T10:20:14Z</time>
      </trkpt>
      <trkpt lat="49.13076" lon="4.00704">
        <ele>264.2</ele>
        <time>2026-08-21T10:20:19Z</time>
      </trkpt>
      <trkpt lat="49.13072" lon="4.00703">
        <ele>264.4</ele>
        <time>2026-08-21T10:20:24Z</time>
      </trkpt>
      <trkpt lat="49.13064" lon="4.00704">
        <ele>264.6</ele>
        <time>2026-08-21T10:20:30Z</time>
      </trkpt>
      <trkpt lat="49.13058" lon="4.00705">
        <ele>264.7</ele>
        <time>2026-08-21T10:20:35Z</time>
      </trkpt>
      <trkpt lat="49.13053" lon="4.00706">
        <ele>264.8</ele>
        <time>2026-08-21T10:20:40Z</time>
      </trkpt>
      <trkpt lat="49.13046" lon="4.00706">
        <ele>265</ele>
        <time>2026-08-21T10:20:46Z</time>
      </trkpt>
      <trkpt lat="49.13039" lon="4.00708">
        <ele>265.1</ele>
        <time>2026-08-21T10:20:51Z</time>
      </trkpt>
      <trkpt lat="49.13031" lon="4.00711">
        <ele>265.2</ele>
        <time>2026-08-21T10:20:56Z</time>
      </trkpt>
      <trkpt lat="49.13024" lon="4.00712">
        <ele>265.4</ele>
        <time>2026-08-21T10:21:02Z</time>
      </trkpt>
      <trkpt lat="49.13018" lon="4.00711">
        <ele>265.7</ele>
        <time>2026-08-21T10:21:07Z</time>
      </trkpt>
      <trkpt lat="49.13012" lon="4.00711">
        <ele>265.9</ele>
        <time>2026-08-21T10:21:12Z</time>
      </trkpt>
      <trkpt lat="49.13004" lon="4.00713">
        <ele>266.1</ele>
        <time>2026-08-21T10:21:18Z</time>
      </trkpt>
      <trkpt lat="49.12998" lon="4.00715">
        <ele>266.2</ele>
        <time>2026-08-21T10:21:23Z</time>
      </trkpt>
      <trkpt lat="49.12992" lon="4.00712">
        <ele>266.5</ele>
        <time>2026-08-21T10:21:28Z</time>
      </trkpt>
      <trkpt lat="49.12985" lon="4.00713">
        <ele>266.6</ele>
        <time>2026-08-21T10:21:34Z</time>
      </trkpt>
      <trkpt lat="49.12979" lon="4.00715">
        <ele>266.7</ele>
        <time>2026-08-21T10:21:39Z</time>
      </trkpt>
      <trkpt lat="49.12972" lon="4.00715">
        <ele>266.9</ele>
        <time>2026-08-21T10:21:44Z</time>
      </trkpt>
      <trkpt lat="49.12965" lon="4.00715">
        <ele>267.1</ele>
        <time>2026-08-21T10:21:50Z</time>
      </trkpt>
      <trkpt lat="49.12957" lon="4.00715">
        <ele>267.3</ele>
        <time>2026-08-21T10:21:55Z</time>
      </trkpt>
      <trkpt lat="49.1295" lon="4.00715">
        <ele>267.5</ele>
        <time>2026-08-21T10:22:00Z</time>
      </trkpt>
      <trkpt lat="49.12943" lon="4.00716">
        <ele>267.7</ele>
        <time>2026-08-21T10:22:06Z</time>
      </trkpt>
      <trkpt lat="49.12938" lon="4.00718">
        <ele>267.8</ele>
        <time>2026-08-21T10:22:11Z</time>
      </trkpt>
      <trkpt lat="49.12933" lon="4.00718">
        <ele>267.9</ele>
        <time>2026-08-21T10:22:16Z</time>
      </trkpt>
      <trkpt lat="49.12925" lon="4.00718">
        <ele>268.1</ele>
        <time>2026-08-21T10:22:22Z</time>
      </trkpt>
      <trkpt lat="49.12919" lon="4.00717">
        <ele>268.3</ele>
        <time>2026-08-21T10:22:27Z</time>
      </trkpt>
      <trkpt lat="49.12912" lon="4.00717">
        <ele>268.2</ele>
        <time>2026-08-21T10:22:32Z</time>
      </trkpt>
      <trkpt lat="49.12904" lon="4.00718">
        <ele>267.9</ele>
        <time>2026-08-21T10:22:38Z</time>
      </trkpt>
      <trkpt lat="49.12899" lon="4.00721">
        <ele>267.6</ele>
        <time>2026-08-21T10:22:43Z</time>
      </trkpt>
      <trkpt lat="49.12893" lon="4.00721">
        <ele>267.4</ele>
        <time>2026-08-21T10:22:48Z</time>
      </trkpt>
      <trkpt lat="49.12885" lon="4.00722">
        <ele>267.1</ele>
        <time>2026-08-21T10:22:54Z</time>
      </trkpt>
      <trkpt lat="49.12877" lon="4.00721">
        <ele>266.8</ele>
        <time>2026-08-21T10:22:59Z</time>
      </trkpt>
      <trkpt lat="49.12875" lon="4.0072">
        <ele>266.7</ele>
        <time>2026-08-21T10:23:04Z</time>
      </trkpt>
      <trkpt lat="49.12871" lon="4.00719">
        <ele>266.6</ele>
        <time>2026-08-21T10:23:10Z</time>
      </trkpt>
      <trkpt lat="49.12867" lon="4.00721">
        <ele>266.4</ele>
        <time>2026-08-21T10:23:15Z</time>
      </trkpt>
      <trkpt lat="49.1286" lon="4.00721">
        <ele>266.1</ele>
        <time>2026-08-21T10:23:20Z</time>
      </trkpt>
      <trkpt lat="49.12854" lon="4.00722">
        <ele>265.8</ele>
        <time>2026-08-21T10:23:26Z</time>
      </trkpt>
      <trkpt lat="49.12847" lon="4.00722">
        <ele>265.6</ele>
        <time>2026-08-21T10:23:31Z</time>
      </trkpt>
      <trkpt lat="49.1284" lon="4.00721">
        <ele>265.3</ele>
        <time>2026-08-21T10:23:36Z</time>
      </trkpt>
      <trkpt lat="49.12832" lon="4.00721">
        <ele>265</ele>
        <time>2026-08-21T10:23:42Z</time>
      </trkpt>
      <trkpt lat="49.12826" lon="4.00724">
        <ele>264.9</ele>
        <time>2026-08-21T10:23:47Z</time>
      </trkpt>
      <trkpt lat="49.12819" lon="4.00722">
        <ele>265</ele>
        <time>2026-08-21T10:23:52Z</time>
      </trkpt>
      <trkpt lat="49.12812" lon="4.00721">
        <ele>265</ele>
        <time>2026-08-21T10:23:58Z</time>
      </trkpt>
      <trkpt lat="49.12804" lon="4.00722">
        <ele>265</ele>
        <time>2026-08-21T10:24:03Z</time>
      </trkpt>
      <trkpt lat="49.12797" lon="4.00723">
        <ele>265</ele>
        <time>2026-08-21T10:24:08Z</time>
      </trkpt>
      <trkpt lat="49.12792" lon="4.00724">
        <ele>264.9</ele>
        <time>2026-08-21T10:24:14Z</time>
      </trkpt>
      <trkpt lat="49.12786" lon="4.00725">
        <ele>264.9</ele>
        <time>2026-08-21T10:24:19Z</time>
      </trkpt>
      <trkpt lat="49.12778" lon="4.00726">
        <ele>264.9</ele>
        <time>2026-08-21T10:24:24Z</time>
      </trkpt>
      <trkpt lat="49.1277" lon="4.00727">
        <ele>264.8</ele>
        <time>2026-08-21T10:24:30Z</time>
      </trkpt>
      <trkpt lat="49.12765" lon="4.00727">
        <ele>264.8</ele>
        <time>2026-08-21T10:24:35Z</time>
      </trkpt>
      <trkpt lat="49.12765" lon="4.00725">
        <ele>264.9</ele>
        <time>2026-08-21T10:24:40Z</time>
      </trkpt>
      <trkpt lat="49.12764" lon="4.00723">
        <ele>265</ele>
        <time>2026-08-21T10:24:46Z</time>
      </trkpt>
      <trkpt lat="49.12764" lon="4.00723">
        <ele>265</ele>
        <time>2026-08-21T10:24:51Z</time>
      </trkpt>
      <trkpt lat="49.12756" lon="4.0072">
        <ele>265.1</ele>
        <time>2026-08-21T10:24:56Z</time>
      </trkpt>
      <trkpt lat="49.12748" lon="4.00725">
        <ele>264.9</ele>
        <time>2026-08-21T10:25:02Z</time>
      </trkpt>
      <trkpt lat="49.12743" lon="4.00728">
        <ele>264.8</ele>
        <time>2026-08-21T10:25:07Z</time>
      </trkpt>
      <trkpt lat="49.12737" lon="4.00727">
        <ele>264.9</ele>
        <time>2026-08-21T10:25:12Z</time>
      </trkpt>
      <trkpt lat="49.1273" lon="4.00725">
        <ele>265</ele>
        <time>2026-08-21T10:25:18Z</time>
      </trkpt>
      <trkpt lat="49.12723" lon="4.00726">
        <ele>265.1</ele>
        <time>2026-08-21T10:25:23Z</time>
      </trkpt>
      <trkpt lat="49.12716" lon="4.00726">
        <ele>265.1</ele>
        <time>2026-08-21T10:25:28Z</time>
      </trkpt>
      <trkpt lat="49.12708" lon="4.00727">
        <ele>265.1</ele>
        <time>2026-08-21T10:25:34Z</time>
      </trkpt>
      <trkpt lat="49.12706" lon="4.00728">
        <ele>265.1</ele>
        <time>2026-08-21T10:25:39Z</time>
      </trkpt>
      <trkpt lat="49.12706" lon="4.00728">
        <ele>265.1</ele>
        <time>2026-08-21T10:25:44Z</time>
      </trkpt>
      <trkpt lat="49.12706" lon="4.00728">
        <ele>265.1</ele>
        <time>2026-08-21T10:25:50Z</time>
      </trkpt>
      <trkpt lat="49.12699" lon="4.00729">
        <ele>265.1</ele>
        <time>2026-08-21T10:25:55Z</time>
      </trkpt>
      <trkpt lat="49.1269" lon="4.00731">
        <ele>265</ele>
        <time>2026-08-21T10:26:00Z</time>
      </trkpt>
      <trkpt lat="49.12686" lon="4.0073">
        <ele>265.1</ele>
        <time>2026-08-21T10:26:06Z</time>
      </trkpt>
      <trkpt lat="49.12685" lon="4.00726">
        <ele>265.3</ele>
        <time>2026-08-21T10:26:11Z</time>
      </trkpt>
      <trkpt lat="49.12684" lon="4.00726">
        <ele>265.3</ele>
        <time>2026-08-21T10:26:16Z</time>
      </trkpt>
      <trkpt lat="49.12684" lon="4.00726">
        <ele>265.3</ele>
        <time>2026-08-21T10:26:22Z</time>
      </trkpt>
      <trkpt lat="49.12684" lon="4.00726">
        <ele>265.3</ele>
        <time>2026-08-21T10:26:27Z</time>
      </trkpt>
      <trkpt lat="49.12684" lon="4.00726">
        <ele>265.3</ele>
        <time>2026-08-21T10:26:32Z</time>
      </trkpt>
      <trkpt lat="49.12684" lon="4.00726">
        <ele>265.3</ele>
        <time>2026-08-21T10:26:38Z</time>
      </trkpt>
      <trkpt lat="49.12684" lon="4.00726">
        <ele>265.3</ele>
        <time>2026-08-21T10:26:43Z</time>
      </trkpt>
      <trkpt lat="49.12684" lon="4.00726">
        <ele>265.3</ele>
        <time>2026-08-21T10:26:48Z</time>
      </trkpt>
      <trkpt lat="49.12676" lon="4.00728">
        <ele>265.3</ele>
        <time>2026-08-21T10:26:54Z</time>
      </trkpt>
      <trkpt lat="49.1267" lon="4.00727">
        <ele>265.4</ele>
        <time>2026-08-21T10:26:59Z</time>
      </trkpt>
      <trkpt lat="49.12665" lon="4.00729">
        <ele>265.2</ele>
        <time>2026-08-21T10:27:04Z</time>
      </trkpt>
      <trkpt lat="49.12658" lon="4.00731">
        <ele>264.9</ele>
        <time>2026-08-21T10:27:10Z</time>
      </trkpt>
      <trkpt lat="49.12653" lon="4.0073">
        <ele>264.8</ele>
        <time>2026-08-21T10:27:15Z</time>
      </trkpt>
      <trkpt lat="49.12648" lon="4.00731">
        <ele>264.6</ele>
        <time>2026-08-21T10:27:20Z</time>
      </trkpt>
      <trkpt lat="49.12642" lon="4.00733">
        <ele>264.3</ele>
        <time>2026-08-21T10:27:26Z</time>
      </trkpt>
      <trkpt lat="49.12636" lon="4.00739">
        <ele>263.8</ele>
        <time>2026-08-21T10:27:31Z</time>
      </trkpt>
      <trkpt lat="49.1263" lon="4.00744">
        <ele>263.4</ele>
        <time>2026-08-21T10:27:36Z</time>
      </trkpt>
      <trkpt lat="49.12622" lon="4.00749">
        <ele>263</ele>
        <time>2026-08-21T10:27:42Z</time>
      </trkpt>
      <trkpt lat="49.12617" lon="4.00753">
        <ele>262.8</ele>
        <time>2026-08-21T10:27:47Z</time>
      </trkpt>
      <trkpt lat="49.12611" lon="4.00756">
        <ele>262.6</ele>
        <time>2026-08-21T10:27:52Z</time>
      </trkpt>
      <trkpt lat="49.12605" lon="4.00761">
        <ele>262.3</ele>
        <time>2026-08-21T10:27:58Z</time>
      </trkpt>
      <trkpt lat="49.126" lon="4.00764">
        <ele>262.1</ele>
        <time>2026-08-21T10:28:03Z</time>
      </trkpt>
      <trkpt lat="49.12594" lon="4.00769">
        <ele>261.9</ele>
        <time>2026-08-21T10:28:08Z</time>
      </trkpt>
      <trkpt lat="49.12587" lon="4.00776">
        <ele>261.5</ele>
        <time>2026-08-21T10:28:14Z</time>
      </trkpt>
      <trkpt lat="49.1258" lon="4.0078">
        <ele>261.3</ele>
        <time>2026-08-21T10:28:19Z</time>
      </trkpt>
      <trkpt lat="49.12575" lon="4.00785">
        <ele>261.2</ele>
        <time>2026-08-21T10:28:24Z</time>
      </trkpt>
      <trkpt lat="49.12568" lon="4.0079">
        <ele>261.2</ele>
        <time>2026-08-21T10:28:30Z</time>
      </trkpt>
      <trkpt lat="49.12563" lon="4.00795">
        <ele>261.2</ele>
        <time>2026-08-21T10:28:35Z</time>
      </trkpt>
      <trkpt lat="49.12557" lon="4.00803">
        <ele>261.1</ele>
        <time>2026-08-21T10:28:40Z</time>
      </trkpt>
      <trkpt lat="49.1255" lon="4.00809">
        <ele>261.2</ele>
        <time>2026-08-21T10:28:46Z</time>
      </trkpt>
      <trkpt lat="49.12546" lon="4.00814">
        <ele>261.2</ele>
        <time>2026-08-21T10:28:51Z</time>
      </trkpt>
      <trkpt lat="49.12544" lon="4.0082">
        <ele>261.1</ele>
        <time>2026-08-21T10:28:56Z</time>
      </trkpt>
      <trkpt lat="49.12537" lon="4.00828">
        <ele>261.2</ele>
        <time>2026-08-21T10:29:02Z</time>
      </trkpt>
      <trkpt lat="49.12531" lon="4.00834">
        <ele>261.3</ele>
        <time>2026-08-21T10:29:07Z</time>
      </trkpt>
      <trkpt lat="49.12526" lon="4.0084">
        <ele>261.4</ele>
        <time>2026-08-21T10:29:12Z</time>
      </trkpt>
      <trkpt lat="49.12519" lon="4.00847">
        <ele>261.5</ele>
        <time>2026-08-21T10:29:18Z</time>
      </trkpt>
      <trkpt lat="49.12514" lon="4.00854">
        <ele>261.6</ele>
        <time>2026-08-21T10:29:23Z</time>
      </trkpt>
      <trkpt lat="49.12508" lon="4.00861">
        <ele>261.8</ele>
        <time>2026-08-21T10:29:28Z</time>
      </trkpt>
      <trkpt lat="49.12507" lon="4.00862">
        <ele>261.8</ele>
        <time>2026-08-21T10:29:34Z</time>
      </trkpt>
      <trkpt lat="49.12507" lon="4.00862">
        <ele>261.8</ele>
        <time>2026-08-21T10:29:39Z</time>
      </trkpt>
      <trkpt lat="49.12507" lon="4.00862">
        <ele>261.8</ele>
        <time>2026-08-21T10:29:44Z</time>
      </trkpt>
      <trkpt lat="49.12507" lon="4.00862">
        <ele>261.8</ele>
        <time>2026-08-21T10:29:50Z</time>
      </trkpt>
      <trkpt lat="49.12507" lon="4.00862">
        <ele>261.8</ele>
        <time>2026-08-21T10:29:55Z</time>
      </trkpt>
      <trkpt lat="49.12507" lon="4.00862">
        <ele>261.8</ele>
        <time>2026-08-21T10:30:00Z</time>
      </trkpt>
      <trkpt lat="49.12507" lon="4.00862">
        <ele>261.8</ele>
        <time>2026-08-21T10:30:06Z</time>
      </trkpt>
      <trkpt lat="49.12507" lon="4.00862">
        <ele>261.8</ele>
        <time>2026-08-21T10:30:11Z</time>
      </trkpt>
      <trkpt lat="49.12507" lon="4.00862">
        <ele>261.8</ele>
        <time>2026-08-21T10:30:16Z</time>
      </trkpt>
      <trkpt lat="49.12507" lon="4.00862">
        <ele>261.8</ele>
        <time>2026-08-21T10:30:22Z</time>
      </trkpt>
      <trkpt lat="49.12507" lon="4.00862">
        <ele>261.8</ele>
        <time>2026-08-21T10:30:27Z</time>
      </trkpt>
      <trkpt lat="49.12507" lon="4.00862">
        <ele>261.8</ele>
        <time>2026-08-21T10:30:32Z</time>
      </trkpt>
      <trkpt lat="49.12507" lon="4.00862">
        <ele>261.8</ele>
        <time>2026-08-21T10:30:38Z</time>
      </trkpt>
      <trkpt lat="49.12503" lon="4.0087">
        <ele>261.9</ele>
        <time>2026-08-21T10:30:43Z</time>
      </trkpt>
      <trkpt lat="49.12498" lon="4.00875">
        <ele>262</ele>
        <time>2026-08-21T10:30:48Z</time>
      </trkpt>
      <trkpt lat="49.12491" lon="4.00881">
        <ele>262</ele>
        <time>2026-08-21T10:30:54Z</time>
      </trkpt>
      <trkpt lat="49.12486" lon="4.00887">
        <ele>262.1</ele>
        <time>2026-08-21T10:30:59Z</time>
      </trkpt>
      <trkpt lat="49.12481" lon="4.00892">
        <ele>262.1</ele>
        <time>2026-08-21T10:31:04Z</time>
      </trkpt>
      <trkpt lat="49.12481" lon="4.00893">
        <ele>262.1</ele>
        <time>2026-08-21T10:31:10Z</time>
      </trkpt>
      <trkpt lat="49.12481" lon="4.00893">
        <ele>262.1</ele>
        <time>2026-08-21T10:31:15Z</time>
      </trkpt>
      <trkpt lat="49.12481" lon="4.00893">
        <ele>262.1</ele>
        <time>2026-08-21T10:31:20Z</time>
      </trkpt>
      <trkpt lat="49.12479" lon="4.00894">
        <ele>262.1</ele>
        <time>2026-08-21T10:31:26Z</time>
      </trkpt>
      <trkpt lat="49.12472" lon="4.00901">
        <ele>262.1</ele>
        <time>2026-08-21T10:31:31Z</time>
      </trkpt>
      <trkpt lat="49.12466" lon="4.00906">
        <ele>262.1</ele>
        <time>2026-08-21T10:31:36Z</time>
      </trkpt>
      <trkpt lat="49.12459" lon="4.00914">
        <ele>262</ele>
        <time>2026-08-21T10:31:42Z</time>
      </trkpt>
      <trkpt lat="49.12454" lon="4.00921">
        <ele>262</ele>
        <time>2026-08-21T10:31:47Z</time>
      </trkpt>
      <trkpt lat="49.12448" lon="4.00927">
        <ele>262</ele>
        <time>2026-08-21T10:31:52Z</time>
      </trkpt>
      <trkpt lat="49.12442" lon="4.00936">
        <ele>261.9</ele>
        <time>2026-08-21T10:31:58Z</time>
      </trkpt>
      <trkpt lat="49.12437" lon="4.00942">
        <ele>261.9</ele>
        <time>2026-08-21T10:32:03Z</time>
      </trkpt>
      <trkpt lat="49.12432" lon="4.00949">
        <ele>261.9</ele>
        <time>2026-08-21T10:32:08Z</time>
      </trkpt>
      <trkpt lat="49.12426" lon="4.00959">
        <ele>261.9</ele>
        <time>2026-08-21T10:32:14Z</time>
      </trkpt>
      <trkpt lat="49.12421" lon="4.00965">
        <ele>262</ele>
        <time>2026-08-21T10:32:19Z</time>
      </trkpt>
      <trkpt lat="49.12416" lon="4.00971">
        <ele>262</ele>
        <time>2026-08-21T10:32:24Z</time>
      </trkpt>
      <trkpt lat="49.1241" lon="4.00978">
        <ele>262</ele>
        <time>2026-08-21T10:32:30Z</time>
      </trkpt>
      <trkpt lat="49.12404" lon="4.00984">
        <ele>262.1</ele>
        <time>2026-08-21T10:32:35Z</time>
      </trkpt>
      <trkpt lat="49.12399" lon="4.00989">
        <ele>262.1</ele>
        <time>2026-08-21T10:32:40Z</time>
      </trkpt>
      <trkpt lat="49.12394" lon="4.00996">
        <ele>262</ele>
        <time>2026-08-21T10:32:46Z</time>
      </trkpt>
      <trkpt lat="49.12387" lon="4.01005">
        <ele>261.9</ele>
        <time>2026-08-21T10:32:51Z</time>
      </trkpt>
      <trkpt lat="49.12381" lon="4.01012">
        <ele>261.8</ele>
        <time>2026-08-21T10:32:56Z</time>
      </trkpt>
      <trkpt lat="49.12374" lon="4.01018">
        <ele>261.7</ele>
        <time>2026-08-21T10:33:02Z</time>
      </trkpt>
      <trkpt lat="49.12369" lon="4.01025">
        <ele>261.5</ele>
        <time>2026-08-21T10:33:07Z</time>
      </trkpt>
      <trkpt lat="49.12364" lon="4.01031">
        <ele>261.4</ele>
        <time>2026-08-21T10:33:12Z</time>
      </trkpt>
      <trkpt lat="49.12357" lon="4.01038">
        <ele>261.2</ele>
        <time>2026-08-21T10:33:18Z</time>
      </trkpt>
      <trkpt lat="49.12352" lon="4.01043">
        <ele>261.1</ele>
        <time>2026-08-21T10:33:23Z</time>
      </trkpt>
      <trkpt lat="49.12346" lon="4.0105">
        <ele>260.9</ele>
        <time>2026-08-21T10:33:28Z</time>
      </trkpt>
      <trkpt lat="49.12339" lon="4.01057">
        <ele>260.7</ele>
        <time>2026-08-21T10:33:34Z</time>
      </trkpt>
      <trkpt lat="49.12337" lon="4.01062">
        <ele>260.5</ele>
        <time>2026-08-21T10:33:39Z</time>
      </trkpt>
      <trkpt lat="49.12335" lon="4.01066">
        <ele>260.4</ele>
        <time>2026-08-21T10:33:44Z</time>
      </trkpt>
      <trkpt lat="49.12331" lon="4.01074">
        <ele>260.2</ele>
        <time>2026-08-21T10:33:50Z</time>
      </trkpt>
      <trkpt lat="49.12327" lon="4.01079">
        <ele>260.1</ele>
        <time>2026-08-21T10:33:55Z</time>
      </trkpt>
      <trkpt lat="49.1232" lon="4.01085">
        <ele>260</ele>
        <time>2026-08-21T10:34:00Z</time>
      </trkpt>
      <trkpt lat="49.12313" lon="4.01094">
        <ele>259.8</ele>
        <time>2026-08-21T10:34:06Z</time>
      </trkpt>
      <trkpt lat="49.12306" lon="4.01101">
        <ele>259.6</ele>
        <time>2026-08-21T10:34:11Z</time>
      </trkpt>
      <trkpt lat="49.123" lon="4.01105">
        <ele>259.5</ele>
        <time>2026-08-21T10:34:16Z</time>
      </trkpt>
      <trkpt lat="49.12293" lon="4.01112">
        <ele>259.3</ele>
        <time>2026-08-21T10:34:22Z</time>
      </trkpt>
      <trkpt lat="49.12287" lon="4.01117">
        <ele>259.1</ele>
        <time>2026-08-21T10:34:27Z</time>
      </trkpt>
      <trkpt lat="49.12281" lon="4.01122">
        <ele>259</ele>
        <time>2026-08-21T10:34:32Z</time>
      </trkpt>
      <trkpt lat="49.12275" lon="4.01128">
        <ele>258.7</ele>
        <time>2026-08-21T10:34:38Z</time>
      </trkpt>
      <trkpt lat="49.1227" lon="4.01134">
        <ele>258.5</ele>
        <time>2026-08-21T10:34:43Z</time>
      </trkpt>
      <trkpt lat="49.12265" lon="4.01138">
        <ele>258.3</ele>
        <time>2026-08-21T10:34:48Z</time>
      </trkpt>
      <trkpt lat="49.12258" lon="4.01144">
        <ele>258</ele>
        <time>2026-08-21T10:34:54Z</time>
      </trkpt>
      <trkpt lat="49.12253" lon="4.01152">
        <ele>257.6</ele>
        <time>2026-08-21T10:34:59Z</time>
      </trkpt>
      <trkpt lat="49.12248" lon="4.01158">
        <ele>257.4</ele>
        <time>2026-08-21T10:35:04Z</time>
      </trkpt>
      <trkpt lat="49.12242" lon="4.01166">
        <ele>257.3</ele>
        <time>2026-08-21T10:35:10Z</time>
      </trkpt>
      <trkpt lat="49.12238" lon="4.0117">
        <ele>257.3</ele>
        <time>2026-08-21T10:35:15Z</time>
      </trkpt>
      <trkpt lat="49.12232" lon="4.01174">
        <ele>257.4</ele>
        <time>2026-08-21T10:35:20Z</time>
      </trkpt>
      <trkpt lat="49.12224" lon="4.01181">
        <ele>257.5</ele>
        <time>2026-08-21T10:35:26Z</time>
      </trkpt>
      <trkpt lat="49.12219" lon="4.01187">
        <ele>257.4</ele>
        <time>2026-08-21T10:35:31Z</time>
      </trkpt>
      <trkpt lat="49.12214" lon="4.01192">
        <ele>257.4</ele>
        <time>2026-08-21T10:35:36Z</time>
      </trkpt>
      <trkpt lat="49.12206" lon="4.012">
        <ele>257.4</ele>
        <time>2026-08-21T10:35:42Z</time>
      </trkpt>
      <trkpt lat="49.12199" lon="4.01205">
        <ele>257.4</ele>
        <time>2026-08-21T10:35:47Z</time>
      </trkpt>
      <trkpt lat="49.12193" lon="4.01211">
        <ele>257.3</ele>
        <time>2026-08-21T10:35:52Z</time>
      </trkpt>
      <trkpt lat="49.12187" lon="4.01217">
        <ele>257.1</ele>
        <time>2026-08-21T10:35:58Z</time>
      </trkpt>
      <trkpt lat="49.12182" lon="4.01224">
        <ele>256.9</ele>
        <time>2026-08-21T10:36:03Z</time>
      </trkpt>
      <trkpt lat="49.12175" lon="4.01229">
        <ele>256.9</ele>
        <time>2026-08-21T10:36:08Z</time>
      </trkpt>
      <trkpt lat="49.12168" lon="4.01236">
        <ele>256.7</ele>
        <time>2026-08-21T10:36:14Z</time>
      </trkpt>
      <trkpt lat="49.12163" lon="4.01242">
        <ele>256.5</ele>
        <time>2026-08-21T10:36:19Z</time>
      </trkpt>
      <trkpt lat="49.12157" lon="4.01246">
        <ele>256.5</ele>
        <time>2026-08-21T10:36:24Z</time>
      </trkpt>
      <trkpt lat="49.12151" lon="4.01252">
        <ele>256.5</ele>
        <time>2026-08-21T10:36:30Z</time>
      </trkpt>
      <trkpt lat="49.12145" lon="4.01253">
        <ele>256.7</ele>
        <time>2026-08-21T10:36:35Z</time>
      </trkpt>
      <trkpt lat="49.12144" lon="4.01254">
        <ele>256.7</ele>
        <time>2026-08-21T10:36:40Z</time>
      </trkpt>
      <trkpt lat="49.12144" lon="4.01254">
        <ele>256.7</ele>
        <time>2026-08-21T10:36:46Z</time>
      </trkpt>
      <trkpt lat="49.12144" lon="4.01254">
        <ele>256.7</ele>
        <time>2026-08-21T10:36:51Z</time>
      </trkpt>
      <trkpt lat="49.12144" lon="4.01254">
        <ele>256.7</ele>
        <time>2026-08-21T10:36:56Z</time>
      </trkpt>
      <trkpt lat="49.12144" lon="4.01254">
        <ele>256.7</ele>
        <time>2026-08-21T10:37:02Z</time>
      </trkpt>
      <trkpt lat="49.12142" lon="4.01263">
        <ele>256.6</ele>
        <time>2026-08-21T10:37:07Z</time>
      </trkpt>
      <trkpt lat="49.12137" lon="4.01268">
        <ele>256.7</ele>
        <time>2026-08-21T10:37:12Z</time>
      </trkpt>
      <trkpt lat="49.12129" lon="4.01272">
        <ele>256.9</ele>
        <time>2026-08-21T10:37:18Z</time>
      </trkpt>
      <trkpt lat="49.12125" lon="4.01276">
        <ele>256.9</ele>
        <time>2026-08-21T10:37:23Z</time>
      </trkpt>
      <trkpt lat="49.12118" lon="4.0128">
        <ele>257</ele>
        <time>2026-08-21T10:37:28Z</time>
      </trkpt>
      <trkpt lat="49.12112" lon="4.01286">
        <ele>257</ele>
        <time>2026-08-21T10:37:34Z</time>
      </trkpt>
      <trkpt lat="49.12107" lon="4.01292">
        <ele>256.9</ele>
        <time>2026-08-21T10:37:39Z</time>
      </trkpt>
      <trkpt lat="49.121" lon="4.01299">
        <ele>256.9</ele>
        <time>2026-08-21T10:37:44Z</time>
      </trkpt>
      <trkpt lat="49.12092" lon="4.01307">
        <ele>256.8</ele>
        <time>2026-08-21T10:37:50Z</time>
      </trkpt>
      <trkpt lat="49.12087" lon="4.01312">
        <ele>256.7</ele>
        <time>2026-08-21T10:37:55Z</time>
      </trkpt>
      <trkpt lat="49.12081" lon="4.01319">
        <ele>256.5</ele>
        <time>2026-08-21T10:38:00Z</time>
      </trkpt>
      <trkpt lat="49.12074" lon="4.01325">
        <ele>256.3</ele>
        <time>2026-08-21T10:38:06Z</time>
      </trkpt>
      <trkpt lat="49.12071" lon="4.01324">
        <ele>256.4</ele>
        <time>2026-08-21T10:38:11Z</time>
      </trkpt>
      <trkpt lat="49.1207" lon="4.01326">
        <ele>256.3</ele>
        <time>2026-08-21T10:38:16Z</time>
      </trkpt>
      <trkpt lat="49.12062" lon="4.01333">
        <ele>256</ele>
        <time>2026-08-21T10:38:22Z</time>
      </trkpt>
      <trkpt lat="49.12057" lon="4.01338">
        <ele>255.8</ele>
        <time>2026-08-21T10:38:27Z</time>
      </trkpt>
      <trkpt lat="49.12052" lon="4.01343">
        <ele>255.7</ele>
        <time>2026-08-21T10:38:32Z</time>
      </trkpt>
      <trkpt lat="49.12044" lon="4.0135">
        <ele>255.5</ele>
        <time>2026-08-21T10:38:38Z</time>
      </trkpt>
      <trkpt lat="49.12036" lon="4.01356">
        <ele>255.3</ele>
        <time>2026-08-21T10:38:43Z</time>
      </trkpt>
      <trkpt lat="49.12031" lon="4.01359">
        <ele>255.3</ele>
        <time>2026-08-21T10:38:48Z</time>
      </trkpt>
      <trkpt lat="49.12025" lon="4.01365">
        <ele>255.1</ele>
        <time>2026-08-21T10:38:54Z</time>
      </trkpt>
      <trkpt lat="49.12021" lon="4.01369">
        <ele>255</ele>
        <time>2026-08-21T10:38:59Z</time>
      </trkpt>
      <trkpt lat="49.12016" lon="4.01373">
        <ele>255</ele>
        <time>2026-08-21T10:39:04Z</time>
      </trkpt>
      <trkpt lat="49.1201" lon="4.01377">
        <ele>254.9</ele>
        <time>2026-08-21T10:39:10Z</time>
      </trkpt>
      <trkpt lat="49.12002" lon="4.01381">
        <ele>254.8</ele>
        <time>2026-08-21T10:39:15Z</time>
      </trkpt>
      <trkpt lat="49.11996" lon="4.01382">
        <ele>255.2</ele>
        <time>2026-08-21T10:39:20Z</time>
      </trkpt>
      <trkpt lat="49.11989" lon="4.01386">
        <ele>255.6</ele>
        <time>2026-08-21T10:39:26Z</time>
      </trkpt>
      <trkpt lat="49.11987" lon="4.01387">
        <ele>255.8</ele>
        <time>2026-08-21T10:39:31Z</time>
      </trkpt>
      <trkpt lat="49.11985" lon="4.01388">
        <ele>255.9</ele>
        <time>2026-08-21T10:39:36Z</time>
      </trkpt>
      <trkpt lat="49.11985" lon="4.01389">
        <ele>255.9</ele>
        <time>2026-08-21T10:39:42Z</time>
      </trkpt>
      <trkpt lat="49.11985" lon="4.01389">
        <ele>255.9</ele>
        <time>2026-08-21T10:39:47Z</time>
      </trkpt>
      <trkpt lat="49.11985" lon="4.01389">
        <ele>255.9</ele>
        <time>2026-08-21T10:39:52Z</time>
      </trkpt>
      <trkpt lat="49.11985" lon="4.01389">
        <ele>255.9</ele>
        <time>2026-08-21T10:39:58Z</time>
      </trkpt>
      <trkpt lat="49.11985" lon="4.01389">
        <ele>255.9</ele>
        <time>2026-08-21T10:40:03Z</time>
      </trkpt>
      <trkpt lat="49.11985" lon="4.01389">
        <ele>255.9</ele>
        <time>2026-08-21T10:40:08Z</time>
      </trkpt>
      <trkpt lat="49.11985" lon="4.01389">
        <ele>255.9</ele>
        <time>2026-08-21T10:40:14Z</time>
      </trkpt>
      <trkpt lat="49.11985" lon="4.01389">
        <ele>255.9</ele>
        <time>2026-08-21T10:40:19Z</time>
      </trkpt>
      <trkpt lat="49.11985" lon="4.01389">
        <ele>255.9</ele>
        <time>2026-08-21T10:40:24Z</time>
      </trkpt>
      <trkpt lat="49.11985" lon="4.01389">
        <ele>255.9</ele>
        <time>2026-08-21T10:40:30Z</time>
      </trkpt>
      <trkpt lat="49.11985" lon="4.01389">
        <ele>255.9</ele>
        <time>2026-08-21T10:40:35Z</time>
      </trkpt>
      <trkpt lat="49.11985" lon="4.01389">
        <ele>255.9</ele>
        <time>2026-08-21T10:40:40Z</time>
      </trkpt>
      <trkpt lat="49.11985" lon="4.01389">
        <ele>255.9</ele>
        <time>2026-08-21T10:40:46Z</time>
      </trkpt>
      <trkpt lat="49.11985" lon="4.01389">
        <ele>255.9</ele>
        <time>2026-08-21T10:40:51Z</time>
      </trkpt>
      <trkpt lat="49.11985" lon="4.01389">
        <ele>255.9</ele>
        <time>2026-08-21T10:40:56Z</time>
      </trkpt>
      <trkpt lat="49.11985" lon="4.01389">
        <ele>255.9</ele>
        <time>2026-08-21T10:41:02Z</time>
      </trkpt>
      <trkpt lat="49.11985" lon="4.01389">
        <ele>255.9</ele>
        <time>2026-08-21T10:41:07Z</time>
      </trkpt>
      <trkpt lat="49.11985" lon="4.01389">
        <ele>255.9</ele>
        <time>2026-08-21T10:41:12Z</time>
      </trkpt>
      <trkpt lat="49.11985" lon="4.01389">
        <ele>255.9</ele>
        <time>2026-08-21T10:41:18Z</time>
      </trkpt>
      <trkpt lat="49.11985" lon="4.01389">
        <ele>255.9</ele>
        <time>2026-08-21T10:41:23Z</time>
      </trkpt>
      <trkpt lat="49.11985" lon="4.01389">
        <ele>255.9</ele>
        <time>2026-08-21T10:41:28Z</time>
      </trkpt>
      <trkpt lat="49.11985" lon="4.01389">
        <ele>255.9</ele>
        <time>2026-08-21T10:41:34Z</time>
      </trkpt>
      <trkpt lat="49.11985" lon="4.01389">
        <ele>255.9</ele>
        <time>2026-08-21T10:41:39Z</time>
      </trkpt>
      <trkpt lat="49.11985" lon="4.01389">
        <ele>255.9</ele>
        <time>2026-08-21T10:41:44Z</time>
      </trkpt>
      <trkpt lat="49.11985" lon="4.01389">
        <ele>255.9</ele>
        <time>2026-08-21T10:41:50Z</time>
      </trkpt>
      <trkpt lat="49.11985" lon="4.01389">
        <ele>255.9</ele>
        <time>2026-08-21T10:41:55Z</time>
      </trkpt>
      <trkpt lat="49.11985" lon="4.01389">
        <ele>255.9</ele>
        <time>2026-08-21T10:42:00Z</time>
      </trkpt>
      <trkpt lat="49.11985" lon="4.01389">
        <ele>255.9</ele>
        <time>2026-08-21T10:42:06Z</time>
      </trkpt>
      <trkpt lat="49.11984" lon="4.01391">
        <ele>255.9</ele>
        <time>2026-08-21T10:42:11Z</time>
      </trkpt>
      <trkpt lat="49.11978" lon="4.01395">
        <ele>256.2</ele>
        <time>2026-08-21T10:42:16Z</time>
      </trkpt>
      <trkpt lat="49.11972" lon="4.01398">
        <ele>256.6</ele>
        <time>2026-08-21T10:42:22Z</time>
      </trkpt>
      <trkpt lat="49.11965" lon="4.01403">
        <ele>257</ele>
        <time>2026-08-21T10:42:27Z</time>
      </trkpt>
      <trkpt lat="49.11962" lon="4.01406">
        <ele>257.1</ele>
        <time>2026-08-21T10:42:32Z</time>
      </trkpt>
      <trkpt lat="49.11956" lon="4.01409">
        <ele>257.4</ele>
        <time>2026-08-21T10:42:38Z</time>
      </trkpt>
      <trkpt lat="49.11954" lon="4.01413">
        <ele>257.4</ele>
        <time>2026-08-21T10:42:43Z</time>
      </trkpt>
      <trkpt lat="49.11954" lon="4.01415">
        <ele>257.4</ele>
        <time>2026-08-21T10:42:48Z</time>
      </trkpt>
      <trkpt lat="49.1195" lon="4.01414">
        <ele>257.7</ele>
        <time>2026-08-21T10:42:54Z</time>
      </trkpt>
      <trkpt lat="49.11946" lon="4.01414">
        <ele>258</ele>
        <time>2026-08-21T10:42:59Z</time>
      </trkpt>
      <trkpt lat="49.11941" lon="4.01417">
        <ele>258.2</ele>
        <time>2026-08-21T10:43:04Z</time>
      </trkpt>
      <trkpt lat="49.11933" lon="4.01421">
        <ele>258.6</ele>
        <time>2026-08-21T10:43:10Z</time>
      </trkpt>
      <trkpt lat="49.11928" lon="4.01424">
        <ele>258.9</ele>
        <time>2026-08-21T10:43:15Z</time>
      </trkpt>
      <trkpt lat="49.11922" lon="4.01427">
        <ele>259.1</ele>
        <time>2026-08-21T10:43:20Z</time>
      </trkpt>
      <trkpt lat="49.11915" lon="4.01429">
        <ele>259.7</ele>
        <time>2026-08-21T10:43:26Z</time>
      </trkpt>
      <trkpt lat="49.11909" lon="4.01434">
        <ele>260.3</ele>
        <time>2026-08-21T10:43:31Z</time>
      </trkpt>
      <trkpt lat="49.11902" lon="4.01435">
        <ele>261.3</ele>
        <time>2026-08-21T10:43:36Z</time>
      </trkpt>
      <trkpt lat="49.11894" lon="4.01439">
        <ele>262.2</ele>
        <time>2026-08-21T10:43:42Z</time>
      </trkpt>
      <trkpt lat="49.1189" lon="4.01441">
        <ele>262.7</ele>
        <time>2026-08-21T10:43:47Z</time>
      </trkpt>
      <trkpt lat="49.11888" lon="4.01442">
        <ele>262.9</ele>
        <time>2026-08-21T10:43:52Z</time>
      </trkpt>
      <trkpt lat="49.11888" lon="4.01443">
        <ele>262.9</ele>
        <time>2026-08-21T10:43:58Z</time>
      </trkpt>
      <trkpt lat="49.11888" lon="4.01443">
        <ele>262.9</ele>
        <time>2026-08-21T10:44:03Z</time>
      </trkpt>
      <trkpt lat="49.11888" lon="4.01443">
        <ele>262.9</ele>
        <time>2026-08-21T10:44:08Z</time>
      </trkpt>
      <trkpt lat="49.11886" lon="4.01446">
        <ele>263</ele>
        <time>2026-08-21T10:44:14Z</time>
      </trkpt>
      <trkpt lat="49.11883" lon="4.0145">
        <ele>263.2</ele>
        <time>2026-08-21T10:44:19Z</time>
      </trkpt>
      <trkpt lat="49.11876" lon="4.01452">
        <ele>264</ele>
        <time>2026-08-21T10:44:24Z</time>
      </trkpt>
      <trkpt lat="49.1187" lon="4.01457">
        <ele>264.5</ele>
        <time>2026-08-21T10:44:30Z</time>
      </trkpt>
      <trkpt lat="49.11864" lon="4.01461">
        <ele>265.1</ele>
        <time>2026-08-21T10:44:35Z</time>
      </trkpt>
      <trkpt lat="49.11858" lon="4.01462">
        <ele>265.8</ele>
        <time>2026-08-21T10:44:40Z</time>
      </trkpt>
      <trkpt lat="49.11852" lon="4.01467">
        <ele>266.3</ele>
        <time>2026-08-21T10:44:46Z</time>
      </trkpt>
      <trkpt lat="49.11846" lon="4.0147">
        <ele>266.8</ele>
        <time>2026-08-21T10:44:51Z</time>
      </trkpt>
      <trkpt lat="49.11842" lon="4.01474">
        <ele>267</ele>
        <time>2026-08-21T10:44:56Z</time>
      </trkpt>
      <trkpt lat="49.11837" lon="4.01478">
        <ele>267.4</ele>
        <time>2026-08-21T10:45:02Z</time>
      </trkpt>
      <trkpt lat="49.11831" lon="4.01482">
        <ele>267.7</ele>
        <time>2026-08-21T10:45:07Z</time>
      </trkpt>
      <trkpt lat="49.11826" lon="4.01484">
        <ele>268</ele>
        <time>2026-08-21T10:45:12Z</time>
      </trkpt>
      <trkpt lat="49.11819" lon="4.01489">
        <ele>268.2</ele>
        <time>2026-08-21T10:45:18Z</time>
      </trkpt>
      <trkpt lat="49.11813" lon="4.01492">
        <ele>268.5</ele>
        <time>2026-08-21T10:45:23Z</time>
      </trkpt>
      <trkpt lat="49.11811" lon="4.01493">
        <ele>268.6</ele>
        <time>2026-08-21T10:45:28Z</time>
      </trkpt>
      <trkpt lat="49.11811" lon="4.01492">
        <ele>268.7</ele>
        <time>2026-08-21T10:45:34Z</time>
      </trkpt>
      <trkpt lat="49.11808" lon="4.01493">
        <ele>268.9</ele>
        <time>2026-08-21T10:45:39Z</time>
      </trkpt>
      <trkpt lat="49.11802" lon="4.01498">
        <ele>269.1</ele>
        <time>2026-08-21T10:45:44Z</time>
      </trkpt>
      <trkpt lat="49.11795" lon="4.01502">
        <ele>269.5</ele>
        <time>2026-08-21T10:45:50Z</time>
      </trkpt>
      <trkpt lat="49.1179" lon="4.01506">
        <ele>269.6</ele>
        <time>2026-08-21T10:45:55Z</time>
      </trkpt>
      <trkpt lat="49.11784" lon="4.0151">
        <ele>269.8</ele>
        <time>2026-08-21T10:46:00Z</time>
      </trkpt>
      <trkpt lat="49.11777" lon="4.01514">
        <ele>270.2</ele>
        <time>2026-08-21T10:46:06Z</time>
      </trkpt>
      <trkpt lat="49.11772" lon="4.01517">
        <ele>270.4</ele>
        <time>2026-08-21T10:46:11Z</time>
      </trkpt>
      <trkpt lat="49.11766" lon="4.01521">
        <ele>270.7</ele>
        <time>2026-08-21T10:46:16Z</time>
      </trkpt>
      <trkpt lat="49.1176" lon="4.01528">
        <ele>270.6</ele>
        <time>2026-08-21T10:46:22Z</time>
      </trkpt>
      <trkpt lat="49.11755" lon="4.01534">
        <ele>270.6</ele>
        <time>2026-08-21T10:46:27Z</time>
      </trkpt>
      <trkpt lat="49.11751" lon="4.01537">
        <ele>270.8</ele>
        <time>2026-08-21T10:46:32Z</time>
      </trkpt>
      <trkpt lat="49.11744" lon="4.01542">
        <ele>270.8</ele>
        <time>2026-08-21T10:46:38Z</time>
      </trkpt>
      <trkpt lat="49.11737" lon="4.01545">
        <ele>271</ele>
        <time>2026-08-21T10:46:43Z</time>
      </trkpt>
      <trkpt lat="49.11731" lon="4.01548">
        <ele>271.1</ele>
        <time>2026-08-21T10:46:48Z</time>
      </trkpt>
      <trkpt lat="49.11725" lon="4.01552">
        <ele>271.2</ele>
        <time>2026-08-21T10:46:54Z</time>
      </trkpt>
      <trkpt lat="49.11719" lon="4.01556">
        <ele>271.3</ele>
        <time>2026-08-21T10:46:59Z</time>
      </trkpt>
      <trkpt lat="49.11713" lon="4.0156">
        <ele>271.4</ele>
        <time>2026-08-21T10:47:04Z</time>
      </trkpt>
      <trkpt lat="49.11707" lon="4.01562">
        <ele>271.7</ele>
        <time>2026-08-21T10:47:10Z</time>
      </trkpt>
      <trkpt lat="49.11701" lon="4.01565">
        <ele>272</ele>
        <time>2026-08-21T10:47:15Z</time>
      </trkpt>
      <trkpt lat="49.11693" lon="4.0157">
        <ele>272.4</ele>
        <time>2026-08-21T10:47:20Z</time>
      </trkpt>
      <trkpt lat="49.11686" lon="4.01575">
        <ele>272.7</ele>
        <time>2026-08-21T10:47:26Z</time>
      </trkpt>
      <trkpt lat="49.11682" lon="4.01578">
        <ele>272.9</ele>
        <time>2026-08-21T10:47:31Z</time>
      </trkpt>
      <trkpt lat="49.11677" lon="4.01583">
        <ele>273.1</ele>
        <time>2026-08-21T10:47:36Z</time>
      </trkpt>
      <trkpt lat="49.11672" lon="4.0159">
        <ele>273.1</ele>
        <time>2026-08-21T10:47:42Z</time>
      </trkpt>
      <trkpt lat="49.11666" lon="4.01595">
        <ele>273.2</ele>
        <time>2026-08-21T10:47:47Z</time>
      </trkpt>
      <trkpt lat="49.11662" lon="4.01599">
        <ele>273.1</ele>
        <time>2026-08-21T10:47:52Z</time>
      </trkpt>
      <trkpt lat="49.11656" lon="4.01604">
        <ele>273</ele>
        <time>2026-08-21T10:47:58Z</time>
      </trkpt>
      <trkpt lat="49.11653" lon="4.01611">
        <ele>272.7</ele>
        <time>2026-08-21T10:48:03Z</time>
      </trkpt>
      <trkpt lat="49.11648" lon="4.01617">
        <ele>272.5</ele>
        <time>2026-08-21T10:48:08Z</time>
      </trkpt>
      <trkpt lat="49.11642" lon="4.01624">
        <ele>272.4</ele>
        <time>2026-08-21T10:48:14Z</time>
      </trkpt>
      <trkpt lat="49.11637" lon="4.01631">
        <ele>272.2</ele>
        <time>2026-08-21T10:48:19Z</time>
      </trkpt>
      <trkpt lat="49.11632" lon="4.01638">
        <ele>272.1</ele>
        <time>2026-08-21T10:48:24Z</time>
      </trkpt>
      <trkpt lat="49.11624" lon="4.01646">
        <ele>272.2</ele>
        <time>2026-08-21T10:48:30Z</time>
      </trkpt>
      <trkpt lat="49.11619" lon="4.01652">
        <ele>272.2</ele>
        <time>2026-08-21T10:48:35Z</time>
      </trkpt>
      <trkpt lat="49.11615" lon="4.01657">
        <ele>272.2</ele>
        <time>2026-08-21T10:48:40Z</time>
      </trkpt>
      <trkpt lat="49.11609" lon="4.01665">
        <ele>272.2</ele>
        <time>2026-08-21T10:48:46Z</time>
      </trkpt>
      <trkpt lat="49.11606" lon="4.01669">
        <ele>272.2</ele>
        <time>2026-08-21T10:48:51Z</time>
      </trkpt>
      <trkpt lat="49.11601" lon="4.01674">
        <ele>272.3</ele>
        <time>2026-08-21T10:48:56Z</time>
      </trkpt>
      <trkpt lat="49.11595" lon="4.01681">
        <ele>272.4</ele>
        <time>2026-08-21T10:49:02Z</time>
      </trkpt>
      <trkpt lat="49.11589" lon="4.01687">
        <ele>272.5</ele>
        <time>2026-08-21T10:49:07Z</time>
      </trkpt>
      <trkpt lat="49.11585" lon="4.01693">
        <ele>272.6</ele>
        <time>2026-08-21T10:49:12Z</time>
      </trkpt>
      <trkpt lat="49.11579" lon="4.01699">
        <ele>272.7</ele>
        <time>2026-08-21T10:49:18Z</time>
      </trkpt>
      <trkpt lat="49.11574" lon="4.01704">
        <ele>272.7</ele>
        <time>2026-08-21T10:49:23Z</time>
      </trkpt>
      <trkpt lat="49.11568" lon="4.01709">
        <ele>272.9</ele>
        <time>2026-08-21T10:49:28Z</time>
      </trkpt>
      <trkpt lat="49.11563" lon="4.01714">
        <ele>273</ele>
        <time>2026-08-21T10:49:34Z</time>
      </trkpt>
      <trkpt lat="49.11556" lon="4.01719">
        <ele>273.3</ele>
        <time>2026-08-21T10:49:39Z</time>
      </trkpt>
      <trkpt lat="49.11552" lon="4.01722">
        <ele>273.5</ele>
        <time>2026-08-21T10:49:44Z</time>
      </trkpt>
      <trkpt lat="49.11545" lon="4.01727">
        <ele>273.8</ele>
        <time>2026-08-21T10:49:50Z</time>
      </trkpt>
      <trkpt lat="49.11539" lon="4.01733">
        <ele>274.1</ele>
        <time>2026-08-21T10:49:55Z</time>
      </trkpt>
      <trkpt lat="49.11534" lon="4.01739">
        <ele>274.4</ele>
        <time>2026-08-21T10:50:00Z</time>
      </trkpt>
      <trkpt lat="49.11526" lon="4.01747">
        <ele>274.9</ele>
        <time>2026-08-21T10:50:06Z</time>
      </trkpt>
      <trkpt lat="49.1152" lon="4.01752">
        <ele>275.2</ele>
        <time>2026-08-21T10:50:11Z</time>
      </trkpt>
      <trkpt lat="49.11514" lon="4.01755">
        <ele>275.5</ele>
        <time>2026-08-21T10:50:16Z</time>
      </trkpt>
      <trkpt lat="49.11508" lon="4.0176">
        <ele>275.7</ele>
        <time>2026-08-21T10:50:22Z</time>
      </trkpt>
      <trkpt lat="49.11502" lon="4.01764">
        <ele>276</ele>
        <time>2026-08-21T10:50:27Z</time>
      </trkpt>
      <trkpt lat="49.11497" lon="4.01768">
        <ele>275.9</ele>
        <time>2026-08-21T10:50:32Z</time>
      </trkpt>
      <trkpt lat="49.1149" lon="4.01774">
        <ele>275.5</ele>
        <time>2026-08-21T10:50:38Z</time>
      </trkpt>
      <trkpt lat="49.11486" lon="4.01776">
        <ele>275.4</ele>
        <time>2026-08-21T10:50:43Z</time>
      </trkpt>
      <trkpt lat="49.11481" lon="4.01779">
        <ele>275.3</ele>
        <time>2026-08-21T10:50:48Z</time>
      </trkpt>
      <trkpt lat="49.11473" lon="4.01784">
        <ele>275</ele>
        <time>2026-08-21T10:50:54Z</time>
      </trkpt>
      <trkpt lat="49.11467" lon="4.01788">
        <ele>274.9</ele>
        <time>2026-08-21T10:50:59Z</time>
      </trkpt>
      <trkpt lat="49.1146" lon="4.0179">
        <ele>274.8</ele>
        <time>2026-08-21T10:51:04Z</time>
      </trkpt>
      <trkpt lat="49.11455" lon="4.01794">
        <ele>274.7</ele>
        <time>2026-08-21T10:51:10Z</time>
      </trkpt>
      <trkpt lat="49.1145" lon="4.01798">
        <ele>274.6</ele>
        <time>2026-08-21T10:51:15Z</time>
      </trkpt>
      <trkpt lat="49.11444" lon="4.01801">
        <ele>274.5</ele>
        <time>2026-08-21T10:51:20Z</time>
      </trkpt>
      <trkpt lat="49.11436" lon="4.01805">
        <ele>274.5</ele>
        <time>2026-08-21T10:51:26Z</time>
      </trkpt>
      <trkpt lat="49.1143" lon="4.01808">
        <ele>274.4</ele>
        <time>2026-08-21T10:51:31Z</time>
      </trkpt>
      <trkpt lat="49.11423" lon="4.01811">
        <ele>274.4</ele>
        <time>2026-08-21T10:51:36Z</time>
      </trkpt>
      <trkpt lat="49.11416" lon="4.01813">
        <ele>274.5</ele>
        <time>2026-08-21T10:51:42Z</time>
      </trkpt>
      <trkpt lat="49.11412" lon="4.01814">
        <ele>274.5</ele>
        <time>2026-08-21T10:51:47Z</time>
      </trkpt>
      <trkpt lat="49.11405" lon="4.01818">
        <ele>274.5</ele>
        <time>2026-08-21T10:51:52Z</time>
      </trkpt>
      <trkpt lat="49.11399" lon="4.01823">
        <ele>274.4</ele>
        <time>2026-08-21T10:51:58Z</time>
      </trkpt>
      <trkpt lat="49.11394" lon="4.01826">
        <ele>274.4</ele>
        <time>2026-08-21T10:52:03Z</time>
      </trkpt>
      <trkpt lat="49.11388" lon="4.01829">
        <ele>274.4</ele>
        <time>2026-08-21T10:52:08Z</time>
      </trkpt>
      <trkpt lat="49.11381" lon="4.01832">
        <ele>274.5</ele>
        <time>2026-08-21T10:52:14Z</time>
      </trkpt>
      <trkpt lat="49.11375" lon="4.01834">
        <ele>274.5</ele>
        <time>2026-08-21T10:52:19Z</time>
      </trkpt>
      <trkpt lat="49.1137" lon="4.01836">
        <ele>274.5</ele>
        <time>2026-08-21T10:52:24Z</time>
      </trkpt>
      <trkpt lat="49.11363" lon="4.01839">
        <ele>274.5</ele>
        <time>2026-08-21T10:52:30Z</time>
      </trkpt>
      <trkpt lat="49.11356" lon="4.01842">
        <ele>274.5</ele>
        <time>2026-08-21T10:52:35Z</time>
      </trkpt>
      <trkpt lat="49.1135" lon="4.01843">
        <ele>274.5</ele>
        <time>2026-08-21T10:52:40Z</time>
      </trkpt>
      <trkpt lat="49.11341" lon="4.01846">
        <ele>274.6</ele>
        <time>2026-08-21T10:52:46Z</time>
      </trkpt>
      <trkpt lat="49.11334" lon="4.01847">
        <ele>274.7</ele>
        <time>2026-08-21T10:52:51Z</time>
      </trkpt>
      <trkpt lat="49.11328" lon="4.01846">
        <ele>274.7</ele>
        <time>2026-08-21T10:52:56Z</time>
      </trkpt>
      <trkpt lat="49.11321" lon="4.01849">
        <ele>274.6</ele>
        <time>2026-08-21T10:53:02Z</time>
      </trkpt>
      <trkpt lat="49.11316" lon="4.01851">
        <ele>274.5</ele>
        <time>2026-08-21T10:53:07Z</time>
      </trkpt>
      <trkpt lat="49.1131" lon="4.01852">
        <ele>274.4</ele>
        <time>2026-08-21T10:53:12Z</time>
      </trkpt>
      <trkpt lat="49.11305" lon="4.01852">
        <ele>274.4</ele>
        <time>2026-08-21T10:53:18Z</time>
      </trkpt>
      <trkpt lat="49.11298" lon="4.01854">
        <ele>274.3</ele>
        <time>2026-08-21T10:53:23Z</time>
      </trkpt>
      <trkpt lat="49.11292" lon="4.01854">
        <ele>274.3</ele>
        <time>2026-08-21T10:53:28Z</time>
      </trkpt>
      <trkpt lat="49.11284" lon="4.01857">
        <ele>274.1</ele>
        <time>2026-08-21T10:53:34Z</time>
      </trkpt>
      <trkpt lat="49.11278" lon="4.01859">
        <ele>274</ele>
        <time>2026-08-21T10:53:39Z</time>
      </trkpt>
      <trkpt lat="49.11273" lon="4.0186">
        <ele>273.9</ele>
        <time>2026-08-21T10:53:44Z</time>
      </trkpt>
      <trkpt lat="49.11264" lon="4.01862">
        <ele>273.7</ele>
        <time>2026-08-21T10:53:50Z</time>
      </trkpt>
      <trkpt lat="49.11257" lon="4.01864">
        <ele>273.6</ele>
        <time>2026-08-21T10:53:55Z</time>
      </trkpt>
      <trkpt lat="49.11251" lon="4.01866">
        <ele>273.4</ele>
        <time>2026-08-21T10:54:00Z</time>
      </trkpt>
      <trkpt lat="49.11245" lon="4.01868">
        <ele>273.2</ele>
        <time>2026-08-21T10:54:06Z</time>
      </trkpt>
      <trkpt lat="49.1124" lon="4.0187">
        <ele>273</ele>
        <time>2026-08-21T10:54:11Z</time>
      </trkpt>
      <trkpt lat="49.11233" lon="4.01872">
        <ele>272.7</ele>
        <time>2026-08-21T10:54:16Z</time>
      </trkpt>
      <trkpt lat="49.11226" lon="4.01874">
        <ele>272.5</ele>
        <time>2026-08-21T10:54:22Z</time>
      </trkpt>
      <trkpt lat="49.1122" lon="4.01876">
        <ele>272.2</ele>
        <time>2026-08-21T10:54:27Z</time>
      </trkpt>
      <trkpt lat="49.11213" lon="4.01878">
        <ele>272</ele>
        <time>2026-08-21T10:54:32Z</time>
      </trkpt>
      <trkpt lat="49.11206" lon="4.01879">
        <ele>271.8</ele>
        <time>2026-08-21T10:54:38Z</time>
      </trkpt>
      <trkpt lat="49.11199" lon="4.0188">
        <ele>271.5</ele>
        <time>2026-08-21T10:54:43Z</time>
      </trkpt>
      <trkpt lat="49.11194" lon="4.01882">
        <ele>271.3</ele>
        <time>2026-08-21T10:54:48Z</time>
      </trkpt>
      <trkpt lat="49.11185" lon="4.01884">
        <ele>271</ele>
        <time>2026-08-21T10:54:54Z</time>
      </trkpt>
      <trkpt lat="49.11178" lon="4.01883">
        <ele>270.9</ele>
        <time>2026-08-21T10:54:59Z</time>
      </trkpt>
      <trkpt lat="49.11171" lon="4.01885">
        <ele>270.6</ele>
        <time>2026-08-21T10:55:04Z</time>
      </trkpt>
      <trkpt lat="49.11163" lon="4.01887">
        <ele>270.3</ele>
        <time>2026-08-21T10:55:10Z</time>
      </trkpt>
      <trkpt lat="49.11156" lon="4.01889">
        <ele>269.9</ele>
        <time>2026-08-21T10:55:15Z</time>
      </trkpt>
      <trkpt lat="49.11149" lon="4.01888">
        <ele>269.7</ele>
        <time>2026-08-21T10:55:20Z</time>
      </trkpt>
      <trkpt lat="49.11143" lon="4.01891">
        <ele>269.4</ele>
        <time>2026-08-21T10:55:26Z</time>
      </trkpt>
      <trkpt lat="49.11137" lon="4.01892">
        <ele>269.1</ele>
        <time>2026-08-21T10:55:31Z</time>
      </trkpt>
      <trkpt lat="49.11129" lon="4.01892">
        <ele>268.8</ele>
        <time>2026-08-21T10:55:36Z</time>
      </trkpt>
      <trkpt lat="49.1112" lon="4.01893">
        <ele>268.4</ele>
        <time>2026-08-21T10:55:42Z</time>
      </trkpt>
      <trkpt lat="49.11115" lon="4.01894">
        <ele>268.1</ele>
        <time>2026-08-21T10:55:47Z</time>
      </trkpt>
      <trkpt lat="49.11109" lon="4.01896">
        <ele>267.7</ele>
        <time>2026-08-21T10:55:52Z</time>
      </trkpt>
      <trkpt lat="49.11101" lon="4.01895">
        <ele>267.5</ele>
        <time>2026-08-21T10:55:58Z</time>
      </trkpt>
      <trkpt lat="49.11095" lon="4.01896">
        <ele>267.2</ele>
        <time>2026-08-21T10:56:03Z</time>
      </trkpt>
      <trkpt lat="49.11089" lon="4.01897">
        <ele>266.9</ele>
        <time>2026-08-21T10:56:08Z</time>
      </trkpt>
      <trkpt lat="49.11082" lon="4.01898">
        <ele>266.6</ele>
        <time>2026-08-21T10:56:14Z</time>
      </trkpt>
      <trkpt lat="49.11077" lon="4.019">
        <ele>266.5</ele>
        <time>2026-08-21T10:56:19Z</time>
      </trkpt>
      <trkpt lat="49.11068" lon="4.01901">
        <ele>266.5</ele>
        <time>2026-08-21T10:56:24Z</time>
      </trkpt>
      <trkpt lat="49.11063" lon="4.01902">
        <ele>266.4</ele>
        <time>2026-08-21T10:56:30Z</time>
      </trkpt>
      <trkpt lat="49.11057" lon="4.01901">
        <ele>266.6</ele>
        <time>2026-08-21T10:56:35Z</time>
      </trkpt>
      <trkpt lat="49.11051" lon="4.01899">
        <ele>266.8</ele>
        <time>2026-08-21T10:56:40Z</time>
      </trkpt>
      <trkpt lat="49.11043" lon="4.019">
        <ele>266.8</ele>
        <time>2026-08-21T10:56:46Z</time>
      </trkpt>
      <trkpt lat="49.11037" lon="4.01901">
        <ele>266.8</ele>
        <time>2026-08-21T10:56:51Z</time>
      </trkpt>
      <trkpt lat="49.1103" lon="4.019">
        <ele>266.9</ele>
        <time>2026-08-21T10:56:56Z</time>
      </trkpt>
      <trkpt lat="49.11022" lon="4.01899">
        <ele>267.1</ele>
        <time>2026-08-21T10:57:02Z</time>
      </trkpt>
      <trkpt lat="49.11015" lon="4.01897">
        <ele>267.3</ele>
        <time>2026-08-21T10:57:07Z</time>
      </trkpt>
      <trkpt lat="49.11007" lon="4.01899">
        <ele>267.2</ele>
        <time>2026-08-21T10:57:12Z</time>
      </trkpt>
      <trkpt lat="49.10999" lon="4.01899">
        <ele>267.3</ele>
        <time>2026-08-21T10:57:18Z</time>
      </trkpt>
      <trkpt lat="49.10992" lon="4.019">
        <ele>267.1</ele>
        <time>2026-08-21T10:57:23Z</time>
      </trkpt>
      <trkpt lat="49.10987" lon="4.01901">
        <ele>267</ele>
        <time>2026-08-21T10:57:28Z</time>
      </trkpt>
      <trkpt lat="49.1098" lon="4.019">
        <ele>267</ele>
        <time>2026-08-21T10:57:34Z</time>
      </trkpt>
      <trkpt lat="49.10972" lon="4.01898">
        <ele>267</ele>
        <time>2026-08-21T10:57:39Z</time>
      </trkpt>
      <trkpt lat="49.10966" lon="4.01894">
        <ele>267.1</ele>
        <time>2026-08-21T10:57:44Z</time>
      </trkpt>
      <trkpt lat="49.10961" lon="4.01891">
        <ele>267.1</ele>
        <time>2026-08-21T10:57:50Z</time>
      </trkpt>
      <trkpt lat="49.10954" lon="4.01887">
        <ele>267.2</ele>
        <time>2026-08-21T10:57:55Z</time>
      </trkpt>
      <trkpt lat="49.1095" lon="4.01881">
        <ele>267.3</ele>
        <time>2026-08-21T10:58:00Z</time>
      </trkpt>
      <trkpt lat="49.10942" lon="4.01881">
        <ele>267.1</ele>
        <time>2026-08-21T10:58:06Z</time>
      </trkpt>
      <trkpt lat="49.10936" lon="4.01877">
        <ele>267</ele>
        <time>2026-08-21T10:58:11Z</time>
      </trkpt>
      <trkpt lat="49.10933" lon="4.01871">
        <ele>267.1</ele>
        <time>2026-08-21T10:58:16Z</time>
      </trkpt>
      <trkpt lat="49.10926" lon="4.01865">
        <ele>267</ele>
        <time>2026-08-21T10:58:22Z</time>
      </trkpt>
      <trkpt lat="49.10918" lon="4.01862">
        <ele>266.7</ele>
        <time>2026-08-21T10:58:27Z</time>
      </trkpt>
      <trkpt lat="49.10912" lon="4.01859">
        <ele>266.4</ele>
        <time>2026-08-21T10:58:32Z</time>
      </trkpt>
      <trkpt lat="49.10906" lon="4.01853">
        <ele>266.1</ele>
        <time>2026-08-21T10:58:38Z</time>
      </trkpt>
      <trkpt lat="49.10902" lon="4.01852">
        <ele>265.9</ele>
        <time>2026-08-21T10:58:43Z</time>
      </trkpt>
      <trkpt lat="49.10896" lon="4.01852">
        <ele>265.5</ele>
        <time>2026-08-21T10:58:48Z</time>
      </trkpt>
      <trkpt lat="49.10888" lon="4.01848">
        <ele>265</ele>
        <time>2026-08-21T10:58:54Z</time>
      </trkpt>
      <trkpt lat="49.10883" lon="4.01844">
        <ele>264.7</ele>
        <time>2026-08-21T10:58:59Z</time>
      </trkpt>
      <trkpt lat="49.1088" lon="4.01841">
        <ele>264.4</ele>
        <time>2026-08-21T10:59:04Z</time>
      </trkpt>
      <trkpt lat="49.10876" lon="4.01839">
        <ele>264.1</ele>
        <time>2026-08-21T10:59:10Z</time>
      </trkpt>
      <trkpt lat="49.10873" lon="4.01836">
        <ele>263.9</ele>
        <time>2026-08-21T10:59:15Z</time>
      </trkpt>
      <trkpt lat="49.10868" lon="4.01831">
        <ele>263.5</ele>
        <time>2026-08-21T10:59:20Z</time>
      </trkpt>
      <trkpt lat="49.10863" lon="4.01822">
        <ele>262.9</ele>
        <time>2026-08-21T10:59:26Z</time>
      </trkpt>
      <trkpt lat="49.10857" lon="4.01814">
        <ele>262.2</ele>
        <time>2026-08-21T10:59:31Z</time>
      </trkpt>
      <trkpt lat="49.10852" lon="4.01804">
        <ele>261.5</ele>
        <time>2026-08-21T10:59:36Z</time>
      </trkpt>
      <trkpt lat="49.10848" lon="4.01792">
        <ele>260.7</ele>
        <time>2026-08-21T10:59:42Z</time>
      </trkpt>
      <trkpt lat="49.10845" lon="4.01786">
        <ele>260.1</ele>
        <time>2026-08-21T10:59:47Z</time>
      </trkpt>
      <trkpt lat="49.10842" lon="4.01777">
        <ele>259.4</ele>
        <time>2026-08-21T10:59:52Z</time>
      </trkpt>
      <trkpt lat="49.10839" lon="4.01768">
        <ele>258.6</ele>
        <time>2026-08-21T10:59:58Z</time>
      </trkpt>
      <trkpt lat="49.10838" lon="4.01764">
        <ele>258.3</ele>
        <time>2026-08-21T11:00:03Z</time>
      </trkpt>
      <trkpt lat="49.10838" lon="4.01762">
        <ele>258.2</ele>
        <time>2026-08-21T11:00:08Z</time>
      </trkpt>
      <trkpt lat="49.10838" lon="4.01762">
        <ele>258.2</ele>
        <time>2026-08-21T11:00:14Z</time>
      </trkpt>
      <trkpt lat="49.10838" lon="4.01762">
        <ele>258.2</ele>
        <time>2026-08-21T11:00:19Z</time>
      </trkpt>
      <trkpt lat="49.10838" lon="4.01762">
        <ele>258.2</ele>
        <time>2026-08-21T11:00:24Z</time>
      </trkpt>
      <trkpt lat="49.10838" lon="4.01762">
        <ele>258.2</ele>
        <time>2026-08-21T11:00:30Z</time>
      </trkpt>
      <trkpt lat="49.10838" lon="4.01762">
        <ele>258.2</ele>
        <time>2026-08-21T11:00:35Z</time>
      </trkpt>
      <trkpt lat="49.10838" lon="4.01762">
        <ele>258.2</ele>
        <time>2026-08-21T11:00:40Z</time>
      </trkpt>
      <trkpt lat="49.10838" lon="4.01762">
        <ele>258.2</ele>
        <time>2026-08-21T11:00:46Z</time>
      </trkpt>
      <trkpt lat="49.10838" lon="4.01762">
        <ele>258.2</ele>
        <time>2026-08-21T11:00:51Z</time>
      </trkpt>
      <trkpt lat="49.10838" lon="4.01762">
        <ele>258.2</ele>
        <time>2026-08-21T11:00:56Z</time>
      </trkpt>
      <trkpt lat="49.10839" lon="4.01755">
        <ele>258.1</ele>
        <time>2026-08-21T11:01:02Z</time>
      </trkpt>
      <trkpt lat="49.10838" lon="4.01744">
        <ele>257.7</ele>
        <time>2026-08-21T11:01:07Z</time>
      </trkpt>
      <trkpt lat="49.10835" lon="4.01738">
        <ele>257.3</ele>
        <time>2026-08-21T11:01:12Z</time>
      </trkpt>
      <trkpt lat="49.10833" lon="4.01738">
        <ele>257</ele>
        <time>2026-08-21T11:01:18Z</time>
      </trkpt>
      <trkpt lat="49.10833" lon="4.01738">
        <ele>257</ele>
        <time>2026-08-21T11:01:23Z</time>
      </trkpt>
      <trkpt lat="49.10831" lon="4.01735">
        <ele>256.8</ele>
        <time>2026-08-21T11:01:28Z</time>
      </trkpt>
      <trkpt lat="49.1083" lon="4.01725">
        <ele>256.7</ele>
        <time>2026-08-21T11:01:34Z</time>
      </trkpt>
      <trkpt lat="49.10828" lon="4.01718">
        <ele>256.4</ele>
        <time>2026-08-21T11:01:39Z</time>
      </trkpt>
      <trkpt lat="49.10824" lon="4.0171">
        <ele>256</ele>
        <time>2026-08-21T11:01:44Z</time>
      </trkpt>
      <trkpt lat="49.10822" lon="4.01698">
        <ele>255.7</ele>
        <time>2026-08-21T11:01:50Z</time>
      </trkpt>
      <trkpt lat="49.1082" lon="4.01691">
        <ele>255.5</ele>
        <time>2026-08-21T11:01:55Z</time>
      </trkpt>
      <trkpt lat="49.10822" lon="4.01688">
        <ele>255.7</ele>
        <time>2026-08-21T11:02:00Z</time>
      </trkpt>
      <trkpt lat="49.10822" lon="4.01688">
        <ele>255.7</ele>
        <time>2026-08-21T11:02:06Z</time>
      </trkpt>
      <trkpt lat="49.10818" lon="4.01677">
        <ele>255.2</ele>
        <time>2026-08-21T11:02:11Z</time>
      </trkpt>
      <trkpt lat="49.10812" lon="4.01671">
        <ele>254.5</ele>
        <time>2026-08-21T11:02:16Z</time>
      </trkpt>
      <trkpt lat="49.10808" lon="4.01662">
        <ele>254.1</ele>
        <time>2026-08-21T11:02:22Z</time>
      </trkpt>
      <trkpt lat="49.10805" lon="4.01653">
        <ele>254</ele>
        <time>2026-08-21T11:02:27Z</time>
      </trkpt>
      <trkpt lat="49.10802" lon="4.01643">
        <ele>254</ele>
        <time>2026-08-21T11:02:32Z</time>
      </trkpt>
      <trkpt lat="49.10798" lon="4.01632">
        <ele>253.8</ele>
        <time>2026-08-21T11:02:38Z</time>
      </trkpt>
      <trkpt lat="49.10795" lon="4.01622">
        <ele>253.8</ele>
        <time>2026-08-21T11:02:43Z</time>
      </trkpt>
      <trkpt lat="49.10792" lon="4.0161">
        <ele>253.7</ele>
        <time>2026-08-21T11:02:48Z</time>
      </trkpt>
      <trkpt lat="49.10788" lon="4.01597">
        <ele>253.6</ele>
        <time>2026-08-21T11:02:54Z</time>
      </trkpt>
      <trkpt lat="49.10784" lon="4.01588">
        <ele>253.4</ele>
        <time>2026-08-21T11:02:59Z</time>
      </trkpt>
      <trkpt lat="49.10782" lon="4.01579">
        <ele>253.5</ele>
        <time>2026-08-21T11:03:04Z</time>
      </trkpt>
      <trkpt lat="49.1078" lon="4.0157">
        <ele>253.8</ele>
        <time>2026-08-21T11:03:10Z</time>
      </trkpt>
      <trkpt lat="49.10778" lon="4.01566">
        <ele>253.7</ele>
        <time>2026-08-21T11:03:15Z</time>
      </trkpt>
      <trkpt lat="49.10777" lon="4.01564">
        <ele>253.7</ele>
        <time>2026-08-21T11:03:20Z</time>
      </trkpt>
      <trkpt lat="49.10777" lon="4.01564">
        <ele>253.7</ele>
        <time>2026-08-21T11:03:26Z</time>
      </trkpt>
      <trkpt lat="49.10777" lon="4.01564">
        <ele>253.7</ele>
        <time>2026-08-21T11:03:31Z</time>
      </trkpt>
      <trkpt lat="49.10775" lon="4.01549">
        <ele>254.4</ele>
        <time>2026-08-21T11:03:36Z</time>
      </trkpt>
      <trkpt lat="49.10772" lon="4.0154">
        <ele>254.5</ele>
        <time>2026-08-21T11:03:42Z</time>
      </trkpt>
      <trkpt lat="49.10769" lon="4.01532">
        <ele>254.6</ele>
        <time>2026-08-21T11:03:47Z</time>
      </trkpt>
      <trkpt lat="49.10765" lon="4.01527">
        <ele>254.4</ele>
        <time>2026-08-21T11:03:52Z</time>
      </trkpt>
      <trkpt lat="49.10764" lon="4.01527">
        <ele>254.2</ele>
        <time>2026-08-21T11:03:58Z</time>
      </trkpt>
      <trkpt lat="49.10764" lon="4.01527">
        <ele>254.2</ele>
        <time>2026-08-21T11:04:03Z</time>
      </trkpt>
      <trkpt lat="49.10762" lon="4.01518">
        <ele>254.5</ele>
        <time>2026-08-21T11:04:08Z</time>
      </trkpt>
      <trkpt lat="49.1076" lon="4.01508">
        <ele>254.8</ele>
        <time>2026-08-21T11:04:14Z</time>
      </trkpt>
      <trkpt lat="49.10757" lon="4.01499">
        <ele>255</ele>
        <time>2026-08-21T11:04:19Z</time>
      </trkpt>
      <trkpt lat="49.10753" lon="4.0149">
        <ele>255.1</ele>
        <time>2026-08-21T11:04:24Z</time>
      </trkpt>
      <trkpt lat="49.10751" lon="4.01482">
        <ele>255.4</ele>
        <time>2026-08-21T11:04:30Z</time>
      </trkpt>
      <trkpt lat="49.10748" lon="4.01473">
        <ele>256</ele>
        <time>2026-08-21T11:04:35Z</time>
      </trkpt>
      <trkpt lat="49.10743" lon="4.01466">
        <ele>256.7</ele>
        <time>2026-08-21T11:04:40Z</time>
      </trkpt>
      <trkpt lat="49.1074" lon="4.01453">
        <ele>257.7</ele>
        <time>2026-08-21T11:04:46Z</time>
      </trkpt>
      <trkpt lat="49.10738" lon="4.01441">
        <ele>258.7</ele>
        <time>2026-08-21T11:04:51Z</time>
      </trkpt>
      <trkpt lat="49.10733" lon="4.01433">
        <ele>259.4</ele>
        <time>2026-08-21T11:04:56Z</time>
      </trkpt>
      <trkpt lat="49.10732" lon="4.01422">
        <ele>260.3</ele>
        <time>2026-08-21T11:05:02Z</time>
      </trkpt>
      <trkpt lat="49.10728" lon="4.01415">
        <ele>261</ele>
        <time>2026-08-21T11:05:07Z</time>
      </trkpt>
      <trkpt lat="49.10726" lon="4.01406">
        <ele>261.9</ele>
        <time>2026-08-21T11:05:12Z</time>
      </trkpt>
      <trkpt lat="49.10721" lon="4.01396">
        <ele>263</ele>
        <time>2026-08-21T11:05:18Z</time>
      </trkpt>
      <trkpt lat="49.10717" lon="4.01388">
        <ele>263.9</ele>
        <time>2026-08-21T11:05:23Z</time>
      </trkpt>
      <trkpt lat="49.10711" lon="4.01383">
        <ele>264.6</ele>
        <time>2026-08-21T11:05:28Z</time>
      </trkpt>
      <trkpt lat="49.10706" lon="4.01378">
        <ele>265.3</ele>
        <time>2026-08-21T11:05:34Z</time>
      </trkpt>
      <trkpt lat="49.10706" lon="4.01376">
        <ele>265.5</ele>
        <time>2026-08-21T11:05:39Z</time>
      </trkpt>
      <trkpt lat="49.10706" lon="4.01376">
        <ele>265.5</ele>
        <time>2026-08-21T11:05:44Z</time>
      </trkpt>
      <trkpt lat="49.10701" lon="4.01374">
        <ele>265.9</ele>
        <time>2026-08-21T11:05:50Z</time>
      </trkpt>
      <trkpt lat="49.10697" lon="4.01371">
        <ele>266.3</ele>
        <time>2026-08-21T11:05:55Z</time>
      </trkpt>
      <trkpt lat="49.1069" lon="4.01368">
        <ele>266.8</ele>
        <time>2026-08-21T11:06:00Z</time>
      </trkpt>
      <trkpt lat="49.10682" lon="4.01365">
        <ele>267.4</ele>
        <time>2026-08-21T11:06:06Z</time>
      </trkpt>
      <trkpt lat="49.1068" lon="4.01363">
        <ele>267.7</ele>
        <time>2026-08-21T11:06:11Z</time>
      </trkpt>
      <trkpt lat="49.10677" lon="4.0136">
        <ele>268.1</ele>
        <time>2026-08-21T11:06:16Z</time>
      </trkpt>
      <trkpt lat="49.10668" lon="4.01362">
        <ele>268.2</ele>
        <time>2026-08-21T11:06:22Z</time>
      </trkpt>
      <trkpt lat="49.10663" lon="4.01361">
        <ele>268.1</ele>
        <time>2026-08-21T11:06:27Z</time>
      </trkpt>
      <trkpt lat="49.10661" lon="4.0136">
        <ele>268</ele>
        <time>2026-08-21T11:06:32Z</time>
      </trkpt>
      <trkpt lat="49.10654" lon="4.01358">
        <ele>267.6</ele>
        <time>2026-08-21T11:06:38Z</time>
      </trkpt>
      <trkpt lat="49.10647" lon="4.01359">
        <ele>266.9</ele>
        <time>2026-08-21T11:06:43Z</time>
      </trkpt>
      <trkpt lat="49.10641" lon="4.0136">
        <ele>266.4</ele>
        <time>2026-08-21T11:06:48Z</time>
      </trkpt>
      <trkpt lat="49.10633" lon="4.01359">
        <ele>265.8</ele>
        <time>2026-08-21T11:06:54Z</time>
      </trkpt>
      <trkpt lat="49.10627" lon="4.01361">
        <ele>265.2</ele>
        <time>2026-08-21T11:06:59Z</time>
      </trkpt>
      <trkpt lat="49.10623" lon="4.01363">
        <ele>264.7</ele>
        <time>2026-08-21T11:07:04Z</time>
      </trkpt>
      <trkpt lat="49.10615" lon="4.01364">
        <ele>264</ele>
        <time>2026-08-21T11:07:10Z</time>
      </trkpt>
      <trkpt lat="49.10609" lon="4.01364">
        <ele>263.5</ele>
        <time>2026-08-21T11:07:15Z</time>
      </trkpt>
      <trkpt lat="49.10605" lon="4.01365">
        <ele>263.2</ele>
        <time>2026-08-21T11:07:20Z</time>
      </trkpt>
      <trkpt lat="49.10596" lon="4.01368">
        <ele>262.3</ele>
        <time>2026-08-21T11:07:26Z</time>
      </trkpt>
      <trkpt lat="49.10589" lon="4.01371">
        <ele>261.6</ele>
        <time>2026-08-21T11:07:31Z</time>
      </trkpt>
      <trkpt lat="49.10583" lon="4.01374">
        <ele>261.1</ele>
        <time>2026-08-21T11:07:36Z</time>
      </trkpt>
      <trkpt lat="49.10575" lon="4.0138">
        <ele>261</ele>
        <time>2026-08-21T11:07:42Z</time>
      </trkpt>
      <trkpt lat="49.10569" lon="4.01383">
        <ele>261.1</ele>
        <time>2026-08-21T11:07:47Z</time>
      </trkpt>
      <trkpt lat="49.10562" lon="4.01386">
        <ele>261.2</ele>
        <time>2026-08-21T11:07:52Z</time>
      </trkpt>
      <trkpt lat="49.10555" lon="4.0139">
        <ele>261.2</ele>
        <time>2026-08-21T11:07:58Z</time>
      </trkpt>
      <trkpt lat="49.1055" lon="4.01392">
        <ele>261.2</ele>
        <time>2026-08-21T11:08:03Z</time>
      </trkpt>
      <trkpt lat="49.10545" lon="4.01392">
        <ele>261.4</ele>
        <time>2026-08-21T11:08:08Z</time>
      </trkpt>
      <trkpt lat="49.10538" lon="4.01392">
        <ele>261.6</ele>
        <time>2026-08-21T11:08:14Z</time>
      </trkpt>
      <trkpt lat="49.1053" lon="4.01393">
        <ele>261.8</ele>
        <time>2026-08-21T11:08:19Z</time>
      </trkpt>
      <trkpt lat="49.10523" lon="4.01396">
        <ele>261.8</ele>
        <time>2026-08-21T11:08:24Z</time>
      </trkpt>
      <trkpt lat="49.10519" lon="4.01394">
        <ele>262.1</ele>
        <time>2026-08-21T11:08:30Z</time>
      </trkpt>
      <trkpt lat="49.10513" lon="4.01393">
        <ele>262.3</ele>
        <time>2026-08-21T11:08:35Z</time>
      </trkpt>
      <trkpt lat="49.10504" lon="4.01393">
        <ele>262.6</ele>
        <time>2026-08-21T11:08:40Z</time>
      </trkpt>
      <trkpt lat="49.10496" lon="4.01391">
        <ele>262.8</ele>
        <time>2026-08-21T11:08:46Z</time>
      </trkpt>
      <trkpt lat="49.10489" lon="4.0139">
        <ele>262.8</ele>
        <time>2026-08-21T11:08:51Z</time>
      </trkpt>
      <trkpt lat="49.10484" lon="4.01391">
        <ele>262.6</ele>
        <time>2026-08-21T11:08:56Z</time>
      </trkpt>
      <trkpt lat="49.10477" lon="4.0139">
        <ele>262.6</ele>
        <time>2026-08-21T11:09:02Z</time>
      </trkpt>
      <trkpt lat="49.10475" lon="4.01388">
        <ele>262.8</ele>
        <time>2026-08-21T11:09:07Z</time>
      </trkpt>
      <trkpt lat="49.10475" lon="4.01387">
        <ele>262.9</ele>
        <time>2026-08-21T11:09:12Z</time>
      </trkpt>
      <trkpt lat="49.10475" lon="4.01387">
        <ele>262.9</ele>
        <time>2026-08-21T11:09:18Z</time>
      </trkpt>
      <trkpt lat="49.10475" lon="4.01387">
        <ele>262.9</ele>
        <time>2026-08-21T11:09:23Z</time>
      </trkpt>
      <trkpt lat="49.10475" lon="4.01387">
        <ele>262.9</ele>
        <time>2026-08-21T11:09:28Z</time>
      </trkpt>
      <trkpt lat="49.10466" lon="4.01388">
        <ele>262.7</ele>
        <time>2026-08-21T11:09:34Z</time>
      </trkpt>
      <trkpt lat="49.10459" lon="4.01386">
        <ele>262.8</ele>
        <time>2026-08-21T11:09:39Z</time>
      </trkpt>
      <trkpt lat="49.10453" lon="4.01386">
        <ele>262.7</ele>
        <time>2026-08-21T11:09:44Z</time>
      </trkpt>
      <trkpt lat="49.1045" lon="4.01385">
        <ele>262.8</ele>
        <time>2026-08-21T11:09:50Z</time>
      </trkpt>
      <trkpt lat="49.1045" lon="4.01385">
        <ele>262.8</ele>
        <time>2026-08-21T11:09:55Z</time>
      </trkpt>
      <trkpt lat="49.1045" lon="4.01385">
        <ele>262.8</ele>
        <time>2026-08-21T11:10:00Z</time>
      </trkpt>
      <trkpt lat="49.1045" lon="4.01385">
        <ele>262.8</ele>
        <time>2026-08-21T11:10:06Z</time>
      </trkpt>
      <trkpt lat="49.1045" lon="4.01385">
        <ele>262.8</ele>
        <time>2026-08-21T11:10:11Z</time>
      </trkpt>
      <trkpt lat="49.1045" lon="4.01385">
        <ele>262.8</ele>
        <time>2026-08-21T11:10:16Z</time>
      </trkpt>
      <trkpt lat="49.1045" lon="4.01385">
        <ele>262.8</ele>
        <time>2026-08-21T11:10:22Z</time>
      </trkpt>
      <trkpt lat="49.10448" lon="4.01385">
        <ele>262.7</ele>
        <time>2026-08-21T11:10:27Z</time>
      </trkpt>
      <trkpt lat="49.10444" lon="4.01386">
        <ele>262.6</ele>
        <time>2026-08-21T11:10:32Z</time>
      </trkpt>
      <trkpt lat="49.10438" lon="4.01386">
        <ele>262.5</ele>
        <time>2026-08-21T11:10:38Z</time>
      </trkpt>
      <trkpt lat="49.10437" lon="4.01386">
        <ele>262.5</ele>
        <time>2026-08-21T11:10:43Z</time>
      </trkpt>
      <trkpt lat="49.10433" lon="4.01385">
        <ele>262.6</ele>
        <time>2026-08-21T11:10:48Z</time>
      </trkpt>
      <trkpt lat="49.10432" lon="4.01384">
        <ele>262.7</ele>
        <time>2026-08-21T11:10:54Z</time>
      </trkpt>
      <trkpt lat="49.10432" lon="4.01384">
        <ele>262.7</ele>
        <time>2026-08-21T11:10:59Z</time>
      </trkpt>
      <trkpt lat="49.10432" lon="4.01384">
        <ele>262.7</ele>
        <time>2026-08-21T11:11:04Z</time>
      </trkpt>
      <trkpt lat="49.10432" lon="4.01384">
        <ele>262.7</ele>
        <time>2026-08-21T11:11:10Z</time>
      </trkpt>
      <trkpt lat="49.10432" lon="4.01384">
        <ele>262.7</ele>
        <time>2026-08-21T11:11:15Z</time>
      </trkpt>
      <trkpt lat="49.10432" lon="4.01384">
        <ele>262.7</ele>
        <time>2026-08-21T11:11:20Z</time>
      </trkpt>
      <trkpt lat="49.10428" lon="4.01385">
        <ele>262.5</ele>
        <time>2026-08-21T11:11:26Z</time>
      </trkpt>
      <trkpt lat="49.10424" lon="4.01386">
        <ele>262.4</ele>
        <time>2026-08-21T11:11:31Z</time>
      </trkpt>
      <trkpt lat="49.10418" lon="4.01385">
        <ele>262.4</ele>
        <time>2026-08-21T11:11:36Z</time>
      </trkpt>
      <trkpt lat="49.10411" lon="4.01385">
        <ele>262.2</ele>
        <time>2026-08-21T11:11:42Z</time>
      </trkpt>
      <trkpt lat="49.10406" lon="4.01383">
        <ele>262.2</ele>
        <time>2026-08-21T11:11:47Z</time>
      </trkpt>
      <trkpt lat="49.104" lon="4.01383">
        <ele>262</ele>
        <time>2026-08-21T11:11:52Z</time>
      </trkpt>
      <trkpt lat="49.10392" lon="4.01383">
        <ele>261.7</ele>
        <time>2026-08-21T11:11:58Z</time>
      </trkpt>
      <trkpt lat="49.10386" lon="4.01383">
        <ele>261.5</ele>
        <time>2026-08-21T11:12:03Z</time>
      </trkpt>
      <trkpt lat="49.1038" lon="4.01382">
        <ele>261.3</ele>
        <time>2026-08-21T11:12:08Z</time>
      </trkpt>
      <trkpt lat="49.10373" lon="4.0138">
        <ele>261.2</ele>
        <time>2026-08-21T11:12:14Z</time>
      </trkpt>
      <trkpt lat="49.10368" lon="4.0138">
        <ele>261</ele>
        <time>2026-08-21T11:12:19Z</time>
      </trkpt>
      <trkpt lat="49.10362" lon="4.0138">
        <ele>260.8</ele>
        <time>2026-08-21T11:12:24Z</time>
      </trkpt>
      <trkpt lat="49.10355" lon="4.0138">
        <ele>260.5</ele>
        <time>2026-08-21T11:12:30Z</time>
      </trkpt>
      <trkpt lat="49.10348" lon="4.01379">
        <ele>260.3</ele>
        <time>2026-08-21T11:12:35Z</time>
      </trkpt>
      <trkpt lat="49.10342" lon="4.01378">
        <ele>260.1</ele>
        <time>2026-08-21T11:12:40Z</time>
      </trkpt>
      <trkpt lat="49.10334" lon="4.01378">
        <ele>259.8</ele>
        <time>2026-08-21T11:12:46Z</time>
      </trkpt>
      <trkpt lat="49.10328" lon="4.01378">
        <ele>259.7</ele>
        <time>2026-08-21T11:12:51Z</time>
      </trkpt>
      <trkpt lat="49.10322" lon="4.01378">
        <ele>259.6</ele>
        <time>2026-08-21T11:12:56Z</time>
      </trkpt>
      <trkpt lat="49.10321" lon="4.01375">
        <ele>259.9</ele>
        <time>2026-08-21T11:13:02Z</time>
      </trkpt>
      <trkpt lat="49.1032" lon="4.01374">
        <ele>259.9</ele>
        <time>2026-08-21T11:13:07Z</time>
      </trkpt>
      <trkpt lat="49.10315" lon="4.01374">
        <ele>259.9</ele>
        <time>2026-08-21T11:13:12Z</time>
      </trkpt>
      <trkpt lat="49.10309" lon="4.01375">
        <ele>259.7</ele>
        <time>2026-08-21T11:13:18Z</time>
      </trkpt>
      <trkpt lat="49.10302" lon="4.01375">
        <ele>259.6</ele>
        <time>2026-08-21T11:13:23Z</time>
      </trkpt>
      <trkpt lat="49.10296" lon="4.01374">
        <ele>259.6</ele>
        <time>2026-08-21T11:13:28Z</time>
      </trkpt>
      <trkpt lat="49.10289" lon="4.01375">
        <ele>259.5</ele>
        <time>2026-08-21T11:13:34Z</time>
      </trkpt>
      <trkpt lat="49.10282" lon="4.01374">
        <ele>259.5</ele>
        <time>2026-08-21T11:13:39Z</time>
      </trkpt>
      <trkpt lat="49.10275" lon="4.01374">
        <ele>259.4</ele>
        <time>2026-08-21T11:13:44Z</time>
      </trkpt>
      <trkpt lat="49.10267" lon="4.01373">
        <ele>259.3</ele>
        <time>2026-08-21T11:13:50Z</time>
      </trkpt>
      <trkpt lat="49.10261" lon="4.01373">
        <ele>259.3</ele>
        <time>2026-08-21T11:13:55Z</time>
      </trkpt>
      <trkpt lat="49.10254" lon="4.01372">
        <ele>259.3</ele>
        <time>2026-08-21T11:14:00Z</time>
      </trkpt>
      <trkpt lat="49.10246" lon="4.01372">
        <ele>259</ele>
        <time>2026-08-21T11:14:06Z</time>
      </trkpt>
      <trkpt lat="49.1024" lon="4.01372">
        <ele>258.7</ele>
        <time>2026-08-21T11:14:11Z</time>
      </trkpt>
      <trkpt lat="49.10233" lon="4.01372">
        <ele>258.3</ele>
        <time>2026-08-21T11:14:16Z</time>
      </trkpt>
      <trkpt lat="49.10224" lon="4.01371">
        <ele>257.9</ele>
        <time>2026-08-21T11:14:22Z</time>
      </trkpt>
      <trkpt lat="49.10218" lon="4.0137">
        <ele>257.6</ele>
        <time>2026-08-21T11:14:27Z</time>
      </trkpt>
      <trkpt lat="49.10212" lon="4.01368">
        <ele>257.4</ele>
        <time>2026-08-21T11:14:32Z</time>
      </trkpt>
      <trkpt lat="49.10205" lon="4.01368">
        <ele>257</ele>
        <time>2026-08-21T11:14:38Z</time>
      </trkpt>
      <trkpt lat="49.102" lon="4.01368">
        <ele>256.8</ele>
        <time>2026-08-21T11:14:43Z</time>
      </trkpt>
      <trkpt lat="49.10195" lon="4.01366">
        <ele>256.6</ele>
        <time>2026-08-21T11:14:48Z</time>
      </trkpt>
      <trkpt lat="49.1019" lon="4.01362">
        <ele>256.6</ele>
        <time>2026-08-21T11:14:54Z</time>
      </trkpt>
      <trkpt lat="49.10183" lon="4.01359">
        <ele>256.4</ele>
        <time>2026-08-21T11:14:59Z</time>
      </trkpt>
      <trkpt lat="49.10177" lon="4.01357">
        <ele>256.2</ele>
        <time>2026-08-21T11:15:04Z</time>
      </trkpt>
      <trkpt lat="49.10169" lon="4.01355">
        <ele>255.8</ele>
        <time>2026-08-21T11:15:10Z</time>
      </trkpt>
      <trkpt lat="49.10162" lon="4.01352">
        <ele>255.7</ele>
        <time>2026-08-21T11:15:15Z</time>
      </trkpt>
      <trkpt lat="49.10156" lon="4.01348">
        <ele>255.7</ele>
        <time>2026-08-21T11:15:20Z</time>
      </trkpt>
      <trkpt lat="49.10147" lon="4.01343">
        <ele>255.5</ele>
        <time>2026-08-21T11:15:26Z</time>
      </trkpt>
      <trkpt lat="49.10141" lon="4.0134">
        <ele>255.4</ele>
        <time>2026-08-21T11:15:31Z</time>
      </trkpt>
      <trkpt lat="49.10135" lon="4.01338">
        <ele>255.2</ele>
        <time>2026-08-21T11:15:36Z</time>
      </trkpt>
      <trkpt lat="49.1013" lon="4.01335">
        <ele>255.2</ele>
        <time>2026-08-21T11:15:42Z</time>
      </trkpt>
      <trkpt lat="49.10125" lon="4.01331">
        <ele>255.1</ele>
        <time>2026-08-21T11:15:47Z</time>
      </trkpt>
      <trkpt lat="49.10118" lon="4.01328">
        <ele>254.9</ele>
        <time>2026-08-21T11:15:52Z</time>
      </trkpt>
      <trkpt lat="49.1011" lon="4.01324">
        <ele>254.7</ele>
        <time>2026-08-21T11:15:58Z</time>
      </trkpt>
      <trkpt lat="49.10103" lon="4.01318">
        <ele>254.7</ele>
        <time>2026-08-21T11:16:03Z</time>
      </trkpt>
      <trkpt lat="49.10097" lon="4.01316">
        <ele>254.5</ele>
        <time>2026-08-21T11:16:08Z</time>
      </trkpt>
      <trkpt lat="49.10089" lon="4.01313">
        <ele>254.2</ele>
        <time>2026-08-21T11:16:14Z</time>
      </trkpt>
      <trkpt lat="49.10082" lon="4.0131">
        <ele>254.2</ele>
        <time>2026-08-21T11:16:19Z</time>
      </trkpt>
      <trkpt lat="49.10076" lon="4.01306">
        <ele>254.8</ele>
        <time>2026-08-21T11:16:24Z</time>
      </trkpt>
      <trkpt lat="49.10068" lon="4.01302">
        <ele>255.4</ele>
        <time>2026-08-21T11:16:30Z</time>
      </trkpt>
      <trkpt lat="49.10061" lon="4.01299">
        <ele>256</ele>
        <time>2026-08-21T11:16:35Z</time>
      </trkpt>
      <trkpt lat="49.10054" lon="4.01296">
        <ele>256.6</ele>
        <time>2026-08-21T11:16:40Z</time>
      </trkpt>
      <trkpt lat="49.10048" lon="4.01293">
        <ele>257.1</ele>
        <time>2026-08-21T11:16:46Z</time>
      </trkpt>
      <trkpt lat="49.10041" lon="4.01291">
        <ele>257.6</ele>
        <time>2026-08-21T11:16:51Z</time>
      </trkpt>
      <trkpt lat="49.10039" lon="4.01288">
        <ele>257.8</ele>
        <time>2026-08-21T11:16:56Z</time>
      </trkpt>
      <trkpt lat="49.10038" lon="4.01289">
        <ele>257.8</ele>
        <time>2026-08-21T11:17:02Z</time>
      </trkpt>
      <trkpt lat="49.10038" lon="4.01289">
        <ele>257.8</ele>
        <time>2026-08-21T11:17:07Z</time>
      </trkpt>
      <trkpt lat="49.10038" lon="4.01289">
        <ele>257.8</ele>
        <time>2026-08-21T11:17:12Z</time>
      </trkpt>
      <trkpt lat="49.10038" lon="4.01289">
        <ele>257.8</ele>
        <time>2026-08-21T11:17:18Z</time>
      </trkpt>
      <trkpt lat="49.10038" lon="4.01289">
        <ele>257.8</ele>
        <time>2026-08-21T11:17:23Z</time>
      </trkpt>
      <trkpt lat="49.10038" lon="4.01289">
        <ele>257.8</ele>
        <time>2026-08-21T11:17:28Z</time>
      </trkpt>
      <trkpt lat="49.10038" lon="4.01289">
        <ele>257.8</ele>
        <time>2026-08-21T11:17:34Z</time>
      </trkpt>
      <trkpt lat="49.10038" lon="4.01289">
        <ele>257.8</ele>
        <time>2026-08-21T11:17:39Z</time>
      </trkpt>
      <trkpt lat="49.10038" lon="4.01289">
        <ele>257.8</ele>
        <time>2026-08-21T11:17:44Z</time>
      </trkpt>
      <trkpt lat="49.10038" lon="4.01289">
        <ele>257.8</ele>
        <time>2026-08-21T11:17:50Z</time>
      </trkpt>
      <trkpt lat="49.10038" lon="4.01289">
        <ele>257.8</ele>
        <time>2026-08-21T11:17:55Z</time>
      </trkpt>
      <trkpt lat="49.10038" lon="4.01289">
        <ele>257.8</ele>
        <time>2026-08-21T11:18:00Z</time>
      </trkpt>
      <trkpt lat="49.10032" lon="4.01284">
        <ele>258.4</ele>
        <time>2026-08-21T11:18:06Z</time>
      </trkpt>
      <trkpt lat="49.10027" lon="4.01282">
        <ele>258.8</ele>
        <time>2026-08-21T11:18:11Z</time>
      </trkpt>
      <trkpt lat="49.10021" lon="4.0128">
        <ele>259.3</ele>
        <time>2026-08-21T11:18:16Z</time>
      </trkpt>
      <trkpt lat="49.10014" lon="4.01276">
        <ele>259.9</ele>
        <time>2026-08-21T11:18:22Z</time>
      </trkpt>
      <trkpt lat="49.10007" lon="4.01274">
        <ele>260.4</ele>
        <time>2026-08-21T11:18:27Z</time>
      </trkpt>
      <trkpt lat="49.10002" lon="4.0127">
        <ele>260.9</ele>
        <time>2026-08-21T11:18:32Z</time>
      </trkpt>
      <trkpt lat="49.09995" lon="4.01266">
        <ele>261.2</ele>
        <time>2026-08-21T11:18:38Z</time>
      </trkpt>
      <trkpt lat="49.09988" lon="4.01265">
        <ele>261.2</ele>
        <time>2026-08-21T11:18:43Z</time>
      </trkpt>
      <trkpt lat="49.09982" lon="4.01262">
        <ele>261.3</ele>
        <time>2026-08-21T11:18:48Z</time>
      </trkpt>
      <trkpt lat="49.09974" lon="4.01261">
        <ele>261.3</ele>
        <time>2026-08-21T11:18:54Z</time>
      </trkpt>
      <trkpt lat="49.09968" lon="4.01259">
        <ele>261.3</ele>
        <time>2026-08-21T11:18:59Z</time>
      </trkpt>
      <trkpt lat="49.09962" lon="4.01258">
        <ele>261.3</ele>
        <time>2026-08-21T11:19:04Z</time>
      </trkpt>
      <trkpt lat="49.09955" lon="4.01258">
        <ele>261.2</ele>
        <time>2026-08-21T11:19:10Z</time>
      </trkpt>
      <trkpt lat="49.0995" lon="4.01258">
        <ele>261.2</ele>
        <time>2026-08-21T11:19:15Z</time>
      </trkpt>
      <trkpt lat="49.09945" lon="4.01258">
        <ele>261.1</ele>
        <time>2026-08-21T11:19:20Z</time>
      </trkpt>
      <trkpt lat="49.09938" lon="4.01261">
        <ele>261</ele>
        <time>2026-08-21T11:19:26Z</time>
      </trkpt>
      <trkpt lat="49.09931" lon="4.01262">
        <ele>261</ele>
        <time>2026-08-21T11:19:31Z</time>
      </trkpt>
      <trkpt lat="49.09925" lon="4.01263">
        <ele>260.9</ele>
        <time>2026-08-21T11:19:36Z</time>
      </trkpt>
      <trkpt lat="49.09919" lon="4.01261">
        <ele>260.9</ele>
        <time>2026-08-21T11:19:42Z</time>
      </trkpt>
      <trkpt lat="49.09913" lon="4.0126">
        <ele>260.8</ele>
        <time>2026-08-21T11:19:47Z</time>
      </trkpt>
      <trkpt lat="49.09907" lon="4.01255">
        <ele>260.7</ele>
        <time>2026-08-21T11:19:52Z</time>
      </trkpt>
      <trkpt lat="49.09896" lon="4.0125">
        <ele>260.5</ele>
        <time>2026-08-21T11:19:58Z</time>
      </trkpt>
      <trkpt lat="49.0989" lon="4.01247">
        <ele>260.4</ele>
        <time>2026-08-21T11:20:03Z</time>
      </trkpt>
      <trkpt lat="49.09885" lon="4.01246">
        <ele>260.3</ele>
        <time>2026-08-21T11:20:08Z</time>
      </trkpt>
      <trkpt lat="49.09877" lon="4.01247">
        <ele>260.1</ele>
        <time>2026-08-21T11:20:14Z</time>
      </trkpt>
      <trkpt lat="49.0987" lon="4.01247">
        <ele>259.9</ele>
        <time>2026-08-21T11:20:19Z</time>
      </trkpt>
      <trkpt lat="49.09866" lon="4.01247">
        <ele>259.8</ele>
        <time>2026-08-21T11:20:24Z</time>
      </trkpt>
      <trkpt lat="49.09864" lon="4.01248">
        <ele>259.7</ele>
        <time>2026-08-21T11:20:30Z</time>
      </trkpt>
      <trkpt lat="49.09864" lon="4.01248">
        <ele>259.7</ele>
        <time>2026-08-21T11:20:35Z</time>
      </trkpt>
      <trkpt lat="49.09864" lon="4.01248">
        <ele>259.7</ele>
        <time>2026-08-21T11:20:40Z</time>
      </trkpt>
      <trkpt lat="49.09864" lon="4.01249">
        <ele>259.7</ele>
        <time>2026-08-21T11:20:46Z</time>
      </trkpt>
      <trkpt lat="49.09862" lon="4.01249">
        <ele>259.7</ele>
        <time>2026-08-21T11:20:51Z</time>
      </trkpt>
      <trkpt lat="49.09855" lon="4.01251">
        <ele>259.5</ele>
        <time>2026-08-21T11:20:56Z</time>
      </trkpt>
      <trkpt lat="49.09848" lon="4.01252">
        <ele>259.3</ele>
        <time>2026-08-21T11:21:02Z</time>
      </trkpt>
      <trkpt lat="49.09842" lon="4.01255">
        <ele>259.2</ele>
        <time>2026-08-21T11:21:07Z</time>
      </trkpt>
      <trkpt lat="49.09835" lon="4.01255">
        <ele>259</ele>
        <time>2026-08-21T11:21:12Z</time>
      </trkpt>
      <trkpt lat="49.09829" lon="4.01256">
        <ele>258.9</ele>
        <time>2026-08-21T11:21:18Z</time>
      </trkpt>
      <trkpt lat="49.09823" lon="4.01259">
        <ele>258.8</ele>
        <time>2026-08-21T11:21:23Z</time>
      </trkpt>
      <trkpt lat="49.09816" lon="4.01259">
        <ele>258.6</ele>
        <time>2026-08-21T11:21:28Z</time>
      </trkpt>
      <trkpt lat="49.09809" lon="4.01261">
        <ele>258.5</ele>
        <time>2026-08-21T11:21:34Z</time>
      </trkpt>
      <trkpt lat="49.09803" lon="4.01262">
        <ele>258.3</ele>
        <time>2026-08-21T11:21:39Z</time>
      </trkpt>
      <trkpt lat="49.09798" lon="4.01263">
        <ele>258.2</ele>
        <time>2026-08-21T11:21:44Z</time>
      </trkpt>
      <trkpt lat="49.09794" lon="4.01263">
        <ele>258.1</ele>
        <time>2026-08-21T11:21:50Z</time>
      </trkpt>
      <trkpt lat="49.09789" lon="4.01265">
        <ele>258</ele>
        <time>2026-08-21T11:21:55Z</time>
      </trkpt>
      <trkpt lat="49.09784" lon="4.01267">
        <ele>257.9</ele>
        <time>2026-08-21T11:22:00Z</time>
      </trkpt>
      <trkpt lat="49.09777" lon="4.01271">
        <ele>257.8</ele>
        <time>2026-08-21T11:22:06Z</time>
      </trkpt>
      <trkpt lat="49.09772" lon="4.01274">
        <ele>257.7</ele>
        <time>2026-08-21T11:22:11Z</time>
      </trkpt>
      <trkpt lat="49.09766" lon="4.01276">
        <ele>257.6</ele>
        <time>2026-08-21T11:22:16Z</time>
      </trkpt>
      <trkpt lat="49.09758" lon="4.01278">
        <ele>257.5</ele>
        <time>2026-08-21T11:22:22Z</time>
      </trkpt>
      <trkpt lat="49.09752" lon="4.0128">
        <ele>257.4</ele>
        <time>2026-08-21T11:22:27Z</time>
      </trkpt>
      <trkpt lat="49.09745" lon="4.01283">
        <ele>257.4</ele>
        <time>2026-08-21T11:22:32Z</time>
      </trkpt>
      <trkpt lat="49.09735" lon="4.01284">
        <ele>257.4</ele>
        <time>2026-08-21T11:22:38Z</time>
      </trkpt>
      <trkpt lat="49.09729" lon="4.01285">
        <ele>257.5</ele>
        <time>2026-08-21T11:22:43Z</time>
      </trkpt>
      <trkpt lat="49.09723" lon="4.01288">
        <ele>257.5</ele>
        <time>2026-08-21T11:22:48Z</time>
      </trkpt>
      <trkpt lat="49.09715" lon="4.0129">
        <ele>257.5</ele>
        <time>2026-08-21T11:22:54Z</time>
      </trkpt>
      <trkpt lat="49.09709" lon="4.01292">
        <ele>257.5</ele>
        <time>2026-08-21T11:22:59Z</time>
      </trkpt>
      <trkpt lat="49.09704" lon="4.01296">
        <ele>257.5</ele>
        <time>2026-08-21T11:23:04Z</time>
      </trkpt>
      <trkpt lat="49.09696" lon="4.01299">
        <ele>257.5</ele>
        <time>2026-08-21T11:23:10Z</time>
      </trkpt>
      <trkpt lat="49.09692" lon="4.01301">
        <ele>257.5</ele>
        <time>2026-08-21T11:23:15Z</time>
      </trkpt>
      <trkpt lat="49.09688" lon="4.01304">
        <ele>257.4</ele>
        <time>2026-08-21T11:23:20Z</time>
      </trkpt>
      <trkpt lat="49.09681" lon="4.01307">
        <ele>257.4</ele>
        <time>2026-08-21T11:23:26Z</time>
      </trkpt>
      <trkpt lat="49.09674" lon="4.0131">
        <ele>257.3</ele>
        <time>2026-08-21T11:23:31Z</time>
      </trkpt>
      <trkpt lat="49.09669" lon="4.01312">
        <ele>257.3</ele>
        <time>2026-08-21T11:23:36Z</time>
      </trkpt>
      <trkpt lat="49.09662" lon="4.01316">
        <ele>257.2</ele>
        <time>2026-08-21T11:23:42Z</time>
      </trkpt>
      <trkpt lat="49.09657" lon="4.01318">
        <ele>257.2</ele>
        <time>2026-08-21T11:23:47Z</time>
      </trkpt>
      <trkpt lat="49.09652" lon="4.0132">
        <ele>257.1</ele>
        <time>2026-08-21T11:23:52Z</time>
      </trkpt>
      <trkpt lat="49.09647" lon="4.01321">
        <ele>257.1</ele>
        <time>2026-08-21T11:23:58Z</time>
      </trkpt>
      <trkpt lat="49.09646" lon="4.0132">
        <ele>257.1</ele>
        <time>2026-08-21T11:24:03Z</time>
      </trkpt>
      <trkpt lat="49.09645" lon="4.01319">
        <ele>257.1</ele>
        <time>2026-08-21T11:24:08Z</time>
      </trkpt>
      <trkpt lat="49.09645" lon="4.01319">
        <ele>257.1</ele>
        <time>2026-08-21T11:24:14Z</time>
      </trkpt>
      <trkpt lat="49.09645" lon="4.0131">
        <ele>257.2</ele>
        <time>2026-08-21T11:24:19Z</time>
      </trkpt>
      <trkpt lat="49.09645" lon="4.0131">
        <ele>257.2</ele>
        <time>2026-08-21T11:24:24Z</time>
      </trkpt>
      <trkpt lat="49.09645" lon="4.0131">
        <ele>257.2</ele>
        <time>2026-08-21T11:24:30Z</time>
      </trkpt>
      <trkpt lat="49.09645" lon="4.0131">
        <ele>257.2</ele>
        <time>2026-08-21T11:24:35Z</time>
      </trkpt>
      <trkpt lat="49.09645" lon="4.0131">
        <ele>257.2</ele>
        <time>2026-08-21T11:24:40Z</time>
      </trkpt>
      <trkpt lat="49.09645" lon="4.0131">
        <ele>257.2</ele>
        <time>2026-08-21T11:24:46Z</time>
      </trkpt>
      <trkpt lat="49.09645" lon="4.0131">
        <ele>257.2</ele>
        <time>2026-08-21T11:24:51Z</time>
      </trkpt>
      <trkpt lat="49.09645" lon="4.0131">
        <ele>257.2</ele>
        <time>2026-08-21T11:24:56Z</time>
      </trkpt>
      <trkpt lat="49.09645" lon="4.0131">
        <ele>257.2</ele>
        <time>2026-08-21T11:25:02Z</time>
      </trkpt>
      <trkpt lat="49.0964" lon="4.01314">
        <ele>257.2</ele>
        <time>2026-08-21T11:25:07Z</time>
      </trkpt>
      <trkpt lat="49.09634" lon="4.01317">
        <ele>257.1</ele>
        <time>2026-08-21T11:25:12Z</time>
      </trkpt>
      <trkpt lat="49.09627" lon="4.01319">
        <ele>257.1</ele>
        <time>2026-08-21T11:25:18Z</time>
      </trkpt>
      <trkpt lat="49.09621" lon="4.01321">
        <ele>257.1</ele>
        <time>2026-08-21T11:25:23Z</time>
      </trkpt>
      <trkpt lat="49.09616" lon="4.01323">
        <ele>257</ele>
        <time>2026-08-21T11:25:28Z</time>
      </trkpt>
      <trkpt lat="49.09608" lon="4.01324">
        <ele>257</ele>
        <time>2026-08-21T11:25:34Z</time>
      </trkpt>
      <trkpt lat="49.09602" lon="4.01327">
        <ele>257</ele>
        <time>2026-08-21T11:25:39Z</time>
      </trkpt>
      <trkpt lat="49.09595" lon="4.01328">
        <ele>257</ele>
        <time>2026-08-21T11:25:44Z</time>
      </trkpt>
      <trkpt lat="49.09588" lon="4.01329">
        <ele>257</ele>
        <time>2026-08-21T11:25:50Z</time>
      </trkpt>
      <trkpt lat="49.09582" lon="4.01331">
        <ele>257</ele>
        <time>2026-08-21T11:25:55Z</time>
      </trkpt>
      <trkpt lat="49.09575" lon="4.0133">
        <ele>256.9</ele>
        <time>2026-08-21T11:26:00Z</time>
      </trkpt>
      <trkpt lat="49.09573" lon="4.01329">
        <ele>256.9</ele>
        <time>2026-08-21T11:26:06Z</time>
      </trkpt>
      <trkpt lat="49.09572" lon="4.01328">
        <ele>256.9</ele>
        <time>2026-08-21T11:26:11Z</time>
      </trkpt>
      <trkpt lat="49.09572" lon="4.01328">
        <ele>256.9</ele>
        <time>2026-08-21T11:26:16Z</time>
      </trkpt>
      <trkpt lat="49.09572" lon="4.01328">
        <ele>256.9</ele>
        <time>2026-08-21T11:26:22Z</time>
      </trkpt>
      <trkpt lat="49.0957" lon="4.01327">
        <ele>256.9</ele>
        <time>2026-08-21T11:26:27Z</time>
      </trkpt>
      <trkpt lat="49.09564" lon="4.01327">
        <ele>256.8</ele>
        <time>2026-08-21T11:26:32Z</time>
      </trkpt>
      <trkpt lat="49.09557" lon="4.01328">
        <ele>256.7</ele>
        <time>2026-08-21T11:26:38Z</time>
      </trkpt>
      <trkpt lat="49.09552" lon="4.01329">
        <ele>256.7</ele>
        <time>2026-08-21T11:26:43Z</time>
      </trkpt>
      <trkpt lat="49.09545" lon="4.01329">
        <ele>256.6</ele>
        <time>2026-08-21T11:26:48Z</time>
      </trkpt>
      <trkpt lat="49.09538" lon="4.0133">
        <ele>256.5</ele>
        <time>2026-08-21T11:26:54Z</time>
      </trkpt>
      <trkpt lat="49.09532" lon="4.01329">
        <ele>256.4</ele>
        <time>2026-08-21T11:26:59Z</time>
      </trkpt>
      <trkpt lat="49.09526" lon="4.01329">
        <ele>256.4</ele>
        <time>2026-08-21T11:27:04Z</time>
      </trkpt>
      <trkpt lat="49.09518" lon="4.01327">
        <ele>256.3</ele>
        <time>2026-08-21T11:27:10Z</time>
      </trkpt>
      <trkpt lat="49.09511" lon="4.01326">
        <ele>256.3</ele>
        <time>2026-08-21T11:27:15Z</time>
      </trkpt>
      <trkpt lat="49.09505" lon="4.01323">
        <ele>256.3</ele>
        <time>2026-08-21T11:27:20Z</time>
      </trkpt>
      <trkpt lat="49.09498" lon="4.0132">
        <ele>256.4</ele>
        <time>2026-08-21T11:27:26Z</time>
      </trkpt>
      <trkpt lat="49.09492" lon="4.01322">
        <ele>256.4</ele>
        <time>2026-08-21T11:27:31Z</time>
      </trkpt>
      <trkpt lat="49.09486" lon="4.01325">
        <ele>256.5</ele>
        <time>2026-08-21T11:27:36Z</time>
      </trkpt>
      <trkpt lat="49.09478" lon="4.01328">
        <ele>256.6</ele>
        <time>2026-08-21T11:27:42Z</time>
      </trkpt>
      <trkpt lat="49.09473" lon="4.01329">
        <ele>256.7</ele>
        <time>2026-08-21T11:27:47Z</time>
      </trkpt>
      <trkpt lat="49.09468" lon="4.0133">
        <ele>256.8</ele>
        <time>2026-08-21T11:27:52Z</time>
      </trkpt>
      <trkpt lat="49.0946" lon="4.01331">
        <ele>257</ele>
        <time>2026-08-21T11:27:58Z</time>
      </trkpt>
      <trkpt lat="49.09453" lon="4.01333">
        <ele>257.1</ele>
        <time>2026-08-21T11:28:03Z</time>
      </trkpt>
      <trkpt lat="49.09446" lon="4.01334">
        <ele>257.3</ele>
        <time>2026-08-21T11:28:08Z</time>
      </trkpt>
      <trkpt lat="49.09439" lon="4.01336">
        <ele>257.4</ele>
        <time>2026-08-21T11:28:14Z</time>
      </trkpt>
      <trkpt lat="49.09434" lon="4.01338">
        <ele>257.5</ele>
        <time>2026-08-21T11:28:19Z</time>
      </trkpt>
      <trkpt lat="49.09427" lon="4.01339">
        <ele>257.6</ele>
        <time>2026-08-21T11:28:24Z</time>
      </trkpt>
      <trkpt lat="49.0942" lon="4.01339">
        <ele>257.8</ele>
        <time>2026-08-21T11:28:30Z</time>
      </trkpt>
      <trkpt lat="49.09414" lon="4.01341">
        <ele>257.9</ele>
        <time>2026-08-21T11:28:35Z</time>
      </trkpt>
      <trkpt lat="49.09407" lon="4.01342">
        <ele>258</ele>
        <time>2026-08-21T11:28:40Z</time>
      </trkpt>
      <trkpt lat="49.094" lon="4.01343">
        <ele>258.1</ele>
        <time>2026-08-21T11:28:46Z</time>
      </trkpt>
      <trkpt lat="49.09397" lon="4.01341">
        <ele>258.3</ele>
        <time>2026-08-21T11:28:51Z</time>
      </trkpt>
      <trkpt lat="49.09396" lon="4.01339">
        <ele>258.3</ele>
        <time>2026-08-21T11:28:56Z</time>
      </trkpt>
      <trkpt lat="49.09396" lon="4.0134">
        <ele>258.3</ele>
        <time>2026-08-21T11:29:02Z</time>
      </trkpt>
      <trkpt lat="49.09396" lon="4.0134">
        <ele>258.3</ele>
        <time>2026-08-21T11:29:07Z</time>
      </trkpt>
      <trkpt lat="49.09396" lon="4.0134">
        <ele>258.3</ele>
        <time>2026-08-21T11:29:12Z</time>
      </trkpt>
      <trkpt lat="49.09396" lon="4.0134">
        <ele>258.3</ele>
        <time>2026-08-21T11:29:18Z</time>
      </trkpt>
      <trkpt lat="49.09396" lon="4.0134">
        <ele>258.3</ele>
        <time>2026-08-21T11:29:23Z</time>
      </trkpt>
      <trkpt lat="49.09396" lon="4.0134">
        <ele>258.3</ele>
        <time>2026-08-21T11:29:28Z</time>
      </trkpt>
      <trkpt lat="49.09396" lon="4.0134">
        <ele>258.3</ele>
        <time>2026-08-21T11:29:34Z</time>
      </trkpt>
      <trkpt lat="49.09396" lon="4.0134">
        <ele>258.3</ele>
        <time>2026-08-21T11:29:39Z</time>
      </trkpt>
      <trkpt lat="49.09396" lon="4.0134">
        <ele>258.3</ele>
        <time>2026-08-21T11:29:44Z</time>
      </trkpt>
      <trkpt lat="49.09396" lon="4.0134">
        <ele>258.3</ele>
        <time>2026-08-21T11:29:50Z</time>
      </trkpt>
      <trkpt lat="49.09389" lon="4.01339">
        <ele>258.5</ele>
        <time>2026-08-21T11:29:55Z</time>
      </trkpt>
      <trkpt lat="49.09383" lon="4.01343">
        <ele>258.5</ele>
        <time>2026-08-21T11:30:00Z</time>
      </trkpt>
      <trkpt lat="49.09375" lon="4.01345">
        <ele>258.6</ele>
        <time>2026-08-21T11:30:06Z</time>
      </trkpt>
      <trkpt lat="49.09369" lon="4.01348">
        <ele>258.7</ele>
        <time>2026-08-21T11:30:11Z</time>
      </trkpt>
      <trkpt lat="49.09363" lon="4.01349">
        <ele>258.8</ele>
        <time>2026-08-21T11:30:16Z</time>
      </trkpt>
      <trkpt lat="49.09356" lon="4.01353">
        <ele>258.8</ele>
        <time>2026-08-21T11:30:22Z</time>
      </trkpt>
      <trkpt lat="49.09351" lon="4.01355">
        <ele>258.9</ele>
        <time>2026-08-21T11:30:27Z</time>
      </trkpt>
      <trkpt lat="49.0935" lon="4.01354">
        <ele>258.9</ele>
        <time>2026-08-21T11:30:32Z</time>
      </trkpt>
      <trkpt lat="49.09347" lon="4.01354">
        <ele>259</ele>
        <time>2026-08-21T11:30:38Z</time>
      </trkpt>
      <trkpt lat="49.09341" lon="4.01356">
        <ele>259</ele>
        <time>2026-08-21T11:30:43Z</time>
      </trkpt>
      <trkpt lat="49.09335" lon="4.01357">
        <ele>259.1</ele>
        <time>2026-08-21T11:30:48Z</time>
      </trkpt>
      <trkpt lat="49.09327" lon="4.0136">
        <ele>258.9</ele>
        <time>2026-08-21T11:30:54Z</time>
      </trkpt>
      <trkpt lat="49.0932" lon="4.01362">
        <ele>258.6</ele>
        <time>2026-08-21T11:30:59Z</time>
      </trkpt>
      <trkpt lat="49.09315" lon="4.01365">
        <ele>258.3</ele>
        <time>2026-08-21T11:31:04Z</time>
      </trkpt>
      <trkpt lat="49.09306" lon="4.01369">
        <ele>257.9</ele>
        <time>2026-08-21T11:31:10Z</time>
      </trkpt>
      <trkpt lat="49.093" lon="4.01373">
        <ele>257.6</ele>
        <time>2026-08-21T11:31:15Z</time>
      </trkpt>
      <trkpt lat="49.09294" lon="4.01374">
        <ele>257.4</ele>
        <time>2026-08-21T11:31:20Z</time>
      </trkpt>
      <trkpt lat="49.09287" lon="4.01378">
        <ele>257</ele>
        <time>2026-08-21T11:31:26Z</time>
      </trkpt>
      <trkpt lat="49.09279" lon="4.01381">
        <ele>256.6</ele>
        <time>2026-08-21T11:31:31Z</time>
      </trkpt>
      <trkpt lat="49.09273" lon="4.01384">
        <ele>256.3</ele>
        <time>2026-08-21T11:31:36Z</time>
      </trkpt>
      <trkpt lat="49.09267" lon="4.01388">
        <ele>255.9</ele>
        <time>2026-08-21T11:31:42Z</time>
      </trkpt>
      <trkpt lat="49.09261" lon="4.01391">
        <ele>255.6</ele>
        <time>2026-08-21T11:31:47Z</time>
      </trkpt>
      <trkpt lat="49.09254" lon="4.01394">
        <ele>255.2</ele>
        <time>2026-08-21T11:31:52Z</time>
      </trkpt>
      <trkpt lat="49.09251" lon="4.01394">
        <ele>255.1</ele>
        <time>2026-08-21T11:31:58Z</time>
      </trkpt>
      <trkpt lat="49.09249" lon="4.01391">
        <ele>255.2</ele>
        <time>2026-08-21T11:32:03Z</time>
      </trkpt>
      <trkpt lat="49.09243" lon="4.01393">
        <ele>255.1</ele>
        <time>2026-08-21T11:32:08Z</time>
      </trkpt>
      <trkpt lat="49.09236" lon="4.01399">
        <ele>254.8</ele>
        <time>2026-08-21T11:32:14Z</time>
      </trkpt>
      <trkpt lat="49.09229" lon="4.01401">
        <ele>254.8</ele>
        <time>2026-08-21T11:32:19Z</time>
      </trkpt>
      <trkpt lat="49.09223" lon="4.01401">
        <ele>254.8</ele>
        <time>2026-08-21T11:32:24Z</time>
      </trkpt>
      <trkpt lat="49.09221" lon="4.01402">
        <ele>254.7</ele>
        <time>2026-08-21T11:32:30Z</time>
      </trkpt>
      <trkpt lat="49.09219" lon="4.01401">
        <ele>254.8</ele>
        <time>2026-08-21T11:32:35Z</time>
      </trkpt>
      <trkpt lat="49.09214" lon="4.01401">
        <ele>254.8</ele>
        <time>2026-08-21T11:32:40Z</time>
      </trkpt>
      <trkpt lat="49.09207" lon="4.014">
        <ele>254.8</ele>
        <time>2026-08-21T11:32:46Z</time>
      </trkpt>
      <trkpt lat="49.092" lon="4.014">
        <ele>254.8</ele>
        <time>2026-08-21T11:32:51Z</time>
      </trkpt>
      <trkpt lat="49.09194" lon="4.01403">
        <ele>254.7</ele>
        <time>2026-08-21T11:32:56Z</time>
      </trkpt>
      <trkpt lat="49.09187" lon="4.01408">
        <ele>254.4</ele>
        <time>2026-08-21T11:33:02Z</time>
      </trkpt>
      <trkpt lat="49.09181" lon="4.0141">
        <ele>254.3</ele>
        <time>2026-08-21T11:33:07Z</time>
      </trkpt>
      <trkpt lat="49.09175" lon="4.0141">
        <ele>254.3</ele>
        <time>2026-08-21T11:33:12Z</time>
      </trkpt>
      <trkpt lat="49.09167" lon="4.01411">
        <ele>254.3</ele>
        <time>2026-08-21T11:33:18Z</time>
      </trkpt>
      <trkpt lat="49.09161" lon="4.01412">
        <ele>254.4</ele>
        <time>2026-08-21T11:33:23Z</time>
      </trkpt>
      <trkpt lat="49.09155" lon="4.01413">
        <ele>254.4</ele>
        <time>2026-08-21T11:33:28Z</time>
      </trkpt>
      <trkpt lat="49.09148" lon="4.01415">
        <ele>254.5</ele>
        <time>2026-08-21T11:33:34Z</time>
      </trkpt>
      <trkpt lat="49.09142" lon="4.01416">
        <ele>254.6</ele>
        <time>2026-08-21T11:33:39Z</time>
      </trkpt>
      <trkpt lat="49.09136" lon="4.01417">
        <ele>254.7</ele>
        <time>2026-08-21T11:33:44Z</time>
      </trkpt>
      <trkpt lat="49.09128" lon="4.0142">
        <ele>254.8</ele>
        <time>2026-08-21T11:33:50Z</time>
      </trkpt>
      <trkpt lat="49.09122" lon="4.01422">
        <ele>254.9</ele>
        <time>2026-08-21T11:33:55Z</time>
      </trkpt>
      <trkpt lat="49.09115" lon="4.01424">
        <ele>255</ele>
        <time>2026-08-21T11:34:00Z</time>
      </trkpt>
      <trkpt lat="49.09107" lon="4.01426">
        <ele>255.1</ele>
        <time>2026-08-21T11:34:06Z</time>
      </trkpt>
      <trkpt lat="49.09102" lon="4.01429">
        <ele>255.2</ele>
        <time>2026-08-21T11:34:11Z</time>
      </trkpt>
      <trkpt lat="49.09096" lon="4.01432">
        <ele>255.3</ele>
        <time>2026-08-21T11:34:16Z</time>
      </trkpt>
      <trkpt lat="49.09089" lon="4.01435">
        <ele>255.4</ele>
        <time>2026-08-21T11:34:22Z</time>
      </trkpt>
      <trkpt lat="49.09084" lon="4.01437">
        <ele>255.5</ele>
        <time>2026-08-21T11:34:27Z</time>
      </trkpt>
      <trkpt lat="49.09077" lon="4.01439">
        <ele>255.6</ele>
        <time>2026-08-21T11:34:32Z</time>
      </trkpt>
      <trkpt lat="49.09069" lon="4.01443">
        <ele>255.6</ele>
        <time>2026-08-21T11:34:38Z</time>
      </trkpt>
      <trkpt lat="49.09064" lon="4.01445">
        <ele>255.6</ele>
        <time>2026-08-21T11:34:43Z</time>
      </trkpt>
      <trkpt lat="49.09057" lon="4.01448">
        <ele>255.7</ele>
        <time>2026-08-21T11:34:48Z</time>
      </trkpt>
      <trkpt lat="49.09049" lon="4.01449">
        <ele>255.8</ele>
        <time>2026-08-21T11:34:54Z</time>
      </trkpt>
      <trkpt lat="49.09043" lon="4.01452">
        <ele>255.8</ele>
        <time>2026-08-21T11:34:59Z</time>
      </trkpt>
      <trkpt lat="49.09037" lon="4.01456">
        <ele>255.9</ele>
        <time>2026-08-21T11:35:04Z</time>
      </trkpt>
      <trkpt lat="49.09031" lon="4.01458">
        <ele>255.9</ele>
        <time>2026-08-21T11:35:10Z</time>
      </trkpt>
      <trkpt lat="49.09025" lon="4.01461">
        <ele>256</ele>
        <time>2026-08-21T11:35:15Z</time>
      </trkpt>
      <trkpt lat="49.0902" lon="4.01463">
        <ele>256.1</ele>
        <time>2026-08-21T11:35:20Z</time>
      </trkpt>
      <trkpt lat="49.09012" lon="4.01466">
        <ele>256.2</ele>
        <time>2026-08-21T11:35:26Z</time>
      </trkpt>
      <trkpt lat="49.09005" lon="4.01468">
        <ele>256.3</ele>
        <time>2026-08-21T11:35:31Z</time>
      </trkpt>
      <trkpt lat="49.09" lon="4.01471">
        <ele>256.3</ele>
        <time>2026-08-21T11:35:36Z</time>
      </trkpt>
      <trkpt lat="49.08994" lon="4.01473">
        <ele>256.6</ele>
        <time>2026-08-21T11:35:42Z</time>
      </trkpt>
      <trkpt lat="49.08988" lon="4.01476">
        <ele>256.8</ele>
        <time>2026-08-21T11:35:47Z</time>
      </trkpt>
      <trkpt lat="49.08987" lon="4.01478">
        <ele>256.8</ele>
        <time>2026-08-21T11:35:52Z</time>
      </trkpt>
      <trkpt lat="49.08986" lon="4.01479">
        <ele>256.8</ele>
        <time>2026-08-21T11:35:58Z</time>
      </trkpt>
      <trkpt lat="49.08986" lon="4.01479">
        <ele>256.8</ele>
        <time>2026-08-21T11:36:03Z</time>
      </trkpt>
      <trkpt lat="49.08986" lon="4.01479">
        <ele>256.8</ele>
        <time>2026-08-21T11:36:08Z</time>
      </trkpt>
      <trkpt lat="49.08986" lon="4.01479">
        <ele>256.8</ele>
        <time>2026-08-21T11:36:14Z</time>
      </trkpt>
      <trkpt lat="49.08986" lon="4.01479">
        <ele>256.8</ele>
        <time>2026-08-21T11:36:19Z</time>
      </trkpt>
      <trkpt lat="49.08986" lon="4.01479">
        <ele>256.8</ele>
        <time>2026-08-21T11:36:24Z</time>
      </trkpt>
      <trkpt lat="49.08986" lon="4.01479">
        <ele>256.8</ele>
        <time>2026-08-21T11:36:30Z</time>
      </trkpt>
      <trkpt lat="49.08986" lon="4.01479">
        <ele>256.8</ele>
        <time>2026-08-21T11:36:35Z</time>
      </trkpt>
      <trkpt lat="49.08986" lon="4.01479">
        <ele>256.8</ele>
        <time>2026-08-21T11:36:40Z</time>
      </trkpt>
      <trkpt lat="49.08986" lon="4.01479">
        <ele>256.8</ele>
        <time>2026-08-21T11:36:46Z</time>
      </trkpt>
      <trkpt lat="49.08986" lon="4.01479">
        <ele>256.8</ele>
        <time>2026-08-21T11:36:51Z</time>
      </trkpt>
      <trkpt lat="49.08986" lon="4.01479">
        <ele>256.8</ele>
        <time>2026-08-21T11:36:56Z</time>
      </trkpt>
      <trkpt lat="49.08986" lon="4.01479">
        <ele>256.8</ele>
        <time>2026-08-21T11:37:02Z</time>
      </trkpt>
      <trkpt lat="49.08986" lon="4.01479">
        <ele>256.8</ele>
        <time>2026-08-21T11:37:07Z</time>
      </trkpt>
      <trkpt lat="49.08986" lon="4.01479">
        <ele>256.8</ele>
        <time>2026-08-21T11:37:12Z</time>
      </trkpt>
      <trkpt lat="49.08986" lon="4.01479">
        <ele>256.8</ele>
        <time>2026-08-21T11:37:18Z</time>
      </trkpt>
      <trkpt lat="49.08986" lon="4.01479">
        <ele>256.8</ele>
        <time>2026-08-21T11:37:23Z</time>
      </trkpt>
      <trkpt lat="49.08986" lon="4.01479">
        <ele>256.8</ele>
        <time>2026-08-21T11:37:28Z</time>
      </trkpt>
      <trkpt lat="49.08986" lon="4.01479">
        <ele>256.8</ele>
        <time>2026-08-21T11:37:34Z</time>
      </trkpt>
      <trkpt lat="49.08986" lon="4.01479">
        <ele>256.8</ele>
        <time>2026-08-21T11:37:39Z</time>
      </trkpt>
      <trkpt lat="49.08986" lon="4.01479">
        <ele>256.8</ele>
        <time>2026-08-21T11:37:44Z</time>
      </trkpt>
      <trkpt lat="49.08986" lon="4.01479">
        <ele>256.8</ele>
        <time>2026-08-21T11:37:50Z</time>
      </trkpt>
      <trkpt lat="49.08986" lon="4.01479">
        <ele>256.8</ele>
        <time>2026-08-21T11:37:55Z</time>
      </trkpt>
      <trkpt lat="49.08986" lon="4.01479">
        <ele>256.8</ele>
        <time>2026-08-21T11:38:00Z</time>
      </trkpt>
      <trkpt lat="49.08986" lon="4.01479">
        <ele>256.8</ele>
        <time>2026-08-21T11:38:06Z</time>
      </trkpt>
      <trkpt lat="49.08986" lon="4.01479">
        <ele>256.8</ele>
        <time>2026-08-21T11:38:11Z</time>
      </trkpt>
      <trkpt lat="49.08986" lon="4.01479">
        <ele>256.8</ele>
        <time>2026-08-21T11:38:16Z</time>
      </trkpt>
      <trkpt lat="49.08986" lon="4.01479">
        <ele>256.8</ele>
        <time>2026-08-21T11:38:22Z</time>
      </trkpt>
      <trkpt lat="49.08986" lon="4.01479">
        <ele>256.8</ele>
        <time>2026-08-21T11:38:27Z</time>
      </trkpt>
      <trkpt lat="49.08986" lon="4.01479">
        <ele>256.8</ele>
        <time>2026-08-21T11:38:32Z</time>
      </trkpt>
      <trkpt lat="49.08986" lon="4.01479">
        <ele>256.8</ele>
        <time>2026-08-21T11:38:38Z</time>
      </trkpt>
      <trkpt lat="49.08986" lon="4.01479">
        <ele>256.8</ele>
        <time>2026-08-21T11:38:43Z</time>
      </trkpt>
      <trkpt lat="49.08986" lon="4.01479">
        <ele>256.8</ele>
        <time>2026-08-21T11:38:48Z</time>
      </trkpt>
      <trkpt lat="49.08986" lon="4.01479">
        <ele>256.8</ele>
        <time>2026-08-21T11:38:54Z</time>
      </trkpt>
      <trkpt lat="49.08986" lon="4.01479">
        <ele>256.8</ele>
        <time>2026-08-21T11:38:59Z</time>
      </trkpt>
      <trkpt lat="49.08986" lon="4.01479">
        <ele>256.8</ele>
        <time>2026-08-21T11:39:04Z</time>
      </trkpt>
      <trkpt lat="49.08986" lon="4.01479">
        <ele>256.8</ele>
        <time>2026-08-21T11:39:10Z</time>
      </trkpt>
      <trkpt lat="49.08986" lon="4.01479">
        <ele>256.8</ele>
        <time>2026-08-21T11:39:15Z</time>
      </trkpt>
      <trkpt lat="49.08986" lon="4.01479">
        <ele>256.8</ele>
        <time>2026-08-21T11:39:20Z</time>
      </trkpt>
      <trkpt lat="49.08986" lon="4.01479">
        <ele>256.8</ele>
        <time>2026-08-21T11:39:26Z</time>
      </trkpt>
      <trkpt lat="49.08986" lon="4.01479">
        <ele>256.8</ele>
        <time>2026-08-21T11:39:31Z</time>
      </trkpt>
      <trkpt lat="49.08986" lon="4.01479">
        <ele>256.8</ele>
        <time>2026-08-21T11:39:36Z</time>
      </trkpt>
      <trkpt lat="49.08986" lon="4.01479">
        <ele>256.8</ele>
        <time>2026-08-21T11:39:42Z</time>
      </trkpt>
      <trkpt lat="49.08986" lon="4.01479">
        <ele>256.8</ele>
        <time>2026-08-21T11:39:47Z</time>
      </trkpt>
      <trkpt lat="49.08986" lon="4.01479">
        <ele>256.8</ele>
        <time>2026-08-21T11:39:52Z</time>
      </trkpt>
      <trkpt lat="49.08986" lon="4.01479">
        <ele>256.8</ele>
        <time>2026-08-21T11:39:58Z</time>
      </trkpt>
      <trkpt lat="49.08986" lon="4.01479">
        <ele>256.8</ele>
        <time>2026-08-21T11:40:03Z</time>
      </trkpt>
      <trkpt lat="49.08986" lon="4.01479">
        <ele>256.8</ele>
        <time>2026-08-21T11:40:08Z</time>
      </trkpt>
      <trkpt lat="49.08986" lon="4.01479">
        <ele>256.8</ele>
        <time>2026-08-21T11:40:14Z</time>
      </trkpt>
      <trkpt lat="49.08986" lon="4.01479">
        <ele>256.8</ele>
        <time>2026-08-21T11:40:19Z</time>
      </trkpt>
      <trkpt lat="49.08986" lon="4.01479">
        <ele>256.8</ele>
        <time>2026-08-21T11:40:24Z</time>
      </trkpt>
      <trkpt lat="49.08986" lon="4.01479">
        <ele>256.8</ele>
        <time>2026-08-21T11:40:30Z</time>
      </trkpt>
      <trkpt lat="49.08986" lon="4.01479">
        <ele>256.8</ele>
        <time>2026-08-21T11:40:35Z</time>
      </trkpt>
      <trkpt lat="49.08986" lon="4.01479">
        <ele>256.8</ele>
        <time>2026-08-21T11:40:40Z</time>
      </trkpt>
      <trkpt lat="49.08986" lon="4.01479">
        <ele>256.8</ele>
        <time>2026-08-21T11:40:46Z</time>
      </trkpt>
      <trkpt lat="49.08986" lon="4.01479">
        <ele>256.8</ele>
        <time>2026-08-21T11:40:51Z</time>
      </trkpt>
      <trkpt lat="49.08986" lon="4.01479">
        <ele>256.8</ele>
        <time>2026-08-21T11:40:56Z</time>
      </trkpt>
      <trkpt lat="49.08986" lon="4.01479">
        <ele>256.8</ele>
        <time>2026-08-21T11:41:02Z</time>
      </trkpt>
      <trkpt lat="49.08986" lon="4.01479">
        <ele>256.8</ele>
        <time>2026-08-21T11:41:07Z</time>
      </trkpt>
      <trkpt lat="49.08986" lon="4.01479">
        <ele>256.8</ele>
        <time>2026-08-21T11:41:12Z</time>
      </trkpt>
      <trkpt lat="49.08986" lon="4.01479">
        <ele>256.8</ele>
        <time>2026-08-21T11:41:18Z</time>
      </trkpt>
      <trkpt lat="49.08986" lon="4.01479">
        <ele>256.8</ele>
        <time>2026-08-21T11:41:23Z</time>
      </trkpt>
      <trkpt lat="49.08986" lon="4.01479">
        <ele>256.8</ele>
        <time>2026-08-21T11:41:28Z</time>
      </trkpt>
      <trkpt lat="49.08986" lon="4.01479">
        <ele>256.8</ele>
        <time>2026-08-21T11:41:34Z</time>
      </trkpt>
      <trkpt lat="49.08986" lon="4.01479">
        <ele>256.8</ele>
        <time>2026-08-21T11:41:39Z</time>
      </trkpt>
      <trkpt lat="49.08986" lon="4.01479">
        <ele>256.8</ele>
        <time>2026-08-21T11:41:44Z</time>
      </trkpt>
      <trkpt lat="49.08986" lon="4.01479">
        <ele>256.8</ele>
        <time>2026-08-21T11:41:50Z</time>
      </trkpt>
      <trkpt lat="49.08986" lon="4.01479">
        <ele>256.8</ele>
        <time>2026-08-21T11:41:55Z</time>
      </trkpt>
      <trkpt lat="49.08986" lon="4.01479">
        <ele>256.8</ele>
        <time>2026-08-21T11:42:00Z</time>
      </trkpt>
      <trkpt lat="49.08986" lon="4.01479">
        <ele>256.8</ele>
        <time>2026-08-21T11:42:06Z</time>
      </trkpt>
      <trkpt lat="49.08986" lon="4.01479">
        <ele>256.8</ele>
        <time>2026-08-21T11:42:11Z</time>
      </trkpt>
      <trkpt lat="49.08986" lon="4.01479">
        <ele>256.8</ele>
        <time>2026-08-21T11:42:16Z</time>
      </trkpt>
      <trkpt lat="49.08986" lon="4.01479">
        <ele>256.8</ele>
        <time>2026-08-21T11:42:22Z</time>
      </trkpt>
      <trkpt lat="49.08986" lon="4.01479">
        <ele>256.8</ele>
        <time>2026-08-21T11:42:27Z</time>
      </trkpt>
      <trkpt lat="49.08986" lon="4.01479">
        <ele>256.8</ele>
        <time>2026-08-21T11:42:32Z</time>
      </trkpt>
      <trkpt lat="49.08986" lon="4.01479">
        <ele>256.8</ele>
        <time>2026-08-21T11:42:38Z</time>
      </trkpt>
      <trkpt lat="49.08986" lon="4.01479">
        <ele>256.8</ele>
        <time>2026-08-21T11:42:43Z</time>
      </trkpt>
      <trkpt lat="49.08986" lon="4.01479">
        <ele>256.8</ele>
        <time>2026-08-21T11:42:48Z</time>
      </trkpt>
      <trkpt lat="49.08986" lon="4.01479">
        <ele>256.8</ele>
        <time>2026-08-21T11:42:54Z</time>
      </trkpt>
      <trkpt lat="49.08986" lon="4.01479">
        <ele>256.8</ele>
        <time>2026-08-21T11:42:59Z</time>
      </trkpt>
      <trkpt lat="49.08986" lon="4.01479">
        <ele>256.8</ele>
        <time>2026-08-21T11:43:04Z</time>
      </trkpt>
      <trkpt lat="49.08986" lon="4.01479">
        <ele>256.8</ele>
        <time>2026-08-21T11:43:10Z</time>
      </trkpt>
      <trkpt lat="49.08986" lon="4.01479">
        <ele>256.8</ele>
        <time>2026-08-21T11:43:15Z</time>
      </trkpt>
      <trkpt lat="49.08986" lon="4.01479">
        <ele>256.8</ele>
        <time>2026-08-21T11:43:20Z</time>
      </trkpt>
      <trkpt lat="49.08986" lon="4.01479">
        <ele>256.8</ele>
        <time>2026-08-21T11:43:26Z</time>
      </trkpt>
      <trkpt lat="49.08986" lon="4.01479">
        <ele>256.8</ele>
        <time>2026-08-21T11:43:31Z</time>
      </trkpt>
      <trkpt lat="49.08982" lon="4.01478">
        <ele>257</ele>
        <time>2026-08-21T11:43:36Z</time>
      </trkpt>
      <trkpt lat="49.08977" lon="4.01481">
        <ele>257.2</ele>
        <time>2026-08-21T11:43:42Z</time>
      </trkpt>
      <trkpt lat="49.08973" lon="4.01482">
        <ele>257.4</ele>
        <time>2026-08-21T11:43:47Z</time>
      </trkpt>
      <trkpt lat="49.08968" lon="4.01484">
        <ele>257.6</ele>
        <time>2026-08-21T11:43:52Z</time>
      </trkpt>
      <trkpt lat="49.08961" lon="4.01488">
        <ele>257.9</ele>
        <time>2026-08-21T11:43:58Z</time>
      </trkpt>
      <trkpt lat="49.08955" lon="4.0149">
        <ele>258.2</ele>
        <time>2026-08-21T11:44:03Z</time>
      </trkpt>
      <trkpt lat="49.0895" lon="4.01493">
        <ele>258.4</ele>
        <time>2026-08-21T11:44:08Z</time>
      </trkpt>
      <trkpt lat="49.08943" lon="4.01495">
        <ele>258.7</ele>
        <time>2026-08-21T11:44:14Z</time>
      </trkpt>
      <trkpt lat="49.08938" lon="4.01497">
        <ele>259</ele>
        <time>2026-08-21T11:44:19Z</time>
      </trkpt>
      <trkpt lat="49.08934" lon="4.01498">
        <ele>259.2</ele>
        <time>2026-08-21T11:44:24Z</time>
      </trkpt>
      <trkpt lat="49.08926" lon="4.015">
        <ele>259.6</ele>
        <time>2026-08-21T11:44:30Z</time>
      </trkpt>
      <trkpt lat="49.08921" lon="4.01502">
        <ele>259.9</ele>
        <time>2026-08-21T11:44:35Z</time>
      </trkpt>
      <trkpt lat="49.08915" lon="4.01504">
        <ele>260.2</ele>
        <time>2026-08-21T11:44:40Z</time>
      </trkpt>
      <trkpt lat="49.08909" lon="4.01508">
        <ele>260.4</ele>
        <time>2026-08-21T11:44:46Z</time>
      </trkpt>
      <trkpt lat="49.08903" lon="4.01508">
        <ele>260.4</ele>
        <time>2026-08-21T11:44:51Z</time>
      </trkpt>
      <trkpt lat="49.08897" lon="4.0151">
        <ele>260.4</ele>
        <time>2026-08-21T11:44:56Z</time>
      </trkpt>
      <trkpt lat="49.0889" lon="4.01511">
        <ele>260.4</ele>
        <time>2026-08-21T11:45:02Z</time>
      </trkpt>
      <trkpt lat="49.08884" lon="4.01514">
        <ele>260.5</ele>
        <time>2026-08-21T11:45:07Z</time>
      </trkpt>
      <trkpt lat="49.0888" lon="4.01514">
        <ele>260.5</ele>
        <time>2026-08-21T11:45:12Z</time>
      </trkpt>
      <trkpt lat="49.08873" lon="4.01516">
        <ele>260.6</ele>
        <time>2026-08-21T11:45:18Z</time>
      </trkpt>
      <trkpt lat="49.08867" lon="4.01518">
        <ele>260.6</ele>
        <time>2026-08-21T11:45:23Z</time>
      </trkpt>
      <trkpt lat="49.08861" lon="4.01519">
        <ele>260.6</ele>
        <time>2026-08-21T11:45:28Z</time>
      </trkpt>
      <trkpt lat="49.08854" lon="4.0152">
        <ele>260.6</ele>
        <time>2026-08-21T11:45:34Z</time>
      </trkpt>
      <trkpt lat="49.08849" lon="4.01521">
        <ele>260.6</ele>
        <time>2026-08-21T11:45:39Z</time>
      </trkpt>
      <trkpt lat="49.08843" lon="4.01523">
        <ele>260.6</ele>
        <time>2026-08-21T11:45:44Z</time>
      </trkpt>
      <trkpt lat="49.08835" lon="4.01525">
        <ele>260.6</ele>
        <time>2026-08-21T11:45:50Z</time>
      </trkpt>
      <trkpt lat="49.0883" lon="4.01527">
        <ele>260.6</ele>
        <time>2026-08-21T11:45:55Z</time>
      </trkpt>
      <trkpt lat="49.08823" lon="4.01527">
        <ele>260.4</ele>
        <time>2026-08-21T11:46:00Z</time>
      </trkpt>
      <trkpt lat="49.08815" lon="4.01529">
        <ele>260.2</ele>
        <time>2026-08-21T11:46:06Z</time>
      </trkpt>
      <trkpt lat="49.08809" lon="4.01531">
        <ele>260.1</ele>
        <time>2026-08-21T11:46:11Z</time>
      </trkpt>
      <trkpt lat="49.08802" lon="4.01532">
        <ele>260</ele>
        <time>2026-08-21T11:46:16Z</time>
      </trkpt>
      <trkpt lat="49.08796" lon="4.01532">
        <ele>259.8</ele>
        <time>2026-08-21T11:46:22Z</time>
      </trkpt>
      <trkpt lat="49.08792" lon="4.01531">
        <ele>259.7</ele>
        <time>2026-08-21T11:46:27Z</time>
      </trkpt>
      <trkpt lat="49.08791" lon="4.01531">
        <ele>259.7</ele>
        <time>2026-08-21T11:46:32Z</time>
      </trkpt>
      <trkpt lat="49.08791" lon="4.01531">
        <ele>259.7</ele>
        <time>2026-08-21T11:46:38Z</time>
      </trkpt>
      <trkpt lat="49.08791" lon="4.01531">
        <ele>259.7</ele>
        <time>2026-08-21T11:46:43Z</time>
      </trkpt>
      <trkpt lat="49.08791" lon="4.01531">
        <ele>259.7</ele>
        <time>2026-08-21T11:46:48Z</time>
      </trkpt>
      <trkpt lat="49.08791" lon="4.01531">
        <ele>259.7</ele>
        <time>2026-08-21T11:46:54Z</time>
      </trkpt>
      <trkpt lat="49.08781" lon="4.01537">
        <ele>259.4</ele>
        <time>2026-08-21T11:46:59Z</time>
      </trkpt>
      <trkpt lat="49.08778" lon="4.01537">
        <ele>259.3</ele>
        <time>2026-08-21T11:47:04Z</time>
      </trkpt>
      <trkpt lat="49.08771" lon="4.01539">
        <ele>259.1</ele>
        <time>2026-08-21T11:47:10Z</time>
      </trkpt>
      <trkpt lat="49.08764" lon="4.01539">
        <ele>258.9</ele>
        <time>2026-08-21T11:47:15Z</time>
      </trkpt>
      <trkpt lat="49.08758" lon="4.01541">
        <ele>258.7</ele>
        <time>2026-08-21T11:47:20Z</time>
      </trkpt>
      <trkpt lat="49.08751" lon="4.01543">
        <ele>258.5</ele>
        <time>2026-08-21T11:47:26Z</time>
      </trkpt>
      <trkpt lat="49.08745" lon="4.01548">
        <ele>258.6</ele>
        <time>2026-08-21T11:47:31Z</time>
      </trkpt>
      <trkpt lat="49.08739" lon="4.0155">
        <ele>258.8</ele>
        <time>2026-08-21T11:47:36Z</time>
      </trkpt>
      <trkpt lat="49.0873" lon="4.01551">
        <ele>259.1</ele>
        <time>2026-08-21T11:47:42Z</time>
      </trkpt>
      <trkpt lat="49.08724" lon="4.01554">
        <ele>259.2</ele>
        <time>2026-08-21T11:47:47Z</time>
      </trkpt>
      <trkpt lat="49.08718" lon="4.01556">
        <ele>259.3</ele>
        <time>2026-08-21T11:47:52Z</time>
      </trkpt>
      <trkpt lat="49.08709" lon="4.01557">
        <ele>259.6</ele>
        <time>2026-08-21T11:47:58Z</time>
      </trkpt>
      <trkpt lat="49.08704" lon="4.01559">
        <ele>259.7</ele>
        <time>2026-08-21T11:48:03Z</time>
      </trkpt>
      <trkpt lat="49.08698" lon="4.01561">
        <ele>259.9</ele>
        <time>2026-08-21T11:48:08Z</time>
      </trkpt>
      <trkpt lat="49.08689" lon="4.01563">
        <ele>260.1</ele>
        <time>2026-08-21T11:48:14Z</time>
      </trkpt>
      <trkpt lat="49.08683" lon="4.01565">
        <ele>260.2</ele>
        <time>2026-08-21T11:48:19Z</time>
      </trkpt>
      <trkpt lat="49.08677" lon="4.01567">
        <ele>260.3</ele>
        <time>2026-08-21T11:48:24Z</time>
      </trkpt>
      <trkpt lat="49.0867" lon="4.01571">
        <ele>260.4</ele>
        <time>2026-08-21T11:48:30Z</time>
      </trkpt>
      <trkpt lat="49.08663" lon="4.01572">
        <ele>260.3</ele>
        <time>2026-08-21T11:48:35Z</time>
      </trkpt>
      <trkpt lat="49.08656" lon="4.01573">
        <ele>260.1</ele>
        <time>2026-08-21T11:48:40Z</time>
      </trkpt>
      <trkpt lat="49.08649" lon="4.01574">
        <ele>259.9</ele>
        <time>2026-08-21T11:48:46Z</time>
      </trkpt>
      <trkpt lat="49.08645" lon="4.01575">
        <ele>259.8</ele>
        <time>2026-08-21T11:48:51Z</time>
      </trkpt>
      <trkpt lat="49.08637" lon="4.01575">
        <ele>259.6</ele>
        <time>2026-08-21T11:48:56Z</time>
      </trkpt>
      <trkpt lat="49.08631" lon="4.01577">
        <ele>259.4</ele>
        <time>2026-08-21T11:49:02Z</time>
      </trkpt>
      <trkpt lat="49.08626" lon="4.01578">
        <ele>259.2</ele>
        <time>2026-08-21T11:49:07Z</time>
      </trkpt>
      <trkpt lat="49.0862" lon="4.01578">
        <ele>259.1</ele>
        <time>2026-08-21T11:49:12Z</time>
      </trkpt>
      <trkpt lat="49.08614" lon="4.01581">
        <ele>258.8</ele>
        <time>2026-08-21T11:49:18Z</time>
      </trkpt>
      <trkpt lat="49.08606" lon="4.01584">
        <ele>258.5</ele>
        <time>2026-08-21T11:49:23Z</time>
      </trkpt>
      <trkpt lat="49.08599" lon="4.01585">
        <ele>258.4</ele>
        <time>2026-08-21T11:49:28Z</time>
      </trkpt>
      <trkpt lat="49.08592" lon="4.01586">
        <ele>258.2</ele>
        <time>2026-08-21T11:49:34Z</time>
      </trkpt>
      <trkpt lat="49.08585" lon="4.01589">
        <ele>258</ele>
        <time>2026-08-21T11:49:39Z</time>
      </trkpt>
      <trkpt lat="49.08579" lon="4.0159">
        <ele>257.8</ele>
        <time>2026-08-21T11:49:44Z</time>
      </trkpt>
      <trkpt lat="49.0857" lon="4.01594">
        <ele>257.5</ele>
        <time>2026-08-21T11:49:50Z</time>
      </trkpt>
      <trkpt lat="49.08565" lon="4.01597">
        <ele>257.3</ele>
        <time>2026-08-21T11:49:55Z</time>
      </trkpt>
      <trkpt lat="49.08558" lon="4.01601">
        <ele>257.1</ele>
        <time>2026-08-21T11:50:00Z</time>
      </trkpt>
      <trkpt lat="49.08551" lon="4.01604">
        <ele>256.9</ele>
        <time>2026-08-21T11:50:06Z</time>
      </trkpt>
      <trkpt lat="49.08546" lon="4.01608">
        <ele>256.9</ele>
        <time>2026-08-21T11:50:11Z</time>
      </trkpt>
      <trkpt lat="49.0854" lon="4.01609">
        <ele>256.7</ele>
        <time>2026-08-21T11:50:16Z</time>
      </trkpt>
      <trkpt lat="49.08532" lon="4.01612">
        <ele>256.6</ele>
        <time>2026-08-21T11:50:22Z</time>
      </trkpt>
      <trkpt lat="49.08525" lon="4.01616">
        <ele>256.6</ele>
        <time>2026-08-21T11:50:27Z</time>
      </trkpt>
      <trkpt lat="49.08518" lon="4.01619">
        <ele>256.5</ele>
        <time>2026-08-21T11:50:32Z</time>
      </trkpt>
      <trkpt lat="49.08511" lon="4.01621">
        <ele>256.5</ele>
        <time>2026-08-21T11:50:38Z</time>
      </trkpt>
      <trkpt lat="49.08506" lon="4.01624">
        <ele>256.6</ele>
        <time>2026-08-21T11:50:43Z</time>
      </trkpt>
      <trkpt lat="49.085" lon="4.01625">
        <ele>256.5</ele>
        <time>2026-08-21T11:50:48Z</time>
      </trkpt>
      <trkpt lat="49.085" lon="4.01623">
        <ele>256.4</ele>
        <time>2026-08-21T11:50:54Z</time>
      </trkpt>
      <trkpt lat="49.08499" lon="4.01623">
        <ele>256.4</ele>
        <time>2026-08-21T11:50:59Z</time>
      </trkpt>
      <trkpt lat="49.08494" lon="4.01624">
        <ele>256.6</ele>
        <time>2026-08-21T11:51:04Z</time>
      </trkpt>
      <trkpt lat="49.08487" lon="4.01626">
        <ele>256.9</ele>
        <time>2026-08-21T11:51:10Z</time>
      </trkpt>
      <trkpt lat="49.08482" lon="4.0163">
        <ele>257.2</ele>
        <time>2026-08-21T11:51:15Z</time>
      </trkpt>
      <trkpt lat="49.08476" lon="4.01633">
        <ele>257.5</ele>
        <time>2026-08-21T11:51:20Z</time>
      </trkpt>
      <trkpt lat="49.08468" lon="4.01636">
        <ele>257.8</ele>
        <time>2026-08-21T11:51:26Z</time>
      </trkpt>
      <trkpt lat="49.08463" lon="4.01639">
        <ele>258.1</ele>
        <time>2026-08-21T11:51:31Z</time>
      </trkpt>
      <trkpt lat="49.08457" lon="4.0164">
        <ele>258.2</ele>
        <time>2026-08-21T11:51:36Z</time>
      </trkpt>
      <trkpt lat="49.0845" lon="4.01643">
        <ele>258.5</ele>
        <time>2026-08-21T11:51:42Z</time>
      </trkpt>
      <trkpt lat="49.08444" lon="4.01645">
        <ele>258.7</ele>
        <time>2026-08-21T11:51:47Z</time>
      </trkpt>
      <trkpt lat="49.08436" lon="4.01647">
        <ele>259</ele>
        <time>2026-08-21T11:51:52Z</time>
      </trkpt>
      <trkpt lat="49.08428" lon="4.01647">
        <ele>259.1</ele>
        <time>2026-08-21T11:51:58Z</time>
      </trkpt>
      <trkpt lat="49.08421" lon="4.01649">
        <ele>259.3</ele>
        <time>2026-08-21T11:52:03Z</time>
      </trkpt>
      <trkpt lat="49.08415" lon="4.0165">
        <ele>259.4</ele>
        <time>2026-08-21T11:52:08Z</time>
      </trkpt>
      <trkpt lat="49.08409" lon="4.01651">
        <ele>259.5</ele>
        <time>2026-08-21T11:52:14Z</time>
      </trkpt>
      <trkpt lat="49.08403" lon="4.01653">
        <ele>259.6</ele>
        <time>2026-08-21T11:52:19Z</time>
      </trkpt>
      <trkpt lat="49.08396" lon="4.01654">
        <ele>259.7</ele>
        <time>2026-08-21T11:52:24Z</time>
      </trkpt>
      <trkpt lat="49.08389" lon="4.01655">
        <ele>259.8</ele>
        <time>2026-08-21T11:52:30Z</time>
      </trkpt>
      <trkpt lat="49.08383" lon="4.01658">
        <ele>259.9</ele>
        <time>2026-08-21T11:52:35Z</time>
      </trkpt>
      <trkpt lat="49.08376" lon="4.0166">
        <ele>259.9</ele>
        <time>2026-08-21T11:52:40Z</time>
      </trkpt>
      <trkpt lat="49.08368" lon="4.01659">
        <ele>259.9</ele>
        <time>2026-08-21T11:52:46Z</time>
      </trkpt>
      <trkpt lat="49.08362" lon="4.01661">
        <ele>260</ele>
        <time>2026-08-21T11:52:51Z</time>
      </trkpt>
      <trkpt lat="49.08354" lon="4.01663">
        <ele>260</ele>
        <time>2026-08-21T11:52:56Z</time>
      </trkpt>
      <trkpt lat="49.08345" lon="4.01664">
        <ele>260</ele>
        <time>2026-08-21T11:53:02Z</time>
      </trkpt>
      <trkpt lat="49.0834" lon="4.01665">
        <ele>260</ele>
        <time>2026-08-21T11:53:07Z</time>
      </trkpt>
      <trkpt lat="49.08334" lon="4.01667">
        <ele>260</ele>
        <time>2026-08-21T11:53:12Z</time>
      </trkpt>
      <trkpt lat="49.08327" lon="4.01671">
        <ele>259.7</ele>
        <time>2026-08-21T11:53:18Z</time>
      </trkpt>
      <trkpt lat="49.08321" lon="4.01671">
        <ele>259.6</ele>
        <time>2026-08-21T11:53:23Z</time>
      </trkpt>
      <trkpt lat="49.08315" lon="4.01673">
        <ele>259.4</ele>
        <time>2026-08-21T11:53:28Z</time>
      </trkpt>
      <trkpt lat="49.08307" lon="4.01672">
        <ele>259.2</ele>
        <time>2026-08-21T11:53:34Z</time>
      </trkpt>
      <trkpt lat="49.08301" lon="4.01672">
        <ele>259</ele>
        <time>2026-08-21T11:53:39Z</time>
      </trkpt>
      <trkpt lat="49.08294" lon="4.01673">
        <ele>258.8</ele>
        <time>2026-08-21T11:53:44Z</time>
      </trkpt>
      <trkpt lat="49.08285" lon="4.01671">
        <ele>258.6</ele>
        <time>2026-08-21T11:53:50Z</time>
      </trkpt>
      <trkpt lat="49.08278" lon="4.01671">
        <ele>258.5</ele>
        <time>2026-08-21T11:53:55Z</time>
      </trkpt>
      <trkpt lat="49.08272" lon="4.01671">
        <ele>258.3</ele>
        <time>2026-08-21T11:54:00Z</time>
      </trkpt>
      <trkpt lat="49.08264" lon="4.0167">
        <ele>258.2</ele>
        <time>2026-08-21T11:54:06Z</time>
      </trkpt>
      <trkpt lat="49.08257" lon="4.01669">
        <ele>258</ele>
        <time>2026-08-21T11:54:11Z</time>
      </trkpt>
      <trkpt lat="49.08251" lon="4.01668">
        <ele>257.9</ele>
        <time>2026-08-21T11:54:16Z</time>
      </trkpt>
      <trkpt lat="49.08243" lon="4.01666">
        <ele>258</ele>
        <time>2026-08-21T11:54:22Z</time>
      </trkpt>
      <trkpt lat="49.08238" lon="4.01665">
        <ele>258</ele>
        <time>2026-08-21T11:54:27Z</time>
      </trkpt>
      <trkpt lat="49.08231" lon="4.01663">
        <ele>258.1</ele>
        <time>2026-08-21T11:54:32Z</time>
      </trkpt>
      <trkpt lat="49.08229" lon="4.01661">
        <ele>258.2</ele>
        <time>2026-08-21T11:54:38Z</time>
      </trkpt>
      <trkpt lat="49.08229" lon="4.01661">
        <ele>258.2</ele>
        <time>2026-08-21T11:54:43Z</time>
      </trkpt>
      <trkpt lat="49.08222" lon="4.01657">
        <ele>258.3</ele>
        <time>2026-08-21T11:54:48Z</time>
      </trkpt>
      <trkpt lat="49.08214" lon="4.01656">
        <ele>258.3</ele>
        <time>2026-08-21T11:54:54Z</time>
      </trkpt>
      <trkpt lat="49.08207" lon="4.01654">
        <ele>258.4</ele>
        <time>2026-08-21T11:54:59Z</time>
      </trkpt>
      <trkpt lat="49.08202" lon="4.01655">
        <ele>258.4</ele>
        <time>2026-08-21T11:55:04Z</time>
      </trkpt>
      <trkpt lat="49.08195" lon="4.01654">
        <ele>258.4</ele>
        <time>2026-08-21T11:55:10Z</time>
      </trkpt>
      <trkpt lat="49.08188" lon="4.01653">
        <ele>258.5</ele>
        <time>2026-08-21T11:55:15Z</time>
      </trkpt>
      <trkpt lat="49.08182" lon="4.01652">
        <ele>258.5</ele>
        <time>2026-08-21T11:55:20Z</time>
      </trkpt>
      <trkpt lat="49.08175" lon="4.01653">
        <ele>258.5</ele>
        <time>2026-08-21T11:55:26Z</time>
      </trkpt>
      <trkpt lat="49.08169" lon="4.01652">
        <ele>258.5</ele>
        <time>2026-08-21T11:55:31Z</time>
      </trkpt>
      <trkpt lat="49.08163" lon="4.01652">
        <ele>258.5</ele>
        <time>2026-08-21T11:55:36Z</time>
      </trkpt>
      <trkpt lat="49.08155" lon="4.0165">
        <ele>258.5</ele>
        <time>2026-08-21T11:55:42Z</time>
      </trkpt>
      <trkpt lat="49.08148" lon="4.0165">
        <ele>258.4</ele>
        <time>2026-08-21T11:55:47Z</time>
      </trkpt>
      <trkpt lat="49.0814" lon="4.01649">
        <ele>258.4</ele>
        <time>2026-08-21T11:55:52Z</time>
      </trkpt>
      <trkpt lat="49.08132" lon="4.01648">
        <ele>258.3</ele>
        <time>2026-08-21T11:55:58Z</time>
      </trkpt>
      <trkpt lat="49.08126" lon="4.01647">
        <ele>258.3</ele>
        <time>2026-08-21T11:56:03Z</time>
      </trkpt>
      <trkpt lat="49.08118" lon="4.01648">
        <ele>258.2</ele>
        <time>2026-08-21T11:56:08Z</time>
      </trkpt>
      <trkpt lat="49.0811" lon="4.01647">
        <ele>258.2</ele>
        <time>2026-08-21T11:56:14Z</time>
      </trkpt>
      <trkpt lat="49.08103" lon="4.01647">
        <ele>258.1</ele>
        <time>2026-08-21T11:56:19Z</time>
      </trkpt>
      <trkpt lat="49.08098" lon="4.01647">
        <ele>258.1</ele>
        <time>2026-08-21T11:56:24Z</time>
      </trkpt>
      <trkpt lat="49.08091" lon="4.01649">
        <ele>257.9</ele>
        <time>2026-08-21T11:56:30Z</time>
      </trkpt>
      <trkpt lat="49.08084" lon="4.01651">
        <ele>257.8</ele>
        <time>2026-08-21T11:56:35Z</time>
      </trkpt>
      <trkpt lat="49.08078" lon="4.01651">
        <ele>257.9</ele>
        <time>2026-08-21T11:56:40Z</time>
      </trkpt>
      <trkpt lat="49.08071" lon="4.01654">
        <ele>258</ele>
        <time>2026-08-21T11:56:46Z</time>
      </trkpt>
      <trkpt lat="49.08066" lon="4.01655">
        <ele>258.2</ele>
        <time>2026-08-21T11:56:51Z</time>
      </trkpt>
      <trkpt lat="49.0806" lon="4.01657">
        <ele>258.3</ele>
        <time>2026-08-21T11:56:56Z</time>
      </trkpt>
      <trkpt lat="49.08053" lon="4.01658">
        <ele>258.5</ele>
        <time>2026-08-21T11:57:02Z</time>
      </trkpt>
      <trkpt lat="49.08046" lon="4.0166">
        <ele>258.6</ele>
        <time>2026-08-21T11:57:07Z</time>
      </trkpt>
      <trkpt lat="49.08039" lon="4.01663">
        <ele>258.7</ele>
        <time>2026-08-21T11:57:12Z</time>
      </trkpt>
      <trkpt lat="49.08031" lon="4.01664">
        <ele>259</ele>
        <time>2026-08-21T11:57:18Z</time>
      </trkpt>
      <trkpt lat="49.08026" lon="4.01667">
        <ele>259</ele>
        <time>2026-08-21T11:57:23Z</time>
      </trkpt>
      <trkpt lat="49.08019" lon="4.01671">
        <ele>259</ele>
        <time>2026-08-21T11:57:28Z</time>
      </trkpt>
      <trkpt lat="49.08013" lon="4.01675">
        <ele>258.8</ele>
        <time>2026-08-21T11:57:34Z</time>
      </trkpt>
      <trkpt lat="49.08007" lon="4.01679">
        <ele>258.7</ele>
        <time>2026-08-21T11:57:39Z</time>
      </trkpt>
      <trkpt lat="49.08001" lon="4.01682">
        <ele>258.7</ele>
        <time>2026-08-21T11:57:44Z</time>
      </trkpt>
      <trkpt lat="49.07996" lon="4.01686">
        <ele>258.3</ele>
        <time>2026-08-21T11:57:50Z</time>
      </trkpt>
      <trkpt lat="49.07989" lon="4.01689">
        <ele>257.9</ele>
        <time>2026-08-21T11:57:55Z</time>
      </trkpt>
      <trkpt lat="49.07983" lon="4.01691">
        <ele>257.7</ele>
        <time>2026-08-21T11:58:00Z</time>
      </trkpt>
      <trkpt lat="49.07976" lon="4.01695">
        <ele>257.2</ele>
        <time>2026-08-21T11:58:06Z</time>
      </trkpt>
      <trkpt lat="49.07971" lon="4.01696">
        <ele>257.1</ele>
        <time>2026-08-21T11:58:11Z</time>
      </trkpt>
      <trkpt lat="49.07965" lon="4.01696">
        <ele>257</ele>
        <time>2026-08-21T11:58:16Z</time>
      </trkpt>
      <trkpt lat="49.07958" lon="4.01698">
        <ele>256.7</ele>
        <time>2026-08-21T11:58:22Z</time>
      </trkpt>
      <trkpt lat="49.07953" lon="4.01696">
        <ele>256.8</ele>
        <time>2026-08-21T11:58:27Z</time>
      </trkpt>
      <trkpt lat="49.07947" lon="4.01695">
        <ele>256.8</ele>
        <time>2026-08-21T11:58:32Z</time>
      </trkpt>
      <trkpt lat="49.07942" lon="4.01692">
        <ele>256.9</ele>
        <time>2026-08-21T11:58:38Z</time>
      </trkpt>
      <trkpt lat="49.0794" lon="4.01693">
        <ele>256.8</ele>
        <time>2026-08-21T11:58:43Z</time>
      </trkpt>
      <trkpt lat="49.07935" lon="4.01693">
        <ele>256.7</ele>
        <time>2026-08-21T11:58:48Z</time>
      </trkpt>
      <trkpt lat="49.07927" lon="4.01692">
        <ele>256.7</ele>
        <time>2026-08-21T11:58:54Z</time>
      </trkpt>
      <trkpt lat="49.07921" lon="4.01692">
        <ele>256.6</ele>
        <time>2026-08-21T11:58:59Z</time>
      </trkpt>
      <trkpt lat="49.07915" lon="4.01693">
        <ele>256.3</ele>
        <time>2026-08-21T11:59:04Z</time>
      </trkpt>
      <trkpt lat="49.07908" lon="4.01693">
        <ele>256</ele>
        <time>2026-08-21T11:59:10Z</time>
      </trkpt>
      <trkpt lat="49.07902" lon="4.01694">
        <ele>255.7</ele>
        <time>2026-08-21T11:59:15Z</time>
      </trkpt>
      <trkpt lat="49.07896" lon="4.01695">
        <ele>255.4</ele>
        <time>2026-08-21T11:59:20Z</time>
      </trkpt>
      <trkpt lat="49.07889" lon="4.01697">
        <ele>255</ele>
        <time>2026-08-21T11:59:26Z</time>
      </trkpt>
      <trkpt lat="49.07882" lon="4.01698">
        <ele>254.6</ele>
        <time>2026-08-21T11:59:31Z</time>
      </trkpt>
      <trkpt lat="49.07875" lon="4.017">
        <ele>254.2</ele>
        <time>2026-08-21T11:59:36Z</time>
      </trkpt>
      <trkpt lat="49.07869" lon="4.01702">
        <ele>253.8</ele>
        <time>2026-08-21T11:59:42Z</time>
      </trkpt>
      <trkpt lat="49.07862" lon="4.01704">
        <ele>253.4</ele>
        <time>2026-08-21T11:59:47Z</time>
      </trkpt>
      <trkpt lat="49.07855" lon="4.01704">
        <ele>253.1</ele>
        <time>2026-08-21T11:59:52Z</time>
      </trkpt>
      <trkpt lat="49.07848" lon="4.01704">
        <ele>252.8</ele>
        <time>2026-08-21T11:59:58Z</time>
      </trkpt>
      <trkpt lat="49.0784" lon="4.01702">
        <ele>252.6</ele>
        <time>2026-08-21T12:00:03Z</time>
      </trkpt>
      <trkpt lat="49.07833" lon="4.01703">
        <ele>252.3</ele>
        <time>2026-08-21T12:00:08Z</time>
      </trkpt>
      <trkpt lat="49.07824" lon="4.01702">
        <ele>252.3</ele>
        <time>2026-08-21T12:00:14Z</time>
      </trkpt>
      <trkpt lat="49.07819" lon="4.01702">
        <ele>252.3</ele>
        <time>2026-08-21T12:00:19Z</time>
      </trkpt>
      <trkpt lat="49.07814" lon="4.01701">
        <ele>252.3</ele>
        <time>2026-08-21T12:00:24Z</time>
      </trkpt>
      <trkpt lat="49.07806" lon="4.01702">
        <ele>252.3</ele>
        <time>2026-08-21T12:00:30Z</time>
      </trkpt>
      <trkpt lat="49.078" lon="4.01699">
        <ele>252.4</ele>
        <time>2026-08-21T12:00:35Z</time>
      </trkpt>
      <trkpt lat="49.07793" lon="4.01699">
        <ele>252.3</ele>
        <time>2026-08-21T12:00:40Z</time>
      </trkpt>
      <trkpt lat="49.07785" lon="4.01699">
        <ele>252.3</ele>
        <time>2026-08-21T12:00:46Z</time>
      </trkpt>
      <trkpt lat="49.07777" lon="4.01701">
        <ele>252.2</ele>
        <time>2026-08-21T12:00:51Z</time>
      </trkpt>
      <trkpt lat="49.0777" lon="4.01701">
        <ele>252.2</ele>
        <time>2026-08-21T12:00:56Z</time>
      </trkpt>
      <trkpt lat="49.07763" lon="4.01701">
        <ele>252.2</ele>
        <time>2026-08-21T12:01:02Z</time>
      </trkpt>
      <trkpt lat="49.07758" lon="4.01701">
        <ele>252.2</ele>
        <time>2026-08-21T12:01:07Z</time>
      </trkpt>
      <trkpt lat="49.07751" lon="4.01702">
        <ele>252.2</ele>
        <time>2026-08-21T12:01:12Z</time>
      </trkpt>
      <trkpt lat="49.07743" lon="4.01702">
        <ele>252</ele>
        <time>2026-08-21T12:01:18Z</time>
      </trkpt>
      <trkpt lat="49.07736" lon="4.01701">
        <ele>251.9</ele>
        <time>2026-08-21T12:01:23Z</time>
      </trkpt>
      <trkpt lat="49.0773" lon="4.01702">
        <ele>251.8</ele>
        <time>2026-08-21T12:01:28Z</time>
      </trkpt>
      <trkpt lat="49.07723" lon="4.01702">
        <ele>251.7</ele>
        <time>2026-08-21T12:01:34Z</time>
      </trkpt>
      <trkpt lat="49.07718" lon="4.01703">
        <ele>251.6</ele>
        <time>2026-08-21T12:01:39Z</time>
      </trkpt>
      <trkpt lat="49.07712" lon="4.01702">
        <ele>251.5</ele>
        <time>2026-08-21T12:01:44Z</time>
      </trkpt>
      <trkpt lat="49.07704" lon="4.01702">
        <ele>251.4</ele>
        <time>2026-08-21T12:01:50Z</time>
      </trkpt>
      <trkpt lat="49.07699" lon="4.01702">
        <ele>251.3</ele>
        <time>2026-08-21T12:01:55Z</time>
      </trkpt>
      <trkpt lat="49.07692" lon="4.01702">
        <ele>251.2</ele>
        <time>2026-08-21T12:02:00Z</time>
      </trkpt>
      <trkpt lat="49.07685" lon="4.01701">
        <ele>251.1</ele>
        <time>2026-08-21T12:02:06Z</time>
      </trkpt>
      <trkpt lat="49.0768" lon="4.01701">
        <ele>251</ele>
        <time>2026-08-21T12:02:11Z</time>
      </trkpt>
      <trkpt lat="49.07676" lon="4.01701">
        <ele>250.9</ele>
        <time>2026-08-21T12:02:16Z</time>
      </trkpt>
      <trkpt lat="49.07669" lon="4.01705">
        <ele>250.7</ele>
        <time>2026-08-21T12:02:22Z</time>
      </trkpt>
      <trkpt lat="49.07664" lon="4.01705">
        <ele>250.7</ele>
        <time>2026-08-21T12:02:27Z</time>
      </trkpt>
      <trkpt lat="49.0766" lon="4.01704">
        <ele>250.7</ele>
        <time>2026-08-21T12:02:32Z</time>
      </trkpt>
      <trkpt lat="49.07655" lon="4.01703">
        <ele>250.8</ele>
        <time>2026-08-21T12:02:38Z</time>
      </trkpt>
      <trkpt lat="49.0765" lon="4.01702">
        <ele>251</ele>
        <time>2026-08-21T12:02:43Z</time>
      </trkpt>
      <trkpt lat="49.07644" lon="4.01704">
        <ele>251</ele>
        <time>2026-08-21T12:02:48Z</time>
      </trkpt>
      <trkpt lat="49.07637" lon="4.01706">
        <ele>251</ele>
        <time>2026-08-21T12:02:54Z</time>
      </trkpt>
      <trkpt lat="49.07632" lon="4.01708">
        <ele>250.9</ele>
        <time>2026-08-21T12:02:59Z</time>
      </trkpt>
      <trkpt lat="49.07626" lon="4.0171">
        <ele>250.9</ele>
        <time>2026-08-21T12:03:04Z</time>
      </trkpt>
      <trkpt lat="49.07617" lon="4.0171">
        <ele>251</ele>
        <time>2026-08-21T12:03:10Z</time>
      </trkpt>
      <trkpt lat="49.07611" lon="4.01709">
        <ele>251.1</ele>
        <time>2026-08-21T12:03:15Z</time>
      </trkpt>
      <trkpt lat="49.07603" lon="4.01709">
        <ele>251.2</ele>
        <time>2026-08-21T12:03:20Z</time>
      </trkpt>
      <trkpt lat="49.07595" lon="4.01711">
        <ele>251.2</ele>
        <time>2026-08-21T12:03:26Z</time>
      </trkpt>
      <trkpt lat="49.0759" lon="4.01711">
        <ele>251.3</ele>
        <time>2026-08-21T12:03:31Z</time>
      </trkpt>
      <trkpt lat="49.07583" lon="4.01712">
        <ele>251.3</ele>
        <time>2026-08-21T12:03:36Z</time>
      </trkpt>
      <trkpt lat="49.07577" lon="4.01713">
        <ele>251.3</ele>
        <time>2026-08-21T12:03:42Z</time>
      </trkpt>
      <trkpt lat="49.0757" lon="4.01713">
        <ele>251.4</ele>
        <time>2026-08-21T12:03:47Z</time>
      </trkpt>
      <trkpt lat="49.07563" lon="4.01712">
        <ele>251.5</ele>
        <time>2026-08-21T12:03:52Z</time>
      </trkpt>
      <trkpt lat="49.07558" lon="4.01709">
        <ele>251.8</ele>
        <time>2026-08-21T12:03:58Z</time>
      </trkpt>
      <trkpt lat="49.07554" lon="4.0171">
        <ele>251.8</ele>
        <time>2026-08-21T12:04:03Z</time>
      </trkpt>
      <trkpt lat="49.07548" lon="4.01712">
        <ele>251.7</ele>
        <time>2026-08-21T12:04:08Z</time>
      </trkpt>
      <trkpt lat="49.07539" lon="4.01713">
        <ele>251.8</ele>
        <time>2026-08-21T12:04:14Z</time>
      </trkpt>
      <trkpt lat="49.07532" lon="4.01713">
        <ele>251.8</ele>
        <time>2026-08-21T12:04:19Z</time>
      </trkpt>
      <trkpt lat="49.07526" lon="4.01712">
        <ele>252</ele>
        <time>2026-08-21T12:04:24Z</time>
      </trkpt>
      <trkpt lat="49.07518" lon="4.01712">
        <ele>252.1</ele>
        <time>2026-08-21T12:04:30Z</time>
      </trkpt>
      <trkpt lat="49.07512" lon="4.01712">
        <ele>252.1</ele>
        <time>2026-08-21T12:04:35Z</time>
      </trkpt>
      <trkpt lat="49.07507" lon="4.01711">
        <ele>252.3</ele>
        <time>2026-08-21T12:04:40Z</time>
      </trkpt>
      <trkpt lat="49.07502" lon="4.01708">
        <ele>252.5</ele>
        <time>2026-08-21T12:04:46Z</time>
      </trkpt>
      <trkpt lat="49.075" lon="4.01707">
        <ele>252.6</ele>
        <time>2026-08-21T12:04:51Z</time>
      </trkpt>
      <trkpt lat="49.07495" lon="4.01708">
        <ele>252.5</ele>
        <time>2026-08-21T12:04:56Z</time>
      </trkpt>
      <trkpt lat="49.0749" lon="4.01707">
        <ele>252.5</ele>
        <time>2026-08-21T12:05:02Z</time>
      </trkpt>
      <trkpt lat="49.07484" lon="4.01706">
        <ele>252.4</ele>
        <time>2026-08-21T12:05:07Z</time>
      </trkpt>
      <trkpt lat="49.07479" lon="4.01706">
        <ele>252.4</ele>
        <time>2026-08-21T12:05:12Z</time>
      </trkpt>
      <trkpt lat="49.07472" lon="4.01707">
        <ele>252.2</ele>
        <time>2026-08-21T12:05:18Z</time>
      </trkpt>
      <trkpt lat="49.07467" lon="4.01707">
        <ele>252.2</ele>
        <time>2026-08-21T12:05:23Z</time>
      </trkpt>
      <trkpt lat="49.07461" lon="4.01708">
        <ele>252.1</ele>
        <time>2026-08-21T12:05:28Z</time>
      </trkpt>
      <trkpt lat="49.07454" lon="4.01707">
        <ele>252</ele>
        <time>2026-08-21T12:05:34Z</time>
      </trkpt>
      <trkpt lat="49.07449" lon="4.01707">
        <ele>252</ele>
        <time>2026-08-21T12:05:39Z</time>
      </trkpt>
      <trkpt lat="49.07443" lon="4.01706">
        <ele>252</ele>
        <time>2026-08-21T12:05:44Z</time>
      </trkpt>
      <trkpt lat="49.07435" lon="4.01706">
        <ele>251.9</ele>
        <time>2026-08-21T12:05:50Z</time>
      </trkpt>
      <trkpt lat="49.07429" lon="4.01706">
        <ele>251.8</ele>
        <time>2026-08-21T12:05:55Z</time>
      </trkpt>
      <trkpt lat="49.07423" lon="4.01708">
        <ele>251.6</ele>
        <time>2026-08-21T12:06:00Z</time>
      </trkpt>
      <trkpt lat="49.07415" lon="4.01708">
        <ele>251.5</ele>
        <time>2026-08-21T12:06:06Z</time>
      </trkpt>
      <trkpt lat="49.07408" lon="4.01708">
        <ele>251.5</ele>
        <time>2026-08-21T12:06:11Z</time>
      </trkpt>
      <trkpt lat="49.07404" lon="4.01709">
        <ele>251.5</ele>
        <time>2026-08-21T12:06:16Z</time>
      </trkpt>
      <trkpt lat="49.07396" lon="4.01711">
        <ele>251.3</ele>
        <time>2026-08-21T12:06:22Z</time>
      </trkpt>
      <trkpt lat="49.07391" lon="4.01712">
        <ele>251.3</ele>
        <time>2026-08-21T12:06:27Z</time>
      </trkpt>
      <trkpt lat="49.07389" lon="4.01709">
        <ele>251.5</ele>
        <time>2026-08-21T12:06:32Z</time>
      </trkpt>
      <trkpt lat="49.07387" lon="4.01708">
        <ele>251.5</ele>
        <time>2026-08-21T12:06:38Z</time>
      </trkpt>
      <trkpt lat="49.07387" lon="4.01708">
        <ele>251.5</ele>
        <time>2026-08-21T12:06:43Z</time>
      </trkpt>
      <trkpt lat="49.07387" lon="4.01708">
        <ele>251.5</ele>
        <time>2026-08-21T12:06:48Z</time>
      </trkpt>
      <trkpt lat="49.07387" lon="4.01708">
        <ele>251.5</ele>
        <time>2026-08-21T12:06:54Z</time>
      </trkpt>
      <trkpt lat="49.07387" lon="4.01708">
        <ele>251.5</ele>
        <time>2026-08-21T12:06:59Z</time>
      </trkpt>
      <trkpt lat="49.07387" lon="4.01708">
        <ele>251.5</ele>
        <time>2026-08-21T12:07:04Z</time>
      </trkpt>
      <trkpt lat="49.07387" lon="4.01708">
        <ele>251.5</ele>
        <time>2026-08-21T12:07:10Z</time>
      </trkpt>
      <trkpt lat="49.07387" lon="4.01708">
        <ele>251.5</ele>
        <time>2026-08-21T12:07:15Z</time>
      </trkpt>
      <trkpt lat="49.07387" lon="4.01708">
        <ele>251.5</ele>
        <time>2026-08-21T12:07:20Z</time>
      </trkpt>
      <trkpt lat="49.07387" lon="4.01708">
        <ele>251.5</ele>
        <time>2026-08-21T12:07:26Z</time>
      </trkpt>
      <trkpt lat="49.07387" lon="4.01708">
        <ele>251.5</ele>
        <time>2026-08-21T12:07:31Z</time>
      </trkpt>
      <trkpt lat="49.07387" lon="4.01708">
        <ele>251.5</ele>
        <time>2026-08-21T12:07:36Z</time>
      </trkpt>
      <trkpt lat="49.07387" lon="4.01708">
        <ele>251.5</ele>
        <time>2026-08-21T12:07:42Z</time>
      </trkpt>
      <trkpt lat="49.07387" lon="4.01708">
        <ele>251.5</ele>
        <time>2026-08-21T12:07:47Z</time>
      </trkpt>
      <trkpt lat="49.07387" lon="4.01708">
        <ele>251.5</ele>
        <time>2026-08-21T12:07:52Z</time>
      </trkpt>
      <trkpt lat="49.07387" lon="4.01708">
        <ele>251.5</ele>
        <time>2026-08-21T12:07:58Z</time>
      </trkpt>
      <trkpt lat="49.07387" lon="4.01708">
        <ele>251.5</ele>
        <time>2026-08-21T12:08:03Z</time>
      </trkpt>
      <trkpt lat="49.07387" lon="4.01708">
        <ele>251.5</ele>
        <time>2026-08-21T12:08:08Z</time>
      </trkpt>
      <trkpt lat="49.07387" lon="4.01708">
        <ele>251.5</ele>
        <time>2026-08-21T12:08:14Z</time>
      </trkpt>
      <trkpt lat="49.07378" lon="4.01713">
        <ele>251.2</ele>
        <time>2026-08-21T12:08:19Z</time>
      </trkpt>
      <trkpt lat="49.07372" lon="4.01716">
        <ele>251</ele>
        <time>2026-08-21T12:08:24Z</time>
      </trkpt>
      <trkpt lat="49.07366" lon="4.01716">
        <ele>251</ele>
        <time>2026-08-21T12:08:30Z</time>
      </trkpt>
      <trkpt lat="49.07362" lon="4.01716">
        <ele>251</ele>
        <time>2026-08-21T12:08:35Z</time>
      </trkpt>
      <trkpt lat="49.07356" lon="4.01718">
        <ele>250.9</ele>
        <time>2026-08-21T12:08:40Z</time>
      </trkpt>
      <trkpt lat="49.07349" lon="4.0172">
        <ele>250.8</ele>
        <time>2026-08-21T12:08:46Z</time>
      </trkpt>
      <trkpt lat="49.07343" lon="4.01723">
        <ele>250.6</ele>
        <time>2026-08-21T12:08:51Z</time>
      </trkpt>
      <trkpt lat="49.07337" lon="4.01725">
        <ele>250.5</ele>
        <time>2026-08-21T12:08:56Z</time>
      </trkpt>
      <trkpt lat="49.0733" lon="4.01726">
        <ele>250.6</ele>
        <time>2026-08-21T12:09:02Z</time>
      </trkpt>
      <trkpt lat="49.07324" lon="4.01728">
        <ele>250.7</ele>
        <time>2026-08-21T12:09:07Z</time>
      </trkpt>
      <trkpt lat="49.07316" lon="4.0173">
        <ele>250.9</ele>
        <time>2026-08-21T12:09:12Z</time>
      </trkpt>
      <trkpt lat="49.07308" lon="4.01734">
        <ele>251.1</ele>
        <time>2026-08-21T12:09:18Z</time>
      </trkpt>
      <trkpt lat="49.07302" lon="4.01736">
        <ele>251.2</ele>
        <time>2026-08-21T12:09:23Z</time>
      </trkpt>
      <trkpt lat="49.07297" lon="4.01737">
        <ele>251.4</ele>
        <time>2026-08-21T12:09:28Z</time>
      </trkpt>
      <trkpt lat="49.07288" lon="4.01739">
        <ele>251.7</ele>
        <time>2026-08-21T12:09:34Z</time>
      </trkpt>
      <trkpt lat="49.0728" lon="4.01741">
        <ele>252</ele>
        <time>2026-08-21T12:09:39Z</time>
      </trkpt>
      <trkpt lat="49.07273" lon="4.01742">
        <ele>252.2</ele>
        <time>2026-08-21T12:09:44Z</time>
      </trkpt>
      <trkpt lat="49.07265" lon="4.01743">
        <ele>252.6</ele>
        <time>2026-08-21T12:09:50Z</time>
      </trkpt>
      <trkpt lat="49.07259" lon="4.01745">
        <ele>252.8</ele>
        <time>2026-08-21T12:09:55Z</time>
      </trkpt>
      <trkpt lat="49.07252" lon="4.01747">
        <ele>253</ele>
        <time>2026-08-21T12:10:00Z</time>
      </trkpt>
      <trkpt lat="49.07245" lon="4.01749">
        <ele>253.2</ele>
        <time>2026-08-21T12:10:06Z</time>
      </trkpt>
      <trkpt lat="49.0724" lon="4.0175">
        <ele>253.2</ele>
        <time>2026-08-21T12:10:11Z</time>
      </trkpt>
      <trkpt lat="49.07234" lon="4.01752">
        <ele>253.2</ele>
        <time>2026-08-21T12:10:16Z</time>
      </trkpt>
      <trkpt lat="49.07227" lon="4.01753">
        <ele>253.4</ele>
        <time>2026-08-21T12:10:22Z</time>
      </trkpt>
      <trkpt lat="49.07221" lon="4.01754">
        <ele>253.4</ele>
        <time>2026-08-21T12:10:27Z</time>
      </trkpt>
      <trkpt lat="49.07214" lon="4.01757">
        <ele>253.4</ele>
        <time>2026-08-21T12:10:32Z</time>
      </trkpt>
      <trkpt lat="49.07207" lon="4.01758">
        <ele>253.6</ele>
        <time>2026-08-21T12:10:38Z</time>
      </trkpt>
      <trkpt lat="49.072" lon="4.0176">
        <ele>253.6</ele>
        <time>2026-08-21T12:10:43Z</time>
      </trkpt>
      <trkpt lat="49.07194" lon="4.0176">
        <ele>253.8</ele>
        <time>2026-08-21T12:10:48Z</time>
      </trkpt>
      <trkpt lat="49.07187" lon="4.01764">
        <ele>253.8</ele>
        <time>2026-08-21T12:10:54Z</time>
      </trkpt>
      <trkpt lat="49.07179" lon="4.01766">
        <ele>253.9</ele>
        <time>2026-08-21T12:10:59Z</time>
      </trkpt>
      <trkpt lat="49.07172" lon="4.01768">
        <ele>254</ele>
        <time>2026-08-21T12:11:04Z</time>
      </trkpt>
      <trkpt lat="49.07165" lon="4.01769">
        <ele>254.1</ele>
        <time>2026-08-21T12:11:10Z</time>
      </trkpt>
      <trkpt lat="49.07159" lon="4.01772">
        <ele>254</ele>
        <time>2026-08-21T12:11:15Z</time>
      </trkpt>
      <trkpt lat="49.07152" lon="4.01775">
        <ele>253.9</ele>
        <time>2026-08-21T12:11:20Z</time>
      </trkpt>
      <trkpt lat="49.07145" lon="4.01777">
        <ele>253.8</ele>
        <time>2026-08-21T12:11:26Z</time>
      </trkpt>
      <trkpt lat="49.07139" lon="4.01779">
        <ele>253.7</ele>
        <time>2026-08-21T12:11:31Z</time>
      </trkpt>
      <trkpt lat="49.07132" lon="4.01781">
        <ele>253.7</ele>
        <time>2026-08-21T12:11:36Z</time>
      </trkpt>
      <trkpt lat="49.07126" lon="4.01782">
        <ele>253.7</ele>
        <time>2026-08-21T12:11:42Z</time>
      </trkpt>
      <trkpt lat="49.07124" lon="4.01788">
        <ele>253.4</ele>
        <time>2026-08-21T12:11:47Z</time>
      </trkpt>
      <trkpt lat="49.07123" lon="4.01789">
        <ele>253.4</ele>
        <time>2026-08-21T12:11:52Z</time>
      </trkpt>
      <trkpt lat="49.0712" lon="4.01791">
        <ele>253.3</ele>
        <time>2026-08-21T12:11:58Z</time>
      </trkpt>
      <trkpt lat="49.07117" lon="4.0179">
        <ele>253.4</ele>
        <time>2026-08-21T12:12:03Z</time>
      </trkpt>
      <trkpt lat="49.07117" lon="4.0179">
        <ele>253.4</ele>
        <time>2026-08-21T12:12:08Z</time>
      </trkpt>
      <trkpt lat="49.07117" lon="4.0179">
        <ele>253.4</ele>
        <time>2026-08-21T12:12:14Z</time>
      </trkpt>
      <trkpt lat="49.07117" lon="4.0179">
        <ele>253.4</ele>
        <time>2026-08-21T12:12:19Z</time>
      </trkpt>
      <trkpt lat="49.07117" lon="4.0179">
        <ele>253.4</ele>
        <time>2026-08-21T12:12:24Z</time>
      </trkpt>
      <trkpt lat="49.07117" lon="4.0179">
        <ele>253.4</ele>
        <time>2026-08-21T12:12:30Z</time>
      </trkpt>
      <trkpt lat="49.07117" lon="4.0179">
        <ele>253.4</ele>
        <time>2026-08-21T12:12:35Z</time>
      </trkpt>
      <trkpt lat="49.07117" lon="4.0179">
        <ele>253.4</ele>
        <time>2026-08-21T12:12:40Z</time>
      </trkpt>
      <trkpt lat="49.07117" lon="4.0179">
        <ele>253.4</ele>
        <time>2026-08-21T12:12:46Z</time>
      </trkpt>
      <trkpt lat="49.07117" lon="4.0179">
        <ele>253.4</ele>
        <time>2026-08-21T12:12:51Z</time>
      </trkpt>
      <trkpt lat="49.07117" lon="4.0179">
        <ele>253.4</ele>
        <time>2026-08-21T12:12:56Z</time>
      </trkpt>
      <trkpt lat="49.07117" lon="4.0179">
        <ele>253.4</ele>
        <time>2026-08-21T12:13:02Z</time>
      </trkpt>
      <trkpt lat="49.07117" lon="4.0179">
        <ele>253.4</ele>
        <time>2026-08-21T12:13:07Z</time>
      </trkpt>
      <trkpt lat="49.07117" lon="4.0179">
        <ele>253.4</ele>
        <time>2026-08-21T12:13:12Z</time>
      </trkpt>
      <trkpt lat="49.07117" lon="4.0179">
        <ele>253.4</ele>
        <time>2026-08-21T12:13:18Z</time>
      </trkpt>
      <trkpt lat="49.07117" lon="4.0179">
        <ele>253.4</ele>
        <time>2026-08-21T12:13:23Z</time>
      </trkpt>
      <trkpt lat="49.07106" lon="4.0179">
        <ele>253.4</ele>
        <time>2026-08-21T12:13:28Z</time>
      </trkpt>
      <trkpt lat="49.07099" lon="4.01792">
        <ele>253.4</ele>
        <time>2026-08-21T12:13:34Z</time>
      </trkpt>
      <trkpt lat="49.07095" lon="4.01791">
        <ele>253.5</ele>
        <time>2026-08-21T12:13:39Z</time>
      </trkpt>
      <trkpt lat="49.0709" lon="4.01792">
        <ele>253.4</ele>
        <time>2026-08-21T12:13:44Z</time>
      </trkpt>
      <trkpt lat="49.07082" lon="4.01793">
        <ele>253.4</ele>
        <time>2026-08-21T12:13:50Z</time>
      </trkpt>
      <trkpt lat="49.07075" lon="4.01793">
        <ele>253.2</ele>
        <time>2026-08-21T12:13:55Z</time>
      </trkpt>
      <trkpt lat="49.07069" lon="4.01794">
        <ele>252.9</ele>
        <time>2026-08-21T12:14:00Z</time>
      </trkpt>
      <trkpt lat="49.07063" lon="4.01795">
        <ele>252.7</ele>
        <time>2026-08-21T12:14:06Z</time>
      </trkpt>
      <trkpt lat="49.07057" lon="4.01797">
        <ele>252.4</ele>
        <time>2026-08-21T12:14:11Z</time>
      </trkpt>
      <trkpt lat="49.07053" lon="4.01797">
        <ele>252.3</ele>
        <time>2026-08-21T12:14:16Z</time>
      </trkpt>
      <trkpt lat="49.07049" lon="4.01795">
        <ele>252.2</ele>
        <time>2026-08-21T12:14:22Z</time>
      </trkpt>
      <trkpt lat="49.07048" lon="4.01795">
        <ele>252.1</ele>
        <time>2026-08-21T12:14:27Z</time>
      </trkpt>
      <trkpt lat="49.07048" lon="4.01795">
        <ele>252.1</ele>
        <time>2026-08-21T12:14:32Z</time>
      </trkpt>
      <trkpt lat="49.07041" lon="4.01797">
        <ele>251.8</ele>
        <time>2026-08-21T12:14:38Z</time>
      </trkpt>
      <trkpt lat="49.07037" lon="4.01799">
        <ele>251.7</ele>
        <time>2026-08-21T12:14:43Z</time>
      </trkpt>
      <trkpt lat="49.07035" lon="4.01799">
        <ele>251.6</ele>
        <time>2026-08-21T12:14:48Z</time>
      </trkpt>
      <trkpt lat="49.07034" lon="4.01801">
        <ele>251.5</ele>
        <time>2026-08-21T12:14:54Z</time>
      </trkpt>
      <trkpt lat="49.07034" lon="4.01801">
        <ele>251.5</ele>
        <time>2026-08-21T12:14:59Z</time>
      </trkpt>
      <trkpt lat="49.07034" lon="4.01801">
        <ele>251.5</ele>
        <time>2026-08-21T12:15:04Z</time>
      </trkpt>
      <trkpt lat="49.07034" lon="4.01801">
        <ele>251.5</ele>
        <time>2026-08-21T12:15:10Z</time>
      </trkpt>
      <trkpt lat="49.07034" lon="4.01801">
        <ele>251.5</ele>
        <time>2026-08-21T12:15:15Z</time>
      </trkpt>
      <trkpt lat="49.07034" lon="4.01801">
        <ele>251.5</ele>
        <time>2026-08-21T12:15:20Z</time>
      </trkpt>
      <trkpt lat="49.07034" lon="4.01801">
        <ele>251.5</ele>
        <time>2026-08-21T12:15:26Z</time>
      </trkpt>
      <trkpt lat="49.07034" lon="4.01801">
        <ele>251.5</ele>
        <time>2026-08-21T12:15:31Z</time>
      </trkpt>
      <trkpt lat="49.07033" lon="4.018">
        <ele>251.5</ele>
        <time>2026-08-21T12:15:36Z</time>
      </trkpt>
      <trkpt lat="49.07027" lon="4.01801">
        <ele>251.3</ele>
        <time>2026-08-21T12:15:42Z</time>
      </trkpt>
      <trkpt lat="49.07023" lon="4.01803">
        <ele>251.1</ele>
        <time>2026-08-21T12:15:47Z</time>
      </trkpt>
      <trkpt lat="49.07022" lon="4.01805">
        <ele>251</ele>
        <time>2026-08-21T12:15:52Z</time>
      </trkpt>
      <trkpt lat="49.07022" lon="4.01806">
        <ele>251</ele>
        <time>2026-08-21T12:15:58Z</time>
      </trkpt>
      <trkpt lat="49.07022" lon="4.01806">
        <ele>251</ele>
        <time>2026-08-21T12:16:03Z</time>
      </trkpt>
      <trkpt lat="49.07022" lon="4.01806">
        <ele>251</ele>
        <time>2026-08-21T12:16:08Z</time>
      </trkpt>
      <trkpt lat="49.07022" lon="4.01806">
        <ele>251</ele>
        <time>2026-08-21T12:16:14Z</time>
      </trkpt>
      <trkpt lat="49.07022" lon="4.01806">
        <ele>251</ele>
        <time>2026-08-21T12:16:19Z</time>
      </trkpt>
      <trkpt lat="49.07022" lon="4.01806">
        <ele>251</ele>
        <time>2026-08-21T12:16:24Z</time>
      </trkpt>
      <trkpt lat="49.07022" lon="4.01806">
        <ele>251</ele>
        <time>2026-08-21T12:16:30Z</time>
      </trkpt>
      <trkpt lat="49.07022" lon="4.01806">
        <ele>251</ele>
        <time>2026-08-21T12:16:35Z</time>
      </trkpt>
      <trkpt lat="49.07022" lon="4.01806">
        <ele>251</ele>
        <time>2026-08-21T12:16:40Z</time>
      </trkpt>
      <trkpt lat="49.07022" lon="4.01806">
        <ele>251</ele>
        <time>2026-08-21T12:16:46Z</time>
      </trkpt>
      <trkpt lat="49.07022" lon="4.01806">
        <ele>251</ele>
        <time>2026-08-21T12:16:51Z</time>
      </trkpt>
      <trkpt lat="49.07022" lon="4.01806">
        <ele>251</ele>
        <time>2026-08-21T12:16:56Z</time>
      </trkpt>
      <trkpt lat="49.07022" lon="4.01806">
        <ele>251</ele>
        <time>2026-08-21T12:17:02Z</time>
      </trkpt>
      <trkpt lat="49.07022" lon="4.01806">
        <ele>251</ele>
        <time>2026-08-21T12:17:07Z</time>
      </trkpt>
      <trkpt lat="49.07022" lon="4.01806">
        <ele>251</ele>
        <time>2026-08-21T12:17:12Z</time>
      </trkpt>
      <trkpt lat="49.07022" lon="4.01806">
        <ele>251</ele>
        <time>2026-08-21T12:17:18Z</time>
      </trkpt>
      <trkpt lat="49.07022" lon="4.01806">
        <ele>251</ele>
        <time>2026-08-21T12:17:23Z</time>
      </trkpt>
      <trkpt lat="49.07022" lon="4.01806">
        <ele>251</ele>
        <time>2026-08-21T12:17:28Z</time>
      </trkpt>
      <trkpt lat="49.07022" lon="4.01806">
        <ele>251</ele>
        <time>2026-08-21T12:17:34Z</time>
      </trkpt>
      <trkpt lat="49.07022" lon="4.01806">
        <ele>251</ele>
        <time>2026-08-21T12:17:39Z</time>
      </trkpt>
      <trkpt lat="49.07022" lon="4.01806">
        <ele>251</ele>
        <time>2026-08-21T12:17:44Z</time>
      </trkpt>
      <trkpt lat="49.07022" lon="4.01806">
        <ele>251</ele>
        <time>2026-08-21T12:17:50Z</time>
      </trkpt>
      <trkpt lat="49.07022" lon="4.01806">
        <ele>251</ele>
        <time>2026-08-21T12:17:55Z</time>
      </trkpt>
      <trkpt lat="49.07015" lon="4.01815">
        <ele>250.7</ele>
        <time>2026-08-21T12:18:00Z</time>
      </trkpt>
      <trkpt lat="49.07014" lon="4.01815">
        <ele>250.6</ele>
        <time>2026-08-21T12:18:06Z</time>
      </trkpt>
      <trkpt lat="49.07014" lon="4.01815">
        <ele>250.6</ele>
        <time>2026-08-21T12:18:11Z</time>
      </trkpt>
      <trkpt lat="49.0701" lon="4.01807">
        <ele>250.6</ele>
        <time>2026-08-21T12:18:16Z</time>
      </trkpt>
      <trkpt lat="49.07007" lon="4.01805">
        <ele>250.6</ele>
        <time>2026-08-21T12:18:22Z</time>
      </trkpt>
      <trkpt lat="49.07003" lon="4.01804">
        <ele>250.4</ele>
        <time>2026-08-21T12:18:27Z</time>
      </trkpt>
      <trkpt lat="49.06998" lon="4.01802">
        <ele>250.3</ele>
        <time>2026-08-21T12:18:32Z</time>
      </trkpt>
      <trkpt lat="49.06991" lon="4.01801">
        <ele>250.2</ele>
        <time>2026-08-21T12:18:38Z</time>
      </trkpt>
      <trkpt lat="49.06986" lon="4.01801">
        <ele>250.2</ele>
        <time>2026-08-21T12:18:43Z</time>
      </trkpt>
      <trkpt lat="49.06979" lon="4.01798">
        <ele>250.1</ele>
        <time>2026-08-21T12:18:48Z</time>
      </trkpt>
      <trkpt lat="49.06973" lon="4.01796">
        <ele>250</ele>
        <time>2026-08-21T12:18:54Z</time>
      </trkpt>
      <trkpt lat="49.06967" lon="4.01796">
        <ele>249.9</ele>
        <time>2026-08-21T12:18:59Z</time>
      </trkpt>
      <trkpt lat="49.06961" lon="4.01798">
        <ele>249.8</ele>
        <time>2026-08-21T12:19:04Z</time>
      </trkpt>
      <trkpt lat="49.06954" lon="4.01803">
        <ele>249.6</ele>
        <time>2026-08-21T12:19:10Z</time>
      </trkpt>
      <trkpt lat="49.06948" lon="4.01809">
        <ele>249.5</ele>
        <time>2026-08-21T12:19:15Z</time>
      </trkpt>
      <trkpt lat="49.06943" lon="4.01814">
        <ele>249.4</ele>
        <time>2026-08-21T12:19:20Z</time>
      </trkpt>
      <trkpt lat="49.06935" lon="4.01823">
        <ele>249.2</ele>
        <time>2026-08-21T12:19:26Z</time>
      </trkpt>
      <trkpt lat="49.06929" lon="4.01828">
        <ele>249.2</ele>
        <time>2026-08-21T12:19:31Z</time>
      </trkpt>
      <trkpt lat="49.06924" lon="4.01832">
        <ele>249.1</ele>
        <time>2026-08-21T12:19:36Z</time>
      </trkpt>
      <trkpt lat="49.06918" lon="4.01838">
        <ele>249</ele>
        <time>2026-08-21T12:19:42Z</time>
      </trkpt>
      <trkpt lat="49.06912" lon="4.01843">
        <ele>248.9</ele>
        <time>2026-08-21T12:19:47Z</time>
      </trkpt>
      <trkpt lat="49.06907" lon="4.01847">
        <ele>248.9</ele>
        <time>2026-08-21T12:19:52Z</time>
      </trkpt>
      <trkpt lat="49.06901" lon="4.01851">
        <ele>248.8</ele>
        <time>2026-08-21T12:19:58Z</time>
      </trkpt>
      <trkpt lat="49.06896" lon="4.01856">
        <ele>248.8</ele>
        <time>2026-08-21T12:20:03Z</time>
      </trkpt>
      <trkpt lat="49.06889" lon="4.01858">
        <ele>248.7</ele>
        <time>2026-08-21T12:20:08Z</time>
      </trkpt>
      <trkpt lat="49.06883" lon="4.01862">
        <ele>248.6</ele>
        <time>2026-08-21T12:20:14Z</time>
      </trkpt>
      <trkpt lat="49.0688" lon="4.01863">
        <ele>248.6</ele>
        <time>2026-08-21T12:20:19Z</time>
      </trkpt>
      <trkpt lat="49.0688" lon="4.01863">
        <ele>248.6</ele>
        <time>2026-08-21T12:20:24Z</time>
      </trkpt>
      <trkpt lat="49.0688" lon="4.01863">
        <ele>248.6</ele>
        <time>2026-08-21T12:20:30Z</time>
      </trkpt>
      <trkpt lat="49.0688" lon="4.01863">
        <ele>248.6</ele>
        <time>2026-08-21T12:20:35Z</time>
      </trkpt>
      <trkpt lat="49.0688" lon="4.01863">
        <ele>248.6</ele>
        <time>2026-08-21T12:20:40Z</time>
      </trkpt>
      <trkpt lat="49.0688" lon="4.01863">
        <ele>248.6</ele>
        <time>2026-08-21T12:20:46Z</time>
      </trkpt>
      <trkpt lat="49.0688" lon="4.01863">
        <ele>248.6</ele>
        <time>2026-08-21T12:20:51Z</time>
      </trkpt>
      <trkpt lat="49.06876" lon="4.01868">
        <ele>248.5</ele>
        <time>2026-08-21T12:20:56Z</time>
      </trkpt>
      <trkpt lat="49.06873" lon="4.01875">
        <ele>248.5</ele>
        <time>2026-08-21T12:21:02Z</time>
      </trkpt>
      <trkpt lat="49.06871" lon="4.0188">
        <ele>248.5</ele>
        <time>2026-08-21T12:21:07Z</time>
      </trkpt>
      <trkpt lat="49.06869" lon="4.01887">
        <ele>248.4</ele>
        <time>2026-08-21T12:21:12Z</time>
      </trkpt>
      <trkpt lat="49.06865" lon="4.01895">
        <ele>248.4</ele>
        <time>2026-08-21T12:21:18Z</time>
      </trkpt>
      <trkpt lat="49.06861" lon="4.01904">
        <ele>248.3</ele>
        <time>2026-08-21T12:21:23Z</time>
      </trkpt>
      <trkpt lat="49.06857" lon="4.01912">
        <ele>248.3</ele>
        <time>2026-08-21T12:21:28Z</time>
      </trkpt>
      <trkpt lat="49.06851" lon="4.01922">
        <ele>248.2</ele>
        <time>2026-08-21T12:21:34Z</time>
      </trkpt>
      <trkpt lat="49.06849" lon="4.01928">
        <ele>248.1</ele>
        <time>2026-08-21T12:21:39Z</time>
      </trkpt>
      <trkpt lat="49.06846" lon="4.01937">
        <ele>248.1</ele>
        <time>2026-08-21T12:21:44Z</time>
      </trkpt>
      <trkpt lat="49.06844" lon="4.01947">
        <ele>248</ele>
        <time>2026-08-21T12:21:50Z</time>
      </trkpt>
      <trkpt lat="49.06842" lon="4.0196">
        <ele>248</ele>
        <time>2026-08-21T12:21:55Z</time>
      </trkpt>
      <trkpt lat="49.0684" lon="4.01969">
        <ele>248</ele>
        <time>2026-08-21T12:22:00Z</time>
      </trkpt>
      <trkpt lat="49.06836" lon="4.01981">
        <ele>248</ele>
        <time>2026-08-21T12:22:06Z</time>
      </trkpt>
      <trkpt lat="49.06834" lon="4.01992">
        <ele>248</ele>
        <time>2026-08-21T12:22:11Z</time>
      </trkpt>
      <trkpt lat="49.06832" lon="4.02001">
        <ele>247.9</ele>
        <time>2026-08-21T12:22:16Z</time>
      </trkpt>
      <trkpt lat="49.0683" lon="4.02012">
        <ele>247.2</ele>
        <time>2026-08-21T12:22:22Z</time>
      </trkpt>
      <trkpt lat="49.06827" lon="4.02022">
        <ele>246.5</ele>
        <time>2026-08-21T12:22:27Z</time>
      </trkpt>
      <trkpt lat="49.06824" lon="4.02032">
        <ele>245.9</ele>
        <time>2026-08-21T12:22:32Z</time>
      </trkpt>
      <trkpt lat="49.06822" lon="4.02041">
        <ele>245.4</ele>
        <time>2026-08-21T12:22:38Z</time>
      </trkpt>
      <trkpt lat="49.06821" lon="4.0205">
        <ele>244.9</ele>
        <time>2026-08-21T12:22:43Z</time>
      </trkpt>
      <trkpt lat="49.06823" lon="4.0206">
        <ele>244.4</ele>
        <time>2026-08-21T12:22:48Z</time>
      </trkpt>
      <trkpt lat="49.06823" lon="4.02072">
        <ele>243.8</ele>
        <time>2026-08-21T12:22:54Z</time>
      </trkpt>
      <trkpt lat="49.06822" lon="4.02082">
        <ele>243.3</ele>
        <time>2026-08-21T12:22:59Z</time>
      </trkpt>
      <trkpt lat="49.06822" lon="4.02091">
        <ele>242.7</ele>
        <time>2026-08-21T12:23:04Z</time>
      </trkpt>
      <trkpt lat="49.06821" lon="4.02095">
        <ele>242.4</ele>
        <time>2026-08-21T12:23:10Z</time>
      </trkpt>
      <trkpt lat="49.0682" lon="4.02096">
        <ele>242.4</ele>
        <time>2026-08-21T12:23:15Z</time>
      </trkpt>
      <trkpt lat="49.0682" lon="4.02096">
        <ele>242.4</ele>
        <time>2026-08-21T12:23:20Z</time>
      </trkpt>
      <trkpt lat="49.0682" lon="4.02107">
        <ele>241.6</ele>
        <time>2026-08-21T12:23:26Z</time>
      </trkpt>
      <trkpt lat="49.06822" lon="4.02114">
        <ele>241</ele>
        <time>2026-08-21T12:23:31Z</time>
      </trkpt>
      <trkpt lat="49.06819" lon="4.02125">
        <ele>240.4</ele>
        <time>2026-08-21T12:23:36Z</time>
      </trkpt>
      <trkpt lat="49.06816" lon="4.02135">
        <ele>239.8</ele>
        <time>2026-08-21T12:23:42Z</time>
      </trkpt>
      <trkpt lat="49.06813" lon="4.02141">
        <ele>239.7</ele>
        <time>2026-08-21T12:23:47Z</time>
      </trkpt>
      <trkpt lat="49.06808" lon="4.02148">
        <ele>239.6</ele>
        <time>2026-08-21T12:23:52Z</time>
      </trkpt>
      <trkpt lat="49.06802" lon="4.02159">
        <ele>239.4</ele>
        <time>2026-08-21T12:23:58Z</time>
      </trkpt>
      <trkpt lat="49.06797" lon="4.02167">
        <ele>239.5</ele>
        <time>2026-08-21T12:24:03Z</time>
      </trkpt>
      <trkpt lat="49.06792" lon="4.02174">
        <ele>239.5</ele>
        <time>2026-08-21T12:24:08Z</time>
      </trkpt>
      <trkpt lat="49.06788" lon="4.02184">
        <ele>239.2</ele>
        <time>2026-08-21T12:24:14Z</time>
      </trkpt>
      <trkpt lat="49.06784" lon="4.02192">
        <ele>239.1</ele>
        <time>2026-08-21T12:24:19Z</time>
      </trkpt>
      <trkpt lat="49.0678" lon="4.02198">
        <ele>239.1</ele>
        <time>2026-08-21T12:24:24Z</time>
      </trkpt>
      <trkpt lat="49.06774" lon="4.02209">
        <ele>239</ele>
        <time>2026-08-21T12:24:30Z</time>
      </trkpt>
      <trkpt lat="49.06771" lon="4.02217">
        <ele>238.8</ele>
        <time>2026-08-21T12:24:35Z</time>
      </trkpt>
      <trkpt lat="49.06769" lon="4.02228">
        <ele>238.3</ele>
        <time>2026-08-21T12:24:40Z</time>
      </trkpt>
      <trkpt lat="49.06767" lon="4.02242">
        <ele>237.7</ele>
        <time>2026-08-21T12:24:46Z</time>
      </trkpt>
      <trkpt lat="49.06767" lon="4.02251">
        <ele>237.1</ele>
        <time>2026-08-21T12:24:51Z</time>
      </trkpt>
      <trkpt lat="49.06765" lon="4.02259">
        <ele>237.1</ele>
        <time>2026-08-21T12:24:56Z</time>
      </trkpt>
      <trkpt lat="49.06765" lon="4.02271">
        <ele>236.6</ele>
        <time>2026-08-21T12:25:02Z</time>
      </trkpt>
      <trkpt lat="49.06764" lon="4.02281">
        <ele>236.4</ele>
        <time>2026-08-21T12:25:07Z</time>
      </trkpt>
      <trkpt lat="49.06764" lon="4.02291">
        <ele>236</ele>
        <time>2026-08-21T12:25:12Z</time>
      </trkpt>
      <trkpt lat="49.06766" lon="4.02303">
        <ele>235.4</ele>
        <time>2026-08-21T12:25:18Z</time>
      </trkpt>
      <trkpt lat="49.06768" lon="4.02313">
        <ele>234.8</ele>
        <time>2026-08-21T12:25:23Z</time>
      </trkpt>
      <trkpt lat="49.06771" lon="4.02321">
        <ele>234.2</ele>
        <time>2026-08-21T12:25:28Z</time>
      </trkpt>
      <trkpt lat="49.06777" lon="4.02331">
        <ele>233.2</ele>
        <time>2026-08-21T12:25:34Z</time>
      </trkpt>
      <trkpt lat="49.0678" lon="4.0234">
        <ele>232.4</ele>
        <time>2026-08-21T12:25:39Z</time>
      </trkpt>
      <trkpt lat="49.06783" lon="4.02349">
        <ele>231.5</ele>
        <time>2026-08-21T12:25:44Z</time>
      </trkpt>
      <trkpt lat="49.06782" lon="4.02359">
        <ele>231.1</ele>
        <time>2026-08-21T12:25:50Z</time>
      </trkpt>
      <trkpt lat="49.06775" lon="4.02367">
        <ele>231.2</ele>
        <time>2026-08-21T12:25:55Z</time>
      </trkpt>
      <trkpt lat="49.0677" lon="4.02372">
        <ele>231.4</ele>
        <time>2026-08-21T12:26:00Z</time>
      </trkpt>
      <trkpt lat="49.06764" lon="4.02379">
        <ele>231.5</ele>
        <time>2026-08-21T12:26:06Z</time>
      </trkpt>
      <trkpt lat="49.06756" lon="4.02384">
        <ele>231.8</ele>
        <time>2026-08-21T12:26:11Z</time>
      </trkpt>
      <trkpt lat="49.0675" lon="4.02389">
        <ele>232</ele>
        <time>2026-08-21T12:26:16Z</time>
      </trkpt>
      <trkpt lat="49.06745" lon="4.02397">
        <ele>231.7</ele>
        <time>2026-08-21T12:26:22Z</time>
      </trkpt>
      <trkpt lat="49.06741" lon="4.02406">
        <ele>231.3</ele>
        <time>2026-08-21T12:26:27Z</time>
      </trkpt>
      <trkpt lat="49.06737" lon="4.02413">
        <ele>231</ele>
        <time>2026-08-21T12:26:32Z</time>
      </trkpt>
      <trkpt lat="49.06733" lon="4.02423">
        <ele>230.4</ele>
        <time>2026-08-21T12:26:38Z</time>
      </trkpt>
      <trkpt lat="49.0673" lon="4.02432">
        <ele>229.8</ele>
        <time>2026-08-21T12:26:43Z</time>
      </trkpt>
      <trkpt lat="49.06727" lon="4.02441">
        <ele>229.2</ele>
        <time>2026-08-21T12:26:48Z</time>
      </trkpt>
      <trkpt lat="49.06723" lon="4.02452">
        <ele>228.5</ele>
        <time>2026-08-21T12:26:54Z</time>
      </trkpt>
      <trkpt lat="49.06718" lon="4.02461">
        <ele>228.1</ele>
        <time>2026-08-21T12:26:59Z</time>
      </trkpt>
      <trkpt lat="49.06715" lon="4.02469">
        <ele>227.6</ele>
        <time>2026-08-21T12:27:04Z</time>
      </trkpt>
      <trkpt lat="49.0671" lon="4.02478">
        <ele>227.2</ele>
        <time>2026-08-21T12:27:10Z</time>
      </trkpt>
      <trkpt lat="49.06709" lon="4.02487">
        <ele>226.5</ele>
        <time>2026-08-21T12:27:15Z</time>
      </trkpt>
      <trkpt lat="49.06711" lon="4.02497">
        <ele>225.5</ele>
        <time>2026-08-21T12:27:20Z</time>
      </trkpt>
      <trkpt lat="49.06714" lon="4.02507">
        <ele>224.5</ele>
        <time>2026-08-21T12:27:26Z</time>
      </trkpt>
      <trkpt lat="49.06718" lon="4.02514">
        <ele>223.6</ele>
        <time>2026-08-21T12:27:31Z</time>
      </trkpt>
      <trkpt lat="49.06722" lon="4.0252">
        <ele>222.8</ele>
        <time>2026-08-21T12:27:36Z</time>
      </trkpt>
      <trkpt lat="49.06727" lon="4.02531">
        <ele>221.6</ele>
        <time>2026-08-21T12:27:42Z</time>
      </trkpt>
      <trkpt lat="49.06732" lon="4.02538">
        <ele>220.7</ele>
        <time>2026-08-21T12:27:47Z</time>
      </trkpt>
      <trkpt lat="49.06734" lon="4.02546">
        <ele>219.9</ele>
        <time>2026-08-21T12:27:52Z</time>
      </trkpt>
      <trkpt lat="49.06738" lon="4.02556">
        <ele>218.9</ele>
        <time>2026-08-21T12:27:58Z</time>
      </trkpt>
      <trkpt lat="49.06741" lon="4.02563">
        <ele>218.1</ele>
        <time>2026-08-21T12:28:03Z</time>
      </trkpt>
      <trkpt lat="49.06743" lon="4.02573">
        <ele>217.3</ele>
        <time>2026-08-21T12:28:08Z</time>
      </trkpt>
      <trkpt lat="49.06744" lon="4.02584">
        <ele>216.4</ele>
        <time>2026-08-21T12:28:14Z</time>
      </trkpt>
      <trkpt lat="49.06745" lon="4.02594">
        <ele>216</ele>
        <time>2026-08-21T12:28:19Z</time>
      </trkpt>
      <trkpt lat="49.06746" lon="4.02605">
        <ele>215.5</ele>
        <time>2026-08-21T12:28:24Z</time>
      </trkpt>
      <trkpt lat="49.06746" lon="4.02619">
        <ele>215</ele>
        <time>2026-08-21T12:28:30Z</time>
      </trkpt>
      <trkpt lat="49.06746" lon="4.02629">
        <ele>214.6</ele>
        <time>2026-08-21T12:28:35Z</time>
      </trkpt>
      <trkpt lat="49.06746" lon="4.02639">
        <ele>214.3</ele>
        <time>2026-08-21T12:28:40Z</time>
      </trkpt>
      <trkpt lat="49.06747" lon="4.02649">
        <ele>213.8</ele>
        <time>2026-08-21T12:28:46Z</time>
      </trkpt>
      <trkpt lat="49.06748" lon="4.02659">
        <ele>213.4</ele>
        <time>2026-08-21T12:28:51Z</time>
      </trkpt>
      <trkpt lat="49.06749" lon="4.0267">
        <ele>213</ele>
        <time>2026-08-21T12:28:56Z</time>
      </trkpt>
      <trkpt lat="49.06751" lon="4.02681">
        <ele>212.6</ele>
        <time>2026-08-21T12:29:02Z</time>
      </trkpt>
      <trkpt lat="49.06751" lon="4.02687">
        <ele>212.4</ele>
        <time>2026-08-21T12:29:07Z</time>
      </trkpt>
      <trkpt lat="49.06751" lon="4.02693">
        <ele>212.3</ele>
        <time>2026-08-21T12:29:12Z</time>
      </trkpt>
      <trkpt lat="49.06752" lon="4.02705">
        <ele>211.9</ele>
        <time>2026-08-21T12:29:18Z</time>
      </trkpt>
      <trkpt lat="49.06752" lon="4.02714">
        <ele>211.7</ele>
        <time>2026-08-21T12:29:23Z</time>
      </trkpt>
      <trkpt lat="49.06754" lon="4.02725">
        <ele>211.3</ele>
        <time>2026-08-21T12:29:28Z</time>
      </trkpt>
      <trkpt lat="49.06756" lon="4.02736">
        <ele>210.8</ele>
        <time>2026-08-21T12:29:34Z</time>
      </trkpt>
      <trkpt lat="49.06758" lon="4.02745">
        <ele>210.4</ele>
        <time>2026-08-21T12:29:39Z</time>
      </trkpt>
      <trkpt lat="49.06761" lon="4.02754">
        <ele>209.7</ele>
        <time>2026-08-21T12:29:44Z</time>
      </trkpt>
      <trkpt lat="49.06765" lon="4.02767">
        <ele>208.5</ele>
        <time>2026-08-21T12:29:50Z</time>
      </trkpt>
      <trkpt lat="49.06768" lon="4.02775">
        <ele>207.6</ele>
        <time>2026-08-21T12:29:55Z</time>
      </trkpt>
      <trkpt lat="49.0677" lon="4.02783">
        <ele>206.9</ele>
        <time>2026-08-21T12:30:00Z</time>
      </trkpt>
      <trkpt lat="49.06774" lon="4.02784">
        <ele>206.4</ele>
        <time>2026-08-21T12:30:06Z</time>
      </trkpt>
      <trkpt lat="49.06774" lon="4.02784">
        <ele>206.4</ele>
        <time>2026-08-21T12:30:11Z</time>
      </trkpt>
      <trkpt lat="49.06776" lon="4.02783">
        <ele>206.3</ele>
        <time>2026-08-21T12:30:16Z</time>
      </trkpt>
      <trkpt lat="49.06782" lon="4.02781">
        <ele>205.8</ele>
        <time>2026-08-21T12:30:22Z</time>
      </trkpt>
      <trkpt lat="49.06785" lon="4.02782">
        <ele>205.4</ele>
        <time>2026-08-21T12:30:27Z</time>
      </trkpt>
      <trkpt lat="49.06785" lon="4.02784">
        <ele>205.3</ele>
        <time>2026-08-21T12:30:32Z</time>
      </trkpt>
      <trkpt lat="49.06785" lon="4.02784">
        <ele>205.3</ele>
        <time>2026-08-21T12:30:38Z</time>
      </trkpt>
      <trkpt lat="49.06785" lon="4.02784">
        <ele>205.3</ele>
        <time>2026-08-21T12:30:43Z</time>
      </trkpt>
      <trkpt lat="49.06787" lon="4.02782">
        <ele>205.2</ele>
        <time>2026-08-21T12:30:48Z</time>
      </trkpt>
      <trkpt lat="49.06793" lon="4.02776">
        <ele>205</ele>
        <time>2026-08-21T12:30:54Z</time>
      </trkpt>
      <trkpt lat="49.06798" lon="4.02772">
        <ele>204.8</ele>
        <time>2026-08-21T12:30:59Z</time>
      </trkpt>
      <trkpt lat="49.06804" lon="4.02767">
        <ele>204.5</ele>
        <time>2026-08-21T12:31:04Z</time>
      </trkpt>
      <trkpt lat="49.06811" lon="4.02762">
        <ele>204.2</ele>
        <time>2026-08-21T12:31:10Z</time>
      </trkpt>
      <trkpt lat="49.06816" lon="4.02758">
        <ele>204</ele>
        <time>2026-08-21T12:31:15Z</time>
      </trkpt>
      <trkpt lat="49.06823" lon="4.02753">
        <ele>203.7</ele>
        <time>2026-08-21T12:31:20Z</time>
      </trkpt>
      <trkpt lat="49.0683" lon="4.02752">
        <ele>203.2</ele>
        <time>2026-08-21T12:31:26Z</time>
      </trkpt>
      <trkpt lat="49.06836" lon="4.02748">
        <ele>202.9</ele>
        <time>2026-08-21T12:31:31Z</time>
      </trkpt>
      <trkpt lat="49.06842" lon="4.02744">
        <ele>202.8</ele>
        <time>2026-08-21T12:31:36Z</time>
      </trkpt>
      <trkpt lat="49.06849" lon="4.0274">
        <ele>202.6</ele>
        <time>2026-08-21T12:31:42Z</time>
      </trkpt>
      <trkpt lat="49.06856" lon="4.02736">
        <ele>202.4</ele>
        <time>2026-08-21T12:31:47Z</time>
      </trkpt>
      <trkpt lat="49.06863" lon="4.02733">
        <ele>202.2</ele>
        <time>2026-08-21T12:31:52Z</time>
      </trkpt>
      <trkpt lat="49.06872" lon="4.02728">
        <ele>202</ele>
        <time>2026-08-21T12:31:58Z</time>
      </trkpt>
      <trkpt lat="49.06878" lon="4.02726">
        <ele>201.8</ele>
        <time>2026-08-21T12:32:03Z</time>
      </trkpt>
      <trkpt lat="49.06884" lon="4.02721">
        <ele>201.9</ele>
        <time>2026-08-21T12:32:08Z</time>
      </trkpt>
      <trkpt lat="49.06891" lon="4.02717">
        <ele>201.9</ele>
        <time>2026-08-21T12:32:14Z</time>
      </trkpt>
      <trkpt lat="49.06896" lon="4.02712">
        <ele>202.1</ele>
        <time>2026-08-21T12:32:19Z</time>
      </trkpt>
      <trkpt lat="49.06902" lon="4.02709">
        <ele>202.1</ele>
        <time>2026-08-21T12:32:24Z</time>
      </trkpt>
      <trkpt lat="49.06909" lon="4.02706">
        <ele>202.1</ele>
        <time>2026-08-21T12:32:30Z</time>
      </trkpt>
      <trkpt lat="49.06914" lon="4.02703">
        <ele>202.2</ele>
        <time>2026-08-21T12:32:35Z</time>
      </trkpt>
      <trkpt lat="49.06919" lon="4.02701">
        <ele>202.2</ele>
        <time>2026-08-21T12:32:40Z</time>
      </trkpt>
      <trkpt lat="49.06925" lon="4.02696">
        <ele>202.6</ele>
        <time>2026-08-21T12:32:46Z</time>
      </trkpt>
      <trkpt lat="49.0693" lon="4.02692">
        <ele>202.8</ele>
        <time>2026-08-21T12:32:51Z</time>
      </trkpt>
      <trkpt lat="49.06936" lon="4.02688">
        <ele>203.1</ele>
        <time>2026-08-21T12:32:56Z</time>
      </trkpt>
      <trkpt lat="49.06942" lon="4.02683">
        <ele>203.5</ele>
        <time>2026-08-21T12:33:02Z</time>
      </trkpt>
      <trkpt lat="49.06948" lon="4.02679">
        <ele>203.8</ele>
        <time>2026-08-21T12:33:07Z</time>
      </trkpt>
      <trkpt lat="49.06953" lon="4.02674">
        <ele>204.3</ele>
        <time>2026-08-21T12:33:12Z</time>
      </trkpt>
      <trkpt lat="49.06959" lon="4.02669">
        <ele>204.7</ele>
        <time>2026-08-21T12:33:18Z</time>
      </trkpt>
      <trkpt lat="49.06965" lon="4.02664">
        <ele>205.1</ele>
        <time>2026-08-21T12:33:23Z</time>
      </trkpt>
      <trkpt lat="49.06971" lon="4.0266">
        <ele>205.4</ele>
        <time>2026-08-21T12:33:28Z</time>
      </trkpt>
      <trkpt lat="49.06978" lon="4.02654">
        <ele>205.9</ele>
        <time>2026-08-21T12:33:34Z</time>
      </trkpt>
      <trkpt lat="49.06985" lon="4.02649">
        <ele>206.2</ele>
        <time>2026-08-21T12:33:39Z</time>
      </trkpt>
      <trkpt lat="49.06991" lon="4.02644">
        <ele>206.6</ele>
        <time>2026-08-21T12:33:44Z</time>
      </trkpt>
      <trkpt lat="49.06998" lon="4.02639">
        <ele>207</ele>
        <time>2026-08-21T12:33:50Z</time>
      </trkpt>
      <trkpt lat="49.07004" lon="4.02635">
        <ele>206.9</ele>
        <time>2026-08-21T12:33:55Z</time>
      </trkpt>
      <trkpt lat="49.0701" lon="4.0263">
        <ele>206.5</ele>
        <time>2026-08-21T12:34:00Z</time>
      </trkpt>
      <trkpt lat="49.07018" lon="4.02624">
        <ele>206</ele>
        <time>2026-08-21T12:34:06Z</time>
      </trkpt>
      <trkpt lat="49.0702" lon="4.02624">
        <ele>205.7</ele>
        <time>2026-08-21T12:34:11Z</time>
      </trkpt>
      <trkpt lat="49.07015" lon="4.02629">
        <ele>205.9</ele>
        <time>2026-08-21T12:34:16Z</time>
      </trkpt>
      <trkpt lat="49.07009" lon="4.02636">
        <ele>206.1</ele>
        <time>2026-08-21T12:34:22Z</time>
      </trkpt>
      <trkpt lat="49.07004" lon="4.02641">
        <ele>206.2</ele>
        <time>2026-08-21T12:34:27Z</time>
      </trkpt>
      <trkpt lat="49.06997" lon="4.02646">
        <ele>206.3</ele>
        <time>2026-08-21T12:34:32Z</time>
      </trkpt>
      <trkpt lat="49.06989" lon="4.02651">
        <ele>205.9</ele>
        <time>2026-08-21T12:34:38Z</time>
      </trkpt>
      <trkpt lat="49.06984" lon="4.02657">
        <ele>205.4</ele>
        <time>2026-08-21T12:34:43Z</time>
      </trkpt>
      <trkpt lat="49.06978" lon="4.02662">
        <ele>205</ele>
        <time>2026-08-21T12:34:48Z</time>
      </trkpt>
      <trkpt lat="49.06971" lon="4.02668">
        <ele>204.5</ele>
        <time>2026-08-21T12:34:54Z</time>
      </trkpt>
      <trkpt lat="49.06965" lon="4.02673">
        <ele>204.1</ele>
        <time>2026-08-21T12:34:59Z</time>
      </trkpt>
      <trkpt lat="49.0696" lon="4.02679">
        <ele>203.5</ele>
        <time>2026-08-21T12:35:04Z</time>
      </trkpt>
      <trkpt lat="49.06952" lon="4.02683">
        <ele>203.2</ele>
        <time>2026-08-21T12:35:10Z</time>
      </trkpt>
      <trkpt lat="49.06945" lon="4.02688">
        <ele>202.8</ele>
        <time>2026-08-21T12:35:15Z</time>
      </trkpt>
      <trkpt lat="49.06939" lon="4.02692">
        <ele>202.6</ele>
        <time>2026-08-21T12:35:20Z</time>
      </trkpt>
      <trkpt lat="49.06939" lon="4.02694">
        <ele>202.3</ele>
        <time>2026-08-21T12:35:26Z</time>
      </trkpt>
      <trkpt lat="49.06935" lon="4.02695">
        <ele>202.4</ele>
        <time>2026-08-21T12:35:31Z</time>
      </trkpt>
      <trkpt lat="49.06929" lon="4.02699">
        <ele>202.1</ele>
        <time>2026-08-21T12:35:36Z</time>
      </trkpt>
      <trkpt lat="49.06922" lon="4.02704">
        <ele>201.8</ele>
        <time>2026-08-21T12:35:42Z</time>
      </trkpt>
      <trkpt lat="49.06916" lon="4.02708">
        <ele>201.6</ele>
        <time>2026-08-21T12:35:47Z</time>
      </trkpt>
      <trkpt lat="49.0691" lon="4.02711">
        <ele>201.5</ele>
        <time>2026-08-21T12:35:52Z</time>
      </trkpt>
      <trkpt lat="49.06902" lon="4.02715">
        <ele>201.5</ele>
        <time>2026-08-21T12:35:58Z</time>
      </trkpt>
      <trkpt lat="49.06896" lon="4.02717">
        <ele>201.7</ele>
        <time>2026-08-21T12:36:03Z</time>
      </trkpt>
      <trkpt lat="49.06889" lon="4.02721">
        <ele>201.7</ele>
        <time>2026-08-21T12:36:08Z</time>
      </trkpt>
      <trkpt lat="49.06881" lon="4.02726">
        <ele>201.7</ele>
        <time>2026-08-21T12:36:14Z</time>
      </trkpt>
      <trkpt lat="49.06876" lon="4.02729">
        <ele>201.7</ele>
        <time>2026-08-21T12:36:19Z</time>
      </trkpt>
      <trkpt lat="49.06869" lon="4.02732">
        <ele>201.9</ele>
        <time>2026-08-21T12:36:24Z</time>
      </trkpt>
      <trkpt lat="49.06862" lon="4.02736">
        <ele>202</ele>
        <time>2026-08-21T12:36:30Z</time>
      </trkpt>
      <trkpt lat="49.06855" lon="4.02739">
        <ele>202.2</ele>
        <time>2026-08-21T12:36:35Z</time>
      </trkpt>
      <trkpt lat="49.06849" lon="4.02742">
        <ele>202.4</ele>
        <time>2026-08-21T12:36:40Z</time>
      </trkpt>
      <trkpt lat="49.06842" lon="4.02745">
        <ele>202.7</ele>
        <time>2026-08-21T12:36:46Z</time>
      </trkpt>
      <trkpt lat="49.06836" lon="4.02748">
        <ele>202.9</ele>
        <time>2026-08-21T12:36:51Z</time>
      </trkpt>
      <trkpt lat="49.0683" lon="4.02751">
        <ele>203.2</ele>
        <time>2026-08-21T12:36:56Z</time>
      </trkpt>
      <trkpt lat="49.06822" lon="4.02756">
        <ele>203.6</ele>
        <time>2026-08-21T12:37:02Z</time>
      </trkpt>
      <trkpt lat="49.06817" lon="4.02759">
        <ele>203.9</ele>
        <time>2026-08-21T12:37:07Z</time>
      </trkpt>
      <trkpt lat="49.06811" lon="4.02762">
        <ele>204.2</ele>
        <time>2026-08-21T12:37:12Z</time>
      </trkpt>
      <trkpt lat="49.06804" lon="4.02767">
        <ele>204.5</ele>
        <time>2026-08-21T12:37:18Z</time>
      </trkpt>
      <trkpt lat="49.06798" lon="4.02773">
        <ele>204.7</ele>
        <time>2026-08-21T12:37:23Z</time>
      </trkpt>
      <trkpt lat="49.06793" lon="4.02778">
        <ele>204.8</ele>
        <time>2026-08-21T12:37:28Z</time>
      </trkpt>
      <trkpt lat="49.06785" lon="4.02782">
        <ele>205.4</ele>
        <time>2026-08-21T12:37:34Z</time>
      </trkpt>
      <trkpt lat="49.06781" lon="4.02788">
        <ele>205.4</ele>
        <time>2026-08-21T12:37:39Z</time>
      </trkpt>
      <trkpt lat="49.06778" lon="4.02792">
        <ele>205.5</ele>
        <time>2026-08-21T12:37:44Z</time>
      </trkpt>
      <trkpt lat="49.06771" lon="4.02798">
        <ele>205.8</ele>
        <time>2026-08-21T12:37:50Z</time>
      </trkpt>
      <trkpt lat="49.06767" lon="4.02805">
        <ele>205.8</ele>
        <time>2026-08-21T12:37:55Z</time>
      </trkpt>
      <trkpt lat="49.06764" lon="4.02816">
        <ele>205.4</ele>
        <time>2026-08-21T12:38:00Z</time>
      </trkpt>
      <trkpt lat="49.06761" lon="4.02827">
        <ele>205.1</ele>
        <time>2026-08-21T12:38:06Z</time>
      </trkpt>
      <trkpt lat="49.06758" lon="4.02836">
        <ele>204.9</ele>
        <time>2026-08-21T12:38:11Z</time>
      </trkpt>
      <trkpt lat="49.06755" lon="4.02845">
        <ele>204.7</ele>
        <time>2026-08-21T12:38:16Z</time>
      </trkpt>
      <trkpt lat="49.06751" lon="4.02858">
        <ele>204.4</ele>
        <time>2026-08-21T12:38:22Z</time>
      </trkpt>
      <trkpt lat="49.06749" lon="4.02866">
        <ele>204.1</ele>
        <time>2026-08-21T12:38:27Z</time>
      </trkpt>
      <trkpt lat="49.06746" lon="4.02872">
        <ele>203.8</ele>
        <time>2026-08-21T12:38:32Z</time>
      </trkpt>
      <trkpt lat="49.06741" lon="4.02883">
        <ele>203.2</ele>
        <time>2026-08-21T12:38:38Z</time>
      </trkpt>
      <trkpt lat="49.0674" lon="4.02893">
        <ele>202.7</ele>
        <time>2026-08-21T12:38:43Z</time>
      </trkpt>
      <trkpt lat="49.06738" lon="4.02899">
        <ele>202.3</ele>
        <time>2026-08-21T12:38:48Z</time>
      </trkpt>
      <trkpt lat="49.06733" lon="4.0291">
        <ele>201.8</ele>
        <time>2026-08-21T12:38:54Z</time>
      </trkpt>
      <trkpt lat="49.06731" lon="4.02918">
        <ele>201.4</ele>
        <time>2026-08-21T12:38:59Z</time>
      </trkpt>
      <trkpt lat="49.06729" lon="4.02928">
        <ele>200.8</ele>
        <time>2026-08-21T12:39:04Z</time>
      </trkpt>
      <trkpt lat="49.06725" lon="4.02939">
        <ele>200.2</ele>
        <time>2026-08-21T12:39:10Z</time>
      </trkpt>
      <trkpt lat="49.06723" lon="4.02948">
        <ele>199.6</ele>
        <time>2026-08-21T12:39:15Z</time>
      </trkpt>
      <trkpt lat="49.06721" lon="4.02958">
        <ele>199.1</ele>
        <time>2026-08-21T12:39:20Z</time>
      </trkpt>
      <trkpt lat="49.06718" lon="4.02969">
        <ele>198.5</ele>
        <time>2026-08-21T12:39:26Z</time>
      </trkpt>
      <trkpt lat="49.06718" lon="4.0298">
        <ele>197.8</ele>
        <time>2026-08-21T12:39:31Z</time>
      </trkpt>
      <trkpt lat="49.06715" lon="4.02989">
        <ele>197.4</ele>
        <time>2026-08-21T12:39:36Z</time>
      </trkpt>
      <trkpt lat="49.06714" lon="4.03002">
        <ele>196.6</ele>
        <time>2026-08-21T12:39:42Z</time>
      </trkpt>
      <trkpt lat="49.06714" lon="4.03012">
        <ele>196</ele>
        <time>2026-08-21T12:39:47Z</time>
      </trkpt>
      <trkpt lat="49.06714" lon="4.03022">
        <ele>195.4</ele>
        <time>2026-08-21T12:39:52Z</time>
      </trkpt>
      <trkpt lat="49.06712" lon="4.03034">
        <ele>194.8</ele>
        <time>2026-08-21T12:39:58Z</time>
      </trkpt>
      <trkpt lat="49.06712" lon="4.03043">
        <ele>194.3</ele>
        <time>2026-08-21T12:40:03Z</time>
      </trkpt>
      <trkpt lat="49.0671" lon="4.03051">
        <ele>193.9</ele>
        <time>2026-08-21T12:40:08Z</time>
      </trkpt>
      <trkpt lat="49.06709" lon="4.03063">
        <ele>193.2</ele>
        <time>2026-08-21T12:40:14Z</time>
      </trkpt>
      <trkpt lat="49.06708" lon="4.03072">
        <ele>192.7</ele>
        <time>2026-08-21T12:40:19Z</time>
      </trkpt>
      <trkpt lat="49.06706" lon="4.03082">
        <ele>192.1</ele>
        <time>2026-08-21T12:40:24Z</time>
      </trkpt>
      <trkpt lat="49.06704" lon="4.03093">
        <ele>191.2</ele>
        <time>2026-08-21T12:40:30Z</time>
      </trkpt>
      <trkpt lat="49.06703" lon="4.03102">
        <ele>190.4</ele>
        <time>2026-08-21T12:40:35Z</time>
      </trkpt>
      <trkpt lat="49.06701" lon="4.03112">
        <ele>189.5</ele>
        <time>2026-08-21T12:40:40Z</time>
      </trkpt>
      <trkpt lat="49.06701" lon="4.03123">
        <ele>188.5</ele>
        <time>2026-08-21T12:40:46Z</time>
      </trkpt>
      <trkpt lat="49.06701" lon="4.03126">
        <ele>188.2</ele>
        <time>2026-08-21T12:40:51Z</time>
      </trkpt>
      <trkpt lat="49.06701" lon="4.03127">
        <ele>188.1</ele>
        <time>2026-08-21T12:40:56Z</time>
      </trkpt>
      <trkpt lat="49.06701" lon="4.03127">
        <ele>188.1</ele>
        <time>2026-08-21T12:41:02Z</time>
      </trkpt>
      <trkpt lat="49.06701" lon="4.03127">
        <ele>188.1</ele>
        <time>2026-08-21T12:41:07Z</time>
      </trkpt>
      <trkpt lat="49.06701" lon="4.03127">
        <ele>188.1</ele>
        <time>2026-08-21T12:41:12Z</time>
      </trkpt>
      <trkpt lat="49.06701" lon="4.03127">
        <ele>188.1</ele>
        <time>2026-08-21T12:41:18Z</time>
      </trkpt>
      <trkpt lat="49.06701" lon="4.03127">
        <ele>188.1</ele>
        <time>2026-08-21T12:41:23Z</time>
      </trkpt>
      <trkpt lat="49.06701" lon="4.03127">
        <ele>188.1</ele>
        <time>2026-08-21T12:41:28Z</time>
      </trkpt>
      <trkpt lat="49.06701" lon="4.03127">
        <ele>188.1</ele>
        <time>2026-08-21T12:41:34Z</time>
      </trkpt>
      <trkpt lat="49.06701" lon="4.03127">
        <ele>188.1</ele>
        <time>2026-08-21T12:41:39Z</time>
      </trkpt>
      <trkpt lat="49.06701" lon="4.0313">
        <ele>187.8</ele>
        <time>2026-08-21T12:41:44Z</time>
      </trkpt>
      <trkpt lat="49.06703" lon="4.03143">
        <ele>186.6</ele>
        <time>2026-08-21T12:41:50Z</time>
      </trkpt>
      <trkpt lat="49.06703" lon="4.03151">
        <ele>185.9</ele>
        <time>2026-08-21T12:41:55Z</time>
      </trkpt>
      <trkpt lat="49.06703" lon="4.03159">
        <ele>185.1</ele>
        <time>2026-08-21T12:42:00Z</time>
      </trkpt>
      <trkpt lat="49.06703" lon="4.03161">
        <ele>185</ele>
        <time>2026-08-21T12:42:06Z</time>
      </trkpt>
      <trkpt lat="49.06704" lon="4.03163">
        <ele>184.8</ele>
        <time>2026-08-21T12:42:11Z</time>
      </trkpt>
      <trkpt lat="49.06703" lon="4.0317">
        <ele>184</ele>
        <time>2026-08-21T12:42:16Z</time>
      </trkpt>
      <trkpt lat="49.06705" lon="4.03177">
        <ele>183.3</ele>
        <time>2026-08-21T12:42:22Z</time>
      </trkpt>
      <trkpt lat="49.06705" lon="4.03185">
        <ele>182.3</ele>
        <time>2026-08-21T12:42:27Z</time>
      </trkpt>
      <trkpt lat="49.06706" lon="4.03195">
        <ele>181.2</ele>
        <time>2026-08-21T12:42:32Z</time>
      </trkpt>
      <trkpt lat="49.06706" lon="4.03207">
        <ele>179.8</ele>
        <time>2026-08-21T12:42:38Z</time>
      </trkpt>
      <trkpt lat="49.06707" lon="4.03214">
        <ele>179</ele>
        <time>2026-08-21T12:42:43Z</time>
      </trkpt>
      <trkpt lat="49.06707" lon="4.03223">
        <ele>178</ele>
        <time>2026-08-21T12:42:48Z</time>
      </trkpt>
      <trkpt lat="49.06709" lon="4.03234">
        <ele>176.9</ele>
        <time>2026-08-21T12:42:54Z</time>
      </trkpt>
      <trkpt lat="49.06709" lon="4.03239">
        <ele>176.3</ele>
        <time>2026-08-21T12:42:59Z</time>
      </trkpt>
      <trkpt lat="49.06709" lon="4.0324">
        <ele>176.2</ele>
        <time>2026-08-21T12:43:04Z</time>
      </trkpt>
      <trkpt lat="49.06709" lon="4.0324">
        <ele>176.2</ele>
        <time>2026-08-21T12:43:10Z</time>
      </trkpt>
      <trkpt lat="49.06709" lon="4.0324">
        <ele>176.2</ele>
        <time>2026-08-21T12:43:15Z</time>
      </trkpt>
      <trkpt lat="49.06709" lon="4.0324">
        <ele>176.2</ele>
        <time>2026-08-21T12:43:20Z</time>
      </trkpt>
      <trkpt lat="49.06709" lon="4.0324">
        <ele>176.2</ele>
        <time>2026-08-21T12:43:26Z</time>
      </trkpt>
      <trkpt lat="49.06707" lon="4.03242">
        <ele>175.8</ele>
        <time>2026-08-21T12:43:31Z</time>
      </trkpt>
      <trkpt lat="49.06709" lon="4.03247">
        <ele>175.4</ele>
        <time>2026-08-21T12:43:36Z</time>
      </trkpt>
      <trkpt lat="49.06711" lon="4.03258">
        <ele>174.8</ele>
        <time>2026-08-21T12:43:42Z</time>
      </trkpt>
      <trkpt lat="49.06712" lon="4.03262">
        <ele>174.6</ele>
        <time>2026-08-21T12:43:47Z</time>
      </trkpt>
      <trkpt lat="49.06712" lon="4.03262">
        <ele>174.6</ele>
        <time>2026-08-21T12:43:52Z</time>
      </trkpt>
      <trkpt lat="49.06712" lon="4.03262">
        <ele>174.6</ele>
        <time>2026-08-21T12:43:58Z</time>
      </trkpt>
      <trkpt lat="49.06712" lon="4.03262">
        <ele>174.6</ele>
        <time>2026-08-21T12:44:03Z</time>
      </trkpt>
      <trkpt lat="49.06712" lon="4.03262">
        <ele>174.6</ele>
        <time>2026-08-21T12:44:08Z</time>
      </trkpt>
      <trkpt lat="49.06712" lon="4.03262">
        <ele>174.6</ele>
        <time>2026-08-21T12:44:14Z</time>
      </trkpt>
      <trkpt lat="49.06713" lon="4.03272">
        <ele>174.2</ele>
        <time>2026-08-21T12:44:19Z</time>
      </trkpt>
      <trkpt lat="49.06715" lon="4.0328">
        <ele>173.9</ele>
        <time>2026-08-21T12:44:24Z</time>
      </trkpt>
      <trkpt lat="49.06717" lon="4.03291">
        <ele>173.6</ele>
        <time>2026-08-21T12:44:30Z</time>
      </trkpt>
      <trkpt lat="49.06718" lon="4.03295">
        <ele>173.5</ele>
        <time>2026-08-21T12:44:35Z</time>
      </trkpt>
      <trkpt lat="49.06719" lon="4.033">
        <ele>173.3</ele>
        <time>2026-08-21T12:44:40Z</time>
      </trkpt>
      <trkpt lat="49.0672" lon="4.03308">
        <ele>173</ele>
        <time>2026-08-21T12:44:46Z</time>
      </trkpt>
      <trkpt lat="49.0672" lon="4.03309">
        <ele>173</ele>
        <time>2026-08-21T12:44:51Z</time>
      </trkpt>
      <trkpt lat="49.0672" lon="4.03309">
        <ele>173</ele>
        <time>2026-08-21T12:44:56Z</time>
      </trkpt>
      <trkpt lat="49.06722" lon="4.03319">
        <ele>172.7</ele>
        <time>2026-08-21T12:45:02Z</time>
      </trkpt>
      <trkpt lat="49.06723" lon="4.03328">
        <ele>172.3</ele>
        <time>2026-08-21T12:45:07Z</time>
      </trkpt>
      <trkpt lat="49.06725" lon="4.03338">
        <ele>172.2</ele>
        <time>2026-08-21T12:45:12Z</time>
      </trkpt>
      <trkpt lat="49.06726" lon="4.03344">
        <ele>172.1</ele>
        <time>2026-08-21T12:45:18Z</time>
      </trkpt>
      <trkpt lat="49.06726" lon="4.03345">
        <ele>172</ele>
        <time>2026-08-21T12:45:23Z</time>
      </trkpt>
      <trkpt lat="49.06726" lon="4.03345">
        <ele>172</ele>
        <time>2026-08-21T12:45:28Z</time>
      </trkpt>
      <trkpt lat="49.06726" lon="4.03345">
        <ele>172</ele>
        <time>2026-08-21T12:45:34Z</time>
      </trkpt>
      <trkpt lat="49.06726" lon="4.03345">
        <ele>172</ele>
        <time>2026-08-21T12:45:39Z</time>
      </trkpt>
      <trkpt lat="49.06726" lon="4.03345">
        <ele>172</ele>
        <time>2026-08-21T12:45:44Z</time>
      </trkpt>
      <trkpt lat="49.06726" lon="4.03345">
        <ele>172</ele>
        <time>2026-08-21T12:45:50Z</time>
      </trkpt>
      <trkpt lat="49.06726" lon="4.03345">
        <ele>172</ele>
        <time>2026-08-21T12:45:55Z</time>
      </trkpt>
      <trkpt lat="49.06726" lon="4.03345">
        <ele>172</ele>
        <time>2026-08-21T12:46:00Z</time>
      </trkpt>
      <trkpt lat="49.06726" lon="4.03345">
        <ele>172</ele>
        <time>2026-08-21T12:46:06Z</time>
      </trkpt>
      <trkpt lat="49.06726" lon="4.03345">
        <ele>172</ele>
        <time>2026-08-21T12:46:11Z</time>
      </trkpt>
      <trkpt lat="49.06726" lon="4.03351">
        <ele>171.9</ele>
        <time>2026-08-21T12:46:16Z</time>
      </trkpt>
      <trkpt lat="49.06727" lon="4.03359">
        <ele>171.7</ele>
        <time>2026-08-21T12:46:22Z</time>
      </trkpt>
      <trkpt lat="49.06729" lon="4.03366">
        <ele>171.8</ele>
        <time>2026-08-21T12:46:27Z</time>
      </trkpt>
      <trkpt lat="49.0673" lon="4.03374">
        <ele>171.6</ele>
        <time>2026-08-21T12:46:32Z</time>
      </trkpt>
      <trkpt lat="49.06731" lon="4.03383">
        <ele>171.5</ele>
        <time>2026-08-21T12:46:38Z</time>
      </trkpt>
      <trkpt lat="49.06731" lon="4.03383">
        <ele>171.5</ele>
        <time>2026-08-21T12:46:43Z</time>
      </trkpt>
      <trkpt lat="49.06731" lon="4.03383">
        <ele>171.5</ele>
        <time>2026-08-21T12:46:48Z</time>
      </trkpt>
      <trkpt lat="49.06731" lon="4.03383">
        <ele>171.5</ele>
        <time>2026-08-21T12:46:54Z</time>
      </trkpt>
      <trkpt lat="49.06731" lon="4.03383">
        <ele>171.5</ele>
        <time>2026-08-21T12:46:59Z</time>
      </trkpt>
      <trkpt lat="49.06731" lon="4.03383">
        <ele>171.5</ele>
        <time>2026-08-21T12:47:04Z</time>
      </trkpt>
      <trkpt lat="49.06731" lon="4.03383">
        <ele>171.5</ele>
        <time>2026-08-21T12:47:10Z</time>
      </trkpt>
      <trkpt lat="49.06731" lon="4.03383">
        <ele>171.5</ele>
        <time>2026-08-21T12:47:15Z</time>
      </trkpt>
      <trkpt lat="49.06732" lon="4.03387">
        <ele>171.5</ele>
        <time>2026-08-21T12:47:20Z</time>
      </trkpt>
      <trkpt lat="49.06732" lon="4.03387">
        <ele>171.5</ele>
        <time>2026-08-21T12:47:26Z</time>
      </trkpt>
      <trkpt lat="49.06732" lon="4.03387">
        <ele>171.5</ele>
        <time>2026-08-21T12:47:31Z</time>
      </trkpt>
      <trkpt lat="49.06731" lon="4.03395">
        <ele>171.1</ele>
        <time>2026-08-21T12:47:36Z</time>
      </trkpt>
      <trkpt lat="49.06732" lon="4.03406">
        <ele>170.9</ele>
        <time>2026-08-21T12:47:42Z</time>
      </trkpt>
      <trkpt lat="49.06732" lon="4.03416">
        <ele>170.6</ele>
        <time>2026-08-21T12:47:47Z</time>
      </trkpt>
      <trkpt lat="49.06732" lon="4.03425">
        <ele>170.4</ele>
        <time>2026-08-21T12:47:52Z</time>
      </trkpt>
      <trkpt lat="49.06732" lon="4.03437">
        <ele>170.1</ele>
        <time>2026-08-21T12:47:58Z</time>
      </trkpt>
      <trkpt lat="49.06734" lon="4.03446">
        <ele>170.1</ele>
        <time>2026-08-21T12:48:03Z</time>
      </trkpt>
      <trkpt lat="49.06736" lon="4.03453">
        <ele>170.2</ele>
        <time>2026-08-21T12:48:08Z</time>
      </trkpt>
      <trkpt lat="49.06737" lon="4.03462">
        <ele>170.1</ele>
        <time>2026-08-21T12:48:14Z</time>
      </trkpt>
      <trkpt lat="49.06736" lon="4.0347">
        <ele>169.8</ele>
        <time>2026-08-21T12:48:19Z</time>
      </trkpt>
      <trkpt lat="49.06735" lon="4.03479">
        <ele>169.4</ele>
        <time>2026-08-21T12:48:24Z</time>
      </trkpt>
      <trkpt lat="49.06735" lon="4.03492">
        <ele>169</ele>
        <time>2026-08-21T12:48:30Z</time>
      </trkpt>
      <trkpt lat="49.06735" lon="4.03501">
        <ele>168.8</ele>
        <time>2026-08-21T12:48:35Z</time>
      </trkpt>
      <trkpt lat="49.06735" lon="4.03512">
        <ele>168.1</ele>
        <time>2026-08-21T12:48:40Z</time>
      </trkpt>
      <trkpt lat="49.06735" lon="4.03523">
        <ele>167.4</ele>
        <time>2026-08-21T12:48:46Z</time>
      </trkpt>
      <trkpt lat="49.06736" lon="4.03532">
        <ele>166.9</ele>
        <time>2026-08-21T12:48:51Z</time>
      </trkpt>
      <trkpt lat="49.06735" lon="4.03541">
        <ele>166.2</ele>
        <time>2026-08-21T12:48:56Z</time>
      </trkpt>
      <trkpt lat="49.06737" lon="4.0355">
        <ele>165.9</ele>
        <time>2026-08-21T12:49:02Z</time>
      </trkpt>
      <trkpt lat="49.06737" lon="4.03552">
        <ele>165.8</ele>
        <time>2026-08-21T12:49:07Z</time>
      </trkpt>
      <trkpt lat="49.06736" lon="4.03553">
        <ele>165.6</ele>
        <time>2026-08-21T12:49:12Z</time>
      </trkpt>
      <trkpt lat="49.06736" lon="4.0356">
        <ele>165.1</ele>
        <time>2026-08-21T12:49:18Z</time>
      </trkpt>
      <trkpt lat="49.06735" lon="4.03568">
        <ele>164.5</ele>
        <time>2026-08-21T12:49:23Z</time>
      </trkpt>
      <trkpt lat="49.06735" lon="4.03576">
        <ele>164</ele>
        <time>2026-08-21T12:49:28Z</time>
      </trkpt>
      <trkpt lat="49.06735" lon="4.03587">
        <ele>163.2</ele>
        <time>2026-08-21T12:49:34Z</time>
      </trkpt>
      <trkpt lat="49.06733" lon="4.03595">
        <ele>162.3</ele>
        <time>2026-08-21T12:49:39Z</time>
      </trkpt>
      <trkpt lat="49.06733" lon="4.03604">
        <ele>161.6</ele>
        <time>2026-08-21T12:49:44Z</time>
      </trkpt>
      <trkpt lat="49.06733" lon="4.03607">
        <ele>161.4</ele>
        <time>2026-08-21T12:49:50Z</time>
      </trkpt>
      <trkpt lat="49.06733" lon="4.03607">
        <ele>161.4</ele>
        <time>2026-08-21T12:49:55Z</time>
      </trkpt>
      <trkpt lat="49.06733" lon="4.03607">
        <ele>161.4</ele>
        <time>2026-08-21T12:50:00Z</time>
      </trkpt>
      <trkpt lat="49.06731" lon="4.03616">
        <ele>160.4</ele>
        <time>2026-08-21T12:50:06Z</time>
      </trkpt>
      <trkpt lat="49.06731" lon="4.03625">
        <ele>159.7</ele>
        <time>2026-08-21T12:50:11Z</time>
      </trkpt>
      <trkpt lat="49.0673" lon="4.03634">
        <ele>158.8</ele>
        <time>2026-08-21T12:50:16Z</time>
      </trkpt>
      <trkpt lat="49.06729" lon="4.03647">
        <ele>157.7</ele>
        <time>2026-08-21T12:50:22Z</time>
      </trkpt>
      <trkpt lat="49.06728" lon="4.03657">
        <ele>156.8</ele>
        <time>2026-08-21T12:50:27Z</time>
      </trkpt>
      <trkpt lat="49.06728" lon="4.03666">
        <ele>156.1</ele>
        <time>2026-08-21T12:50:32Z</time>
      </trkpt>
      <trkpt lat="49.06729" lon="4.03678">
        <ele>155.5</ele>
        <time>2026-08-21T12:50:38Z</time>
      </trkpt>
      <trkpt lat="49.0673" lon="4.03687">
        <ele>155.1</ele>
        <time>2026-08-21T12:50:43Z</time>
      </trkpt>
      <trkpt lat="49.06731" lon="4.03697">
        <ele>154.6</ele>
        <time>2026-08-21T12:50:48Z</time>
      </trkpt>
      <trkpt lat="49.06731" lon="4.03709">
        <ele>153.8</ele>
        <time>2026-08-21T12:50:54Z</time>
      </trkpt>
      <trkpt lat="49.06732" lon="4.03713">
        <ele>153.7</ele>
        <time>2026-08-21T12:50:59Z</time>
      </trkpt>
      <trkpt lat="49.06731" lon="4.03714">
        <ele>153.4</ele>
        <time>2026-08-21T12:51:04Z</time>
      </trkpt>
      <trkpt lat="49.06731" lon="4.03714">
        <ele>153.4</ele>
        <time>2026-08-21T12:51:10Z</time>
      </trkpt>
      <trkpt lat="49.06731" lon="4.03714">
        <ele>153.4</ele>
        <time>2026-08-21T12:51:15Z</time>
      </trkpt>
      <trkpt lat="49.06731" lon="4.03714">
        <ele>153.4</ele>
        <time>2026-08-21T12:51:20Z</time>
      </trkpt>
      <trkpt lat="49.06731" lon="4.03714">
        <ele>153.4</ele>
        <time>2026-08-21T12:51:26Z</time>
      </trkpt>
      <trkpt lat="49.06733" lon="4.03715">
        <ele>153.7</ele>
        <time>2026-08-21T12:51:31Z</time>
      </trkpt>
      <trkpt lat="49.06733" lon="4.03722">
        <ele>153.2</ele>
        <time>2026-08-21T12:51:36Z</time>
      </trkpt>
      <trkpt lat="49.06735" lon="4.03732">
        <ele>152.9</ele>
        <time>2026-08-21T12:51:42Z</time>
      </trkpt>
      <trkpt lat="49.06737" lon="4.0374">
        <ele>152.7</ele>
        <time>2026-08-21T12:51:47Z</time>
      </trkpt>
      <trkpt lat="49.06739" lon="4.03746">
        <ele>152.6</ele>
        <time>2026-08-21T12:51:52Z</time>
      </trkpt>
      <trkpt lat="49.06739" lon="4.03746">
        <ele>152.6</ele>
        <time>2026-08-21T12:51:58Z</time>
      </trkpt>
      <trkpt lat="49.06739" lon="4.03746">
        <ele>152.6</ele>
        <time>2026-08-21T12:52:03Z</time>
      </trkpt>
      <trkpt lat="49.06739" lon="4.03746">
        <ele>152.6</ele>
        <time>2026-08-21T12:52:08Z</time>
      </trkpt>
      <trkpt lat="49.06739" lon="4.03746">
        <ele>152.6</ele>
        <time>2026-08-21T12:52:14Z</time>
      </trkpt>
      <trkpt lat="49.06739" lon="4.03746">
        <ele>152.6</ele>
        <time>2026-08-21T12:52:19Z</time>
      </trkpt>
      <trkpt lat="49.06739" lon="4.03746">
        <ele>152.6</ele>
        <time>2026-08-21T12:52:24Z</time>
      </trkpt>
      <trkpt lat="49.06739" lon="4.03746">
        <ele>152.6</ele>
        <time>2026-08-21T12:52:30Z</time>
      </trkpt>
      <trkpt lat="49.06739" lon="4.03746">
        <ele>152.6</ele>
        <time>2026-08-21T12:52:35Z</time>
      </trkpt>
      <trkpt lat="49.06739" lon="4.03746">
        <ele>152.6</ele>
        <time>2026-08-21T12:52:40Z</time>
      </trkpt>
      <trkpt lat="49.06742" lon="4.03758">
        <ele>152.4</ele>
        <time>2026-08-21T12:52:46Z</time>
      </trkpt>
      <trkpt lat="49.06742" lon="4.03759">
        <ele>152.3</ele>
        <time>2026-08-21T12:52:51Z</time>
      </trkpt>
      <trkpt lat="49.06742" lon="4.0376">
        <ele>152.3</ele>
        <time>2026-08-21T12:52:56Z</time>
      </trkpt>
      <trkpt lat="49.06745" lon="4.03768">
        <ele>152.3</ele>
        <time>2026-08-21T12:53:02Z</time>
      </trkpt>
      <trkpt lat="49.06748" lon="4.03776">
        <ele>152.4</ele>
        <time>2026-08-21T12:53:07Z</time>
      </trkpt>
      <trkpt lat="49.06751" lon="4.03785">
        <ele>152.4</ele>
        <time>2026-08-21T12:53:12Z</time>
      </trkpt>
      <trkpt lat="49.06754" lon="4.03797">
        <ele>152.1</ele>
        <time>2026-08-21T12:53:18Z</time>
      </trkpt>
      <trkpt lat="49.06757" lon="4.03807">
        <ele>151.9</ele>
        <time>2026-08-21T12:53:23Z</time>
      </trkpt>
      <trkpt lat="49.0676" lon="4.03815">
        <ele>151.8</ele>
        <time>2026-08-21T12:53:28Z</time>
      </trkpt>
      <trkpt lat="49.06764" lon="4.03827">
        <ele>151.6</ele>
        <time>2026-08-21T12:53:34Z</time>
      </trkpt>
      <trkpt lat="49.06766" lon="4.03837">
        <ele>151.4</ele>
        <time>2026-08-21T12:53:39Z</time>
      </trkpt>
      <trkpt lat="49.06767" lon="4.03843">
        <ele>151.3</ele>
        <time>2026-08-21T12:53:44Z</time>
      </trkpt>
      <trkpt lat="49.06767" lon="4.03841">
        <ele>151.4</ele>
        <time>2026-08-21T12:53:50Z</time>
      </trkpt>
      <trkpt lat="49.06767" lon="4.03836">
        <ele>151.5</ele>
        <time>2026-08-21T12:53:55Z</time>
      </trkpt>
      <trkpt lat="49.06768" lon="4.03829">
        <ele>151.9</ele>
        <time>2026-08-21T12:54:00Z</time>
      </trkpt>
      <trkpt lat="49.06773" lon="4.03824">
        <ele>152.6</ele>
        <time>2026-08-21T12:54:06Z</time>
      </trkpt>
      <trkpt lat="49.06778" lon="4.03823">
        <ele>153.1</ele>
        <time>2026-08-21T12:54:11Z</time>
      </trkpt>
      <trkpt lat="49.06784" lon="4.03822">
        <ele>153.8</ele>
        <time>2026-08-21T12:54:16Z</time>
      </trkpt>
      <trkpt lat="49.0679" lon="4.03821">
        <ele>154.4</ele>
        <time>2026-08-21T12:54:22Z</time>
      </trkpt>
      <trkpt lat="49.06796" lon="4.0382">
        <ele>155</ele>
        <time>2026-08-21T12:54:27Z</time>
      </trkpt>
      <trkpt lat="49.06803" lon="4.03819">
        <ele>155.7</ele>
        <time>2026-08-21T12:54:32Z</time>
      </trkpt>
      <trkpt lat="49.0681" lon="4.03816">
        <ele>156.4</ele>
        <time>2026-08-21T12:54:38Z</time>
      </trkpt>
      <trkpt lat="49.06816" lon="4.03814">
        <ele>157.1</ele>
        <time>2026-08-21T12:54:43Z</time>
      </trkpt>
      <trkpt lat="49.06822" lon="4.03813">
        <ele>157.7</ele>
        <time>2026-08-21T12:54:48Z</time>
      </trkpt>
      <trkpt lat="49.0683" lon="4.03813">
        <ele>158.4</ele>
        <time>2026-08-21T12:54:54Z</time>
      </trkpt>
      <trkpt lat="49.06837" lon="4.03811">
        <ele>158.9</ele>
        <time>2026-08-21T12:54:59Z</time>
      </trkpt>
      <trkpt lat="49.06843" lon="4.0381">
        <ele>159.1</ele>
        <time>2026-08-21T12:55:04Z</time>
      </trkpt>
      <trkpt lat="49.06849" lon="4.03807">
        <ele>159.3</ele>
        <time>2026-08-21T12:55:10Z</time>
      </trkpt>
      <trkpt lat="49.06854" lon="4.03801">
        <ele>159.6</ele>
        <time>2026-08-21T12:55:15Z</time>
      </trkpt>
      <trkpt lat="49.06858" lon="4.03794">
        <ele>159.9</ele>
        <time>2026-08-21T12:55:20Z</time>
      </trkpt>
      <trkpt lat="49.0686" lon="4.03785">
        <ele>160.1</ele>
        <time>2026-08-21T12:55:26Z</time>
      </trkpt>
      <trkpt lat="49.06864" lon="4.0378">
        <ele>160.3</ele>
        <time>2026-08-21T12:55:31Z</time>
      </trkpt>
      <trkpt lat="49.06864" lon="4.03779">
        <ele>160.3</ele>
        <time>2026-08-21T12:55:36Z</time>
      </trkpt>
      <trkpt lat="49.06863" lon="4.03778">
        <ele>160.4</ele>
        <time>2026-08-21T12:55:42Z</time>
      </trkpt>
      <trkpt lat="49.06863" lon="4.03778">
        <ele>160.4</ele>
        <time>2026-08-21T12:55:47Z</time>
      </trkpt>
      <trkpt lat="49.06863" lon="4.03778">
        <ele>160.4</ele>
        <time>2026-08-21T12:55:52Z</time>
      </trkpt>
      <trkpt lat="49.06863" lon="4.03778">
        <ele>160.4</ele>
        <time>2026-08-21T12:55:58Z</time>
      </trkpt>
      <trkpt lat="49.06863" lon="4.03778">
        <ele>160.4</ele>
        <time>2026-08-21T12:56:03Z</time>
      </trkpt>
      <trkpt lat="49.06863" lon="4.03778">
        <ele>160.4</ele>
        <time>2026-08-21T12:56:08Z</time>
      </trkpt>
      <trkpt lat="49.06863" lon="4.03778">
        <ele>160.4</ele>
        <time>2026-08-21T12:56:14Z</time>
      </trkpt>
      <trkpt lat="49.06863" lon="4.03778">
        <ele>160.4</ele>
        <time>2026-08-21T12:56:19Z</time>
      </trkpt>
      <trkpt lat="49.06863" lon="4.03778">
        <ele>160.4</ele>
        <time>2026-08-21T12:56:24Z</time>
      </trkpt>
      <trkpt lat="49.06863" lon="4.03778">
        <ele>160.4</ele>
        <time>2026-08-21T12:56:30Z</time>
      </trkpt>
      <trkpt lat="49.06863" lon="4.03778">
        <ele>160.4</ele>
        <time>2026-08-21T12:56:35Z</time>
      </trkpt>
      <trkpt lat="49.06863" lon="4.03778">
        <ele>160.4</ele>
        <time>2026-08-21T12:56:40Z</time>
      </trkpt>
      <trkpt lat="49.06863" lon="4.03778">
        <ele>160.4</ele>
        <time>2026-08-21T12:56:46Z</time>
      </trkpt>
      <trkpt lat="49.06863" lon="4.03778">
        <ele>160.4</ele>
        <time>2026-08-21T12:56:51Z</time>
      </trkpt>
      <trkpt lat="49.06863" lon="4.03778">
        <ele>160.4</ele>
        <time>2026-08-21T12:56:56Z</time>
      </trkpt>
      <trkpt lat="49.06863" lon="4.03778">
        <ele>160.4</ele>
        <time>2026-08-21T12:57:02Z</time>
      </trkpt>
      <trkpt lat="49.06863" lon="4.03778">
        <ele>160.4</ele>
        <time>2026-08-21T12:57:07Z</time>
      </trkpt>
      <trkpt lat="49.06863" lon="4.03778">
        <ele>160.4</ele>
        <time>2026-08-21T12:57:12Z</time>
      </trkpt>
      <trkpt lat="49.06863" lon="4.03778">
        <ele>160.4</ele>
        <time>2026-08-21T12:57:18Z</time>
      </trkpt>
      <trkpt lat="49.06863" lon="4.03778">
        <ele>160.4</ele>
        <time>2026-08-21T12:57:23Z</time>
      </trkpt>
      <trkpt lat="49.06863" lon="4.03778">
        <ele>160.4</ele>
        <time>2026-08-21T12:57:28Z</time>
      </trkpt>
      <trkpt lat="49.06863" lon="4.03778">
        <ele>160.4</ele>
        <time>2026-08-21T12:57:34Z</time>
      </trkpt>
      <trkpt lat="49.06863" lon="4.03778">
        <ele>160.4</ele>
        <time>2026-08-21T12:57:39Z</time>
      </trkpt>
      <trkpt lat="49.06863" lon="4.03778">
        <ele>160.4</ele>
        <time>2026-08-21T12:57:44Z</time>
      </trkpt>
      <trkpt lat="49.06863" lon="4.03778">
        <ele>160.4</ele>
        <time>2026-08-21T12:57:50Z</time>
      </trkpt>
      <trkpt lat="49.06863" lon="4.03778">
        <ele>160.4</ele>
        <time>2026-08-21T12:57:55Z</time>
      </trkpt>
      <trkpt lat="49.06863" lon="4.03778">
        <ele>160.4</ele>
        <time>2026-08-21T12:58:00Z</time>
      </trkpt>
      <trkpt lat="49.06863" lon="4.03778">
        <ele>160.4</ele>
        <time>2026-08-21T12:58:06Z</time>
      </trkpt>
      <trkpt lat="49.06863" lon="4.03778">
        <ele>160.4</ele>
        <time>2026-08-21T12:58:11Z</time>
      </trkpt>
      <trkpt lat="49.06863" lon="4.03778">
        <ele>160.4</ele>
        <time>2026-08-21T12:58:16Z</time>
      </trkpt>
      <trkpt lat="49.06863" lon="4.03778">
        <ele>160.4</ele>
        <time>2026-08-21T12:58:22Z</time>
      </trkpt>
      <trkpt lat="49.06863" lon="4.03778">
        <ele>160.4</ele>
        <time>2026-08-21T12:58:27Z</time>
      </trkpt>
      <trkpt lat="49.06863" lon="4.03778">
        <ele>160.4</ele>
        <time>2026-08-21T12:58:32Z</time>
      </trkpt>
      <trkpt lat="49.06863" lon="4.03778">
        <ele>160.4</ele>
        <time>2026-08-21T12:58:38Z</time>
      </trkpt>
      <trkpt lat="49.06863" lon="4.03778">
        <ele>160.4</ele>
        <time>2026-08-21T12:58:43Z</time>
      </trkpt>
      <trkpt lat="49.06863" lon="4.03778">
        <ele>160.4</ele>
        <time>2026-08-21T12:58:48Z</time>
      </trkpt>
      <trkpt lat="49.06863" lon="4.03778">
        <ele>160.4</ele>
        <time>2026-08-21T12:58:54Z</time>
      </trkpt>
      <trkpt lat="49.06863" lon="4.03778">
        <ele>160.4</ele>
        <time>2026-08-21T12:58:59Z</time>
      </trkpt>
      <trkpt lat="49.06863" lon="4.03778">
        <ele>160.4</ele>
        <time>2026-08-21T12:59:04Z</time>
      </trkpt>
      <trkpt lat="49.06863" lon="4.03778">
        <ele>160.4</ele>
        <time>2026-08-21T12:59:10Z</time>
      </trkpt>
      <trkpt lat="49.06863" lon="4.03778">
        <ele>160.4</ele>
        <time>2026-08-21T12:59:15Z</time>
      </trkpt>
      <trkpt lat="49.06863" lon="4.03778">
        <ele>160.4</ele>
        <time>2026-08-21T12:59:20Z</time>
      </trkpt>
      <trkpt lat="49.06873" lon="4.03779">
        <ele>160.5</ele>
        <time>2026-08-21T12:59:26Z</time>
      </trkpt>
      <trkpt lat="49.06877" lon="4.03775">
        <ele>160.6</ele>
        <time>2026-08-21T12:59:31Z</time>
      </trkpt>
      <trkpt lat="49.0688" lon="4.03771">
        <ele>160.7</ele>
        <time>2026-08-21T12:59:36Z</time>
      </trkpt>
      <trkpt lat="49.06883" lon="4.0377">
        <ele>160.7</ele>
        <time>2026-08-21T12:59:42Z</time>
      </trkpt>
      <trkpt lat="49.06886" lon="4.03772">
        <ele>160.7</ele>
        <time>2026-08-21T12:59:47Z</time>
      </trkpt>
      <trkpt lat="49.06889" lon="4.03774">
        <ele>160.7</ele>
        <time>2026-08-21T12:59:52Z</time>
      </trkpt>
      <trkpt lat="49.06889" lon="4.03774">
        <ele>160.7</ele>
        <time>2026-08-21T12:59:58Z</time>
      </trkpt>
      <trkpt lat="49.06889" lon="4.03774">
        <ele>160.7</ele>
        <time>2026-08-21T13:00:03Z</time>
      </trkpt>
      <trkpt lat="49.06894" lon="4.03784">
        <ele>160.7</ele>
        <time>2026-08-21T13:00:08Z</time>
      </trkpt>
      <trkpt lat="49.06897" lon="4.03789">
        <ele>160.7</ele>
        <time>2026-08-21T13:00:14Z</time>
      </trkpt>
      <trkpt lat="49.06899" lon="4.03789">
        <ele>160.7</ele>
        <time>2026-08-21T13:00:19Z</time>
      </trkpt>
      <trkpt lat="49.069" lon="4.03792">
        <ele>160.7</ele>
        <time>2026-08-21T13:00:24Z</time>
      </trkpt>
      <trkpt lat="49.06902" lon="4.03799">
        <ele>160.7</ele>
        <time>2026-08-21T13:00:30Z</time>
      </trkpt>
      <trkpt lat="49.06904" lon="4.03802">
        <ele>160.7</ele>
        <time>2026-08-21T13:00:35Z</time>
      </trkpt>
      <trkpt lat="49.06908" lon="4.03809">
        <ele>160.8</ele>
        <time>2026-08-21T13:00:40Z</time>
      </trkpt>
      <trkpt lat="49.06912" lon="4.03816">
        <ele>160.9</ele>
        <time>2026-08-21T13:00:46Z</time>
      </trkpt>
      <trkpt lat="49.06915" lon="4.03822">
        <ele>160.9</ele>
        <time>2026-08-21T13:00:51Z</time>
      </trkpt>
      <trkpt lat="49.06919" lon="4.03829">
        <ele>161.1</ele>
        <time>2026-08-21T13:00:56Z</time>
      </trkpt>
      <trkpt lat="49.0692" lon="4.03833">
        <ele>161.2</ele>
        <time>2026-08-21T13:01:02Z</time>
      </trkpt>
      <trkpt lat="49.06923" lon="4.03833">
        <ele>161.4</ele>
        <time>2026-08-21T13:01:07Z</time>
      </trkpt>
      <trkpt lat="49.06925" lon="4.03837">
        <ele>161.4</ele>
        <time>2026-08-21T13:01:12Z</time>
      </trkpt>
      <trkpt lat="49.06929" lon="4.03846">
        <ele>161.4</ele>
        <time>2026-08-21T13:01:18Z</time>
      </trkpt>
      <trkpt lat="49.06929" lon="4.03853">
        <ele>161.3</ele>
        <time>2026-08-21T13:01:23Z</time>
      </trkpt>
      <trkpt lat="49.06927" lon="4.03858">
        <ele>161</ele>
        <time>2026-08-21T13:01:28Z</time>
      </trkpt>
      <trkpt lat="49.06927" lon="4.03858">
        <ele>161</ele>
        <time>2026-08-21T13:01:34Z</time>
      </trkpt>
      <trkpt lat="49.06927" lon="4.03858">
        <ele>161</ele>
        <time>2026-08-21T13:01:39Z</time>
      </trkpt>
      <trkpt lat="49.06927" lon="4.03858">
        <ele>161</ele>
        <time>2026-08-21T13:01:44Z</time>
      </trkpt>
      <trkpt lat="49.06927" lon="4.03858">
        <ele>161</ele>
        <time>2026-08-21T13:01:50Z</time>
      </trkpt>
      <trkpt lat="49.06927" lon="4.03858">
        <ele>161</ele>
        <time>2026-08-21T13:01:55Z</time>
      </trkpt>
      <trkpt lat="49.06927" lon="4.03858">
        <ele>161</ele>
        <time>2026-08-21T13:02:00Z</time>
      </trkpt>
      <trkpt lat="49.06927" lon="4.03858">
        <ele>161</ele>
        <time>2026-08-21T13:02:06Z</time>
      </trkpt>
      <trkpt lat="49.06927" lon="4.03858">
        <ele>161</ele>
        <time>2026-08-21T13:02:11Z</time>
      </trkpt>
      <trkpt lat="49.06927" lon="4.03858">
        <ele>161</ele>
        <time>2026-08-21T13:02:16Z</time>
      </trkpt>
      <trkpt lat="49.06927" lon="4.03858">
        <ele>161</ele>
        <time>2026-08-21T13:02:22Z</time>
      </trkpt>
      <trkpt lat="49.06927" lon="4.03858">
        <ele>161</ele>
        <time>2026-08-21T13:02:27Z</time>
      </trkpt>
      <trkpt lat="49.06927" lon="4.03858">
        <ele>161</ele>
        <time>2026-08-21T13:02:32Z</time>
      </trkpt>
      <trkpt lat="49.06927" lon="4.03858">
        <ele>161</ele>
        <time>2026-08-21T13:02:38Z</time>
      </trkpt>
      <trkpt lat="49.06927" lon="4.03858">
        <ele>161</ele>
        <time>2026-08-21T13:02:43Z</time>
      </trkpt>
      <trkpt lat="49.06927" lon="4.03858">
        <ele>161</ele>
        <time>2026-08-21T13:02:48Z</time>
      </trkpt>
      <trkpt lat="49.06927" lon="4.03858">
        <ele>161</ele>
        <time>2026-08-21T13:02:54Z</time>
      </trkpt>
      <trkpt lat="49.06927" lon="4.03858">
        <ele>161</ele>
        <time>2026-08-21T13:02:59Z</time>
      </trkpt>
      <trkpt lat="49.06927" lon="4.03858">
        <ele>161</ele>
        <time>2026-08-21T13:03:04Z</time>
      </trkpt>
      <trkpt lat="49.06927" lon="4.03858">
        <ele>161</ele>
        <time>2026-08-21T13:03:10Z</time>
      </trkpt>
      <trkpt lat="49.06927" lon="4.03858">
        <ele>161</ele>
        <time>2026-08-21T13:03:15Z</time>
      </trkpt>
      <trkpt lat="49.06927" lon="4.03858">
        <ele>161</ele>
        <time>2026-08-21T13:03:20Z</time>
      </trkpt>
      <trkpt lat="49.06932" lon="4.0385">
        <ele>161.5</ele>
        <time>2026-08-21T13:03:26Z</time>
      </trkpt>
      <trkpt lat="49.06933" lon="4.0385">
        <ele>161.6</ele>
        <time>2026-08-21T13:03:31Z</time>
      </trkpt>
      <trkpt lat="49.06933" lon="4.0385">
        <ele>161.6</ele>
        <time>2026-08-21T13:03:36Z</time>
      </trkpt>
      <trkpt lat="49.06941" lon="4.03862">
        <ele>161.8</ele>
        <time>2026-08-21T13:03:42Z</time>
      </trkpt>
      <trkpt lat="49.06943" lon="4.03866">
        <ele>161.8</ele>
        <time>2026-08-21T13:03:47Z</time>
      </trkpt>
      <trkpt lat="49.06945" lon="4.03872">
        <ele>161.8</ele>
        <time>2026-08-21T13:03:52Z</time>
      </trkpt>
      <trkpt lat="49.06945" lon="4.03879">
        <ele>161.6</ele>
        <time>2026-08-21T13:03:58Z</time>
      </trkpt>
      <trkpt lat="49.06943" lon="4.03882">
        <ele>161.4</ele>
        <time>2026-08-21T13:04:03Z</time>
      </trkpt>
      <trkpt lat="49.06943" lon="4.03882">
        <ele>161.4</ele>
        <time>2026-08-21T13:04:08Z</time>
      </trkpt>
      <trkpt lat="49.06943" lon="4.03882">
        <ele>161.4</ele>
        <time>2026-08-21T13:04:14Z</time>
      </trkpt>
      <trkpt lat="49.06943" lon="4.03882">
        <ele>161.4</ele>
        <time>2026-08-21T13:04:19Z</time>
      </trkpt>
      <trkpt lat="49.06943" lon="4.03882">
        <ele>161.4</ele>
        <time>2026-08-21T13:04:24Z</time>
      </trkpt>
      <trkpt lat="49.06943" lon="4.03882">
        <ele>161.4</ele>
        <time>2026-08-21T13:04:30Z</time>
      </trkpt>
      <trkpt lat="49.06943" lon="4.03882">
        <ele>161.4</ele>
        <time>2026-08-21T13:04:35Z</time>
      </trkpt>
      <trkpt lat="49.06943" lon="4.03882">
        <ele>161.4</ele>
        <time>2026-08-21T13:04:40Z</time>
      </trkpt>
      <trkpt lat="49.06943" lon="4.03882">
        <ele>161.4</ele>
        <time>2026-08-21T13:04:46Z</time>
      </trkpt>
      <trkpt lat="49.06943" lon="4.03882">
        <ele>161.4</ele>
        <time>2026-08-21T13:04:51Z</time>
      </trkpt>
      <trkpt lat="49.06943" lon="4.03882">
        <ele>161.4</ele>
        <time>2026-08-21T13:04:56Z</time>
      </trkpt>
      <trkpt lat="49.06943" lon="4.03882">
        <ele>161.4</ele>
        <time>2026-08-21T13:05:02Z</time>
      </trkpt>
      <trkpt lat="49.06943" lon="4.03882">
        <ele>161.4</ele>
        <time>2026-08-21T13:05:07Z</time>
      </trkpt>
      <trkpt lat="49.06943" lon="4.03882">
        <ele>161.4</ele>
        <time>2026-08-21T13:05:12Z</time>
      </trkpt>
      <trkpt lat="49.06943" lon="4.03882">
        <ele>161.4</ele>
        <time>2026-08-21T13:05:18Z</time>
      </trkpt>
      <trkpt lat="49.06943" lon="4.03882">
        <ele>161.4</ele>
        <time>2026-08-21T13:05:23Z</time>
      </trkpt>
      <trkpt lat="49.06943" lon="4.03882">
        <ele>161.4</ele>
        <time>2026-08-21T13:05:28Z</time>
      </trkpt>
      <trkpt lat="49.06943" lon="4.03882">
        <ele>161.4</ele>
        <time>2026-08-21T13:05:34Z</time>
      </trkpt>
      <trkpt lat="49.06943" lon="4.03882">
        <ele>161.4</ele>
        <time>2026-08-21T13:05:39Z</time>
      </trkpt>
      <trkpt lat="49.06943" lon="4.03882">
        <ele>161.4</ele>
        <time>2026-08-21T13:05:44Z</time>
      </trkpt>
      <trkpt lat="49.06943" lon="4.03882">
        <ele>161.4</ele>
        <time>2026-08-21T13:05:50Z</time>
      </trkpt>
      <trkpt lat="49.06943" lon="4.03882">
        <ele>161.4</ele>
        <time>2026-08-21T13:05:55Z</time>
      </trkpt>
      <trkpt lat="49.06943" lon="4.03882">
        <ele>161.4</ele>
        <time>2026-08-21T13:06:00Z</time>
      </trkpt>
      <trkpt lat="49.06943" lon="4.03882">
        <ele>161.4</ele>
        <time>2026-08-21T13:06:06Z</time>
      </trkpt>
      <trkpt lat="49.06943" lon="4.03882">
        <ele>161.4</ele>
        <time>2026-08-21T13:06:11Z</time>
      </trkpt>
      <trkpt lat="49.06943" lon="4.03882">
        <ele>161.4</ele>
        <time>2026-08-21T13:06:16Z</time>
      </trkpt>
      <trkpt lat="49.06943" lon="4.03882">
        <ele>161.4</ele>
        <time>2026-08-21T13:06:22Z</time>
      </trkpt>
      <trkpt lat="49.06943" lon="4.03882">
        <ele>161.4</ele>
        <time>2026-08-21T13:06:27Z</time>
      </trkpt>
      <trkpt lat="49.06943" lon="4.03882">
        <ele>161.4</ele>
        <time>2026-08-21T13:06:32Z</time>
      </trkpt>
      <trkpt lat="49.06943" lon="4.03882">
        <ele>161.4</ele>
        <time>2026-08-21T13:06:38Z</time>
      </trkpt>
      <trkpt lat="49.06943" lon="4.03882">
        <ele>161.4</ele>
        <time>2026-08-21T13:06:43Z</time>
      </trkpt>
      <trkpt lat="49.06943" lon="4.03882">
        <ele>161.4</ele>
        <time>2026-08-21T13:06:48Z</time>
      </trkpt>
      <trkpt lat="49.06943" lon="4.03882">
        <ele>161.4</ele>
        <time>2026-08-21T13:06:54Z</time>
      </trkpt>
      <trkpt lat="49.06943" lon="4.03882">
        <ele>161.4</ele>
        <time>2026-08-21T13:06:59Z</time>
      </trkpt>
      <trkpt lat="49.06943" lon="4.03882">
        <ele>161.4</ele>
        <time>2026-08-21T13:07:04Z</time>
      </trkpt>
      <trkpt lat="49.06943" lon="4.03882">
        <ele>161.4</ele>
        <time>2026-08-21T13:07:10Z</time>
      </trkpt>
      <trkpt lat="49.06943" lon="4.03882">
        <ele>161.4</ele>
        <time>2026-08-21T13:07:15Z</time>
      </trkpt>
      <trkpt lat="49.06943" lon="4.03882">
        <ele>161.4</ele>
        <time>2026-08-21T13:07:20Z</time>
      </trkpt>
      <trkpt lat="49.06943" lon="4.03882">
        <ele>161.4</ele>
        <time>2026-08-21T13:07:26Z</time>
      </trkpt>
      <trkpt lat="49.06943" lon="4.03882">
        <ele>161.4</ele>
        <time>2026-08-21T13:07:31Z</time>
      </trkpt>
      <trkpt lat="49.06943" lon="4.03882">
        <ele>161.4</ele>
        <time>2026-08-21T13:07:36Z</time>
      </trkpt>
      <trkpt lat="49.06943" lon="4.03882">
        <ele>161.4</ele>
        <time>2026-08-21T13:07:42Z</time>
      </trkpt>
      <trkpt lat="49.06943" lon="4.03882">
        <ele>161.4</ele>
        <time>2026-08-21T13:07:47Z</time>
      </trkpt>
      <trkpt lat="49.06943" lon="4.03882">
        <ele>161.4</ele>
        <time>2026-08-21T13:07:52Z</time>
      </trkpt>
      <trkpt lat="49.06943" lon="4.03882">
        <ele>161.4</ele>
        <time>2026-08-21T13:07:58Z</time>
      </trkpt>
      <trkpt lat="49.06953" lon="4.0389">
        <ele>161.8</ele>
        <time>2026-08-21T13:08:03Z</time>
      </trkpt>
      <trkpt lat="49.06956" lon="4.03896">
        <ele>161.9</ele>
        <time>2026-08-21T13:08:08Z</time>
      </trkpt>
      <trkpt lat="49.0696" lon="4.03903">
        <ele>161.9</ele>
        <time>2026-08-21T13:08:14Z</time>
      </trkpt>
      <trkpt lat="49.06963" lon="4.03909">
        <ele>162</ele>
        <time>2026-08-21T13:08:19Z</time>
      </trkpt>
      <trkpt lat="49.06966" lon="4.03917">
        <ele>161.9</ele>
        <time>2026-08-21T13:08:24Z</time>
      </trkpt>
      <trkpt lat="49.06971" lon="4.03927">
        <ele>161.6</ele>
        <time>2026-08-21T13:08:30Z</time>
      </trkpt>
      <trkpt lat="49.06973" lon="4.03933">
        <ele>161.4</ele>
        <time>2026-08-21T13:08:35Z</time>
      </trkpt>
      <trkpt lat="49.06977" lon="4.03938">
        <ele>161.3</ele>
        <time>2026-08-21T13:08:40Z</time>
      </trkpt>
      <trkpt lat="49.06981" lon="4.03945">
        <ele>161.2</ele>
        <time>2026-08-21T13:08:46Z</time>
      </trkpt>
      <trkpt lat="49.06985" lon="4.0395">
        <ele>161.1</ele>
        <time>2026-08-21T13:08:51Z</time>
      </trkpt>
      <trkpt lat="49.06989" lon="4.03954">
        <ele>161.1</ele>
        <time>2026-08-21T13:08:56Z</time>
      </trkpt>
      <trkpt lat="49.06994" lon="4.03961">
        <ele>161</ele>
        <time>2026-08-21T13:09:02Z</time>
      </trkpt>
      <trkpt lat="49.06998" lon="4.03966">
        <ele>160.9</ele>
        <time>2026-08-21T13:09:07Z</time>
      </trkpt>
      <trkpt lat="49.07003" lon="4.0397">
        <ele>160.2</ele>
        <time>2026-08-21T13:09:12Z</time>
      </trkpt>
      <trkpt lat="49.07005" lon="4.03976">
        <ele>159.4</ele>
        <time>2026-08-21T13:09:18Z</time>
      </trkpt>
      <trkpt lat="49.07007" lon="4.03981">
        <ele>158.7</ele>
        <time>2026-08-21T13:09:23Z</time>
      </trkpt>
      <trkpt lat="49.07008" lon="4.03985">
        <ele>158.3</ele>
        <time>2026-08-21T13:09:28Z</time>
      </trkpt>
      <trkpt lat="49.0701" lon="4.03994">
        <ele>157.3</ele>
        <time>2026-08-21T13:09:34Z</time>
      </trkpt>
      <trkpt lat="49.07012" lon="4.04002">
        <ele>156.4</ele>
        <time>2026-08-21T13:09:39Z</time>
      </trkpt>
      <trkpt lat="49.07014" lon="4.04009">
        <ele>155.6</ele>
        <time>2026-08-21T13:09:44Z</time>
      </trkpt>
      <trkpt lat="49.07015" lon="4.04019">
        <ele>154.8</ele>
        <time>2026-08-21T13:09:50Z</time>
      </trkpt>
      <trkpt lat="49.07016" lon="4.04027">
        <ele>154.1</ele>
        <time>2026-08-21T13:09:55Z</time>
      </trkpt>
      <trkpt lat="49.07017" lon="4.04034">
        <ele>153.4</ele>
        <time>2026-08-21T13:10:00Z</time>
      </trkpt>
      <trkpt lat="49.07019" lon="4.04041">
        <ele>152.6</ele>
        <time>2026-08-21T13:10:06Z</time>
      </trkpt>
      <trkpt lat="49.0702" lon="4.04049">
        <ele>151.8</ele>
        <time>2026-08-21T13:10:11Z</time>
      </trkpt>
      <trkpt lat="49.07022" lon="4.04057">
        <ele>150.9</ele>
        <time>2026-08-21T13:10:16Z</time>
      </trkpt>
      <trkpt lat="49.07027" lon="4.04064">
        <ele>149.4</ele>
        <time>2026-08-21T13:10:22Z</time>
      </trkpt>
      <trkpt lat="49.07031" lon="4.04073">
        <ele>148</ele>
        <time>2026-08-21T13:10:27Z</time>
      </trkpt>
      <trkpt lat="49.07032" lon="4.0408">
        <ele>147.3</ele>
        <time>2026-08-21T13:10:32Z</time>
      </trkpt>
      <trkpt lat="49.07033" lon="4.04081">
        <ele>147</ele>
        <time>2026-08-21T13:10:38Z</time>
      </trkpt>
      <trkpt lat="49.07033" lon="4.04081">
        <ele>147</ele>
        <time>2026-08-21T13:10:43Z</time>
      </trkpt>
      <trkpt lat="49.07033" lon="4.04081">
        <ele>147</ele>
        <time>2026-08-21T13:10:48Z</time>
      </trkpt>
      <trkpt lat="49.07033" lon="4.04081">
        <ele>147</ele>
        <time>2026-08-21T13:10:54Z</time>
      </trkpt>
      <trkpt lat="49.07033" lon="4.04081">
        <ele>147</ele>
        <time>2026-08-21T13:10:59Z</time>
      </trkpt>
      <trkpt lat="49.07033" lon="4.04081">
        <ele>147</ele>
        <time>2026-08-21T13:11:04Z</time>
      </trkpt>
      <trkpt lat="49.07033" lon="4.04081">
        <ele>147</ele>
        <time>2026-08-21T13:11:10Z</time>
      </trkpt>
      <trkpt lat="49.07033" lon="4.04081">
        <ele>147</ele>
        <time>2026-08-21T13:11:15Z</time>
      </trkpt>
      <trkpt lat="49.07033" lon="4.04081">
        <ele>147</ele>
        <time>2026-08-21T13:11:20Z</time>
      </trkpt>
      <trkpt lat="49.07035" lon="4.04088">
        <ele>146.2</ele>
        <time>2026-08-21T13:11:26Z</time>
      </trkpt>
      <trkpt lat="49.07035" lon="4.04088">
        <ele>146.2</ele>
        <time>2026-08-21T13:11:31Z</time>
      </trkpt>
      <trkpt lat="49.07035" lon="4.04088">
        <ele>146.2</ele>
        <time>2026-08-21T13:11:36Z</time>
      </trkpt>
      <trkpt lat="49.07035" lon="4.04088">
        <ele>146.2</ele>
        <time>2026-08-21T13:11:42Z</time>
      </trkpt>
      <trkpt lat="49.07035" lon="4.04088">
        <ele>146.2</ele>
        <time>2026-08-21T13:11:47Z</time>
      </trkpt>
      <trkpt lat="49.07035" lon="4.04088">
        <ele>146.2</ele>
        <time>2026-08-21T13:11:52Z</time>
      </trkpt>
      <trkpt lat="49.07035" lon="4.04088">
        <ele>146.2</ele>
        <time>2026-08-21T13:11:58Z</time>
      </trkpt>
      <trkpt lat="49.07035" lon="4.04088">
        <ele>146.2</ele>
        <time>2026-08-21T13:12:03Z</time>
      </trkpt>
      <trkpt lat="49.07035" lon="4.04088">
        <ele>146.2</ele>
        <time>2026-08-21T13:12:08Z</time>
      </trkpt>
      <trkpt lat="49.07035" lon="4.04088">
        <ele>146.2</ele>
        <time>2026-08-21T13:12:14Z</time>
      </trkpt>
      <trkpt lat="49.07035" lon="4.04088">
        <ele>146.2</ele>
        <time>2026-08-21T13:12:19Z</time>
      </trkpt>
      <trkpt lat="49.07035" lon="4.04088">
        <ele>146.2</ele>
        <time>2026-08-21T13:12:24Z</time>
      </trkpt>
      <trkpt lat="49.07035" lon="4.04088">
        <ele>146.2</ele>
        <time>2026-08-21T13:12:30Z</time>
      </trkpt>
      <trkpt lat="49.07035" lon="4.04088">
        <ele>146.2</ele>
        <time>2026-08-21T13:12:35Z</time>
      </trkpt>
      <trkpt lat="49.07035" lon="4.04088">
        <ele>146.2</ele>
        <time>2026-08-21T13:12:40Z</time>
      </trkpt>
      <trkpt lat="49.07035" lon="4.04088">
        <ele>146.2</ele>
        <time>2026-08-21T13:12:46Z</time>
      </trkpt>
      <trkpt lat="49.07035" lon="4.04088">
        <ele>146.2</ele>
        <time>2026-08-21T13:12:51Z</time>
      </trkpt>
      <trkpt lat="49.07035" lon="4.04088">
        <ele>146.2</ele>
        <time>2026-08-21T13:12:56Z</time>
      </trkpt>
      <trkpt lat="49.07035" lon="4.04088">
        <ele>146.2</ele>
        <time>2026-08-21T13:13:02Z</time>
      </trkpt>
      <trkpt lat="49.07035" lon="4.04088">
        <ele>146.2</ele>
        <time>2026-08-21T13:13:07Z</time>
      </trkpt>
      <trkpt lat="49.07035" lon="4.04088">
        <ele>146.2</ele>
        <time>2026-08-21T13:13:12Z</time>
      </trkpt>
      <trkpt lat="49.07035" lon="4.04088">
        <ele>146.2</ele>
        <time>2026-08-21T13:13:18Z</time>
      </trkpt>
      <trkpt lat="49.07035" lon="4.04088">
        <ele>146.2</ele>
        <time>2026-08-21T13:13:23Z</time>
      </trkpt>
      <trkpt lat="49.07035" lon="4.04088">
        <ele>146.2</ele>
        <time>2026-08-21T13:13:28Z</time>
      </trkpt>
      <trkpt lat="49.07035" lon="4.04088">
        <ele>146.2</ele>
        <time>2026-08-21T13:13:34Z</time>
      </trkpt>
      <trkpt lat="49.07035" lon="4.04088">
        <ele>146.2</ele>
        <time>2026-08-21T13:13:39Z</time>
      </trkpt>
      <trkpt lat="49.07035" lon="4.04088">
        <ele>146.2</ele>
        <time>2026-08-21T13:13:44Z</time>
      </trkpt>
      <trkpt lat="49.07035" lon="4.04088">
        <ele>146.2</ele>
        <time>2026-08-21T13:13:50Z</time>
      </trkpt>
      <trkpt lat="49.07035" lon="4.04088">
        <ele>146.2</ele>
        <time>2026-08-21T13:13:55Z</time>
      </trkpt>
      <trkpt lat="49.07035" lon="4.04088">
        <ele>146.2</ele>
        <time>2026-08-21T13:14:00Z</time>
      </trkpt>
      <trkpt lat="49.07035" lon="4.04088">
        <ele>146.2</ele>
        <time>2026-08-21T13:14:06Z</time>
      </trkpt>
      <trkpt lat="49.07035" lon="4.04088">
        <ele>146.2</ele>
        <time>2026-08-21T13:14:11Z</time>
      </trkpt>
      <trkpt lat="49.07035" lon="4.04088">
        <ele>146.2</ele>
        <time>2026-08-21T13:14:16Z</time>
      </trkpt>
      <trkpt lat="49.07035" lon="4.04088">
        <ele>146.2</ele>
        <time>2026-08-21T13:14:22Z</time>
      </trkpt>
      <trkpt lat="49.07035" lon="4.04088">
        <ele>146.2</ele>
        <time>2026-08-21T13:14:27Z</time>
      </trkpt>
      <trkpt lat="49.07038" lon="4.04091">
        <ele>145.4</ele>
        <time>2026-08-21T13:14:32Z</time>
      </trkpt>
      <trkpt lat="49.0704" lon="4.041">
        <ele>144.6</ele>
        <time>2026-08-21T13:14:38Z</time>
      </trkpt>
      <trkpt lat="49.07044" lon="4.04107">
        <ele>143.6</ele>
        <time>2026-08-21T13:14:43Z</time>
      </trkpt>
      <trkpt lat="49.07047" lon="4.04115">
        <ele>142.7</ele>
        <time>2026-08-21T13:14:48Z</time>
      </trkpt>
      <trkpt lat="49.0705" lon="4.04124">
        <ele>141.9</ele>
        <time>2026-08-21T13:14:54Z</time>
      </trkpt>
      <trkpt lat="49.07053" lon="4.04133">
        <ele>141.2</ele>
        <time>2026-08-21T13:14:59Z</time>
      </trkpt>
      <trkpt lat="49.07056" lon="4.04142">
        <ele>140.5</ele>
        <time>2026-08-21T13:15:04Z</time>
      </trkpt>
      <trkpt lat="49.0706" lon="4.04151">
        <ele>139.8</ele>
        <time>2026-08-21T13:15:10Z</time>
      </trkpt>
      <trkpt lat="49.07063" lon="4.04157">
        <ele>139.3</ele>
        <time>2026-08-21T13:15:15Z</time>
      </trkpt>
      <trkpt lat="49.07067" lon="4.04163">
        <ele>138.8</ele>
        <time>2026-08-21T13:15:20Z</time>
      </trkpt>
      <trkpt lat="49.07072" lon="4.04172">
        <ele>138.3</ele>
        <time>2026-08-21T13:15:26Z</time>
      </trkpt>
      <trkpt lat="49.07076" lon="4.04179">
        <ele>138.1</ele>
        <time>2026-08-21T13:15:31Z</time>
      </trkpt>
      <trkpt lat="49.0708" lon="4.04186">
        <ele>138</ele>
        <time>2026-08-21T13:15:36Z</time>
      </trkpt>
      <trkpt lat="49.07084" lon="4.04195">
        <ele>137.8</ele>
        <time>2026-08-21T13:15:42Z</time>
      </trkpt>
      <trkpt lat="49.07087" lon="4.04203">
        <ele>137</ele>
        <time>2026-08-21T13:15:47Z</time>
      </trkpt>
      <trkpt lat="49.07091" lon="4.04212">
        <ele>135.9</ele>
        <time>2026-08-21T13:15:52Z</time>
      </trkpt>
      <trkpt lat="49.07093" lon="4.04222">
        <ele>135.5</ele>
        <time>2026-08-21T13:15:58Z</time>
      </trkpt>
      <trkpt lat="49.07096" lon="4.0423">
        <ele>134.7</ele>
        <time>2026-08-21T13:16:03Z</time>
      </trkpt>
      <trkpt lat="49.07098" lon="4.0424">
        <ele>134.2</ele>
        <time>2026-08-21T13:16:08Z</time>
      </trkpt>
      <trkpt lat="49.07099" lon="4.04249">
        <ele>134.1</ele>
        <time>2026-08-21T13:16:14Z</time>
      </trkpt>
      <trkpt lat="49.07101" lon="4.04256">
        <ele>132.6</ele>
        <time>2026-08-21T13:16:19Z</time>
      </trkpt>
      <trkpt lat="49.07101" lon="4.04264">
        <ele>131.6</ele>
        <time>2026-08-21T13:16:24Z</time>
      </trkpt>
      <trkpt lat="49.07102" lon="4.04276">
        <ele>129.6</ele>
        <time>2026-08-21T13:16:30Z</time>
      </trkpt>
      <trkpt lat="49.07102" lon="4.04278">
        <ele>129.4</ele>
        <time>2026-08-21T13:16:35Z</time>
      </trkpt>
      <trkpt lat="49.07102" lon="4.04278">
        <ele>129.4</ele>
        <time>2026-08-21T13:16:40Z</time>
      </trkpt>
      <trkpt lat="49.07103" lon="4.04284">
        <ele>128.2</ele>
        <time>2026-08-21T13:16:46Z</time>
      </trkpt>
      <trkpt lat="49.07104" lon="4.04292">
        <ele>126.9</ele>
        <time>2026-08-21T13:16:51Z</time>
      </trkpt>
      <trkpt lat="49.07105" lon="4.04295">
        <ele>126.2</ele>
        <time>2026-08-21T13:16:56Z</time>
      </trkpt>
      <trkpt lat="49.07106" lon="4.04297">
        <ele>125.6</ele>
        <time>2026-08-21T13:17:02Z</time>
      </trkpt>
      <trkpt lat="49.07106" lon="4.04297">
        <ele>125.6</ele>
        <time>2026-08-21T13:17:07Z</time>
      </trkpt>
      <trkpt lat="49.07106" lon="4.04298">
        <ele>125.5</ele>
        <time>2026-08-21T13:17:12Z</time>
      </trkpt>
      <trkpt lat="49.07112" lon="4.04308">
        <ele>122.4</ele>
        <time>2026-08-21T13:17:18Z</time>
      </trkpt>
      <trkpt lat="49.07116" lon="4.04313">
        <ele>120.7</ele>
        <time>2026-08-21T13:17:23Z</time>
      </trkpt>
      <trkpt lat="49.07121" lon="4.0432">
        <ele>118.5</ele>
        <time>2026-08-21T13:17:28Z</time>
      </trkpt>
      <trkpt lat="49.07127" lon="4.04328">
        <ele>116</ele>
        <time>2026-08-21T13:17:34Z</time>
      </trkpt>
      <trkpt lat="49.07131" lon="4.04334">
        <ele>114.3</ele>
        <time>2026-08-21T13:17:39Z</time>
      </trkpt>
      <trkpt lat="49.07133" lon="4.04336">
        <ele>113.6</ele>
        <time>2026-08-21T13:17:44Z</time>
      </trkpt>
      <trkpt lat="49.07133" lon="4.04336">
        <ele>113.6</ele>
        <time>2026-08-21T13:17:50Z</time>
      </trkpt>
      <trkpt lat="49.07133" lon="4.04336">
        <ele>113.6</ele>
        <time>2026-08-21T13:17:55Z</time>
      </trkpt>
      <trkpt lat="49.07133" lon="4.04336">
        <ele>113.6</ele>
        <time>2026-08-21T13:18:00Z</time>
      </trkpt>
      <trkpt lat="49.07133" lon="4.04336">
        <ele>113.6</ele>
        <time>2026-08-21T13:18:06Z</time>
      </trkpt>
      <trkpt lat="49.07133" lon="4.04336">
        <ele>113.6</ele>
        <time>2026-08-21T13:18:11Z</time>
      </trkpt>
      <trkpt lat="49.07133" lon="4.04336">
        <ele>113.6</ele>
        <time>2026-08-21T13:18:16Z</time>
      </trkpt>
      <trkpt lat="49.07133" lon="4.04336">
        <ele>113.6</ele>
        <time>2026-08-21T13:18:22Z</time>
      </trkpt>
      <trkpt lat="49.07133" lon="4.04336">
        <ele>113.6</ele>
        <time>2026-08-21T13:18:27Z</time>
      </trkpt>
      <trkpt lat="49.07133" lon="4.04336">
        <ele>113.6</ele>
        <time>2026-08-21T13:18:32Z</time>
      </trkpt>
      <trkpt lat="49.07137" lon="4.04343">
        <ele>111.9</ele>
        <time>2026-08-21T13:18:38Z</time>
      </trkpt>
      <trkpt lat="49.07143" lon="4.04349">
        <ele>109.9</ele>
        <time>2026-08-21T13:18:43Z</time>
      </trkpt>
      <trkpt lat="49.07147" lon="4.04357">
        <ele>108.4</ele>
        <time>2026-08-21T13:18:48Z</time>
      </trkpt>
      <trkpt lat="49.07152" lon="4.04364">
        <ele>107</ele>
        <time>2026-08-21T13:18:54Z</time>
      </trkpt>
      <trkpt lat="49.07157" lon="4.0437">
        <ele>105.8</ele>
        <time>2026-08-21T13:18:59Z</time>
      </trkpt>
      <trkpt lat="49.07162" lon="4.04376">
        <ele>104.7</ele>
        <time>2026-08-21T13:19:04Z</time>
      </trkpt>
      <trkpt lat="49.07168" lon="4.04382">
        <ele>103.9</ele>
        <time>2026-08-21T13:19:10Z</time>
      </trkpt>
      <trkpt lat="49.07173" lon="4.04389">
        <ele>103.8</ele>
        <time>2026-08-21T13:19:15Z</time>
      </trkpt>
      <trkpt lat="49.07177" lon="4.04395">
        <ele>103.8</ele>
        <time>2026-08-21T13:19:20Z</time>
      </trkpt>
      <trkpt lat="49.07182" lon="4.04401">
        <ele>103.8</ele>
        <time>2026-08-21T13:19:26Z</time>
      </trkpt>
      <trkpt lat="49.07187" lon="4.04408">
        <ele>103.9</ele>
        <time>2026-08-21T13:19:31Z</time>
      </trkpt>
      <trkpt lat="49.07192" lon="4.04414">
        <ele>103.9</ele>
        <time>2026-08-21T13:19:36Z</time>
      </trkpt>
      <trkpt lat="49.07196" lon="4.04422">
        <ele>103.7</ele>
        <time>2026-08-21T13:19:42Z</time>
      </trkpt>
      <trkpt lat="49.07198" lon="4.0443">
        <ele>103.3</ele>
        <time>2026-08-21T13:19:47Z</time>
      </trkpt>
      <trkpt lat="49.07198" lon="4.04438">
        <ele>102.8</ele>
        <time>2026-08-21T13:19:52Z</time>
      </trkpt>
      <trkpt lat="49.07199" lon="4.04443">
        <ele>102.6</ele>
        <time>2026-08-21T13:19:58Z</time>
      </trkpt>
      <trkpt lat="49.07198" lon="4.04445">
        <ele>102.4</ele>
        <time>2026-08-21T13:20:03Z</time>
      </trkpt>
      <trkpt lat="49.07198" lon="4.04445">
        <ele>102.4</ele>
        <time>2026-08-21T13:20:08Z</time>
      </trkpt>
      <trkpt lat="49.07198" lon="4.04445">
        <ele>102.4</ele>
        <time>2026-08-21T13:20:14Z</time>
      </trkpt>
      <trkpt lat="49.07194" lon="4.04454">
        <ele>101.6</ele>
        <time>2026-08-21T13:20:19Z</time>
      </trkpt>
      <trkpt lat="49.07194" lon="4.0446">
        <ele>101.2</ele>
        <time>2026-08-21T13:20:24Z</time>
      </trkpt>
      <trkpt lat="49.0719" lon="4.04469">
        <ele>100.3</ele>
        <time>2026-08-21T13:20:30Z</time>
      </trkpt>
      <trkpt lat="49.07189" lon="4.04483">
        <ele>99.3</ele>
        <time>2026-08-21T13:20:35Z</time>
      </trkpt>
      <trkpt lat="49.07187" lon="4.04493">
        <ele>98.4</ele>
        <time>2026-08-21T13:20:40Z</time>
      </trkpt>
      <trkpt lat="49.07186" lon="4.04505">
        <ele>97.7</ele>
        <time>2026-08-21T13:20:46Z</time>
      </trkpt>
      <trkpt lat="49.07185" lon="4.04513">
        <ele>97.4</ele>
        <time>2026-08-21T13:20:51Z</time>
      </trkpt>
      <trkpt lat="49.07183" lon="4.04522">
        <ele>97</ele>
        <time>2026-08-21T13:20:56Z</time>
      </trkpt>
      <trkpt lat="49.07182" lon="4.04532">
        <ele>96.6</ele>
        <time>2026-08-21T13:21:02Z</time>
      </trkpt>
      <trkpt lat="49.07181" lon="4.04541">
        <ele>96.3</ele>
        <time>2026-08-21T13:21:07Z</time>
      </trkpt>
      <trkpt lat="49.07181" lon="4.0455">
        <ele>96.1</ele>
        <time>2026-08-21T13:21:12Z</time>
      </trkpt>
      <trkpt lat="49.07177" lon="4.0456">
        <ele>95.5</ele>
        <time>2026-08-21T13:21:18Z</time>
      </trkpt>
      <trkpt lat="49.07174" lon="4.04571">
        <ele>94.9</ele>
        <time>2026-08-21T13:21:23Z</time>
      </trkpt>
      <trkpt lat="49.07173" lon="4.0458">
        <ele>94.6</ele>
        <time>2026-08-21T13:21:28Z</time>
      </trkpt>
      <trkpt lat="49.07172" lon="4.0459">
        <ele>94.4</ele>
        <time>2026-08-21T13:21:34Z</time>
      </trkpt>
      <trkpt lat="49.07172" lon="4.04595">
        <ele>94.3</ele>
        <time>2026-08-21T13:21:39Z</time>
      </trkpt>
      <trkpt lat="49.07171" lon="4.04597">
        <ele>94.2</ele>
        <time>2026-08-21T13:21:44Z</time>
      </trkpt>
      <trkpt lat="49.07171" lon="4.04597">
        <ele>94.2</ele>
        <time>2026-08-21T13:21:50Z</time>
      </trkpt>
      <trkpt lat="49.07171" lon="4.04597">
        <ele>94.2</ele>
        <time>2026-08-21T13:21:55Z</time>
      </trkpt>
      <trkpt lat="49.07171" lon="4.04597">
        <ele>94.2</ele>
        <time>2026-08-21T13:22:00Z</time>
      </trkpt>
      <trkpt lat="49.07171" lon="4.04597">
        <ele>94.2</ele>
        <time>2026-08-21T13:22:06Z</time>
      </trkpt>
      <trkpt lat="49.07166" lon="4.04608">
        <ele>93.7</ele>
        <time>2026-08-21T13:22:11Z</time>
      </trkpt>
      <trkpt lat="49.07163" lon="4.04615">
        <ele>93.4</ele>
        <time>2026-08-21T13:22:16Z</time>
      </trkpt>
      <trkpt lat="49.07159" lon="4.04625">
        <ele>93.1</ele>
        <time>2026-08-21T13:22:22Z</time>
      </trkpt>
      <trkpt lat="49.07153" lon="4.04631">
        <ele>92.7</ele>
        <time>2026-08-21T13:22:27Z</time>
      </trkpt>
      <trkpt lat="49.07149" lon="4.04639">
        <ele>92.3</ele>
        <time>2026-08-21T13:22:32Z</time>
      </trkpt>
      <trkpt lat="49.07146" lon="4.04646">
        <ele>92.1</ele>
        <time>2026-08-21T13:22:38Z</time>
      </trkpt>
      <trkpt lat="49.07142" lon="4.04654">
        <ele>91.7</ele>
        <time>2026-08-21T13:22:43Z</time>
      </trkpt>
      <trkpt lat="49.07136" lon="4.04663">
        <ele>91.2</ele>
        <time>2026-08-21T13:22:48Z</time>
      </trkpt>
      <trkpt lat="49.07133" lon="4.04674">
        <ele>90.9</ele>
        <time>2026-08-21T13:22:54Z</time>
      </trkpt>
      <trkpt lat="49.07132" lon="4.04682">
        <ele>90.7</ele>
        <time>2026-08-21T13:22:59Z</time>
      </trkpt>
      <trkpt lat="49.07127" lon="4.04691">
        <ele>90.3</ele>
        <time>2026-08-21T13:23:04Z</time>
      </trkpt>
      <trkpt lat="49.07122" lon="4.04701">
        <ele>89.9</ele>
        <time>2026-08-21T13:23:10Z</time>
      </trkpt>
      <trkpt lat="49.07118" lon="4.0471">
        <ele>89.6</ele>
        <time>2026-08-21T13:23:15Z</time>
      </trkpt>
      <trkpt lat="49.07116" lon="4.04718">
        <ele>89.5</ele>
        <time>2026-08-21T13:23:20Z</time>
      </trkpt>
      <trkpt lat="49.07113" lon="4.04729">
        <ele>89.2</ele>
        <time>2026-08-21T13:23:26Z</time>
      </trkpt>
      <trkpt lat="49.0711" lon="4.04736">
        <ele>89.1</ele>
        <time>2026-08-21T13:23:31Z</time>
      </trkpt>
      <trkpt lat="49.07106" lon="4.04741">
        <ele>88.9</ele>
        <time>2026-08-21T13:23:36Z</time>
      </trkpt>
      <trkpt lat="49.07103" lon="4.04745">
        <ele>88.7</ele>
        <time>2026-08-21T13:23:42Z</time>
      </trkpt>
      <trkpt lat="49.07098" lon="4.04754">
        <ele>88.4</ele>
        <time>2026-08-21T13:23:47Z</time>
      </trkpt>
      <trkpt lat="49.07094" lon="4.04764">
        <ele>88</ele>
        <time>2026-08-21T13:23:52Z</time>
      </trkpt>
      <trkpt lat="49.07089" lon="4.04772">
        <ele>87.7</ele>
        <time>2026-08-21T13:23:58Z</time>
      </trkpt>
      <trkpt lat="49.07085" lon="4.04779">
        <ele>87.4</ele>
        <time>2026-08-21T13:24:03Z</time>
      </trkpt>
      <trkpt lat="49.07081" lon="4.04788">
        <ele>87</ele>
        <time>2026-08-21T13:24:08Z</time>
      </trkpt>
      <trkpt lat="49.0708" lon="4.04795">
        <ele>86.8</ele>
        <time>2026-08-21T13:24:14Z</time>
      </trkpt>
      <trkpt lat="49.07076" lon="4.04806">
        <ele>86.4</ele>
        <time>2026-08-21T13:24:19Z</time>
      </trkpt>
      <trkpt lat="49.07067" lon="4.04813">
        <ele>86</ele>
        <time>2026-08-21T13:24:24Z</time>
      </trkpt>
      <trkpt lat="49.07061" lon="4.04807">
        <ele>86</ele>
        <time>2026-08-21T13:24:30Z</time>
      </trkpt>
      <trkpt lat="49.07058" lon="4.04804">
        <ele>86</ele>
        <time>2026-08-21T13:24:35Z</time>
      </trkpt>
      <trkpt lat="49.07057" lon="4.04803">
        <ele>86</ele>
        <time>2026-08-21T13:24:40Z</time>
      </trkpt>
      <trkpt lat="49.07055" lon="4.04796">
        <ele>86.2</ele>
        <time>2026-08-21T13:24:46Z</time>
      </trkpt>
      <trkpt lat="49.0705" lon="4.04795">
        <ele>86.1</ele>
        <time>2026-08-21T13:24:51Z</time>
      </trkpt>
      <trkpt lat="49.07044" lon="4.04798">
        <ele>85.8</ele>
        <time>2026-08-21T13:24:56Z</time>
      </trkpt>
      <trkpt lat="49.0704" lon="4.04803">
        <ele>85.5</ele>
        <time>2026-08-21T13:25:02Z</time>
      </trkpt>
      <trkpt lat="49.0704" lon="4.04803">
        <ele>85.5</ele>
        <time>2026-08-21T13:25:07Z</time>
      </trkpt>
      <trkpt lat="49.0704" lon="4.04803">
        <ele>85.5</ele>
        <time>2026-08-21T13:25:12Z</time>
      </trkpt>
      <trkpt lat="49.0704" lon="4.04803">
        <ele>85.5</ele>
        <time>2026-08-21T13:25:18Z</time>
      </trkpt>
      <trkpt lat="49.0704" lon="4.04803">
        <ele>85.5</ele>
        <time>2026-08-21T13:25:23Z</time>
      </trkpt>
      <trkpt lat="49.0704" lon="4.04803">
        <ele>85.5</ele>
        <time>2026-08-21T13:25:28Z</time>
      </trkpt>
      <trkpt lat="49.07035" lon="4.04811">
        <ele>85.1</ele>
        <time>2026-08-21T13:25:34Z</time>
      </trkpt>
      <trkpt lat="49.07035" lon="4.04811">
        <ele>85.1</ele>
        <time>2026-08-21T13:25:39Z</time>
      </trkpt>
      <trkpt lat="49.07035" lon="4.04811">
        <ele>85.1</ele>
        <time>2026-08-21T13:25:44Z</time>
      </trkpt>
      <trkpt lat="49.07035" lon="4.04811">
        <ele>85.1</ele>
        <time>2026-08-21T13:25:50Z</time>
      </trkpt>
      <trkpt lat="49.07035" lon="4.04811">
        <ele>85.1</ele>
        <time>2026-08-21T13:25:55Z</time>
      </trkpt>
      <trkpt lat="49.07031" lon="4.04821">
        <ele>84.6</ele>
        <time>2026-08-21T13:26:00Z</time>
      </trkpt>
      <trkpt lat="49.07024" lon="4.04828">
        <ele>84.1</ele>
        <time>2026-08-21T13:26:06Z</time>
      </trkpt>
      <trkpt lat="49.07022" lon="4.04828">
        <ele>84</ele>
        <time>2026-08-21T13:26:11Z</time>
      </trkpt>
      <trkpt lat="49.07018" lon="4.04832">
        <ele>83.7</ele>
        <time>2026-08-21T13:26:16Z</time>
      </trkpt>
      <trkpt lat="49.07011" lon="4.04834">
        <ele>83.4</ele>
        <time>2026-08-21T13:26:22Z</time>
      </trkpt>
      <trkpt lat="49.07007" lon="4.04831">
        <ele>83.4</ele>
        <time>2026-08-21T13:26:27Z</time>
      </trkpt>
      <trkpt lat="49.07002" lon="4.04827">
        <ele>83.4</ele>
        <time>2026-08-21T13:26:32Z</time>
      </trkpt>
      <trkpt lat="49.06999" lon="4.04827">
        <ele>83.3</ele>
        <time>2026-08-21T13:26:38Z</time>
      </trkpt>
      <trkpt lat="49.06997" lon="4.04828">
        <ele>83.2</ele>
        <time>2026-08-21T13:26:43Z</time>
      </trkpt>
      <trkpt lat="49.06997" lon="4.04828">
        <ele>83.2</ele>
        <time>2026-08-21T13:26:48Z</time>
      </trkpt>
      <trkpt lat="49.06997" lon="4.04828">
        <ele>83.2</ele>
        <time>2026-08-21T13:26:54Z</time>
      </trkpt>
      <trkpt lat="49.06997" lon="4.04828">
        <ele>83.2</ele>
        <time>2026-08-21T13:26:59Z</time>
      </trkpt>
      <trkpt lat="49.06997" lon="4.04828">
        <ele>83.2</ele>
        <time>2026-08-21T13:27:04Z</time>
      </trkpt>
      <trkpt lat="49.06997" lon="4.04828">
        <ele>83.2</ele>
        <time>2026-08-21T13:27:10Z</time>
      </trkpt>
      <trkpt lat="49.06997" lon="4.04828">
        <ele>83.2</ele>
        <time>2026-08-21T13:27:15Z</time>
      </trkpt>
      <trkpt lat="49.06997" lon="4.04828">
        <ele>83.2</ele>
        <time>2026-08-21T13:27:20Z</time>
      </trkpt>
      <trkpt lat="49.06997" lon="4.04828">
        <ele>83.2</ele>
        <time>2026-08-21T13:27:26Z</time>
      </trkpt>
      <trkpt lat="49.06997" lon="4.04828">
        <ele>83.2</ele>
        <time>2026-08-21T13:27:31Z</time>
      </trkpt>
      <trkpt lat="49.06989" lon="4.04819">
        <ele>83.5</ele>
        <time>2026-08-21T13:27:36Z</time>
      </trkpt>
      <trkpt lat="49.06984" lon="4.04815">
        <ele>83.6</ele>
        <time>2026-08-21T13:27:42Z</time>
      </trkpt>
      <trkpt lat="49.06983" lon="4.04816">
        <ele>83.6</ele>
        <time>2026-08-21T13:27:47Z</time>
      </trkpt>
      <trkpt lat="49.06982" lon="4.04817">
        <ele>83.5</ele>
        <time>2026-08-21T13:27:52Z</time>
      </trkpt>
      <trkpt lat="49.06982" lon="4.04817">
        <ele>83.5</ele>
        <time>2026-08-21T13:27:58Z</time>
      </trkpt>
      <trkpt lat="49.06982" lon="4.04817">
        <ele>83.5</ele>
        <time>2026-08-21T13:28:03Z</time>
      </trkpt>
      <trkpt lat="49.06981" lon="4.04826">
        <ele>83.1</ele>
        <time>2026-08-21T13:28:08Z</time>
      </trkpt>
      <trkpt lat="49.06981" lon="4.04826">
        <ele>83.1</ele>
        <time>2026-08-21T13:28:14Z</time>
      </trkpt>
      <trkpt lat="49.06981" lon="4.04826">
        <ele>83.1</ele>
        <time>2026-08-21T13:28:19Z</time>
      </trkpt>
      <trkpt lat="49.06981" lon="4.04826">
        <ele>83.1</ele>
        <time>2026-08-21T13:28:24Z</time>
      </trkpt>
      <trkpt lat="49.06981" lon="4.04826">
        <ele>83.1</ele>
        <time>2026-08-21T13:28:30Z</time>
      </trkpt>
      <trkpt lat="49.06981" lon="4.04826">
        <ele>83.1</ele>
        <time>2026-08-21T13:28:35Z</time>
      </trkpt>
      <trkpt lat="49.06981" lon="4.04826">
        <ele>83.1</ele>
        <time>2026-08-21T13:28:40Z</time>
      </trkpt>
      <trkpt lat="49.06981" lon="4.04826">
        <ele>83.1</ele>
        <time>2026-08-21T13:28:46Z</time>
      </trkpt>
      <trkpt lat="49.06981" lon="4.04826">
        <ele>83.1</ele>
        <time>2026-08-21T13:28:51Z</time>
      </trkpt>
      <trkpt lat="49.06981" lon="4.04826">
        <ele>83.1</ele>
        <time>2026-08-21T13:28:56Z</time>
      </trkpt>
      <trkpt lat="49.06981" lon="4.04826">
        <ele>83.1</ele>
        <time>2026-08-21T13:29:02Z</time>
      </trkpt>
      <trkpt lat="49.06981" lon="4.04826">
        <ele>83.1</ele>
        <time>2026-08-21T13:29:07Z</time>
      </trkpt>
      <trkpt lat="49.06981" lon="4.04826">
        <ele>83.1</ele>
        <time>2026-08-21T13:29:12Z</time>
      </trkpt>
      <trkpt lat="49.06981" lon="4.04826">
        <ele>83.1</ele>
        <time>2026-08-21T13:29:18Z</time>
      </trkpt>
      <trkpt lat="49.06981" lon="4.04826">
        <ele>83.1</ele>
        <time>2026-08-21T13:29:23Z</time>
      </trkpt>
      <trkpt lat="49.06981" lon="4.04826">
        <ele>83.1</ele>
        <time>2026-08-21T13:29:28Z</time>
      </trkpt>
      <trkpt lat="49.06981" lon="4.04826">
        <ele>83.1</ele>
        <time>2026-08-21T13:29:34Z</time>
      </trkpt>
      <trkpt lat="49.06981" lon="4.04826">
        <ele>83.1</ele>
        <time>2026-08-21T13:29:39Z</time>
      </trkpt>
      <trkpt lat="49.06981" lon="4.04826">
        <ele>83.1</ele>
        <time>2026-08-21T13:29:44Z</time>
      </trkpt>
      <trkpt lat="49.06981" lon="4.04826">
        <ele>83.1</ele>
        <time>2026-08-21T13:29:50Z</time>
      </trkpt>
      <trkpt lat="49.06981" lon="4.04826">
        <ele>83.1</ele>
        <time>2026-08-21T13:29:55Z</time>
      </trkpt>
      <trkpt lat="49.06981" lon="4.04826">
        <ele>83.1</ele>
        <time>2026-08-21T13:30:00Z</time>
      </trkpt>
      <trkpt lat="49.06982" lon="4.04821">
        <ele>83.3</ele>
        <time>2026-08-21T13:30:06Z</time>
      </trkpt>
      <trkpt lat="49.06984" lon="4.0482">
        <ele>83.4</ele>
        <time>2026-08-21T13:30:11Z</time>
      </trkpt>
      <trkpt lat="49.06986" lon="4.04818">
        <ele>83.5</ele>
        <time>2026-08-21T13:30:16Z</time>
      </trkpt>
      <trkpt lat="49.06996" lon="4.0482">
        <ele>83.6</ele>
        <time>2026-08-21T13:30:22Z</time>
      </trkpt>
      <trkpt lat="49.07005" lon="4.0483">
        <ele>83.3</ele>
        <time>2026-08-21T13:30:27Z</time>
      </trkpt>
      <trkpt lat="49.0701" lon="4.04835">
        <ele>83.3</ele>
        <time>2026-08-21T13:30:32Z</time>
      </trkpt>
      <trkpt lat="49.07013" lon="4.04837">
        <ele>83.4</ele>
        <time>2026-08-21T13:30:38Z</time>
      </trkpt>
      <trkpt lat="49.07017" lon="4.04836">
        <ele>83.6</ele>
        <time>2026-08-21T13:30:43Z</time>
      </trkpt>
      <trkpt lat="49.07022" lon="4.0483">
        <ele>83.9</ele>
        <time>2026-08-21T13:30:48Z</time>
      </trkpt>
      <trkpt lat="49.07027" lon="4.04823">
        <ele>84.4</ele>
        <time>2026-08-21T13:30:54Z</time>
      </trkpt>
      <trkpt lat="49.07031" lon="4.04817">
        <ele>84.8</ele>
        <time>2026-08-21T13:30:59Z</time>
      </trkpt>
      <trkpt lat="49.07034" lon="4.0481">
        <ele>85.1</ele>
        <time>2026-08-21T13:31:04Z</time>
      </trkpt>
      <trkpt lat="49.07034" lon="4.04812">
        <ele>85</ele>
        <time>2026-08-21T13:31:10Z</time>
      </trkpt>
      <trkpt lat="49.07033" lon="4.04814">
        <ele>84.9</ele>
        <time>2026-08-21T13:31:15Z</time>
      </trkpt>
      <trkpt lat="49.07033" lon="4.04814">
        <ele>84.9</ele>
        <time>2026-08-21T13:31:20Z</time>
      </trkpt>
      <trkpt lat="49.07033" lon="4.04814">
        <ele>84.9</ele>
        <time>2026-08-21T13:31:26Z</time>
      </trkpt>
      <trkpt lat="49.07033" lon="4.04814">
        <ele>84.9</ele>
        <time>2026-08-21T13:31:31Z</time>
      </trkpt>
      <trkpt lat="49.07033" lon="4.04814">
        <ele>84.9</ele>
        <time>2026-08-21T13:31:36Z</time>
      </trkpt>
      <trkpt lat="49.07033" lon="4.04814">
        <ele>84.9</ele>
        <time>2026-08-21T13:31:42Z</time>
      </trkpt>
      <trkpt lat="49.07033" lon="4.04814">
        <ele>84.9</ele>
        <time>2026-08-21T13:31:47Z</time>
      </trkpt>
      <trkpt lat="49.07033" lon="4.04814">
        <ele>84.9</ele>
        <time>2026-08-21T13:31:52Z</time>
      </trkpt>
      <trkpt lat="49.07033" lon="4.04814">
        <ele>84.9</ele>
        <time>2026-08-21T13:31:58Z</time>
      </trkpt>
      <trkpt lat="49.07033" lon="4.04814">
        <ele>84.9</ele>
        <time>2026-08-21T13:32:03Z</time>
      </trkpt>
      <trkpt lat="49.07033" lon="4.04814">
        <ele>84.9</ele>
        <time>2026-08-21T13:32:08Z</time>
      </trkpt>
      <trkpt lat="49.07033" lon="4.04814">
        <ele>84.9</ele>
        <time>2026-08-21T13:32:14Z</time>
      </trkpt>
      <trkpt lat="49.07033" lon="4.04814">
        <ele>84.9</ele>
        <time>2026-08-21T13:32:19Z</time>
      </trkpt>
      <trkpt lat="49.07033" lon="4.04814">
        <ele>84.9</ele>
        <time>2026-08-21T13:32:24Z</time>
      </trkpt>
      <trkpt lat="49.07027" lon="4.04821">
        <ele>84.5</ele>
        <time>2026-08-21T13:32:30Z</time>
      </trkpt>
      <trkpt lat="49.07023" lon="4.04828">
        <ele>84</ele>
        <time>2026-08-21T13:32:35Z</time>
      </trkpt>
      <trkpt lat="49.07017" lon="4.04832">
        <ele>83.7</ele>
        <time>2026-08-21T13:32:40Z</time>
      </trkpt>
      <trkpt lat="49.07009" lon="4.04836">
        <ele>83.3</ele>
        <time>2026-08-21T13:32:46Z</time>
      </trkpt>
      <trkpt lat="49.07003" lon="4.04838">
        <ele>83</ele>
        <time>2026-08-21T13:32:51Z</time>
      </trkpt>
      <trkpt lat="49.07001" lon="4.0484">
        <ele>83</ele>
        <time>2026-08-21T13:32:56Z</time>
      </trkpt>
      <trkpt lat="49.07001" lon="4.0484">
        <ele>83</ele>
        <time>2026-08-21T13:33:02Z</time>
      </trkpt>
      <trkpt lat="49.07001" lon="4.0484">
        <ele>83</ele>
        <time>2026-08-21T13:33:07Z</time>
      </trkpt>
      <trkpt lat="49.07001" lon="4.0484">
        <ele>83</ele>
        <time>2026-08-21T13:33:12Z</time>
      </trkpt>
      <trkpt lat="49.07001" lon="4.0484">
        <ele>83</ele>
        <time>2026-08-21T13:33:18Z</time>
      </trkpt>
      <trkpt lat="49.07001" lon="4.0484">
        <ele>83</ele>
        <time>2026-08-21T13:33:23Z</time>
      </trkpt>
      <trkpt lat="49.07001" lon="4.0484">
        <ele>83</ele>
        <time>2026-08-21T13:33:28Z</time>
      </trkpt>
      <trkpt lat="49.07001" lon="4.0484">
        <ele>83</ele>
        <time>2026-08-21T13:33:34Z</time>
      </trkpt>
      <trkpt lat="49.07001" lon="4.0484">
        <ele>83</ele>
        <time>2026-08-21T13:33:39Z</time>
      </trkpt>
      <trkpt lat="49.07001" lon="4.0484">
        <ele>83</ele>
        <time>2026-08-21T13:33:44Z</time>
      </trkpt>
      <trkpt lat="49.07001" lon="4.0484">
        <ele>83</ele>
        <time>2026-08-21T13:33:50Z</time>
      </trkpt>
      <trkpt lat="49.07001" lon="4.0484">
        <ele>83</ele>
        <time>2026-08-21T13:33:55Z</time>
      </trkpt>
      <trkpt lat="49.07001" lon="4.0484">
        <ele>83</ele>
        <time>2026-08-21T13:34:00Z</time>
      </trkpt>
      <trkpt lat="49.07001" lon="4.0484">
        <ele>83</ele>
        <time>2026-08-21T13:34:06Z</time>
      </trkpt>
      <trkpt lat="49.07001" lon="4.0484">
        <ele>83</ele>
        <time>2026-08-21T13:34:11Z</time>
      </trkpt>
      <trkpt lat="49.07001" lon="4.0484">
        <ele>83</ele>
        <time>2026-08-21T13:34:16Z</time>
      </trkpt>
      <trkpt lat="49.07001" lon="4.0484">
        <ele>83</ele>
        <time>2026-08-21T13:34:22Z</time>
      </trkpt>
      <trkpt lat="49.07001" lon="4.0484">
        <ele>83</ele>
        <time>2026-08-21T13:34:27Z</time>
      </trkpt>
      <trkpt lat="49.07001" lon="4.0484">
        <ele>83</ele>
        <time>2026-08-21T13:34:32Z</time>
      </trkpt>
      <trkpt lat="49.07001" lon="4.0484">
        <ele>83</ele>
        <time>2026-08-21T13:34:38Z</time>
      </trkpt>
      <trkpt lat="49.07001" lon="4.0484">
        <ele>83</ele>
        <time>2026-08-21T13:34:43Z</time>
      </trkpt>
      <trkpt lat="49.07001" lon="4.0484">
        <ele>83</ele>
        <time>2026-08-21T13:34:48Z</time>
      </trkpt>
      <trkpt lat="49.07001" lon="4.0484">
        <ele>83</ele>
        <time>2026-08-21T13:34:54Z</time>
      </trkpt>
      <trkpt lat="49.07001" lon="4.0484">
        <ele>83</ele>
        <time>2026-08-21T13:34:59Z</time>
      </trkpt>
      <trkpt lat="49.07001" lon="4.0484">
        <ele>83</ele>
        <time>2026-08-21T13:35:04Z</time>
      </trkpt>
      <trkpt lat="49.07001" lon="4.0484">
        <ele>83</ele>
        <time>2026-08-21T13:35:10Z</time>
      </trkpt>
      <trkpt lat="49.07001" lon="4.0484">
        <ele>83</ele>
        <time>2026-08-21T13:35:15Z</time>
      </trkpt>
      <trkpt lat="49.07001" lon="4.0484">
        <ele>83</ele>
        <time>2026-08-21T13:35:20Z</time>
      </trkpt>
      <trkpt lat="49.07001" lon="4.0484">
        <ele>83</ele>
        <time>2026-08-21T13:35:26Z</time>
      </trkpt>
      <trkpt lat="49.07001" lon="4.0484">
        <ele>83</ele>
        <time>2026-08-21T13:35:31Z</time>
      </trkpt>
      <trkpt lat="49.07001" lon="4.0484">
        <ele>83</ele>
        <time>2026-08-21T13:35:36Z</time>
      </trkpt>
      <trkpt lat="49.07001" lon="4.0484">
        <ele>83</ele>
        <time>2026-08-21T13:35:42Z</time>
      </trkpt>
      <trkpt lat="49.07001" lon="4.0484">
        <ele>83</ele>
        <time>2026-08-21T13:35:47Z</time>
      </trkpt>
      <trkpt lat="49.07001" lon="4.0484">
        <ele>83</ele>
        <time>2026-08-21T13:35:52Z</time>
      </trkpt>
      <trkpt lat="49.07001" lon="4.0484">
        <ele>83</ele>
        <time>2026-08-21T13:35:58Z</time>
      </trkpt>
      <trkpt lat="49.07001" lon="4.0484">
        <ele>83</ele>
        <time>2026-08-21T13:36:03Z</time>
      </trkpt>
      <trkpt lat="49.07001" lon="4.0484">
        <ele>83</ele>
        <time>2026-08-21T13:36:08Z</time>
      </trkpt>
      <trkpt lat="49.07001" lon="4.0484">
        <ele>83</ele>
        <time>2026-08-21T13:36:14Z</time>
      </trkpt>
      <trkpt lat="49.07001" lon="4.0484">
        <ele>83</ele>
        <time>2026-08-21T13:36:19Z</time>
      </trkpt>
      <trkpt lat="49.07001" lon="4.0484">
        <ele>83</ele>
        <time>2026-08-21T13:36:24Z</time>
      </trkpt>
      <trkpt lat="49.07001" lon="4.0484">
        <ele>83</ele>
        <time>2026-08-21T13:36:30Z</time>
      </trkpt>
      <trkpt lat="49.07001" lon="4.0484">
        <ele>83</ele>
        <time>2026-08-21T13:36:35Z</time>
      </trkpt>
      <trkpt lat="49.07001" lon="4.0484">
        <ele>83</ele>
        <time>2026-08-21T13:36:40Z</time>
      </trkpt>
      <trkpt lat="49.07001" lon="4.0484">
        <ele>83</ele>
        <time>2026-08-21T13:36:46Z</time>
      </trkpt>
      <trkpt lat="49.07001" lon="4.0484">
        <ele>83</ele>
        <time>2026-08-21T13:36:51Z</time>
      </trkpt>
      <trkpt lat="49.07001" lon="4.0484">
        <ele>83</ele>
        <time>2026-08-21T13:36:56Z</time>
      </trkpt>
      <trkpt lat="49.07001" lon="4.0484">
        <ele>83</ele>
        <time>2026-08-21T13:37:02Z</time>
      </trkpt>
      <trkpt lat="49.07001" lon="4.0484">
        <ele>83</ele>
        <time>2026-08-21T13:37:07Z</time>
      </trkpt>
      <trkpt lat="49.07001" lon="4.0484">
        <ele>83</ele>
        <time>2026-08-21T13:37:12Z</time>
      </trkpt>
      <trkpt lat="49.07001" lon="4.0484">
        <ele>83</ele>
        <time>2026-08-21T13:37:18Z</time>
      </trkpt>
      <trkpt lat="49.07001" lon="4.0484">
        <ele>83</ele>
        <time>2026-08-21T13:37:23Z</time>
      </trkpt>
      <trkpt lat="49.07001" lon="4.0484">
        <ele>83</ele>
        <time>2026-08-21T13:37:28Z</time>
      </trkpt>
      <trkpt lat="49.07001" lon="4.0484">
        <ele>83</ele>
        <time>2026-08-21T13:37:34Z</time>
      </trkpt>
      <trkpt lat="49.07001" lon="4.0484">
        <ele>83</ele>
        <time>2026-08-21T13:37:39Z</time>
      </trkpt>
      <trkpt lat="49.07001" lon="4.0484">
        <ele>83</ele>
        <time>2026-08-21T13:37:44Z</time>
      </trkpt>
      <trkpt lat="49.07001" lon="4.0484">
        <ele>83</ele>
        <time>2026-08-21T13:37:50Z</time>
      </trkpt>
      <trkpt lat="49.07001" lon="4.0484">
        <ele>83</ele>
        <time>2026-08-21T13:37:55Z</time>
      </trkpt>
      <trkpt lat="49.07001" lon="4.0484">
        <ele>83</ele>
        <time>2026-08-21T13:38:00Z</time>
      </trkpt>
      <trkpt lat="49.07001" lon="4.0484">
        <ele>83</ele>
        <time>2026-08-21T13:38:06Z</time>
      </trkpt>
      <trkpt lat="49.07001" lon="4.0484">
        <ele>83</ele>
        <time>2026-08-21T13:38:11Z</time>
      </trkpt>
      <trkpt lat="49.07001" lon="4.0484">
        <ele>83</ele>
        <time>2026-08-21T13:38:16Z</time>
      </trkpt>
      <trkpt lat="49.07001" lon="4.0484">
        <ele>83</ele>
        <time>2026-08-21T13:38:22Z</time>
      </trkpt>
      <trkpt lat="49.07001" lon="4.0484">
        <ele>83</ele>
        <time>2026-08-21T13:38:27Z</time>
      </trkpt>
      <trkpt lat="49.07001" lon="4.0484">
        <ele>83</ele>
        <time>2026-08-21T13:38:32Z</time>
      </trkpt>
      <trkpt lat="49.07001" lon="4.0484">
        <ele>83</ele>
        <time>2026-08-21T13:38:38Z</time>
      </trkpt>
      <trkpt lat="49.07001" lon="4.0484">
        <ele>83</ele>
        <time>2026-08-21T13:38:43Z</time>
      </trkpt>
      <trkpt lat="49.07001" lon="4.0484">
        <ele>83</ele>
        <time>2026-08-21T13:38:48Z</time>
      </trkpt>
      <trkpt lat="49.07001" lon="4.0484">
        <ele>83</ele>
        <time>2026-08-21T13:38:54Z</time>
      </trkpt>
      <trkpt lat="49.07001" lon="4.0484">
        <ele>83</ele>
        <time>2026-08-21T13:38:59Z</time>
      </trkpt>
      <trkpt lat="49.07001" lon="4.0484">
        <ele>83</ele>
        <time>2026-08-21T13:39:04Z</time>
      </trkpt>
      <trkpt lat="49.07001" lon="4.0484">
        <ele>83</ele>
        <time>2026-08-21T13:39:10Z</time>
      </trkpt>
      <trkpt lat="49.07001" lon="4.0484">
        <ele>83</ele>
        <time>2026-08-21T13:39:15Z</time>
      </trkpt>
      <trkpt lat="49.07001" lon="4.0484">
        <ele>83</ele>
        <time>2026-08-21T13:39:20Z</time>
      </trkpt>
      <trkpt lat="49.07001" lon="4.0484">
        <ele>83</ele>
        <time>2026-08-21T13:39:26Z</time>
      </trkpt>
      <trkpt lat="49.07001" lon="4.0484">
        <ele>83</ele>
        <time>2026-08-21T13:39:31Z</time>
      </trkpt>
      <trkpt lat="49.07001" lon="4.0484">
        <ele>83</ele>
        <time>2026-08-21T13:39:36Z</time>
      </trkpt>
      <trkpt lat="49.07001" lon="4.0484">
        <ele>83</ele>
        <time>2026-08-21T13:39:42Z</time>
      </trkpt>
      <trkpt lat="49.07001" lon="4.0484">
        <ele>83</ele>
        <time>2026-08-21T13:39:47Z</time>
      </trkpt>
      <trkpt lat="49.07001" lon="4.0484">
        <ele>83</ele>
        <time>2026-08-21T13:39:52Z</time>
      </trkpt>
      <trkpt lat="49.07001" lon="4.0484">
        <ele>83</ele>
        <time>2026-08-21T13:39:58Z</time>
      </trkpt>
      <trkpt lat="49.07001" lon="4.0484">
        <ele>83</ele>
        <time>2026-08-21T13:40:03Z</time>
      </trkpt>
      <trkpt lat="49.07001" lon="4.0484">
        <ele>83</ele>
        <time>2026-08-21T13:40:08Z</time>
      </trkpt>
      <trkpt lat="49.07001" lon="4.0484">
        <ele>83</ele>
        <time>2026-08-21T13:40:14Z</time>
      </trkpt>
      <trkpt lat="49.07001" lon="4.0484">
        <ele>83</ele>
        <time>2026-08-21T13:40:19Z</time>
      </trkpt>
      <trkpt lat="49.07001" lon="4.0484">
        <ele>83</ele>
        <time>2026-08-21T13:40:24Z</time>
      </trkpt>
      <trkpt lat="49.07001" lon="4.0484">
        <ele>83</ele>
        <time>2026-08-21T13:40:30Z</time>
      </trkpt>
      <trkpt lat="49.07001" lon="4.0484">
        <ele>83</ele>
        <time>2026-08-21T13:40:35Z</time>
      </trkpt>
      <trkpt lat="49.07001" lon="4.0484">
        <ele>83</ele>
        <time>2026-08-21T13:40:40Z</time>
      </trkpt>
      <trkpt lat="49.07001" lon="4.0484">
        <ele>83</ele>
        <time>2026-08-21T13:40:46Z</time>
      </trkpt>
      <trkpt lat="49.07001" lon="4.0484">
        <ele>83</ele>
        <time>2026-08-21T13:40:51Z</time>
      </trkpt>
      <trkpt lat="49.07001" lon="4.0484">
        <ele>83</ele>
        <time>2026-08-21T13:40:56Z</time>
      </trkpt>
      <trkpt lat="49.07001" lon="4.0484">
        <ele>83</ele>
        <time>2026-08-21T13:41:02Z</time>
      </trkpt>
      <trkpt lat="49.07001" lon="4.0484">
        <ele>83</ele>
        <time>2026-08-21T13:41:07Z</time>
      </trkpt>
      <trkpt lat="49.07001" lon="4.0484">
        <ele>83</ele>
        <time>2026-08-21T13:41:12Z</time>
      </trkpt>
      <trkpt lat="49.07001" lon="4.0484">
        <ele>83</ele>
        <time>2026-08-21T13:41:18Z</time>
      </trkpt>
      <trkpt lat="49.07001" lon="4.0484">
        <ele>83</ele>
        <time>2026-08-21T13:41:23Z</time>
      </trkpt>
      <trkpt lat="49.07001" lon="4.0484">
        <ele>83</ele>
        <time>2026-08-21T13:41:28Z</time>
      </trkpt>
      <trkpt lat="49.07001" lon="4.0484">
        <ele>83</ele>
        <time>2026-08-21T13:41:34Z</time>
      </trkpt>
      <trkpt lat="49.07001" lon="4.0484">
        <ele>83</ele>
        <time>2026-08-21T13:41:39Z</time>
      </trkpt>
      <trkpt lat="49.07001" lon="4.0484">
        <ele>83</ele>
        <time>2026-08-21T13:41:44Z</time>
      </trkpt>
      <trkpt lat="49.07001" lon="4.0484">
        <ele>83</ele>
        <time>2026-08-21T13:41:50Z</time>
      </trkpt>
      <trkpt lat="49.07001" lon="4.0484">
        <ele>83</ele>
        <time>2026-08-21T13:41:55Z</time>
      </trkpt>
      <trkpt lat="49.07001" lon="4.0484">
        <ele>83</ele>
        <time>2026-08-21T13:42:00Z</time>
      </trkpt>
      <trkpt lat="49.07001" lon="4.0484">
        <ele>83</ele>
        <time>2026-08-21T13:42:06Z</time>
      </trkpt>
      <trkpt lat="49.07001" lon="4.0484">
        <ele>83</ele>
        <time>2026-08-21T13:42:11Z</time>
      </trkpt>
      <trkpt lat="49.07001" lon="4.0484">
        <ele>83</ele>
        <time>2026-08-21T13:42:16Z</time>
      </trkpt>
      <trkpt lat="49.07001" lon="4.0484">
        <ele>83</ele>
        <time>2026-08-21T13:42:22Z</time>
      </trkpt>
      <trkpt lat="49.07001" lon="4.0484">
        <ele>83</ele>
        <time>2026-08-21T13:42:27Z</time>
      </trkpt>
      <trkpt lat="49.07001" lon="4.0484">
        <ele>83</ele>
        <time>2026-08-21T13:42:32Z</time>
      </trkpt>
      <trkpt lat="49.07001" lon="4.0484">
        <ele>83</ele>
        <time>2026-08-21T13:42:38Z</time>
      </trkpt>
      <trkpt lat="49.07001" lon="4.0484">
        <ele>83</ele>
        <time>2026-08-21T13:42:43Z</time>
      </trkpt>
      <trkpt lat="49.07001" lon="4.0484">
        <ele>83</ele>
        <time>2026-08-21T13:42:48Z</time>
      </trkpt>
      <trkpt lat="49.07001" lon="4.0484">
        <ele>83</ele>
        <time>2026-08-21T13:42:54Z</time>
      </trkpt>
      <trkpt lat="49.07001" lon="4.0484">
        <ele>83</ele>
        <time>2026-08-21T13:42:59Z</time>
      </trkpt>
      <trkpt lat="49.07001" lon="4.0484">
        <ele>83</ele>
        <time>2026-08-21T13:43:04Z</time>
      </trkpt>
      <trkpt lat="49.07001" lon="4.0484">
        <ele>83</ele>
        <time>2026-08-21T13:43:10Z</time>
      </trkpt>
      <trkpt lat="49.07001" lon="4.0484">
        <ele>83</ele>
        <time>2026-08-21T13:43:15Z</time>
      </trkpt>
      <trkpt lat="49.07001" lon="4.0484">
        <ele>83</ele>
        <time>2026-08-21T13:43:20Z</time>
      </trkpt>
      <trkpt lat="49.07001" lon="4.0484">
        <ele>83</ele>
        <time>2026-08-21T13:43:26Z</time>
      </trkpt>
      <trkpt lat="49.07001" lon="4.0484">
        <ele>83</ele>
        <time>2026-08-21T13:43:31Z</time>
      </trkpt>
      <trkpt lat="49.07001" lon="4.0484">
        <ele>83</ele>
        <time>2026-08-21T13:43:36Z</time>
      </trkpt>
      <trkpt lat="49.07001" lon="4.0484">
        <ele>83</ele>
        <time>2026-08-21T13:43:42Z</time>
      </trkpt>
      <trkpt lat="49.07001" lon="4.0484">
        <ele>83</ele>
        <time>2026-08-21T13:43:47Z</time>
      </trkpt>
      <trkpt lat="49.07001" lon="4.0484">
        <ele>83</ele>
        <time>2026-08-21T13:43:52Z</time>
      </trkpt>
      <trkpt lat="49.07001" lon="4.0484">
        <ele>83</ele>
        <time>2026-08-21T13:43:58Z</time>
      </trkpt>
      <trkpt lat="49.07001" lon="4.0484">
        <ele>83</ele>
        <time>2026-08-21T13:44:03Z</time>
      </trkpt>
      <trkpt lat="49.07001" lon="4.0484">
        <ele>83</ele>
        <time>2026-08-21T13:44:08Z</time>
      </trkpt>
      <trkpt lat="49.07001" lon="4.0484">
        <ele>83</ele>
        <time>2026-08-21T13:44:14Z</time>
      </trkpt>
      <trkpt lat="49.07001" lon="4.0484">
        <ele>83</ele>
        <time>2026-08-21T13:44:19Z</time>
      </trkpt>
      <trkpt lat="49.07001" lon="4.0484">
        <ele>83</ele>
        <time>2026-08-21T13:44:24Z</time>
      </trkpt>
      <trkpt lat="49.07001" lon="4.0484">
        <ele>83</ele>
        <time>2026-08-21T13:44:30Z</time>
      </trkpt>
      <trkpt lat="49.07001" lon="4.0484">
        <ele>83</ele>
        <time>2026-08-21T13:44:35Z</time>
      </trkpt>
      <trkpt lat="49.07001" lon="4.0484">
        <ele>83</ele>
        <time>2026-08-21T13:44:40Z</time>
      </trkpt>
      <trkpt lat="49.07001" lon="4.0484">
        <ele>83</ele>
        <time>2026-08-21T13:44:46Z</time>
      </trkpt>
      <trkpt lat="49.07001" lon="4.0484">
        <ele>83</ele>
        <time>2026-08-21T13:44:51Z</time>
      </trkpt>
      <trkpt lat="49.07001" lon="4.0484">
        <ele>83</ele>
        <time>2026-08-21T13:44:56Z</time>
      </trkpt>
      <trkpt lat="49.07001" lon="4.0484">
        <ele>83</ele>
        <time>2026-08-21T13:45:02Z</time>
      </trkpt>
      <trkpt lat="49.07001" lon="4.0484">
        <ele>83</ele>
        <time>2026-08-21T13:45:07Z</time>
      </trkpt>
      <trkpt lat="49.07001" lon="4.0484">
        <ele>83</ele>
        <time>2026-08-21T13:45:12Z</time>
      </trkpt>
      <trkpt lat="49.07001" lon="4.0484">
        <ele>83</ele>
        <time>2026-08-21T13:45:18Z</time>
      </trkpt>
      <trkpt lat="49.07001" lon="4.0484">
        <ele>83</ele>
        <time>2026-08-21T13:45:23Z</time>
      </trkpt>
      <trkpt lat="49.07001" lon="4.0484">
        <ele>83</ele>
        <time>2026-08-21T13:45:28Z</time>
      </trkpt>
      <trkpt lat="49.07001" lon="4.0484">
        <ele>83</ele>
        <time>2026-08-21T13:45:34Z</time>
      </trkpt>
      <trkpt lat="49.07001" lon="4.0484">
        <ele>83</ele>
        <time>2026-08-21T13:45:39Z</time>
      </trkpt>
      <trkpt lat="49.07001" lon="4.0484">
        <ele>83</ele>
        <time>2026-08-21T13:45:44Z</time>
      </trkpt>
      <trkpt lat="49.07001" lon="4.0484">
        <ele>83</ele>
        <time>2026-08-21T13:45:50Z</time>
      </trkpt>
      <trkpt lat="49.07001" lon="4.0484">
        <ele>83</ele>
        <time>2026-08-21T13:45:55Z</time>
      </trkpt>
      <trkpt lat="49.07001" lon="4.0484">
        <ele>83</ele>
        <time>2026-08-21T13:46:00Z</time>
      </trkpt>
      <trkpt lat="49.07001" lon="4.0484">
        <ele>83</ele>
        <time>2026-08-21T13:46:06Z</time>
      </trkpt>
      <trkpt lat="49.07001" lon="4.0484">
        <ele>83</ele>
        <time>2026-08-21T13:46:11Z</time>
      </trkpt>
      <trkpt lat="49.07001" lon="4.0484">
        <ele>83</ele>
        <time>2026-08-21T13:46:16Z</time>
      </trkpt>
      <trkpt lat="49.07001" lon="4.0484">
        <ele>83</ele>
        <time>2026-08-21T13:46:22Z</time>
      </trkpt>
      <trkpt lat="49.07001" lon="4.0484">
        <ele>83</ele>
        <time>2026-08-21T13:46:27Z</time>
      </trkpt>
      <trkpt lat="49.07001" lon="4.0484">
        <ele>83</ele>
        <time>2026-08-21T13:46:32Z</time>
      </trkpt>
      <trkpt lat="49.07001" lon="4.0484">
        <ele>83</ele>
        <time>2026-08-21T13:46:38Z</time>
      </trkpt>
      <trkpt lat="49.07001" lon="4.0484">
        <ele>83</ele>
        <time>2026-08-21T13:46:43Z</time>
      </trkpt>
      <trkpt lat="49.07001" lon="4.0484">
        <ele>83</ele>
        <time>2026-08-21T13:46:48Z</time>
      </trkpt>
      <trkpt lat="49.07001" lon="4.0484">
        <ele>83</ele>
        <time>2026-08-21T13:46:54Z</time>
      </trkpt>
      <trkpt lat="49.07001" lon="4.0484">
        <ele>83</ele>
        <time>2026-08-21T13:46:59Z</time>
      </trkpt>
      <trkpt lat="49.07001" lon="4.0484">
        <ele>83</ele>
        <time>2026-08-21T13:47:04Z</time>
      </trkpt>
      <trkpt lat="49.07001" lon="4.0484">
        <ele>83</ele>
        <time>2026-08-21T13:47:10Z</time>
      </trkpt>
      <trkpt lat="49.07001" lon="4.0484">
        <ele>83</ele>
        <time>2026-08-21T13:47:15Z</time>
      </trkpt>
      <trkpt lat="49.07001" lon="4.0484">
        <ele>83</ele>
        <time>2026-08-21T13:47:20Z</time>
      </trkpt>
      <trkpt lat="49.07001" lon="4.0484">
        <ele>83</ele>
        <time>2026-08-21T13:47:26Z</time>
      </trkpt>
      <trkpt lat="49.07001" lon="4.0484">
        <ele>83</ele>
        <time>2026-08-21T13:47:31Z</time>
      </trkpt>
      <trkpt lat="49.07001" lon="4.0484">
        <ele>83</ele>
        <time>2026-08-21T13:47:36Z</time>
      </trkpt>
      <trkpt lat="49.07001" lon="4.0484">
        <ele>83</ele>
        <time>2026-08-21T13:47:42Z</time>
      </trkpt>
      <trkpt lat="49.07001" lon="4.0484">
        <ele>83</ele>
        <time>2026-08-21T13:47:47Z</time>
      </trkpt>
      <trkpt lat="49.07001" lon="4.0484">
        <ele>83</ele>
        <time>2026-08-21T13:47:52Z</time>
      </trkpt>
      <trkpt lat="49.07001" lon="4.0484">
        <ele>83</ele>
        <time>2026-08-21T13:47:58Z</time>
      </trkpt>
      <trkpt lat="49.07001" lon="4.0484">
        <ele>83</ele>
        <time>2026-08-21T13:48:03Z</time>
      </trkpt>
      <trkpt lat="49.07001" lon="4.0484">
        <ele>83</ele>
        <time>2026-08-21T13:48:08Z</time>
      </trkpt>
      <trkpt lat="49.07001" lon="4.0484">
        <ele>83</ele>
        <time>2026-08-21T13:48:14Z</time>
      </trkpt>
      <trkpt lat="49.07001" lon="4.0484">
        <ele>83</ele>
        <time>2026-08-21T13:48:19Z</time>
      </trkpt>
      <trkpt lat="49.07001" lon="4.0484">
        <ele>83</ele>
        <time>2026-08-21T13:48:24Z</time>
      </trkpt>
      <trkpt lat="49.07001" lon="4.0484">
        <ele>83</ele>
        <time>2026-08-21T13:48:30Z</time>
      </trkpt>
      <trkpt lat="49.07001" lon="4.0484">
        <ele>83</ele>
        <time>2026-08-21T13:48:35Z</time>
      </trkpt>
      <trkpt lat="49.07001" lon="4.0484">
        <ele>83</ele>
        <time>2026-08-21T13:48:40Z</time>
      </trkpt>
      <trkpt lat="49.07001" lon="4.0484">
        <ele>83</ele>
        <time>2026-08-21T13:48:46Z</time>
      </trkpt>
      <trkpt lat="49.07001" lon="4.0484">
        <ele>83</ele>
        <time>2026-08-21T13:48:51Z</time>
      </trkpt>
      <trkpt lat="49.07001" lon="4.0484">
        <ele>83</ele>
        <time>2026-08-21T13:48:56Z</time>
      </trkpt>
      <trkpt lat="49.07001" lon="4.0484">
        <ele>83</ele>
        <time>2026-08-21T13:49:02Z</time>
      </trkpt>
      <trkpt lat="49.07001" lon="4.0484">
        <ele>83</ele>
        <time>2026-08-21T13:49:07Z</time>
      </trkpt>
      <trkpt lat="49.07001" lon="4.0484">
        <ele>83</ele>
        <time>2026-08-21T13:49:12Z</time>
      </trkpt>
      <trkpt lat="49.07001" lon="4.0484">
        <ele>83</ele>
        <time>2026-08-21T13:49:18Z</time>
      </trkpt>
      <trkpt lat="49.07001" lon="4.0484">
        <ele>83</ele>
        <time>2026-08-21T13:49:23Z</time>
      </trkpt>
      <trkpt lat="49.07001" lon="4.0484">
        <ele>83</ele>
        <time>2026-08-21T13:49:28Z</time>
      </trkpt>
      <trkpt lat="49.07001" lon="4.0484">
        <ele>83</ele>
        <time>2026-08-21T13:49:34Z</time>
      </trkpt>
      <trkpt lat="49.07001" lon="4.0484">
        <ele>83</ele>
        <time>2026-08-21T13:49:39Z</time>
      </trkpt>
      <trkpt lat="49.07001" lon="4.0484">
        <ele>83</ele>
        <time>2026-08-21T13:49:44Z</time>
      </trkpt>
      <trkpt lat="49.07001" lon="4.0484">
        <ele>83</ele>
        <time>2026-08-21T13:49:50Z</time>
      </trkpt>
      <trkpt lat="49.07001" lon="4.0484">
        <ele>83</ele>
        <time>2026-08-21T13:49:55Z</time>
      </trkpt>
      <trkpt lat="49.07001" lon="4.0484">
        <ele>83</ele>
        <time>2026-08-21T13:50:00Z</time>
      </trkpt>
      <trkpt lat="49.07001" lon="4.0484">
        <ele>83</ele>
        <time>2026-08-21T13:50:06Z</time>
      </trkpt>
      <trkpt lat="49.07001" lon="4.0484">
        <ele>83</ele>
        <time>2026-08-21T13:50:11Z</time>
      </trkpt>
      <trkpt lat="49.07001" lon="4.0484">
        <ele>83</ele>
        <time>2026-08-21T13:50:16Z</time>
      </trkpt>
      <trkpt lat="49.07001" lon="4.0484">
        <ele>83</ele>
        <time>2026-08-21T13:50:22Z</time>
      </trkpt>
      <trkpt lat="49.07001" lon="4.0484">
        <ele>83</ele>
        <time>2026-08-21T13:50:27Z</time>
      </trkpt>
      <trkpt lat="49.07001" lon="4.0484">
        <ele>83</ele>
        <time>2026-08-21T13:50:32Z</time>
      </trkpt>
      <trkpt lat="49.07001" lon="4.0484">
        <ele>83</ele>
        <time>2026-08-21T13:50:38Z</time>
      </trkpt>
      <trkpt lat="49.07001" lon="4.0484">
        <ele>83</ele>
        <time>2026-08-21T13:50:43Z</time>
      </trkpt>
      <trkpt lat="49.07001" lon="4.0484">
        <ele>83</ele>
        <time>2026-08-21T13:50:48Z</time>
      </trkpt>
      <trkpt lat="49.07001" lon="4.0484">
        <ele>83</ele>
        <time>2026-08-21T13:50:54Z</time>
      </trkpt>
      <trkpt lat="49.07001" lon="4.0484">
        <ele>83</ele>
        <time>2026-08-21T13:50:59Z</time>
      </trkpt>
      <trkpt lat="49.07001" lon="4.0484">
        <ele>83</ele>
        <time>2026-08-21T13:51:04Z</time>
      </trkpt>
      <trkpt lat="49.07001" lon="4.0484">
        <ele>83</ele>
        <time>2026-08-21T13:51:10Z</time>
      </trkpt>
      <trkpt lat="49.07001" lon="4.0484">
        <ele>83</ele>
        <time>2026-08-21T13:51:15Z</time>
      </trkpt>
      <trkpt lat="49.07001" lon="4.0484">
        <ele>83</ele>
        <time>2026-08-21T13:51:20Z</time>
      </trkpt>
      <trkpt lat="49.07001" lon="4.0484">
        <ele>83</ele>
        <time>2026-08-21T13:51:26Z</time>
      </trkpt>
      <trkpt lat="49.07001" lon="4.0484">
        <ele>83</ele>
        <time>2026-08-21T13:51:31Z</time>
      </trkpt>
      <trkpt lat="49.07001" lon="4.0484">
        <ele>83</ele>
        <time>2026-08-21T13:51:36Z</time>
      </trkpt>
      <trkpt lat="49.07001" lon="4.0484">
        <ele>83</ele>
        <time>2026-08-21T13:51:42Z</time>
      </trkpt>
      <trkpt lat="49.07001" lon="4.0484">
        <ele>83</ele>
        <time>2026-08-21T13:51:47Z</time>
      </trkpt>
      <trkpt lat="49.07001" lon="4.0484">
        <ele>83</ele>
        <time>2026-08-21T13:51:52Z</time>
      </trkpt>
      <trkpt lat="49.07001" lon="4.0484">
        <ele>83</ele>
        <time>2026-08-21T13:51:58Z</time>
      </trkpt>
      <trkpt lat="49.07001" lon="4.0484">
        <ele>83</ele>
        <time>2026-08-21T13:52:03Z</time>
      </trkpt>
      <trkpt lat="49.07001" lon="4.0484">
        <ele>83</ele>
        <time>2026-08-21T13:52:08Z</time>
      </trkpt>
      <trkpt lat="49.07001" lon="4.0484">
        <ele>83</ele>
        <time>2026-08-21T13:52:14Z</time>
      </trkpt>
      <trkpt lat="49.07001" lon="4.0484">
        <ele>83</ele>
        <time>2026-08-21T13:52:19Z</time>
      </trkpt>
      <trkpt lat="49.07001" lon="4.0484">
        <ele>83</ele>
        <time>2026-08-21T13:52:24Z</time>
      </trkpt>
      <trkpt lat="49.07001" lon="4.0484">
        <ele>83</ele>
        <time>2026-08-21T13:52:30Z</time>
      </trkpt>
      <trkpt lat="49.07001" lon="4.0484">
        <ele>83</ele>
        <time>2026-08-21T13:52:35Z</time>
      </trkpt>
      <trkpt lat="49.07001" lon="4.0484">
        <ele>83</ele>
        <time>2026-08-21T13:52:40Z</time>
      </trkpt>
      <trkpt lat="49.07001" lon="4.0484">
        <ele>83</ele>
        <time>2026-08-21T13:52:46Z</time>
      </trkpt>
      <trkpt lat="49.07001" lon="4.0484">
        <ele>83</ele>
        <time>2026-08-21T13:52:51Z</time>
      </trkpt>
      <trkpt lat="49.07001" lon="4.0484">
        <ele>83</ele>
        <time>2026-08-21T13:52:56Z</time>
      </trkpt>
      <trkpt lat="49.07001" lon="4.0484">
        <ele>83</ele>
        <time>2026-08-21T13:53:02Z</time>
      </trkpt>
      <trkpt lat="49.07001" lon="4.0484">
        <ele>83</ele>
        <time>2026-08-21T13:53:07Z</time>
      </trkpt>
      <trkpt lat="49.07001" lon="4.0484">
        <ele>83</ele>
        <time>2026-08-21T13:53:12Z</time>
      </trkpt>
      <trkpt lat="49.07001" lon="4.0484">
        <ele>83</ele>
        <time>2026-08-21T13:53:18Z</time>
      </trkpt>
      <trkpt lat="49.07001" lon="4.0484">
        <ele>83</ele>
        <time>2026-08-21T13:53:23Z</time>
      </trkpt>
      <trkpt lat="49.07001" lon="4.0484">
        <ele>83</ele>
        <time>2026-08-21T13:53:28Z</time>
      </trkpt>
      <trkpt lat="49.07001" lon="4.0484">
        <ele>83</ele>
        <time>2026-08-21T13:53:34Z</time>
      </trkpt>
      <trkpt lat="49.07001" lon="4.0484">
        <ele>83</ele>
        <time>2026-08-21T13:53:39Z</time>
      </trkpt>
      <trkpt lat="49.07001" lon="4.0484">
        <ele>83</ele>
        <time>2026-08-21T13:53:44Z</time>
      </trkpt>
      <trkpt lat="49.07001" lon="4.0484">
        <ele>83</ele>
        <time>2026-08-21T13:53:50Z</time>
      </trkpt>
      <trkpt lat="49.07001" lon="4.0484">
        <ele>83</ele>
        <time>2026-08-21T13:53:55Z</time>
      </trkpt>
      <trkpt lat="49.07001" lon="4.0484">
        <ele>83</ele>
        <time>2026-08-21T13:54:00Z</time>
      </trkpt>
      <trkpt lat="49.07001" lon="4.0484">
        <ele>83</ele>
        <time>2026-08-21T13:54:06Z</time>
      </trkpt>
      <trkpt lat="49.07001" lon="4.0484">
        <ele>83</ele>
        <time>2026-08-21T13:54:11Z</time>
      </trkpt>
      <trkpt lat="49.07001" lon="4.0484">
        <ele>83</ele>
        <time>2026-08-21T13:54:16Z</time>
      </trkpt>
      <trkpt lat="49.07001" lon="4.0484">
        <ele>83</ele>
        <time>2026-08-21T13:54:22Z</time>
      </trkpt>
      <trkpt lat="49.07001" lon="4.0484">
        <ele>83</ele>
        <time>2026-08-21T13:54:27Z</time>
      </trkpt>
      <trkpt lat="49.07001" lon="4.0484">
        <ele>83</ele>
        <time>2026-08-21T13:54:32Z</time>
      </trkpt>
      <trkpt lat="49.07001" lon="4.0484">
        <ele>83</ele>
        <time>2026-08-21T13:54:38Z</time>
      </trkpt>
      <trkpt lat="49.07001" lon="4.0484">
        <ele>83</ele>
        <time>2026-08-21T13:54:43Z</time>
      </trkpt>
      <trkpt lat="49.07001" lon="4.0484">
        <ele>83</ele>
        <time>2026-08-21T13:54:48Z</time>
      </trkpt>
      <trkpt lat="49.07001" lon="4.0484">
        <ele>83</ele>
        <time>2026-08-21T13:54:54Z</time>
      </trkpt>
      <trkpt lat="49.07001" lon="4.0484">
        <ele>83</ele>
        <time>2026-08-21T13:54:59Z</time>
      </trkpt>
      <trkpt lat="49.07001" lon="4.0484">
        <ele>83</ele>
        <time>2026-08-21T13:55:04Z</time>
      </trkpt>
      <trkpt lat="49.07001" lon="4.0484">
        <ele>83</ele>
        <time>2026-08-21T13:55:10Z</time>
      </trkpt>
      <trkpt lat="49.07001" lon="4.0484">
        <ele>83</ele>
        <time>2026-08-21T13:55:15Z</time>
      </trkpt>
      <trkpt lat="49.07001" lon="4.0484">
        <ele>83</ele>
        <time>2026-08-21T13:55:20Z</time>
      </trkpt>
      <trkpt lat="49.07001" lon="4.0484">
        <ele>83</ele>
        <time>2026-08-21T13:55:26Z</time>
      </trkpt>
      <trkpt lat="49.07001" lon="4.0484">
        <ele>83</ele>
        <time>2026-08-21T13:55:31Z</time>
      </trkpt>
      <trkpt lat="49.07001" lon="4.0484">
        <ele>83</ele>
        <time>2026-08-21T13:55:36Z</time>
      </trkpt>
      <trkpt lat="49.07001" lon="4.0484">
        <ele>83</ele>
        <time>2026-08-21T13:55:42Z</time>
      </trkpt>
      <trkpt lat="49.07001" lon="4.0484">
        <ele>83</ele>
        <time>2026-08-21T13:55:47Z</time>
      </trkpt>
      <trkpt lat="49.07001" lon="4.0484">
        <ele>83</ele>
        <time>2026-08-21T13:55:52Z</time>
      </trkpt>
      <trkpt lat="49.07001" lon="4.0484">
        <ele>83</ele>
        <time>2026-08-21T13:55:58Z</time>
      </trkpt>
      <trkpt lat="49.07001" lon="4.0484">
        <ele>83</ele>
        <time>2026-08-21T13:56:03Z</time>
      </trkpt>
      <trkpt lat="49.07001" lon="4.0484">
        <ele>83</ele>
        <time>2026-08-21T13:56:08Z</time>
      </trkpt>
      <trkpt lat="49.07001" lon="4.0484">
        <ele>83</ele>
        <time>2026-08-21T13:56:14Z</time>
      </trkpt>
      <trkpt lat="49.07001" lon="4.0484">
        <ele>83</ele>
        <time>2026-08-21T13:56:19Z</time>
      </trkpt>
      <trkpt lat="49.07001" lon="4.0484">
        <ele>83</ele>
        <time>2026-08-21T13:56:24Z</time>
      </trkpt>
      <trkpt lat="49.07001" lon="4.0484">
        <ele>83</ele>
        <time>2026-08-21T13:56:30Z</time>
      </trkpt>
      <trkpt lat="49.07001" lon="4.0484">
        <ele>83</ele>
        <time>2026-08-21T13:56:35Z</time>
      </trkpt>
      <trkpt lat="49.07001" lon="4.0484">
        <ele>83</ele>
        <time>2026-08-21T13:56:40Z</time>
      </trkpt>
      <trkpt lat="49.07001" lon="4.0484">
        <ele>83</ele>
        <time>2026-08-21T13:56:46Z</time>
      </trkpt>
      <trkpt lat="49.07001" lon="4.0484">
        <ele>83</ele>
        <time>2026-08-21T13:56:51Z</time>
      </trkpt>
      <trkpt lat="49.07001" lon="4.0484">
        <ele>83</ele>
        <time>2026-08-21T13:56:56Z</time>
      </trkpt>
      <trkpt lat="49.07001" lon="4.0484">
        <ele>83</ele>
        <time>2026-08-21T13:57:02Z</time>
      </trkpt>
      <trkpt lat="49.07001" lon="4.0484">
        <ele>83</ele>
        <time>2026-08-21T13:57:07Z</time>
      </trkpt>
      <trkpt lat="49.07001" lon="4.0484">
        <ele>83</ele>
        <time>2026-08-21T13:57:12Z</time>
      </trkpt>
      <trkpt lat="49.07001" lon="4.0484">
        <ele>83</ele>
        <time>2026-08-21T13:57:18Z</time>
      </trkpt>
      <trkpt lat="49.07001" lon="4.0484">
        <ele>83</ele>
        <time>2026-08-21T13:57:23Z</time>
      </trkpt>
      <trkpt lat="49.07001" lon="4.0484">
        <ele>83</ele>
        <time>2026-08-21T13:57:28Z</time>
      </trkpt>
      <trkpt lat="49.07001" lon="4.0484">
        <ele>83</ele>
        <time>2026-08-21T13:57:34Z</time>
      </trkpt>
      <trkpt lat="49.07001" lon="4.0484">
        <ele>83</ele>
        <time>2026-08-21T13:57:39Z</time>
      </trkpt>
      <trkpt lat="49.07001" lon="4.0484">
        <ele>83</ele>
        <time>2026-08-21T13:57:44Z</time>
      </trkpt>
      <trkpt lat="49.07001" lon="4.0484">
        <ele>83</ele>
        <time>2026-08-21T13:57:50Z</time>
      </trkpt>
      <trkpt lat="49.07001" lon="4.0484">
        <ele>83</ele>
        <time>2026-08-21T13:57:55Z</time>
      </trkpt>
      <trkpt lat="49.07001" lon="4.0484">
        <ele>83</ele>
        <time>2026-08-21T13:58:00Z</time>
      </trkpt>
      <trkpt lat="49.07001" lon="4.0484">
        <ele>83</ele>
        <time>2026-08-21T13:58:06Z</time>
      </trkpt>
      <trkpt lat="49.07001" lon="4.0484">
        <ele>83</ele>
        <time>2026-08-21T13:58:11Z</time>
      </trkpt>
      <trkpt lat="49.07001" lon="4.0484">
        <ele>83</ele>
        <time>2026-08-21T13:58:16Z</time>
      </trkpt>
      <trkpt lat="49.07001" lon="4.0484">
        <ele>83</ele>
        <time>2026-08-21T13:58:22Z</time>
      </trkpt>
      <trkpt lat="49.07001" lon="4.0484">
        <ele>83</ele>
        <time>2026-08-21T13:58:27Z</time>
      </trkpt>
      <trkpt lat="49.07001" lon="4.0484">
        <ele>83</ele>
        <time>2026-08-21T13:58:32Z</time>
      </trkpt>
      <trkpt lat="49.07001" lon="4.0484">
        <ele>83</ele>
        <time>2026-08-21T13:58:38Z</time>
      </trkpt>
      <trkpt lat="49.07001" lon="4.0484">
        <ele>83</ele>
        <time>2026-08-21T13:58:43Z</time>
      </trkpt>
      <trkpt lat="49.07001" lon="4.0484">
        <ele>83</ele>
        <time>2026-08-21T13:58:48Z</time>
      </trkpt>
      <trkpt lat="49.07001" lon="4.0484">
        <ele>83</ele>
        <time>2026-08-21T13:58:54Z</time>
      </trkpt>
      <trkpt lat="49.07001" lon="4.0484">
        <ele>83</ele>
        <time>2026-08-21T13:58:59Z</time>
      </trkpt>
      <trkpt lat="49.07001" lon="4.0484">
        <ele>83</ele>
        <time>2026-08-21T13:59:04Z</time>
      </trkpt>
      <trkpt lat="49.07001" lon="4.0484">
        <ele>83</ele>
        <time>2026-08-21T13:59:10Z</time>
      </trkpt>
      <trkpt lat="49.07001" lon="4.0484">
        <ele>83</ele>
        <time>2026-08-21T13:59:15Z</time>
      </trkpt>
      <trkpt lat="49.07001" lon="4.0484">
        <ele>83</ele>
        <time>2026-08-21T13:59:20Z</time>
      </trkpt>
      <trkpt lat="49.07001" lon="4.0484">
        <ele>83</ele>
        <time>2026-08-21T13:59:26Z</time>
      </trkpt>
      <trkpt lat="49.07001" lon="4.0484">
        <ele>83</ele>
        <time>2026-08-21T13:59:31Z</time>
      </trkpt>
      <trkpt lat="49.07001" lon="4.0484">
        <ele>83</ele>
        <time>2026-08-21T13:59:36Z</time>
      </trkpt>
      <trkpt lat="49.07001" lon="4.0484">
        <ele>83</ele>
        <time>2026-08-21T13:59:42Z</time>
      </trkpt>
      <trkpt lat="49.07001" lon="4.0484">
        <ele>83</ele>
        <time>2026-08-21T13:59:47Z</time>
      </trkpt>
      <trkpt lat="49.07001" lon="4.0484">
        <ele>83</ele>
        <time>2026-08-21T13:59:52Z</time>
      </trkpt>
      <trkpt lat="49.07001" lon="4.0484">
        <ele>83</ele>
        <time>2026-08-21T13:59:58Z</time>
      </trkpt>
      <trkpt lat="49.07001" lon="4.0484">
        <ele>83</ele>
        <time>2026-08-21T14:00:03Z</time>
      </trkpt>
      <trkpt lat="49.07001" lon="4.0484">
        <ele>83</ele>
        <time>2026-08-21T14:00:08Z</time>
      </trkpt>
      <trkpt lat="49.07001" lon="4.0484">
        <ele>83</ele>
        <time>2026-08-21T14:00:14Z</time>
      </trkpt>
      <trkpt lat="49.07001" lon="4.0484">
        <ele>83</ele>
        <time>2026-08-21T14:00:19Z</time>
      </trkpt>
      <trkpt lat="49.07001" lon="4.0484">
        <ele>83</ele>
        <time>2026-08-21T14:00:24Z</time>
      </trkpt>
      <trkpt lat="49.07001" lon="4.0484">
        <ele>83</ele>
        <time>2026-08-21T14:00:30Z</time>
      </trkpt>
      <trkpt lat="49.07001" lon="4.0484">
        <ele>83</ele>
        <time>2026-08-21T14:00:35Z</time>
      </trkpt>
      <trkpt lat="49.07001" lon="4.0484">
        <ele>83</ele>
        <time>2026-08-21T14:00:40Z</time>
      </trkpt>
      <trkpt lat="49.07001" lon="4.0484">
        <ele>83</ele>
        <time>2026-08-21T14:00:46Z</time>
      </trkpt>
      <trkpt lat="49.07001" lon="4.0484">
        <ele>83</ele>
        <time>2026-08-21T14:00:51Z</time>
      </trkpt>
      <trkpt lat="49.07001" lon="4.0484">
        <ele>83</ele>
        <time>2026-08-21T14:00:56Z</time>
      </trkpt>
      <trkpt lat="49.07001" lon="4.0484">
        <ele>83</ele>
        <time>2026-08-21T14:01:02Z</time>
      </trkpt>
      <trkpt lat="49.07001" lon="4.0484">
        <ele>83</ele>
        <time>2026-08-21T14:01:07Z</time>
      </trkpt>
      <trkpt lat="49.07001" lon="4.0484">
        <ele>83</ele>
        <time>2026-08-21T14:01:12Z</time>
      </trkpt>
      <trkpt lat="49.07001" lon="4.0484">
        <ele>83</ele>
        <time>2026-08-21T14:01:18Z</time>
      </trkpt>
      <trkpt lat="49.07001" lon="4.0484">
        <ele>83</ele>
        <time>2026-08-21T14:01:23Z</time>
      </trkpt>
      <trkpt lat="49.07001" lon="4.0484">
        <ele>83</ele>
        <time>2026-08-21T14:01:28Z</time>
      </trkpt>
      <trkpt lat="49.07001" lon="4.0484">
        <ele>83</ele>
        <time>2026-08-21T14:01:34Z</time>
      </trkpt>
      <trkpt lat="49.07001" lon="4.0484">
        <ele>83</ele>
        <time>2026-08-21T14:01:39Z</time>
      </trkpt>
      <trkpt lat="49.07001" lon="4.0484">
        <ele>83</ele>
        <time>2026-08-21T14:01:44Z</time>
      </trkpt>
      <trkpt lat="49.07001" lon="4.0484">
        <ele>83</ele>
        <time>2026-08-21T14:01:50Z</time>
      </trkpt>
      <trkpt lat="49.07001" lon="4.0484">
        <ele>83</ele>
        <time>2026-08-21T14:01:55Z</time>
      </trkpt>
      <trkpt lat="49.07001" lon="4.0484">
        <ele>83</ele>
        <time>2026-08-21T14:02:00Z</time>
      </trkpt>
      <trkpt lat="49.07001" lon="4.0484">
        <ele>83</ele>
        <time>2026-08-21T14:02:06Z</time>
      </trkpt>
      <trkpt lat="49.07001" lon="4.0484">
        <ele>83</ele>
        <time>2026-08-21T14:02:11Z</time>
      </trkpt>
      <trkpt lat="49.07001" lon="4.0484">
        <ele>83</ele>
        <time>2026-08-21T14:02:16Z</time>
      </trkpt>
      <trkpt lat="49.07001" lon="4.0484">
        <ele>83</ele>
        <time>2026-08-21T14:02:22Z</time>
      </trkpt>
      <trkpt lat="49.07001" lon="4.0484">
        <ele>83</ele>
        <time>2026-08-21T14:02:27Z</time>
      </trkpt>
      <trkpt lat="49.07001" lon="4.0484">
        <ele>83</ele>
        <time>2026-08-21T14:02:32Z</time>
      </trkpt>
      <trkpt lat="49.07001" lon="4.0484">
        <ele>83</ele>
        <time>2026-08-21T14:02:38Z</time>
      </trkpt>
      <trkpt lat="49.07001" lon="4.0484">
        <ele>83</ele>
        <time>2026-08-21T14:02:43Z</time>
      </trkpt>
      <trkpt lat="49.07001" lon="4.0484">
        <ele>83</ele>
        <time>2026-08-21T14:02:48Z</time>
      </trkpt>
      <trkpt lat="49.07001" lon="4.0484">
        <ele>83</ele>
        <time>2026-08-21T14:02:54Z</time>
      </trkpt>
      <trkpt lat="49.07001" lon="4.0484">
        <ele>83</ele>
        <time>2026-08-21T14:02:59Z</time>
      </trkpt>
      <trkpt lat="49.07001" lon="4.0484">
        <ele>83</ele>
        <time>2026-08-21T14:03:04Z</time>
      </trkpt>
      <trkpt lat="49.07001" lon="4.0484">
        <ele>83</ele>
        <time>2026-08-21T14:03:10Z</time>
      </trkpt>
      <trkpt lat="49.07001" lon="4.0484">
        <ele>83</ele>
        <time>2026-08-21T14:03:15Z</time>
      </trkpt>
      <trkpt lat="49.07001" lon="4.0484">
        <ele>83</ele>
        <time>2026-08-21T14:03:20Z</time>
      </trkpt>
      <trkpt lat="49.07001" lon="4.0484">
        <ele>83</ele>
        <time>2026-08-21T14:03:26Z</time>
      </trkpt>
      <trkpt lat="49.07001" lon="4.0484">
        <ele>83</ele>
        <time>2026-08-21T14:03:31Z</time>
      </trkpt>
      <trkpt lat="49.07001" lon="4.0484">
        <ele>83</ele>
        <time>2026-08-21T14:03:36Z</time>
      </trkpt>
      <trkpt lat="49.07001" lon="4.0484">
        <ele>83</ele>
        <time>2026-08-21T14:03:42Z</time>
      </trkpt>
      <trkpt lat="49.07001" lon="4.0484">
        <ele>83</ele>
        <time>2026-08-21T14:03:47Z</time>
      </trkpt>
      <trkpt lat="49.07001" lon="4.0484">
        <ele>83</ele>
        <time>2026-08-21T14:03:52Z</time>
      </trkpt>
      <trkpt lat="49.07001" lon="4.0484">
        <ele>83</ele>
        <time>2026-08-21T14:03:58Z</time>
      </trkpt>
      <trkpt lat="49.07001" lon="4.0484">
        <ele>83</ele>
        <time>2026-08-21T14:04:03Z</time>
      </trkpt>
      <trkpt lat="49.07001" lon="4.0484">
        <ele>83</ele>
        <time>2026-08-21T14:04:08Z</time>
      </trkpt>
      <trkpt lat="49.07001" lon="4.0484">
        <ele>83</ele>
        <time>2026-08-21T14:04:14Z</time>
      </trkpt>
      <trkpt lat="49.07001" lon="4.0484">
        <ele>83</ele>
        <time>2026-08-21T14:04:19Z</time>
      </trkpt>
      <trkpt lat="49.07001" lon="4.0484">
        <ele>83</ele>
        <time>2026-08-21T14:04:24Z</time>
      </trkpt>
      <trkpt lat="49.07001" lon="4.0484">
        <ele>83</ele>
        <time>2026-08-21T14:04:30Z</time>
      </trkpt>
      <trkpt lat="49.07001" lon="4.0484">
        <ele>83</ele>
        <time>2026-08-21T14:04:35Z</time>
      </trkpt>
      <trkpt lat="49.07001" lon="4.0484">
        <ele>83</ele>
        <time>2026-08-21T14:04:40Z</time>
      </trkpt>
      <trkpt lat="49.07001" lon="4.0484">
        <ele>83</ele>
        <time>2026-08-21T14:04:46Z</time>
      </trkpt>
      <trkpt lat="49.07001" lon="4.0484">
        <ele>83</ele>
        <time>2026-08-21T14:04:51Z</time>
      </trkpt>
      <trkpt lat="49.07001" lon="4.0484">
        <ele>83</ele>
        <time>2026-08-21T14:04:56Z</time>
      </trkpt>
      <trkpt lat="49.07001" lon="4.0484">
        <ele>83</ele>
        <time>2026-08-21T14:05:02Z</time>
      </trkpt>
      <trkpt lat="49.07001" lon="4.0484">
        <ele>83</ele>
        <time>2026-08-21T14:05:07Z</time>
      </trkpt>
      <trkpt lat="49.07001" lon="4.0484">
        <ele>83</ele>
        <time>2026-08-21T14:05:12Z</time>
      </trkpt>
      <trkpt lat="49.07001" lon="4.0484">
        <ele>83</ele>
        <time>2026-08-21T14:05:18Z</time>
      </trkpt>
      <trkpt lat="49.07001" lon="4.0484">
        <ele>83</ele>
        <time>2026-08-21T14:05:23Z</time>
      </trkpt>
      <trkpt lat="49.07001" lon="4.0484">
        <ele>83</ele>
        <time>2026-08-21T14:05:28Z</time>
      </trkpt>
      <trkpt lat="49.07001" lon="4.0484">
        <ele>83</ele>
        <time>2026-08-21T14:05:34Z</time>
      </trkpt>
      <trkpt lat="49.07001" lon="4.0484">
        <ele>83</ele>
        <time>2026-08-21T14:05:39Z</time>
      </trkpt>
      <trkpt lat="49.07001" lon="4.0484">
        <ele>83</ele>
        <time>2026-08-21T14:05:44Z</time>
      </trkpt>
      <trkpt lat="49.07001" lon="4.0484">
        <ele>83</ele>
        <time>2026-08-21T14:05:50Z</time>
      </trkpt>
      <trkpt lat="49.07001" lon="4.0484">
        <ele>83</ele>
        <time>2026-08-21T14:05:55Z</time>
      </trkpt>
      <trkpt lat="49.07001" lon="4.0484">
        <ele>83</ele>
        <time>2026-08-21T14:06:00Z</time>
      </trkpt>
      <trkpt lat="49.07001" lon="4.0484">
        <ele>83</ele>
        <time>2026-08-21T14:06:06Z</time>
      </trkpt>
      <trkpt lat="49.07001" lon="4.0484">
        <ele>83</ele>
        <time>2026-08-21T14:06:11Z</time>
      </trkpt>
      <trkpt lat="49.07001" lon="4.0484">
        <ele>83</ele>
        <time>2026-08-21T14:06:16Z</time>
      </trkpt>
      <trkpt lat="49.07001" lon="4.0484">
        <ele>83</ele>
        <time>2026-08-21T14:06:22Z</time>
      </trkpt>
      <trkpt lat="49.07001" lon="4.0484">
        <ele>83</ele>
        <time>2026-08-21T14:06:27Z</time>
      </trkpt>
      <trkpt lat="49.07001" lon="4.0484">
        <ele>83</ele>
        <time>2026-08-21T14:06:32Z</time>
      </trkpt>
      <trkpt lat="49.07001" lon="4.0484">
        <ele>83</ele>
        <time>2026-08-21T14:06:38Z</time>
      </trkpt>
      <trkpt lat="49.07001" lon="4.0484">
        <ele>83</ele>
        <time>2026-08-21T14:06:43Z</time>
      </trkpt>
      <trkpt lat="49.07001" lon="4.0484">
        <ele>83</ele>
        <time>2026-08-21T14:06:48Z</time>
      </trkpt>
      <trkpt lat="49.07001" lon="4.0484">
        <ele>83</ele>
        <time>2026-08-21T14:06:54Z</time>
      </trkpt>
      <trkpt lat="49.07001" lon="4.0484">
        <ele>83</ele>
        <time>2026-08-21T14:06:59Z</time>
      </trkpt>
      <trkpt lat="49.07001" lon="4.0484">
        <ele>83</ele>
        <time>2026-08-21T14:07:04Z</time>
      </trkpt>
      <trkpt lat="49.07001" lon="4.0484">
        <ele>83</ele>
        <time>2026-08-21T14:07:10Z</time>
      </trkpt>
      <trkpt lat="49.07001" lon="4.0484">
        <ele>83</ele>
        <time>2026-08-21T14:07:15Z</time>
      </trkpt>
      <trkpt lat="49.07001" lon="4.0484">
        <ele>83</ele>
        <time>2026-08-21T14:07:20Z</time>
      </trkpt>
      <trkpt lat="49.07001" lon="4.0484">
        <ele>83</ele>
        <time>2026-08-21T14:07:26Z</time>
      </trkpt>
      <trkpt lat="49.07001" lon="4.0484">
        <ele>83</ele>
        <time>2026-08-21T14:07:31Z</time>
      </trkpt>
      <trkpt lat="49.07001" lon="4.0484">
        <ele>83</ele>
        <time>2026-08-21T14:07:36Z</time>
      </trkpt>
      <trkpt lat="49.07001" lon="4.0484">
        <ele>83</ele>
        <time>2026-08-21T14:07:42Z</time>
      </trkpt>
      <trkpt lat="49.07001" lon="4.0484">
        <ele>83</ele>
        <time>2026-08-21T14:07:47Z</time>
      </trkpt>
      <trkpt lat="49.07001" lon="4.0484">
        <ele>83</ele>
        <time>2026-08-21T14:07:52Z</time>
      </trkpt>
      <trkpt lat="49.07001" lon="4.0484">
        <ele>83</ele>
        <time>2026-08-21T14:07:58Z</time>
      </trkpt>
      <trkpt lat="49.07001" lon="4.0484">
        <ele>83</ele>
        <time>2026-08-21T14:08:03Z</time>
      </trkpt>
      <trkpt lat="49.07001" lon="4.0484">
        <ele>83</ele>
        <time>2026-08-21T14:08:08Z</time>
      </trkpt>
      <trkpt lat="49.07001" lon="4.0484">
        <ele>83</ele>
        <time>2026-08-21T14:08:14Z</time>
      </trkpt>
      <trkpt lat="49.07001" lon="4.0484">
        <ele>83</ele>
        <time>2026-08-21T14:08:19Z</time>
      </trkpt>
      <trkpt lat="49.07001" lon="4.0484">
        <ele>83</ele>
        <time>2026-08-21T14:08:24Z</time>
      </trkpt>
      <trkpt lat="49.07001" lon="4.0484">
        <ele>83</ele>
        <time>2026-08-21T14:08:30Z</time>
      </trkpt>
      <trkpt lat="49.07001" lon="4.0484">
        <ele>83</ele>
        <time>2026-08-21T14:08:35Z</time>
      </trkpt>
      <trkpt lat="49.07001" lon="4.0484">
        <ele>83</ele>
        <time>2026-08-21T14:08:40Z</time>
      </trkpt>
      <trkpt lat="49.07001" lon="4.0484">
        <ele>83</ele>
        <time>2026-08-21T14:08:46Z</time>
      </trkpt>
      <trkpt lat="49.07001" lon="4.0484">
        <ele>83</ele>
        <time>2026-08-21T14:08:51Z</time>
      </trkpt>
      <trkpt lat="49.07001" lon="4.0484">
        <ele>83</ele>
        <time>2026-08-21T14:08:56Z</time>
      </trkpt>
      <trkpt lat="49.07001" lon="4.0484">
        <ele>83</ele>
        <time>2026-08-21T14:09:02Z</time>
      </trkpt>
      <trkpt lat="49.07001" lon="4.0484">
        <ele>83</ele>
        <time>2026-08-21T14:09:07Z</time>
      </trkpt>
      <trkpt lat="49.07001" lon="4.0484">
        <ele>83</ele>
        <time>2026-08-21T14:09:12Z</time>
      </trkpt>
      <trkpt lat="49.07001" lon="4.0484">
        <ele>83</ele>
        <time>2026-08-21T14:09:18Z</time>
      </trkpt>
      <trkpt lat="49.07001" lon="4.0484">
        <ele>83</ele>
        <time>2026-08-21T14:09:23Z</time>
      </trkpt>
      <trkpt lat="49.07001" lon="4.0484">
        <ele>83</ele>
        <time>2026-08-21T14:09:28Z</time>
      </trkpt>
      <trkpt lat="49.07001" lon="4.0484">
        <ele>83</ele>
        <time>2026-08-21T14:09:34Z</time>
      </trkpt>
      <trkpt lat="49.07001" lon="4.0484">
        <ele>83</ele>
        <time>2026-08-21T14:09:39Z</time>
      </trkpt>
      <trkpt lat="49.07001" lon="4.0484">
        <ele>83</ele>
        <time>2026-08-21T14:09:44Z</time>
      </trkpt>
      <trkpt lat="49.07001" lon="4.0484">
        <ele>83</ele>
        <time>2026-08-21T14:09:50Z</time>
      </trkpt>
      <trkpt lat="49.07001" lon="4.0484">
        <ele>83</ele>
        <time>2026-08-21T14:09:55Z</time>
      </trkpt>
      <trkpt lat="49.07001" lon="4.0484">
        <ele>83</ele>
        <time>2026-08-21T14:10:00Z</time>
      </trkpt>
      <trkpt lat="49.07001" lon="4.0484">
        <ele>83</ele>
        <time>2026-08-21T14:10:06Z</time>
      </trkpt>
      <trkpt lat="49.07001" lon="4.0484">
        <ele>83</ele>
        <time>2026-08-21T14:10:11Z</time>
      </trkpt>
      <trkpt lat="49.07001" lon="4.0484">
        <ele>83</ele>
        <time>2026-08-21T14:10:16Z</time>
      </trkpt>
      <trkpt lat="49.07001" lon="4.0484">
        <ele>83</ele>
        <time>2026-08-21T14:10:22Z</time>
      </trkpt>
      <trkpt lat="49.07001" lon="4.0484">
        <ele>83</ele>
        <time>2026-08-21T14:10:27Z</time>
      </trkpt>
      <trkpt lat="49.07001" lon="4.0484">
        <ele>83</ele>
        <time>2026-08-21T14:10:32Z</time>
      </trkpt>
      <trkpt lat="49.07001" lon="4.0484">
        <ele>83</ele>
        <time>2026-08-21T14:10:38Z</time>
      </trkpt>
      <trkpt lat="49.07001" lon="4.0484">
        <ele>83</ele>
        <time>2026-08-21T14:10:43Z</time>
      </trkpt>
      <trkpt lat="49.07001" lon="4.0484">
        <ele>83</ele>
        <time>2026-08-21T14:10:48Z</time>
      </trkpt>
      <trkpt lat="49.07001" lon="4.0484">
        <ele>83</ele>
        <time>2026-08-21T14:10:54Z</time>
      </trkpt>
      <trkpt lat="49.07001" lon="4.0484">
        <ele>83</ele>
        <time>2026-08-21T14:10:59Z</time>
      </trkpt>
      <trkpt lat="49.07001" lon="4.0484">
        <ele>83</ele>
        <time>2026-08-21T14:11:04Z</time>
      </trkpt>
      <trkpt lat="49.07001" lon="4.0484">
        <ele>83</ele>
        <time>2026-08-21T14:11:10Z</time>
      </trkpt>
      <trkpt lat="49.07001" lon="4.0484">
        <ele>83</ele>
        <time>2026-08-21T14:11:15Z</time>
      </trkpt>
      <trkpt lat="49.07001" lon="4.0484">
        <ele>83</ele>
        <time>2026-08-21T14:11:20Z</time>
      </trkpt>
      <trkpt lat="49.07001" lon="4.0484">
        <ele>83</ele>
        <time>2026-08-21T14:11:26Z</time>
      </trkpt>
      <trkpt lat="49.07001" lon="4.0484">
        <ele>83</ele>
        <time>2026-08-21T14:11:31Z</time>
      </trkpt>
      <trkpt lat="49.07001" lon="4.0484">
        <ele>83</ele>
        <time>2026-08-21T14:11:36Z</time>
      </trkpt>
      <trkpt lat="49.07001" lon="4.0484">
        <ele>83</ele>
        <time>2026-08-21T14:11:42Z</time>
      </trkpt>
      <trkpt lat="49.07001" lon="4.0484">
        <ele>83</ele>
        <time>2026-08-21T14:11:47Z</time>
      </trkpt>
      <trkpt lat="49.07001" lon="4.0484">
        <ele>83</ele>
        <time>2026-08-21T14:11:52Z</time>
      </trkpt>
      <trkpt lat="49.07001" lon="4.0484">
        <ele>83</ele>
        <time>2026-08-21T14:11:58Z</time>
      </trkpt>
      <trkpt lat="49.07001" lon="4.0484">
        <ele>83</ele>
        <time>2026-08-21T14:12:03Z</time>
      </trkpt>
      <trkpt lat="49.07001" lon="4.0484">
        <ele>83</ele>
        <time>2026-08-21T14:12:08Z</time>
      </trkpt>
      <trkpt lat="49.07001" lon="4.0484">
        <ele>83</ele>
        <time>2026-08-21T14:12:14Z</time>
      </trkpt>
      <trkpt lat="49.07001" lon="4.0484">
        <ele>83</ele>
        <time>2026-08-21T14:12:19Z</time>
      </trkpt>
      <trkpt lat="49.07001" lon="4.0484">
        <ele>83</ele>
        <time>2026-08-21T14:12:24Z</time>
      </trkpt>
      <trkpt lat="49.07001" lon="4.0484">
        <ele>83</ele>
        <time>2026-08-21T14:12:30Z</time>
      </trkpt>
      <trkpt lat="49.07001" lon="4.0484">
        <ele>83</ele>
        <time>2026-08-21T14:12:35Z</time>
      </trkpt>
      <trkpt lat="49.07001" lon="4.0484">
        <ele>83</ele>
        <time>2026-08-21T14:12:40Z</time>
      </trkpt>
      <trkpt lat="49.07001" lon="4.0484">
        <ele>83</ele>
        <time>2026-08-21T14:12:46Z</time>
      </trkpt>
      <trkpt lat="49.07001" lon="4.0484">
        <ele>83</ele>
        <time>2026-08-21T14:12:51Z</time>
      </trkpt>
      <trkpt lat="49.07001" lon="4.0484">
        <ele>83</ele>
        <time>2026-08-21T14:12:56Z</time>
      </trkpt>
      <trkpt lat="49.07001" lon="4.0484">
        <ele>83</ele>
        <time>2026-08-21T14:13:02Z</time>
      </trkpt>
      <trkpt lat="49.07001" lon="4.0484">
        <ele>83</ele>
        <time>2026-08-21T14:13:07Z</time>
      </trkpt>
      <trkpt lat="49.07001" lon="4.0484">
        <ele>83</ele>
        <time>2026-08-21T14:13:12Z</time>
      </trkpt>
      <trkpt lat="49.07001" lon="4.0484">
        <ele>83</ele>
        <time>2026-08-21T14:13:18Z</time>
      </trkpt>
      <trkpt lat="49.07001" lon="4.0484">
        <ele>83</ele>
        <time>2026-08-21T14:13:23Z</time>
      </trkpt>
      <trkpt lat="49.07001" lon="4.0484">
        <ele>83</ele>
        <time>2026-08-21T14:13:28Z</time>
      </trkpt>
      <trkpt lat="49.07001" lon="4.0484">
        <ele>83</ele>
        <time>2026-08-21T14:13:34Z</time>
      </trkpt>
      <trkpt lat="49.07001" lon="4.0484">
        <ele>83</ele>
        <time>2026-08-21T14:13:39Z</time>
      </trkpt>
      <trkpt lat="49.07001" lon="4.0484">
        <ele>83</ele>
        <time>2026-08-21T14:13:44Z</time>
      </trkpt>
      <trkpt lat="49.07001" lon="4.0484">
        <ele>83</ele>
        <time>2026-08-21T14:13:50Z</time>
      </trkpt>
      <trkpt lat="49.07001" lon="4.0484">
        <ele>83</ele>
        <time>2026-08-21T14:13:55Z</time>
      </trkpt>
      <trkpt lat="49.07001" lon="4.0484">
        <ele>83</ele>
        <time>2026-08-21T14:14:00Z</time>
      </trkpt>
      <trkpt lat="49.07001" lon="4.0484">
        <ele>83</ele>
        <time>2026-08-21T14:14:06Z</time>
      </trkpt>
      <trkpt lat="49.07001" lon="4.0484">
        <ele>83</ele>
        <time>2026-08-21T14:14:11Z</time>
      </trkpt>
      <trkpt lat="49.07001" lon="4.0484">
        <ele>83</ele>
        <time>2026-08-21T14:14:16Z</time>
      </trkpt>
      <trkpt lat="49.07001" lon="4.0484">
        <ele>83</ele>
        <time>2026-08-21T14:14:22Z</time>
      </trkpt>
      <trkpt lat="49.07001" lon="4.0484">
        <ele>83</ele>
        <time>2026-08-21T14:14:27Z</time>
      </trkpt>
      <trkpt lat="49.07001" lon="4.0484">
        <ele>83</ele>
        <time>2026-08-21T14:14:32Z</time>
      </trkpt>
      <trkpt lat="49.07001" lon="4.0484">
        <ele>83</ele>
        <time>2026-08-21T14:14:38Z</time>
      </trkpt>
      <trkpt lat="49.07001" lon="4.0484">
        <ele>83</ele>
        <time>2026-08-21T14:14:43Z</time>
      </trkpt>
      <trkpt lat="49.07001" lon="4.0484">
        <ele>83</ele>
        <time>2026-08-21T14:14:48Z</time>
      </trkpt>
      <trkpt lat="49.07001" lon="4.0484">
        <ele>83</ele>
        <time>2026-08-21T14:14:54Z</time>
      </trkpt>
      <trkpt lat="49.07001" lon="4.0484">
        <ele>83</ele>
        <time>2026-08-21T14:14:59Z</time>
      </trkpt>
      <trkpt lat="49.07001" lon="4.0484">
        <ele>83</ele>
        <time>2026-08-21T14:15:04Z</time>
      </trkpt>
      <trkpt lat="49.07001" lon="4.0484">
        <ele>83</ele>
        <time>2026-08-21T14:15:10Z</time>
      </trkpt>
      <trkpt lat="49.07001" lon="4.0484">
        <ele>83</ele>
        <time>2026-08-21T14:15:15Z</time>
      </trkpt>
      <trkpt lat="49.07001" lon="4.0484">
        <ele>83</ele>
        <time>2026-08-21T14:15:20Z</time>
      </trkpt>
      <trkpt lat="49.07001" lon="4.0484">
        <ele>83</ele>
        <time>2026-08-21T14:15:26Z</time>
      </trkpt>
      <trkpt lat="49.07001" lon="4.0484">
        <ele>83</ele>
        <time>2026-08-21T14:15:31Z</time>
      </trkpt>
      <trkpt lat="49.07001" lon="4.0484">
        <ele>83</ele>
        <time>2026-08-21T14:15:36Z</time>
      </trkpt>
      <trkpt lat="49.07001" lon="4.0484">
        <ele>83</ele>
        <time>2026-08-21T14:15:42Z</time>
      </trkpt>
      <trkpt lat="49.07001" lon="4.0484">
        <ele>83</ele>
        <time>2026-08-21T14:15:47Z</time>
      </trkpt>
      <trkpt lat="49.07001" lon="4.0484">
        <ele>83</ele>
        <time>2026-08-21T14:15:52Z</time>
      </trkpt>
      <trkpt lat="49.07001" lon="4.0484">
        <ele>83</ele>
        <time>2026-08-21T14:15:58Z</time>
      </trkpt>
      <trkpt lat="49.07001" lon="4.0484">
        <ele>83</ele>
        <time>2026-08-21T14:16:03Z</time>
      </trkpt>
      <trkpt lat="49.07001" lon="4.0484">
        <ele>83</ele>
        <time>2026-08-21T14:16:08Z</time>
      </trkpt>
      <trkpt lat="49.07001" lon="4.0484">
        <ele>83</ele>
        <time>2026-08-21T14:16:14Z</time>
      </trkpt>
      <trkpt lat="49.07001" lon="4.0484">
        <ele>83</ele>
        <time>2026-08-21T14:16:19Z</time>
      </trkpt>
      <trkpt lat="49.07001" lon="4.0484">
        <ele>83</ele>
        <time>2026-08-21T14:16:24Z</time>
      </trkpt>
      <trkpt lat="49.07001" lon="4.0484">
        <ele>83</ele>
        <time>2026-08-21T14:16:30Z</time>
      </trkpt>
      <trkpt lat="49.07001" lon="4.0484">
        <ele>83</ele>
        <time>2026-08-21T14:16:35Z</time>
      </trkpt>
      <trkpt lat="49.07001" lon="4.0484">
        <ele>83</ele>
        <time>2026-08-21T14:16:40Z</time>
      </trkpt>
      <trkpt lat="49.07001" lon="4.0484">
        <ele>83</ele>
        <time>2026-08-21T14:16:46Z</time>
      </trkpt>
      <trkpt lat="49.07001" lon="4.0484">
        <ele>83</ele>
        <time>2026-08-21T14:16:51Z</time>
      </trkpt>
      <trkpt lat="49.07001" lon="4.0484">
        <ele>83</ele>
        <time>2026-08-21T14:16:56Z</time>
      </trkpt>
      <trkpt lat="49.07001" lon="4.0484">
        <ele>83</ele>
        <time>2026-08-21T14:17:02Z</time>
      </trkpt>
      <trkpt lat="49.07001" lon="4.0484">
        <ele>83</ele>
        <time>2026-08-21T14:17:07Z</time>
      </trkpt>
      <trkpt lat="49.07001" lon="4.0484">
        <ele>83</ele>
        <time>2026-08-21T14:17:12Z</time>
      </trkpt>
      <trkpt lat="49.07001" lon="4.0484">
        <ele>83</ele>
        <time>2026-08-21T14:17:18Z</time>
      </trkpt>
      <trkpt lat="49.07001" lon="4.0484">
        <ele>83</ele>
        <time>2026-08-21T14:17:23Z</time>
      </trkpt>
      <trkpt lat="49.07001" lon="4.0484">
        <ele>83</ele>
        <time>2026-08-21T14:17:28Z</time>
      </trkpt>
      <trkpt lat="49.07001" lon="4.0484">
        <ele>83</ele>
        <time>2026-08-21T14:17:34Z</time>
      </trkpt>
      <trkpt lat="49.07001" lon="4.0484">
        <ele>83</ele>
        <time>2026-08-21T14:17:39Z</time>
      </trkpt>
      <trkpt lat="49.07001" lon="4.0484">
        <ele>83</ele>
        <time>2026-08-21T14:17:44Z</time>
      </trkpt>
      <trkpt lat="49.07001" lon="4.0484">
        <ele>83</ele>
        <time>2026-08-21T14:17:50Z</time>
      </trkpt>
      <trkpt lat="49.07001" lon="4.0484">
        <ele>83</ele>
        <time>2026-08-21T14:17:55Z</time>
      </trkpt>
      <trkpt lat="49.07001" lon="4.0484">
        <ele>83</ele>
        <time>2026-08-21T14:18:00Z</time>
      </trkpt>
      <trkpt lat="49.07001" lon="4.0484">
        <ele>83</ele>
        <time>2026-08-21T14:18:06Z</time>
      </trkpt>
      <trkpt lat="49.07001" lon="4.0484">
        <ele>83</ele>
        <time>2026-08-21T14:18:11Z</time>
      </trkpt>
      <trkpt lat="49.07001" lon="4.0484">
        <ele>83</ele>
        <time>2026-08-21T14:18:16Z</time>
      </trkpt>
      <trkpt lat="49.07001" lon="4.0484">
        <ele>83</ele>
        <time>2026-08-21T14:18:22Z</time>
      </trkpt>
      <trkpt lat="49.07001" lon="4.0484">
        <ele>83</ele>
        <time>2026-08-21T14:18:27Z</time>
      </trkpt>
      <trkpt lat="49.07001" lon="4.0484">
        <ele>83</ele>
        <time>2026-08-21T14:18:32Z</time>
      </trkpt>
      <trkpt lat="49.07001" lon="4.0484">
        <ele>83</ele>
        <time>2026-08-21T14:18:38Z</time>
      </trkpt>
      <trkpt lat="49.07001" lon="4.0484">
        <ele>83</ele>
        <time>2026-08-21T14:18:43Z</time>
      </trkpt>
      <trkpt lat="49.07001" lon="4.0484">
        <ele>83</ele>
        <time>2026-08-21T14:18:48Z</time>
      </trkpt>
      <trkpt lat="49.07001" lon="4.0484">
        <ele>83</ele>
        <time>2026-08-21T14:18:54Z</time>
      </trkpt>
      <trkpt lat="49.07001" lon="4.0484">
        <ele>83</ele>
        <time>2026-08-21T14:18:59Z</time>
      </trkpt>
      <trkpt lat="49.07001" lon="4.0484">
        <ele>83</ele>
        <time>2026-08-21T14:19:04Z</time>
      </trkpt>
      <trkpt lat="49.07001" lon="4.0484">
        <ele>83</ele>
        <time>2026-08-21T14:19:10Z</time>
      </trkpt>
      <trkpt lat="49.07001" lon="4.0484">
        <ele>83</ele>
        <time>2026-08-21T14:19:15Z</time>
      </trkpt>
      <trkpt lat="49.07001" lon="4.0484">
        <ele>83</ele>
        <time>2026-08-21T14:19:20Z</time>
      </trkpt>
      <trkpt lat="49.07001" lon="4.0484">
        <ele>83</ele>
        <time>2026-08-21T14:19:26Z</time>
      </trkpt>
      <trkpt lat="49.07001" lon="4.0484">
        <ele>83</ele>
        <time>2026-08-21T14:19:31Z</time>
      </trkpt>
      <trkpt lat="49.07001" lon="4.0484">
        <ele>83</ele>
        <time>2026-08-21T14:19:36Z</time>
      </trkpt>
      <trkpt lat="49.07001" lon="4.0484">
        <ele>83</ele>
        <time>2026-08-21T14:19:42Z</time>
      </trkpt>
      <trkpt lat="49.07001" lon="4.0484">
        <ele>83</ele>
        <time>2026-08-21T14:19:47Z</time>
      </trkpt>
      <trkpt lat="49.07001" lon="4.0484">
        <ele>83</ele>
        <time>2026-08-21T14:19:52Z</time>
      </trkpt>
      <trkpt lat="49.07001" lon="4.0484">
        <ele>83</ele>
        <time>2026-08-21T14:19:58Z</time>
      </trkpt>
      <trkpt lat="49.07001" lon="4.0484">
        <ele>83</ele>
        <time>2026-08-21T14:20:03Z</time>
      </trkpt>
      <trkpt lat="49.07001" lon="4.0484">
        <ele>83</ele>
        <time>2026-08-21T14:20:08Z</time>
      </trkpt>
      <trkpt lat="49.07001" lon="4.0484">
        <ele>83</ele>
        <time>2026-08-21T14:20:14Z</time>
      </trkpt>
      <trkpt lat="49.07001" lon="4.0484">
        <ele>83</ele>
        <time>2026-08-21T14:20:19Z</time>
      </trkpt>
      <trkpt lat="49.07001" lon="4.0484">
        <ele>83</ele>
        <time>2026-08-21T14:20:24Z</time>
      </trkpt>
      <trkpt lat="49.07001" lon="4.0484">
        <ele>83</ele>
        <time>2026-08-21T14:20:30Z</time>
      </trkpt>
      <trkpt lat="49.07001" lon="4.0484">
        <ele>83</ele>
        <time>2026-08-21T14:20:35Z</time>
      </trkpt>
      <trkpt lat="49.07001" lon="4.0484">
        <ele>83</ele>
        <time>2026-08-21T14:20:40Z</time>
      </trkpt>
      <trkpt lat="49.07001" lon="4.0484">
        <ele>83</ele>
        <time>2026-08-21T14:20:46Z</time>
      </trkpt>
      <trkpt lat="49.07001" lon="4.0484">
        <ele>83</ele>
        <time>2026-08-21T14:20:51Z</time>
      </trkpt>
      <trkpt lat="49.07001" lon="4.0484">
        <ele>83</ele>
        <time>2026-08-21T14:20:56Z</time>
      </trkpt>
      <trkpt lat="49.07001" lon="4.0484">
        <ele>83</ele>
        <time>2026-08-21T14:21:02Z</time>
      </trkpt>
      <trkpt lat="49.07001" lon="4.0484">
        <ele>83</ele>
        <time>2026-08-21T14:21:07Z</time>
      </trkpt>
      <trkpt lat="49.07001" lon="4.0484">
        <ele>83</ele>
        <time>2026-08-21T14:21:12Z</time>
      </trkpt>
      <trkpt lat="49.07001" lon="4.0484">
        <ele>83</ele>
        <time>2026-08-21T14:21:18Z</time>
      </trkpt>
      <trkpt lat="49.07001" lon="4.0484">
        <ele>83</ele>
        <time>2026-08-21T14:21:23Z</time>
      </trkpt>
      <trkpt lat="49.07001" lon="4.0484">
        <ele>83</ele>
        <time>2026-08-21T14:21:28Z</time>
      </trkpt>
      <trkpt lat="49.07001" lon="4.0484">
        <ele>83</ele>
        <time>2026-08-21T14:21:34Z</time>
      </trkpt>
      <trkpt lat="49.07001" lon="4.0484">
        <ele>83</ele>
        <time>2026-08-21T14:21:39Z</time>
      </trkpt>
      <trkpt lat="49.07001" lon="4.0484">
        <ele>83</ele>
        <time>2026-08-21T14:21:44Z</time>
      </trkpt>
      <trkpt lat="49.07001" lon="4.0484">
        <ele>83</ele>
        <time>2026-08-21T14:21:50Z</time>
      </trkpt>
      <trkpt lat="49.07001" lon="4.0484">
        <ele>83</ele>
        <time>2026-08-21T14:21:55Z</time>
      </trkpt>
      <trkpt lat="49.07001" lon="4.0484">
        <ele>83</ele>
        <time>2026-08-21T14:22:00Z</time>
      </trkpt>
      <trkpt lat="49.07001" lon="4.0484">
        <ele>83</ele>
        <time>2026-08-21T14:22:06Z</time>
      </trkpt>
      <trkpt lat="49.07001" lon="4.0484">
        <ele>83</ele>
        <time>2026-08-21T14:22:11Z</time>
      </trkpt>
      <trkpt lat="49.07001" lon="4.0484">
        <ele>83</ele>
        <time>2026-08-21T14:22:16Z</time>
      </trkpt>
      <trkpt lat="49.07001" lon="4.0484">
        <ele>83</ele>
        <time>2026-08-21T14:22:22Z</time>
      </trkpt>
      <trkpt lat="49.07001" lon="4.0484">
        <ele>83</ele>
        <time>2026-08-21T14:22:27Z</time>
      </trkpt>
      <trkpt lat="49.07001" lon="4.0484">
        <ele>83</ele>
        <time>2026-08-21T14:22:32Z</time>
      </trkpt>
      <trkpt lat="49.07001" lon="4.0484">
        <ele>83</ele>
        <time>2026-08-21T14:22:38Z</time>
      </trkpt>
      <trkpt lat="49.07001" lon="4.0484">
        <ele>83</ele>
        <time>2026-08-21T14:22:43Z</time>
      </trkpt>
      <trkpt lat="49.07001" lon="4.0484">
        <ele>83</ele>
        <time>2026-08-21T14:22:48Z</time>
      </trkpt>
      <trkpt lat="49.07001" lon="4.0484">
        <ele>83</ele>
        <time>2026-08-21T14:22:54Z</time>
      </trkpt>
      <trkpt lat="49.07001" lon="4.0484">
        <ele>83</ele>
        <time>2026-08-21T14:22:59Z</time>
      </trkpt>
      <trkpt lat="49.07001" lon="4.0484">
        <ele>83</ele>
        <time>2026-08-21T14:23:04Z</time>
      </trkpt>
      <trkpt lat="49.07001" lon="4.0484">
        <ele>83</ele>
        <time>2026-08-21T14:23:10Z</time>
      </trkpt>
      <trkpt lat="49.07001" lon="4.0484">
        <ele>83</ele>
        <time>2026-08-21T14:23:15Z</time>
      </trkpt>
      <trkpt lat="49.07001" lon="4.0484">
        <ele>83</ele>
        <time>2026-08-21T14:23:20Z</time>
      </trkpt>
      <trkpt lat="49.07001" lon="4.0484">
        <ele>83</ele>
        <time>2026-08-21T14:23:26Z</time>
      </trkpt>
      <trkpt lat="49.07001" lon="4.0484">
        <ele>83</ele>
        <time>2026-08-21T14:23:31Z</time>
      </trkpt>
      <trkpt lat="49.07001" lon="4.0484">
        <ele>83</ele>
        <time>2026-08-21T14:23:36Z</time>
      </trkpt>
      <trkpt lat="49.07001" lon="4.0484">
        <ele>83</ele>
        <time>2026-08-21T14:23:42Z</time>
      </trkpt>
      <trkpt lat="49.07001" lon="4.0484">
        <ele>83</ele>
        <time>2026-08-21T14:23:47Z</time>
      </trkpt>
      <trkpt lat="49.07001" lon="4.0484">
        <ele>83</ele>
        <time>2026-08-21T14:23:52Z</time>
      </trkpt>
      <trkpt lat="49.07001" lon="4.0484">
        <ele>83</ele>
        <time>2026-08-21T14:23:58Z</time>
      </trkpt>
      <trkpt lat="49.07001" lon="4.0484">
        <ele>83</ele>
        <time>2026-08-21T14:24:03Z</time>
      </trkpt>
      <trkpt lat="49.07001" lon="4.0484">
        <ele>83</ele>
        <time>2026-08-21T14:24:08Z</time>
      </trkpt>
      <trkpt lat="49.07001" lon="4.0484">
        <ele>83</ele>
        <time>2026-08-21T14:24:14Z</time>
      </trkpt>
      <trkpt lat="49.07001" lon="4.0484">
        <ele>83</ele>
        <time>2026-08-21T14:24:19Z</time>
      </trkpt>
      <trkpt lat="49.07001" lon="4.0484">
        <ele>83</ele>
        <time>2026-08-21T14:24:24Z</time>
      </trkpt>
      <trkpt lat="49.07001" lon="4.0484">
        <ele>83</ele>
        <time>2026-08-21T14:24:30Z</time>
      </trkpt>
      <trkpt lat="49.07001" lon="4.0484">
        <ele>83</ele>
        <time>2026-08-21T14:24:35Z</time>
      </trkpt>
      <trkpt lat="49.07001" lon="4.0484">
        <ele>83</ele>
        <time>2026-08-21T14:24:40Z</time>
      </trkpt>
      <trkpt lat="49.07001" lon="4.0484">
        <ele>83</ele>
        <time>2026-08-21T14:24:46Z</time>
      </trkpt>
      <trkpt lat="49.07001" lon="4.0484">
        <ele>83</ele>
        <time>2026-08-21T14:24:51Z</time>
      </trkpt>
      <trkpt lat="49.07001" lon="4.0484">
        <ele>83</ele>
        <time>2026-08-21T14:24:56Z</time>
      </trkpt>
      <trkpt lat="49.07001" lon="4.0484">
        <ele>83</ele>
        <time>2026-08-21T14:25:02Z</time>
      </trkpt>
      <trkpt lat="49.07001" lon="4.0484">
        <ele>83</ele>
        <time>2026-08-21T14:25:07Z</time>
      </trkpt>
      <trkpt lat="49.07001" lon="4.0484">
        <ele>83</ele>
        <time>2026-08-21T14:25:12Z</time>
      </trkpt>
      <trkpt lat="49.07001" lon="4.0484">
        <ele>83</ele>
        <time>2026-08-21T14:25:18Z</time>
      </trkpt>
      <trkpt lat="49.07001" lon="4.0484">
        <ele>83</ele>
        <time>2026-08-21T14:25:23Z</time>
      </trkpt>
      <trkpt lat="49.07001" lon="4.0484">
        <ele>83</ele>
        <time>2026-08-21T14:25:28Z</time>
      </trkpt>
      <trkpt lat="49.07001" lon="4.0484">
        <ele>83</ele>
        <time>2026-08-21T14:25:34Z</time>
      </trkpt>
      <trkpt lat="49.07001" lon="4.0484">
        <ele>83</ele>
        <time>2026-08-21T14:25:39Z</time>
      </trkpt>
      <trkpt lat="49.07001" lon="4.0484">
        <ele>83</ele>
        <time>2026-08-21T14:25:44Z</time>
      </trkpt>
      <trkpt lat="49.07001" lon="4.0484">
        <ele>83</ele>
        <time>2026-08-21T14:25:50Z</time>
      </trkpt>
      <trkpt lat="49.07001" lon="4.0484">
        <ele>83</ele>
        <time>2026-08-21T14:25:55Z</time>
      </trkpt>
      <trkpt lat="49.07001" lon="4.0484">
        <ele>83</ele>
        <time>2026-08-21T14:26:00Z</time>
      </trkpt>
      <trkpt lat="49.07001" lon="4.0484">
        <ele>83</ele>
        <time>2026-08-21T14:26:06Z</time>
      </trkpt>
      <trkpt lat="49.07001" lon="4.0484">
        <ele>83</ele>
        <time>2026-08-21T14:26:11Z</time>
      </trkpt>
      <trkpt lat="49.07001" lon="4.0484">
        <ele>83</ele>
        <time>2026-08-21T14:26:16Z</time>
      </trkpt>
      <trkpt lat="49.07001" lon="4.0484">
        <ele>83</ele>
        <time>2026-08-21T14:26:22Z</time>
      </trkpt>
      <trkpt lat="49.07001" lon="4.0484">
        <ele>83</ele>
        <time>2026-08-21T14:26:27Z</time>
      </trkpt>
      <trkpt lat="49.07001" lon="4.0484">
        <ele>83</ele>
        <time>2026-08-21T14:26:32Z</time>
      </trkpt>
      <trkpt lat="49.07001" lon="4.0484">
        <ele>83</ele>
        <time>2026-08-21T14:26:38Z</time>
      </trkpt>
      <trkpt lat="49.07001" lon="4.0484">
        <ele>83</ele>
        <time>2026-08-21T14:26:43Z</time>
      </trkpt>
      <trkpt lat="49.07001" lon="4.0484">
        <ele>83</ele>
        <time>2026-08-21T14:26:48Z</time>
      </trkpt>
      <trkpt lat="49.07001" lon="4.0484">
        <ele>83</ele>
        <time>2026-08-21T14:26:54Z</time>
      </trkpt>
      <trkpt lat="49.07001" lon="4.0484">
        <ele>83</ele>
        <time>2026-08-21T14:26:59Z</time>
      </trkpt>
      <trkpt lat="49.07001" lon="4.0484">
        <ele>83</ele>
        <time>2026-08-21T14:27:04Z</time>
      </trkpt>
      <trkpt lat="49.07001" lon="4.0484">
        <ele>83</ele>
        <time>2026-08-21T14:27:10Z</time>
      </trkpt>
      <trkpt lat="49.07001" lon="4.0484">
        <ele>83</ele>
        <time>2026-08-21T14:27:15Z</time>
      </trkpt>
      <trkpt lat="49.07001" lon="4.0484">
        <ele>83</ele>
        <time>2026-08-21T14:27:20Z</time>
      </trkpt>
      <trkpt lat="49.07001" lon="4.0484">
        <ele>83</ele>
        <time>2026-08-21T14:27:26Z</time>
      </trkpt>
      <trkpt lat="49.07001" lon="4.0484">
        <ele>83</ele>
        <time>2026-08-21T14:27:31Z</time>
      </trkpt>
      <trkpt lat="49.07001" lon="4.0484">
        <ele>83</ele>
        <time>2026-08-21T14:27:36Z</time>
      </trkpt>
      <trkpt lat="49.07001" lon="4.0484">
        <ele>83</ele>
        <time>2026-08-21T14:27:42Z</time>
      </trkpt>
      <trkpt lat="49.07001" lon="4.0484">
        <ele>83</ele>
        <time>2026-08-21T14:27:47Z</time>
      </trkpt>
      <trkpt lat="49.07001" lon="4.0484">
        <ele>83</ele>
        <time>2026-08-21T14:27:52Z</time>
      </trkpt>
      <trkpt lat="49.07001" lon="4.0484">
        <ele>83</ele>
        <time>2026-08-21T14:27:58Z</time>
      </trkpt>
      <trkpt lat="49.07001" lon="4.0484">
        <ele>83</ele>
        <time>2026-08-21T14:28:03Z</time>
      </trkpt>
      <trkpt lat="49.07001" lon="4.0484">
        <ele>83</ele>
        <time>2026-08-21T14:28:08Z</time>
      </trkpt>
      <trkpt lat="49.07001" lon="4.0484">
        <ele>83</ele>
        <time>2026-08-21T14:28:14Z</time>
      </trkpt>
      <trkpt lat="49.07001" lon="4.0484">
        <ele>83</ele>
        <time>2026-08-21T14:28:19Z</time>
      </trkpt>
      <trkpt lat="49.07001" lon="4.0484">
        <ele>83</ele>
        <time>2026-08-21T14:28:24Z</time>
      </trkpt>
      <trkpt lat="49.07001" lon="4.0484">
        <ele>83</ele>
        <time>2026-08-21T14:28:30Z</time>
      </trkpt>
      <trkpt lat="49.07001" lon="4.0484">
        <ele>83</ele>
        <time>2026-08-21T14:28:35Z</time>
      </trkpt>
      <trkpt lat="49.07001" lon="4.0484">
        <ele>83</ele>
        <time>2026-08-21T14:28:40Z</time>
      </trkpt>
      <trkpt lat="49.07001" lon="4.0484">
        <ele>83</ele>
        <time>2026-08-21T14:28:46Z</time>
      </trkpt>
      <trkpt lat="49.07001" lon="4.0484">
        <ele>83</ele>
        <time>2026-08-21T14:28:51Z</time>
      </trkpt>
      <trkpt lat="49.07001" lon="4.0484">
        <ele>83</ele>
        <time>2026-08-21T14:28:56Z</time>
      </trkpt>
      <trkpt lat="49.07001" lon="4.0484">
        <ele>83</ele>
        <time>2026-08-21T14:29:02Z</time>
      </trkpt>
      <trkpt lat="49.07001" lon="4.0484">
        <ele>83</ele>
        <time>2026-08-21T14:29:07Z</time>
      </trkpt>
      <trkpt lat="49.07001" lon="4.0484">
        <ele>83</ele>
        <time>2026-08-21T14:29:12Z</time>
      </trkpt>
      <trkpt lat="49.07001" lon="4.0484">
        <ele>83</ele>
        <time>2026-08-21T14:29:18Z</time>
      </trkpt>
      <trkpt lat="49.07001" lon="4.0484">
        <ele>83</ele>
        <time>2026-08-21T14:29:23Z</time>
      </trkpt>
      <trkpt lat="49.07001" lon="4.0484">
        <ele>83</ele>
        <time>2026-08-21T14:29:28Z</time>
      </trkpt>
      <trkpt lat="49.07001" lon="4.0484">
        <ele>83</ele>
        <time>2026-08-21T14:29:34Z</time>
      </trkpt>
      <trkpt lat="49.07001" lon="4.0484">
        <ele>83</ele>
        <time>2026-08-21T14:29:39Z</time>
      </trkpt>
      <trkpt lat="49.07001" lon="4.0484">
        <ele>83</ele>
        <time>2026-08-21T14:29:44Z</time>
      </trkpt>
      <trkpt lat="49.07001" lon="4.0484">
        <ele>83</ele>
        <time>2026-08-21T14:29:50Z</time>
      </trkpt>
      <trkpt lat="49.07001" lon="4.0484">
        <ele>83</ele>
        <time>2026-08-21T14:29:55Z</time>
      </trkpt>
      <trkpt lat="49.07001" lon="4.0484">
        <ele>83</ele>
        <time>2026-08-21T14:30:00Z</time>
      </trkpt>
      <trkpt lat="49.07001" lon="4.0484">
        <ele>83</ele>
        <time>2026-08-21T14:30:06Z</time>
      </trkpt>
      <trkpt lat="49.07001" lon="4.0484">
        <ele>83</ele>
        <time>2026-08-21T14:30:11Z</time>
      </trkpt>
      <trkpt lat="49.07001" lon="4.0484">
        <ele>83</ele>
        <time>2026-08-21T14:30:16Z</time>
      </trkpt>
      <trkpt lat="49.07001" lon="4.0484">
        <ele>83</ele>
        <time>2026-08-21T14:30:22Z</time>
      </trkpt>
      <trkpt lat="49.07001" lon="4.0484">
        <ele>83</ele>
        <time>2026-08-21T14:30:27Z</time>
      </trkpt>
      <trkpt lat="49.07001" lon="4.0484">
        <ele>83</ele>
        <time>2026-08-21T14:30:32Z</time>
      </trkpt>
      <trkpt lat="49.07001" lon="4.0484">
        <ele>83</ele>
        <time>2026-08-21T14:30:38Z</time>
      </trkpt>
      <trkpt lat="49.07001" lon="4.0484">
        <ele>83</ele>
        <time>2026-08-21T14:30:43Z</time>
      </trkpt>
      <trkpt lat="49.07001" lon="4.0484">
        <ele>83</ele>
        <time>2026-08-21T14:30:49Z</time>
      </trkpt>
      <trkpt lat="49.07001" lon="4.0484">
        <ele>83</ele>
        <time>2026-08-21T14:30:54Z</time>
      </trkpt>
      <trkpt lat="49.07001" lon="4.0484">
        <ele>83</ele>
        <time>2026-08-21T14:30:59Z</time>
      </trkpt>
      <trkpt lat="49.07001" lon="4.0484">
        <ele>83</ele>
        <time>2026-08-21T14:31:05Z</time>
      </trkpt>
      <trkpt lat="49.07001" lon="4.0484">
        <ele>83</ele>
        <time>2026-08-21T14:31:10Z</time>
      </trkpt>
      <trkpt lat="49.07001" lon="4.0484">
        <ele>83</ele>
        <time>2026-08-21T14:31:15Z</time>
      </trkpt>
      <trkpt lat="49.07001" lon="4.0484">
        <ele>83</ele>
        <time>2026-08-21T14:31:21Z</time>
      </trkpt>
      <trkpt lat="49.07001" lon="4.0484">
        <ele>83</ele>
        <time>2026-08-21T14:31:26Z</time>
      </trkpt>
      <trkpt lat="49.07001" lon="4.0484">
        <ele>83</ele>
        <time>2026-08-21T14:31:31Z</time>
      </trkpt>
      <trkpt lat="49.07001" lon="4.0484">
        <ele>83</ele>
        <time>2026-08-21T14:31:37Z</time>
      </trkpt>
      <trkpt lat="49.07001" lon="4.0484">
        <ele>83</ele>
        <time>2026-08-21T14:31:42Z</time>
      </trkpt>
      <trkpt lat="49.07001" lon="4.0484">
        <ele>83</ele>
        <time>2026-08-21T14:31:47Z</time>
      </trkpt>
      <trkpt lat="49.07001" lon="4.0484">
        <ele>83</ele>
        <time>2026-08-21T14:31:53Z</time>
      </trkpt>
      <trkpt lat="49.07001" lon="4.0484">
        <ele>83</ele>
        <time>2026-08-21T14:31:58Z</time>
      </trkpt>
      <trkpt lat="49.07001" lon="4.0484">
        <ele>83</ele>
        <time>2026-08-21T14:32:03Z</time>
      </trkpt>
      <trkpt lat="49.07001" lon="4.0484">
        <ele>83</ele>
        <time>2026-08-21T14:32:09Z</time>
      </trkpt>
      <trkpt lat="49.07001" lon="4.0484">
        <ele>83</ele>
        <time>2026-08-21T14:32:14Z</time>
      </trkpt>
      <trkpt lat="49.07001" lon="4.0484">
        <ele>83</ele>
        <time>2026-08-21T14:32:19Z</time>
      </trkpt>
      <trkpt lat="49.07001" lon="4.0484">
        <ele>83</ele>
        <time>2026-08-21T14:32:25Z</time>
      </trkpt>
      <trkpt lat="49.07001" lon="4.0484">
        <ele>83</ele>
        <time>2026-08-21T14:32:30Z</time>
      </trkpt>
      <trkpt lat="49.07001" lon="4.0484">
        <ele>83</ele>
        <time>2026-08-21T14:32:35Z</time>
      </trkpt>
      <trkpt lat="49.07001" lon="4.0484">
        <ele>83</ele>
        <time>2026-08-21T14:32:41Z</time>
      </trkpt>
      <trkpt lat="49.07001" lon="4.0484">
        <ele>83</ele>
        <time>2026-08-21T14:32:46Z</time>
      </trkpt>
      <trkpt lat="49.07001" lon="4.0484">
        <ele>83</ele>
        <time>2026-08-21T14:32:51Z</time>
      </trkpt>
      <trkpt lat="49.07001" lon="4.0484">
        <ele>83</ele>
        <time>2026-08-21T14:32:57Z</time>
      </trkpt>
      <trkpt lat="49.07001" lon="4.0484">
        <ele>83</ele>
        <time>2026-08-21T14:33:02Z</time>
      </trkpt>
      <trkpt lat="49.07001" lon="4.0484">
        <ele>83</ele>
        <time>2026-08-21T14:33:07Z</time>
      </trkpt>
      <trkpt lat="49.07001" lon="4.0484">
        <ele>83</ele>
        <time>2026-08-21T14:33:13Z</time>
      </trkpt>
      <trkpt lat="49.07001" lon="4.0484">
        <ele>83</ele>
        <time>2026-08-21T14:33:18Z</time>
      </trkpt>
      <trkpt lat="49.07001" lon="4.0484">
        <ele>83</ele>
        <time>2026-08-21T14:33:23Z</time>
      </trkpt>
      <trkpt lat="49.07001" lon="4.0484">
        <ele>83</ele>
        <time>2026-08-21T14:33:29Z</time>
      </trkpt>
      <trkpt lat="49.07001" lon="4.0484">
        <ele>83</ele>
        <time>2026-08-21T14:33:34Z</time>
      </trkpt>
      <trkpt lat="49.07001" lon="4.0484">
        <ele>83</ele>
        <time>2026-08-21T14:33:39Z</time>
      </trkpt>
      <trkpt lat="49.07001" lon="4.0484">
        <ele>83</ele>
        <time>2026-08-21T14:33:45Z</time>
      </trkpt>
      <trkpt lat="49.07001" lon="4.0484">
        <ele>83</ele>
        <time>2026-08-21T14:33:50Z</time>
      </trkpt>
      <trkpt lat="49.07001" lon="4.0484">
        <ele>83</ele>
        <time>2026-08-21T14:33:55Z</time>
      </trkpt>
      <trkpt lat="49.07001" lon="4.0484">
        <ele>83</ele>
        <time>2026-08-21T14:34:01Z</time>
      </trkpt>
      <trkpt lat="49.07001" lon="4.0484">
        <ele>83</ele>
        <time>2026-08-21T14:34:06Z</time>
      </trkpt>
      <trkpt lat="49.07001" lon="4.0484">
        <ele>83</ele>
        <time>2026-08-21T14:34:11Z</time>
      </trkpt>
      <trkpt lat="49.07001" lon="4.0484">
        <ele>83</ele>
        <time>2026-08-21T14:34:17Z</time>
      </trkpt>
      <trkpt lat="49.07001" lon="4.0484">
        <ele>83</ele>
        <time>2026-08-21T14:34:22Z</time>
      </trkpt>
      <trkpt lat="49.07001" lon="4.0484">
        <ele>83</ele>
        <time>2026-08-21T14:34:27Z</time>
      </trkpt>
      <trkpt lat="49.07001" lon="4.0484">
        <ele>83</ele>
        <time>2026-08-21T14:34:33Z</time>
      </trkpt>
      <trkpt lat="49.07001" lon="4.0484">
        <ele>83</ele>
        <time>2026-08-21T14:34:38Z</time>
      </trkpt>
      <trkpt lat="49.07001" lon="4.0484">
        <ele>83</ele>
        <time>2026-08-21T14:34:43Z</time>
      </trkpt>
      <trkpt lat="49.07001" lon="4.0484">
        <ele>83</ele>
        <time>2026-08-21T14:34:49Z</time>
      </trkpt>
      <trkpt lat="49.07001" lon="4.0484">
        <ele>83</ele>
        <time>2026-08-21T14:34:54Z</time>
      </trkpt>
      <trkpt lat="49.07001" lon="4.0484">
        <ele>83</ele>
        <time>2026-08-21T14:34:59Z</time>
      </trkpt>
      <trkpt lat="49.07001" lon="4.0484">
        <ele>83</ele>
        <time>2026-08-21T14:35:05Z</time>
      </trkpt>
      <trkpt lat="49.07001" lon="4.0484">
        <ele>83</ele>
        <time>2026-08-21T14:35:10Z</time>
      </trkpt>
      <trkpt lat="49.07001" lon="4.0484">
        <ele>83</ele>
        <time>2026-08-21T14:35:15Z</time>
      </trkpt>
      <trkpt lat="49.07001" lon="4.0484">
        <ele>83</ele>
        <time>2026-08-21T14:35:21Z</time>
      </trkpt>
      <trkpt lat="49.07001" lon="4.0484">
        <ele>83</ele>
        <time>2026-08-21T14:35:26Z</time>
      </trkpt>
      <trkpt lat="49.07001" lon="4.0484">
        <ele>83</ele>
        <time>2026-08-21T14:35:31Z</time>
      </trkpt>
      <trkpt lat="49.07001" lon="4.0484">
        <ele>83</ele>
        <time>2026-08-21T14:35:37Z</time>
      </trkpt>
      <trkpt lat="49.07001" lon="4.0484">
        <ele>83</ele>
        <time>2026-08-21T14:35:42Z</time>
      </trkpt>
      <trkpt lat="49.07001" lon="4.0484">
        <ele>83</ele>
        <time>2026-08-21T14:35:47Z</time>
      </trkpt>
      <trkpt lat="49.07001" lon="4.0484">
        <ele>83</ele>
        <time>2026-08-21T14:35:53Z</time>
      </trkpt>
      <trkpt lat="49.07001" lon="4.0484">
        <ele>83</ele>
        <time>2026-08-21T14:35:58Z</time>
      </trkpt>
      <trkpt lat="49.07001" lon="4.0484">
        <ele>83</ele>
        <time>2026-08-21T14:36:03Z</time>
      </trkpt>
      <trkpt lat="49.07001" lon="4.0484">
        <ele>83</ele>
        <time>2026-08-21T14:36:09Z</time>
      </trkpt>
      <trkpt lat="49.07006" lon="4.04834">
        <ele>83.2</ele>
        <time>2026-08-21T14:36:14Z</time>
      </trkpt>
      <trkpt lat="49.07012" lon="4.04832">
        <ele>83.5</ele>
        <time>2026-08-21T14:36:19Z</time>
      </trkpt>
      <trkpt lat="49.07016" lon="4.04829">
        <ele>83.8</ele>
        <time>2026-08-21T14:36:25Z</time>
      </trkpt>
      <trkpt lat="49.07019" lon="4.04829">
        <ele>83.9</ele>
        <time>2026-08-21T14:36:30Z</time>
      </trkpt>
      <trkpt lat="49.07016" lon="4.04839">
        <ele>83.5</ele>
        <time>2026-08-21T14:36:35Z</time>
      </trkpt>
      <trkpt lat="49.07011" lon="4.04844">
        <ele>83.2</ele>
        <time>2026-08-21T14:36:41Z</time>
      </trkpt>
      <trkpt lat="49.07005" lon="4.04842">
        <ele>83.1</ele>
        <time>2026-08-21T14:36:46Z</time>
      </trkpt>
      <trkpt lat="49.07005" lon="4.04842">
        <ele>83.1</ele>
        <time>2026-08-21T14:36:51Z</time>
      </trkpt>
      <trkpt lat="49.07005" lon="4.04842">
        <ele>83.1</ele>
        <time>2026-08-21T14:36:57Z</time>
      </trkpt>
      <trkpt lat="49.07005" lon="4.04842">
        <ele>83.1</ele>
        <time>2026-08-21T14:37:02Z</time>
      </trkpt>
      <trkpt lat="49.07005" lon="4.04842">
        <ele>83.1</ele>
        <time>2026-08-21T14:37:07Z</time>
      </trkpt>
      <trkpt lat="49.07005" lon="4.04842">
        <ele>83.1</ele>
        <time>2026-08-21T14:37:13Z</time>
      </trkpt>
      <trkpt lat="49.07005" lon="4.04842">
        <ele>83.1</ele>
        <time>2026-08-21T14:37:18Z</time>
      </trkpt>
      <trkpt lat="49.07005" lon="4.04842">
        <ele>83.1</ele>
        <time>2026-08-21T14:37:23Z</time>
      </trkpt>
      <trkpt lat="49.07005" lon="4.04842">
        <ele>83.1</ele>
        <time>2026-08-21T14:37:29Z</time>
      </trkpt>
      <trkpt lat="49.07005" lon="4.04842">
        <ele>83.1</ele>
        <time>2026-08-21T14:37:34Z</time>
      </trkpt>
      <trkpt lat="49.07005" lon="4.04842">
        <ele>83.1</ele>
        <time>2026-08-21T14:37:39Z</time>
      </trkpt>
      <trkpt lat="49.07005" lon="4.04842">
        <ele>83.1</ele>
        <time>2026-08-21T14:37:45Z</time>
      </trkpt>
      <trkpt lat="49.07005" lon="4.04842">
        <ele>83.1</ele>
        <time>2026-08-21T14:37:50Z</time>
      </trkpt>
      <trkpt lat="49.07005" lon="4.04842">
        <ele>83.1</ele>
        <time>2026-08-21T14:37:55Z</time>
      </trkpt>
      <trkpt lat="49.07005" lon="4.04842">
        <ele>83.1</ele>
        <time>2026-08-21T14:38:01Z</time>
      </trkpt>
      <trkpt lat="49.07005" lon="4.04842">
        <ele>83.1</ele>
        <time>2026-08-21T14:38:06Z</time>
      </trkpt>
      <trkpt lat="49.07005" lon="4.04842">
        <ele>83.1</ele>
        <time>2026-08-21T14:38:11Z</time>
      </trkpt>
      <trkpt lat="49.07005" lon="4.04842">
        <ele>83.1</ele>
        <time>2026-08-21T14:38:17Z</time>
      </trkpt>
      <trkpt lat="49.07005" lon="4.04842">
        <ele>83.1</ele>
        <time>2026-08-21T14:38:22Z</time>
      </trkpt>
      <trkpt lat="49.07005" lon="4.04842">
        <ele>83.1</ele>
        <time>2026-08-21T14:38:27Z</time>
      </trkpt>
      <trkpt lat="49.07005" lon="4.04842">
        <ele>83.1</ele>
        <time>2026-08-21T14:38:33Z</time>
      </trkpt>
      <trkpt lat="49.07005" lon="4.04842">
        <ele>83.1</ele>
        <time>2026-08-21T14:38:38Z</time>
      </trkpt>
      <trkpt lat="49.07005" lon="4.04842">
        <ele>83.1</ele>
        <time>2026-08-21T14:38:43Z</time>
      </trkpt>
      <trkpt lat="49.07005" lon="4.04842">
        <ele>83.1</ele>
        <time>2026-08-21T14:38:49Z</time>
      </trkpt>
      <trkpt lat="49.07005" lon="4.04842">
        <ele>83.1</ele>
        <time>2026-08-21T14:38:54Z</time>
      </trkpt>
      <trkpt lat="49.07005" lon="4.04842">
        <ele>83.1</ele>
        <time>2026-08-21T14:38:59Z</time>
      </trkpt>
      <trkpt lat="49.07005" lon="4.04842">
        <ele>83.1</ele>
        <time>2026-08-21T14:39:05Z</time>
      </trkpt>
      <trkpt lat="49.07005" lon="4.04842">
        <ele>83.1</ele>
        <time>2026-08-21T14:39:10Z</time>
      </trkpt>
      <trkpt lat="49.07005" lon="4.04842">
        <ele>83.1</ele>
        <time>2026-08-21T14:39:15Z</time>
      </trkpt>
      <trkpt lat="49.07005" lon="4.04842">
        <ele>83.1</ele>
        <time>2026-08-21T14:39:21Z</time>
      </trkpt>
      <trkpt lat="49.07006" lon="4.04844">
        <ele>83.1</ele>
        <time>2026-08-21T14:39:26Z</time>
      </trkpt>
      <trkpt lat="49.07006" lon="4.04844">
        <ele>83.1</ele>
        <time>2026-08-21T14:39:31Z</time>
      </trkpt>
      <trkpt lat="49.07006" lon="4.04844">
        <ele>83.1</ele>
        <time>2026-08-21T14:39:37Z</time>
      </trkpt>
      <trkpt lat="49.07006" lon="4.04844">
        <ele>83.1</ele>
        <time>2026-08-21T14:39:42Z</time>
      </trkpt>
      <trkpt lat="49.07006" lon="4.04844">
        <ele>83.1</ele>
        <time>2026-08-21T14:39:47Z</time>
      </trkpt>
      <trkpt lat="49.07006" lon="4.04844">
        <ele>83.1</ele>
        <time>2026-08-21T14:39:53Z</time>
      </trkpt>
      <trkpt lat="49.07006" lon="4.04844">
        <ele>83.1</ele>
        <time>2026-08-21T14:39:58Z</time>
      </trkpt>
      <trkpt lat="49.07006" lon="4.04844">
        <ele>83.1</ele>
        <time>2026-08-21T14:40:03Z</time>
      </trkpt>
      <trkpt lat="49.07006" lon="4.04844">
        <ele>83.1</ele>
        <time>2026-08-21T14:40:09Z</time>
      </trkpt>
      <trkpt lat="49.07006" lon="4.04844">
        <ele>83.1</ele>
        <time>2026-08-21T14:40:14Z</time>
      </trkpt>
      <trkpt lat="49.07006" lon="4.04844">
        <ele>83.1</ele>
        <time>2026-08-21T14:40:19Z</time>
      </trkpt>
      <trkpt lat="49.07006" lon="4.04844">
        <ele>83.1</ele>
        <time>2026-08-21T14:40:25Z</time>
      </trkpt>
      <trkpt lat="49.07006" lon="4.04844">
        <ele>83.1</ele>
        <time>2026-08-21T14:40:30Z</time>
      </trkpt>
      <trkpt lat="49.07006" lon="4.04844">
        <ele>83.1</ele>
        <time>2026-08-21T14:40:35Z</time>
      </trkpt>
      <trkpt lat="49.07006" lon="4.04844">
        <ele>83.1</ele>
        <time>2026-08-21T14:40:41Z</time>
      </trkpt>
      <trkpt lat="49.07006" lon="4.04844">
        <ele>83.1</ele>
        <time>2026-08-21T14:40:46Z</time>
      </trkpt>
      <trkpt lat="49.07006" lon="4.04844">
        <ele>83.1</ele>
        <time>2026-08-21T14:40:51Z</time>
      </trkpt>
      <trkpt lat="49.07006" lon="4.04844">
        <ele>83.1</ele>
        <time>2026-08-21T14:40:57Z</time>
      </trkpt>
      <trkpt lat="49.07006" lon="4.04844">
        <ele>83.1</ele>
        <time>2026-08-21T14:41:02Z</time>
      </trkpt>
      <trkpt lat="49.07006" lon="4.04844">
        <ele>83.1</ele>
        <time>2026-08-21T14:41:07Z</time>
      </trkpt>
      <trkpt lat="49.07006" lon="4.04844">
        <ele>83.1</ele>
        <time>2026-08-21T14:41:13Z</time>
      </trkpt>
      <trkpt lat="49.07006" lon="4.04844">
        <ele>83.1</ele>
        <time>2026-08-21T14:41:18Z</time>
      </trkpt>
      <trkpt lat="49.07006" lon="4.04844">
        <ele>83.1</ele>
        <time>2026-08-21T14:41:23Z</time>
      </trkpt>
      <trkpt lat="49.07006" lon="4.04844">
        <ele>83.1</ele>
        <time>2026-08-21T14:41:29Z</time>
      </trkpt>
      <trkpt lat="49.07006" lon="4.04844">
        <ele>83.1</ele>
        <time>2026-08-21T14:41:34Z</time>
      </trkpt>
      <trkpt lat="49.07006" lon="4.04844">
        <ele>83.1</ele>
        <time>2026-08-21T14:41:39Z</time>
      </trkpt>
      <trkpt lat="49.07006" lon="4.04844">
        <ele>83.1</ele>
        <time>2026-08-21T14:41:45Z</time>
      </trkpt>
      <trkpt lat="49.07006" lon="4.04844">
        <ele>83.1</ele>
        <time>2026-08-21T14:41:50Z</time>
      </trkpt>
      <trkpt lat="49.07006" lon="4.04844">
        <ele>83.1</ele>
        <time>2026-08-21T14:41:55Z</time>
      </trkpt>
      <trkpt lat="49.07006" lon="4.04844">
        <ele>83.1</ele>
        <time>2026-08-21T14:42:01Z</time>
      </trkpt>
      <trkpt lat="49.07006" lon="4.04844">
        <ele>83.1</ele>
        <time>2026-08-21T14:42:06Z</time>
      </trkpt>
      <trkpt lat="49.07006" lon="4.04844">
        <ele>83.1</ele>
        <time>2026-08-21T14:42:11Z</time>
      </trkpt>
      <trkpt lat="49.07006" lon="4.04844">
        <ele>83.1</ele>
        <time>2026-08-21T14:42:17Z</time>
      </trkpt>
      <trkpt lat="49.07006" lon="4.04844">
        <ele>83.1</ele>
        <time>2026-08-21T14:42:22Z</time>
      </trkpt>
      <trkpt lat="49.07006" lon="4.04844">
        <ele>83.1</ele>
        <time>2026-08-21T14:42:27Z</time>
      </trkpt>
      <trkpt lat="49.07006" lon="4.04844">
        <ele>83.1</ele>
        <time>2026-08-21T14:42:33Z</time>
      </trkpt>
      <trkpt lat="49.07006" lon="4.04844">
        <ele>83.1</ele>
        <time>2026-08-21T14:42:38Z</time>
      </trkpt>
      <trkpt lat="49.07006" lon="4.04844">
        <ele>83.1</ele>
        <time>2026-08-21T14:42:43Z</time>
      </trkpt>
      <trkpt lat="49.07006" lon="4.04844">
        <ele>83.1</ele>
        <time>2026-08-21T14:42:49Z</time>
      </trkpt>
      <trkpt lat="49.07006" lon="4.04844">
        <ele>83.1</ele>
        <time>2026-08-21T14:42:54Z</time>
      </trkpt>
      <trkpt lat="49.07006" lon="4.04844">
        <ele>83.1</ele>
        <time>2026-08-21T14:42:59Z</time>
      </trkpt>
      <trkpt lat="49.07006" lon="4.04844">
        <ele>83.1</ele>
        <time>2026-08-21T14:43:05Z</time>
      </trkpt>
      <trkpt lat="49.07006" lon="4.04844">
        <ele>83.1</ele>
        <time>2026-08-21T14:43:10Z</time>
      </trkpt>
      <trkpt lat="49.07006" lon="4.04844">
        <ele>83.1</ele>
        <time>2026-08-21T14:43:15Z</time>
      </trkpt>
      <trkpt lat="49.07006" lon="4.04844">
        <ele>83.1</ele>
        <time>2026-08-21T14:43:21Z</time>
      </trkpt>
      <trkpt lat="49.07006" lon="4.04844">
        <ele>83.1</ele>
        <time>2026-08-21T14:43:26Z</time>
      </trkpt>
      <trkpt lat="49.07006" lon="4.04844">
        <ele>83.1</ele>
        <time>2026-08-21T14:43:31Z</time>
      </trkpt>
      <trkpt lat="49.07006" lon="4.04844">
        <ele>83.1</ele>
        <time>2026-08-21T14:43:37Z</time>
      </trkpt>
      <trkpt lat="49.07006" lon="4.04844">
        <ele>83.1</ele>
        <time>2026-08-21T14:43:42Z</time>
      </trkpt>
      <trkpt lat="49.07006" lon="4.04844">
        <ele>83.1</ele>
        <time>2026-08-21T14:43:47Z</time>
      </trkpt>
      <trkpt lat="49.07006" lon="4.04844">
        <ele>83.1</ele>
        <time>2026-08-21T14:43:53Z</time>
      </trkpt>
      <trkpt lat="49.07006" lon="4.04844">
        <ele>83.1</ele>
        <time>2026-08-21T14:43:58Z</time>
      </trkpt>
      <trkpt lat="49.07006" lon="4.04844">
        <ele>83.1</ele>
        <time>2026-08-21T14:44:03Z</time>
      </trkpt>
      <trkpt lat="49.07006" lon="4.04844">
        <ele>83.1</ele>
        <time>2026-08-21T14:44:09Z</time>
      </trkpt>
      <trkpt lat="49.07006" lon="4.04844">
        <ele>83.1</ele>
        <time>2026-08-21T14:44:14Z</time>
      </trkpt>
      <trkpt lat="49.07006" lon="4.04844">
        <ele>83.1</ele>
        <time>2026-08-21T14:44:19Z</time>
      </trkpt>
      <trkpt lat="49.07006" lon="4.04844">
        <ele>83.1</ele>
        <time>2026-08-21T14:44:25Z</time>
      </trkpt>
      <trkpt lat="49.07006" lon="4.04844">
        <ele>83.1</ele>
        <time>2026-08-21T14:44:30Z</time>
      </trkpt>
      <trkpt lat="49.07006" lon="4.04844">
        <ele>83.1</ele>
        <time>2026-08-21T14:44:35Z</time>
      </trkpt>
      <trkpt lat="49.07006" lon="4.04844">
        <ele>83.1</ele>
        <time>2026-08-21T14:44:41Z</time>
      </trkpt>
      <trkpt lat="49.07006" lon="4.04844">
        <ele>83.1</ele>
        <time>2026-08-21T14:44:46Z</time>
      </trkpt>
      <trkpt lat="49.07006" lon="4.04844">
        <ele>83.1</ele>
        <time>2026-08-21T14:44:51Z</time>
      </trkpt>
      <trkpt lat="49.07006" lon="4.04844">
        <ele>83.1</ele>
        <time>2026-08-21T14:44:57Z</time>
      </trkpt>
      <trkpt lat="49.07006" lon="4.04844">
        <ele>83.1</ele>
        <time>2026-08-21T14:45:02Z</time>
      </trkpt>
      <trkpt lat="49.07006" lon="4.04844">
        <ele>83.1</ele>
        <time>2026-08-21T14:45:07Z</time>
      </trkpt>
      <trkpt lat="49.07006" lon="4.04844">
        <ele>83.1</ele>
        <time>2026-08-21T14:45:13Z</time>
      </trkpt>
      <trkpt lat="49.07006" lon="4.04844">
        <ele>83.1</ele>
        <time>2026-08-21T14:45:18Z</time>
      </trkpt>
      <trkpt lat="49.07006" lon="4.04844">
        <ele>83.1</ele>
        <time>2026-08-21T14:45:23Z</time>
      </trkpt>
      <trkpt lat="49.07006" lon="4.04844">
        <ele>83.1</ele>
        <time>2026-08-21T14:45:29Z</time>
      </trkpt>
      <trkpt lat="49.07006" lon="4.04844">
        <ele>83.1</ele>
        <time>2026-08-21T14:45:34Z</time>
      </trkpt>
      <trkpt lat="49.07006" lon="4.04844">
        <ele>83.1</ele>
        <time>2026-08-21T14:45:39Z</time>
      </trkpt>
      <trkpt lat="49.07006" lon="4.04844">
        <ele>83.1</ele>
        <time>2026-08-21T14:45:45Z</time>
      </trkpt>
      <trkpt lat="49.07006" lon="4.04844">
        <ele>83.1</ele>
        <time>2026-08-21T14:45:50Z</time>
      </trkpt>
      <trkpt lat="49.07008" lon="4.04846">
        <ele>83.1</ele>
        <time>2026-08-21T14:45:55Z</time>
      </trkpt>
      <trkpt lat="49.0701" lon="4.04843">
        <ele>83.2</ele>
        <time>2026-08-21T14:46:01Z</time>
      </trkpt>
      <trkpt lat="49.07014" lon="4.04839">
        <ele>83.4</ele>
        <time>2026-08-21T14:46:06Z</time>
      </trkpt>
      <trkpt lat="49.07017" lon="4.04835">
        <ele>83.6</ele>
        <time>2026-08-21T14:46:11Z</time>
      </trkpt>
      <trkpt lat="49.07021" lon="4.04838">
        <ele>83.7</ele>
        <time>2026-08-21T14:46:17Z</time>
      </trkpt>
      <trkpt lat="49.07024" lon="4.04831">
        <ele>84</ele>
        <time>2026-08-21T14:46:22Z</time>
      </trkpt>
      <trkpt lat="49.07029" lon="4.04825">
        <ele>84.4</ele>
        <time>2026-08-21T14:46:27Z</time>
      </trkpt>
      <trkpt lat="49.07033" lon="4.04816">
        <ele>84.9</ele>
        <time>2026-08-21T14:46:33Z</time>
      </trkpt>
      <trkpt lat="49.07035" lon="4.04811">
        <ele>85.1</ele>
        <time>2026-08-21T14:46:38Z</time>
      </trkpt>
      <trkpt lat="49.07039" lon="4.04806">
        <ele>85.4</ele>
        <time>2026-08-21T14:46:43Z</time>
      </trkpt>
      <trkpt lat="49.07044" lon="4.04801">
        <ele>85.7</ele>
        <time>2026-08-21T14:46:49Z</time>
      </trkpt>
      <trkpt lat="49.0705" lon="4.04796">
        <ele>86.1</ele>
        <time>2026-08-21T14:46:54Z</time>
      </trkpt>
      <trkpt lat="49.07056" lon="4.04796">
        <ele>86.2</ele>
        <time>2026-08-21T14:46:59Z</time>
      </trkpt>
      <trkpt lat="49.07056" lon="4.04796">
        <ele>86.2</ele>
        <time>2026-08-21T14:47:05Z</time>
      </trkpt>
      <trkpt lat="49.07056" lon="4.04796">
        <ele>86.2</ele>
        <time>2026-08-21T14:47:10Z</time>
      </trkpt>
      <trkpt lat="49.07056" lon="4.04796">
        <ele>86.2</ele>
        <time>2026-08-21T14:47:15Z</time>
      </trkpt>
      <trkpt lat="49.07056" lon="4.04796">
        <ele>86.2</ele>
        <time>2026-08-21T14:47:21Z</time>
      </trkpt>
      <trkpt lat="49.07059" lon="4.04803">
        <ele>86.1</ele>
        <time>2026-08-21T14:47:26Z</time>
      </trkpt>
      <trkpt lat="49.07062" lon="4.04811">
        <ele>85.9</ele>
        <time>2026-08-21T14:47:31Z</time>
      </trkpt>
      <trkpt lat="49.07068" lon="4.04818">
        <ele>85.9</ele>
        <time>2026-08-21T14:47:37Z</time>
      </trkpt>
      <trkpt lat="49.07073" lon="4.04822">
        <ele>85.9</ele>
        <time>2026-08-21T14:47:42Z</time>
      </trkpt>
      <trkpt lat="49.07075" lon="4.04819">
        <ele>86.1</ele>
        <time>2026-08-21T14:47:47Z</time>
      </trkpt>
      <trkpt lat="49.07074" lon="4.04818">
        <ele>86.1</ele>
        <time>2026-08-21T14:47:53Z</time>
      </trkpt>
      <trkpt lat="49.07074" lon="4.04818">
        <ele>86.1</ele>
        <time>2026-08-21T14:47:58Z</time>
      </trkpt>
      <trkpt lat="49.07074" lon="4.04818">
        <ele>86.1</ele>
        <time>2026-08-21T14:48:03Z</time>
      </trkpt>
      <trkpt lat="49.07074" lon="4.04821">
        <ele>86</ele>
        <time>2026-08-21T14:48:09Z</time>
      </trkpt>
      <trkpt lat="49.07078" lon="4.04824">
        <ele>86</ele>
        <time>2026-08-21T14:48:14Z</time>
      </trkpt>
      <trkpt lat="49.07082" lon="4.0483">
        <ele>86</ele>
        <time>2026-08-21T14:48:19Z</time>
      </trkpt>
      <trkpt lat="49.07086" lon="4.04834">
        <ele>86.1</ele>
        <time>2026-08-21T14:48:25Z</time>
      </trkpt>
      <trkpt lat="49.0709" lon="4.04839">
        <ele>86</ele>
        <time>2026-08-21T14:48:30Z</time>
      </trkpt>
      <trkpt lat="49.07094" lon="4.04845">
        <ele>86</ele>
        <time>2026-08-21T14:48:35Z</time>
      </trkpt>
      <trkpt lat="49.07099" lon="4.04855">
        <ele>85.8</ele>
        <time>2026-08-21T14:48:41Z</time>
      </trkpt>
      <trkpt lat="49.07104" lon="4.04861">
        <ele>85.8</ele>
        <time>2026-08-21T14:48:46Z</time>
      </trkpt>
      <trkpt lat="49.07108" lon="4.04866">
        <ele>85.8</ele>
        <time>2026-08-21T14:48:51Z</time>
      </trkpt>
      <trkpt lat="49.07113" lon="4.04877">
        <ele>85.7</ele>
        <time>2026-08-21T14:48:57Z</time>
      </trkpt>
      <trkpt lat="49.07118" lon="4.04884">
        <ele>85.7</ele>
        <time>2026-08-21T14:49:02Z</time>
      </trkpt>
      <trkpt lat="49.0712" lon="4.04887">
        <ele>85.7</ele>
        <time>2026-08-21T14:49:07Z</time>
      </trkpt>
      <trkpt lat="49.0712" lon="4.04887">
        <ele>85.7</ele>
        <time>2026-08-21T14:49:13Z</time>
      </trkpt>
      <trkpt lat="49.0712" lon="4.04887">
        <ele>85.7</ele>
        <time>2026-08-21T14:49:18Z</time>
      </trkpt>
      <trkpt lat="49.07125" lon="4.04894">
        <ele>85.7</ele>
        <time>2026-08-21T14:49:23Z</time>
      </trkpt>
      <trkpt lat="49.07133" lon="4.049">
        <ele>85.9</ele>
        <time>2026-08-21T14:49:29Z</time>
      </trkpt>
      <trkpt lat="49.07137" lon="4.04906">
        <ele>85.9</ele>
        <time>2026-08-21T14:49:34Z</time>
      </trkpt>
      <trkpt lat="49.07143" lon="4.04911">
        <ele>86</ele>
        <time>2026-08-21T14:49:39Z</time>
      </trkpt>
      <trkpt lat="49.07148" lon="4.04917">
        <ele>86.1</ele>
        <time>2026-08-21T14:49:45Z</time>
      </trkpt>
      <trkpt lat="49.07152" lon="4.04926">
        <ele>86.4</ele>
        <time>2026-08-21T14:49:50Z</time>
      </trkpt>
      <trkpt lat="49.07157" lon="4.04934">
        <ele>86.8</ele>
        <time>2026-08-21T14:49:55Z</time>
      </trkpt>
      <trkpt lat="49.07164" lon="4.04941">
        <ele>87.2</ele>
        <time>2026-08-21T14:50:01Z</time>
      </trkpt>
      <trkpt lat="49.07168" lon="4.04947">
        <ele>87.3</ele>
        <time>2026-08-21T14:50:06Z</time>
      </trkpt>
      <trkpt lat="49.07172" lon="4.04954">
        <ele>87.4</ele>
        <time>2026-08-21T14:50:11Z</time>
      </trkpt>
      <trkpt lat="49.07178" lon="4.04961">
        <ele>87.3</ele>
        <time>2026-08-21T14:50:17Z</time>
      </trkpt>
      <trkpt lat="49.07183" lon="4.04966">
        <ele>87.3</ele>
        <time>2026-08-21T14:50:22Z</time>
      </trkpt>
      <trkpt lat="49.07187" lon="4.04974">
        <ele>87.3</ele>
        <time>2026-08-21T14:50:27Z</time>
      </trkpt>
      <trkpt lat="49.07191" lon="4.0498">
        <ele>87.2</ele>
        <time>2026-08-21T14:50:33Z</time>
      </trkpt>
      <trkpt lat="49.07193" lon="4.04981">
        <ele>87.2</ele>
        <time>2026-08-21T14:50:38Z</time>
      </trkpt>
      <trkpt lat="49.07197" lon="4.04984">
        <ele>87.1</ele>
        <time>2026-08-21T14:50:43Z</time>
      </trkpt>
      <trkpt lat="49.07197" lon="4.04986">
        <ele>87.2</ele>
        <time>2026-08-21T14:50:49Z</time>
      </trkpt>
      <trkpt lat="49.07197" lon="4.04986">
        <ele>87.2</ele>
        <time>2026-08-21T14:50:54Z</time>
      </trkpt>
      <trkpt lat="49.07197" lon="4.04986">
        <ele>87.2</ele>
        <time>2026-08-21T14:50:59Z</time>
      </trkpt>
      <trkpt lat="49.07197" lon="4.04986">
        <ele>87.2</ele>
        <time>2026-08-21T14:51:05Z</time>
      </trkpt>
      <trkpt lat="49.07197" lon="4.04986">
        <ele>87.2</ele>
        <time>2026-08-21T14:51:10Z</time>
      </trkpt>
      <trkpt lat="49.07197" lon="4.04986">
        <ele>87.2</ele>
        <time>2026-08-21T14:51:15Z</time>
      </trkpt>
      <trkpt lat="49.07197" lon="4.04986">
        <ele>87.2</ele>
        <time>2026-08-21T14:51:21Z</time>
      </trkpt>
      <trkpt lat="49.07197" lon="4.04986">
        <ele>87.2</ele>
        <time>2026-08-21T14:51:26Z</time>
      </trkpt>
      <trkpt lat="49.07197" lon="4.04986">
        <ele>87.2</ele>
        <time>2026-08-21T14:51:31Z</time>
      </trkpt>
      <trkpt lat="49.07201" lon="4.04992">
        <ele>87.1</ele>
        <time>2026-08-21T14:51:37Z</time>
      </trkpt>
      <trkpt lat="49.07204" lon="4.04994">
        <ele>87.1</ele>
        <time>2026-08-21T14:51:42Z</time>
      </trkpt>
      <trkpt lat="49.07204" lon="4.04994">
        <ele>87.1</ele>
        <time>2026-08-21T14:51:47Z</time>
      </trkpt>
      <trkpt lat="49.07204" lon="4.04994">
        <ele>87.1</ele>
        <time>2026-08-21T14:51:53Z</time>
      </trkpt>
      <trkpt lat="49.07204" lon="4.04994">
        <ele>87.1</ele>
        <time>2026-08-21T14:51:58Z</time>
      </trkpt>
      <trkpt lat="49.07204" lon="4.04994">
        <ele>87.1</ele>
        <time>2026-08-21T14:52:03Z</time>
      </trkpt>
      <trkpt lat="49.07204" lon="4.04994">
        <ele>87.1</ele>
        <time>2026-08-21T14:52:09Z</time>
      </trkpt>
    </trkseg>
  </trk>
</gpx>